<?xml version='1.0' encoding='UTF-8'?><gpx version="1.1" creator="JPX - https://github.com/jenetics/jpx" xmlns="http://www.topografix.com/GPX/1/1"><trk><trkseg><trkpt lat="45.492953" lon="9.1628077"><ele>133.0</ele><time>2026-05-01T07:05:49.516Z</time></trkpt><trkpt lat="45.4928826" lon="9.1628242"><ele>133.0</ele><time>2026-05-01T07:05:51.517Z</time></trkpt><trkpt lat="45.4928771" lon="9.1627344"><ele>133.0</ele><time>2026-05-01T07:05:54.517Z</time></trkpt><trkpt lat="45.4928958" lon="9.1626146"><ele>133.0</ele><time>2026-05-01T07:05:56.516Z</time></trkpt><trkpt lat="45.4929677" lon="9.1626627"><ele>133.0</ele><time>2026-05-01T07:06:19.517Z</time></trkpt><trkpt lat="45.4929499" lon="9.1627536"><ele>133.0</ele><time>2026-05-01T07:06:46.259Z</time></trkpt><trkpt lat="45.4929199" lon="9.1628481"><ele>133.0</ele><time>2026-05-01T07:06:49.259Z</time></trkpt><trkpt lat="45.492858" lon="9.1628984"><ele>133.0</ele><time>2026-05-01T07:06:52.258Z</time></trkpt><trkpt lat="45.4927692" lon="9.162987"><ele>133.0</ele><time>2026-05-01T07:06:54.258Z</time></trkpt><trkpt lat="45.4927111" lon="9.1630372"><ele>133.0</ele><time>2026-05-01T07:06:55.259Z</time></trkpt><trkpt lat="45.4926579" lon="9.1630936"><ele>133.0</ele><time>2026-05-01T07:06:56.258Z</time></trkpt><trkpt lat="45.4925761" lon="9.1631951"><ele>133.0</ele><time>2026-05-01T07:06:58.259Z</time></trkpt><trkpt lat="45.4924754" lon="9.163219"><ele>133.33333333333334</ele><time>2026-05-01T07:07:00.259Z</time></trkpt><trkpt lat="45.4923397" lon="9.1630986"><ele>133.66666666666666</ele><time>2026-05-01T07:07:02.259Z</time></trkpt><trkpt lat="45.4922306" lon="9.1629354"><ele>134.0</ele><time>2026-05-01T07:07:03.259Z</time></trkpt><trkpt lat="45.492123" lon="9.1627537"><ele>134.75</ele><time>2026-05-01T07:07:04.258Z</time></trkpt><trkpt lat="45.4920166" lon="9.1626058"><ele>135.5</ele><time>2026-05-01T07:07:05.259Z</time></trkpt><trkpt lat="45.4919274" lon="9.1624726"><ele>136.25</ele><time>2026-05-01T07:07:06.259Z</time></trkpt><trkpt lat="45.4918251" lon="9.1623608"><ele>137.0</ele><time>2026-05-01T07:07:07.259Z</time></trkpt><trkpt lat="45.4917377" lon="9.1622569"><ele>137.0</ele><time>2026-05-01T07:07:08.258Z</time></trkpt><trkpt lat="45.4916535" lon="9.1621625"><ele>137.0</ele><time>2026-05-01T07:07:09.259Z</time></trkpt><trkpt lat="45.4915802" lon="9.1620606"><ele>137.0</ele><time>2026-05-01T07:07:10.259Z</time></trkpt><trkpt lat="45.4915196" lon="9.1619597"><ele>137.0</ele><time>2026-05-01T07:07:11.259Z</time></trkpt><trkpt lat="45.4914692" lon="9.1618799"><ele>137.0</ele><time>2026-05-01T07:07:12.258Z</time></trkpt><trkpt lat="45.4914212" lon="9.1617973"><ele>137.0</ele><time>2026-05-01T07:07:13.258Z</time></trkpt><trkpt lat="45.4913711" lon="9.161694"><ele>137.0</ele><time>2026-05-01T07:07:14.258Z</time></trkpt><trkpt lat="45.4913135" lon="9.1615634"><ele>137.0</ele><time>2026-05-01T07:07:15.259Z</time></trkpt><trkpt lat="45.4912358" lon="9.1614207"><ele>137.0</ele><time>2026-05-01T07:07:16.259Z</time></trkpt><trkpt lat="45.4911545" lon="9.1612483"><ele>136.25</ele><time>2026-05-01T07:07:17.259Z</time></trkpt><trkpt lat="45.4910714" lon="9.1610891"><ele>135.5</ele><time>2026-05-01T07:07:18.259Z</time></trkpt><trkpt lat="45.4909852" lon="9.160939"><ele>134.75</ele><time>2026-05-01T07:07:19.259Z</time></trkpt><trkpt lat="45.4908911" lon="9.1608026"><ele>134.0</ele><time>2026-05-01T07:07:20.259Z</time></trkpt><trkpt lat="45.4907958" lon="9.1606652"><ele>134.0</ele><time>2026-05-01T07:07:21.258Z</time></trkpt><trkpt lat="45.4907002" lon="9.1605382"><ele>134.0</ele><time>2026-05-01T07:07:22.259Z</time></trkpt><trkpt lat="45.4906036" lon="9.1604183"><ele>134.0</ele><time>2026-05-01T07:07:23.259Z</time></trkpt><trkpt lat="45.4905143" lon="9.1603115"><ele>134.0</ele><time>2026-05-01T07:07:24.258Z</time></trkpt><trkpt lat="45.4904335" lon="9.1602008"><ele>133.5</ele><time>2026-05-01T07:07:25.258Z</time></trkpt><trkpt lat="45.4903537" lon="9.1600851"><ele>133.0</ele><time>2026-05-01T07:07:26.259Z</time></trkpt><trkpt lat="45.4902701" lon="9.1599661"><ele>132.5</ele><time>2026-05-01T07:07:27.258Z</time></trkpt><trkpt lat="45.4901827" lon="9.1598543"><ele>132.0</ele><time>2026-05-01T07:07:28.259Z</time></trkpt><trkpt lat="45.4900943" lon="9.1597339"><ele>132.0</ele><time>2026-05-01T07:07:29.259Z</time></trkpt><trkpt lat="45.4900004" lon="9.1596125"><ele>132.0</ele><time>2026-05-01T07:07:30.259Z</time></trkpt><trkpt lat="45.4899036" lon="9.1594842"><ele>132.0</ele><time>2026-05-01T07:07:31.258Z</time></trkpt><trkpt lat="45.4898038" lon="9.1593513"><ele>132.0</ele><time>2026-05-01T07:07:32.258Z</time></trkpt><trkpt lat="45.4897099" lon="9.1592041"><ele>132.0</ele><time>2026-05-01T07:07:33.259Z</time></trkpt><trkpt lat="45.4896179" lon="9.1590544"><ele>132.0</ele><time>2026-05-01T07:07:34.259Z</time></trkpt><trkpt lat="45.4895302" lon="9.1588946"><ele>132.0</ele><time>2026-05-01T07:07:35.259Z</time></trkpt><trkpt lat="45.489442" lon="9.1587312"><ele>132.0</ele><time>2026-05-01T07:07:36.259Z</time></trkpt><trkpt lat="45.4893564" lon="9.1585699"><ele>132.66666666666666</ele><time>2026-05-01T07:07:37.258Z</time></trkpt><trkpt lat="45.4892751" lon="9.1583907"><ele>133.33333333333331</ele><time>2026-05-01T07:07:38.259Z</time></trkpt><trkpt lat="45.4891836" lon="9.15822"><ele>134.0</ele><time>2026-05-01T07:07:39.258Z</time></trkpt><trkpt lat="45.4890876" lon="9.1580554"><ele>134.0</ele><time>2026-05-01T07:07:40.259Z</time></trkpt><trkpt lat="45.4889929" lon="9.1578881"><ele>134.0</ele><time>2026-05-01T07:07:41.259Z</time></trkpt><trkpt lat="45.488894" lon="9.1577335"><ele>134.0</ele><time>2026-05-01T07:07:42.259Z</time></trkpt><trkpt lat="45.4887917" lon="9.1575911"><ele>134.0</ele><time>2026-05-01T07:07:43.259Z</time></trkpt><trkpt lat="45.4886978" lon="9.1574527"><ele>133.4</ele><time>2026-05-01T07:07:44.259Z</time></trkpt><trkpt lat="45.4886061" lon="9.1573254"><ele>132.8</ele><time>2026-05-01T07:07:45.259Z</time></trkpt><trkpt lat="45.4885262" lon="9.1571987"><ele>132.2</ele><time>2026-05-01T07:07:46.259Z</time></trkpt><trkpt lat="45.4884511" lon="9.1570935"><ele>131.6</ele><time>2026-05-01T07:07:47.259Z</time></trkpt><trkpt lat="45.4883889" lon="9.1570001"><ele>131.0</ele><time>2026-05-01T07:07:48.258Z</time></trkpt><trkpt lat="45.4883322" lon="9.1568961"><ele>131.0</ele><time>2026-05-01T07:07:49.258Z</time></trkpt><trkpt lat="45.4882739" lon="9.1567949"><ele>131.0</ele><time>2026-05-01T07:07:50.259Z</time></trkpt><trkpt lat="45.4882269" lon="9.1567071"><ele>131.0</ele><time>2026-05-01T07:07:51.259Z</time></trkpt><trkpt lat="45.4881805" lon="9.1565762"><ele>131.0</ele><time>2026-05-01T07:07:53.258Z</time></trkpt><trkpt lat="45.4881787" lon="9.1564427"><ele>131.0</ele><time>2026-05-01T07:07:55.258Z</time></trkpt><trkpt lat="45.4881667" lon="9.1562833"><ele>131.0</ele><time>2026-05-01T07:07:57.259Z</time></trkpt><trkpt lat="45.4881483" lon="9.156165"><ele>131.0</ele><time>2026-05-01T07:07:58.259Z</time></trkpt><trkpt lat="45.4881267" lon="9.15605"><ele>131.0</ele><time>2026-05-01T07:07:59.259Z</time></trkpt><trkpt lat="45.4880933" lon="9.155945"><ele>131.0</ele><time>2026-05-01T07:08:00.258Z</time></trkpt><trkpt lat="45.48804" lon="9.1558667"><ele>131.0</ele><time>2026-05-01T07:08:01.259Z</time></trkpt><trkpt lat="45.48798" lon="9.1558117"><ele>131.0</ele><time>2026-05-01T07:08:02.258Z</time></trkpt><trkpt lat="45.4878667" lon="9.1557783"><ele>131.0</ele><time>2026-05-01T07:08:04.259Z</time></trkpt><trkpt lat="45.4877983" lon="9.15577"><ele>131.0</ele><time>2026-05-01T07:08:05.259Z</time></trkpt><trkpt lat="45.487735" lon="9.155755"><ele>131.0</ele><time>2026-05-01T07:08:06.259Z</time></trkpt><trkpt lat="45.48767" lon="9.15573"><ele>131.0</ele><time>2026-05-01T07:08:07.259Z</time></trkpt><trkpt lat="45.4875867" lon="9.1556833"><ele>131.0</ele><time>2026-05-01T07:08:08.258Z</time></trkpt><trkpt lat="45.4874967" lon="9.1556333"><ele>131.0</ele><time>2026-05-01T07:08:09.259Z</time></trkpt><trkpt lat="45.4874233" lon="9.15558"><ele>131.0</ele><time>2026-05-01T07:08:10.259Z</time></trkpt><trkpt lat="45.4873567" lon="9.1555383"><ele>131.0</ele><time>2026-05-01T07:08:11.259Z</time></trkpt><trkpt lat="45.4872733" lon="9.1554917"><ele>131.0</ele><time>2026-05-01T07:08:12.259Z</time></trkpt><trkpt lat="45.48719" lon="9.15543"><ele>131.0</ele><time>2026-05-01T07:08:13.258Z</time></trkpt><trkpt lat="45.487105" lon="9.155365"><ele>131.0</ele><time>2026-05-01T07:08:14.259Z</time></trkpt><trkpt lat="45.4870267" lon="9.1552667"><ele>131.0</ele><time>2026-05-01T07:08:15.258Z</time></trkpt><trkpt lat="45.4869483" lon="9.1551867"><ele>131.0</ele><time>2026-05-01T07:08:16.259Z</time></trkpt><trkpt lat="45.4868733" lon="9.1551117"><ele>131.0</ele><time>2026-05-01T07:08:17.259Z</time></trkpt><trkpt lat="45.486785" lon="9.1550367"><ele>131.0</ele><time>2026-05-01T07:08:18.259Z</time></trkpt><trkpt lat="45.4867117" lon="9.1549567"><ele>131.0</ele><time>2026-05-01T07:08:19.258Z</time></trkpt><trkpt lat="45.4866383" lon="9.1548883"><ele>131.5</ele><time>2026-05-01T07:08:20.259Z</time></trkpt><trkpt lat="45.4865483" lon="9.1547883"><ele>132.0</ele><time>2026-05-01T07:08:21.259Z</time></trkpt><trkpt lat="45.4864767" lon="9.15468"><ele>132.5</ele><time>2026-05-01T07:08:22.259Z</time></trkpt><trkpt lat="45.4864033" lon="9.1545367"><ele>133.0</ele><time>2026-05-01T07:08:23.258Z</time></trkpt><trkpt lat="45.4863467" lon="9.1543533"><ele>133.0</ele><time>2026-05-01T07:08:24.259Z</time></trkpt><trkpt lat="45.48627" lon="9.154205"><ele>133.0</ele><time>2026-05-01T07:08:25.259Z</time></trkpt><trkpt lat="45.4862033" lon="9.1540817"><ele>133.0</ele><time>2026-05-01T07:08:26.258Z</time></trkpt><trkpt lat="45.4861317" lon="9.1539767"><ele>133.0</ele><time>2026-05-01T07:08:27.259Z</time></trkpt><trkpt lat="45.486065" lon="9.153845"><ele>133.20000000000002</ele><time>2026-05-01T07:08:28.259Z</time></trkpt><trkpt lat="45.4859917" lon="9.1537183"><ele>133.4</ele><time>2026-05-01T07:08:29.259Z</time></trkpt><trkpt lat="45.4859267" lon="9.153585"><ele>133.60000000000002</ele><time>2026-05-01T07:08:30.259Z</time></trkpt><trkpt lat="45.4858667" lon="9.153465"><ele>133.8</ele><time>2026-05-01T07:08:31.259Z</time></trkpt><trkpt lat="45.4858067" lon="9.1533383"><ele>134.0</ele><time>2026-05-01T07:08:32.259Z</time></trkpt><trkpt lat="45.4857433" lon="9.153235"><ele>133.83333333333331</ele><time>2026-05-01T07:08:33.259Z</time></trkpt><trkpt lat="45.4856933" lon="9.1531567"><ele>133.66666666666666</ele><time>2026-05-01T07:08:34.259Z</time></trkpt><trkpt lat="45.4856383" lon="9.1530817"><ele>133.5</ele><time>2026-05-01T07:08:35.259Z</time></trkpt><trkpt lat="45.4855933" lon="9.1530083"><ele>133.33333333333334</ele><time>2026-05-01T07:08:36.259Z</time></trkpt><trkpt lat="45.4855583" lon="9.15291"><ele>133.16666666666669</ele><time>2026-05-01T07:08:37.259Z</time></trkpt><trkpt lat="45.48556" lon="9.1527617"><ele>133.0</ele><time>2026-05-01T07:08:38.258Z</time></trkpt><trkpt lat="45.4855317" lon="9.1526667"><ele>133.0</ele><time>2026-05-01T07:08:39.258Z</time></trkpt><trkpt lat="45.4855233" lon="9.152475"><ele>133.0</ele><time>2026-05-01T07:08:41.259Z</time></trkpt><trkpt lat="45.48554" lon="9.1523367"><ele>133.0</ele><time>2026-05-01T07:08:43.259Z</time></trkpt><trkpt lat="45.4854417" lon="9.1523067"><ele>133.0</ele><time>2026-05-01T07:09:00.259Z</time></trkpt><trkpt lat="45.4853733" lon="9.15227"><ele>133.0</ele><time>2026-05-01T07:09:19.259Z</time></trkpt><trkpt lat="45.485315" lon="9.1521483"><ele>133.20000000000002</ele><time>2026-05-01T07:09:21.259Z</time></trkpt><trkpt lat="45.48527" lon="9.1520783"><ele>133.4</ele><time>2026-05-01T07:09:22.258Z</time></trkpt><trkpt lat="45.4852067" lon="9.1519817"><ele>133.60000000000002</ele><time>2026-05-01T07:09:23.259Z</time></trkpt><trkpt lat="45.4851317" lon="9.1518567"><ele>133.8</ele><time>2026-05-01T07:09:24.259Z</time></trkpt><trkpt lat="45.4850533" lon="9.1517317"><ele>134.0</ele><time>2026-05-01T07:09:25.259Z</time></trkpt><trkpt lat="45.48497" lon="9.1516183"><ele>133.33333333333331</ele><time>2026-05-01T07:09:26.259Z</time></trkpt><trkpt lat="45.484915" lon="9.1515283"><ele>132.66666666666666</ele><time>2026-05-01T07:09:27.259Z</time></trkpt><trkpt lat="45.484825" lon="9.1514167"><ele>132.0</ele><time>2026-05-01T07:09:28.259Z</time></trkpt><trkpt lat="45.4847733" lon="9.1513333"><ele>131.33333333333334</ele><time>2026-05-01T07:09:29.258Z</time></trkpt><trkpt lat="45.4847417" lon="9.1512383"><ele>130.66666666666669</ele><time>2026-05-01T07:09:30.259Z</time></trkpt><trkpt lat="45.4847317" lon="9.1511317"><ele>130.0</ele><time>2026-05-01T07:09:31.258Z</time></trkpt><trkpt lat="45.4847783" lon="9.1510267"><ele>130.0</ele><time>2026-05-01T07:09:32.258Z</time></trkpt><trkpt lat="45.484815" lon="9.1509217"><ele>130.0</ele><time>2026-05-01T07:09:33.258Z</time></trkpt><trkpt lat="45.48489" lon="9.1508417"><ele>130.0</ele><time>2026-05-01T07:09:34.259Z</time></trkpt><trkpt lat="45.4849933" lon="9.150745"><ele>130.0</ele><time>2026-05-01T07:09:35.258Z</time></trkpt><trkpt lat="45.4850867" lon="9.15066"><ele>130.0</ele><time>2026-05-01T07:09:36.259Z</time></trkpt><trkpt lat="45.4851883" lon="9.1505817"><ele>129.8</ele><time>2026-05-01T07:09:37.259Z</time></trkpt><trkpt lat="45.4852667" lon="9.15051"><ele>129.6</ele><time>2026-05-01T07:09:38.259Z</time></trkpt><trkpt lat="45.4853417" lon="9.1504233"><ele>129.4</ele><time>2026-05-01T07:09:39.259Z</time></trkpt><trkpt lat="45.4854117" lon="9.150335"><ele>129.2</ele><time>2026-05-01T07:09:40.258Z</time></trkpt><trkpt lat="45.4854767" lon="9.15024"><ele>129.0</ele><time>2026-05-01T07:09:41.259Z</time></trkpt><trkpt lat="45.485545" lon="9.15016"><ele>128.66666666666666</ele><time>2026-05-01T07:09:42.259Z</time></trkpt><trkpt lat="45.4856033" lon="9.1500917"><ele>128.33333333333334</ele><time>2026-05-01T07:09:43.259Z</time></trkpt><trkpt lat="45.4856767" lon="9.1500433"><ele>128.0</ele><time>2026-05-01T07:09:44.259Z</time></trkpt><trkpt lat="45.485755" lon="9.1499917"><ele>127.66666666666667</ele><time>2026-05-01T07:09:45.259Z</time></trkpt><trkpt lat="45.48582" lon="9.1499533"><ele>127.33333333333334</ele><time>2026-05-01T07:09:46.258Z</time></trkpt><trkpt lat="45.4858967" lon="9.1498917"><ele>127.0</ele><time>2026-05-01T07:09:47.259Z</time></trkpt><trkpt lat="45.485965" lon="9.1498117"><ele>126.6</ele><time>2026-05-01T07:09:48.259Z</time></trkpt><trkpt lat="45.4860117" lon="9.1497067"><ele>126.19999999999999</ele><time>2026-05-01T07:09:49.258Z</time></trkpt><trkpt lat="45.4860533" lon="9.1495817"><ele>125.8</ele><time>2026-05-01T07:09:50.259Z</time></trkpt><trkpt lat="45.4860817" lon="9.1494417"><ele>125.4</ele><time>2026-05-01T07:09:51.258Z</time></trkpt><trkpt lat="45.486125" lon="9.1493183"><ele>125.0</ele><time>2026-05-01T07:09:52.259Z</time></trkpt><trkpt lat="45.486175" lon="9.1491817"><ele>125.25</ele><time>2026-05-01T07:09:53.259Z</time></trkpt><trkpt lat="45.4862417" lon="9.149035"><ele>125.5</ele><time>2026-05-01T07:09:54.259Z</time></trkpt><trkpt lat="45.4863333" lon="9.1488883"><ele>125.75</ele><time>2026-05-01T07:09:55.259Z</time></trkpt><trkpt lat="45.4864233" lon="9.1487583"><ele>126.0</ele><time>2026-05-01T07:09:56.259Z</time></trkpt><trkpt lat="45.48651" lon="9.1486217"><ele>126.0</ele><time>2026-05-01T07:09:57.258Z</time></trkpt><trkpt lat="45.4866017" lon="9.1484917"><ele>126.0</ele><time>2026-05-01T07:09:58.259Z</time></trkpt><trkpt lat="45.4866983" lon="9.1483567"><ele>126.0</ele><time>2026-05-01T07:09:59.259Z</time></trkpt><trkpt lat="45.4867917" lon="9.1482233"><ele>126.0</ele><time>2026-05-01T07:10:00.258Z</time></trkpt><trkpt lat="45.4885117" lon="9.1480358"><ele>125.0</ele><time>2026-05-01T07:10:23.778Z</time></trkpt><trkpt lat="45.491175" lon="9.1381467"><ele>126.0</ele><time>2026-05-01T07:10:48.26Z</time></trkpt><trkpt lat="45.49127" lon="9.1379233"><ele>127.0</ele><time>2026-05-01T07:10:49.26Z</time></trkpt><trkpt lat="45.4913717" lon="9.137755"><ele>128.0</ele><time>2026-05-01T07:10:50.259Z</time></trkpt><trkpt lat="45.4915067" lon="9.1375567"><ele>128.0</ele><time>2026-05-01T07:10:51.259Z</time></trkpt><trkpt lat="45.4916383" lon="9.1374017"><ele>128.0</ele><time>2026-05-01T07:10:52.259Z</time></trkpt><trkpt lat="45.491795" lon="9.137275"><ele>128.0</ele><time>2026-05-01T07:10:53.26Z</time></trkpt><trkpt lat="45.491945" lon="9.1371567"><ele>128.33333333333331</ele><time>2026-05-01T07:10:54.26Z</time></trkpt><trkpt lat="45.492115" lon="9.1370367"><ele>128.66666666666666</ele><time>2026-05-01T07:10:55.26Z</time></trkpt><trkpt lat="45.4922517" lon="9.1369067"><ele>129.0</ele><time>2026-05-01T07:10:56.26Z</time></trkpt><trkpt lat="45.492385" lon="9.136755"><ele>129.0</ele><time>2026-05-01T07:10:57.26Z</time></trkpt><trkpt lat="45.4925117" lon="9.1365667"><ele>129.0</ele><time>2026-05-01T07:10:58.26Z</time></trkpt><trkpt lat="45.4926283" lon="9.13633"><ele>129.0</ele><time>2026-05-01T07:10:59.259Z</time></trkpt><trkpt lat="45.492745" lon="9.136055"><ele>129.33333333333334</ele><time>2026-05-01T07:11:00.26Z</time></trkpt><trkpt lat="45.492855" lon="9.1357833"><ele>129.66666666666669</ele><time>2026-05-01T07:11:01.26Z</time></trkpt><trkpt lat="45.4929717" lon="9.1355067"><ele>130.0</ele><time>2026-05-01T07:11:02.26Z</time></trkpt><trkpt lat="45.4930867" lon="9.13523"><ele>130.0</ele><time>2026-05-01T07:11:03.26Z</time></trkpt><trkpt lat="45.493195" lon="9.134955"><ele>130.0</ele><time>2026-05-01T07:11:04.26Z</time></trkpt><trkpt lat="45.4933167" lon="9.1347017"><ele>130.0</ele><time>2026-05-01T07:11:05.26Z</time></trkpt><trkpt lat="45.49343" lon="9.13445"><ele>132.0</ele><time>2026-05-01T07:11:06.26Z</time></trkpt><trkpt lat="45.4935383" lon="9.13418"><ele>134.0</ele><time>2026-05-01T07:11:07.26Z</time></trkpt><trkpt lat="45.4936517" lon="9.1339083"><ele>136.0</ele><time>2026-05-01T07:11:08.26Z</time></trkpt><trkpt lat="45.4937633" lon="9.133655"><ele>136.0</ele><time>2026-05-01T07:11:09.26Z</time></trkpt><trkpt lat="45.4938783" lon="9.1333833"><ele>136.0</ele><time>2026-05-01T07:11:10.26Z</time></trkpt><trkpt lat="45.4939983" lon="9.1331083"><ele>135.33333333333334</ele><time>2026-05-01T07:11:11.259Z</time></trkpt><trkpt lat="45.494115" lon="9.1328383"><ele>134.66666666666666</ele><time>2026-05-01T07:11:12.26Z</time></trkpt><trkpt lat="45.494235" lon="9.132575"><ele>134.0</ele><time>2026-05-01T07:11:13.26Z</time></trkpt><trkpt lat="45.4943483" lon="9.13229"><ele>134.0</ele><time>2026-05-01T07:11:14.26Z</time></trkpt><trkpt lat="45.4944667" lon="9.132035"><ele>134.0</ele><time>2026-05-01T07:11:15.26Z</time></trkpt><trkpt lat="45.4945783" lon="9.131785"><ele>134.0</ele><time>2026-05-01T07:11:16.259Z</time></trkpt><trkpt lat="45.4946833" lon="9.1315433"><ele>134.0</ele><time>2026-05-01T07:11:17.259Z</time></trkpt><trkpt lat="45.4947617" lon="9.1312983"><ele>134.0</ele><time>2026-05-01T07:11:18.26Z</time></trkpt><trkpt lat="45.4948633" lon="9.1311083"><ele>134.0</ele><time>2026-05-01T07:11:19.259Z</time></trkpt><trkpt lat="45.4949867" lon="9.1309233"><ele>134.0</ele><time>2026-05-01T07:11:20.26Z</time></trkpt><trkpt lat="45.4951217" lon="9.1307717"><ele>134.0</ele><time>2026-05-01T07:11:21.26Z</time></trkpt><trkpt lat="45.4952883" lon="9.1306283"><ele>134.0</ele><time>2026-05-01T07:11:22.26Z</time></trkpt><trkpt lat="45.4954533" lon="9.130515"><ele>133.66666666666666</ele><time>2026-05-01T07:11:23.26Z</time></trkpt><trkpt lat="45.49564" lon="9.13042"><ele>133.33333333333334</ele><time>2026-05-01T07:11:24.26Z</time></trkpt><trkpt lat="45.4958317" lon="9.1303683"><ele>133.0</ele><time>2026-05-01T07:11:25.26Z</time></trkpt><trkpt lat="45.4960183" lon="9.13036"><ele>133.0</ele><time>2026-05-01T07:11:26.259Z</time></trkpt><trkpt lat="45.49622" lon="9.1303833"><ele>133.0</ele><time>2026-05-01T07:11:27.26Z</time></trkpt><trkpt lat="45.4964117" lon="9.13041"><ele>133.0</ele><time>2026-05-01T07:11:28.259Z</time></trkpt><trkpt lat="45.4966067" lon="9.1304067"><ele>133.0</ele><time>2026-05-01T07:11:29.26Z</time></trkpt><trkpt lat="45.4967933" lon="9.13043"><ele>133.0</ele><time>2026-05-01T07:11:30.26Z</time></trkpt><trkpt lat="45.4969983" lon="9.130445"><ele>133.0</ele><time>2026-05-01T07:11:31.259Z</time></trkpt><trkpt lat="45.4971917" lon="9.1304717"><ele>133.0</ele><time>2026-05-01T07:11:32.259Z</time></trkpt><trkpt lat="45.497385" lon="9.1305233"><ele>133.0</ele><time>2026-05-01T07:11:33.26Z</time></trkpt><trkpt lat="45.4975817" lon="9.130545"><ele>133.0</ele><time>2026-05-01T07:11:34.26Z</time></trkpt><trkpt lat="45.49777" lon="9.130565"><ele>134.0</ele><time>2026-05-01T07:11:35.26Z</time></trkpt><trkpt lat="45.4979633" lon="9.13059"><ele>135.0</ele><time>2026-05-01T07:11:36.26Z</time></trkpt><trkpt lat="45.4981533" lon="9.1305967"><ele>136.0</ele><time>2026-05-01T07:11:37.259Z</time></trkpt><trkpt lat="45.4983317" lon="9.130595"><ele>136.0</ele><time>2026-05-01T07:11:38.26Z</time></trkpt><trkpt lat="45.4985117" lon="9.130595"><ele>136.0</ele><time>2026-05-01T07:11:39.26Z</time></trkpt><trkpt lat="45.49869" lon="9.1305867"><ele>136.0</ele><time>2026-05-01T07:11:40.259Z</time></trkpt><trkpt lat="45.4988867" lon="9.1305833"><ele>135.66666666666669</ele><time>2026-05-01T07:11:41.26Z</time></trkpt><trkpt lat="45.499085" lon="9.1305767"><ele>135.33333333333334</ele><time>2026-05-01T07:11:42.26Z</time></trkpt><trkpt lat="45.499285" lon="9.1305567"><ele>135.0</ele><time>2026-05-01T07:11:43.26Z</time></trkpt><trkpt lat="45.499495" lon="9.1305433"><ele>136.0</ele><time>2026-05-01T07:11:44.26Z</time></trkpt><trkpt lat="45.4997133" lon="9.13053"><ele>137.0</ele><time>2026-05-01T07:11:45.26Z</time></trkpt><trkpt lat="45.4999433" lon="9.1305233"><ele>138.0</ele><time>2026-05-01T07:11:46.259Z</time></trkpt><trkpt lat="45.5001817" lon="9.13052"><ele>138.0</ele><time>2026-05-01T07:11:47.259Z</time></trkpt><trkpt lat="45.5004233" lon="9.13053"><ele>138.0</ele><time>2026-05-01T07:11:48.26Z</time></trkpt><trkpt lat="45.50067" lon="9.1305217"><ele>138.0</ele><time>2026-05-01T07:11:49.259Z</time></trkpt><trkpt lat="45.5009217" lon="9.1305133"><ele>138.0</ele><time>2026-05-01T07:11:50.26Z</time></trkpt><trkpt lat="45.5011783" lon="9.1305033"><ele>136.0</ele><time>2026-05-01T07:11:51.259Z</time></trkpt><trkpt lat="45.50143" lon="9.130515"><ele>134.0</ele><time>2026-05-01T07:11:52.26Z</time></trkpt><trkpt lat="45.50169" lon="9.1305367"><ele>134.0</ele><time>2026-05-01T07:11:53.259Z</time></trkpt><trkpt lat="45.5019483" lon="9.1305817"><ele>134.0</ele><time>2026-05-01T07:11:54.259Z</time></trkpt><trkpt lat="45.5022167" lon="9.1306083"><ele>134.5</ele><time>2026-05-01T07:11:55.259Z</time></trkpt><trkpt lat="45.5024867" lon="9.1306333"><ele>135.0</ele><time>2026-05-01T07:11:56.26Z</time></trkpt><trkpt lat="45.5027417" lon="9.1306717"><ele>134.0</ele><time>2026-05-01T07:11:57.26Z</time></trkpt><trkpt lat="45.503" lon="9.1307017"><ele>133.0</ele><time>2026-05-01T07:11:58.26Z</time></trkpt><trkpt lat="45.5032633" lon="9.130725"><ele>132.5</ele><time>2026-05-01T07:11:59.26Z</time></trkpt><trkpt lat="45.5035233" lon="9.1307433"><ele>132.0</ele><time>2026-05-01T07:12:00.259Z</time></trkpt><trkpt lat="45.5037817" lon="9.1307633"><ele>133.5</ele><time>2026-05-01T07:12:01.26Z</time></trkpt><trkpt lat="45.5040467" lon="9.1307683"><ele>135.0</ele><time>2026-05-01T07:12:02.26Z</time></trkpt><trkpt lat="45.5043133" lon="9.13076"><ele>135.0</ele><time>2026-05-01T07:12:03.26Z</time></trkpt><trkpt lat="45.5045717" lon="9.1307633"><ele>135.0</ele><time>2026-05-01T07:12:04.259Z</time></trkpt><trkpt lat="45.5048383" lon="9.1307567"><ele>136.0</ele><time>2026-05-01T07:12:05.26Z</time></trkpt><trkpt lat="45.5050883" lon="9.130745"><ele>137.0</ele><time>2026-05-01T07:12:06.26Z</time></trkpt><trkpt lat="45.50535" lon="9.1307167"><ele>137.5</ele><time>2026-05-01T07:12:07.26Z</time></trkpt><trkpt lat="45.5056133" lon="9.1306933"><ele>138.0</ele><time>2026-05-01T07:12:08.259Z</time></trkpt><trkpt lat="45.5058683" lon="9.13068"><ele>138.0</ele><time>2026-05-01T07:12:09.26Z</time></trkpt><trkpt lat="45.5061367" lon="9.130645"><ele>138.0</ele><time>2026-05-01T07:12:10.259Z</time></trkpt><trkpt lat="45.5064117" lon="9.1305967"><ele>137.5</ele><time>2026-05-01T07:12:11.26Z</time></trkpt><trkpt lat="45.5066767" lon="9.1305533"><ele>137.0</ele><time>2026-05-01T07:12:12.26Z</time></trkpt><trkpt lat="45.5069433" lon="9.1304917"><ele>138.0</ele><time>2026-05-01T07:12:13.259Z</time></trkpt><trkpt lat="45.507205" lon="9.130425"><ele>139.0</ele><time>2026-05-01T07:12:14.259Z</time></trkpt><trkpt lat="45.5074617" lon="9.13036"><ele>139.0</ele><time>2026-05-01T07:12:15.26Z</time></trkpt><trkpt lat="45.5077067" lon="9.1302967"><ele>139.0</ele><time>2026-05-01T07:12:16.259Z</time></trkpt><trkpt lat="45.5079567" lon="9.1302467"><ele>140.5</ele><time>2026-05-01T07:12:17.259Z</time></trkpt><trkpt lat="45.5082167" lon="9.130195"><ele>142.0</ele><time>2026-05-01T07:12:18.258Z</time></trkpt><trkpt lat="45.5084767" lon="9.1301467"><ele>142.0</ele><time>2026-05-01T07:12:19.259Z</time></trkpt><trkpt lat="45.5087383" lon="9.1300917"><ele>142.0</ele><time>2026-05-01T07:12:20.259Z</time></trkpt><trkpt lat="45.50899" lon="9.1300017"><ele>140.5</ele><time>2026-05-01T07:12:21.259Z</time></trkpt><trkpt lat="45.5092567" lon="9.1299017"><ele>139.0</ele><time>2026-05-01T07:12:22.259Z</time></trkpt><trkpt lat="45.5095167" lon="9.129785"><ele>138.5</ele><time>2026-05-01T07:12:23.258Z</time></trkpt><trkpt lat="45.5097533" lon="9.129665"><ele>138.0</ele><time>2026-05-01T07:12:24.259Z</time></trkpt><trkpt lat="45.5099683" lon="9.1294983"><ele>138.0</ele><time>2026-05-01T07:12:25.258Z</time></trkpt><trkpt lat="45.5101783" lon="9.12931"><ele>138.0</ele><time>2026-05-01T07:12:26.259Z</time></trkpt><trkpt lat="45.5103783" lon="9.1290983"><ele>136.5</ele><time>2026-05-01T07:12:27.259Z</time></trkpt><trkpt lat="45.51058" lon="9.1288767"><ele>135.0</ele><time>2026-05-01T07:12:28.258Z</time></trkpt><trkpt lat="45.5107583" lon="9.1286083"><ele>135.0</ele><time>2026-05-01T07:12:29.259Z</time></trkpt><trkpt lat="45.5109367" lon="9.1283467"><ele>135.0</ele><time>2026-05-01T07:12:30.258Z</time></trkpt><trkpt lat="45.51111" lon="9.12806"><ele>136.5</ele><time>2026-05-01T07:12:31.259Z</time></trkpt><trkpt lat="45.511275" lon="9.1278"><ele>138.0</ele><time>2026-05-01T07:12:32.258Z</time></trkpt><trkpt lat="45.51145" lon="9.1275183"><ele>137.5</ele><time>2026-05-01T07:12:33.259Z</time></trkpt><trkpt lat="45.511645" lon="9.1272183"><ele>137.0</ele><time>2026-05-01T07:12:34.258Z</time></trkpt><trkpt lat="45.5118417" lon="9.1269167"><ele>137.0</ele><time>2026-05-01T07:12:35.259Z</time></trkpt><trkpt lat="45.5120367" lon="9.1266267"><ele>137.0</ele><time>2026-05-01T07:12:36.259Z</time></trkpt><trkpt lat="45.5122383" lon="9.12633"><ele>137.5</ele><time>2026-05-01T07:12:37.258Z</time></trkpt><trkpt lat="45.5124367" lon="9.1260633"><ele>138.0</ele><time>2026-05-01T07:12:38.259Z</time></trkpt><trkpt lat="45.51262" lon="9.1258033"><ele>138.0</ele><time>2026-05-01T07:12:39.259Z</time></trkpt><trkpt lat="45.5127983" lon="9.1255567"><ele>138.0</ele><time>2026-05-01T07:12:40.258Z</time></trkpt><trkpt lat="45.5129833" lon="9.1253217"><ele>138.0</ele><time>2026-05-01T07:12:41.259Z</time></trkpt><trkpt lat="45.5131617" lon="9.12508"><ele>138.0</ele><time>2026-05-01T07:12:42.259Z</time></trkpt><trkpt lat="45.51333" lon="9.1248033"><ele>138.5</ele><time>2026-05-01T07:12:43.258Z</time></trkpt><trkpt lat="45.5135" lon="9.1244917"><ele>139.0</ele><time>2026-05-01T07:12:44.259Z</time></trkpt><trkpt lat="45.513695" lon="9.1242"><ele>139.5</ele><time>2026-05-01T07:12:45.259Z</time></trkpt><trkpt lat="45.5138833" lon="9.1238967"><ele>140.0</ele><time>2026-05-01T07:12:46.258Z</time></trkpt><trkpt lat="45.514085" lon="9.123605"><ele>140.0</ele><time>2026-05-01T07:12:47.258Z</time></trkpt><trkpt lat="45.5142883" lon="9.1232983"><ele>140.0</ele><time>2026-05-01T07:12:48.259Z</time></trkpt><trkpt lat="45.5144883" lon="9.1230117"><ele>141.5</ele><time>2026-05-01T07:12:49.258Z</time></trkpt><trkpt lat="45.514665" lon="9.1227533"><ele>143.0</ele><time>2026-05-01T07:12:50.259Z</time></trkpt><trkpt lat="45.5148333" lon="9.1224917"><ele>142.5</ele><time>2026-05-01T07:12:51.259Z</time></trkpt><trkpt lat="45.51499" lon="9.1222033"><ele>142.0</ele><time>2026-05-01T07:12:52.259Z</time></trkpt><trkpt lat="45.51514" lon="9.1219217"><ele>142.0</ele><time>2026-05-01T07:12:53.259Z</time></trkpt><trkpt lat="45.5152767" lon="9.1216533"><ele>142.0</ele><time>2026-05-01T07:12:54.259Z</time></trkpt><trkpt lat="45.5154167" lon="9.1213983"><ele>141.33333333333334</ele><time>2026-05-01T07:12:55.259Z</time></trkpt><trkpt lat="45.515555" lon="9.1211333"><ele>140.66666666666666</ele><time>2026-05-01T07:12:56.259Z</time></trkpt><trkpt lat="45.51568" lon="9.12088"><ele>140.0</ele><time>2026-05-01T07:12:57.259Z</time></trkpt><trkpt lat="45.5157983" lon="9.1206433"><ele>140.0</ele><time>2026-05-01T07:12:58.259Z</time></trkpt><trkpt lat="45.515905" lon="9.1204117"><ele>140.0</ele><time>2026-05-01T07:12:59.259Z</time></trkpt><trkpt lat="45.516005" lon="9.1201733"><ele>140.0</ele><time>2026-05-01T07:13:00.259Z</time></trkpt><trkpt lat="45.51609" lon="9.1199267"><ele>140.0</ele><time>2026-05-01T07:13:01.259Z</time></trkpt><trkpt lat="45.5161433" lon="9.119635"><ele>140.0</ele><time>2026-05-01T07:13:02.258Z</time></trkpt><trkpt lat="45.5161683" lon="9.119325"><ele>140.0</ele><time>2026-05-01T07:13:03.259Z</time></trkpt><trkpt lat="45.516185" lon="9.1190217"><ele>139.0</ele><time>2026-05-01T07:13:04.259Z</time></trkpt><trkpt lat="45.5161717" lon="9.118715"><ele>138.0</ele><time>2026-05-01T07:13:05.259Z</time></trkpt><trkpt lat="45.51613" lon="9.118395"><ele>137.0</ele><time>2026-05-01T07:13:06.258Z</time></trkpt><trkpt lat="45.516065" lon="9.1180867"><ele>135.5</ele><time>2026-05-01T07:13:07.259Z</time></trkpt><trkpt lat="45.515995" lon="9.1177583"><ele>134.0</ele><time>2026-05-01T07:13:08.259Z</time></trkpt><trkpt lat="45.51592" lon="9.1174417"><ele>135.0</ele><time>2026-05-01T07:13:09.258Z</time></trkpt><trkpt lat="45.51582" lon="9.117125"><ele>136.0</ele><time>2026-05-01T07:13:10.258Z</time></trkpt><trkpt lat="45.5157433" lon="9.1167917"><ele>136.0</ele><time>2026-05-01T07:13:11.258Z</time></trkpt><trkpt lat="45.5156683" lon="9.11646"><ele>136.0</ele><time>2026-05-01T07:13:12.259Z</time></trkpt><trkpt lat="45.5155933" lon="9.1161233"><ele>136.0</ele><time>2026-05-01T07:13:13.259Z</time></trkpt><trkpt lat="45.515545" lon="9.1157933"><ele>136.0</ele><time>2026-05-01T07:13:14.259Z</time></trkpt><trkpt lat="45.5155033" lon="9.115445"><ele>135.5</ele><time>2026-05-01T07:13:15.259Z</time></trkpt><trkpt lat="45.5154717" lon="9.1151"><ele>135.0</ele><time>2026-05-01T07:13:16.259Z</time></trkpt><trkpt lat="45.5154633" lon="9.11476"><ele>135.0</ele><time>2026-05-01T07:13:17.259Z</time></trkpt><trkpt lat="45.5154517" lon="9.11441"><ele>135.0</ele><time>2026-05-01T07:13:18.258Z</time></trkpt><trkpt lat="45.5154267" lon="9.11407"><ele>136.0</ele><time>2026-05-01T07:13:19.259Z</time></trkpt><trkpt lat="45.515425" lon="9.1137417"><ele>137.0</ele><time>2026-05-01T07:13:20.258Z</time></trkpt><trkpt lat="45.5153983" lon="9.113375"><ele>137.5</ele><time>2026-05-01T07:13:21.259Z</time></trkpt><trkpt lat="45.515385" lon="9.1130167"><ele>138.0</ele><time>2026-05-01T07:13:22.259Z</time></trkpt><trkpt lat="45.515365" lon="9.1126517"><ele>137.5</ele><time>2026-05-01T07:13:23.259Z</time></trkpt><trkpt lat="45.51535" lon="9.1122967"><ele>137.0</ele><time>2026-05-01T07:13:24.259Z</time></trkpt><trkpt lat="45.5153283" lon="9.1119767"><ele>137.0</ele><time>2026-05-01T07:13:25.259Z</time></trkpt><trkpt lat="45.515295" lon="9.111625"><ele>137.0</ele><time>2026-05-01T07:13:26.259Z</time></trkpt><trkpt lat="45.51528" lon="9.1112467"><ele>139.5</ele><time>2026-05-01T07:13:27.259Z</time></trkpt><trkpt lat="45.5152633" lon="9.1108833"><ele>142.0</ele><time>2026-05-01T07:13:28.259Z</time></trkpt><trkpt lat="45.5152417" lon="9.1105433"><ele>142.5</ele><time>2026-05-01T07:13:29.259Z</time></trkpt><trkpt lat="45.51523" lon="9.1101833"><ele>143.0</ele><time>2026-05-01T07:13:30.259Z</time></trkpt><trkpt lat="45.5152083" lon="9.109825"><ele>142.0</ele><time>2026-05-01T07:13:31.258Z</time></trkpt><trkpt lat="45.515195" lon="9.1094667"><ele>141.0</ele><time>2026-05-01T07:13:32.259Z</time></trkpt><trkpt lat="45.5151883" lon="9.1090917"><ele>141.5</ele><time>2026-05-01T07:13:33.259Z</time></trkpt><trkpt lat="45.51518" lon="9.1087317"><ele>142.0</ele><time>2026-05-01T07:13:34.259Z</time></trkpt><trkpt lat="45.515165" lon="9.1083633"><ele>142.0</ele><time>2026-05-01T07:13:35.259Z</time></trkpt><trkpt lat="45.5151533" lon="9.107995"><ele>142.0</ele><time>2026-05-01T07:13:36.259Z</time></trkpt><trkpt lat="45.5151367" lon="9.107625"><ele>142.5</ele><time>2026-05-01T07:13:37.259Z</time></trkpt><trkpt lat="45.515125" lon="9.1072533"><ele>143.0</ele><time>2026-05-01T07:13:38.259Z</time></trkpt><trkpt lat="45.51511" lon="9.1068917"><ele>141.5</ele><time>2026-05-01T07:13:39.259Z</time></trkpt><trkpt lat="45.5150983" lon="9.1065067"><ele>140.0</ele><time>2026-05-01T07:13:40.258Z</time></trkpt><trkpt lat="45.515085" lon="9.1061283"><ele>140.0</ele><time>2026-05-01T07:13:41.259Z</time></trkpt><trkpt lat="45.5150683" lon="9.10576"><ele>140.0</ele><time>2026-05-01T07:13:42.258Z</time></trkpt><trkpt lat="45.5150567" lon="9.10538"><ele>140.5</ele><time>2026-05-01T07:13:43.259Z</time></trkpt><trkpt lat="45.515035" lon="9.1050017"><ele>141.0</ele><time>2026-05-01T07:13:44.259Z</time></trkpt><trkpt lat="45.51501" lon="9.104625"><ele>141.5</ele><time>2026-05-01T07:13:45.259Z</time></trkpt><trkpt lat="45.5149883" lon="9.1042317"><ele>142.0</ele><time>2026-05-01T07:13:46.258Z</time></trkpt><trkpt lat="45.5149633" lon="9.1038267"><ele>142.5</ele><time>2026-05-01T07:13:47.259Z</time></trkpt><trkpt lat="45.51494" lon="9.1034483"><ele>143.0</ele><time>2026-05-01T07:13:48.258Z</time></trkpt><trkpt lat="45.5149267" lon="9.1030583"><ele>143.0</ele><time>2026-05-01T07:13:49.259Z</time></trkpt><trkpt lat="45.5149117" lon="9.1026733"><ele>143.0</ele><time>2026-05-01T07:13:50.259Z</time></trkpt><trkpt lat="45.51489" lon="9.1022733"><ele>142.5</ele><time>2026-05-01T07:13:51.259Z</time></trkpt><trkpt lat="45.5148717" lon="9.10188"><ele>142.0</ele><time>2026-05-01T07:13:52.259Z</time></trkpt><trkpt lat="45.514845" lon="9.101485"><ele>142.0</ele><time>2026-05-01T07:13:53.258Z</time></trkpt><trkpt lat="45.514825" lon="9.1010733"><ele>142.0</ele><time>2026-05-01T07:13:54.258Z</time></trkpt><trkpt lat="45.51481" lon="9.1006417"><ele>142.0</ele><time>2026-05-01T07:13:55.259Z</time></trkpt><trkpt lat="45.5147967" lon="9.1002267"><ele>142.0</ele><time>2026-05-01T07:13:56.259Z</time></trkpt><trkpt lat="45.51478" lon="9.0998167"><ele>142.5</ele><time>2026-05-01T07:13:57.259Z</time></trkpt><trkpt lat="45.5147583" lon="9.099405"><ele>143.0</ele><time>2026-05-01T07:13:58.259Z</time></trkpt><trkpt lat="45.514745" lon="9.0989817"><ele>143.0</ele><time>2026-05-01T07:13:59.259Z</time></trkpt><trkpt lat="45.51473" lon="9.0985617"><ele>143.0</ele><time>2026-05-01T07:14:00.258Z</time></trkpt><trkpt lat="45.5147167" lon="9.0981433"><ele>142.5</ele><time>2026-05-01T07:14:01.259Z</time></trkpt><trkpt lat="45.5146983" lon="9.0977167"><ele>142.0</ele><time>2026-05-01T07:14:02.259Z</time></trkpt><trkpt lat="45.5146767" lon="9.097285"><ele>142.0</ele><time>2026-05-01T07:14:03.259Z</time></trkpt><trkpt lat="45.5146617" lon="9.0968517"><ele>142.0</ele><time>2026-05-01T07:14:04.259Z</time></trkpt><trkpt lat="45.5146383" lon="9.09642"><ele>142.0</ele><time>2026-05-01T07:14:05.259Z</time></trkpt><trkpt lat="45.5146217" lon="9.095975"><ele>142.0</ele><time>2026-05-01T07:14:06.259Z</time></trkpt><trkpt lat="45.5145983" lon="9.095525"><ele>142.5</ele><time>2026-05-01T07:14:07.258Z</time></trkpt><trkpt lat="45.5145783" lon="9.0950783"><ele>143.0</ele><time>2026-05-01T07:14:08.259Z</time></trkpt><trkpt lat="45.5145617" lon="9.0946317"><ele>143.0</ele><time>2026-05-01T07:14:09.259Z</time></trkpt><trkpt lat="45.5145433" lon="9.09419"><ele>143.0</ele><time>2026-05-01T07:14:10.259Z</time></trkpt><trkpt lat="45.5145167" lon="9.09374"><ele>143.0</ele><time>2026-05-01T07:14:11.259Z</time></trkpt><trkpt lat="45.5144967" lon="9.0932817"><ele>143.0</ele><time>2026-05-01T07:14:12.258Z</time></trkpt><trkpt lat="45.5144783" lon="9.092835"><ele>142.5</ele><time>2026-05-01T07:14:13.259Z</time></trkpt><trkpt lat="45.5144583" lon="9.09238"><ele>142.0</ele><time>2026-05-01T07:14:14.258Z</time></trkpt><trkpt lat="45.5144317" lon="9.09192"><ele>141.5</ele><time>2026-05-01T07:14:15.258Z</time></trkpt><trkpt lat="45.5144083" lon="9.09146"><ele>141.0</ele><time>2026-05-01T07:14:16.258Z</time></trkpt><trkpt lat="45.5143867" lon="9.091"><ele>140.5</ele><time>2026-05-01T07:14:17.259Z</time></trkpt><trkpt lat="45.514365" lon="9.090545"><ele>140.0</ele><time>2026-05-01T07:14:18.258Z</time></trkpt><trkpt lat="45.5143467" lon="9.090085"><ele>140.5</ele><time>2026-05-01T07:14:19.259Z</time></trkpt><trkpt lat="45.514335" lon="9.0896233"><ele>141.0</ele><time>2026-05-01T07:14:20.259Z</time></trkpt><trkpt lat="45.5143217" lon="9.08917"><ele>141.5</ele><time>2026-05-01T07:14:21.259Z</time></trkpt><trkpt lat="45.5143067" lon="9.0887367"><ele>142.0</ele><time>2026-05-01T07:14:22.259Z</time></trkpt><trkpt lat="45.5142933" lon="9.0882917"><ele>143.0</ele><time>2026-05-01T07:14:23.259Z</time></trkpt><trkpt lat="45.514265" lon="9.0878317"><ele>144.0</ele><time>2026-05-01T07:14:24.258Z</time></trkpt><trkpt lat="45.51424" lon="9.087385"><ele>144.0</ele><time>2026-05-01T07:14:25.258Z</time></trkpt><trkpt lat="45.51421" lon="9.086925"><ele>144.0</ele><time>2026-05-01T07:14:26.259Z</time></trkpt><trkpt lat="45.5141833" lon="9.0864667"><ele>144.0</ele><time>2026-05-01T07:14:27.259Z</time></trkpt><trkpt lat="45.5141583" lon="9.0860217"><ele>144.0</ele><time>2026-05-01T07:14:28.259Z</time></trkpt><trkpt lat="45.514135" lon="9.0855533"><ele>143.5</ele><time>2026-05-01T07:14:29.259Z</time></trkpt><trkpt lat="45.5141067" lon="9.0850917"><ele>143.0</ele><time>2026-05-01T07:14:30.258Z</time></trkpt><trkpt lat="45.5140783" lon="9.0846367"><ele>143.0</ele><time>2026-05-01T07:14:31.259Z</time></trkpt><trkpt lat="45.5140583" lon="9.08419"><ele>143.0</ele><time>2026-05-01T07:14:32.259Z</time></trkpt><trkpt lat="45.514035" lon="9.083745"><ele>143.0</ele><time>2026-05-01T07:14:33.259Z</time></trkpt><trkpt lat="45.5140133" lon="9.0832883"><ele>143.0</ele><time>2026-05-01T07:14:34.258Z</time></trkpt><trkpt lat="45.513995" lon="9.0828367"><ele>143.0</ele><time>2026-05-01T07:14:35.259Z</time></trkpt><trkpt lat="45.5139767" lon="9.08239"><ele>143.0</ele><time>2026-05-01T07:14:36.258Z</time></trkpt><trkpt lat="45.51396" lon="9.0819533"><ele>143.0</ele><time>2026-05-01T07:14:37.259Z</time></trkpt><trkpt lat="45.5139467" lon="9.0815"><ele>143.0</ele><time>2026-05-01T07:14:38.259Z</time></trkpt><trkpt lat="45.5139233" lon="9.08107"><ele>143.5</ele><time>2026-05-01T07:14:39.259Z</time></trkpt><trkpt lat="45.513905" lon="9.08066"><ele>144.0</ele><time>2026-05-01T07:14:40.259Z</time></trkpt><trkpt lat="45.5138917" lon="9.0802367"><ele>145.0</ele><time>2026-05-01T07:14:41.259Z</time></trkpt><trkpt lat="45.5138683" lon="9.0798067"><ele>146.0</ele><time>2026-05-01T07:14:42.259Z</time></trkpt><trkpt lat="45.5138467" lon="9.0793617"><ele>146.0</ele><time>2026-05-01T07:14:43.259Z</time></trkpt><trkpt lat="45.51382" lon="9.0789133"><ele>146.0</ele><time>2026-05-01T07:14:44.259Z</time></trkpt><trkpt lat="45.5137967" lon="9.07848"><ele>146.0</ele><time>2026-05-01T07:14:45.259Z</time></trkpt><trkpt lat="45.5137717" lon="9.0780633"><ele>146.0</ele><time>2026-05-01T07:14:46.259Z</time></trkpt><trkpt lat="45.5137517" lon="9.077645"><ele>145.5</ele><time>2026-05-01T07:14:47.259Z</time></trkpt><trkpt lat="45.5137283" lon="9.0772133"><ele>145.0</ele><time>2026-05-01T07:14:48.259Z</time></trkpt><trkpt lat="45.51371" lon="9.0768083"><ele>144.5</ele><time>2026-05-01T07:14:49.259Z</time></trkpt><trkpt lat="45.5136917" lon="9.0763933"><ele>144.0</ele><time>2026-05-01T07:14:50.259Z</time></trkpt><trkpt lat="45.5136767" lon="9.07597"><ele>143.5</ele><time>2026-05-01T07:14:51.258Z</time></trkpt><trkpt lat="45.51366" lon="9.0755433"><ele>143.0</ele><time>2026-05-01T07:14:52.259Z</time></trkpt><trkpt lat="45.51364" lon="9.0751183"><ele>143.5</ele><time>2026-05-01T07:14:53.259Z</time></trkpt><trkpt lat="45.5136183" lon="9.07471"><ele>144.0</ele><time>2026-05-01T07:14:54.259Z</time></trkpt><trkpt lat="45.513605" lon="9.074315"><ele>143.5</ele><time>2026-05-01T07:14:55.258Z</time></trkpt><trkpt lat="45.51358" lon="9.0739083"><ele>143.0</ele><time>2026-05-01T07:14:56.258Z</time></trkpt><trkpt lat="45.51355" lon="9.0735217"><ele>143.0</ele><time>2026-05-01T07:14:57.258Z</time></trkpt><trkpt lat="45.5135333" lon="9.07312"><ele>143.0</ele><time>2026-05-01T07:14:58.258Z</time></trkpt><trkpt lat="45.5135083" lon="9.07272"><ele>143.0</ele><time>2026-05-01T07:14:59.259Z</time></trkpt><trkpt lat="45.5134733" lon="9.072325"><ele>143.0</ele><time>2026-05-01T07:15:00.258Z</time></trkpt><trkpt lat="45.5134367" lon="9.071945"><ele>142.5</ele><time>2026-05-01T07:15:01.259Z</time></trkpt><trkpt lat="45.51341" lon="9.0715683"><ele>142.0</ele><time>2026-05-01T07:15:02.259Z</time></trkpt><trkpt lat="45.5133583" lon="9.0711717"><ele>142.0</ele><time>2026-05-01T07:15:03.259Z</time></trkpt><trkpt lat="45.5133217" lon="9.0707783"><ele>142.0</ele><time>2026-05-01T07:15:04.259Z</time></trkpt><trkpt lat="45.5132833" lon="9.07039"><ele>142.5</ele><time>2026-05-01T07:15:05.258Z</time></trkpt><trkpt lat="45.5132467" lon="9.0700083"><ele>143.0</ele><time>2026-05-01T07:15:06.259Z</time></trkpt><trkpt lat="45.513215" lon="9.0696467"><ele>143.5</ele><time>2026-05-01T07:15:07.259Z</time></trkpt><trkpt lat="45.5131883" lon="9.069285"><ele>144.0</ele><time>2026-05-01T07:15:08.259Z</time></trkpt><trkpt lat="45.5131567" lon="9.068935"><ele>144.0</ele><time>2026-05-01T07:15:09.258Z</time></trkpt><trkpt lat="45.5131317" lon="9.06859"><ele>144.0</ele><time>2026-05-01T07:15:10.259Z</time></trkpt><trkpt lat="45.5131017" lon="9.0682383"><ele>144.5</ele><time>2026-05-01T07:15:11.258Z</time></trkpt><trkpt lat="45.5130617" lon="9.0678767"><ele>145.0</ele><time>2026-05-01T07:15:12.259Z</time></trkpt><trkpt lat="45.513025" lon="9.0675133"><ele>145.0</ele><time>2026-05-01T07:15:13.259Z</time></trkpt><trkpt lat="45.512995" lon="9.067155"><ele>145.0</ele><time>2026-05-01T07:15:14.258Z</time></trkpt><trkpt lat="45.51296" lon="9.06679"><ele>145.0</ele><time>2026-05-01T07:15:15.258Z</time></trkpt><trkpt lat="45.51292" lon="9.0664317"><ele>145.0</ele><time>2026-05-01T07:15:16.259Z</time></trkpt><trkpt lat="45.5128883" lon="9.0660917"><ele>146.5</ele><time>2026-05-01T07:15:17.259Z</time></trkpt><trkpt lat="45.512855" lon="9.0657583"><ele>148.0</ele><time>2026-05-01T07:15:18.259Z</time></trkpt><trkpt lat="45.5128117" lon="9.06545"><ele>148.0</ele><time>2026-05-01T07:15:19.259Z</time></trkpt><trkpt lat="45.51278" lon="9.0651533"><ele>148.0</ele><time>2026-05-01T07:15:20.258Z</time></trkpt><trkpt lat="45.51275" lon="9.0648417"><ele>148.0</ele><time>2026-05-01T07:15:21.258Z</time></trkpt><trkpt lat="45.5127167" lon="9.0645433"><ele>147.66666666666669</ele><time>2026-05-01T07:15:22.259Z</time></trkpt><trkpt lat="45.5126833" lon="9.0642717"><ele>147.33333333333334</ele><time>2026-05-01T07:15:23.259Z</time></trkpt><trkpt lat="45.5126567" lon="9.0640017"><ele>147.0</ele><time>2026-05-01T07:15:24.259Z</time></trkpt><trkpt lat="45.51264" lon="9.06374"><ele>147.0</ele><time>2026-05-01T07:15:25.259Z</time></trkpt><trkpt lat="45.5126283" lon="9.0635017"><ele>147.0</ele><time>2026-05-01T07:15:26.258Z</time></trkpt><trkpt lat="45.5126067" lon="9.0632617"><ele>147.0</ele><time>2026-05-01T07:15:27.259Z</time></trkpt><trkpt lat="45.512585" lon="9.06303"><ele>147.0</ele><time>2026-05-01T07:15:28.259Z</time></trkpt><trkpt lat="45.51257" lon="9.0628167"><ele>147.0</ele><time>2026-05-01T07:15:29.259Z</time></trkpt><trkpt lat="45.512565" lon="9.0626083"><ele>147.0</ele><time>2026-05-01T07:15:30.259Z</time></trkpt><trkpt lat="45.5125683" lon="9.0624117"><ele>147.0</ele><time>2026-05-01T07:15:31.259Z</time></trkpt><trkpt lat="45.512565" lon="9.062235"><ele>146.4</ele><time>2026-05-01T07:15:32.259Z</time></trkpt><trkpt lat="45.5125667" lon="9.0620733"><ele>145.79999999999998</ele><time>2026-05-01T07:15:33.259Z</time></trkpt><trkpt lat="45.512575" lon="9.0619217"><ele>145.2</ele><time>2026-05-01T07:15:34.258Z</time></trkpt><trkpt lat="45.5125767" lon="9.0617867"><ele>144.6</ele><time>2026-05-01T07:15:35.259Z</time></trkpt><trkpt lat="45.5125767" lon="9.0616833"><ele>144.0</ele><time>2026-05-01T07:15:36.259Z</time></trkpt><trkpt lat="45.5125567" lon="9.0615083"><ele>144.0</ele><time>2026-05-01T07:15:38.259Z</time></trkpt><trkpt lat="45.512535" lon="9.06138"><ele>144.0</ele><time>2026-05-01T07:15:40.259Z</time></trkpt><trkpt lat="45.5125333" lon="9.061285"><ele>144.0</ele><time>2026-05-01T07:15:42.258Z</time></trkpt><trkpt lat="45.5125283" lon="9.061185"><ele>144.0</ele><time>2026-05-01T07:15:44.259Z</time></trkpt><trkpt lat="45.5125183" lon="9.0610383"><ele>144.0</ele><time>2026-05-01T07:15:46.259Z</time></trkpt><trkpt lat="45.51251" lon="9.06094"><ele>144.0</ele><time>2026-05-01T07:15:47.259Z</time></trkpt><trkpt lat="45.5125" lon="9.0608183"><ele>144.25</ele><time>2026-05-01T07:15:48.259Z</time></trkpt><trkpt lat="45.51249" lon="9.0606683"><ele>144.5</ele><time>2026-05-01T07:15:49.259Z</time></trkpt><trkpt lat="45.512465" lon="9.060485"><ele>144.75</ele><time>2026-05-01T07:15:50.259Z</time></trkpt><trkpt lat="45.51243" lon="9.0602733"><ele>145.0</ele><time>2026-05-01T07:15:51.259Z</time></trkpt><trkpt lat="45.5123917" lon="9.0600417"><ele>145.0</ele><time>2026-05-01T07:15:52.259Z</time></trkpt><trkpt lat="45.5123567" lon="9.059785"><ele>145.0</ele><time>2026-05-01T07:15:53.259Z</time></trkpt><trkpt lat="45.5122967" lon="9.0594717"><ele>145.0</ele><time>2026-05-01T07:15:54.258Z</time></trkpt><trkpt lat="45.5122483" lon="9.05917"><ele>145.5</ele><time>2026-05-01T07:15:55.258Z</time></trkpt><trkpt lat="45.5121833" lon="9.0588317"><ele>146.0</ele><time>2026-05-01T07:15:56.259Z</time></trkpt><trkpt lat="45.5121133" lon="9.0585017"><ele>146.0</ele><time>2026-05-01T07:15:57.258Z</time></trkpt><trkpt lat="45.5120517" lon="9.0581383"><ele>146.0</ele><time>2026-05-01T07:15:58.259Z</time></trkpt><trkpt lat="45.512" lon="9.0578117"><ele>146.0</ele><time>2026-05-01T07:15:59.259Z</time></trkpt><trkpt lat="45.5119533" lon="9.057455"><ele>146.0</ele><time>2026-05-01T07:16:00.259Z</time></trkpt><trkpt lat="45.5119217" lon="9.0571083"><ele>145.0</ele><time>2026-05-01T07:16:01.259Z</time></trkpt><trkpt lat="45.51189" lon="9.0567517"><ele>144.0</ele><time>2026-05-01T07:16:02.258Z</time></trkpt><trkpt lat="45.5118583" lon="9.0563933"><ele>143.5</ele><time>2026-05-01T07:16:03.259Z</time></trkpt><trkpt lat="45.5118067" lon="9.0559983"><ele>143.0</ele><time>2026-05-01T07:16:04.259Z</time></trkpt><trkpt lat="45.5117667" lon="9.0556"><ele>143.5</ele><time>2026-05-01T07:16:05.259Z</time></trkpt><trkpt lat="45.5117283" lon="9.055215"><ele>144.0</ele><time>2026-05-01T07:16:06.258Z</time></trkpt><trkpt lat="45.5116867" lon="9.05484"><ele>144.0</ele><time>2026-05-01T07:16:07.258Z</time></trkpt><trkpt lat="45.5116467" lon="9.0544467"><ele>144.0</ele><time>2026-05-01T07:16:08.258Z</time></trkpt><trkpt lat="45.5116167" lon="9.0540617"><ele>145.0</ele><time>2026-05-01T07:16:09.259Z</time></trkpt><trkpt lat="45.511585" lon="9.05368"><ele>146.0</ele><time>2026-05-01T07:16:10.259Z</time></trkpt><trkpt lat="45.5115433" lon="9.0532933"><ele>146.0</ele><time>2026-05-01T07:16:11.259Z</time></trkpt><trkpt lat="45.5115067" lon="9.0529167"><ele>146.0</ele><time>2026-05-01T07:16:12.259Z</time></trkpt><trkpt lat="45.511465" lon="9.0525217"><ele>145.0</ele><time>2026-05-01T07:16:13.258Z</time></trkpt><trkpt lat="45.51143" lon="9.0521267"><ele>144.0</ele><time>2026-05-01T07:16:14.259Z</time></trkpt><trkpt lat="45.5113867" lon="9.0517333"><ele>143.5</ele><time>2026-05-01T07:16:15.259Z</time></trkpt><trkpt lat="45.51135" lon="9.0513267"><ele>143.0</ele><time>2026-05-01T07:16:16.259Z</time></trkpt><trkpt lat="45.5112983" lon="9.05093"><ele>143.0</ele><time>2026-05-01T07:16:17.259Z</time></trkpt><trkpt lat="45.5112517" lon="9.050485"><ele>143.0</ele><time>2026-05-01T07:16:18.258Z</time></trkpt><trkpt lat="45.5112067" lon="9.0500683"><ele>145.0</ele><time>2026-05-01T07:16:19.259Z</time></trkpt><trkpt lat="45.5111617" lon="9.0496433"><ele>147.0</ele><time>2026-05-01T07:16:20.259Z</time></trkpt><trkpt lat="45.511135" lon="9.0492117"><ele>146.5</ele><time>2026-05-01T07:16:21.259Z</time></trkpt><trkpt lat="45.5111017" lon="9.04881"><ele>146.0</ele><time>2026-05-01T07:16:22.259Z</time></trkpt><trkpt lat="45.5110567" lon="9.0483983"><ele>146.5</ele><time>2026-05-01T07:16:23.258Z</time></trkpt><trkpt lat="45.5110217" lon="9.0479867"><ele>147.0</ele><time>2026-05-01T07:16:24.259Z</time></trkpt><trkpt lat="45.510985" lon="9.0475767"><ele>146.5</ele><time>2026-05-01T07:16:25.259Z</time></trkpt><trkpt lat="45.510935" lon="9.047175"><ele>146.0</ele><time>2026-05-01T07:16:26.259Z</time></trkpt><trkpt lat="45.5108717" lon="9.0467917"><ele>147.5</ele><time>2026-05-01T07:16:27.258Z</time></trkpt><trkpt lat="45.510825" lon="9.0464117"><ele>149.0</ele><time>2026-05-01T07:16:28.259Z</time></trkpt><trkpt lat="45.5107917" lon="9.0460467"><ele>150.5</ele><time>2026-05-01T07:16:29.259Z</time></trkpt><trkpt lat="45.5107617" lon="9.045655"><ele>152.0</ele><time>2026-05-01T07:16:30.258Z</time></trkpt><trkpt lat="45.5107217" lon="9.0452583"><ele>149.0</ele><time>2026-05-01T07:16:31.259Z</time></trkpt><trkpt lat="45.5106783" lon="9.0448367"><ele>146.0</ele><time>2026-05-01T07:16:32.259Z</time></trkpt><trkpt lat="45.5106367" lon="9.044425"><ele>144.5</ele><time>2026-05-01T07:16:33.258Z</time></trkpt><trkpt lat="45.5105833" lon="9.0440033"><ele>143.0</ele><time>2026-05-01T07:16:34.259Z</time></trkpt><trkpt lat="45.5105383" lon="9.04357"><ele>143.0</ele><time>2026-05-01T07:16:35.259Z</time></trkpt><trkpt lat="45.5104817" lon="9.0431383"><ele>143.0</ele><time>2026-05-01T07:16:36.259Z</time></trkpt><trkpt lat="45.5104267" lon="9.0426883"><ele>144.0</ele><time>2026-05-01T07:16:37.259Z</time></trkpt><trkpt lat="45.510375" lon="9.042245"><ele>145.0</ele><time>2026-05-01T07:16:38.259Z</time></trkpt><trkpt lat="45.5103383" lon="9.0418133"><ele>145.0</ele><time>2026-05-01T07:16:39.259Z</time></trkpt><trkpt lat="45.5102967" lon="9.0413967"><ele>145.0</ele><time>2026-05-01T07:16:40.259Z</time></trkpt><trkpt lat="45.510255" lon="9.0409667"><ele>145.0</ele><time>2026-05-01T07:16:41.259Z</time></trkpt><trkpt lat="45.5102083" lon="9.0405517"><ele>145.0</ele><time>2026-05-01T07:16:42.258Z</time></trkpt><trkpt lat="45.51016" lon="9.040125"><ele>145.0</ele><time>2026-05-01T07:16:43.259Z</time></trkpt><trkpt lat="45.51011" lon="9.0397067"><ele>145.0</ele><time>2026-05-01T07:16:44.259Z</time></trkpt><trkpt lat="45.5100583" lon="9.03926"><ele>145.0</ele><time>2026-05-01T07:16:45.258Z</time></trkpt><trkpt lat="45.5100133" lon="9.0388383"><ele>145.0</ele><time>2026-05-01T07:16:46.259Z</time></trkpt><trkpt lat="45.50997" lon="9.038395"><ele>144.5</ele><time>2026-05-01T07:16:47.259Z</time></trkpt><trkpt lat="45.5099217" lon="9.0379567"><ele>144.0</ele><time>2026-05-01T07:16:48.259Z</time></trkpt><trkpt lat="45.5098833" lon="9.0375317"><ele>145.0</ele><time>2026-05-01T07:16:49.259Z</time></trkpt><trkpt lat="45.5098367" lon="9.0371217"><ele>146.0</ele><time>2026-05-01T07:16:50.259Z</time></trkpt><trkpt lat="45.5097967" lon="9.0367317"><ele>145.5</ele><time>2026-05-01T07:16:51.259Z</time></trkpt><trkpt lat="45.5097567" lon="9.0363333"><ele>145.0</ele><time>2026-05-01T07:16:52.259Z</time></trkpt><trkpt lat="45.50971" lon="9.03594"><ele>144.0</ele><time>2026-05-01T07:16:53.259Z</time></trkpt><trkpt lat="45.5096633" lon="9.0355333"><ele>143.0</ele><time>2026-05-01T07:16:54.259Z</time></trkpt><trkpt lat="45.5096133" lon="9.0351483"><ele>144.0</ele><time>2026-05-01T07:16:55.259Z</time></trkpt><trkpt lat="45.5095717" lon="9.0347383"><ele>145.0</ele><time>2026-05-01T07:16:56.259Z</time></trkpt><trkpt lat="45.5095317" lon="9.0343367"><ele>146.0</ele><time>2026-05-01T07:16:57.258Z</time></trkpt><trkpt lat="45.5094917" lon="9.0339317"><ele>147.0</ele><time>2026-05-01T07:16:58.259Z</time></trkpt><trkpt lat="45.5094533" lon="9.03354"><ele>147.0</ele><time>2026-05-01T07:16:59.259Z</time></trkpt><trkpt lat="45.5094117" lon="9.0331383"><ele>147.0</ele><time>2026-05-01T07:17:00.259Z</time></trkpt><trkpt lat="45.5093683" lon="9.0327233"><ele>147.0</ele><time>2026-05-01T07:17:01.258Z</time></trkpt><trkpt lat="45.5093233" lon="9.03231"><ele>147.0</ele><time>2026-05-01T07:17:02.258Z</time></trkpt><trkpt lat="45.5092717" lon="9.0318917"><ele>147.0</ele><time>2026-05-01T07:17:03.258Z</time></trkpt><trkpt lat="45.509225" lon="9.0314867"><ele>147.0</ele><time>2026-05-01T07:17:04.259Z</time></trkpt><trkpt lat="45.509175" lon="9.031075"><ele>146.0</ele><time>2026-05-01T07:17:05.258Z</time></trkpt><trkpt lat="45.5091217" lon="9.03066"><ele>145.0</ele><time>2026-05-01T07:17:06.259Z</time></trkpt><trkpt lat="45.5090683" lon="9.0302517"><ele>145.5</ele><time>2026-05-01T07:17:07.259Z</time></trkpt><trkpt lat="45.5090183" lon="9.0298117"><ele>146.0</ele><time>2026-05-01T07:17:08.258Z</time></trkpt><trkpt lat="45.5089783" lon="9.029385"><ele>146.5</ele><time>2026-05-01T07:17:09.259Z</time></trkpt><trkpt lat="45.5089483" lon="9.0289767"><ele>147.0</ele><time>2026-05-01T07:17:10.258Z</time></trkpt><trkpt lat="45.5089067" lon="9.028575"><ele>146.5</ele><time>2026-05-01T07:17:11.259Z</time></trkpt><trkpt lat="45.5088633" lon="9.028175"><ele>146.0</ele><time>2026-05-01T07:17:12.258Z</time></trkpt><trkpt lat="45.5088183" lon="9.0277683"><ele>146.0</ele><time>2026-05-01T07:17:13.258Z</time></trkpt><trkpt lat="45.50877" lon="9.027345"><ele>146.0</ele><time>2026-05-01T07:17:14.259Z</time></trkpt><trkpt lat="45.50873" lon="9.02691"><ele>146.5</ele><time>2026-05-01T07:17:15.259Z</time></trkpt><trkpt lat="45.5086783" lon="9.0264733"><ele>147.0</ele><time>2026-05-01T07:17:16.259Z</time></trkpt><trkpt lat="45.5086333" lon="9.026035"><ele>147.0</ele><time>2026-05-01T07:17:17.259Z</time></trkpt><trkpt lat="45.5085833" lon="9.0256"><ele>147.0</ele><time>2026-05-01T07:17:18.259Z</time></trkpt><trkpt lat="45.5085483" lon="9.02517"><ele>146.0</ele><time>2026-05-01T07:17:19.259Z</time></trkpt><trkpt lat="45.508495" lon="9.0247517"><ele>145.0</ele><time>2026-05-01T07:17:20.258Z</time></trkpt><trkpt lat="45.508445" lon="9.024345"><ele>146.5</ele><time>2026-05-01T07:17:21.259Z</time></trkpt><trkpt lat="45.5084033" lon="9.02392"><ele>148.0</ele><time>2026-05-01T07:17:22.259Z</time></trkpt><trkpt lat="45.5083633" lon="9.0235"><ele>148.5</ele><time>2026-05-01T07:17:23.259Z</time></trkpt><trkpt lat="45.5083183" lon="9.0230817"><ele>149.0</ele><time>2026-05-01T07:17:24.259Z</time></trkpt><trkpt lat="45.5082683" lon="9.0226567"><ele>150.0</ele><time>2026-05-01T07:17:25.259Z</time></trkpt><trkpt lat="45.50822" lon="9.0222317"><ele>151.0</ele><time>2026-05-01T07:17:26.258Z</time></trkpt><trkpt lat="45.5081867" lon="9.02181"><ele>151.0</ele><time>2026-05-01T07:17:27.259Z</time></trkpt><trkpt lat="45.5081417" lon="9.0213933"><ele>151.0</ele><time>2026-05-01T07:17:28.258Z</time></trkpt><trkpt lat="45.508095" lon="9.02098"><ele>150.0</ele><time>2026-05-01T07:17:29.259Z</time></trkpt><trkpt lat="45.5080467" lon="9.02056"><ele>149.0</ele><time>2026-05-01T07:17:30.259Z</time></trkpt><trkpt lat="45.5079983" lon="9.0201667"><ele>148.5</ele><time>2026-05-01T07:17:31.258Z</time></trkpt><trkpt lat="45.5079417" lon="9.0197567"><ele>148.0</ele><time>2026-05-01T07:17:32.259Z</time></trkpt><trkpt lat="45.5078983" lon="9.0193383"><ele>148.5</ele><time>2026-05-01T07:17:33.259Z</time></trkpt><trkpt lat="45.5078583" lon="9.0189217"><ele>149.0</ele><time>2026-05-01T07:17:34.258Z</time></trkpt><trkpt lat="45.5078117" lon="9.0185017"><ele>148.5</ele><time>2026-05-01T07:17:35.259Z</time></trkpt><trkpt lat="45.5077733" lon="9.018085"><ele>148.0</ele><time>2026-05-01T07:17:36.258Z</time></trkpt><trkpt lat="45.5077233" lon="9.017665"><ele>148.5</ele><time>2026-05-01T07:17:37.259Z</time></trkpt><trkpt lat="45.5076783" lon="9.017245"><ele>149.0</ele><time>2026-05-01T07:17:38.259Z</time></trkpt><trkpt lat="45.5076317" lon="9.0168217"><ele>149.5</ele><time>2026-05-01T07:17:39.259Z</time></trkpt><trkpt lat="45.507585" lon="9.0164217"><ele>150.0</ele><time>2026-05-01T07:17:40.259Z</time></trkpt><trkpt lat="45.5075383" lon="9.01603"><ele>150.5</ele><time>2026-05-01T07:17:41.259Z</time></trkpt><trkpt lat="45.5075" lon="9.015615"><ele>151.0</ele><time>2026-05-01T07:17:42.258Z</time></trkpt><trkpt lat="45.5074467" lon="9.0152083"><ele>151.5</ele><time>2026-05-01T07:17:43.259Z</time></trkpt><trkpt lat="45.5074083" lon="9.014805"><ele>152.0</ele><time>2026-05-01T07:17:44.258Z</time></trkpt><trkpt lat="45.507365" lon="9.0143983"><ele>151.0</ele><time>2026-05-01T07:17:45.259Z</time></trkpt><trkpt lat="45.507325" lon="9.0139933"><ele>150.0</ele><time>2026-05-01T07:17:46.258Z</time></trkpt><trkpt lat="45.5072917" lon="9.013585"><ele>150.5</ele><time>2026-05-01T07:17:47.258Z</time></trkpt><trkpt lat="45.507245" lon="9.01319"><ele>151.0</ele><time>2026-05-01T07:17:48.259Z</time></trkpt><trkpt lat="45.5072067" lon="9.0127783"><ele>151.0</ele><time>2026-05-01T07:17:49.258Z</time></trkpt><trkpt lat="45.50717" lon="9.0123617"><ele>151.0</ele><time>2026-05-01T07:17:50.259Z</time></trkpt><trkpt lat="45.5071333" lon="9.0119467"><ele>151.5</ele><time>2026-05-01T07:17:51.258Z</time></trkpt><trkpt lat="45.5071" lon="9.0115283"><ele>152.0</ele><time>2026-05-01T07:17:52.259Z</time></trkpt><trkpt lat="45.50706" lon="9.01111"><ele>151.0</ele><time>2026-05-01T07:17:53.259Z</time></trkpt><trkpt lat="45.50702" lon="9.010705"><ele>150.0</ele><time>2026-05-01T07:17:54.259Z</time></trkpt><trkpt lat="45.5070017" lon="9.0102633"><ele>150.0</ele><time>2026-05-01T07:17:55.259Z</time></trkpt><trkpt lat="45.5069567" lon="9.0098683"><ele>150.0</ele><time>2026-05-01T07:17:56.259Z</time></trkpt><trkpt lat="45.506915" lon="9.0094717"><ele>149.0</ele><time>2026-05-01T07:17:57.259Z</time></trkpt><trkpt lat="45.506885" lon="9.00907"><ele>148.0</ele><time>2026-05-01T07:17:58.258Z</time></trkpt><trkpt lat="45.5068483" lon="9.008665"><ele>149.0</ele><time>2026-05-01T07:17:59.259Z</time></trkpt><trkpt lat="45.5068117" lon="9.0082483"><ele>150.0</ele><time>2026-05-01T07:18:00.259Z</time></trkpt><trkpt lat="45.5067817" lon="9.007835"><ele>150.0</ele><time>2026-05-01T07:18:01.259Z</time></trkpt><trkpt lat="45.5067483" lon="9.007415"><ele>150.0</ele><time>2026-05-01T07:18:02.259Z</time></trkpt><trkpt lat="45.50671" lon="9.0070133"><ele>148.0</ele><time>2026-05-01T07:18:03.259Z</time></trkpt><trkpt lat="45.5066783" lon="9.0066117"><ele>146.0</ele><time>2026-05-01T07:18:04.259Z</time></trkpt><trkpt lat="45.5066417" lon="9.00621"><ele>147.5</ele><time>2026-05-01T07:18:05.259Z</time></trkpt><trkpt lat="45.5065983" lon="9.0058"><ele>149.0</ele><time>2026-05-01T07:18:06.259Z</time></trkpt><trkpt lat="45.5065617" lon="9.0053933"><ele>149.5</ele><time>2026-05-01T07:18:07.259Z</time></trkpt><trkpt lat="45.5065433" lon="9.004975"><ele>150.0</ele><time>2026-05-01T07:18:08.259Z</time></trkpt><trkpt lat="45.5065033" lon="9.00457"><ele>150.0</ele><time>2026-05-01T07:18:09.259Z</time></trkpt><trkpt lat="45.5064583" lon="9.00418"><ele>150.0</ele><time>2026-05-01T07:18:10.258Z</time></trkpt><trkpt lat="45.5064167" lon="9.003775"><ele>149.5</ele><time>2026-05-01T07:18:11.258Z</time></trkpt><trkpt lat="45.5063733" lon="9.0033633"><ele>149.0</ele><time>2026-05-01T07:18:12.258Z</time></trkpt><trkpt lat="45.50633" lon="9.0029533"><ele>149.0</ele><time>2026-05-01T07:18:13.258Z</time></trkpt><trkpt lat="45.506275" lon="9.00255"><ele>149.0</ele><time>2026-05-01T07:18:14.259Z</time></trkpt><trkpt lat="45.506225" lon="9.002145"><ele>149.0</ele><time>2026-05-01T07:18:15.259Z</time></trkpt><trkpt lat="45.506065" lon="9.00034"><ele>149.0</ele><time>2026-05-01T07:18:19.262Z</time></trkpt><trkpt lat="45.5060517" lon="8.99988"><ele>149.0</ele><time>2026-05-01T07:18:20.262Z</time></trkpt><trkpt lat="45.5060483" lon="8.9994333"><ele>149.0</ele><time>2026-05-01T07:18:21.262Z</time></trkpt><trkpt lat="45.506055" lon="8.999035"><ele>149.0</ele><time>2026-05-01T07:18:22.262Z</time></trkpt><trkpt lat="45.5060283" lon="8.9986317"><ele>149.5</ele><time>2026-05-01T07:18:23.262Z</time></trkpt><trkpt lat="45.5059867" lon="8.9982267"><ele>150.0</ele><time>2026-05-01T07:18:24.261Z</time></trkpt><trkpt lat="45.505955" lon="8.99782"><ele>151.5</ele><time>2026-05-01T07:18:25.261Z</time></trkpt><trkpt lat="45.50594" lon="8.99742"><ele>153.0</ele><time>2026-05-01T07:18:26.262Z</time></trkpt><trkpt lat="45.505905" lon="8.9970217"><ele>153.0</ele><time>2026-05-01T07:18:27.261Z</time></trkpt><trkpt lat="45.50588" lon="8.996625"><ele>153.0</ele><time>2026-05-01T07:18:28.262Z</time></trkpt><trkpt lat="45.5058617" lon="8.9962133"><ele>153.0</ele><time>2026-05-01T07:18:29.262Z</time></trkpt><trkpt lat="45.5058367" lon="8.995805"><ele>153.0</ele><time>2026-05-01T07:18:30.262Z</time></trkpt><trkpt lat="45.505805" lon="8.9953933"><ele>152.5</ele><time>2026-05-01T07:18:31.262Z</time></trkpt><trkpt lat="45.5057767" lon="8.9949967"><ele>152.0</ele><time>2026-05-01T07:18:32.262Z</time></trkpt><trkpt lat="45.5057417" lon="8.9945983"><ele>152.0</ele><time>2026-05-01T07:18:33.262Z</time></trkpt><trkpt lat="45.5057033" lon="8.9942"><ele>152.0</ele><time>2026-05-01T07:18:34.262Z</time></trkpt><trkpt lat="45.5056683" lon="8.9937933"><ele>152.0</ele><time>2026-05-01T07:18:35.261Z</time></trkpt><trkpt lat="45.5056333" lon="8.9933717"><ele>152.0</ele><time>2026-05-01T07:18:36.261Z</time></trkpt><trkpt lat="45.50561" lon="8.992965"><ele>151.5</ele><time>2026-05-01T07:18:37.262Z</time></trkpt><trkpt lat="45.50558" lon="8.9925717"><ele>151.0</ele><time>2026-05-01T07:18:38.261Z</time></trkpt><trkpt lat="45.5055417" lon="8.9921667"><ele>150.5</ele><time>2026-05-01T07:18:39.261Z</time></trkpt><trkpt lat="45.5055183" lon="8.9917533"><ele>150.0</ele><time>2026-05-01T07:18:40.262Z</time></trkpt><trkpt lat="45.5054833" lon="8.99135"><ele>150.0</ele><time>2026-05-01T07:18:41.262Z</time></trkpt><trkpt lat="45.5054517" lon="8.9909467"><ele>150.0</ele><time>2026-05-01T07:18:42.262Z</time></trkpt><trkpt lat="45.50541" lon="8.9905217"><ele>150.0</ele><time>2026-05-01T07:18:43.262Z</time></trkpt><trkpt lat="45.5053717" lon="8.99009"><ele>150.0</ele><time>2026-05-01T07:18:44.261Z</time></trkpt><trkpt lat="45.5053183" lon="8.9896683"><ele>151.5</ele><time>2026-05-01T07:18:45.262Z</time></trkpt><trkpt lat="45.5052867" lon="8.98925"><ele>153.0</ele><time>2026-05-01T07:18:46.262Z</time></trkpt><trkpt lat="45.5052533" lon="8.9888317"><ele>153.0</ele><time>2026-05-01T07:18:47.261Z</time></trkpt><trkpt lat="45.5052233" lon="8.988425"><ele>153.0</ele><time>2026-05-01T07:18:48.262Z</time></trkpt><trkpt lat="45.50519" lon="8.9880133"><ele>153.0</ele><time>2026-05-01T07:18:49.262Z</time></trkpt><trkpt lat="45.5051483" lon="8.9876"><ele>153.0</ele><time>2026-05-01T07:18:50.262Z</time></trkpt><trkpt lat="45.5051067" lon="8.9871917"><ele>152.5</ele><time>2026-05-01T07:18:51.261Z</time></trkpt><trkpt lat="45.5050783" lon="8.9867883"><ele>152.0</ele><time>2026-05-01T07:18:52.262Z</time></trkpt><trkpt lat="45.5050433" lon="8.9863733"><ele>152.0</ele><time>2026-05-01T07:18:53.262Z</time></trkpt><trkpt lat="45.5050183" lon="8.9859467"><ele>152.0</ele><time>2026-05-01T07:18:54.262Z</time></trkpt><trkpt lat="45.5049917" lon="8.9855367"><ele>152.0</ele><time>2026-05-01T07:18:55.261Z</time></trkpt><trkpt lat="45.5049667" lon="8.9851283"><ele>152.0</ele><time>2026-05-01T07:18:56.262Z</time></trkpt><trkpt lat="45.504935" lon="8.984715"><ele>152.0</ele><time>2026-05-01T07:18:57.261Z</time></trkpt><trkpt lat="45.50489" lon="8.9842983"><ele>152.0</ele><time>2026-05-01T07:18:58.262Z</time></trkpt><trkpt lat="45.5048533" lon="8.9838867"><ele>152.0</ele><time>2026-05-01T07:18:59.262Z</time></trkpt><trkpt lat="45.504815" lon="8.983475"><ele>152.0</ele><time>2026-05-01T07:19:00.262Z</time></trkpt><trkpt lat="45.5047767" lon="8.9830583"><ele>151.0</ele><time>2026-05-01T07:19:01.262Z</time></trkpt><trkpt lat="45.5047417" lon="8.9826583"><ele>150.0</ele><time>2026-05-01T07:19:02.262Z</time></trkpt><trkpt lat="45.504715" lon="8.9822483"><ele>150.0</ele><time>2026-05-01T07:19:03.262Z</time></trkpt><trkpt lat="45.504695" lon="8.981845"><ele>150.0</ele><time>2026-05-01T07:19:04.261Z</time></trkpt><trkpt lat="45.5046633" lon="8.9814433"><ele>150.0</ele><time>2026-05-01T07:19:05.262Z</time></trkpt><trkpt lat="45.5046367" lon="8.9810517"><ele>150.0</ele><time>2026-05-01T07:19:06.261Z</time></trkpt><trkpt lat="45.5046033" lon="8.980655"><ele>150.5</ele><time>2026-05-01T07:19:07.261Z</time></trkpt><trkpt lat="45.50457" lon="8.9802533"><ele>151.0</ele><time>2026-05-01T07:19:08.261Z</time></trkpt><trkpt lat="45.5045233" lon="8.9798383"><ele>151.5</ele><time>2026-05-01T07:19:09.261Z</time></trkpt><trkpt lat="45.5044883" lon="8.9794367"><ele>152.0</ele><time>2026-05-01T07:19:10.262Z</time></trkpt><trkpt lat="45.5044533" lon="8.9790283"><ele>151.0</ele><time>2026-05-01T07:19:11.261Z</time></trkpt><trkpt lat="45.50442" lon="8.9786267"><ele>150.0</ele><time>2026-05-01T07:19:12.262Z</time></trkpt><trkpt lat="45.5043817" lon="8.97821"><ele>150.0</ele><time>2026-05-01T07:19:13.262Z</time></trkpt><trkpt lat="45.5043517" lon="8.977795"><ele>150.0</ele><time>2026-05-01T07:19:14.261Z</time></trkpt><trkpt lat="45.5043183" lon="8.9774017"><ele>150.0</ele><time>2026-05-01T07:19:15.261Z</time></trkpt><trkpt lat="45.504285" lon="8.97699"><ele>150.0</ele><time>2026-05-01T07:19:16.262Z</time></trkpt><trkpt lat="45.5042583" lon="8.9765783"><ele>150.0</ele><time>2026-05-01T07:19:17.262Z</time></trkpt><trkpt lat="45.5042283" lon="8.97617"><ele>150.0</ele><time>2026-05-01T07:19:18.262Z</time></trkpt><trkpt lat="45.5041933" lon="8.975775"><ele>151.0</ele><time>2026-05-01T07:19:19.262Z</time></trkpt><trkpt lat="45.5041583" lon="8.9753633"><ele>152.0</ele><time>2026-05-01T07:19:20.262Z</time></trkpt><trkpt lat="45.5041233" lon="8.9749533"><ele>152.0</ele><time>2026-05-01T07:19:21.262Z</time></trkpt><trkpt lat="45.5041033" lon="8.974535"><ele>152.0</ele><time>2026-05-01T07:19:22.262Z</time></trkpt><trkpt lat="45.5040833" lon="8.9741267"><ele>152.5</ele><time>2026-05-01T07:19:23.262Z</time></trkpt><trkpt lat="45.5040367" lon="8.973725"><ele>153.0</ele><time>2026-05-01T07:19:24.261Z</time></trkpt><trkpt lat="45.5040217" lon="8.9732983"><ele>153.0</ele><time>2026-05-01T07:19:25.262Z</time></trkpt><trkpt lat="45.5039933" lon="8.9728733"><ele>153.0</ele><time>2026-05-01T07:19:26.262Z</time></trkpt><trkpt lat="45.503965" lon="8.9724567"><ele>152.0</ele><time>2026-05-01T07:19:27.262Z</time></trkpt><trkpt lat="45.503935" lon="8.97206"><ele>151.0</ele><time>2026-05-01T07:19:28.262Z</time></trkpt><trkpt lat="45.5039" lon="8.97164"><ele>150.5</ele><time>2026-05-01T07:19:29.261Z</time></trkpt><trkpt lat="45.5038733" lon="8.9712367"><ele>150.0</ele><time>2026-05-01T07:19:30.262Z</time></trkpt><trkpt lat="45.5038417" lon="8.9708183"><ele>149.5</ele><time>2026-05-01T07:19:31.262Z</time></trkpt><trkpt lat="45.5038117" lon="8.9704083"><ele>149.0</ele><time>2026-05-01T07:19:32.262Z</time></trkpt><trkpt lat="45.50378" lon="8.9699967"><ele>150.5</ele><time>2026-05-01T07:19:33.262Z</time></trkpt><trkpt lat="45.5037333" lon="8.969585"><ele>152.0</ele><time>2026-05-01T07:19:34.261Z</time></trkpt><trkpt lat="45.5036933" lon="8.9691683"><ele>152.0</ele><time>2026-05-01T07:19:35.262Z</time></trkpt><trkpt lat="45.503655" lon="8.9687667"><ele>152.0</ele><time>2026-05-01T07:19:36.261Z</time></trkpt><trkpt lat="45.5036267" lon="8.968375"><ele>151.5</ele><time>2026-05-01T07:19:37.262Z</time></trkpt><trkpt lat="45.5035817" lon="8.96796"><ele>151.0</ele><time>2026-05-01T07:19:38.262Z</time></trkpt><trkpt lat="45.5035483" lon="8.9675533"><ele>150.5</ele><time>2026-05-01T07:19:39.262Z</time></trkpt><trkpt lat="45.5035167" lon="8.96714"><ele>150.0</ele><time>2026-05-01T07:19:40.262Z</time></trkpt><trkpt lat="45.5034883" lon="8.9667267"><ele>151.0</ele><time>2026-05-01T07:19:41.261Z</time></trkpt><trkpt lat="45.5034567" lon="8.9663217"><ele>152.0</ele><time>2026-05-01T07:19:42.262Z</time></trkpt><trkpt lat="45.50342" lon="8.9659067"><ele>151.5</ele><time>2026-05-01T07:19:43.262Z</time></trkpt><trkpt lat="45.50338" lon="8.965495"><ele>151.0</ele><time>2026-05-01T07:19:44.261Z</time></trkpt><trkpt lat="45.5033417" lon="8.9650833"><ele>150.5</ele><time>2026-05-01T07:19:45.261Z</time></trkpt><trkpt lat="45.5033033" lon="8.9646567"><ele>150.0</ele><time>2026-05-01T07:19:46.262Z</time></trkpt><trkpt lat="45.5032683" lon="8.9642383"><ele>151.5</ele><time>2026-05-01T07:19:47.261Z</time></trkpt><trkpt lat="45.50323" lon="8.9637817"><ele>153.0</ele><time>2026-05-01T07:19:48.262Z</time></trkpt><trkpt lat="45.503185" lon="8.9633067"><ele>153.0</ele><time>2026-05-01T07:19:49.262Z</time></trkpt><trkpt lat="45.5031383" lon="8.9628133"><ele>153.0</ele><time>2026-05-01T07:19:50.261Z</time></trkpt><trkpt lat="45.50309" lon="8.96232"><ele>152.0</ele><time>2026-05-01T07:19:51.262Z</time></trkpt><trkpt lat="45.5030467" lon="8.96184"><ele>151.0</ele><time>2026-05-01T07:19:52.262Z</time></trkpt><trkpt lat="45.5030067" lon="8.9613733"><ele>151.0</ele><time>2026-05-01T07:19:53.262Z</time></trkpt><trkpt lat="45.5029733" lon="8.9609117"><ele>151.0</ele><time>2026-05-01T07:19:54.262Z</time></trkpt><trkpt lat="45.5029383" lon="8.9604733"><ele>151.5</ele><time>2026-05-01T07:19:55.262Z</time></trkpt><trkpt lat="45.5029217" lon="8.9600283"><ele>152.0</ele><time>2026-05-01T07:19:56.261Z</time></trkpt><trkpt lat="45.5028933" lon="8.9595967"><ele>153.0</ele><time>2026-05-01T07:19:57.261Z</time></trkpt><trkpt lat="45.502865" lon="8.9591633"><ele>154.0</ele><time>2026-05-01T07:19:58.262Z</time></trkpt><trkpt lat="45.50284" lon="8.9587417"><ele>153.5</ele><time>2026-05-01T07:19:59.262Z</time></trkpt><trkpt lat="45.5028067" lon="8.9583183"><ele>153.0</ele><time>2026-05-01T07:20:00.262Z</time></trkpt><trkpt lat="45.5027633" lon="8.9579"><ele>152.0</ele><time>2026-05-01T07:20:01.262Z</time></trkpt><trkpt lat="45.5027217" lon="8.957485"><ele>151.0</ele><time>2026-05-01T07:20:02.262Z</time></trkpt><trkpt lat="45.5026867" lon="8.95706"><ele>152.0</ele><time>2026-05-01T07:20:03.262Z</time></trkpt><trkpt lat="45.502655" lon="8.956645"><ele>153.0</ele><time>2026-05-01T07:20:04.262Z</time></trkpt><trkpt lat="45.50262" lon="8.956225"><ele>153.0</ele><time>2026-05-01T07:20:05.261Z</time></trkpt><trkpt lat="45.5025767" lon="8.95582"><ele>153.0</ele><time>2026-05-01T07:20:06.262Z</time></trkpt><trkpt lat="45.5025367" lon="8.9554"><ele>154.0</ele><time>2026-05-01T07:20:07.262Z</time></trkpt><trkpt lat="45.5025067" lon="8.954985"><ele>155.0</ele><time>2026-05-01T07:20:08.261Z</time></trkpt><trkpt lat="45.502475" lon="8.9545683"><ele>154.0</ele><time>2026-05-01T07:20:09.261Z</time></trkpt><trkpt lat="45.50243" lon="8.9541517"><ele>153.0</ele><time>2026-05-01T07:20:10.262Z</time></trkpt><trkpt lat="45.5023817" lon="8.9537267"><ele>152.5</ele><time>2026-05-01T07:20:11.262Z</time></trkpt><trkpt lat="45.50233" lon="8.9532917"><ele>152.0</ele><time>2026-05-01T07:20:12.262Z</time></trkpt><trkpt lat="45.502295" lon="8.9528717"><ele>153.5</ele><time>2026-05-01T07:20:13.261Z</time></trkpt><trkpt lat="45.502255" lon="8.95245"><ele>155.0</ele><time>2026-05-01T07:20:14.262Z</time></trkpt><trkpt lat="45.5022233" lon="8.952035"><ele>153.5</ele><time>2026-05-01T07:20:15.262Z</time></trkpt><trkpt lat="45.5021817" lon="8.9516217"><ele>152.0</ele><time>2026-05-01T07:20:16.262Z</time></trkpt><trkpt lat="45.50215" lon="8.9512033"><ele>151.0</ele><time>2026-05-01T07:20:17.262Z</time></trkpt><trkpt lat="45.502105" lon="8.9507933"><ele>150.0</ele><time>2026-05-01T07:20:18.262Z</time></trkpt><trkpt lat="45.5020633" lon="8.95039"><ele>150.0</ele><time>2026-05-01T07:20:19.262Z</time></trkpt><trkpt lat="45.5020133" lon="8.9499833"><ele>150.0</ele><time>2026-05-01T07:20:20.262Z</time></trkpt><trkpt lat="45.5019483" lon="8.9495767"><ele>150.5</ele><time>2026-05-01T07:20:21.262Z</time></trkpt><trkpt lat="45.5018867" lon="8.94916"><ele>151.0</ele><time>2026-05-01T07:20:22.261Z</time></trkpt><trkpt lat="45.5018133" lon="8.948745"><ele>151.5</ele><time>2026-05-01T07:20:23.261Z</time></trkpt><trkpt lat="45.5017567" lon="8.94832"><ele>152.0</ele><time>2026-05-01T07:20:24.262Z</time></trkpt><trkpt lat="45.5017167" lon="8.9478967"><ele>152.0</ele><time>2026-05-01T07:20:25.261Z</time></trkpt><trkpt lat="45.50168" lon="8.94748"><ele>152.0</ele><time>2026-05-01T07:20:26.262Z</time></trkpt><trkpt lat="45.5016367" lon="8.9470733"><ele>152.0</ele><time>2026-05-01T07:20:27.262Z</time></trkpt><trkpt lat="45.50159" lon="8.94667"><ele>152.0</ele><time>2026-05-01T07:20:28.262Z</time></trkpt><trkpt lat="45.5015483" lon="8.94626"><ele>152.5</ele><time>2026-05-01T07:20:29.261Z</time></trkpt><trkpt lat="45.50151" lon="8.9458533"><ele>153.0</ele><time>2026-05-01T07:20:30.262Z</time></trkpt><trkpt lat="45.50146" lon="8.9454533"><ele>153.0</ele><time>2026-05-01T07:20:31.262Z</time></trkpt><trkpt lat="45.5014167" lon="8.9450533"><ele>153.0</ele><time>2026-05-01T07:20:32.262Z</time></trkpt><trkpt lat="45.5013783" lon="8.944645"><ele>153.5</ele><time>2026-05-01T07:20:33.261Z</time></trkpt><trkpt lat="45.50134" lon="8.944245"><ele>154.0</ele><time>2026-05-01T07:20:34.261Z</time></trkpt><trkpt lat="45.5013" lon="8.943845"><ele>152.5</ele><time>2026-05-01T07:20:35.262Z</time></trkpt><trkpt lat="45.5012483" lon="8.9434433"><ele>151.0</ele><time>2026-05-01T07:20:36.262Z</time></trkpt><trkpt lat="45.5011933" lon="8.9430383"><ele>150.5</ele><time>2026-05-01T07:20:37.261Z</time></trkpt><trkpt lat="45.5011483" lon="8.9426433"><ele>150.0</ele><time>2026-05-01T07:20:38.261Z</time></trkpt><trkpt lat="45.5010983" lon="8.9422283"><ele>150.0</ele><time>2026-05-01T07:20:39.262Z</time></trkpt><trkpt lat="45.5010533" lon="8.9418283"><ele>150.0</ele><time>2026-05-01T07:20:40.261Z</time></trkpt><trkpt lat="45.501005" lon="8.941425"><ele>150.0</ele><time>2026-05-01T07:20:41.262Z</time></trkpt><trkpt lat="45.5009633" lon="8.941025"><ele>150.0</ele><time>2026-05-01T07:20:42.261Z</time></trkpt><trkpt lat="45.5009283" lon="8.94062"><ele>150.5</ele><time>2026-05-01T07:20:43.262Z</time></trkpt><trkpt lat="45.5008783" lon="8.940195"><ele>151.0</ele><time>2026-05-01T07:20:44.262Z</time></trkpt><trkpt lat="45.5008317" lon="8.9397883"><ele>152.0</ele><time>2026-05-01T07:20:45.262Z</time></trkpt><trkpt lat="45.5007967" lon="8.939385"><ele>153.0</ele><time>2026-05-01T07:20:46.262Z</time></trkpt><trkpt lat="45.500755" lon="8.9389683"><ele>153.0</ele><time>2026-05-01T07:20:47.262Z</time></trkpt><trkpt lat="45.5007167" lon="8.9385483"><ele>153.0</ele><time>2026-05-01T07:20:48.262Z</time></trkpt><trkpt lat="45.500685" lon="8.9381333"><ele>153.5</ele><time>2026-05-01T07:20:49.262Z</time></trkpt><trkpt lat="45.5006467" lon="8.9377283"><ele>154.0</ele><time>2026-05-01T07:20:50.262Z</time></trkpt><trkpt lat="45.5006133" lon="8.9373017"><ele>154.0</ele><time>2026-05-01T07:20:51.262Z</time></trkpt><trkpt lat="45.500585" lon="8.9369"><ele>154.0</ele><time>2026-05-01T07:20:52.261Z</time></trkpt><trkpt lat="45.500555" lon="8.9365"><ele>155.0</ele><time>2026-05-01T07:20:53.262Z</time></trkpt><trkpt lat="45.5005217" lon="8.9361"><ele>156.0</ele><time>2026-05-01T07:20:54.262Z</time></trkpt><trkpt lat="45.5004867" lon="8.935695"><ele>156.0</ele><time>2026-05-01T07:20:55.261Z</time></trkpt><trkpt lat="45.500465" lon="8.93528"><ele>156.0</ele><time>2026-05-01T07:20:56.262Z</time></trkpt><trkpt lat="45.500445" lon="8.9348767"><ele>155.0</ele><time>2026-05-01T07:20:57.261Z</time></trkpt><trkpt lat="45.500405" lon="8.934465"><ele>154.0</ele><time>2026-05-01T07:20:58.262Z</time></trkpt><trkpt lat="45.5003617" lon="8.934065"><ele>153.5</ele><time>2026-05-01T07:20:59.262Z</time></trkpt><trkpt lat="45.50032" lon="8.9336517"><ele>153.0</ele><time>2026-05-01T07:21:00.261Z</time></trkpt><trkpt lat="45.5002817" lon="8.9332383"><ele>152.5</ele><time>2026-05-01T07:21:01.262Z</time></trkpt><trkpt lat="45.5002683" lon="8.9328333"><ele>152.0</ele><time>2026-05-01T07:21:02.262Z</time></trkpt><trkpt lat="45.5002367" lon="8.93242"><ele>152.0</ele><time>2026-05-01T07:21:03.262Z</time></trkpt><trkpt lat="45.50019" lon="8.932015"><ele>152.0</ele><time>2026-05-01T07:21:04.262Z</time></trkpt><trkpt lat="45.5001417" lon="8.9316133"><ele>152.0</ele><time>2026-05-01T07:21:05.262Z</time></trkpt><trkpt lat="45.500095" lon="8.9311967"><ele>152.0</ele><time>2026-05-01T07:21:06.262Z</time></trkpt><trkpt lat="45.50005" lon="8.9307683"><ele>152.5</ele><time>2026-05-01T07:21:07.261Z</time></trkpt><trkpt lat="45.5000067" lon="8.93033"><ele>153.0</ele><time>2026-05-01T07:21:08.261Z</time></trkpt><trkpt lat="45.4999617" lon="8.9299033"><ele>152.0</ele><time>2026-05-01T07:21:09.262Z</time></trkpt><trkpt lat="45.4999233" lon="8.929465"><ele>151.0</ele><time>2026-05-01T07:21:10.261Z</time></trkpt><trkpt lat="45.4998767" lon="8.929035"><ele>151.0</ele><time>2026-05-01T07:21:11.262Z</time></trkpt><trkpt lat="45.4998333" lon="8.9286267"><ele>151.0</ele><time>2026-05-01T07:21:12.262Z</time></trkpt><trkpt lat="45.499785" lon="8.9282267"><ele>151.0</ele><time>2026-05-01T07:21:13.262Z</time></trkpt><trkpt lat="45.4997467" lon="8.9278383"><ele>151.0</ele><time>2026-05-01T07:21:14.262Z</time></trkpt><trkpt lat="45.4997083" lon="8.9274217"><ele>151.0</ele><time>2026-05-01T07:21:15.262Z</time></trkpt><trkpt lat="45.499655" lon="8.9270117"><ele>151.0</ele><time>2026-05-01T07:21:16.262Z</time></trkpt><trkpt lat="45.499605" lon="8.9266067"><ele>152.0</ele><time>2026-05-01T07:21:17.261Z</time></trkpt><trkpt lat="45.4995667" lon="8.9262017"><ele>153.0</ele><time>2026-05-01T07:21:18.262Z</time></trkpt><trkpt lat="45.4995117" lon="8.925785"><ele>153.0</ele><time>2026-05-01T07:21:19.262Z</time></trkpt><trkpt lat="45.4994667" lon="8.9253717"><ele>153.0</ele><time>2026-05-01T07:21:20.261Z</time></trkpt><trkpt lat="45.49943" lon="8.9249667"><ele>153.0</ele><time>2026-05-01T07:21:21.262Z</time></trkpt><trkpt lat="45.499395" lon="8.9245567"><ele>153.0</ele><time>2026-05-01T07:21:22.262Z</time></trkpt><trkpt lat="45.49936" lon="8.92415"><ele>153.5</ele><time>2026-05-01T07:21:23.262Z</time></trkpt><trkpt lat="45.4993233" lon="8.92373"><ele>154.0</ele><time>2026-05-01T07:21:24.262Z</time></trkpt><trkpt lat="45.49928" lon="8.9232933"><ele>154.0</ele><time>2026-05-01T07:21:25.262Z</time></trkpt><trkpt lat="45.4992317" lon="8.9228767"><ele>154.0</ele><time>2026-05-01T07:21:26.262Z</time></trkpt><trkpt lat="45.4991883" lon="8.9224417"><ele>154.0</ele><time>2026-05-01T07:21:27.262Z</time></trkpt><trkpt lat="45.49914" lon="8.9220017"><ele>154.0</ele><time>2026-05-01T07:21:28.261Z</time></trkpt><trkpt lat="45.499095" lon="8.92156"><ele>153.0</ele><time>2026-05-01T07:21:29.262Z</time></trkpt><trkpt lat="45.499045" lon="8.9211467"><ele>152.0</ele><time>2026-05-01T07:21:30.262Z</time></trkpt><trkpt lat="45.4989967" lon="8.9207183"><ele>151.5</ele><time>2026-05-01T07:21:31.262Z</time></trkpt><trkpt lat="45.4989533" lon="8.9202967"><ele>151.0</ele><time>2026-05-01T07:21:32.262Z</time></trkpt><trkpt lat="45.4989033" lon="8.91988"><ele>151.0</ele><time>2026-05-01T07:21:33.262Z</time></trkpt><trkpt lat="45.4988533" lon="8.9194617"><ele>151.0</ele><time>2026-05-01T07:21:34.261Z</time></trkpt><trkpt lat="45.4988" lon="8.9190417"><ele>150.5</ele><time>2026-05-01T07:21:35.262Z</time></trkpt><trkpt lat="45.4987517" lon="8.9186333"><ele>150.0</ele><time>2026-05-01T07:21:36.262Z</time></trkpt><trkpt lat="45.4987117" lon="8.918225"><ele>151.0</ele><time>2026-05-01T07:21:37.262Z</time></trkpt><trkpt lat="45.4986783" lon="8.9177967"><ele>152.0</ele><time>2026-05-01T07:21:38.262Z</time></trkpt><trkpt lat="45.4986367" lon="8.9173667"><ele>152.0</ele><time>2026-05-01T07:21:39.261Z</time></trkpt><trkpt lat="45.4985917" lon="8.9169517"><ele>152.0</ele><time>2026-05-01T07:21:40.262Z</time></trkpt><trkpt lat="45.4985583" lon="8.9165317"><ele>151.5</ele><time>2026-05-01T07:21:41.262Z</time></trkpt><trkpt lat="45.4985067" lon="8.91612"><ele>151.0</ele><time>2026-05-01T07:21:42.261Z</time></trkpt><trkpt lat="45.49846" lon="8.9156967"><ele>151.0</ele><time>2026-05-01T07:21:43.261Z</time></trkpt><trkpt lat="45.498415" lon="8.9152717"><ele>151.0</ele><time>2026-05-01T07:21:44.262Z</time></trkpt><trkpt lat="45.4983767" lon="8.914855"><ele>151.5</ele><time>2026-05-01T07:21:45.261Z</time></trkpt><trkpt lat="45.4983283" lon="8.91444"><ele>152.0</ele><time>2026-05-01T07:21:46.262Z</time></trkpt><trkpt lat="45.4982833" lon="8.91403"><ele>152.0</ele><time>2026-05-01T07:21:47.262Z</time></trkpt><trkpt lat="45.498235" lon="8.9136117"><ele>152.0</ele><time>2026-05-01T07:21:48.261Z</time></trkpt><trkpt lat="45.49819" lon="8.9131933"><ele>152.0</ele><time>2026-05-01T07:21:49.262Z</time></trkpt><trkpt lat="45.498145" lon="8.9127733"><ele>152.0</ele><time>2026-05-01T07:21:50.262Z</time></trkpt><trkpt lat="45.4980983" lon="8.9123533"><ele>152.0</ele><time>2026-05-01T07:21:51.261Z</time></trkpt><trkpt lat="45.4980567" lon="8.9119367"><ele>152.0</ele><time>2026-05-01T07:21:52.262Z</time></trkpt><trkpt lat="45.4980183" lon="8.911525"><ele>152.0</ele><time>2026-05-01T07:21:53.262Z</time></trkpt><trkpt lat="45.49797" lon="8.9111283"><ele>152.0</ele><time>2026-05-01T07:21:54.262Z</time></trkpt><trkpt lat="45.49793" lon="8.9107333"><ele>152.0</ele><time>2026-05-01T07:21:55.262Z</time></trkpt><trkpt lat="45.4978817" lon="8.9103233"><ele>152.0</ele><time>2026-05-01T07:21:56.261Z</time></trkpt><trkpt lat="45.4978317" lon="8.9099083"><ele>152.0</ele><time>2026-05-01T07:21:57.262Z</time></trkpt><trkpt lat="45.49778" lon="8.9094917"><ele>152.0</ele><time>2026-05-01T07:21:58.262Z</time></trkpt><trkpt lat="45.4977283" lon="8.9090817"><ele>151.5</ele><time>2026-05-01T07:21:59.261Z</time></trkpt><trkpt lat="45.4976767" lon="8.908675"><ele>151.0</ele><time>2026-05-01T07:22:00.262Z</time></trkpt><trkpt lat="45.4976217" lon="8.9082767"><ele>150.5</ele><time>2026-05-01T07:22:01.261Z</time></trkpt><trkpt lat="45.4975683" lon="8.907845"><ele>150.0</ele><time>2026-05-01T07:22:02.262Z</time></trkpt><trkpt lat="45.4975133" lon="8.90743"><ele>150.0</ele><time>2026-05-01T07:22:03.262Z</time></trkpt><trkpt lat="45.4974567" lon="8.90701"><ele>150.0</ele><time>2026-05-01T07:22:04.262Z</time></trkpt><trkpt lat="45.4973983" lon="8.9065983"><ele>149.5</ele><time>2026-05-01T07:22:05.262Z</time></trkpt><trkpt lat="45.497345" lon="8.9061833"><ele>149.0</ele><time>2026-05-01T07:22:06.261Z</time></trkpt><trkpt lat="45.4972983" lon="8.9057633"><ele>149.0</ele><time>2026-05-01T07:22:07.262Z</time></trkpt><trkpt lat="45.4972417" lon="8.9053483"><ele>149.0</ele><time>2026-05-01T07:22:08.262Z</time></trkpt><trkpt lat="45.4971867" lon="8.9049367"><ele>149.0</ele><time>2026-05-01T07:22:09.262Z</time></trkpt><trkpt lat="45.4971333" lon="8.9045133"><ele>149.0</ele><time>2026-05-01T07:22:10.262Z</time></trkpt><trkpt lat="45.497065" lon="8.9040933"><ele>149.0</ele><time>2026-05-01T07:22:11.261Z</time></trkpt><trkpt lat="45.49701" lon="8.9036767"><ele>149.0</ele><time>2026-05-01T07:22:12.262Z</time></trkpt><trkpt lat="45.49695" lon="8.9032667"><ele>148.5</ele><time>2026-05-01T07:22:13.262Z</time></trkpt><trkpt lat="45.4968917" lon="8.902855"><ele>148.0</ele><time>2026-05-01T07:22:14.262Z</time></trkpt><trkpt lat="45.4968317" lon="8.9024433"><ele>149.0</ele><time>2026-05-01T07:22:15.262Z</time></trkpt><trkpt lat="45.4967767" lon="8.902045"><ele>150.0</ele><time>2026-05-01T07:22:16.262Z</time></trkpt><trkpt lat="45.4967217" lon="8.901645"><ele>150.0</ele><time>2026-05-01T07:22:17.262Z</time></trkpt><trkpt lat="45.4966567" lon="8.9012533"><ele>150.0</ele><time>2026-05-01T07:22:18.262Z</time></trkpt><trkpt lat="45.496605" lon="8.900855"><ele>150.0</ele><time>2026-05-01T07:22:19.262Z</time></trkpt><trkpt lat="45.49656" lon="8.9004467"><ele>150.0</ele><time>2026-05-01T07:22:20.262Z</time></trkpt><trkpt lat="45.496505" lon="8.90004"><ele>150.0</ele><time>2026-05-01T07:22:21.262Z</time></trkpt><trkpt lat="45.49644" lon="8.89964"><ele>150.0</ele><time>2026-05-01T07:22:22.261Z</time></trkpt><trkpt lat="45.4963683" lon="8.8992333"><ele>150.5</ele><time>2026-05-01T07:22:23.261Z</time></trkpt><trkpt lat="45.4962933" lon="8.898835"><ele>151.0</ele><time>2026-05-01T07:22:24.261Z</time></trkpt><trkpt lat="45.49622" lon="8.8984433"><ele>152.0</ele><time>2026-05-01T07:22:25.262Z</time></trkpt><trkpt lat="45.496135" lon="8.8980517"><ele>153.0</ele><time>2026-05-01T07:22:26.262Z</time></trkpt><trkpt lat="45.49607" lon="8.8976617"><ele>152.5</ele><time>2026-05-01T07:22:27.262Z</time></trkpt><trkpt lat="45.496015" lon="8.897265"><ele>152.0</ele><time>2026-05-01T07:22:28.262Z</time></trkpt><trkpt lat="45.49595" lon="8.8968683"><ele>152.0</ele><time>2026-05-01T07:22:29.261Z</time></trkpt><trkpt lat="45.4958883" lon="8.8964633"><ele>152.0</ele><time>2026-05-01T07:22:30.262Z</time></trkpt><trkpt lat="45.49582" lon="8.89606"><ele>150.5</ele><time>2026-05-01T07:22:31.262Z</time></trkpt><trkpt lat="45.4957483" lon="8.89566"><ele>149.0</ele><time>2026-05-01T07:22:32.262Z</time></trkpt><trkpt lat="45.4956733" lon="8.8952517"><ele>149.5</ele><time>2026-05-01T07:22:33.262Z</time></trkpt><trkpt lat="45.4956183" lon="8.8948433"><ele>150.0</ele><time>2026-05-01T07:22:34.261Z</time></trkpt><trkpt lat="45.495555" lon="8.8944317"><ele>149.5</ele><time>2026-05-01T07:22:35.262Z</time></trkpt><trkpt lat="45.4954733" lon="8.894015"><ele>149.0</ele><time>2026-05-01T07:22:36.262Z</time></trkpt><trkpt lat="45.4953983" lon="8.8935967"><ele>149.0</ele><time>2026-05-01T07:22:37.262Z</time></trkpt><trkpt lat="45.49532" lon="8.8931717"><ele>149.0</ele><time>2026-05-01T07:22:38.261Z</time></trkpt><trkpt lat="45.49525" lon="8.8927517"><ele>149.0</ele><time>2026-05-01T07:22:39.262Z</time></trkpt><trkpt lat="45.4951767" lon="8.89234"><ele>149.0</ele><time>2026-05-01T07:22:40.262Z</time></trkpt><trkpt lat="45.4951033" lon="8.8919317"><ele>149.0</ele><time>2026-05-01T07:22:41.262Z</time></trkpt><trkpt lat="45.4950317" lon="8.89152"><ele>149.0</ele><time>2026-05-01T07:22:42.261Z</time></trkpt><trkpt lat="45.4949667" lon="8.8911317"><ele>148.5</ele><time>2026-05-01T07:22:43.262Z</time></trkpt><trkpt lat="45.4948967" lon="8.890735"><ele>148.0</ele><time>2026-05-01T07:22:44.262Z</time></trkpt><trkpt lat="45.4948233" lon="8.8903433"><ele>149.5</ele><time>2026-05-01T07:22:45.261Z</time></trkpt><trkpt lat="45.49475" lon="8.8899383"><ele>151.0</ele><time>2026-05-01T07:22:46.261Z</time></trkpt><trkpt lat="45.4946783" lon="8.8895283"><ele>151.0</ele><time>2026-05-01T07:22:47.262Z</time></trkpt><trkpt lat="45.4945967" lon="8.8891217"><ele>151.0</ele><time>2026-05-01T07:22:48.261Z</time></trkpt><trkpt lat="45.494515" lon="8.8887267"><ele>150.0</ele><time>2026-05-01T07:22:49.262Z</time></trkpt><trkpt lat="45.49444" lon="8.8883167"><ele>149.0</ele><time>2026-05-01T07:22:50.262Z</time></trkpt><trkpt lat="45.494365" lon="8.8879033"><ele>148.0</ele><time>2026-05-01T07:22:51.262Z</time></trkpt><trkpt lat="45.4942883" lon="8.887485"><ele>147.0</ele><time>2026-05-01T07:22:52.262Z</time></trkpt><trkpt lat="45.4942133" lon="8.8870483"><ele>146.5</ele><time>2026-05-01T07:22:53.262Z</time></trkpt><trkpt lat="45.49413" lon="8.88662"><ele>146.0</ele><time>2026-05-01T07:22:54.261Z</time></trkpt><trkpt lat="45.4940483" lon="8.88619"><ele>147.5</ele><time>2026-05-01T07:22:55.262Z</time></trkpt><trkpt lat="45.4939633" lon="8.8857633"><ele>149.0</ele><time>2026-05-01T07:22:56.262Z</time></trkpt><trkpt lat="45.493875" lon="8.88533"><ele>148.5</ele><time>2026-05-01T07:22:57.261Z</time></trkpt><trkpt lat="45.4937933" lon="8.8848733"><ele>148.0</ele><time>2026-05-01T07:22:58.261Z</time></trkpt><trkpt lat="45.4936967" lon="8.8843917"><ele>148.0</ele><time>2026-05-01T07:22:59.262Z</time></trkpt><trkpt lat="45.493595" lon="8.8838967"><ele>148.0</ele><time>2026-05-01T07:23:00.262Z</time></trkpt><trkpt lat="45.4934883" lon="8.8833867"><ele>148.0</ele><time>2026-05-01T07:23:01.262Z</time></trkpt><trkpt lat="45.4933783" lon="8.8828667"><ele>148.0</ele><time>2026-05-01T07:23:02.262Z</time></trkpt><trkpt lat="45.4932683" lon="8.8823417"><ele>147.5</ele><time>2026-05-01T07:23:03.262Z</time></trkpt><trkpt lat="45.4931667" lon="8.88183"><ele>147.0</ele><time>2026-05-01T07:23:04.262Z</time></trkpt><trkpt lat="45.4930717" lon="8.8813467"><ele>148.5</ele><time>2026-05-01T07:23:05.262Z</time></trkpt><trkpt lat="45.4929983" lon="8.8808917"><ele>150.0</ele><time>2026-05-01T07:23:06.261Z</time></trkpt><trkpt lat="45.4929317" lon="8.88046"><ele>149.0</ele><time>2026-05-01T07:23:07.261Z</time></trkpt><trkpt lat="45.4928633" lon="8.8800333"><ele>148.0</ele><time>2026-05-01T07:23:08.261Z</time></trkpt><trkpt lat="45.4927967" lon="8.879615"><ele>147.0</ele><time>2026-05-01T07:23:09.261Z</time></trkpt><trkpt lat="45.4927217" lon="8.8792017"><ele>146.0</ele><time>2026-05-01T07:23:10.262Z</time></trkpt><trkpt lat="45.492655" lon="8.8787983"><ele>146.0</ele><time>2026-05-01T07:23:11.262Z</time></trkpt><trkpt lat="45.4925933" lon="8.8784067"><ele>146.0</ele><time>2026-05-01T07:23:12.262Z</time></trkpt><trkpt lat="45.492525" lon="8.8780083"><ele>146.0</ele><time>2026-05-01T07:23:13.262Z</time></trkpt><trkpt lat="45.492455" lon="8.877625"><ele>146.0</ele><time>2026-05-01T07:23:14.262Z</time></trkpt><trkpt lat="45.4923817" lon="8.8772383"><ele>146.5</ele><time>2026-05-01T07:23:15.262Z</time></trkpt><trkpt lat="45.4923167" lon="8.87684"><ele>147.0</ele><time>2026-05-01T07:23:16.262Z</time></trkpt><trkpt lat="45.492245" lon="8.87645"><ele>147.5</ele><time>2026-05-01T07:23:17.261Z</time></trkpt><trkpt lat="45.4921767" lon="8.8760433"><ele>148.0</ele><time>2026-05-01T07:23:18.262Z</time></trkpt><trkpt lat="45.492115" lon="8.8756217"><ele>149.0</ele><time>2026-05-01T07:23:19.262Z</time></trkpt><trkpt lat="45.4920533" lon="8.8752"><ele>150.0</ele><time>2026-05-01T07:23:20.262Z</time></trkpt><trkpt lat="45.4919867" lon="8.8747867"><ele>150.0</ele><time>2026-05-01T07:23:21.262Z</time></trkpt><trkpt lat="45.4919217" lon="8.8743683"><ele>150.0</ele><time>2026-05-01T07:23:22.262Z</time></trkpt><trkpt lat="45.491855" lon="8.8739617"><ele>148.5</ele><time>2026-05-01T07:23:23.261Z</time></trkpt><trkpt lat="45.4917817" lon="8.873555"><ele>147.0</ele><time>2026-05-01T07:23:24.262Z</time></trkpt><trkpt lat="45.4916983" lon="8.8731367"><ele>146.5</ele><time>2026-05-01T07:23:25.262Z</time></trkpt><trkpt lat="45.4916283" lon="8.8727367"><ele>146.0</ele><time>2026-05-01T07:23:26.262Z</time></trkpt><trkpt lat="45.4915633" lon="8.8723267"><ele>146.0</ele><time>2026-05-01T07:23:27.261Z</time></trkpt><trkpt lat="45.491495" lon="8.871925"><ele>146.0</ele><time>2026-05-01T07:23:28.261Z</time></trkpt><trkpt lat="45.4914133" lon="8.871525"><ele>146.0</ele><time>2026-05-01T07:23:29.262Z</time></trkpt><trkpt lat="45.4913433" lon="8.8711217"><ele>146.0</ele><time>2026-05-01T07:23:30.261Z</time></trkpt><trkpt lat="45.4912733" lon="8.8707233"><ele>145.5</ele><time>2026-05-01T07:23:31.262Z</time></trkpt><trkpt lat="45.491215" lon="8.8703333"><ele>145.0</ele><time>2026-05-01T07:23:32.261Z</time></trkpt><trkpt lat="45.4911483" lon="8.8699483"><ele>145.0</ele><time>2026-05-01T07:23:33.262Z</time></trkpt><trkpt lat="45.4910767" lon="8.8695633"><ele>145.0</ele><time>2026-05-01T07:23:34.261Z</time></trkpt><trkpt lat="45.4910017" lon="8.869165"><ele>146.0</ele><time>2026-05-01T07:23:35.262Z</time></trkpt><trkpt lat="45.4909233" lon="8.8687667"><ele>147.0</ele><time>2026-05-01T07:23:36.262Z</time></trkpt><trkpt lat="45.4908533" lon="8.8683783"><ele>147.0</ele><time>2026-05-01T07:23:37.262Z</time></trkpt><trkpt lat="45.4907733" lon="8.8679817"><ele>147.0</ele><time>2026-05-01T07:23:38.262Z</time></trkpt><trkpt lat="45.49069" lon="8.8675867"><ele>147.0</ele><time>2026-05-01T07:23:39.262Z</time></trkpt><trkpt lat="45.490595" lon="8.8671917"><ele>147.0</ele><time>2026-05-01T07:23:40.261Z</time></trkpt><trkpt lat="45.4904967" lon="8.866805"><ele>148.0</ele><time>2026-05-01T07:23:41.262Z</time></trkpt><trkpt lat="45.4904167" lon="8.866405"><ele>149.0</ele><time>2026-05-01T07:23:42.262Z</time></trkpt><trkpt lat="45.4903117" lon="8.8660017"><ele>149.0</ele><time>2026-05-01T07:23:43.261Z</time></trkpt><trkpt lat="45.4902217" lon="8.8655983"><ele>149.0</ele><time>2026-05-01T07:23:44.262Z</time></trkpt><trkpt lat="45.490125" lon="8.865195"><ele>149.0</ele><time>2026-05-01T07:23:45.262Z</time></trkpt><trkpt lat="45.49002" lon="8.8648033"><ele>149.0</ele><time>2026-05-01T07:23:46.262Z</time></trkpt><trkpt lat="45.489905" lon="8.8644133"><ele>148.0</ele><time>2026-05-01T07:23:47.262Z</time></trkpt><trkpt lat="45.48979" lon="8.86403"><ele>147.0</ele><time>2026-05-01T07:23:48.262Z</time></trkpt><trkpt lat="45.48967" lon="8.8636583"><ele>147.0</ele><time>2026-05-01T07:23:49.262Z</time></trkpt><trkpt lat="45.4895517" lon="8.86329"><ele>147.0</ele><time>2026-05-01T07:23:50.262Z</time></trkpt><trkpt lat="45.4894333" lon="8.8629233"><ele>146.0</ele><time>2026-05-01T07:23:51.262Z</time></trkpt><trkpt lat="45.4893067" lon="8.862545"><ele>145.0</ele><time>2026-05-01T07:23:52.262Z</time></trkpt><trkpt lat="45.48918" lon="8.8621817"><ele>145.0</ele><time>2026-05-01T07:23:53.261Z</time></trkpt><trkpt lat="45.48906" lon="8.86183"><ele>145.0</ele><time>2026-05-01T07:23:54.262Z</time></trkpt><trkpt lat="45.4889267" lon="8.8614633"><ele>145.0</ele><time>2026-05-01T07:23:55.262Z</time></trkpt><trkpt lat="45.4887983" lon="8.8610983"><ele>145.0</ele><time>2026-05-01T07:23:56.262Z</time></trkpt><trkpt lat="45.4886683" lon="8.8607267"><ele>145.0</ele><time>2026-05-01T07:23:57.262Z</time></trkpt><trkpt lat="45.4885283" lon="8.860355"><ele>145.0</ele><time>2026-05-01T07:23:58.261Z</time></trkpt><trkpt lat="45.4883883" lon="8.8599867"><ele>145.0</ele><time>2026-05-01T07:23:59.262Z</time></trkpt><trkpt lat="45.4882533" lon="8.859605"><ele>145.0</ele><time>2026-05-01T07:24:00.262Z</time></trkpt><trkpt lat="45.4881133" lon="8.8592233"><ele>145.5</ele><time>2026-05-01T07:24:01.262Z</time></trkpt><trkpt lat="45.487965" lon="8.8588217"><ele>146.0</ele><time>2026-05-01T07:24:02.262Z</time></trkpt><trkpt lat="45.4878167" lon="8.8584217"><ele>146.0</ele><time>2026-05-01T07:24:03.262Z</time></trkpt><trkpt lat="45.4876667" lon="8.858045"><ele>146.0</ele><time>2026-05-01T07:24:04.262Z</time></trkpt><trkpt lat="45.4875217" lon="8.8576633"><ele>146.0</ele><time>2026-05-01T07:24:05.262Z</time></trkpt><trkpt lat="45.48738" lon="8.85728"><ele>146.0</ele><time>2026-05-01T07:24:06.261Z</time></trkpt><trkpt lat="45.48724" lon="8.8569"><ele>147.0</ele><time>2026-05-01T07:24:07.262Z</time></trkpt><trkpt lat="45.4871083" lon="8.85651"><ele>148.0</ele><time>2026-05-01T07:24:08.262Z</time></trkpt><trkpt lat="45.4869783" lon="8.8561317"><ele>148.5</ele><time>2026-05-01T07:24:09.261Z</time></trkpt><trkpt lat="45.4868367" lon="8.8557633"><ele>149.0</ele><time>2026-05-01T07:24:10.262Z</time></trkpt><trkpt lat="45.4866883" lon="8.8554133"><ele>148.0</ele><time>2026-05-01T07:24:11.262Z</time></trkpt><trkpt lat="45.4865417" lon="8.8550583"><ele>147.0</ele><time>2026-05-01T07:24:12.261Z</time></trkpt><trkpt lat="45.4863983" lon="8.854695"><ele>147.0</ele><time>2026-05-01T07:24:13.262Z</time></trkpt><trkpt lat="45.4862683" lon="8.85432"><ele>147.0</ele><time>2026-05-01T07:24:14.261Z</time></trkpt><trkpt lat="45.4861417" lon="8.8539433"><ele>146.5</ele><time>2026-05-01T07:24:15.262Z</time></trkpt><trkpt lat="45.4860083" lon="8.8535717"><ele>146.0</ele><time>2026-05-01T07:24:16.262Z</time></trkpt><trkpt lat="45.4858667" lon="8.853185"><ele>146.0</ele><time>2026-05-01T07:24:17.262Z</time></trkpt><trkpt lat="45.4857283" lon="8.8528083"><ele>146.0</ele><time>2026-05-01T07:24:18.261Z</time></trkpt><trkpt lat="45.4855883" lon="8.85244"><ele>146.0</ele><time>2026-05-01T07:24:19.261Z</time></trkpt><trkpt lat="45.485455" lon="8.8520667"><ele>146.0</ele><time>2026-05-01T07:24:20.262Z</time></trkpt><trkpt lat="45.4853267" lon="8.8516933"><ele>144.5</ele><time>2026-05-01T07:24:21.262Z</time></trkpt><trkpt lat="45.4851867" lon="8.8513217"><ele>143.0</ele><time>2026-05-01T07:24:22.262Z</time></trkpt><trkpt lat="45.4850533" lon="8.850965"><ele>142.5</ele><time>2026-05-01T07:24:23.262Z</time></trkpt><trkpt lat="45.4849183" lon="8.8506017"><ele>142.0</ele><time>2026-05-01T07:24:24.262Z</time></trkpt><trkpt lat="45.484785" lon="8.8502317"><ele>142.5</ele><time>2026-05-01T07:24:25.262Z</time></trkpt><trkpt lat="45.4846533" lon="8.8498733"><ele>143.0</ele><time>2026-05-01T07:24:26.262Z</time></trkpt><trkpt lat="45.4845117" lon="8.84952"><ele>144.0</ele><time>2026-05-01T07:24:27.262Z</time></trkpt><trkpt lat="45.48438" lon="8.84916"><ele>145.0</ele><time>2026-05-01T07:24:28.262Z</time></trkpt><trkpt lat="45.4842533" lon="8.8487833"><ele>145.0</ele><time>2026-05-01T07:24:29.262Z</time></trkpt><trkpt lat="45.484125" lon="8.8484083"><ele>145.0</ele><time>2026-05-01T07:24:30.262Z</time></trkpt><trkpt lat="45.4839683" lon="8.848035"><ele>145.0</ele><time>2026-05-01T07:24:31.261Z</time></trkpt><trkpt lat="45.48384" lon="8.8476683"><ele>145.0</ele><time>2026-05-01T07:24:32.262Z</time></trkpt><trkpt lat="45.4837067" lon="8.8473083"><ele>144.0</ele><time>2026-05-01T07:24:33.262Z</time></trkpt><trkpt lat="45.48357" lon="8.8469467"><ele>143.0</ele><time>2026-05-01T07:24:34.262Z</time></trkpt><trkpt lat="45.4834317" lon="8.846575"><ele>143.0</ele><time>2026-05-01T07:24:35.261Z</time></trkpt><trkpt lat="45.4833083" lon="8.846215"><ele>143.0</ele><time>2026-05-01T07:24:36.261Z</time></trkpt><trkpt lat="45.4831733" lon="8.8458633"><ele>143.0</ele><time>2026-05-01T07:24:37.262Z</time></trkpt><trkpt lat="45.4830433" lon="8.845525"><ele>143.0</ele><time>2026-05-01T07:24:38.262Z</time></trkpt><trkpt lat="45.4829067" lon="8.84516"><ele>143.5</ele><time>2026-05-01T07:24:39.262Z</time></trkpt><trkpt lat="45.4827733" lon="8.8447867"><ele>144.0</ele><time>2026-05-01T07:24:40.262Z</time></trkpt><trkpt lat="45.4826333" lon="8.844415"><ele>144.5</ele><time>2026-05-01T07:24:41.262Z</time></trkpt><trkpt lat="45.48249" lon="8.84405"><ele>145.0</ele><time>2026-05-01T07:24:42.262Z</time></trkpt><trkpt lat="45.48236" lon="8.8436767"><ele>144.5</ele><time>2026-05-01T07:24:43.262Z</time></trkpt><trkpt lat="45.4822517" lon="8.8432917"><ele>144.0</ele><time>2026-05-01T07:24:44.262Z</time></trkpt><trkpt lat="45.482115" lon="8.8429183"><ele>144.5</ele><time>2026-05-01T07:24:45.261Z</time></trkpt><trkpt lat="45.4819867" lon="8.8425483"><ele>145.0</ele><time>2026-05-01T07:24:46.262Z</time></trkpt><trkpt lat="45.48186" lon="8.842165"><ele>144.0</ele><time>2026-05-01T07:24:47.262Z</time></trkpt><trkpt lat="45.481725" lon="8.8417783"><ele>143.0</ele><time>2026-05-01T07:24:48.262Z</time></trkpt><trkpt lat="45.4815933" lon="8.8413983"><ele>143.0</ele><time>2026-05-01T07:24:49.262Z</time></trkpt><trkpt lat="45.481455" lon="8.84102"><ele>143.0</ele><time>2026-05-01T07:24:50.261Z</time></trkpt><trkpt lat="45.4813117" lon="8.8406483"><ele>143.0</ele><time>2026-05-01T07:24:51.262Z</time></trkpt><trkpt lat="45.4811667" lon="8.8402833"><ele>143.0</ele><time>2026-05-01T07:24:52.261Z</time></trkpt><trkpt lat="45.481025" lon="8.839915"><ele>143.0</ele><time>2026-05-01T07:24:53.262Z</time></trkpt><trkpt lat="45.4809017" lon="8.83954"><ele>143.0</ele><time>2026-05-01T07:24:54.262Z</time></trkpt><trkpt lat="45.4807617" lon="8.83916"><ele>143.5</ele><time>2026-05-01T07:24:55.262Z</time></trkpt><trkpt lat="45.480625" lon="8.838785"><ele>144.0</ele><time>2026-05-01T07:24:56.262Z</time></trkpt><trkpt lat="45.480485" lon="8.8384167"><ele>143.5</ele><time>2026-05-01T07:24:57.262Z</time></trkpt><trkpt lat="45.480355" lon="8.8380467"><ele>143.0</ele><time>2026-05-01T07:24:58.262Z</time></trkpt><trkpt lat="45.4802117" lon="8.8376667"><ele>143.0</ele><time>2026-05-01T07:24:59.262Z</time></trkpt><trkpt lat="45.4800817" lon="8.8372983"><ele>143.0</ele><time>2026-05-01T07:25:00.262Z</time></trkpt><trkpt lat="45.4799333" lon="8.8369167"><ele>143.0</ele><time>2026-05-01T07:25:01.262Z</time></trkpt><trkpt lat="45.4797967" lon="8.8365533"><ele>143.0</ele><time>2026-05-01T07:25:02.262Z</time></trkpt><trkpt lat="45.4796483" lon="8.83617"><ele>142.5</ele><time>2026-05-01T07:25:03.262Z</time></trkpt><trkpt lat="45.4795083" lon="8.8357967"><ele>142.0</ele><time>2026-05-01T07:25:04.262Z</time></trkpt><trkpt lat="45.4793567" lon="8.835425"><ele>141.0</ele><time>2026-05-01T07:25:05.262Z</time></trkpt><trkpt lat="45.4792067" lon="8.8350633"><ele>140.0</ele><time>2026-05-01T07:25:06.261Z</time></trkpt><trkpt lat="45.4790567" lon="8.8346967"><ele>140.0</ele><time>2026-05-01T07:25:07.262Z</time></trkpt><trkpt lat="45.478905" lon="8.834335"><ele>140.0</ele><time>2026-05-01T07:25:08.262Z</time></trkpt><trkpt lat="45.478755" lon="8.83398"><ele>140.0</ele><time>2026-05-01T07:25:09.262Z</time></trkpt><trkpt lat="45.4786083" lon="8.833625"><ele>140.0</ele><time>2026-05-01T07:25:10.261Z</time></trkpt><trkpt lat="45.4784567" lon="8.83326"><ele>140.0</ele><time>2026-05-01T07:25:11.262Z</time></trkpt><trkpt lat="45.4783" lon="8.8329"><ele>140.0</ele><time>2026-05-01T07:25:12.262Z</time></trkpt><trkpt lat="45.4781383" lon="8.8325483"><ele>140.0</ele><time>2026-05-01T07:25:13.262Z</time></trkpt><trkpt lat="45.4779917" lon="8.8322"><ele>140.0</ele><time>2026-05-01T07:25:14.262Z</time></trkpt><trkpt lat="45.47784" lon="8.8318417"><ele>139.0</ele><time>2026-05-01T07:25:15.262Z</time></trkpt><trkpt lat="45.4776967" lon="8.831485"><ele>138.0</ele><time>2026-05-01T07:25:16.262Z</time></trkpt><trkpt lat="45.4775417" lon="8.8311233"><ele>138.5</ele><time>2026-05-01T07:25:17.262Z</time></trkpt><trkpt lat="45.47738" lon="8.8307583"><ele>139.0</ele><time>2026-05-01T07:25:18.262Z</time></trkpt><trkpt lat="45.4772133" lon="8.8303967"><ele>139.5</ele><time>2026-05-01T07:25:19.262Z</time></trkpt><trkpt lat="45.4770533" lon="8.83004"><ele>140.0</ele><time>2026-05-01T07:25:20.262Z</time></trkpt><trkpt lat="45.4768917" lon="8.8296733"><ele>141.0</ele><time>2026-05-01T07:25:21.261Z</time></trkpt><trkpt lat="45.476725" lon="8.8293067"><ele>142.0</ele><time>2026-05-01T07:25:22.262Z</time></trkpt><trkpt lat="45.4765667" lon="8.8289317"><ele>142.0</ele><time>2026-05-01T07:25:23.262Z</time></trkpt><trkpt lat="45.4764083" lon="8.8285483"><ele>142.0</ele><time>2026-05-01T07:25:24.262Z</time></trkpt><trkpt lat="45.4762467" lon="8.8281667"><ele>141.5</ele><time>2026-05-01T07:25:25.261Z</time></trkpt><trkpt lat="45.4760883" lon="8.827785"><ele>141.0</ele><time>2026-05-01T07:25:26.262Z</time></trkpt><trkpt lat="45.47593" lon="8.8274033"><ele>130.0</ele><time>2026-05-01T07:25:27.262Z</time></trkpt><trkpt lat="45.4744083" lon="8.824045"><ele>130.0</ele><time>2026-05-01T07:25:37.26Z</time></trkpt><trkpt lat="45.4742483" lon="8.8236517"><ele>130.0</ele><time>2026-05-01T07:25:38.259Z</time></trkpt><trkpt lat="45.4741033" lon="8.8232433"><ele>130.5</ele><time>2026-05-01T07:25:39.26Z</time></trkpt><trkpt lat="45.4739683" lon="8.8228233"><ele>131.0</ele><time>2026-05-01T07:25:40.26Z</time></trkpt><trkpt lat="45.47382" lon="8.8224517"><ele>128.0</ele><time>2026-05-01T07:25:41.26Z</time></trkpt><trkpt lat="45.4736767" lon="8.8220783"><ele>125.0</ele><time>2026-05-01T07:25:42.26Z</time></trkpt><trkpt lat="45.473535" lon="8.8217"><ele>124.5</ele><time>2026-05-01T07:25:43.259Z</time></trkpt><trkpt lat="45.4733967" lon="8.8213167"><ele>124.0</ele><time>2026-05-01T07:25:44.259Z</time></trkpt><trkpt lat="45.4732683" lon="8.8209217"><ele>123.5</ele><time>2026-05-01T07:25:45.26Z</time></trkpt><trkpt lat="45.47314" lon="8.820545"><ele>123.0</ele><time>2026-05-01T07:25:46.26Z</time></trkpt><trkpt lat="45.4730183" lon="8.8201617"><ele>122.5</ele><time>2026-05-01T07:25:47.26Z</time></trkpt><trkpt lat="45.4728933" lon="8.8197767"><ele>122.0</ele><time>2026-05-01T07:25:48.26Z</time></trkpt><trkpt lat="45.4727733" lon="8.8193867"><ele>122.5</ele><time>2026-05-01T07:25:49.26Z</time></trkpt><trkpt lat="45.472665" lon="8.8190033"><ele>123.0</ele><time>2026-05-01T07:25:50.26Z</time></trkpt><trkpt lat="45.4725333" lon="8.818625"><ele>123.0</ele><time>2026-05-01T07:25:51.259Z</time></trkpt><trkpt lat="45.4724217" lon="8.81825"><ele>123.0</ele><time>2026-05-01T07:25:52.26Z</time></trkpt><trkpt lat="45.4723133" lon="8.81786"><ele>123.5</ele><time>2026-05-01T07:25:53.26Z</time></trkpt><trkpt lat="45.4721933" lon="8.8174617"><ele>124.0</ele><time>2026-05-01T07:25:54.26Z</time></trkpt><trkpt lat="45.4720817" lon="8.8170667"><ele>123.5</ele><time>2026-05-01T07:25:55.26Z</time></trkpt><trkpt lat="45.4719667" lon="8.8166667"><ele>123.0</ele><time>2026-05-01T07:25:56.259Z</time></trkpt><trkpt lat="45.4718517" lon="8.8162567"><ele>123.0</ele><time>2026-05-01T07:25:57.26Z</time></trkpt><trkpt lat="45.47175" lon="8.815845"><ele>123.0</ele><time>2026-05-01T07:25:58.26Z</time></trkpt><trkpt lat="45.4716567" lon="8.815455"><ele>123.0</ele><time>2026-05-01T07:25:59.26Z</time></trkpt><trkpt lat="45.4715533" lon="8.815055"><ele>123.0</ele><time>2026-05-01T07:26:00.26Z</time></trkpt><trkpt lat="45.47146" lon="8.81465"><ele>123.0</ele><time>2026-05-01T07:26:01.26Z</time></trkpt><trkpt lat="45.47137" lon="8.8142317"><ele>123.0</ele><time>2026-05-01T07:26:02.26Z</time></trkpt><trkpt lat="45.4712883" lon="8.8138233"><ele>122.5</ele><time>2026-05-01T07:26:03.26Z</time></trkpt><trkpt lat="45.4712067" lon="8.8134133"><ele>122.0</ele><time>2026-05-01T07:26:04.26Z</time></trkpt><trkpt lat="45.47113" lon="8.8130083"><ele>121.0</ele><time>2026-05-01T07:26:05.259Z</time></trkpt><trkpt lat="45.4710433" lon="8.8125917"><ele>120.0</ele><time>2026-05-01T07:26:06.26Z</time></trkpt><trkpt lat="45.4709817" lon="8.8121683"><ele>118.5</ele><time>2026-05-01T07:26:07.26Z</time></trkpt><trkpt lat="45.4709117" lon="8.81175"><ele>117.0</ele><time>2026-05-01T07:26:08.26Z</time></trkpt><trkpt lat="45.4708367" lon="8.8113333"><ele>115.5</ele><time>2026-05-01T07:26:09.259Z</time></trkpt><trkpt lat="45.470775" lon="8.81091"><ele>114.0</ele><time>2026-05-01T07:26:10.259Z</time></trkpt><trkpt lat="45.4707083" lon="8.8104933"><ele>114.0</ele><time>2026-05-01T07:26:11.26Z</time></trkpt><trkpt lat="45.4706467" lon="8.8100683"><ele>114.0</ele><time>2026-05-01T07:26:12.26Z</time></trkpt><trkpt lat="45.4705917" lon="8.8096383"><ele>115.0</ele><time>2026-05-01T07:26:13.26Z</time></trkpt><trkpt lat="45.470525" lon="8.8092133"><ele>116.0</ele><time>2026-05-01T07:26:14.26Z</time></trkpt><trkpt lat="45.470475" lon="8.8087967"><ele>116.5</ele><time>2026-05-01T07:26:15.26Z</time></trkpt><trkpt lat="45.47043" lon="8.808385"><ele>117.0</ele><time>2026-05-01T07:26:16.26Z</time></trkpt><trkpt lat="45.470385" lon="8.80796"><ele>116.0</ele><time>2026-05-01T07:26:17.26Z</time></trkpt><trkpt lat="45.47034" lon="8.80754"><ele>115.0</ele><time>2026-05-01T07:26:18.26Z</time></trkpt><trkpt lat="45.4703017" lon="8.8071233"><ele>114.5</ele><time>2026-05-01T07:26:19.26Z</time></trkpt><trkpt lat="45.4702717" lon="8.8067083"><ele>114.0</ele><time>2026-05-01T07:26:20.26Z</time></trkpt><trkpt lat="45.4702433" lon="8.806285"><ele>114.0</ele><time>2026-05-01T07:26:21.259Z</time></trkpt><trkpt lat="45.4702267" lon="8.80585"><ele>114.0</ele><time>2026-05-01T07:26:22.26Z</time></trkpt><trkpt lat="45.4702017" lon="8.8054167"><ele>113.5</ele><time>2026-05-01T07:26:23.26Z</time></trkpt><trkpt lat="45.47018" lon="8.8049833"><ele>113.0</ele><time>2026-05-01T07:26:24.26Z</time></trkpt><trkpt lat="45.4701567" lon="8.804575"><ele>114.5</ele><time>2026-05-01T07:26:25.26Z</time></trkpt><trkpt lat="45.4701333" lon="8.8041533"><ele>116.0</ele><time>2026-05-01T07:26:26.259Z</time></trkpt><trkpt lat="45.4701083" lon="8.8037383"><ele>118.5</ele><time>2026-05-01T07:26:27.26Z</time></trkpt><trkpt lat="45.4701067" lon="8.8033217"><ele>121.0</ele><time>2026-05-01T07:26:28.26Z</time></trkpt><trkpt lat="45.4700867" lon="8.8029067"><ele>121.5</ele><time>2026-05-01T07:26:29.26Z</time></trkpt><trkpt lat="45.47008" lon="8.8024933"><ele>122.0</ele><time>2026-05-01T07:26:30.26Z</time></trkpt><trkpt lat="45.4700733" lon="8.8020817"><ele>122.0</ele><time>2026-05-01T07:26:31.26Z</time></trkpt><trkpt lat="45.4700633" lon="8.8016667"><ele>122.0</ele><time>2026-05-01T07:26:32.26Z</time></trkpt><trkpt lat="45.4700583" lon="8.8012567"><ele>120.0</ele><time>2026-05-01T07:26:33.26Z</time></trkpt><trkpt lat="45.4700417" lon="8.8008233"><ele>118.0</ele><time>2026-05-01T07:26:34.26Z</time></trkpt><trkpt lat="45.4700317" lon="8.8003917"><ele>118.5</ele><time>2026-05-01T07:26:35.26Z</time></trkpt><trkpt lat="45.4700133" lon="8.79996"><ele>119.0</ele><time>2026-05-01T07:26:36.26Z</time></trkpt><trkpt lat="45.4700017" lon="8.79952"><ele>120.5</ele><time>2026-05-01T07:26:37.26Z</time></trkpt><trkpt lat="45.4699867" lon="8.799085"><ele>122.0</ele><time>2026-05-01T07:26:38.26Z</time></trkpt><trkpt lat="45.4699733" lon="8.7986567"><ele>122.0</ele><time>2026-05-01T07:26:39.259Z</time></trkpt><trkpt lat="45.4699633" lon="8.7982367"><ele>122.0</ele><time>2026-05-01T07:26:40.26Z</time></trkpt><trkpt lat="45.4699533" lon="8.79782"><ele>122.5</ele><time>2026-05-01T07:26:41.26Z</time></trkpt><trkpt lat="45.4699533" lon="8.7973967"><ele>123.0</ele><time>2026-05-01T07:26:42.26Z</time></trkpt><trkpt lat="45.4699467" lon="8.79698"><ele>122.5</ele><time>2026-05-01T07:26:43.26Z</time></trkpt><trkpt lat="45.4699283" lon="8.7965683"><ele>122.0</ele><time>2026-05-01T07:26:44.26Z</time></trkpt><trkpt lat="45.4699167" lon="8.7961533"><ele>121.0</ele><time>2026-05-01T07:26:45.26Z</time></trkpt><trkpt lat="45.4699067" lon="8.795735"><ele>120.0</ele><time>2026-05-01T07:26:46.26Z</time></trkpt><trkpt lat="45.4698933" lon="8.7953033"><ele>119.0</ele><time>2026-05-01T07:26:47.259Z</time></trkpt><trkpt lat="45.4698783" lon="8.7948767"><ele>118.0</ele><time>2026-05-01T07:26:48.259Z</time></trkpt><trkpt lat="45.4698667" lon="8.7944433"><ele>117.5</ele><time>2026-05-01T07:26:49.259Z</time></trkpt><trkpt lat="45.4698433" lon="8.7940167"><ele>117.0</ele><time>2026-05-01T07:26:50.26Z</time></trkpt><trkpt lat="45.46983" lon="8.7935883"><ele>117.5</ele><time>2026-05-01T07:26:51.26Z</time></trkpt><trkpt lat="45.4698217" lon="8.7931583"><ele>118.0</ele><time>2026-05-01T07:26:52.26Z</time></trkpt><trkpt lat="45.4698117" lon="8.7927383"><ele>117.0</ele><time>2026-05-01T07:26:53.26Z</time></trkpt><trkpt lat="45.4698" lon="8.7923183"><ele>116.0</ele><time>2026-05-01T07:26:54.26Z</time></trkpt><trkpt lat="45.4697817" lon="8.791895"><ele>114.5</ele><time>2026-05-01T07:26:55.259Z</time></trkpt><trkpt lat="45.4697683" lon="8.791475"><ele>113.0</ele><time>2026-05-01T07:26:56.26Z</time></trkpt><trkpt lat="45.4697583" lon="8.7910633"><ele>113.0</ele><time>2026-05-01T07:26:57.26Z</time></trkpt><trkpt lat="45.4697383" lon="8.7906483"><ele>113.0</ele><time>2026-05-01T07:26:58.26Z</time></trkpt><trkpt lat="45.4697283" lon="8.7902333"><ele>112.5</ele><time>2026-05-01T07:26:59.259Z</time></trkpt><trkpt lat="45.469715" lon="8.7898117"><ele>112.0</ele><time>2026-05-01T07:27:00.26Z</time></trkpt><trkpt lat="45.469705" lon="8.7893817"><ele>113.0</ele><time>2026-05-01T07:27:01.26Z</time></trkpt><trkpt lat="45.4696867" lon="8.788965"><ele>114.0</ele><time>2026-05-01T07:27:02.259Z</time></trkpt><trkpt lat="45.469675" lon="8.7885533"><ele>115.5</ele><time>2026-05-01T07:27:03.259Z</time></trkpt><trkpt lat="45.4696567" lon="8.78814"><ele>117.0</ele><time>2026-05-01T07:27:04.26Z</time></trkpt><trkpt lat="45.4696417" lon="8.787725"><ele>118.5</ele><time>2026-05-01T07:27:05.26Z</time></trkpt><trkpt lat="45.4696233" lon="8.78731"><ele>120.0</ele><time>2026-05-01T07:27:06.26Z</time></trkpt><trkpt lat="45.4695983" lon="8.78688"><ele>121.0</ele><time>2026-05-01T07:27:07.26Z</time></trkpt><trkpt lat="45.469585" lon="8.7864567"><ele>122.0</ele><time>2026-05-01T07:27:08.259Z</time></trkpt><trkpt lat="45.469565" lon="8.7860217"><ele>121.5</ele><time>2026-05-01T07:27:09.26Z</time></trkpt><trkpt lat="45.4695567" lon="8.7855933"><ele>121.0</ele><time>2026-05-01T07:27:10.259Z</time></trkpt><trkpt lat="45.4695433" lon="8.785165"><ele>120.5</ele><time>2026-05-01T07:27:11.259Z</time></trkpt><trkpt lat="45.4695167" lon="8.784735"><ele>120.0</ele><time>2026-05-01T07:27:12.26Z</time></trkpt><trkpt lat="45.4695" lon="8.7843133"><ele>119.5</ele><time>2026-05-01T07:27:13.26Z</time></trkpt><trkpt lat="45.469465" lon="8.7838883"><ele>119.0</ele><time>2026-05-01T07:27:14.26Z</time></trkpt><trkpt lat="45.4694333" lon="8.7834567"><ele>119.0</ele><time>2026-05-01T07:27:15.26Z</time></trkpt><trkpt lat="45.4693983" lon="8.7830383"><ele>119.0</ele><time>2026-05-01T07:27:16.26Z</time></trkpt><trkpt lat="45.4693617" lon="8.7826183"><ele>117.5</ele><time>2026-05-01T07:27:17.26Z</time></trkpt><trkpt lat="45.469325" lon="8.7821917"><ele>116.0</ele><time>2026-05-01T07:27:18.26Z</time></trkpt><trkpt lat="45.4692883" lon="8.7817683"><ele>115.5</ele><time>2026-05-01T07:27:19.26Z</time></trkpt><trkpt lat="45.46926" lon="8.7813483"><ele>115.0</ele><time>2026-05-01T07:27:20.259Z</time></trkpt><trkpt lat="45.4692317" lon="8.7809367"><ele>116.0</ele><time>2026-05-01T07:27:21.26Z</time></trkpt><trkpt lat="45.4692033" lon="8.7805117"><ele>117.0</ele><time>2026-05-01T07:27:22.26Z</time></trkpt><trkpt lat="45.4691717" lon="8.780095"><ele>117.0</ele><time>2026-05-01T07:27:23.26Z</time></trkpt><trkpt lat="45.469145" lon="8.7796817"><ele>117.0</ele><time>2026-05-01T07:27:24.26Z</time></trkpt><trkpt lat="45.4691067" lon="8.779275"><ele>117.0</ele><time>2026-05-01T07:27:25.26Z</time></trkpt><trkpt lat="45.4690683" lon="8.7788633"><ele>117.0</ele><time>2026-05-01T07:27:26.26Z</time></trkpt><trkpt lat="45.46902" lon="8.778465"><ele>117.0</ele><time>2026-05-01T07:27:27.259Z</time></trkpt><trkpt lat="45.4689783" lon="8.7780683"><ele>117.0</ele><time>2026-05-01T07:27:28.26Z</time></trkpt><trkpt lat="45.4689367" lon="8.777675"><ele>118.0</ele><time>2026-05-01T07:27:29.259Z</time></trkpt><trkpt lat="45.4688967" lon="8.7772783"><ele>119.0</ele><time>2026-05-01T07:27:30.26Z</time></trkpt><trkpt lat="45.468855" lon="8.7768617"><ele>118.5</ele><time>2026-05-01T07:27:31.26Z</time></trkpt><trkpt lat="45.468815" lon="8.776445"><ele>118.0</ele><time>2026-05-01T07:27:32.259Z</time></trkpt><trkpt lat="45.4687867" lon="8.7760167"><ele>118.0</ele><time>2026-05-01T07:27:33.26Z</time></trkpt><trkpt lat="45.4687533" lon="8.7755783"><ele>118.0</ele><time>2026-05-01T07:27:34.259Z</time></trkpt><trkpt lat="45.4687133" lon="8.7751483"><ele>118.5</ele><time>2026-05-01T07:27:35.259Z</time></trkpt><trkpt lat="45.468675" lon="8.774715"><ele>119.0</ele><time>2026-05-01T07:27:36.26Z</time></trkpt><trkpt lat="45.4686333" lon="8.774285"><ele>119.0</ele><time>2026-05-01T07:27:37.259Z</time></trkpt><trkpt lat="45.46859" lon="8.7738617"><ele>119.0</ele><time>2026-05-01T07:27:38.26Z</time></trkpt><trkpt lat="45.4685633" lon="8.7734417"><ele>120.5</ele><time>2026-05-01T07:27:39.26Z</time></trkpt><trkpt lat="45.468525" lon="8.7730333"><ele>122.0</ele><time>2026-05-01T07:27:40.26Z</time></trkpt><trkpt lat="45.4684883" lon="8.772625"><ele>122.0</ele><time>2026-05-01T07:27:41.26Z</time></trkpt><trkpt lat="45.4684433" lon="8.7722117"><ele>122.0</ele><time>2026-05-01T07:27:42.26Z</time></trkpt><trkpt lat="45.4684017" lon="8.7717967"><ele>122.0</ele><time>2026-05-01T07:27:43.26Z</time></trkpt><trkpt lat="45.4683683" lon="8.7713817"><ele>122.0</ele><time>2026-05-01T07:27:44.26Z</time></trkpt><trkpt lat="45.4683383" lon="8.7709667"><ele>122.0</ele><time>2026-05-01T07:27:45.26Z</time></trkpt><trkpt lat="45.468305" lon="8.7705433"><ele>122.0</ele><time>2026-05-01T07:27:46.259Z</time></trkpt><trkpt lat="45.468265" lon="8.770125"><ele>123.5</ele><time>2026-05-01T07:27:47.26Z</time></trkpt><trkpt lat="45.4682317" lon="8.7697117"><ele>125.0</ele><time>2026-05-01T07:27:48.259Z</time></trkpt><trkpt lat="45.4682033" lon="8.7692967"><ele>125.0</ele><time>2026-05-01T07:27:49.259Z</time></trkpt><trkpt lat="45.4681667" lon="8.7688683"><ele>125.0</ele><time>2026-05-01T07:27:50.259Z</time></trkpt><trkpt lat="45.46813" lon="8.76844"><ele>124.5</ele><time>2026-05-01T07:27:51.259Z</time></trkpt><trkpt lat="45.4681033" lon="8.76802"><ele>124.0</ele><time>2026-05-01T07:27:52.259Z</time></trkpt><trkpt lat="45.4680767" lon="8.7676033"><ele>126.0</ele><time>2026-05-01T07:27:53.259Z</time></trkpt><trkpt lat="45.4680533" lon="8.7671983"><ele>128.0</ele><time>2026-05-01T07:27:54.26Z</time></trkpt><trkpt lat="45.4680267" lon="8.7667783"><ele>131.0</ele><time>2026-05-01T07:27:55.26Z</time></trkpt><trkpt lat="45.4680033" lon="8.7663467"><ele>134.0</ele><time>2026-05-01T07:27:56.259Z</time></trkpt><trkpt lat="45.4679783" lon="8.765925"><ele>135.5</ele><time>2026-05-01T07:27:57.259Z</time></trkpt><trkpt lat="45.467945" lon="8.7655067"><ele>137.0</ele><time>2026-05-01T07:27:58.26Z</time></trkpt><trkpt lat="45.46791" lon="8.7650833"><ele>137.0</ele><time>2026-05-01T07:27:59.26Z</time></trkpt><trkpt lat="45.4678817" lon="8.76467"><ele>137.0</ele><time>2026-05-01T07:28:00.26Z</time></trkpt><trkpt lat="45.4678617" lon="8.7642467"><ele>136.5</ele><time>2026-05-01T07:28:01.26Z</time></trkpt><trkpt lat="45.4678433" lon="8.763825"><ele>136.0</ele><time>2026-05-01T07:28:02.26Z</time></trkpt><trkpt lat="45.4678167" lon="8.763415"><ele>136.0</ele><time>2026-05-01T07:28:03.259Z</time></trkpt><trkpt lat="45.4678017" lon="8.7629883"><ele>136.0</ele><time>2026-05-01T07:28:04.26Z</time></trkpt><trkpt lat="45.4677817" lon="8.762565"><ele>136.5</ele><time>2026-05-01T07:28:05.26Z</time></trkpt><trkpt lat="45.46776" lon="8.7621533"><ele>137.0</ele><time>2026-05-01T07:28:06.259Z</time></trkpt><trkpt lat="45.4677283" lon="8.761735"><ele>137.5</ele><time>2026-05-01T07:28:07.259Z</time></trkpt><trkpt lat="45.4677067" lon="8.7613117"><ele>138.0</ele><time>2026-05-01T07:28:08.259Z</time></trkpt><trkpt lat="45.4676833" lon="8.76089"><ele>138.5</ele><time>2026-05-01T07:28:09.26Z</time></trkpt><trkpt lat="45.4676617" lon="8.7604617"><ele>139.0</ele><time>2026-05-01T07:28:10.26Z</time></trkpt><trkpt lat="45.4676383" lon="8.7600383"><ele>139.0</ele><time>2026-05-01T07:28:11.26Z</time></trkpt><trkpt lat="45.4676167" lon="8.7596133"><ele>139.0</ele><time>2026-05-01T07:28:12.259Z</time></trkpt><trkpt lat="45.467595" lon="8.7591833"><ele>139.0</ele><time>2026-05-01T07:28:13.26Z</time></trkpt><trkpt lat="45.4675783" lon="8.7587533"><ele>139.0</ele><time>2026-05-01T07:28:14.259Z</time></trkpt><trkpt lat="45.4675683" lon="8.7583183"><ele>139.0</ele><time>2026-05-01T07:28:15.259Z</time></trkpt><trkpt lat="45.4675567" lon="8.7578767"><ele>139.0</ele><time>2026-05-01T07:28:16.259Z</time></trkpt><trkpt lat="45.4675433" lon="8.757435"><ele>139.5</ele><time>2026-05-01T07:28:17.259Z</time></trkpt><trkpt lat="45.4675283" lon="8.7569983"><ele>140.0</ele><time>2026-05-01T07:28:18.26Z</time></trkpt><trkpt lat="45.4674983" lon="8.756575"><ele>140.5</ele><time>2026-05-01T07:28:19.26Z</time></trkpt><trkpt lat="45.4674817" lon="8.75616"><ele>141.0</ele><time>2026-05-01T07:28:20.26Z</time></trkpt><trkpt lat="45.4674667" lon="8.7557517"><ele>141.0</ele><time>2026-05-01T07:28:21.26Z</time></trkpt><trkpt lat="45.46745" lon="8.75534"><ele>141.0</ele><time>2026-05-01T07:28:22.259Z</time></trkpt><trkpt lat="45.4674283" lon="8.7549233"><ele>140.5</ele><time>2026-05-01T07:28:23.26Z</time></trkpt><trkpt lat="45.4674117" lon="8.754515"><ele>140.0</ele><time>2026-05-01T07:28:24.26Z</time></trkpt><trkpt lat="45.467405" lon="8.7541083"><ele>140.0</ele><time>2026-05-01T07:28:25.259Z</time></trkpt><trkpt lat="45.4674067" lon="8.7536983"><ele>140.0</ele><time>2026-05-01T07:28:26.259Z</time></trkpt><trkpt lat="45.4674017" lon="8.7533083"><ele>140.5</ele><time>2026-05-01T07:28:27.26Z</time></trkpt><trkpt lat="45.4673883" lon="8.7529133"><ele>141.0</ele><time>2026-05-01T07:28:28.26Z</time></trkpt><trkpt lat="45.4673767" lon="8.75251"><ele>141.0</ele><time>2026-05-01T07:28:29.259Z</time></trkpt><trkpt lat="45.4673667" lon="8.7521083"><ele>141.0</ele><time>2026-05-01T07:28:30.26Z</time></trkpt><trkpt lat="45.46736" lon="8.7516883"><ele>141.0</ele><time>2026-05-01T07:28:31.26Z</time></trkpt><trkpt lat="45.4673517" lon="8.7512733"><ele>141.0</ele><time>2026-05-01T07:28:32.26Z</time></trkpt><trkpt lat="45.46735" lon="8.7508517"><ele>141.5</ele><time>2026-05-01T07:28:33.26Z</time></trkpt><trkpt lat="45.4673417" lon="8.7504233"><ele>142.0</ele><time>2026-05-01T07:28:34.26Z</time></trkpt><trkpt lat="45.4673367" lon="8.7499833"><ele>142.0</ele><time>2026-05-01T07:28:35.26Z</time></trkpt><trkpt lat="45.467325" lon="8.7495283"><ele>142.0</ele><time>2026-05-01T07:28:36.259Z</time></trkpt><trkpt lat="45.4673167" lon="8.7490633"><ele>142.5</ele><time>2026-05-01T07:28:37.26Z</time></trkpt><trkpt lat="45.4673217" lon="8.7486017"><ele>143.0</ele><time>2026-05-01T07:28:38.26Z</time></trkpt><trkpt lat="45.4673283" lon="8.7481283"><ele>144.0</ele><time>2026-05-01T07:28:39.26Z</time></trkpt><trkpt lat="45.467325" lon="8.7476617"><ele>145.0</ele><time>2026-05-01T07:28:40.26Z</time></trkpt><trkpt lat="45.4673367" lon="8.747205"><ele>144.5</ele><time>2026-05-01T07:28:41.26Z</time></trkpt><trkpt lat="45.4673383" lon="8.7467383"><ele>144.0</ele><time>2026-05-01T07:28:42.26Z</time></trkpt><trkpt lat="45.4673483" lon="8.7462667"><ele>143.5</ele><time>2026-05-01T07:28:43.259Z</time></trkpt><trkpt lat="45.4673483" lon="8.7458083"><ele>143.0</ele><time>2026-05-01T07:28:44.259Z</time></trkpt><trkpt lat="45.4673433" lon="8.7453267"><ele>143.0</ele><time>2026-05-01T07:28:45.26Z</time></trkpt><trkpt lat="45.4673533" lon="8.7448533"><ele>143.0</ele><time>2026-05-01T07:28:46.259Z</time></trkpt><trkpt lat="45.4673633" lon="8.7443767"><ele>143.0</ele><time>2026-05-01T07:28:47.259Z</time></trkpt><trkpt lat="45.4673717" lon="8.7439033"><ele>143.0</ele><time>2026-05-01T07:28:48.26Z</time></trkpt><trkpt lat="45.4673733" lon="8.743425"><ele>143.0</ele><time>2026-05-01T07:28:49.26Z</time></trkpt><trkpt lat="45.46739" lon="8.7429517"><ele>143.0</ele><time>2026-05-01T07:28:50.259Z</time></trkpt><trkpt lat="45.467405" lon="8.7424733"><ele>144.0</ele><time>2026-05-01T07:28:51.26Z</time></trkpt><trkpt lat="45.4674333" lon="8.7420083"><ele>145.0</ele><time>2026-05-01T07:28:52.259Z</time></trkpt><trkpt lat="45.4674617" lon="8.7415383"><ele>145.0</ele><time>2026-05-01T07:28:53.259Z</time></trkpt><trkpt lat="45.4674717" lon="8.7410817"><ele>145.0</ele><time>2026-05-01T07:28:54.26Z</time></trkpt><trkpt lat="45.467495" lon="8.7406367"><ele>145.0</ele><time>2026-05-01T07:28:55.259Z</time></trkpt><trkpt lat="45.4675017" lon="8.74021"><ele>145.0</ele><time>2026-05-01T07:28:56.26Z</time></trkpt><trkpt lat="45.4675167" lon="8.7397867"><ele>144.0</ele><time>2026-05-01T07:28:57.26Z</time></trkpt><trkpt lat="45.467515" lon="8.7393783"><ele>143.0</ele><time>2026-05-01T07:28:58.26Z</time></trkpt><trkpt lat="45.4675067" lon="8.738955"><ele>142.5</ele><time>2026-05-01T07:28:59.26Z</time></trkpt><trkpt lat="45.4675083" lon="8.7385383"><ele>142.0</ele><time>2026-05-01T07:29:00.26Z</time></trkpt><trkpt lat="45.4675183" lon="8.7381367"><ele>142.0</ele><time>2026-05-01T07:29:01.26Z</time></trkpt><trkpt lat="45.4675267" lon="8.7377433"><ele>142.0</ele><time>2026-05-01T07:29:02.26Z</time></trkpt><trkpt lat="45.4675367" lon="8.7373433"><ele>142.5</ele><time>2026-05-01T07:29:03.259Z</time></trkpt><trkpt lat="45.4675367" lon="8.73694"><ele>143.0</ele><time>2026-05-01T07:29:04.259Z</time></trkpt><trkpt lat="45.4675317" lon="8.73652"><ele>144.5</ele><time>2026-05-01T07:29:05.26Z</time></trkpt><trkpt lat="45.4675317" lon="8.7361"><ele>146.0</ele><time>2026-05-01T07:29:06.26Z</time></trkpt><trkpt lat="45.467535" lon="8.7356783"><ele>146.5</ele><time>2026-05-01T07:29:07.26Z</time></trkpt><trkpt lat="45.4675433" lon="8.7352517"><ele>147.0</ele><time>2026-05-01T07:29:08.259Z</time></trkpt><trkpt lat="45.467555" lon="8.7348183"><ele>146.5</ele><time>2026-05-01T07:29:09.259Z</time></trkpt><trkpt lat="45.4675583" lon="8.7343833"><ele>146.0</ele><time>2026-05-01T07:29:10.259Z</time></trkpt><trkpt lat="45.4675667" lon="8.7339583"><ele>145.5</ele><time>2026-05-01T07:29:11.26Z</time></trkpt><trkpt lat="45.4675833" lon="8.7335283"><ele>145.0</ele><time>2026-05-01T07:29:12.26Z</time></trkpt><trkpt lat="45.4675933" lon="8.73309"><ele>144.5</ele><time>2026-05-01T07:29:13.26Z</time></trkpt><trkpt lat="45.4676" lon="8.7326517"><ele>144.0</ele><time>2026-05-01T07:29:14.26Z</time></trkpt><trkpt lat="45.4675983" lon="8.73221"><ele>144.5</ele><time>2026-05-01T07:29:15.259Z</time></trkpt><trkpt lat="45.4676033" lon="8.731775"><ele>145.0</ele><time>2026-05-01T07:29:16.26Z</time></trkpt><trkpt lat="45.4676" lon="8.7313383"><ele>146.0</ele><time>2026-05-01T07:29:17.259Z</time></trkpt><trkpt lat="45.4676133" lon="8.7309033"><ele>147.0</ele><time>2026-05-01T07:29:18.259Z</time></trkpt><trkpt lat="45.46763" lon="8.7304783"><ele>146.5</ele><time>2026-05-01T07:29:19.26Z</time></trkpt><trkpt lat="45.46764" lon="8.7300533"><ele>146.0</ele><time>2026-05-01T07:29:20.26Z</time></trkpt><trkpt lat="45.467645" lon="8.7296317"><ele>145.0</ele><time>2026-05-01T07:29:21.26Z</time></trkpt><trkpt lat="45.4676617" lon="8.7292067"><ele>144.0</ele><time>2026-05-01T07:29:22.26Z</time></trkpt><trkpt lat="45.4676767" lon="8.7287817"><ele>144.0</ele><time>2026-05-01T07:29:23.26Z</time></trkpt><trkpt lat="45.4676833" lon="8.7283617"><ele>144.0</ele><time>2026-05-01T07:29:24.26Z</time></trkpt><trkpt lat="45.467695" lon="8.7279467"><ele>144.0</ele><time>2026-05-01T07:29:25.259Z</time></trkpt><trkpt lat="45.4677033" lon="8.7275267"><ele>144.0</ele><time>2026-05-01T07:29:26.26Z</time></trkpt><trkpt lat="45.4677067" lon="8.7271067"><ele>144.0</ele><time>2026-05-01T07:29:27.26Z</time></trkpt><trkpt lat="45.4677133" lon="8.72669"><ele>144.0</ele><time>2026-05-01T07:29:28.259Z</time></trkpt><trkpt lat="45.4677167" lon="8.7262767"><ele>144.0</ele><time>2026-05-01T07:29:29.26Z</time></trkpt><trkpt lat="45.4677183" lon="8.7258617"><ele>144.0</ele><time>2026-05-01T07:29:30.259Z</time></trkpt><trkpt lat="45.4677183" lon="8.7254567"><ele>144.5</ele><time>2026-05-01T07:29:31.26Z</time></trkpt><trkpt lat="45.4677183" lon="8.72505"><ele>145.0</ele><time>2026-05-01T07:29:32.26Z</time></trkpt><trkpt lat="45.4677217" lon="8.7246483"><ele>145.0</ele><time>2026-05-01T07:29:33.259Z</time></trkpt><trkpt lat="45.46773" lon="8.724245"><ele>145.0</ele><time>2026-05-01T07:29:34.26Z</time></trkpt><trkpt lat="45.467735" lon="8.7238267"><ele>145.5</ele><time>2026-05-01T07:29:35.26Z</time></trkpt><trkpt lat="45.4677467" lon="8.7234033"><ele>146.0</ele><time>2026-05-01T07:29:36.26Z</time></trkpt><trkpt lat="45.4677567" lon="8.7229783"><ele>146.5</ele><time>2026-05-01T07:29:37.26Z</time></trkpt><trkpt lat="45.467765" lon="8.7225483"><ele>147.0</ele><time>2026-05-01T07:29:38.26Z</time></trkpt><trkpt lat="45.4677717" lon="8.7221233"><ele>147.0</ele><time>2026-05-01T07:29:39.26Z</time></trkpt><trkpt lat="45.4677833" lon="8.7216833"><ele>147.0</ele><time>2026-05-01T07:29:40.26Z</time></trkpt><trkpt lat="45.46779" lon="8.7212433"><ele>146.5</ele><time>2026-05-01T07:29:41.26Z</time></trkpt><trkpt lat="45.467795" lon="8.72078"><ele>146.0</ele><time>2026-05-01T07:29:42.259Z</time></trkpt><trkpt lat="45.4678067" lon="8.7203367"><ele>146.5</ele><time>2026-05-01T07:29:43.26Z</time></trkpt><trkpt lat="45.467815" lon="8.7198867"><ele>147.0</ele><time>2026-05-01T07:29:44.26Z</time></trkpt><trkpt lat="45.4678217" lon="8.7194567"><ele>146.0</ele><time>2026-05-01T07:29:45.26Z</time></trkpt><trkpt lat="45.4678333" lon="8.7190317"><ele>145.0</ele><time>2026-05-01T07:29:46.26Z</time></trkpt><trkpt lat="45.4678383" lon="8.7186167"><ele>145.0</ele><time>2026-05-01T07:29:47.26Z</time></trkpt><trkpt lat="45.4678433" lon="8.7182"><ele>145.0</ele><time>2026-05-01T07:29:48.26Z</time></trkpt><trkpt lat="45.4678533" lon="8.71778"><ele>145.0</ele><time>2026-05-01T07:29:49.259Z</time></trkpt><trkpt lat="45.4678583" lon="8.7173633"><ele>145.0</ele><time>2026-05-01T07:29:50.26Z</time></trkpt><trkpt lat="45.467865" lon="8.71695"><ele>145.0</ele><time>2026-05-01T07:29:51.26Z</time></trkpt><trkpt lat="45.467875" lon="8.716525"><ele>145.0</ele><time>2026-05-01T07:29:52.259Z</time></trkpt><trkpt lat="45.467875" lon="8.7161"><ele>145.0</ele><time>2026-05-01T07:29:53.26Z</time></trkpt><trkpt lat="45.4678717" lon="8.71568"><ele>145.0</ele><time>2026-05-01T07:29:54.26Z</time></trkpt><trkpt lat="45.4678767" lon="8.715255"><ele>145.0</ele><time>2026-05-01T07:29:55.259Z</time></trkpt><trkpt lat="45.4678933" lon="8.7148217"><ele>145.0</ele><time>2026-05-01T07:29:56.26Z</time></trkpt><trkpt lat="45.4679067" lon="8.7143983"><ele>145.5</ele><time>2026-05-01T07:29:57.26Z</time></trkpt><trkpt lat="45.4679383" lon="8.7139817"><ele>146.0</ele><time>2026-05-01T07:29:58.259Z</time></trkpt><trkpt lat="45.4679617" lon="8.7135583"><ele>146.0</ele><time>2026-05-01T07:29:59.26Z</time></trkpt><trkpt lat="45.4679667" lon="8.7131317"><ele>146.0</ele><time>2026-05-01T07:30:00.26Z</time></trkpt><trkpt lat="45.4679567" lon="8.7127267"><ele>146.0</ele><time>2026-05-01T07:30:01.26Z</time></trkpt><trkpt lat="45.4679667" lon="8.71232"><ele>146.0</ele><time>2026-05-01T07:30:02.26Z</time></trkpt><trkpt lat="45.46798" lon="8.71192"><ele>146.0</ele><time>2026-05-01T07:30:03.259Z</time></trkpt><trkpt lat="45.4679867" lon="8.711485"><ele>146.0</ele><time>2026-05-01T07:30:04.259Z</time></trkpt><trkpt lat="45.4679933" lon="8.711055"><ele>147.0</ele><time>2026-05-01T07:30:05.259Z</time></trkpt><trkpt lat="45.468" lon="8.7106283"><ele>148.0</ele><time>2026-05-01T07:30:06.26Z</time></trkpt><trkpt lat="45.468" lon="8.71021"><ele>149.0</ele><time>2026-05-01T07:30:07.259Z</time></trkpt><trkpt lat="45.4679967" lon="8.7097783"><ele>150.0</ele><time>2026-05-01T07:30:08.26Z</time></trkpt><trkpt lat="45.4680017" lon="8.7093567"><ele>150.5</ele><time>2026-05-01T07:30:09.26Z</time></trkpt><trkpt lat="45.4680083" lon="8.7089267"><ele>151.0</ele><time>2026-05-01T07:30:10.259Z</time></trkpt><trkpt lat="45.4680183" lon="8.7085017"><ele>151.0</ele><time>2026-05-01T07:30:11.26Z</time></trkpt><trkpt lat="45.4680283" lon="8.7080817"><ele>151.0</ele><time>2026-05-01T07:30:12.26Z</time></trkpt><trkpt lat="45.4680317" lon="8.7076617"><ele>150.0</ele><time>2026-05-01T07:30:13.259Z</time></trkpt><trkpt lat="45.46806" lon="8.70723"><ele>149.0</ele><time>2026-05-01T07:30:14.26Z</time></trkpt><trkpt lat="45.4680567" lon="8.7068217"><ele>148.0</ele><time>2026-05-01T07:30:15.26Z</time></trkpt><trkpt lat="45.46806" lon="8.7064083"><ele>147.0</ele><time>2026-05-01T07:30:16.26Z</time></trkpt><trkpt lat="45.4680717" lon="8.7059833"><ele>146.5</ele><time>2026-05-01T07:30:17.26Z</time></trkpt><trkpt lat="45.4680867" lon="8.7055617"><ele>146.0</ele><time>2026-05-01T07:30:18.26Z</time></trkpt><trkpt lat="45.4680933" lon="8.7051417"><ele>146.0</ele><time>2026-05-01T07:30:19.26Z</time></trkpt><trkpt lat="45.468095" lon="8.7047067"><ele>146.0</ele><time>2026-05-01T07:30:20.26Z</time></trkpt><trkpt lat="45.4680917" lon="8.70428"><ele>147.5</ele><time>2026-05-01T07:30:21.26Z</time></trkpt><trkpt lat="45.468095" lon="8.7038667"><ele>149.0</ele><time>2026-05-01T07:30:22.26Z</time></trkpt><trkpt lat="45.4681083" lon="8.703455"><ele>149.0</ele><time>2026-05-01T07:30:23.259Z</time></trkpt><trkpt lat="45.468115" lon="8.7030317"><ele>149.0</ele><time>2026-05-01T07:30:24.259Z</time></trkpt><trkpt lat="45.4681267" lon="8.7026"><ele>149.0</ele><time>2026-05-01T07:30:25.26Z</time></trkpt><trkpt lat="45.4681317" lon="8.7021817"><ele>149.0</ele><time>2026-05-01T07:30:26.259Z</time></trkpt><trkpt lat="45.4681367" lon="8.7017617"><ele>148.0</ele><time>2026-05-01T07:30:27.26Z</time></trkpt><trkpt lat="45.46814" lon="8.701335"><ele>147.0</ele><time>2026-05-01T07:30:28.259Z</time></trkpt><trkpt lat="45.4681433" lon="8.7009067"><ele>146.5</ele><time>2026-05-01T07:30:29.259Z</time></trkpt><trkpt lat="45.4681533" lon="8.7004833"><ele>146.0</ele><time>2026-05-01T07:30:30.26Z</time></trkpt><trkpt lat="45.4681633" lon="8.7000533"><ele>146.0</ele><time>2026-05-01T07:30:31.259Z</time></trkpt><trkpt lat="45.4681583" lon="8.6996267"><ele>146.0</ele><time>2026-05-01T07:30:32.26Z</time></trkpt><trkpt lat="45.4681683" lon="8.6992"><ele>146.5</ele><time>2026-05-01T07:30:33.259Z</time></trkpt><trkpt lat="45.4681683" lon="8.6987833"><ele>147.0</ele><time>2026-05-01T07:30:34.26Z</time></trkpt><trkpt lat="45.4681817" lon="8.6983567"><ele>147.0</ele><time>2026-05-01T07:30:35.26Z</time></trkpt><trkpt lat="45.468185" lon="8.697935"><ele>147.0</ele><time>2026-05-01T07:30:36.26Z</time></trkpt><trkpt lat="45.4682" lon="8.6975117"><ele>147.0</ele><time>2026-05-01T07:30:37.259Z</time></trkpt><trkpt lat="45.4682033" lon="8.69709"><ele>147.0</ele><time>2026-05-01T07:30:38.259Z</time></trkpt><trkpt lat="45.4682017" lon="8.69667"><ele>147.0</ele><time>2026-05-01T07:30:39.259Z</time></trkpt><trkpt lat="45.468205" lon="8.69624"><ele>147.0</ele><time>2026-05-01T07:30:40.26Z</time></trkpt><trkpt lat="45.4682167" lon="8.6958167"><ele>146.5</ele><time>2026-05-01T07:30:41.259Z</time></trkpt><trkpt lat="45.46822" lon="8.6953733"><ele>146.0</ele><time>2026-05-01T07:30:42.26Z</time></trkpt><trkpt lat="45.4682267" lon="8.6949467"><ele>146.0</ele><time>2026-05-01T07:30:43.26Z</time></trkpt><trkpt lat="45.4682283" lon="8.694525"><ele>146.0</ele><time>2026-05-01T07:30:44.259Z</time></trkpt><trkpt lat="45.46824" lon="8.6941117"><ele>147.0</ele><time>2026-05-01T07:30:45.259Z</time></trkpt><trkpt lat="45.468255" lon="8.6937133"><ele>148.0</ele><time>2026-05-01T07:30:46.259Z</time></trkpt><trkpt lat="45.46826" lon="8.6933183"><ele>148.0</ele><time>2026-05-01T07:30:47.259Z</time></trkpt><trkpt lat="45.4682567" lon="8.6929067"><ele>148.0</ele><time>2026-05-01T07:30:48.26Z</time></trkpt><trkpt lat="45.4682633" lon="8.6925"><ele>147.5</ele><time>2026-05-01T07:30:49.26Z</time></trkpt><trkpt lat="45.4682767" lon="8.6920933"><ele>147.0</ele><time>2026-05-01T07:30:50.26Z</time></trkpt><trkpt lat="45.4682883" lon="8.6917033"><ele>147.0</ele><time>2026-05-01T07:30:51.26Z</time></trkpt><trkpt lat="45.468295" lon="8.6913117"><ele>147.0</ele><time>2026-05-01T07:30:52.26Z</time></trkpt><trkpt lat="45.4683067" lon="8.6909167"><ele>147.0</ele><time>2026-05-01T07:30:53.26Z</time></trkpt><trkpt lat="45.468315" lon="8.690525"><ele>147.0</ele><time>2026-05-01T07:30:54.259Z</time></trkpt><trkpt lat="45.468325" lon="8.69012"><ele>147.0</ele><time>2026-05-01T07:30:55.26Z</time></trkpt><trkpt lat="45.4683383" lon="8.6896983"><ele>147.0</ele><time>2026-05-01T07:30:56.26Z</time></trkpt><trkpt lat="45.4683433" lon="8.68928"><ele>147.0</ele><time>2026-05-01T07:30:57.26Z</time></trkpt><trkpt lat="45.4683583" lon="8.68885"><ele>147.0</ele><time>2026-05-01T07:30:58.26Z</time></trkpt><trkpt lat="45.4683633" lon="8.68842"><ele>147.0</ele><time>2026-05-01T07:30:59.26Z</time></trkpt><trkpt lat="45.46836" lon="8.6879967"><ele>147.0</ele><time>2026-05-01T07:31:00.26Z</time></trkpt><trkpt lat="45.468365" lon="8.68757"><ele>147.5</ele><time>2026-05-01T07:31:01.259Z</time></trkpt><trkpt lat="45.4683783" lon="8.6871317"><ele>148.0</ele><time>2026-05-01T07:31:02.259Z</time></trkpt><trkpt lat="45.46838" lon="8.6866883"><ele>148.5</ele><time>2026-05-01T07:31:03.26Z</time></trkpt><trkpt lat="45.4683917" lon="8.6862433"><ele>149.0</ele><time>2026-05-01T07:31:04.26Z</time></trkpt><trkpt lat="45.4684033" lon="8.6858"><ele>149.5</ele><time>2026-05-01T07:31:05.26Z</time></trkpt><trkpt lat="45.4684183" lon="8.6853283"><ele>150.0</ele><time>2026-05-01T07:31:06.26Z</time></trkpt><trkpt lat="45.46843" lon="8.6848683"><ele>150.0</ele><time>2026-05-01T07:31:07.259Z</time></trkpt><trkpt lat="45.468435" lon="8.684405"><ele>150.0</ele><time>2026-05-01T07:31:08.259Z</time></trkpt><trkpt lat="45.4684333" lon="8.683935"><ele>149.0</ele><time>2026-05-01T07:31:09.26Z</time></trkpt><trkpt lat="45.4684367" lon="8.6834633"><ele>148.0</ele><time>2026-05-01T07:31:10.26Z</time></trkpt><trkpt lat="45.4684417" lon="8.6829933"><ele>147.5</ele><time>2026-05-01T07:31:11.26Z</time></trkpt><trkpt lat="45.4684483" lon="8.68253"><ele>147.0</ele><time>2026-05-01T07:31:12.26Z</time></trkpt><trkpt lat="45.4684617" lon="8.6820533"><ele>147.0</ele><time>2026-05-01T07:31:13.26Z</time></trkpt><trkpt lat="45.4684717" lon="8.6815733"><ele>147.0</ele><time>2026-05-01T07:31:14.26Z</time></trkpt><trkpt lat="45.4684767" lon="8.6810933"><ele>149.5</ele><time>2026-05-01T07:31:15.26Z</time></trkpt><trkpt lat="45.468485" lon="8.6806417"><ele>152.0</ele><time>2026-05-01T07:31:16.26Z</time></trkpt><trkpt lat="45.4684933" lon="8.680205"><ele>151.5</ele><time>2026-05-01T07:31:17.26Z</time></trkpt><trkpt lat="45.468505" lon="8.67976"><ele>151.0</ele><time>2026-05-01T07:31:18.26Z</time></trkpt><trkpt lat="45.4685033" lon="8.6793233"><ele>151.0</ele><time>2026-05-01T07:31:19.26Z</time></trkpt><trkpt lat="45.4685067" lon="8.67889"><ele>151.0</ele><time>2026-05-01T07:31:20.259Z</time></trkpt><trkpt lat="45.46852" lon="8.6784717"><ele>150.0</ele><time>2026-05-01T07:31:21.26Z</time></trkpt><trkpt lat="45.46854" lon="8.678035"><ele>149.0</ele><time>2026-05-01T07:31:22.26Z</time></trkpt><trkpt lat="45.4685483" lon="8.6776083"><ele>149.0</ele><time>2026-05-01T07:31:23.26Z</time></trkpt><trkpt lat="45.4685533" lon="8.6771867"><ele>149.0</ele><time>2026-05-01T07:31:24.26Z</time></trkpt><trkpt lat="45.4685583" lon="8.6767683"><ele>149.0</ele><time>2026-05-01T07:31:25.26Z</time></trkpt><trkpt lat="45.4685567" lon="8.6763567"><ele>149.0</ele><time>2026-05-01T07:31:26.26Z</time></trkpt><trkpt lat="45.4685467" lon="8.675945"><ele>149.0</ele><time>2026-05-01T07:31:27.26Z</time></trkpt><trkpt lat="45.46854" lon="8.67553"><ele>149.0</ele><time>2026-05-01T07:31:28.26Z</time></trkpt><trkpt lat="45.46853" lon="8.675105"><ele>149.0</ele><time>2026-05-01T07:31:29.26Z</time></trkpt><trkpt lat="45.468525" lon="8.674675"><ele>149.0</ele><time>2026-05-01T07:31:30.259Z</time></trkpt><trkpt lat="45.46852" lon="8.67423"><ele>149.5</ele><time>2026-05-01T07:31:31.26Z</time></trkpt><trkpt lat="45.4685133" lon="8.6737817"><ele>150.0</ele><time>2026-05-01T07:31:32.259Z</time></trkpt><trkpt lat="45.4685217" lon="8.6733333"><ele>150.0</ele><time>2026-05-01T07:31:33.26Z</time></trkpt><trkpt lat="45.468535" lon="8.6728867"><ele>150.0</ele><time>2026-05-01T07:31:34.26Z</time></trkpt><trkpt lat="45.46854" lon="8.6724067"><ele>149.0</ele><time>2026-05-01T07:31:35.259Z</time></trkpt><trkpt lat="45.4685417" lon="8.671945"><ele>148.0</ele><time>2026-05-01T07:31:36.26Z</time></trkpt><trkpt lat="45.468545" lon="8.6714817"><ele>148.0</ele><time>2026-05-01T07:31:37.26Z</time></trkpt><trkpt lat="45.4685533" lon="8.6710267"><ele>148.0</ele><time>2026-05-01T07:31:38.259Z</time></trkpt><trkpt lat="45.46857" lon="8.6705483"><ele>148.0</ele><time>2026-05-01T07:31:39.26Z</time></trkpt><trkpt lat="45.4685833" lon="8.6700783"><ele>148.0</ele><time>2026-05-01T07:31:40.26Z</time></trkpt><trkpt lat="45.4685933" lon="8.6696067"><ele>147.5</ele><time>2026-05-01T07:31:41.26Z</time></trkpt><trkpt lat="45.4686017" lon="8.6691317"><ele>147.0</ele><time>2026-05-01T07:31:42.26Z</time></trkpt><trkpt lat="45.4686133" lon="8.6686517"><ele>147.0</ele><time>2026-05-01T07:31:43.26Z</time></trkpt><trkpt lat="45.46862" lon="8.6681633"><ele>147.0</ele><time>2026-05-01T07:31:44.26Z</time></trkpt><trkpt lat="45.4686233" lon="8.667675"><ele>147.0</ele><time>2026-05-01T07:31:45.26Z</time></trkpt><trkpt lat="45.4686183" lon="8.6671867"><ele>147.0</ele><time>2026-05-01T07:31:46.26Z</time></trkpt><trkpt lat="45.4686267" lon="8.6667033"><ele>147.0</ele><time>2026-05-01T07:31:47.26Z</time></trkpt><trkpt lat="45.4686383" lon="8.66624"><ele>147.0</ele><time>2026-05-01T07:31:48.26Z</time></trkpt><trkpt lat="45.4686467" lon="8.6657967"><ele>147.5</ele><time>2026-05-01T07:31:49.26Z</time></trkpt><trkpt lat="45.4686683" lon="8.665365"><ele>148.0</ele><time>2026-05-01T07:31:50.26Z</time></trkpt><trkpt lat="45.4686833" lon="8.6649333"><ele>148.0</ele><time>2026-05-01T07:31:51.26Z</time></trkpt><trkpt lat="45.4686983" lon="8.6645067"><ele>148.0</ele><time>2026-05-01T07:31:52.26Z</time></trkpt><trkpt lat="45.4687067" lon="8.6640833"><ele>148.5</ele><time>2026-05-01T07:31:53.259Z</time></trkpt><trkpt lat="45.4687217" lon="8.6636517"><ele>149.0</ele><time>2026-05-01T07:31:54.259Z</time></trkpt><trkpt lat="45.4687283" lon="8.66322"><ele>148.5</ele><time>2026-05-01T07:31:55.259Z</time></trkpt><trkpt lat="45.4687433" lon="8.6627783"><ele>148.0</ele><time>2026-05-01T07:31:56.26Z</time></trkpt><trkpt lat="45.468755" lon="8.6623417"><ele>149.5</ele><time>2026-05-01T07:31:57.26Z</time></trkpt><trkpt lat="45.4687633" lon="8.66191"><ele>151.0</ele><time>2026-05-01T07:31:58.26Z</time></trkpt><trkpt lat="45.4687683" lon="8.6614833"><ele>153.5</ele><time>2026-05-01T07:31:59.259Z</time></trkpt><trkpt lat="45.4687717" lon="8.661055"><ele>156.0</ele><time>2026-05-01T07:32:00.26Z</time></trkpt><trkpt lat="45.4687683" lon="8.6606367"><ele>154.0</ele><time>2026-05-01T07:32:01.26Z</time></trkpt><trkpt lat="45.4687767" lon="8.6602183"><ele>152.0</ele><time>2026-05-01T07:32:02.26Z</time></trkpt><trkpt lat="45.4687733" lon="8.659805"><ele>151.5</ele><time>2026-05-01T07:32:03.26Z</time></trkpt><trkpt lat="45.46878" lon="8.659375"><ele>151.0</ele><time>2026-05-01T07:32:04.26Z</time></trkpt><trkpt lat="45.4687967" lon="8.658945"><ele>150.5</ele><time>2026-05-01T07:32:05.26Z</time></trkpt><trkpt lat="45.4688167" lon="8.6585"><ele>150.0</ele><time>2026-05-01T07:32:06.26Z</time></trkpt><trkpt lat="45.468825" lon="8.6580717"><ele>150.0</ele><time>2026-05-01T07:32:07.259Z</time></trkpt><trkpt lat="45.4688233" lon="8.6576467"><ele>150.0</ele><time>2026-05-01T07:32:08.26Z</time></trkpt><trkpt lat="45.4688183" lon="8.6572267"><ele>150.0</ele><time>2026-05-01T07:32:09.26Z</time></trkpt><trkpt lat="45.4688217" lon="8.6568167"><ele>150.0</ele><time>2026-05-01T07:32:10.26Z</time></trkpt><trkpt lat="45.468825" lon="8.6563917"><ele>150.0</ele><time>2026-05-01T07:32:11.26Z</time></trkpt><trkpt lat="45.4688317" lon="8.6559683"><ele>150.0</ele><time>2026-05-01T07:32:12.26Z</time></trkpt><trkpt lat="45.4688417" lon="8.6555533"><ele>149.5</ele><time>2026-05-01T07:32:13.26Z</time></trkpt><trkpt lat="45.4688467" lon="8.6551267"><ele>149.0</ele><time>2026-05-01T07:32:14.26Z</time></trkpt><trkpt lat="45.4688533" lon="8.6546983"><ele>148.5</ele><time>2026-05-01T07:32:15.259Z</time></trkpt><trkpt lat="45.4688567" lon="8.6542667"><ele>148.0</ele><time>2026-05-01T07:32:16.26Z</time></trkpt><trkpt lat="45.4688633" lon="8.6538467"><ele>150.0</ele><time>2026-05-01T07:32:17.26Z</time></trkpt><trkpt lat="45.4688733" lon="8.65345"><ele>152.0</ele><time>2026-05-01T07:32:18.259Z</time></trkpt><trkpt lat="45.4688967" lon="8.6530167"><ele>152.5</ele><time>2026-05-01T07:32:19.259Z</time></trkpt><trkpt lat="45.4688917" lon="8.6525917"><ele>153.0</ele><time>2026-05-01T07:32:20.259Z</time></trkpt><trkpt lat="45.4689" lon="8.6522017"><ele>151.5</ele><time>2026-05-01T07:32:21.26Z</time></trkpt><trkpt lat="45.4689167" lon="8.651795"><ele>150.0</ele><time>2026-05-01T07:32:22.26Z</time></trkpt><trkpt lat="45.4689267" lon="8.651385"><ele>149.0</ele><time>2026-05-01T07:32:23.26Z</time></trkpt><trkpt lat="45.468935" lon="8.6509667"><ele>148.0</ele><time>2026-05-01T07:32:24.259Z</time></trkpt><trkpt lat="45.46895" lon="8.650555"><ele>150.0</ele><time>2026-05-01T07:32:25.261Z</time></trkpt><trkpt lat="45.46896" lon="8.6501333"><ele>152.0</ele><time>2026-05-01T07:32:26.26Z</time></trkpt><trkpt lat="45.4689767" lon="8.6497233"><ele>152.5</ele><time>2026-05-01T07:32:27.261Z</time></trkpt><trkpt lat="45.4689783" lon="8.6493083"><ele>153.0</ele><time>2026-05-01T07:32:28.261Z</time></trkpt><trkpt lat="45.46898" lon="8.6488783"><ele>152.0</ele><time>2026-05-01T07:32:29.261Z</time></trkpt><trkpt lat="45.4689933" lon="8.648475"><ele>151.0</ele><time>2026-05-01T07:32:30.261Z</time></trkpt><trkpt lat="45.4690017" lon="8.648065"><ele>151.5</ele><time>2026-05-01T07:32:31.261Z</time></trkpt><trkpt lat="45.4690167" lon="8.6476367"><ele>152.0</ele><time>2026-05-01T07:32:32.261Z</time></trkpt><trkpt lat="45.4690167" lon="8.6472233"><ele>153.0</ele><time>2026-05-01T07:32:33.261Z</time></trkpt><trkpt lat="45.4690233" lon="8.6468117"><ele>154.0</ele><time>2026-05-01T07:32:34.261Z</time></trkpt><trkpt lat="45.4690333" lon="8.6463983"><ele>154.0</ele><time>2026-05-01T07:32:35.26Z</time></trkpt><trkpt lat="45.4690417" lon="8.6459767"><ele>154.0</ele><time>2026-05-01T07:32:36.26Z</time></trkpt><trkpt lat="45.4690467" lon="8.645545"><ele>153.5</ele><time>2026-05-01T07:32:37.261Z</time></trkpt><trkpt lat="45.4690533" lon="8.6451017"><ele>153.0</ele><time>2026-05-01T07:32:38.26Z</time></trkpt><trkpt lat="45.469055" lon="8.6446517"><ele>153.0</ele><time>2026-05-01T07:32:39.261Z</time></trkpt><trkpt lat="45.46906" lon="8.6442"><ele>153.0</ele><time>2026-05-01T07:32:40.261Z</time></trkpt><trkpt lat="45.46906" lon="8.6437433"><ele>152.0</ele><time>2026-05-01T07:32:41.26Z</time></trkpt><trkpt lat="45.46906" lon="8.64329"><ele>151.0</ele><time>2026-05-01T07:32:42.261Z</time></trkpt><trkpt lat="45.4690617" lon="8.6428483"><ele>150.5</ele><time>2026-05-01T07:32:43.261Z</time></trkpt><trkpt lat="45.469075" lon="8.6424083"><ele>150.0</ele><time>2026-05-01T07:32:44.261Z</time></trkpt><trkpt lat="45.46909" lon="8.6419883"><ele>148.5</ele><time>2026-05-01T07:32:45.261Z</time></trkpt><trkpt lat="45.469095" lon="8.64157"><ele>147.0</ele><time>2026-05-01T07:32:46.26Z</time></trkpt><trkpt lat="45.4691067" lon="8.6411583"><ele>148.0</ele><time>2026-05-01T07:32:47.261Z</time></trkpt><trkpt lat="45.4691067" lon="8.6407533"><ele>149.0</ele><time>2026-05-01T07:32:48.261Z</time></trkpt><trkpt lat="45.4691083" lon="8.6403517"><ele>150.0</ele><time>2026-05-01T07:32:49.261Z</time></trkpt><trkpt lat="45.46911" lon="8.6399467"><ele>151.0</ele><time>2026-05-01T07:32:50.261Z</time></trkpt><trkpt lat="45.4691167" lon="8.63954"><ele>151.5</ele><time>2026-05-01T07:32:51.261Z</time></trkpt><trkpt lat="45.469135" lon="8.6391267"><ele>152.0</ele><time>2026-05-01T07:32:52.26Z</time></trkpt><trkpt lat="45.4691417" lon="8.63872"><ele>152.5</ele><time>2026-05-01T07:32:53.261Z</time></trkpt><trkpt lat="45.46915" lon="8.6383033"><ele>153.0</ele><time>2026-05-01T07:32:54.261Z</time></trkpt><trkpt lat="45.4691533" lon="8.63789"><ele>153.0</ele><time>2026-05-01T07:32:55.261Z</time></trkpt><trkpt lat="45.4691633" lon="8.63748"><ele>153.0</ele><time>2026-05-01T07:32:56.261Z</time></trkpt><trkpt lat="45.4691733" lon="8.637075"><ele>152.0</ele><time>2026-05-01T07:32:57.26Z</time></trkpt><trkpt lat="45.4691883" lon="8.6366617"><ele>151.0</ele><time>2026-05-01T07:32:58.261Z</time></trkpt><trkpt lat="45.469195" lon="8.6362533"><ele>151.0</ele><time>2026-05-01T07:32:59.261Z</time></trkpt><trkpt lat="45.4692017" lon="8.635845"><ele>151.0</ele><time>2026-05-01T07:33:00.261Z</time></trkpt><trkpt lat="45.46921" lon="8.63544"><ele>150.5</ele><time>2026-05-01T07:33:01.261Z</time></trkpt><trkpt lat="45.46922" lon="8.6350217"><ele>150.0</ele><time>2026-05-01T07:33:02.261Z</time></trkpt><trkpt lat="45.4692333" lon="8.63461"><ele>151.0</ele><time>2026-05-01T07:33:03.261Z</time></trkpt><trkpt lat="45.4692267" lon="8.63418"><ele>152.0</ele><time>2026-05-01T07:33:04.261Z</time></trkpt><trkpt lat="45.46924" lon="8.6337783"><ele>151.5</ele><time>2026-05-01T07:33:05.261Z</time></trkpt><trkpt lat="45.46926" lon="8.63337"><ele>151.0</ele><time>2026-05-01T07:33:06.261Z</time></trkpt><trkpt lat="45.4692733" lon="8.632965"><ele>151.0</ele><time>2026-05-01T07:33:07.261Z</time></trkpt><trkpt lat="45.46928" lon="8.63254"><ele>151.0</ele><time>2026-05-01T07:33:08.261Z</time></trkpt><trkpt lat="45.4693033" lon="8.6321183"><ele>150.5</ele><time>2026-05-01T07:33:09.261Z</time></trkpt><trkpt lat="45.4693283" lon="8.6317067"><ele>150.0</ele><time>2026-05-01T07:33:10.26Z</time></trkpt><trkpt lat="45.4693483" lon="8.6312883"><ele>151.0</ele><time>2026-05-01T07:33:11.26Z</time></trkpt><trkpt lat="45.4693683" lon="8.6308583"><ele>152.0</ele><time>2026-05-01T07:33:12.26Z</time></trkpt><trkpt lat="45.4693817" lon="8.6304383"><ele>153.0</ele><time>2026-05-01T07:33:13.261Z</time></trkpt><trkpt lat="45.4693933" lon="8.6300033"><ele>154.0</ele><time>2026-05-01T07:33:14.26Z</time></trkpt><trkpt lat="45.4694217" lon="8.62957"><ele>153.5</ele><time>2026-05-01T07:33:15.26Z</time></trkpt><trkpt lat="45.4694533" lon="8.62914"><ele>153.0</ele><time>2026-05-01T07:33:16.261Z</time></trkpt><trkpt lat="45.4694783" lon="8.6287117"><ele>153.5</ele><time>2026-05-01T07:33:17.26Z</time></trkpt><trkpt lat="45.469505" lon="8.6282867"><ele>154.0</ele><time>2026-05-01T07:33:18.26Z</time></trkpt><trkpt lat="45.4695317" lon="8.6278533"><ele>154.0</ele><time>2026-05-01T07:33:19.261Z</time></trkpt><trkpt lat="45.469565" lon="8.6274183"><ele>154.0</ele><time>2026-05-01T07:33:20.26Z</time></trkpt><trkpt lat="45.4696067" lon="8.6269883"><ele>154.0</ele><time>2026-05-01T07:33:21.261Z</time></trkpt><trkpt lat="45.469645" lon="8.6265583"><ele>154.0</ele><time>2026-05-01T07:33:22.26Z</time></trkpt><trkpt lat="45.4696883" lon="8.626135"><ele>155.5</ele><time>2026-05-01T07:33:23.261Z</time></trkpt><trkpt lat="45.469725" lon="8.6257067"><ele>157.0</ele><time>2026-05-01T07:33:24.261Z</time></trkpt><trkpt lat="45.46977" lon="8.6252883"><ele>157.0</ele><time>2026-05-01T07:33:25.26Z</time></trkpt><trkpt lat="45.4698117" lon="8.6248783"><ele>157.0</ele><time>2026-05-01T07:33:26.261Z</time></trkpt><trkpt lat="45.4698583" lon="8.624485"><ele>156.5</ele><time>2026-05-01T07:33:27.26Z</time></trkpt><trkpt lat="45.4698967" lon="8.6240733"><ele>156.0</ele><time>2026-05-01T07:33:28.26Z</time></trkpt><trkpt lat="45.4699333" lon="8.6236617"><ele>155.0</ele><time>2026-05-01T07:33:29.261Z</time></trkpt><trkpt lat="45.469975" lon="8.6232467"><ele>154.0</ele><time>2026-05-01T07:33:30.261Z</time></trkpt><trkpt lat="45.4700217" lon="8.6228267"><ele>154.0</ele><time>2026-05-01T07:33:31.261Z</time></trkpt><trkpt lat="45.47007" lon="8.6224083"><ele>154.0</ele><time>2026-05-01T07:33:32.26Z</time></trkpt><trkpt lat="45.4701217" lon="8.6219933"><ele>154.0</ele><time>2026-05-01T07:33:33.261Z</time></trkpt><trkpt lat="45.4701683" lon="8.6215717"><ele>154.0</ele><time>2026-05-01T07:33:34.261Z</time></trkpt><trkpt lat="45.4702117" lon="8.621155"><ele>155.0</ele><time>2026-05-01T07:33:35.261Z</time></trkpt><trkpt lat="45.4702617" lon="8.6207467"><ele>156.0</ele><time>2026-05-01T07:33:36.261Z</time></trkpt><trkpt lat="45.4703133" lon="8.6203483"><ele>155.0</ele><time>2026-05-01T07:33:37.261Z</time></trkpt><trkpt lat="45.4703683" lon="8.6199583"><ele>154.0</ele><time>2026-05-01T07:33:38.26Z</time></trkpt><trkpt lat="45.4704283" lon="8.61956"><ele>155.0</ele><time>2026-05-01T07:33:39.261Z</time></trkpt><trkpt lat="45.47048" lon="8.6191633"><ele>156.0</ele><time>2026-05-01T07:33:40.261Z</time></trkpt><trkpt lat="45.4705333" lon="8.618775"><ele>157.0</ele><time>2026-05-01T07:33:41.26Z</time></trkpt><trkpt lat="45.47058" lon="8.618385"><ele>158.0</ele><time>2026-05-01T07:33:42.261Z</time></trkpt><trkpt lat="45.4706617" lon="8.6179783"><ele>159.0</ele><time>2026-05-01T07:33:43.26Z</time></trkpt><trkpt lat="45.4707317" lon="8.6175583"><ele>160.0</ele><time>2026-05-01T07:33:44.261Z</time></trkpt><trkpt lat="45.4708067" lon="8.6171433"><ele>159.0</ele><time>2026-05-01T07:33:45.261Z</time></trkpt><trkpt lat="45.4708767" lon="8.6167333"><ele>158.0</ele><time>2026-05-01T07:33:46.26Z</time></trkpt><trkpt lat="45.470945" lon="8.6163217"><ele>158.5</ele><time>2026-05-01T07:33:47.261Z</time></trkpt><trkpt lat="45.4710217" lon="8.6159017"><ele>159.0</ele><time>2026-05-01T07:33:48.261Z</time></trkpt><trkpt lat="45.47109" lon="8.6154733"><ele>158.0</ele><time>2026-05-01T07:33:49.261Z</time></trkpt><trkpt lat="45.471155" lon="8.6150567"><ele>157.0</ele><time>2026-05-01T07:33:50.261Z</time></trkpt><trkpt lat="45.47121" lon="8.61464"><ele>156.5</ele><time>2026-05-01T07:33:51.26Z</time></trkpt><trkpt lat="45.4712733" lon="8.6142183"><ele>156.0</ele><time>2026-05-01T07:33:52.261Z</time></trkpt><trkpt lat="45.4713383" lon="8.6137933"><ele>156.0</ele><time>2026-05-01T07:33:53.261Z</time></trkpt><trkpt lat="45.4714017" lon="8.6133717"><ele>156.0</ele><time>2026-05-01T07:33:54.261Z</time></trkpt><trkpt lat="45.47147" lon="8.61295"><ele>156.0</ele><time>2026-05-01T07:33:55.26Z</time></trkpt><trkpt lat="45.4715367" lon="8.6125317"><ele>156.0</ele><time>2026-05-01T07:33:56.261Z</time></trkpt><trkpt lat="45.4715967" lon="8.612105"><ele>156.0</ele><time>2026-05-01T07:33:57.261Z</time></trkpt><trkpt lat="45.4716533" lon="8.6116783"><ele>156.0</ele><time>2026-05-01T07:33:58.261Z</time></trkpt><trkpt lat="45.4717067" lon="8.6112433"><ele>155.0</ele><time>2026-05-01T07:33:59.261Z</time></trkpt><trkpt lat="45.47177" lon="8.6107917"><ele>154.0</ele><time>2026-05-01T07:34:00.261Z</time></trkpt><trkpt lat="45.4718217" lon="8.6103317"><ele>153.0</ele><time>2026-05-01T07:34:01.261Z</time></trkpt><trkpt lat="45.4718833" lon="8.609875"><ele>152.0</ele><time>2026-05-01T07:34:02.261Z</time></trkpt><trkpt lat="45.471955" lon="8.60942"><ele>152.0</ele><time>2026-05-01T07:34:03.26Z</time></trkpt><trkpt lat="45.47203" lon="8.6089717"><ele>152.0</ele><time>2026-05-01T07:34:04.261Z</time></trkpt><trkpt lat="45.4721067" lon="8.6085217"><ele>154.5</ele><time>2026-05-01T07:34:05.261Z</time></trkpt><trkpt lat="45.4721833" lon="8.6080733"><ele>157.0</ele><time>2026-05-01T07:34:06.261Z</time></trkpt><trkpt lat="45.4722517" lon="8.60764"><ele>157.0</ele><time>2026-05-01T07:34:07.26Z</time></trkpt><trkpt lat="45.4723267" lon="8.60721"><ele>157.0</ele><time>2026-05-01T07:34:08.261Z</time></trkpt><trkpt lat="45.4723967" lon="8.606785"><ele>157.0</ele><time>2026-05-01T07:34:09.261Z</time></trkpt><trkpt lat="45.4724683" lon="8.606365"><ele>157.0</ele><time>2026-05-01T07:34:10.261Z</time></trkpt><trkpt lat="45.47254" lon="8.6059583"><ele>157.0</ele><time>2026-05-01T07:34:11.261Z</time></trkpt><trkpt lat="45.4726" lon="8.6055633"><ele>157.0</ele><time>2026-05-01T07:34:12.261Z</time></trkpt><trkpt lat="45.4726567" lon="8.60517"><ele>157.0</ele><time>2026-05-01T07:34:13.261Z</time></trkpt><trkpt lat="45.47271" lon="8.6047817"><ele>157.0</ele><time>2026-05-01T07:34:14.261Z</time></trkpt><trkpt lat="45.4727667" lon="8.6043883"><ele>156.5</ele><time>2026-05-01T07:34:15.261Z</time></trkpt><trkpt lat="45.47282" lon="8.6039917"><ele>156.0</ele><time>2026-05-01T07:34:16.261Z</time></trkpt><trkpt lat="45.4728833" lon="8.6035883"><ele>156.0</ele><time>2026-05-01T07:34:17.261Z</time></trkpt><trkpt lat="45.4729583" lon="8.6031717"><ele>156.0</ele><time>2026-05-01T07:34:18.26Z</time></trkpt><trkpt lat="45.4730283" lon="8.6027633"><ele>155.5</ele><time>2026-05-01T07:34:19.26Z</time></trkpt><trkpt lat="45.473095" lon="8.6023533"><ele>155.0</ele><time>2026-05-01T07:34:20.261Z</time></trkpt><trkpt lat="45.4731667" lon="8.601935"><ele>155.0</ele><time>2026-05-01T07:34:21.261Z</time></trkpt><trkpt lat="45.4732333" lon="8.60152"><ele>155.0</ele><time>2026-05-01T07:34:22.26Z</time></trkpt><trkpt lat="45.4733033" lon="8.6011017"><ele>156.0</ele><time>2026-05-01T07:34:23.26Z</time></trkpt><trkpt lat="45.47337" lon="8.6006883"><ele>157.0</ele><time>2026-05-01T07:34:24.261Z</time></trkpt><trkpt lat="45.4734367" lon="8.600275"><ele>157.0</ele><time>2026-05-01T07:34:25.261Z</time></trkpt><trkpt lat="45.473495" lon="8.5998583"><ele>157.0</ele><time>2026-05-01T07:34:26.26Z</time></trkpt><trkpt lat="45.473555" lon="8.5994533"><ele>157.0</ele><time>2026-05-01T07:34:27.261Z</time></trkpt><trkpt lat="45.4736133" lon="8.5990467"><ele>157.0</ele><time>2026-05-01T07:34:28.26Z</time></trkpt><trkpt lat="45.4736733" lon="8.5986567"><ele>156.5</ele><time>2026-05-01T07:34:29.26Z</time></trkpt><trkpt lat="45.473715" lon="8.5982533"><ele>156.0</ele><time>2026-05-01T07:34:30.26Z</time></trkpt><trkpt lat="45.4737633" lon="8.5978483"><ele>155.5</ele><time>2026-05-01T07:34:31.261Z</time></trkpt><trkpt lat="45.4738267" lon="8.597455"><ele>155.0</ele><time>2026-05-01T07:34:32.261Z</time></trkpt><trkpt lat="45.47389" lon="8.59705"><ele>155.0</ele><time>2026-05-01T07:34:33.261Z</time></trkpt><trkpt lat="45.47395" lon="8.5966617"><ele>155.0</ele><time>2026-05-01T07:34:34.261Z</time></trkpt><trkpt lat="45.4740083" lon="8.5962567"><ele>155.5</ele><time>2026-05-01T07:34:35.26Z</time></trkpt><trkpt lat="45.4740767" lon="8.5958483"><ele>156.0</ele><time>2026-05-01T07:34:36.26Z</time></trkpt><trkpt lat="45.47414" lon="8.59543"><ele>155.5</ele><time>2026-05-01T07:34:37.261Z</time></trkpt><trkpt lat="45.4742033" lon="8.5950133"><ele>155.0</ele><time>2026-05-01T07:34:38.261Z</time></trkpt><trkpt lat="45.4742633" lon="8.5945967"><ele>155.0</ele><time>2026-05-01T07:34:39.261Z</time></trkpt><trkpt lat="45.4743233" lon="8.594175"><ele>155.0</ele><time>2026-05-01T07:34:40.261Z</time></trkpt><trkpt lat="45.4743783" lon="8.593755"><ele>156.0</ele><time>2026-05-01T07:34:41.261Z</time></trkpt><trkpt lat="45.474435" lon="8.5933433"><ele>157.0</ele><time>2026-05-01T07:34:42.26Z</time></trkpt><trkpt lat="45.4744817" lon="8.5929367"><ele>158.0</ele><time>2026-05-01T07:34:43.261Z</time></trkpt><trkpt lat="45.474525" lon="8.5925283"><ele>159.0</ele><time>2026-05-01T07:34:44.261Z</time></trkpt><trkpt lat="45.4745733" lon="8.5921233"><ele>158.5</ele><time>2026-05-01T07:34:45.261Z</time></trkpt><trkpt lat="45.4746117" lon="8.59171"><ele>158.0</ele><time>2026-05-01T07:34:46.261Z</time></trkpt><trkpt lat="45.47465" lon="8.5912983"><ele>158.5</ele><time>2026-05-01T07:34:47.26Z</time></trkpt><trkpt lat="45.474685" lon="8.59087"><ele>159.0</ele><time>2026-05-01T07:34:48.26Z</time></trkpt><trkpt lat="45.4747233" lon="8.5904383"><ele>160.5</ele><time>2026-05-01T07:34:49.261Z</time></trkpt><trkpt lat="45.47476" lon="8.590005"><ele>162.0</ele><time>2026-05-01T07:34:50.261Z</time></trkpt><trkpt lat="45.4747967" lon="8.5895767"><ele>163.0</ele><time>2026-05-01T07:34:51.261Z</time></trkpt><trkpt lat="45.4748333" lon="8.589145"><ele>164.0</ele><time>2026-05-01T07:34:52.261Z</time></trkpt><trkpt lat="45.4748667" lon="8.5887133"><ele>163.0</ele><time>2026-05-01T07:34:53.261Z</time></trkpt><trkpt lat="45.4749017" lon="8.5882817"><ele>162.0</ele><time>2026-05-01T07:34:54.26Z</time></trkpt><trkpt lat="45.4749433" lon="8.5878467"><ele>161.0</ele><time>2026-05-01T07:34:55.26Z</time></trkpt><trkpt lat="45.4749683" lon="8.5874267"><ele>160.0</ele><time>2026-05-01T07:34:56.261Z</time></trkpt><trkpt lat="45.4749917" lon="8.587"><ele>159.5</ele><time>2026-05-01T07:34:57.261Z</time></trkpt><trkpt lat="45.4750117" lon="8.58657"><ele>159.0</ele><time>2026-05-01T07:34:58.261Z</time></trkpt><trkpt lat="45.4750367" lon="8.5861433"><ele>159.0</ele><time>2026-05-01T07:34:59.261Z</time></trkpt><trkpt lat="45.47505" lon="8.5857033"><ele>159.0</ele><time>2026-05-01T07:35:00.261Z</time></trkpt><trkpt lat="45.4750567" lon="8.5852733"><ele>159.5</ele><time>2026-05-01T07:35:01.26Z</time></trkpt><trkpt lat="45.4750683" lon="8.5848467"><ele>160.0</ele><time>2026-05-01T07:35:02.26Z</time></trkpt><trkpt lat="45.4750717" lon="8.5844283"><ele>160.0</ele><time>2026-05-01T07:35:03.261Z</time></trkpt><trkpt lat="45.4750483" lon="8.584005"><ele>160.0</ele><time>2026-05-01T07:35:04.261Z</time></trkpt><trkpt lat="45.4750333" lon="8.5835733"><ele>160.0</ele><time>2026-05-01T07:35:05.261Z</time></trkpt><trkpt lat="45.4750167" lon="8.583135"><ele>160.0</ele><time>2026-05-01T07:35:06.261Z</time></trkpt><trkpt lat="45.4750233" lon="8.5827017"><ele>160.0</ele><time>2026-05-01T07:35:07.261Z</time></trkpt><trkpt lat="45.4750233" lon="8.5822683"><ele>160.0</ele><time>2026-05-01T07:35:08.261Z</time></trkpt><trkpt lat="45.475025" lon="8.5818283"><ele>160.0</ele><time>2026-05-01T07:35:09.261Z</time></trkpt><trkpt lat="45.4750183" lon="8.5813883"><ele>160.0</ele><time>2026-05-01T07:35:10.26Z</time></trkpt><trkpt lat="45.4750133" lon="8.5809433"><ele>159.5</ele><time>2026-05-01T07:35:11.261Z</time></trkpt><trkpt lat="45.475005" lon="8.5805017"><ele>159.0</ele><time>2026-05-01T07:35:12.261Z</time></trkpt><trkpt lat="45.474995" lon="8.58006"><ele>160.0</ele><time>2026-05-01T07:35:13.261Z</time></trkpt><trkpt lat="45.4749833" lon="8.5796267"><ele>161.0</ele><time>2026-05-01T07:35:14.261Z</time></trkpt><trkpt lat="45.4749633" lon="8.5791917"><ele>159.0</ele><time>2026-05-01T07:35:15.261Z</time></trkpt><trkpt lat="45.4749483" lon="8.5787483"><ele>157.0</ele><time>2026-05-01T07:35:16.261Z</time></trkpt><trkpt lat="45.474935" lon="8.5783167"><ele>157.0</ele><time>2026-05-01T07:35:17.26Z</time></trkpt><trkpt lat="45.4749217" lon="8.5778933"><ele>157.0</ele><time>2026-05-01T07:35:18.261Z</time></trkpt><trkpt lat="45.4749133" lon="8.5774717"><ele>157.0</ele><time>2026-05-01T07:35:19.261Z</time></trkpt><trkpt lat="45.4749017" lon="8.5770533"><ele>157.0</ele><time>2026-05-01T07:35:20.261Z</time></trkpt><trkpt lat="45.474875" lon="8.5766317"><ele>156.5</ele><time>2026-05-01T07:35:21.26Z</time></trkpt><trkpt lat="45.4748533" lon="8.5762083"><ele>156.0</ele><time>2026-05-01T07:35:22.26Z</time></trkpt><trkpt lat="45.4748233" lon="8.5757833"><ele>156.0</ele><time>2026-05-01T07:35:23.261Z</time></trkpt><trkpt lat="45.4748" lon="8.5753517"><ele>156.0</ele><time>2026-05-01T07:35:24.26Z</time></trkpt><trkpt lat="45.4747783" lon="8.5749367"><ele>155.5</ele><time>2026-05-01T07:35:25.261Z</time></trkpt><trkpt lat="45.4747533" lon="8.5745083"><ele>155.0</ele><time>2026-05-01T07:35:26.261Z</time></trkpt><trkpt lat="45.4747283" lon="8.5740767"><ele>155.5</ele><time>2026-05-01T07:35:27.261Z</time></trkpt><trkpt lat="45.4747067" lon="8.573655"><ele>156.0</ele><time>2026-05-01T07:35:28.26Z</time></trkpt><trkpt lat="45.4746833" lon="8.5732367"><ele>156.0</ele><time>2026-05-01T07:35:29.261Z</time></trkpt><trkpt lat="45.4746583" lon="8.572825"><ele>156.0</ele><time>2026-05-01T07:35:30.26Z</time></trkpt><trkpt lat="45.4746283" lon="8.5724083"><ele>156.5</ele><time>2026-05-01T07:35:31.261Z</time></trkpt><trkpt lat="45.4746" lon="8.572"><ele>157.0</ele><time>2026-05-01T07:35:32.261Z</time></trkpt><trkpt lat="45.4745783" lon="8.5715767"><ele>157.0</ele><time>2026-05-01T07:35:33.261Z</time></trkpt><trkpt lat="45.4745517" lon="8.571155"><ele>157.0</ele><time>2026-05-01T07:35:34.261Z</time></trkpt><trkpt lat="45.4745083" lon="8.57072"><ele>157.5</ele><time>2026-05-01T07:35:35.261Z</time></trkpt><trkpt lat="45.47449" lon="8.5703"><ele>158.0</ele><time>2026-05-01T07:35:36.26Z</time></trkpt><trkpt lat="45.4744633" lon="8.5698733"><ele>158.0</ele><time>2026-05-01T07:35:37.261Z</time></trkpt><trkpt lat="45.4744417" lon="8.569445"><ele>158.0</ele><time>2026-05-01T07:35:38.26Z</time></trkpt><trkpt lat="45.4744017" lon="8.5690217"><ele>158.5</ele><time>2026-05-01T07:35:39.261Z</time></trkpt><trkpt lat="45.474365" lon="8.5686067"><ele>159.0</ele><time>2026-05-01T07:35:40.261Z</time></trkpt><trkpt lat="45.4743333" lon="8.5681917"><ele>159.5</ele><time>2026-05-01T07:35:41.261Z</time></trkpt><trkpt lat="45.4743083" lon="8.5677717"><ele>160.0</ele><time>2026-05-01T07:35:42.26Z</time></trkpt><trkpt lat="45.4742767" lon="8.567365"><ele>159.5</ele><time>2026-05-01T07:35:43.26Z</time></trkpt><trkpt lat="45.4742483" lon="8.56696"><ele>159.0</ele><time>2026-05-01T07:35:44.261Z</time></trkpt><trkpt lat="45.4742133" lon="8.5665567"><ele>158.0</ele><time>2026-05-01T07:35:45.261Z</time></trkpt><trkpt lat="45.4741817" lon="8.5661533"><ele>157.0</ele><time>2026-05-01T07:35:46.261Z</time></trkpt><trkpt lat="45.474145" lon="8.5657433"><ele>157.0</ele><time>2026-05-01T07:35:47.26Z</time></trkpt><trkpt lat="45.4741333" lon="8.56534"><ele>157.0</ele><time>2026-05-01T07:35:48.261Z</time></trkpt><trkpt lat="45.4740983" lon="8.56493"><ele>157.5</ele><time>2026-05-01T07:35:49.261Z</time></trkpt><trkpt lat="45.4740667" lon="8.5645183"><ele>158.0</ele><time>2026-05-01T07:35:50.261Z</time></trkpt><trkpt lat="45.47403" lon="8.564105"><ele>157.5</ele><time>2026-05-01T07:35:51.26Z</time></trkpt><trkpt lat="45.4739867" lon="8.563685"><ele>157.0</ele><time>2026-05-01T07:35:52.26Z</time></trkpt><trkpt lat="45.473945" lon="8.5632583"><ele>156.5</ele><time>2026-05-01T07:35:53.261Z</time></trkpt><trkpt lat="45.4738867" lon="8.5628283"><ele>156.0</ele><time>2026-05-01T07:35:54.261Z</time></trkpt><trkpt lat="45.4738417" lon="8.5624"><ele>156.5</ele><time>2026-05-01T07:35:55.261Z</time></trkpt><trkpt lat="45.4737967" lon="8.5619683"><ele>157.0</ele><time>2026-05-01T07:35:56.26Z</time></trkpt><trkpt lat="45.4737533" lon="8.56154"><ele>158.0</ele><time>2026-05-01T07:35:57.261Z</time></trkpt><trkpt lat="45.473715" lon="8.5611117"><ele>159.0</ele><time>2026-05-01T07:35:58.261Z</time></trkpt><trkpt lat="45.4736733" lon="8.5606933"><ele>158.0</ele><time>2026-05-01T07:35:59.261Z</time></trkpt><trkpt lat="45.4736367" lon="8.5602717"><ele>157.0</ele><time>2026-05-01T07:36:00.261Z</time></trkpt><trkpt lat="45.4735983" lon="8.55985"><ele>157.0</ele><time>2026-05-01T07:36:01.26Z</time></trkpt><trkpt lat="45.47356" lon="8.5594283"><ele>157.0</ele><time>2026-05-01T07:36:02.26Z</time></trkpt><trkpt lat="45.47353" lon="8.5589983"><ele>157.0</ele><time>2026-05-01T07:36:03.26Z</time></trkpt><trkpt lat="45.4734967" lon="8.5585633"><ele>157.0</ele><time>2026-05-01T07:36:04.26Z</time></trkpt><trkpt lat="45.4734483" lon="8.558125"><ele>157.0</ele><time>2026-05-01T07:36:05.26Z</time></trkpt><trkpt lat="45.4733967" lon="8.5576933"><ele>157.0</ele><time>2026-05-01T07:36:06.261Z</time></trkpt><trkpt lat="45.4733617" lon="8.55726"><ele>157.5</ele><time>2026-05-01T07:36:07.26Z</time></trkpt><trkpt lat="45.4733133" lon="8.5568317"><ele>158.0</ele><time>2026-05-01T07:36:08.261Z</time></trkpt><trkpt lat="45.4732717" lon="8.5564017"><ele>158.5</ele><time>2026-05-01T07:36:09.261Z</time></trkpt><trkpt lat="45.4732267" lon="8.5559717"><ele>159.0</ele><time>2026-05-01T07:36:10.26Z</time></trkpt><trkpt lat="45.4731783" lon="8.55555"><ele>160.0</ele><time>2026-05-01T07:36:11.26Z</time></trkpt><trkpt lat="45.4731483" lon="8.555125"><ele>161.0</ele><time>2026-05-01T07:36:12.261Z</time></trkpt><trkpt lat="45.4731217" lon="8.5546983"><ele>159.0</ele><time>2026-05-01T07:36:13.261Z</time></trkpt><trkpt lat="45.4730867" lon="8.5542783"><ele>157.0</ele><time>2026-05-01T07:36:14.261Z</time></trkpt><trkpt lat="45.4730633" lon="8.553845"><ele>156.5</ele><time>2026-05-01T07:36:15.26Z</time></trkpt><trkpt lat="45.473045" lon="8.5534183"><ele>156.0</ele><time>2026-05-01T07:36:16.26Z</time></trkpt><trkpt lat="45.47301" lon="8.5529933"><ele>156.5</ele><time>2026-05-01T07:36:17.261Z</time></trkpt><trkpt lat="45.472965" lon="8.5525617"><ele>157.0</ele><time>2026-05-01T07:36:18.261Z</time></trkpt><trkpt lat="45.4729283" lon="8.55214"><ele>157.5</ele><time>2026-05-01T07:36:19.261Z</time></trkpt><trkpt lat="45.4729083" lon="8.5517117"><ele>158.0</ele><time>2026-05-01T07:36:20.261Z</time></trkpt><trkpt lat="45.4728783" lon="8.5512917"><ele>157.5</ele><time>2026-05-01T07:36:21.261Z</time></trkpt><trkpt lat="45.4728467" lon="8.5508767"><ele>157.0</ele><time>2026-05-01T07:36:22.261Z</time></trkpt><trkpt lat="45.4728133" lon="8.5504667"><ele>157.5</ele><time>2026-05-01T07:36:23.261Z</time></trkpt><trkpt lat="45.4727767" lon="8.5500567"><ele>158.0</ele><time>2026-05-01T07:36:24.261Z</time></trkpt><trkpt lat="45.4727483" lon="8.549655"><ele>158.0</ele><time>2026-05-01T07:36:25.26Z</time></trkpt><trkpt lat="45.4727233" lon="8.5492517"><ele>158.0</ele><time>2026-05-01T07:36:26.261Z</time></trkpt><trkpt lat="45.4726933" lon="8.54884"><ele>157.5</ele><time>2026-05-01T07:36:27.261Z</time></trkpt><trkpt lat="45.4726683" lon="8.548435"><ele>157.0</ele><time>2026-05-01T07:36:28.26Z</time></trkpt><trkpt lat="45.4726367" lon="8.5480217"><ele>157.5</ele><time>2026-05-01T07:36:29.26Z</time></trkpt><trkpt lat="45.472605" lon="8.5475933"><ele>158.0</ele><time>2026-05-01T07:36:30.261Z</time></trkpt><trkpt lat="45.4725783" lon="8.54717"><ele>158.0</ele><time>2026-05-01T07:36:31.26Z</time></trkpt><trkpt lat="45.4725533" lon="8.546745"><ele>158.0</ele><time>2026-05-01T07:36:32.261Z</time></trkpt><trkpt lat="45.4725333" lon="8.5463183"><ele>158.5</ele><time>2026-05-01T07:36:33.261Z</time></trkpt><trkpt lat="45.4725017" lon="8.5458883"><ele>159.0</ele><time>2026-05-01T07:36:34.26Z</time></trkpt><trkpt lat="45.4724683" lon="8.545455"><ele>159.0</ele><time>2026-05-01T07:36:35.261Z</time></trkpt><trkpt lat="45.472445" lon="8.54504"><ele>159.0</ele><time>2026-05-01T07:36:36.261Z</time></trkpt><trkpt lat="45.472415" lon="8.5446167"><ele>159.0</ele><time>2026-05-01T07:36:37.261Z</time></trkpt><trkpt lat="45.47239" lon="8.5441983"><ele>159.0</ele><time>2026-05-01T07:36:38.261Z</time></trkpt><trkpt lat="45.4723583" lon="8.5437633"><ele>158.5</ele><time>2026-05-01T07:36:39.261Z</time></trkpt><trkpt lat="45.4723233" lon="8.5433367"><ele>158.0</ele><time>2026-05-01T07:36:40.26Z</time></trkpt><trkpt lat="45.47229" lon="8.5429067"><ele>158.0</ele><time>2026-05-01T07:36:41.261Z</time></trkpt><trkpt lat="45.4722583" lon="8.5424883"><ele>158.0</ele><time>2026-05-01T07:36:42.261Z</time></trkpt><trkpt lat="45.4722367" lon="8.5420567"><ele>158.0</ele><time>2026-05-01T07:36:43.261Z</time></trkpt><trkpt lat="45.4722083" lon="8.5416383"><ele>158.0</ele><time>2026-05-01T07:36:44.261Z</time></trkpt><trkpt lat="45.4721867" lon="8.5412333"><ele>159.0</ele><time>2026-05-01T07:36:45.26Z</time></trkpt><trkpt lat="45.4721633" lon="8.5408333"><ele>160.0</ele><time>2026-05-01T07:36:46.261Z</time></trkpt><trkpt lat="45.4721467" lon="8.5404167"><ele>159.5</ele><time>2026-05-01T07:36:47.26Z</time></trkpt><trkpt lat="45.4720983" lon="8.5399817"><ele>159.0</ele><time>2026-05-01T07:36:48.261Z</time></trkpt><trkpt lat="45.47208" lon="8.5395717"><ele>159.0</ele><time>2026-05-01T07:36:49.261Z</time></trkpt><trkpt lat="45.472055" lon="8.5391667"><ele>159.0</ele><time>2026-05-01T07:36:50.261Z</time></trkpt><trkpt lat="45.4720267" lon="8.5387533"><ele>158.5</ele><time>2026-05-01T07:36:51.26Z</time></trkpt><trkpt lat="45.472" lon="8.5383417"><ele>158.0</ele><time>2026-05-01T07:36:52.26Z</time></trkpt><trkpt lat="45.4719717" lon="8.5379233"><ele>157.5</ele><time>2026-05-01T07:36:53.26Z</time></trkpt><trkpt lat="45.4719417" lon="8.5375083"><ele>157.0</ele><time>2026-05-01T07:36:54.261Z</time></trkpt><trkpt lat="45.4719083" lon="8.5370817"><ele>157.5</ele><time>2026-05-01T07:36:55.261Z</time></trkpt><trkpt lat="45.4718733" lon="8.5366483"><ele>158.0</ele><time>2026-05-01T07:36:56.261Z</time></trkpt><trkpt lat="45.4718367" lon="8.53622"><ele>158.0</ele><time>2026-05-01T07:36:57.261Z</time></trkpt><trkpt lat="45.4718067" lon="8.5358017"><ele>158.0</ele><time>2026-05-01T07:36:58.261Z</time></trkpt><trkpt lat="45.4717717" lon="8.5353783"><ele>158.0</ele><time>2026-05-01T07:36:59.261Z</time></trkpt><trkpt lat="45.47175" lon="8.5349617"><ele>158.0</ele><time>2026-05-01T07:37:00.261Z</time></trkpt><trkpt lat="45.4717133" lon="8.5345433"><ele>157.5</ele><time>2026-05-01T07:37:01.261Z</time></trkpt><trkpt lat="45.471685" lon="8.534135"><ele>157.0</ele><time>2026-05-01T07:37:02.26Z</time></trkpt><trkpt lat="45.4716533" lon="8.5337183"><ele>157.0</ele><time>2026-05-01T07:37:03.261Z</time></trkpt><trkpt lat="45.471625" lon="8.533295"><ele>157.0</ele><time>2026-05-01T07:37:04.261Z</time></trkpt><trkpt lat="45.4715983" lon="8.5328717"><ele>158.0</ele><time>2026-05-01T07:37:05.26Z</time></trkpt><trkpt lat="45.471565" lon="8.5324517"><ele>159.0</ele><time>2026-05-01T07:37:06.261Z</time></trkpt><trkpt lat="45.47153" lon="8.5320383"><ele>159.0</ele><time>2026-05-01T07:37:07.261Z</time></trkpt><trkpt lat="45.471505" lon="8.5316167"><ele>159.0</ele><time>2026-05-01T07:37:08.261Z</time></trkpt><trkpt lat="45.4714833" lon="8.5311933"><ele>159.0</ele><time>2026-05-01T07:37:09.261Z</time></trkpt><trkpt lat="45.4714583" lon="8.5307767"><ele>159.0</ele><time>2026-05-01T07:37:10.261Z</time></trkpt><trkpt lat="45.4714317" lon="8.5303567"><ele>159.0</ele><time>2026-05-01T07:37:11.261Z</time></trkpt><trkpt lat="45.4714033" lon="8.5299333"><ele>159.0</ele><time>2026-05-01T07:37:12.26Z</time></trkpt><trkpt lat="45.471365" lon="8.5295117"><ele>159.0</ele><time>2026-05-01T07:37:13.261Z</time></trkpt><trkpt lat="45.471325" lon="8.5290883"><ele>159.0</ele><time>2026-05-01T07:37:14.261Z</time></trkpt><trkpt lat="45.4712933" lon="8.5286617"><ele>158.5</ele><time>2026-05-01T07:37:15.26Z</time></trkpt><trkpt lat="45.471265" lon="8.5282467"><ele>158.0</ele><time>2026-05-01T07:37:16.26Z</time></trkpt><trkpt lat="45.4712383" lon="8.5278333"><ele>158.0</ele><time>2026-05-01T07:37:17.261Z</time></trkpt><trkpt lat="45.4712133" lon="8.5274117"><ele>158.0</ele><time>2026-05-01T07:37:18.261Z</time></trkpt><trkpt lat="45.471195" lon="8.5269967"><ele>158.0</ele><time>2026-05-01T07:37:19.261Z</time></trkpt><trkpt lat="45.47117" lon="8.5265717"><ele>158.0</ele><time>2026-05-01T07:37:20.261Z</time></trkpt><trkpt lat="45.471145" lon="8.5261483"><ele>158.0</ele><time>2026-05-01T07:37:21.261Z</time></trkpt><trkpt lat="45.4711133" lon="8.5257283"><ele>158.0</ele><time>2026-05-01T07:37:22.261Z</time></trkpt><trkpt lat="45.4710833" lon="8.5253083"><ele>158.0</ele><time>2026-05-01T07:37:23.261Z</time></trkpt><trkpt lat="45.4710567" lon="8.52489"><ele>158.0</ele><time>2026-05-01T07:37:24.261Z</time></trkpt><trkpt lat="45.47103" lon="8.5244683"><ele>158.5</ele><time>2026-05-01T07:37:25.261Z</time></trkpt><trkpt lat="45.4710017" lon="8.5240433"><ele>159.0</ele><time>2026-05-01T07:37:26.261Z</time></trkpt><trkpt lat="45.4709633" lon="8.52361"><ele>160.0</ele><time>2026-05-01T07:37:27.261Z</time></trkpt><trkpt lat="45.4709233" lon="8.5231817"><ele>161.0</ele><time>2026-05-01T07:37:28.26Z</time></trkpt><trkpt lat="45.4708833" lon="8.5227533"><ele>161.0</ele><time>2026-05-01T07:37:29.26Z</time></trkpt><trkpt lat="45.4708517" lon="8.5223367"><ele>161.0</ele><time>2026-05-01T07:37:30.261Z</time></trkpt><trkpt lat="45.47083" lon="8.521915"><ele>161.0</ele><time>2026-05-01T07:37:31.26Z</time></trkpt><trkpt lat="45.4707967" lon="8.5215017"><ele>161.0</ele><time>2026-05-01T07:37:32.261Z</time></trkpt><trkpt lat="45.4707483" lon="8.521085"><ele>160.5</ele><time>2026-05-01T07:37:33.261Z</time></trkpt><trkpt lat="45.47071" lon="8.5206683"><ele>160.0</ele><time>2026-05-01T07:37:34.261Z</time></trkpt><trkpt lat="45.47067" lon="8.52026"><ele>159.5</ele><time>2026-05-01T07:37:35.261Z</time></trkpt><trkpt lat="45.4706433" lon="8.5198517"><ele>159.0</ele><time>2026-05-01T07:37:36.261Z</time></trkpt><trkpt lat="45.470615" lon="8.5194383"><ele>159.0</ele><time>2026-05-01T07:37:37.26Z</time></trkpt><trkpt lat="45.47058" lon="8.519015"><ele>159.0</ele><time>2026-05-01T07:37:38.261Z</time></trkpt><trkpt lat="45.4705467" lon="8.5185933"><ele>159.0</ele><time>2026-05-01T07:37:39.261Z</time></trkpt><trkpt lat="45.470515" lon="8.518175"><ele>159.0</ele><time>2026-05-01T07:37:40.261Z</time></trkpt><trkpt lat="45.47048" lon="8.5177583"><ele>158.5</ele><time>2026-05-01T07:37:41.261Z</time></trkpt><trkpt lat="45.470445" lon="8.5173383"><ele>158.0</ele><time>2026-05-01T07:37:42.261Z</time></trkpt><trkpt lat="45.4704117" lon="8.5169183"><ele>158.5</ele><time>2026-05-01T07:37:43.261Z</time></trkpt><trkpt lat="45.470375" lon="8.5164933"><ele>159.0</ele><time>2026-05-01T07:37:44.261Z</time></trkpt><trkpt lat="45.47035" lon="8.5160767"><ele>159.0</ele><time>2026-05-01T07:37:45.261Z</time></trkpt><trkpt lat="45.470325" lon="8.5156533"><ele>159.0</ele><time>2026-05-01T07:37:46.261Z</time></trkpt><trkpt lat="45.4702983" lon="8.5152383"><ele>159.0</ele><time>2026-05-01T07:37:47.261Z</time></trkpt><trkpt lat="45.470275" lon="8.5148217"><ele>159.0</ele><time>2026-05-01T07:37:48.261Z</time></trkpt><trkpt lat="45.470245" lon="8.5143917"><ele>159.5</ele><time>2026-05-01T07:37:49.261Z</time></trkpt><trkpt lat="45.470215" lon="8.513965"><ele>160.0</ele><time>2026-05-01T07:37:50.261Z</time></trkpt><trkpt lat="45.470185" lon="8.51354"><ele>160.0</ele><time>2026-05-01T07:37:51.261Z</time></trkpt><trkpt lat="45.4701517" lon="8.513115"><ele>160.0</ele><time>2026-05-01T07:37:52.26Z</time></trkpt><trkpt lat="45.4701267" lon="8.5126917"><ele>159.5</ele><time>2026-05-01T07:37:53.261Z</time></trkpt><trkpt lat="45.470095" lon="8.5122667"><ele>159.0</ele><time>2026-05-01T07:37:54.261Z</time></trkpt><trkpt lat="45.4700583" lon="8.5118417"><ele>159.0</ele><time>2026-05-01T07:37:55.261Z</time></trkpt><trkpt lat="45.4700233" lon="8.5114233"><ele>159.0</ele><time>2026-05-01T07:37:56.261Z</time></trkpt><trkpt lat="45.4699933" lon="8.5110117"><ele>159.0</ele><time>2026-05-01T07:37:57.26Z</time></trkpt><trkpt lat="45.46996" lon="8.510595"><ele>159.0</ele><time>2026-05-01T07:37:58.261Z</time></trkpt><trkpt lat="45.4699267" lon="8.51018"><ele>159.0</ele><time>2026-05-01T07:37:59.261Z</time></trkpt><trkpt lat="45.4698967" lon="8.50976"><ele>159.0</ele><time>2026-05-01T07:38:00.26Z</time></trkpt><trkpt lat="45.4698633" lon="8.5093417"><ele>159.0</ele><time>2026-05-01T07:38:01.261Z</time></trkpt><trkpt lat="45.4698317" lon="8.50892"><ele>159.0</ele><time>2026-05-01T07:38:02.26Z</time></trkpt><trkpt lat="45.4697983" lon="8.5084967"><ele>159.5</ele><time>2026-05-01T07:38:03.26Z</time></trkpt><trkpt lat="45.469765" lon="8.5080733"><ele>160.0</ele><time>2026-05-01T07:38:04.261Z</time></trkpt><trkpt lat="45.46974" lon="8.50765"><ele>160.0</ele><time>2026-05-01T07:38:05.261Z</time></trkpt><trkpt lat="45.4697133" lon="8.5072233"><ele>160.0</ele><time>2026-05-01T07:38:06.26Z</time></trkpt><trkpt lat="45.4696833" lon="8.5068067"><ele>160.0</ele><time>2026-05-01T07:38:07.261Z</time></trkpt><trkpt lat="45.4696533" lon="8.5063933"><ele>160.0</ele><time>2026-05-01T07:38:08.261Z</time></trkpt><trkpt lat="45.4696233" lon="8.5059767"><ele>160.0</ele><time>2026-05-01T07:38:09.261Z</time></trkpt><trkpt lat="45.4695917" lon="8.5055617"><ele>160.0</ele><time>2026-05-01T07:38:10.261Z</time></trkpt><trkpt lat="45.4695683" lon="8.5051533"><ele>159.0</ele><time>2026-05-01T07:38:11.261Z</time></trkpt><trkpt lat="45.469525" lon="8.5047333"><ele>158.0</ele><time>2026-05-01T07:38:12.261Z</time></trkpt><trkpt lat="45.4694917" lon="8.5043183"><ele>157.5</ele><time>2026-05-01T07:38:13.261Z</time></trkpt><trkpt lat="45.4694633" lon="8.5038933"><ele>157.0</ele><time>2026-05-01T07:38:14.26Z</time></trkpt><trkpt lat="45.4694367" lon="8.503475"><ele>158.0</ele><time>2026-05-01T07:38:15.261Z</time></trkpt><trkpt lat="45.4694017" lon="8.50305"><ele>159.0</ele><time>2026-05-01T07:38:16.261Z</time></trkpt><trkpt lat="45.4693733" lon="8.5026333"><ele>159.5</ele><time>2026-05-01T07:38:17.26Z</time></trkpt><trkpt lat="45.469335" lon="8.5022067"><ele>160.0</ele><time>2026-05-01T07:38:18.261Z</time></trkpt><trkpt lat="45.4693" lon="8.501785"><ele>160.0</ele><time>2026-05-01T07:38:19.261Z</time></trkpt><trkpt lat="45.4692683" lon="8.5013633"><ele>160.0</ele><time>2026-05-01T07:38:20.261Z</time></trkpt><trkpt lat="45.46923" lon="8.5009433"><ele>160.0</ele><time>2026-05-01T07:38:21.261Z</time></trkpt><trkpt lat="45.4691967" lon="8.50052"><ele>160.0</ele><time>2026-05-01T07:38:22.261Z</time></trkpt><trkpt lat="45.4691767" lon="8.5001017"><ele>160.0</ele><time>2026-05-01T07:38:23.26Z</time></trkpt><trkpt lat="45.4691533" lon="8.4996733"><ele>160.0</ele><time>2026-05-01T07:38:24.261Z</time></trkpt><trkpt lat="45.469125" lon="8.4992567"><ele>160.0</ele><time>2026-05-01T07:38:25.261Z</time></trkpt><trkpt lat="45.46909" lon="8.4988383"><ele>160.0</ele><time>2026-05-01T07:38:26.26Z</time></trkpt><trkpt lat="45.4690683" lon="8.498415"><ele>160.0</ele><time>2026-05-01T07:38:27.26Z</time></trkpt><trkpt lat="45.4690433" lon="8.497995"><ele>160.0</ele><time>2026-05-01T07:38:28.261Z</time></trkpt><trkpt lat="45.4690217" lon="8.4975817"><ele>160.0</ele><time>2026-05-01T07:38:29.261Z</time></trkpt><trkpt lat="45.468985" lon="8.4971683"><ele>160.0</ele><time>2026-05-01T07:38:30.261Z</time></trkpt><trkpt lat="45.46895" lon="8.4967467"><ele>160.0</ele><time>2026-05-01T07:38:31.261Z</time></trkpt><trkpt lat="45.468925" lon="8.4963317"><ele>160.0</ele><time>2026-05-01T07:38:32.26Z</time></trkpt><trkpt lat="45.4688983" lon="8.4959183"><ele>160.0</ele><time>2026-05-01T07:38:33.26Z</time></trkpt><trkpt lat="45.4688617" lon="8.4954917"><ele>160.0</ele><time>2026-05-01T07:38:34.26Z</time></trkpt><trkpt lat="45.468835" lon="8.4950783"><ele>160.0</ele><time>2026-05-01T07:38:35.261Z</time></trkpt><trkpt lat="45.4688083" lon="8.4946583"><ele>160.0</ele><time>2026-05-01T07:38:36.261Z</time></trkpt><trkpt lat="45.4687817" lon="8.49423"><ele>160.5</ele><time>2026-05-01T07:38:37.261Z</time></trkpt><trkpt lat="45.46874" lon="8.4938033"><ele>161.0</ele><time>2026-05-01T07:38:38.261Z</time></trkpt><trkpt lat="45.4687083" lon="8.4933733"><ele>161.0</ele><time>2026-05-01T07:38:39.26Z</time></trkpt><trkpt lat="45.468685" lon="8.4929583"><ele>161.0</ele><time>2026-05-01T07:38:40.26Z</time></trkpt><trkpt lat="45.468655" lon="8.492535"><ele>161.0</ele><time>2026-05-01T07:38:41.261Z</time></trkpt><trkpt lat="45.4686167" lon="8.49211"><ele>161.0</ele><time>2026-05-01T07:38:42.261Z</time></trkpt><trkpt lat="45.4685917" lon="8.49169"><ele>161.5</ele><time>2026-05-01T07:38:43.261Z</time></trkpt><trkpt lat="45.4685417" lon="8.4912633"><ele>162.0</ele><time>2026-05-01T07:38:44.261Z</time></trkpt><trkpt lat="45.468505" lon="8.4908483"><ele>162.0</ele><time>2026-05-01T07:38:45.261Z</time></trkpt><trkpt lat="45.4684717" lon="8.490425"><ele>162.0</ele><time>2026-05-01T07:38:46.261Z</time></trkpt><trkpt lat="45.468435" lon="8.4900083"><ele>161.5</ele><time>2026-05-01T07:38:47.26Z</time></trkpt><trkpt lat="45.4683967" lon="8.4895983"><ele>161.0</ele><time>2026-05-01T07:38:48.261Z</time></trkpt><trkpt lat="45.4683617" lon="8.48917"><ele>160.0</ele><time>2026-05-01T07:38:49.26Z</time></trkpt><trkpt lat="45.4683367" lon="8.488755"><ele>159.0</ele><time>2026-05-01T07:38:50.261Z</time></trkpt><trkpt lat="45.4683" lon="8.488325"><ele>159.0</ele><time>2026-05-01T07:38:51.261Z</time></trkpt><trkpt lat="45.4682683" lon="8.4879017"><ele>159.0</ele><time>2026-05-01T07:38:52.261Z</time></trkpt><trkpt lat="45.4682383" lon="8.48748"><ele>159.5</ele><time>2026-05-01T07:38:53.261Z</time></trkpt><trkpt lat="45.4681983" lon="8.4870483"><ele>160.0</ele><time>2026-05-01T07:38:54.261Z</time></trkpt><trkpt lat="45.4681633" lon="8.4866267"><ele>160.0</ele><time>2026-05-01T07:38:55.26Z</time></trkpt><trkpt lat="45.4681333" lon="8.4862083"><ele>160.0</ele><time>2026-05-01T07:38:56.261Z</time></trkpt><trkpt lat="45.4681017" lon="8.48579"><ele>159.5</ele><time>2026-05-01T07:38:57.26Z</time></trkpt><trkpt lat="45.4680767" lon="8.48537"><ele>159.0</ele><time>2026-05-01T07:38:58.261Z</time></trkpt><trkpt lat="45.468045" lon="8.48495"><ele>159.0</ele><time>2026-05-01T07:38:59.261Z</time></trkpt><trkpt lat="45.4680167" lon="8.48454"><ele>159.0</ele><time>2026-05-01T07:39:00.261Z</time></trkpt><trkpt lat="45.4679833" lon="8.4841133"><ele>159.5</ele><time>2026-05-01T07:39:01.261Z</time></trkpt><trkpt lat="45.46796" lon="8.4837"><ele>160.0</ele><time>2026-05-01T07:39:02.261Z</time></trkpt><trkpt lat="45.467935" lon="8.4832833"><ele>160.0</ele><time>2026-05-01T07:39:03.261Z</time></trkpt><trkpt lat="45.4679183" lon="8.48287"><ele>160.0</ele><time>2026-05-01T07:39:04.26Z</time></trkpt><trkpt lat="45.4678983" lon="8.4824467"><ele>160.5</ele><time>2026-05-01T07:39:05.261Z</time></trkpt><trkpt lat="45.4678767" lon="8.482025"><ele>161.0</ele><time>2026-05-01T07:39:06.261Z</time></trkpt><trkpt lat="45.46786" lon="8.4816067"><ele>162.0</ele><time>2026-05-01T07:39:07.261Z</time></trkpt><trkpt lat="45.4678383" lon="8.48119"><ele>163.0</ele><time>2026-05-01T07:39:08.261Z</time></trkpt><trkpt lat="45.46781" lon="8.4807767"><ele>161.5</ele><time>2026-05-01T07:39:09.26Z</time></trkpt><trkpt lat="45.4677767" lon="8.4803633"><ele>160.0</ele><time>2026-05-01T07:39:10.26Z</time></trkpt><trkpt lat="45.4677333" lon="8.4799417"><ele>160.5</ele><time>2026-05-01T07:39:11.261Z</time></trkpt><trkpt lat="45.4676983" lon="8.4795183"><ele>161.0</ele><time>2026-05-01T07:39:12.26Z</time></trkpt><trkpt lat="45.4676667" lon="8.4790933"><ele>161.5</ele><time>2026-05-01T07:39:13.26Z</time></trkpt><trkpt lat="45.4676317" lon="8.47867"><ele>162.0</ele><time>2026-05-01T07:39:14.261Z</time></trkpt><trkpt lat="45.4676" lon="8.47825"><ele>162.0</ele><time>2026-05-01T07:39:15.261Z</time></trkpt><trkpt lat="45.4675683" lon="8.47783"><ele>162.0</ele><time>2026-05-01T07:39:16.261Z</time></trkpt><trkpt lat="45.467535" lon="8.477405"><ele>161.5</ele><time>2026-05-01T07:39:17.261Z</time></trkpt><trkpt lat="45.467505" lon="8.476985"><ele>161.0</ele><time>2026-05-01T07:39:18.26Z</time></trkpt><trkpt lat="45.467485" lon="8.4765667"><ele>162.0</ele><time>2026-05-01T07:39:19.26Z</time></trkpt><trkpt lat="45.4674317" lon="8.4757417"><ele>162.0</ele><time>2026-05-01T07:39:21.261Z</time></trkpt><trkpt lat="45.4674017" lon="8.47532"><ele>162.0</ele><time>2026-05-01T07:39:22.261Z</time></trkpt><trkpt lat="45.4673683" lon="8.4749033"><ele>161.5</ele><time>2026-05-01T07:39:23.261Z</time></trkpt><trkpt lat="45.4673333" lon="8.47449"><ele>161.0</ele><time>2026-05-01T07:39:24.261Z</time></trkpt><trkpt lat="45.467295" lon="8.47408"><ele>162.0</ele><time>2026-05-01T07:39:25.261Z</time></trkpt><trkpt lat="45.467255" lon="8.473655"><ele>163.0</ele><time>2026-05-01T07:39:26.261Z</time></trkpt><trkpt lat="45.4672133" lon="8.4732283"><ele>162.0</ele><time>2026-05-01T07:39:27.26Z</time></trkpt><trkpt lat="45.46719" lon="8.4728033"><ele>161.0</ele><time>2026-05-01T07:39:28.261Z</time></trkpt><trkpt lat="45.467155" lon="8.4723767"><ele>161.5</ele><time>2026-05-01T07:39:29.261Z</time></trkpt><trkpt lat="45.4671217" lon="8.4719483"><ele>162.0</ele><time>2026-05-01T07:39:30.26Z</time></trkpt><trkpt lat="45.467095" lon="8.4715333"><ele>163.0</ele><time>2026-05-01T07:39:31.261Z</time></trkpt><trkpt lat="45.4670667" lon="8.471125"><ele>164.0</ele><time>2026-05-01T07:39:32.261Z</time></trkpt><trkpt lat="45.467025" lon="8.4707033"><ele>164.0</ele><time>2026-05-01T07:39:33.261Z</time></trkpt><trkpt lat="45.467" lon="8.4702833"><ele>164.0</ele><time>2026-05-01T07:39:34.26Z</time></trkpt><trkpt lat="45.46697" lon="8.4698683"><ele>164.0</ele><time>2026-05-01T07:39:35.261Z</time></trkpt><trkpt lat="45.4669417" lon="8.469455"><ele>164.0</ele><time>2026-05-01T07:39:36.261Z</time></trkpt><trkpt lat="45.4669133" lon="8.46904"><ele>164.0</ele><time>2026-05-01T07:39:37.261Z</time></trkpt><trkpt lat="45.4668817" lon="8.46863"><ele>164.0</ele><time>2026-05-01T07:39:38.26Z</time></trkpt><trkpt lat="45.4668533" lon="8.4682133"><ele>164.0</ele><time>2026-05-01T07:39:39.261Z</time></trkpt><trkpt lat="45.4668167" lon="8.46778"><ele>164.0</ele><time>2026-05-01T07:39:40.261Z</time></trkpt><trkpt lat="45.4667867" lon="8.467365"><ele>164.5</ele><time>2026-05-01T07:39:41.26Z</time></trkpt><trkpt lat="45.46676" lon="8.4669517"><ele>165.0</ele><time>2026-05-01T07:39:42.261Z</time></trkpt><trkpt lat="45.4667283" lon="8.466535"><ele>165.0</ele><time>2026-05-01T07:39:43.26Z</time></trkpt><trkpt lat="45.4667" lon="8.46612"><ele>165.0</ele><time>2026-05-01T07:39:44.261Z</time></trkpt><trkpt lat="45.4666767" lon="8.465705"><ele>164.5</ele><time>2026-05-01T07:39:45.261Z</time></trkpt><trkpt lat="45.4666383" lon="8.4652733"><ele>164.0</ele><time>2026-05-01T07:39:46.26Z</time></trkpt><trkpt lat="45.4666117" lon="8.4648617"><ele>164.0</ele><time>2026-05-01T07:39:47.261Z</time></trkpt><trkpt lat="45.46657" lon="8.4644233"><ele>164.0</ele><time>2026-05-01T07:39:48.261Z</time></trkpt><trkpt lat="45.4665383" lon="8.4639933"><ele>163.5</ele><time>2026-05-01T07:39:49.261Z</time></trkpt><trkpt lat="45.4665067" lon="8.463575"><ele>163.0</ele><time>2026-05-01T07:39:50.26Z</time></trkpt><trkpt lat="45.4664817" lon="8.4631533"><ele>162.5</ele><time>2026-05-01T07:39:51.261Z</time></trkpt><trkpt lat="45.46645" lon="8.4627267"><ele>162.0</ele><time>2026-05-01T07:39:52.261Z</time></trkpt><trkpt lat="45.4664183" lon="8.4623117"><ele>161.5</ele><time>2026-05-01T07:39:53.261Z</time></trkpt><trkpt lat="45.4663917" lon="8.4618933"><ele>161.0</ele><time>2026-05-01T07:39:54.261Z</time></trkpt><trkpt lat="45.46637" lon="8.4614733"><ele>161.0</ele><time>2026-05-01T07:39:55.261Z</time></trkpt><trkpt lat="45.46633" lon="8.4610483"><ele>161.0</ele><time>2026-05-01T07:39:56.26Z</time></trkpt><trkpt lat="45.46631" lon="8.46063"><ele>161.0</ele><time>2026-05-01T07:39:57.261Z</time></trkpt><trkpt lat="45.466275" lon="8.460205"><ele>161.0</ele><time>2026-05-01T07:39:58.261Z</time></trkpt><trkpt lat="45.4662467" lon="8.4597867"><ele>161.5</ele><time>2026-05-01T07:39:59.261Z</time></trkpt><trkpt lat="45.4662167" lon="8.4593683"><ele>162.0</ele><time>2026-05-01T07:40:00.26Z</time></trkpt><trkpt lat="45.46618" lon="8.4589533"><ele>162.5</ele><time>2026-05-01T07:40:01.261Z</time></trkpt><trkpt lat="45.46614" lon="8.45853"><ele>163.0</ele><time>2026-05-01T07:40:02.26Z</time></trkpt><trkpt lat="45.46611" lon="8.4581117"><ele>163.5</ele><time>2026-05-01T07:40:03.26Z</time></trkpt><trkpt lat="45.4660817" lon="8.4576917"><ele>164.0</ele><time>2026-05-01T07:40:04.261Z</time></trkpt><trkpt lat="45.46606" lon="8.457275"><ele>164.0</ele><time>2026-05-01T07:40:05.261Z</time></trkpt><trkpt lat="45.466025" lon="8.45686"><ele>164.0</ele><time>2026-05-01T07:40:06.261Z</time></trkpt><trkpt lat="45.466" lon="8.4564433"><ele>163.5</ele><time>2026-05-01T07:40:07.261Z</time></trkpt><trkpt lat="45.4659717" lon="8.4560183"><ele>163.0</ele><time>2026-05-01T07:40:08.261Z</time></trkpt><trkpt lat="45.4659317" lon="8.4555867"><ele>163.5</ele><time>2026-05-01T07:40:09.26Z</time></trkpt><trkpt lat="45.4658833" lon="8.455125"><ele>164.0</ele><time>2026-05-01T07:40:10.261Z</time></trkpt><trkpt lat="45.46584" lon="8.4546433"><ele>164.0</ele><time>2026-05-01T07:40:11.261Z</time></trkpt><trkpt lat="45.4657917" lon="8.4541333"><ele>164.0</ele><time>2026-05-01T07:40:12.261Z</time></trkpt><trkpt lat="45.4657583" lon="8.4536317"><ele>164.0</ele><time>2026-05-01T07:40:13.261Z</time></trkpt><trkpt lat="45.4657283" lon="8.45317"><ele>164.0</ele><time>2026-05-01T07:40:14.261Z</time></trkpt><trkpt lat="45.4657083" lon="8.4527167"><ele>164.0</ele><time>2026-05-01T07:40:15.261Z</time></trkpt><trkpt lat="45.4657017" lon="8.4523017"><ele>164.0</ele><time>2026-05-01T07:40:16.261Z</time></trkpt><trkpt lat="45.4656733" lon="8.45189"><ele>163.5</ele><time>2026-05-01T07:40:17.26Z</time></trkpt><trkpt lat="45.46564" lon="8.4514867"><ele>163.0</ele><time>2026-05-01T07:40:18.261Z</time></trkpt><trkpt lat="45.4656133" lon="8.451085"><ele>164.5</ele><time>2026-05-01T07:40:19.261Z</time></trkpt><trkpt lat="45.46557" lon="8.450675"><ele>166.0</ele><time>2026-05-01T07:40:20.261Z</time></trkpt><trkpt lat="45.4655417" lon="8.450265"><ele>166.5</ele><time>2026-05-01T07:40:21.261Z</time></trkpt><trkpt lat="45.465515" lon="8.4498483"><ele>167.0</ele><time>2026-05-01T07:40:22.261Z</time></trkpt><trkpt lat="45.4654583" lon="8.449415"><ele>165.0</ele><time>2026-05-01T07:40:23.261Z</time></trkpt><trkpt lat="45.4654317" lon="8.448975"><ele>163.0</ele><time>2026-05-01T07:40:24.26Z</time></trkpt><trkpt lat="45.465415" lon="8.4485367"><ele>163.0</ele><time>2026-05-01T07:40:25.26Z</time></trkpt><trkpt lat="45.46539" lon="8.448105"><ele>163.0</ele><time>2026-05-01T07:40:26.261Z</time></trkpt><trkpt lat="45.4653633" lon="8.44768"><ele>164.0</ele><time>2026-05-01T07:40:27.26Z</time></trkpt><trkpt lat="45.4653367" lon="8.4472633"><ele>165.0</ele><time>2026-05-01T07:40:28.261Z</time></trkpt><trkpt lat="45.4652967" lon="8.4468567"><ele>165.0</ele><time>2026-05-01T07:40:29.26Z</time></trkpt><trkpt lat="45.4652583" lon="8.4464383"><ele>165.0</ele><time>2026-05-01T07:40:30.26Z</time></trkpt><trkpt lat="45.4652267" lon="8.446005"><ele>165.0</ele><time>2026-05-01T07:40:31.261Z</time></trkpt><trkpt lat="45.4651967" lon="8.4455867"><ele>165.0</ele><time>2026-05-01T07:40:32.261Z</time></trkpt><trkpt lat="45.4651683" lon="8.4451767"><ele>165.5</ele><time>2026-05-01T07:40:33.261Z</time></trkpt><trkpt lat="45.4651433" lon="8.4447583"><ele>166.0</ele><time>2026-05-01T07:40:34.261Z</time></trkpt><trkpt lat="45.4651283" lon="8.444335"><ele>166.0</ele><time>2026-05-01T07:40:35.261Z</time></trkpt><trkpt lat="45.4651017" lon="8.44391"><ele>166.0</ele><time>2026-05-01T07:40:36.261Z</time></trkpt><trkpt lat="45.4650617" lon="8.4434883"><ele>165.5</ele><time>2026-05-01T07:40:37.26Z</time></trkpt><trkpt lat="45.4650333" lon="8.44307"><ele>165.0</ele><time>2026-05-01T07:40:38.261Z</time></trkpt><trkpt lat="45.4649967" lon="8.442645"><ele>165.0</ele><time>2026-05-01T07:40:39.261Z</time></trkpt><trkpt lat="45.46496" lon="8.4422283"><ele>165.0</ele><time>2026-05-01T07:40:40.261Z</time></trkpt><trkpt lat="45.46492" lon="8.4418033"><ele>165.0</ele><time>2026-05-01T07:40:41.261Z</time></trkpt><trkpt lat="45.464885" lon="8.4413867"><ele>165.0</ele><time>2026-05-01T07:40:42.26Z</time></trkpt><trkpt lat="45.46486" lon="8.4409717"><ele>164.5</ele><time>2026-05-01T07:40:43.26Z</time></trkpt><trkpt lat="45.4648267" lon="8.4405567"><ele>164.0</ele><time>2026-05-01T07:40:44.261Z</time></trkpt><trkpt lat="45.4648" lon="8.44014"><ele>164.5</ele><time>2026-05-01T07:40:45.261Z</time></trkpt><trkpt lat="45.46477" lon="8.4397183"><ele>165.0</ele><time>2026-05-01T07:40:46.261Z</time></trkpt><trkpt lat="45.4647433" lon="8.4392967"><ele>165.0</ele><time>2026-05-01T07:40:47.26Z</time></trkpt><trkpt lat="45.46472" lon="8.438875"><ele>165.0</ele><time>2026-05-01T07:40:48.261Z</time></trkpt><trkpt lat="45.46469" lon="8.4384517"><ele>164.5</ele><time>2026-05-01T07:40:49.261Z</time></trkpt><trkpt lat="45.4646683" lon="8.4380267"><ele>164.0</ele><time>2026-05-01T07:40:50.261Z</time></trkpt><trkpt lat="45.4646333" lon="8.4376033"><ele>163.5</ele><time>2026-05-01T07:40:51.261Z</time></trkpt><trkpt lat="45.464605" lon="8.4371867"><ele>163.0</ele><time>2026-05-01T07:40:52.261Z</time></trkpt><trkpt lat="45.4645783" lon="8.4367683"><ele>163.0</ele><time>2026-05-01T07:40:53.26Z</time></trkpt><trkpt lat="45.464565" lon="8.4363483"><ele>163.0</ele><time>2026-05-01T07:40:54.26Z</time></trkpt><trkpt lat="45.4645467" lon="8.4359317"><ele>163.0</ele><time>2026-05-01T07:40:55.261Z</time></trkpt><trkpt lat="45.46452" lon="8.4355067"><ele>163.0</ele><time>2026-05-01T07:40:56.261Z</time></trkpt><trkpt lat="45.4645133" lon="8.4350817"><ele>162.5</ele><time>2026-05-01T07:40:57.261Z</time></trkpt><trkpt lat="45.4644883" lon="8.4346717"><ele>162.0</ele><time>2026-05-01T07:40:58.261Z</time></trkpt><trkpt lat="45.46445" lon="8.4342433"><ele>162.0</ele><time>2026-05-01T07:40:59.261Z</time></trkpt><trkpt lat="45.4644283" lon="8.4338267"><ele>162.0</ele><time>2026-05-01T07:41:00.26Z</time></trkpt><trkpt lat="45.4644" lon="8.4334083"><ele>162.0</ele><time>2026-05-01T07:41:01.26Z</time></trkpt><trkpt lat="45.4643833" lon="8.4329917"><ele>162.0</ele><time>2026-05-01T07:41:02.26Z</time></trkpt><trkpt lat="45.4643567" lon="8.4325717"><ele>163.0</ele><time>2026-05-01T07:41:03.26Z</time></trkpt><trkpt lat="45.4643333" lon="8.4321517"><ele>164.0</ele><time>2026-05-01T07:41:04.261Z</time></trkpt><trkpt lat="45.4643033" lon="8.4317283"><ele>164.0</ele><time>2026-05-01T07:41:05.261Z</time></trkpt><trkpt lat="45.46428" lon="8.4313167"><ele>164.0</ele><time>2026-05-01T07:41:06.26Z</time></trkpt><trkpt lat="45.4642683" lon="8.4308983"><ele>164.0</ele><time>2026-05-01T07:41:07.261Z</time></trkpt><trkpt lat="45.4642467" lon="8.4304783"><ele>164.0</ele><time>2026-05-01T07:41:08.261Z</time></trkpt><trkpt lat="45.46423" lon="8.430055"><ele>164.0</ele><time>2026-05-01T07:41:09.261Z</time></trkpt><trkpt lat="45.464205" lon="8.429645"><ele>164.0</ele><time>2026-05-01T07:41:10.261Z</time></trkpt><trkpt lat="45.4641817" lon="8.4292233"><ele>164.0</ele><time>2026-05-01T07:41:11.261Z</time></trkpt><trkpt lat="45.4641533" lon="8.4288117"><ele>164.0</ele><time>2026-05-01T07:41:12.261Z</time></trkpt><trkpt lat="45.4641067" lon="8.428385"><ele>165.5</ele><time>2026-05-01T07:41:13.261Z</time></trkpt><trkpt lat="45.4640783" lon="8.427965"><ele>167.0</ele><time>2026-05-01T07:41:14.261Z</time></trkpt><trkpt lat="45.4640517" lon="8.4275333"><ele>167.0</ele><time>2026-05-01T07:41:15.261Z</time></trkpt><trkpt lat="45.4640267" lon="8.42711"><ele>167.0</ele><time>2026-05-01T07:41:16.261Z</time></trkpt><trkpt lat="45.4640133" lon="8.4266883"><ele>166.5</ele><time>2026-05-01T07:41:17.26Z</time></trkpt><trkpt lat="45.4639933" lon="8.426275"><ele>166.0</ele><time>2026-05-01T07:41:18.261Z</time></trkpt><trkpt lat="45.4639717" lon="8.425855"><ele>165.5</ele><time>2026-05-01T07:41:19.26Z</time></trkpt><trkpt lat="45.4639467" lon="8.4254367"><ele>165.0</ele><time>2026-05-01T07:41:20.261Z</time></trkpt><trkpt lat="45.4639283" lon="8.4250133"><ele>165.0</ele><time>2026-05-01T07:41:21.261Z</time></trkpt><trkpt lat="45.4639183" lon="8.4245883"><ele>165.0</ele><time>2026-05-01T07:41:22.261Z</time></trkpt><trkpt lat="45.4638933" lon="8.424175"><ele>164.5</ele><time>2026-05-01T07:41:23.26Z</time></trkpt><trkpt lat="45.4638717" lon="8.4237467"><ele>164.0</ele><time>2026-05-01T07:41:24.261Z</time></trkpt><trkpt lat="45.4638483" lon="8.4233233"><ele>163.5</ele><time>2026-05-01T07:41:25.261Z</time></trkpt><trkpt lat="45.46383" lon="8.4229033"><ele>163.0</ele><time>2026-05-01T07:41:26.261Z</time></trkpt><trkpt lat="45.4638117" lon="8.422485"><ele>163.0</ele><time>2026-05-01T07:41:27.261Z</time></trkpt><trkpt lat="45.4637917" lon="8.4220583"><ele>163.0</ele><time>2026-05-01T07:41:28.261Z</time></trkpt><trkpt lat="45.4637717" lon="8.421635"><ele>162.5</ele><time>2026-05-01T07:41:29.261Z</time></trkpt><trkpt lat="45.46375" lon="8.4212083"><ele>162.0</ele><time>2026-05-01T07:41:30.261Z</time></trkpt><trkpt lat="45.463725" lon="8.4207817"><ele>162.5</ele><time>2026-05-01T07:41:31.261Z</time></trkpt><trkpt lat="45.463705" lon="8.4203533"><ele>163.0</ele><time>2026-05-01T07:41:32.261Z</time></trkpt><trkpt lat="45.4636933" lon="8.4199333"><ele>163.0</ele><time>2026-05-01T07:41:33.261Z</time></trkpt><trkpt lat="45.4636683" lon="8.4195067"><ele>163.0</ele><time>2026-05-01T07:41:34.26Z</time></trkpt><trkpt lat="45.463645" lon="8.4190833"><ele>164.0</ele><time>2026-05-01T07:41:35.261Z</time></trkpt><trkpt lat="45.4636233" lon="8.4186667"><ele>165.0</ele><time>2026-05-01T07:41:36.261Z</time></trkpt><trkpt lat="45.4636" lon="8.4182417"><ele>165.0</ele><time>2026-05-01T07:41:37.26Z</time></trkpt><trkpt lat="45.4635767" lon="8.41782"><ele>165.0</ele><time>2026-05-01T07:41:38.261Z</time></trkpt><trkpt lat="45.46355" lon="8.4173883"><ele>165.0</ele><time>2026-05-01T07:41:39.261Z</time></trkpt><trkpt lat="45.4635267" lon="8.4169667"><ele>165.0</ele><time>2026-05-01T07:41:40.26Z</time></trkpt><trkpt lat="45.4635033" lon="8.416545"><ele>164.5</ele><time>2026-05-01T07:41:41.26Z</time></trkpt><trkpt lat="45.463475" lon="8.4161317"><ele>164.0</ele><time>2026-05-01T07:41:42.261Z</time></trkpt><trkpt lat="45.46345" lon="8.41572"><ele>163.5</ele><time>2026-05-01T07:41:43.261Z</time></trkpt><trkpt lat="45.4634267" lon="8.4153"><ele>163.0</ele><time>2026-05-01T07:41:44.261Z</time></trkpt><trkpt lat="45.4634033" lon="8.4148867"><ele>163.0</ele><time>2026-05-01T07:41:45.261Z</time></trkpt><trkpt lat="45.46338" lon="8.414465"><ele>163.0</ele><time>2026-05-01T07:41:46.261Z</time></trkpt><trkpt lat="45.4633567" lon="8.41405"><ele>163.5</ele><time>2026-05-01T07:41:47.261Z</time></trkpt><trkpt lat="45.4633333" lon="8.4136267"><ele>164.0</ele><time>2026-05-01T07:41:48.261Z</time></trkpt><trkpt lat="45.4633167" lon="8.4132067"><ele>164.0</ele><time>2026-05-01T07:41:49.26Z</time></trkpt><trkpt lat="45.463305" lon="8.4127833"><ele>164.0</ele><time>2026-05-01T07:41:50.26Z</time></trkpt><trkpt lat="45.4632783" lon="8.4123517"><ele>164.0</ele><time>2026-05-01T07:41:51.261Z</time></trkpt><trkpt lat="45.4632617" lon="8.4119333"><ele>164.0</ele><time>2026-05-01T07:41:52.261Z</time></trkpt><trkpt lat="45.4632333" lon="8.4115183"><ele>164.0</ele><time>2026-05-01T07:41:53.26Z</time></trkpt><trkpt lat="45.4632083" lon="8.4111"><ele>164.0</ele><time>2026-05-01T07:41:54.26Z</time></trkpt><trkpt lat="45.4631883" lon="8.4106867"><ele>164.5</ele><time>2026-05-01T07:41:55.26Z</time></trkpt><trkpt lat="45.4631717" lon="8.4102617"><ele>165.0</ele><time>2026-05-01T07:41:56.261Z</time></trkpt><trkpt lat="45.4631683" lon="8.4098533"><ele>164.5</ele><time>2026-05-01T07:41:57.261Z</time></trkpt><trkpt lat="45.4631517" lon="8.4094417"><ele>164.0</ele><time>2026-05-01T07:41:58.261Z</time></trkpt><trkpt lat="45.4631283" lon="8.4090133"><ele>164.0</ele><time>2026-05-01T07:41:59.261Z</time></trkpt><trkpt lat="45.4631167" lon="8.408595"><ele>164.0</ele><time>2026-05-01T07:42:00.261Z</time></trkpt><trkpt lat="45.4631017" lon="8.40817"><ele>164.5</ele><time>2026-05-01T07:42:01.261Z</time></trkpt><trkpt lat="45.4630933" lon="8.4077533"><ele>165.0</ele><time>2026-05-01T07:42:02.261Z</time></trkpt><trkpt lat="45.46308" lon="8.407325"><ele>165.0</ele><time>2026-05-01T07:42:03.26Z</time></trkpt><trkpt lat="45.46307" lon="8.4069067"><ele>165.0</ele><time>2026-05-01T07:42:04.261Z</time></trkpt><trkpt lat="45.4630583" lon="8.4064767"><ele>167.0</ele><time>2026-05-01T07:42:05.261Z</time></trkpt><trkpt lat="45.463045" lon="8.406055"><ele>169.0</ele><time>2026-05-01T07:42:06.26Z</time></trkpt><trkpt lat="45.46304" lon="8.4056367"><ele>170.0</ele><time>2026-05-01T07:42:07.261Z</time></trkpt><trkpt lat="45.4630367" lon="8.4052267"><ele>171.0</ele><time>2026-05-01T07:42:08.261Z</time></trkpt><trkpt lat="45.4630133" lon="8.404805"><ele>170.5</ele><time>2026-05-01T07:42:09.26Z</time></trkpt><trkpt lat="45.463" lon="8.4044117"><ele>170.0</ele><time>2026-05-01T07:42:10.261Z</time></trkpt><trkpt lat="45.4629767" lon="8.4040183"><ele>170.0</ele><time>2026-05-01T07:42:11.26Z</time></trkpt><trkpt lat="45.46297" lon="8.4036117"><ele>170.0</ele><time>2026-05-01T07:42:12.261Z</time></trkpt><trkpt lat="45.4629383" lon="8.4032033"><ele>168.5</ele><time>2026-05-01T07:42:13.261Z</time></trkpt><trkpt lat="45.4629183" lon="8.4027867"><ele>167.0</ele><time>2026-05-01T07:42:14.261Z</time></trkpt><trkpt lat="45.462895" lon="8.402365"><ele>165.5</ele><time>2026-05-01T07:42:15.261Z</time></trkpt><trkpt lat="45.46287" lon="8.4019383"><ele>164.0</ele><time>2026-05-01T07:42:16.261Z</time></trkpt><trkpt lat="45.46285" lon="8.4015133"><ele>163.0</ele><time>2026-05-01T07:42:17.261Z</time></trkpt><trkpt lat="45.46283" lon="8.401085"><ele>162.0</ele><time>2026-05-01T07:42:18.261Z</time></trkpt><trkpt lat="45.4628133" lon="8.400655"><ele>162.0</ele><time>2026-05-01T07:42:19.261Z</time></trkpt><trkpt lat="45.462795" lon="8.4002233"><ele>162.0</ele><time>2026-05-01T07:42:20.261Z</time></trkpt><trkpt lat="45.462775" lon="8.3997933"><ele>162.5</ele><time>2026-05-01T07:42:21.26Z</time></trkpt><trkpt lat="45.4627417" lon="8.3993667"><ele>163.0</ele><time>2026-05-01T07:42:22.261Z</time></trkpt><trkpt lat="45.4627183" lon="8.3989467"><ele>166.0</ele><time>2026-05-01T07:42:23.261Z</time></trkpt><trkpt lat="45.4626967" lon="8.398535"><ele>169.0</ele><time>2026-05-01T07:42:24.26Z</time></trkpt><trkpt lat="45.462675" lon="8.3981367"><ele>168.5</ele><time>2026-05-01T07:42:25.261Z</time></trkpt><trkpt lat="45.46265" lon="8.3977133"><ele>168.0</ele><time>2026-05-01T07:42:26.261Z</time></trkpt><trkpt lat="45.4626183" lon="8.397275"><ele>168.0</ele><time>2026-05-01T07:42:27.261Z</time></trkpt><trkpt lat="45.462565" lon="8.3968167"><ele>168.0</ele><time>2026-05-01T07:42:28.261Z</time></trkpt><trkpt lat="45.4625267" lon="8.39636"><ele>167.5</ele><time>2026-05-01T07:42:29.26Z</time></trkpt><trkpt lat="45.462485" lon="8.3958917"><ele>167.0</ele><time>2026-05-01T07:42:30.26Z</time></trkpt><trkpt lat="45.4624533" lon="8.3954517"><ele>166.5</ele><time>2026-05-01T07:42:31.261Z</time></trkpt><trkpt lat="45.4624217" lon="8.395015"><ele>166.0</ele><time>2026-05-01T07:42:32.261Z</time></trkpt><trkpt lat="45.4623733" lon="8.39458"><ele>165.5</ele><time>2026-05-01T07:42:33.26Z</time></trkpt><trkpt lat="45.4623333" lon="8.3941683"><ele>165.0</ele><time>2026-05-01T07:42:34.26Z</time></trkpt><trkpt lat="45.4622917" lon="8.3937683"><ele>164.5</ele><time>2026-05-01T07:42:35.26Z</time></trkpt><trkpt lat="45.4622567" lon="8.3933667"><ele>164.0</ele><time>2026-05-01T07:42:36.261Z</time></trkpt><trkpt lat="45.462215" lon="8.3929583"><ele>164.0</ele><time>2026-05-01T07:42:37.26Z</time></trkpt><trkpt lat="45.4621867" lon="8.3925633"><ele>164.0</ele><time>2026-05-01T07:42:38.261Z</time></trkpt><trkpt lat="45.46216" lon="8.39215"><ele>164.0</ele><time>2026-05-01T07:42:39.261Z</time></trkpt><trkpt lat="45.462135" lon="8.3917417"><ele>164.0</ele><time>2026-05-01T07:42:40.261Z</time></trkpt><trkpt lat="45.4621033" lon="8.3913083"><ele>164.0</ele><time>2026-05-01T07:42:41.261Z</time></trkpt><trkpt lat="45.4620733" lon="8.3908533"><ele>164.0</ele><time>2026-05-01T07:42:42.261Z</time></trkpt><trkpt lat="45.4620267" lon="8.3903917"><ele>165.0</ele><time>2026-05-01T07:42:43.261Z</time></trkpt><trkpt lat="45.4619983" lon="8.38992"><ele>166.0</ele><time>2026-05-01T07:42:44.26Z</time></trkpt><trkpt lat="45.461985" lon="8.38945"><ele>166.0</ele><time>2026-05-01T07:42:45.261Z</time></trkpt><trkpt lat="45.4619717" lon="8.3889733"><ele>166.0</ele><time>2026-05-01T07:42:46.261Z</time></trkpt><trkpt lat="45.4619617" lon="8.38852"><ele>166.0</ele><time>2026-05-01T07:42:47.26Z</time></trkpt><trkpt lat="45.4619483" lon="8.3880783"><ele>166.0</ele><time>2026-05-01T07:42:48.261Z</time></trkpt><trkpt lat="45.4619267" lon="8.387645"><ele>166.0</ele><time>2026-05-01T07:42:49.261Z</time></trkpt><trkpt lat="45.4619117" lon="8.3872267"><ele>166.0</ele><time>2026-05-01T07:42:50.26Z</time></trkpt><trkpt lat="45.4619017" lon="8.3868133"><ele>165.5</ele><time>2026-05-01T07:42:51.261Z</time></trkpt><trkpt lat="45.461885" lon="8.3864"><ele>165.0</ele><time>2026-05-01T07:42:52.261Z</time></trkpt><trkpt lat="45.4618617" lon="8.3859967"><ele>166.0</ele><time>2026-05-01T07:42:53.261Z</time></trkpt><trkpt lat="45.4618417" lon="8.3855817"><ele>167.0</ele><time>2026-05-01T07:42:54.261Z</time></trkpt><trkpt lat="45.46182" lon="8.3851783"><ele>167.0</ele><time>2026-05-01T07:42:55.261Z</time></trkpt><trkpt lat="45.461805" lon="8.384765"><ele>167.0</ele><time>2026-05-01T07:42:56.261Z</time></trkpt><trkpt lat="45.4617917" lon="8.3843233"><ele>166.0</ele><time>2026-05-01T07:42:57.261Z</time></trkpt><trkpt lat="45.4617567" lon="8.3839067"><ele>165.0</ele><time>2026-05-01T07:42:58.261Z</time></trkpt><trkpt lat="45.4617233" lon="8.3834717"><ele>165.0</ele><time>2026-05-01T07:42:59.26Z</time></trkpt><trkpt lat="45.4617033" lon="8.38304"><ele>165.0</ele><time>2026-05-01T07:43:00.26Z</time></trkpt><trkpt lat="45.4616817" lon="8.3826133"><ele>165.0</ele><time>2026-05-01T07:43:01.261Z</time></trkpt><trkpt lat="45.4616583" lon="8.3821817"><ele>165.0</ele><time>2026-05-01T07:43:02.261Z</time></trkpt><trkpt lat="45.4616333" lon="8.3817367"><ele>165.0</ele><time>2026-05-01T07:43:03.261Z</time></trkpt><trkpt lat="45.4616067" lon="8.3812783"><ele>165.0</ele><time>2026-05-01T07:43:04.26Z</time></trkpt><trkpt lat="45.4615717" lon="8.380805"><ele>164.5</ele><time>2026-05-01T07:43:05.26Z</time></trkpt><trkpt lat="45.4615567" lon="8.3803267"><ele>164.0</ele><time>2026-05-01T07:43:06.26Z</time></trkpt><trkpt lat="45.4615283" lon="8.3798417"><ele>165.0</ele><time>2026-05-01T07:43:07.261Z</time></trkpt><trkpt lat="45.4614983" lon="8.37938"><ele>166.0</ele><time>2026-05-01T07:43:08.261Z</time></trkpt><trkpt lat="45.4614583" lon="8.3789367"><ele>166.5</ele><time>2026-05-01T07:43:09.26Z</time></trkpt><trkpt lat="45.4614167" lon="8.3784917"><ele>167.0</ele><time>2026-05-01T07:43:10.26Z</time></trkpt><trkpt lat="45.4613867" lon="8.3780517"><ele>166.5</ele><time>2026-05-01T07:43:11.261Z</time></trkpt><trkpt lat="45.4613517" lon="8.37759"><ele>166.0</ele><time>2026-05-01T07:43:12.261Z</time></trkpt><trkpt lat="45.4613233" lon="8.3771217"><ele>166.0</ele><time>2026-05-01T07:43:13.261Z</time></trkpt><trkpt lat="45.46129" lon="8.376655"><ele>166.0</ele><time>2026-05-01T07:43:14.261Z</time></trkpt><trkpt lat="45.46125" lon="8.376185"><ele>164.5</ele><time>2026-05-01T07:43:15.261Z</time></trkpt><trkpt lat="45.4612033" lon="8.3757083"><ele>163.0</ele><time>2026-05-01T07:43:16.261Z</time></trkpt><trkpt lat="45.4611733" lon="8.375235"><ele>163.0</ele><time>2026-05-01T07:43:17.261Z</time></trkpt><trkpt lat="45.46114" lon="8.37478"><ele>163.0</ele><time>2026-05-01T07:43:18.26Z</time></trkpt><trkpt lat="45.4611017" lon="8.3743417"><ele>163.0</ele><time>2026-05-01T07:43:19.261Z</time></trkpt><trkpt lat="45.4610583" lon="8.3739083"><ele>163.0</ele><time>2026-05-01T07:43:20.261Z</time></trkpt><trkpt lat="45.4610083" lon="8.3734717"><ele>164.0</ele><time>2026-05-01T07:43:21.26Z</time></trkpt><trkpt lat="45.460965" lon="8.3730133"><ele>165.0</ele><time>2026-05-01T07:43:22.26Z</time></trkpt><trkpt lat="45.4609233" lon="8.3725783"><ele>165.0</ele><time>2026-05-01T07:43:23.26Z</time></trkpt><trkpt lat="45.460885" lon="8.372125"><ele>165.0</ele><time>2026-05-01T07:43:24.261Z</time></trkpt><trkpt lat="45.460835" lon="8.371665"><ele>164.5</ele><time>2026-05-01T07:43:25.261Z</time></trkpt><trkpt lat="45.4607833" lon="8.3711933"><ele>164.0</ele><time>2026-05-01T07:43:26.26Z</time></trkpt><trkpt lat="45.4607283" lon="8.37073"><ele>164.0</ele><time>2026-05-01T07:43:27.261Z</time></trkpt><trkpt lat="45.4606767" lon="8.3702667"><ele>164.0</ele><time>2026-05-01T07:43:28.261Z</time></trkpt><trkpt lat="45.4606233" lon="8.3698083"><ele>163.5</ele><time>2026-05-01T07:43:29.261Z</time></trkpt><trkpt lat="45.4605767" lon="8.369345"><ele>163.0</ele><time>2026-05-01T07:43:30.261Z</time></trkpt><trkpt lat="45.4605217" lon="8.36889"><ele>163.0</ele><time>2026-05-01T07:43:31.261Z</time></trkpt><trkpt lat="45.46047" lon="8.368435"><ele>163.0</ele><time>2026-05-01T07:43:32.261Z</time></trkpt><trkpt lat="45.4604233" lon="8.3679883"><ele>162.5</ele><time>2026-05-01T07:43:33.26Z</time></trkpt><trkpt lat="45.4603733" lon="8.36754"><ele>162.0</ele><time>2026-05-01T07:43:34.26Z</time></trkpt><trkpt lat="45.46032" lon="8.3671067"><ele>161.5</ele><time>2026-05-01T07:43:35.26Z</time></trkpt><trkpt lat="45.4602667" lon="8.3666717"><ele>161.0</ele><time>2026-05-01T07:43:36.261Z</time></trkpt><trkpt lat="45.4602067" lon="8.3662433"><ele>162.0</ele><time>2026-05-01T07:43:37.26Z</time></trkpt><trkpt lat="45.4601433" lon="8.3658183"><ele>163.0</ele><time>2026-05-01T07:43:38.261Z</time></trkpt><trkpt lat="45.4600917" lon="8.3654033"><ele>163.0</ele><time>2026-05-01T07:43:39.261Z</time></trkpt><trkpt lat="45.4600333" lon="8.3649833"><ele>163.0</ele><time>2026-05-01T07:43:40.261Z</time></trkpt><trkpt lat="45.459975" lon="8.3645717"><ele>163.0</ele><time>2026-05-01T07:43:41.26Z</time></trkpt><trkpt lat="45.4599167" lon="8.36416"><ele>163.0</ele><time>2026-05-01T07:43:42.26Z</time></trkpt><trkpt lat="45.4598533" lon="8.3637333"><ele>164.5</ele><time>2026-05-01T07:43:43.261Z</time></trkpt><trkpt lat="45.4597867" lon="8.3633267"><ele>166.0</ele><time>2026-05-01T07:43:44.261Z</time></trkpt><trkpt lat="45.45971" lon="8.3629167"><ele>166.5</ele><time>2026-05-01T07:43:45.26Z</time></trkpt><trkpt lat="45.4596483" lon="8.362515"><ele>167.0</ele><time>2026-05-01T07:43:46.26Z</time></trkpt><trkpt lat="45.4595717" lon="8.3621083"><ele>167.0</ele><time>2026-05-01T07:43:47.26Z</time></trkpt><trkpt lat="45.459515" lon="8.3617067"><ele>167.0</ele><time>2026-05-01T07:43:48.261Z</time></trkpt><trkpt lat="45.4594417" lon="8.361295"><ele>168.0</ele><time>2026-05-01T07:43:49.261Z</time></trkpt><trkpt lat="45.4593767" lon="8.36088"><ele>169.0</ele><time>2026-05-01T07:43:50.261Z</time></trkpt><trkpt lat="45.459305" lon="8.3604467"><ele>169.0</ele><time>2026-05-01T07:43:51.26Z</time></trkpt><trkpt lat="45.4592333" lon="8.3600183"><ele>169.0</ele><time>2026-05-01T07:43:52.26Z</time></trkpt><trkpt lat="45.459165" lon="8.3595833"><ele>169.0</ele><time>2026-05-01T07:43:53.26Z</time></trkpt><trkpt lat="45.459095" lon="8.35915"><ele>169.0</ele><time>2026-05-01T07:43:54.261Z</time></trkpt><trkpt lat="45.4590267" lon="8.3587067"><ele>168.5</ele><time>2026-05-01T07:43:55.26Z</time></trkpt><trkpt lat="45.4589567" lon="8.35825"><ele>168.0</ele><time>2026-05-01T07:43:56.261Z</time></trkpt><trkpt lat="45.4588833" lon="8.3577683"><ele>166.5</ele><time>2026-05-01T07:43:57.261Z</time></trkpt><trkpt lat="45.458805" lon="8.3573033"><ele>165.0</ele><time>2026-05-01T07:43:58.26Z</time></trkpt><trkpt lat="45.458725" lon="8.3568417"><ele>165.0</ele><time>2026-05-01T07:43:59.26Z</time></trkpt><trkpt lat="45.4586583" lon="8.3563783"><ele>165.0</ele><time>2026-05-01T07:44:00.261Z</time></trkpt><trkpt lat="45.458595" lon="8.3559283"><ele>165.5</ele><time>2026-05-01T07:44:01.261Z</time></trkpt><trkpt lat="45.45853" lon="8.3554733"><ele>166.0</ele><time>2026-05-01T07:44:02.261Z</time></trkpt><trkpt lat="45.45846" lon="8.3550267"><ele>167.0</ele><time>2026-05-01T07:44:03.26Z</time></trkpt><trkpt lat="45.4583867" lon="8.3545917"><ele>168.0</ele><time>2026-05-01T07:44:04.261Z</time></trkpt><trkpt lat="45.45831" lon="8.354155"><ele>169.0</ele><time>2026-05-01T07:44:05.261Z</time></trkpt><trkpt lat="45.4582383" lon="8.3537267"><ele>170.0</ele><time>2026-05-01T07:44:06.261Z</time></trkpt><trkpt lat="45.4581533" lon="8.353305"><ele>169.5</ele><time>2026-05-01T07:44:07.261Z</time></trkpt><trkpt lat="45.45809" lon="8.3528867"><ele>169.0</ele><time>2026-05-01T07:44:08.261Z</time></trkpt><trkpt lat="45.45803" lon="8.3524667"><ele>170.0</ele><time>2026-05-01T07:44:09.261Z</time></trkpt><trkpt lat="45.45797" lon="8.3520683"><ele>171.0</ele><time>2026-05-01T07:44:10.261Z</time></trkpt><trkpt lat="45.4579267" lon="8.3516617"><ele>171.5</ele><time>2026-05-01T07:44:11.261Z</time></trkpt><trkpt lat="45.4578633" lon="8.3512767"><ele>172.0</ele><time>2026-05-01T07:44:12.26Z</time></trkpt><trkpt lat="45.457795" lon="8.3508817"><ele>171.5</ele><time>2026-05-01T07:44:13.26Z</time></trkpt><trkpt lat="45.4577383" lon="8.3504783"><ele>171.0</ele><time>2026-05-01T07:44:14.261Z</time></trkpt><trkpt lat="45.4576717" lon="8.3500633"><ele>171.0</ele><time>2026-05-01T07:44:15.26Z</time></trkpt><trkpt lat="45.4576017" lon="8.3496483"><ele>171.0</ele><time>2026-05-01T07:44:16.261Z</time></trkpt><trkpt lat="45.457535" lon="8.34924"><ele>171.0</ele><time>2026-05-01T07:44:17.261Z</time></trkpt><trkpt lat="45.4574683" lon="8.3488167"><ele>171.0</ele><time>2026-05-01T07:44:18.261Z</time></trkpt><trkpt lat="45.4573933" lon="8.348395"><ele>171.0</ele><time>2026-05-01T07:44:19.261Z</time></trkpt><trkpt lat="45.457325" lon="8.3479767"><ele>171.0</ele><time>2026-05-01T07:44:20.261Z</time></trkpt><trkpt lat="45.4572483" lon="8.347555"><ele>171.0</ele><time>2026-05-01T07:44:21.261Z</time></trkpt><trkpt lat="45.4571767" lon="8.3471367"><ele>171.0</ele><time>2026-05-01T07:44:22.261Z</time></trkpt><trkpt lat="45.457105" lon="8.34672"><ele>171.5</ele><time>2026-05-01T07:44:23.26Z</time></trkpt><trkpt lat="45.4570367" lon="8.346295"><ele>172.0</ele><time>2026-05-01T07:44:24.26Z</time></trkpt><trkpt lat="45.4569433" lon="8.34587"><ele>171.5</ele><time>2026-05-01T07:44:25.26Z</time></trkpt><trkpt lat="45.4568783" lon="8.345445"><ele>171.0</ele><time>2026-05-01T07:44:26.261Z</time></trkpt><trkpt lat="45.4568167" lon="8.3450167"><ele>172.0</ele><time>2026-05-01T07:44:27.26Z</time></trkpt><trkpt lat="45.456745" lon="8.34459"><ele>173.0</ele><time>2026-05-01T07:44:28.261Z</time></trkpt><trkpt lat="45.4566683" lon="8.344165"><ele>172.0</ele><time>2026-05-01T07:44:29.261Z</time></trkpt><trkpt lat="45.4565933" lon="8.343745"><ele>171.0</ele><time>2026-05-01T07:44:30.261Z</time></trkpt><trkpt lat="45.4565133" lon="8.34333"><ele>170.5</ele><time>2026-05-01T07:44:31.26Z</time></trkpt><trkpt lat="45.4564283" lon="8.3428983"><ele>170.0</ele><time>2026-05-01T07:44:32.261Z</time></trkpt><trkpt lat="45.4563533" lon="8.3424683"><ele>171.5</ele><time>2026-05-01T07:44:33.261Z</time></trkpt><trkpt lat="45.4562683" lon="8.3420033"><ele>173.0</ele><time>2026-05-01T07:44:34.261Z</time></trkpt><trkpt lat="45.4562033" lon="8.3415617"><ele>172.0</ele><time>2026-05-01T07:44:35.261Z</time></trkpt><trkpt lat="45.4561267" lon="8.341105"><ele>171.0</ele><time>2026-05-01T07:44:36.261Z</time></trkpt><trkpt lat="45.4560533" lon="8.34067"><ele>168.5</ele><time>2026-05-01T07:44:37.261Z</time></trkpt><trkpt lat="45.4559883" lon="8.34023"><ele>166.0</ele><time>2026-05-01T07:44:38.26Z</time></trkpt><trkpt lat="45.4559183" lon="8.3397983"><ele>164.0</ele><time>2026-05-01T07:44:39.261Z</time></trkpt><trkpt lat="45.4558533" lon="8.3393567"><ele>162.0</ele><time>2026-05-01T07:44:40.261Z</time></trkpt><trkpt lat="45.4557817" lon="8.3389317"><ele>162.5</ele><time>2026-05-01T07:44:41.26Z</time></trkpt><trkpt lat="45.4557083" lon="8.3385"><ele>163.0</ele><time>2026-05-01T07:44:42.26Z</time></trkpt><trkpt lat="45.4556317" lon="8.3380683"><ele>164.0</ele><time>2026-05-01T07:44:43.261Z</time></trkpt><trkpt lat="45.455555" lon="8.3376383"><ele>165.0</ele><time>2026-05-01T07:44:44.261Z</time></trkpt><trkpt lat="45.4554817" lon="8.3372"><ele>165.0</ele><time>2026-05-01T07:44:45.261Z</time></trkpt><trkpt lat="45.4554067" lon="8.3367667"><ele>165.0</ele><time>2026-05-01T07:44:46.261Z</time></trkpt><trkpt lat="45.45534" lon="8.3363283"><ele>165.0</ele><time>2026-05-01T07:44:47.26Z</time></trkpt><trkpt lat="45.45528" lon="8.3359"><ele>165.0</ele><time>2026-05-01T07:44:48.26Z</time></trkpt><trkpt lat="45.4552167" lon="8.3354617"><ele>165.0</ele><time>2026-05-01T07:44:49.261Z</time></trkpt><trkpt lat="45.4551417" lon="8.3350267"><ele>165.0</ele><time>2026-05-01T07:44:50.26Z</time></trkpt><trkpt lat="45.4550767" lon="8.33458"><ele>165.0</ele><time>2026-05-01T07:44:51.261Z</time></trkpt><trkpt lat="45.455005" lon="8.33415"><ele>165.0</ele><time>2026-05-01T07:44:52.261Z</time></trkpt><trkpt lat="45.45495" lon="8.3337183"><ele>165.5</ele><time>2026-05-01T07:44:53.261Z</time></trkpt><trkpt lat="45.4548683" lon="8.3332867"><ele>166.0</ele><time>2026-05-01T07:44:54.261Z</time></trkpt><trkpt lat="45.45479" lon="8.33285"><ele>167.5</ele><time>2026-05-01T07:44:55.261Z</time></trkpt><trkpt lat="45.4547183" lon="8.332415"><ele>169.0</ele><time>2026-05-01T07:44:56.261Z</time></trkpt><trkpt lat="45.4546433" lon="8.33197"><ele>169.5</ele><time>2026-05-01T07:44:57.26Z</time></trkpt><trkpt lat="45.454565" lon="8.3315417"><ele>170.0</ele><time>2026-05-01T07:44:58.261Z</time></trkpt><trkpt lat="45.4544933" lon="8.331105"><ele>170.0</ele><time>2026-05-01T07:44:59.26Z</time></trkpt><trkpt lat="45.4544217" lon="8.33067"><ele>170.0</ele><time>2026-05-01T07:45:00.261Z</time></trkpt><trkpt lat="45.4543683" lon="8.3302383"><ele>170.0</ele><time>2026-05-01T07:45:01.26Z</time></trkpt><trkpt lat="45.4543017" lon="8.329815"><ele>170.0</ele><time>2026-05-01T07:45:02.261Z</time></trkpt><trkpt lat="45.4542367" lon="8.3293917"><ele>170.5</ele><time>2026-05-01T07:45:03.26Z</time></trkpt><trkpt lat="45.45418" lon="8.328965"><ele>171.0</ele><time>2026-05-01T07:45:04.261Z</time></trkpt><trkpt lat="45.4541133" lon="8.3285067"><ele>171.0</ele><time>2026-05-01T07:45:05.26Z</time></trkpt><trkpt lat="45.454045" lon="8.3280517"><ele>171.0</ele><time>2026-05-01T07:45:06.261Z</time></trkpt><trkpt lat="45.4539767" lon="8.327595"><ele>171.0</ele><time>2026-05-01T07:45:07.261Z</time></trkpt><trkpt lat="45.4538983" lon="8.32714"><ele>171.0</ele><time>2026-05-01T07:45:08.261Z</time></trkpt><trkpt lat="45.453815" lon="8.32668"><ele>171.5</ele><time>2026-05-01T07:45:09.261Z</time></trkpt><trkpt lat="45.4537367" lon="8.3262183"><ele>172.0</ele><time>2026-05-01T07:45:10.261Z</time></trkpt><trkpt lat="45.4536583" lon="8.325755"><ele>171.5</ele><time>2026-05-01T07:45:11.26Z</time></trkpt><trkpt lat="45.4535767" lon="8.32529"><ele>171.0</ele><time>2026-05-01T07:45:12.261Z</time></trkpt><trkpt lat="45.4535017" lon="8.3248383"><ele>171.0</ele><time>2026-05-01T07:45:13.261Z</time></trkpt><trkpt lat="45.4534233" lon="8.3243867"><ele>171.0</ele><time>2026-05-01T07:45:14.261Z</time></trkpt><trkpt lat="45.4533283" lon="8.3239367"><ele>171.5</ele><time>2026-05-01T07:45:15.261Z</time></trkpt><trkpt lat="45.4532517" lon="8.323485"><ele>172.0</ele><time>2026-05-01T07:45:16.26Z</time></trkpt><trkpt lat="45.4531717" lon="8.323045"><ele>171.5</ele><time>2026-05-01T07:45:17.261Z</time></trkpt><trkpt lat="45.4531067" lon="8.3226067"><ele>171.0</ele><time>2026-05-01T07:45:18.261Z</time></trkpt><trkpt lat="45.453045" lon="8.3221617"><ele>171.0</ele><time>2026-05-01T07:45:19.261Z</time></trkpt><trkpt lat="45.452975" lon="8.3217133"><ele>171.0</ele><time>2026-05-01T07:45:20.261Z</time></trkpt><trkpt lat="45.4528933" lon="8.3212617"><ele>170.5</ele><time>2026-05-01T07:45:21.261Z</time></trkpt><trkpt lat="45.4528217" lon="8.3208117"><ele>170.0</ele><time>2026-05-01T07:45:22.261Z</time></trkpt><trkpt lat="45.4527383" lon="8.3203617"><ele>170.0</ele><time>2026-05-01T07:45:23.26Z</time></trkpt><trkpt lat="45.4526583" lon="8.319925"><ele>170.0</ele><time>2026-05-01T07:45:24.261Z</time></trkpt><trkpt lat="45.4525783" lon="8.31947"><ele>170.5</ele><time>2026-05-01T07:45:25.261Z</time></trkpt><trkpt lat="45.45252" lon="8.3190317"><ele>171.0</ele><time>2026-05-01T07:45:26.261Z</time></trkpt><trkpt lat="45.452435" lon="8.3185967"><ele>170.5</ele><time>2026-05-01T07:45:27.261Z</time></trkpt><trkpt lat="45.4523617" lon="8.3181633"><ele>170.0</ele><time>2026-05-01T07:45:28.26Z</time></trkpt><trkpt lat="45.4522917" lon="8.3177283"><ele>170.0</ele><time>2026-05-01T07:45:29.26Z</time></trkpt><trkpt lat="45.4522167" lon="8.31729"><ele>170.0</ele><time>2026-05-01T07:45:30.261Z</time></trkpt><trkpt lat="45.4521533" lon="8.316855"><ele>169.5</ele><time>2026-05-01T07:45:31.261Z</time></trkpt><trkpt lat="45.45208" lon="8.3164233"><ele>169.0</ele><time>2026-05-01T07:45:32.26Z</time></trkpt><trkpt lat="45.4520033" lon="8.3159883"><ele>169.0</ele><time>2026-05-01T07:45:33.261Z</time></trkpt><trkpt lat="45.45193" lon="8.3155483"><ele>169.0</ele><time>2026-05-01T07:45:34.261Z</time></trkpt><trkpt lat="45.4518633" lon="8.3151133"><ele>170.0</ele><time>2026-05-01T07:45:35.26Z</time></trkpt><trkpt lat="45.4518033" lon="8.3146917"><ele>171.0</ele><time>2026-05-01T07:45:36.261Z</time></trkpt><trkpt lat="45.45173" lon="8.31426"><ele>171.5</ele><time>2026-05-01T07:45:37.261Z</time></trkpt><trkpt lat="45.45164" lon="8.3138167"><ele>172.0</ele><time>2026-05-01T07:45:38.261Z</time></trkpt><trkpt lat="45.4515683" lon="8.313385"><ele>171.5</ele><time>2026-05-01T07:45:39.261Z</time></trkpt><trkpt lat="45.4514933" lon="8.3129583"><ele>171.0</ele><time>2026-05-01T07:45:40.261Z</time></trkpt><trkpt lat="45.451425" lon="8.3125333"><ele>169.0</ele><time>2026-05-01T07:45:41.261Z</time></trkpt><trkpt lat="45.4513583" lon="8.312115"><ele>167.0</ele><time>2026-05-01T07:45:42.261Z</time></trkpt><trkpt lat="45.4512933" lon="8.31168"><ele>163.0</ele><time>2026-05-01T07:45:43.26Z</time></trkpt><trkpt lat="45.451215" lon="8.3112467"><ele>159.0</ele><time>2026-05-01T07:45:44.26Z</time></trkpt><trkpt lat="45.4511483" lon="8.3108033"><ele>159.0</ele><time>2026-05-01T07:45:45.261Z</time></trkpt><trkpt lat="45.451065" lon="8.3103583"><ele>159.0</ele><time>2026-05-01T07:45:46.26Z</time></trkpt><trkpt lat="45.451" lon="8.309915"><ele>159.5</ele><time>2026-05-01T07:45:47.261Z</time></trkpt><trkpt lat="45.450925" lon="8.3094683"><ele>160.0</ele><time>2026-05-01T07:45:48.261Z</time></trkpt><trkpt lat="45.450855" lon="8.3090267"><ele>160.0</ele><time>2026-05-01T07:45:49.261Z</time></trkpt><trkpt lat="45.4507817" lon="8.3085883"><ele>160.0</ele><time>2026-05-01T07:45:50.261Z</time></trkpt><trkpt lat="45.4507183" lon="8.30816"><ele>161.0</ele><time>2026-05-01T07:45:51.261Z</time></trkpt><trkpt lat="45.4506417" lon="8.3077167"><ele>162.0</ele><time>2026-05-01T07:45:52.26Z</time></trkpt><trkpt lat="45.450565" lon="8.307275"><ele>161.5</ele><time>2026-05-01T07:45:53.26Z</time></trkpt><trkpt lat="45.4504883" lon="8.30684"><ele>161.0</ele><time>2026-05-01T07:45:54.261Z</time></trkpt><trkpt lat="45.4504183" lon="8.306405"><ele>160.0</ele><time>2026-05-01T07:45:55.261Z</time></trkpt><trkpt lat="45.4503483" lon="8.30597"><ele>159.0</ele><time>2026-05-01T07:45:56.26Z</time></trkpt><trkpt lat="45.4502783" lon="8.3055483"><ele>159.0</ele><time>2026-05-01T07:45:57.26Z</time></trkpt><trkpt lat="45.450215" lon="8.3051317"><ele>159.0</ele><time>2026-05-01T07:45:58.26Z</time></trkpt><trkpt lat="45.45015" lon="8.3047133"><ele>159.0</ele><time>2026-05-01T07:45:59.261Z</time></trkpt><trkpt lat="45.4500883" lon="8.3043017"><ele>159.0</ele><time>2026-05-01T07:46:00.261Z</time></trkpt><trkpt lat="45.45001" lon="8.3038717"><ele>159.0</ele><time>2026-05-01T07:46:01.261Z</time></trkpt><trkpt lat="45.4499467" lon="8.30346"><ele>159.0</ele><time>2026-05-01T07:46:02.261Z</time></trkpt><trkpt lat="45.4498817" lon="8.3030483"><ele>159.0</ele><time>2026-05-01T07:46:03.26Z</time></trkpt><trkpt lat="45.4498" lon="8.3026233"><ele>159.0</ele><time>2026-05-01T07:46:04.26Z</time></trkpt><trkpt lat="45.4497317" lon="8.3021867"><ele>159.0</ele><time>2026-05-01T07:46:05.261Z</time></trkpt><trkpt lat="45.4496633" lon="8.3017517"><ele>159.0</ele><time>2026-05-01T07:46:06.261Z</time></trkpt><trkpt lat="45.449595" lon="8.301315"><ele>160.0</ele><time>2026-05-01T07:46:07.261Z</time></trkpt><trkpt lat="45.4495267" lon="8.3008583"><ele>161.0</ele><time>2026-05-01T07:46:08.26Z</time></trkpt><trkpt lat="45.4494533" lon="8.3003967"><ele>161.0</ele><time>2026-05-01T07:46:09.261Z</time></trkpt><trkpt lat="45.4493917" lon="8.2999317"><ele>161.0</ele><time>2026-05-01T07:46:10.261Z</time></trkpt><trkpt lat="45.449315" lon="8.2994983"><ele>160.0</ele><time>2026-05-01T07:46:11.261Z</time></trkpt><trkpt lat="45.44923" lon="8.2990433"><ele>159.0</ele><time>2026-05-01T07:46:12.261Z</time></trkpt><trkpt lat="45.4491417" lon="8.2985983"><ele>159.0</ele><time>2026-05-01T07:46:13.261Z</time></trkpt><trkpt lat="45.4490733" lon="8.2981533"><ele>159.0</ele><time>2026-05-01T07:46:14.261Z</time></trkpt><trkpt lat="45.4489983" lon="8.2977183"><ele>159.0</ele><time>2026-05-01T07:46:15.26Z</time></trkpt><trkpt lat="45.4489333" lon="8.297285"><ele>159.0</ele><time>2026-05-01T07:46:16.26Z</time></trkpt><trkpt lat="45.4488633" lon="8.2968517"><ele>159.0</ele><time>2026-05-01T07:46:17.261Z</time></trkpt><trkpt lat="45.448795" lon="8.2964133"><ele>159.0</ele><time>2026-05-01T07:46:18.26Z</time></trkpt><trkpt lat="45.448725" lon="8.2959767"><ele>159.5</ele><time>2026-05-01T07:46:19.261Z</time></trkpt><trkpt lat="45.4486533" lon="8.2955417"><ele>160.0</ele><time>2026-05-01T07:46:20.26Z</time></trkpt><trkpt lat="45.4485833" lon="8.29511"><ele>161.0</ele><time>2026-05-01T07:46:21.26Z</time></trkpt><trkpt lat="45.448515" lon="8.2946867"><ele>162.0</ele><time>2026-05-01T07:46:22.261Z</time></trkpt><trkpt lat="45.448445" lon="8.2942667"><ele>162.0</ele><time>2026-05-01T07:46:23.26Z</time></trkpt><trkpt lat="45.44838" lon="8.29386"><ele>162.0</ele><time>2026-05-01T07:46:24.261Z</time></trkpt><trkpt lat="45.4483133" lon="8.2934433"><ele>161.5</ele><time>2026-05-01T07:46:25.261Z</time></trkpt><trkpt lat="45.4482433" lon="8.2930283"><ele>161.0</ele><time>2026-05-01T07:46:26.26Z</time></trkpt><trkpt lat="45.4481733" lon="8.2926067"><ele>161.5</ele><time>2026-05-01T07:46:27.261Z</time></trkpt><trkpt lat="45.4481033" lon="8.2921767"><ele>162.0</ele><time>2026-05-01T07:46:28.261Z</time></trkpt><trkpt lat="45.44803" lon="8.2917467"><ele>162.5</ele><time>2026-05-01T07:46:29.261Z</time></trkpt><trkpt lat="45.4479617" lon="8.291315"><ele>163.0</ele><time>2026-05-01T07:46:30.26Z</time></trkpt><trkpt lat="45.44789" lon="8.2908767"><ele>162.0</ele><time>2026-05-01T07:46:31.26Z</time></trkpt><trkpt lat="45.4478067" lon="8.2904283"><ele>161.0</ele><time>2026-05-01T07:46:32.261Z</time></trkpt><trkpt lat="45.4477283" lon="8.289985"><ele>160.5</ele><time>2026-05-01T07:46:33.261Z</time></trkpt><trkpt lat="45.44766" lon="8.2895467"><ele>160.0</ele><time>2026-05-01T07:46:34.261Z</time></trkpt><trkpt lat="45.4475867" lon="8.2891133"><ele>159.5</ele><time>2026-05-01T07:46:35.26Z</time></trkpt><trkpt lat="45.4475033" lon="8.288675"><ele>159.0</ele><time>2026-05-01T07:46:36.261Z</time></trkpt><trkpt lat="45.4474267" lon="8.288245"><ele>159.5</ele><time>2026-05-01T07:46:37.261Z</time></trkpt><trkpt lat="45.4473483" lon="8.2878083"><ele>160.0</ele><time>2026-05-01T07:46:38.261Z</time></trkpt><trkpt lat="45.4472767" lon="8.287365"><ele>160.5</ele><time>2026-05-01T07:46:39.26Z</time></trkpt><trkpt lat="45.4471967" lon="8.2869233"><ele>161.0</ele><time>2026-05-01T07:46:40.26Z</time></trkpt><trkpt lat="45.4471267" lon="8.2864783"><ele>161.0</ele><time>2026-05-01T07:46:41.261Z</time></trkpt><trkpt lat="45.4470533" lon="8.2860267"><ele>161.0</ele><time>2026-05-01T07:46:42.261Z</time></trkpt><trkpt lat="45.446985" lon="8.285585"><ele>161.0</ele><time>2026-05-01T07:46:43.26Z</time></trkpt><trkpt lat="45.446915" lon="8.2851383"><ele>161.0</ele><time>2026-05-01T07:46:44.261Z</time></trkpt><trkpt lat="45.446835" lon="8.284705"><ele>160.0</ele><time>2026-05-01T07:46:45.261Z</time></trkpt><trkpt lat="45.4467617" lon="8.284275"><ele>159.0</ele><time>2026-05-01T07:46:46.26Z</time></trkpt><trkpt lat="45.446685" lon="8.28383"><ele>159.0</ele><time>2026-05-01T07:46:47.261Z</time></trkpt><trkpt lat="45.446605" lon="8.283405"><ele>159.0</ele><time>2026-05-01T07:46:48.261Z</time></trkpt><trkpt lat="45.4465283" lon="8.2829867"><ele>159.0</ele><time>2026-05-01T07:46:49.261Z</time></trkpt><trkpt lat="45.4464533" lon="8.282565"><ele>159.0</ele><time>2026-05-01T07:46:50.26Z</time></trkpt><trkpt lat="45.44638" lon="8.2821433"><ele>159.0</ele><time>2026-05-01T07:46:51.261Z</time></trkpt><trkpt lat="45.4463017" lon="8.2816983"><ele>159.0</ele><time>2026-05-01T07:46:52.261Z</time></trkpt><trkpt lat="45.44623" lon="8.2812567"><ele>159.0</ele><time>2026-05-01T07:46:53.261Z</time></trkpt><trkpt lat="45.4461533" lon="8.28081"><ele>159.0</ele><time>2026-05-01T07:46:54.261Z</time></trkpt><trkpt lat="45.446075" lon="8.2803717"><ele>159.0</ele><time>2026-05-01T07:46:55.261Z</time></trkpt><trkpt lat="45.4459967" lon="8.2799317"><ele>159.0</ele><time>2026-05-01T07:46:56.261Z</time></trkpt><trkpt lat="45.4459283" lon="8.2795033"><ele>160.0</ele><time>2026-05-01T07:46:57.261Z</time></trkpt><trkpt lat="45.445855" lon="8.2790617"><ele>161.0</ele><time>2026-05-01T07:46:58.261Z</time></trkpt><trkpt lat="45.44579" lon="8.2786217"><ele>161.0</ele><time>2026-05-01T07:46:59.261Z</time></trkpt><trkpt lat="45.4457217" lon="8.2781867"><ele>161.0</ele><time>2026-05-01T07:47:00.26Z</time></trkpt><trkpt lat="45.44565" lon="8.2777433"><ele>161.5</ele><time>2026-05-01T07:47:01.261Z</time></trkpt><trkpt lat="45.445585" lon="8.27729"><ele>162.0</ele><time>2026-05-01T07:47:02.261Z</time></trkpt><trkpt lat="45.4455233" lon="8.2768433"><ele>162.0</ele><time>2026-05-01T07:47:03.26Z</time></trkpt><trkpt lat="45.4454633" lon="8.2764017"><ele>162.0</ele><time>2026-05-01T07:47:04.261Z</time></trkpt><trkpt lat="45.4454" lon="8.2759517"><ele>162.0</ele><time>2026-05-01T07:47:05.26Z</time></trkpt><trkpt lat="45.4453467" lon="8.2755133"><ele>162.0</ele><time>2026-05-01T07:47:06.261Z</time></trkpt><trkpt lat="45.445285" lon="8.2750683"><ele>162.5</ele><time>2026-05-01T07:47:07.261Z</time></trkpt><trkpt lat="45.4452217" lon="8.2746283"><ele>163.0</ele><time>2026-05-01T07:47:08.26Z</time></trkpt><trkpt lat="45.44516" lon="8.2741867"><ele>162.0</ele><time>2026-05-01T07:47:09.261Z</time></trkpt><trkpt lat="45.4451017" lon="8.2737417"><ele>161.0</ele><time>2026-05-01T07:47:10.261Z</time></trkpt><trkpt lat="45.445035" lon="8.2733"><ele>160.5</ele><time>2026-05-01T07:47:11.261Z</time></trkpt><trkpt lat="45.4449717" lon="8.2728567"><ele>160.0</ele><time>2026-05-01T07:47:12.26Z</time></trkpt><trkpt lat="45.4449017" lon="8.27242"><ele>160.5</ele><time>2026-05-01T07:47:13.26Z</time></trkpt><trkpt lat="45.44484" lon="8.2719783"><ele>161.0</ele><time>2026-05-01T07:47:14.261Z</time></trkpt><trkpt lat="45.4447833" lon="8.27155"><ele>161.5</ele><time>2026-05-01T07:47:15.26Z</time></trkpt><trkpt lat="45.44472" lon="8.271105"><ele>162.0</ele><time>2026-05-01T07:47:16.261Z</time></trkpt><trkpt lat="45.4446567" lon="8.2706783"><ele>161.0</ele><time>2026-05-01T07:47:17.261Z</time></trkpt><trkpt lat="45.4445883" lon="8.270245"><ele>160.0</ele><time>2026-05-01T07:47:18.261Z</time></trkpt><trkpt lat="45.4445183" lon="8.2698133"><ele>162.0</ele><time>2026-05-01T07:47:19.26Z</time></trkpt><trkpt lat="45.44443" lon="8.2693667"><ele>164.0</ele><time>2026-05-01T07:47:20.26Z</time></trkpt><trkpt lat="45.4443533" lon="8.2689233"><ele>165.0</ele><time>2026-05-01T07:47:21.261Z</time></trkpt><trkpt lat="45.4442833" lon="8.268475"><ele>166.0</ele><time>2026-05-01T07:47:22.261Z</time></trkpt><trkpt lat="45.4442133" lon="8.2680317"><ele>167.0</ele><time>2026-05-01T07:47:23.261Z</time></trkpt><trkpt lat="45.4441383" lon="8.267585"><ele>168.0</ele><time>2026-05-01T07:47:24.261Z</time></trkpt><trkpt lat="45.44405" lon="8.2671333"><ele>168.0</ele><time>2026-05-01T07:47:25.261Z</time></trkpt><trkpt lat="45.4439617" lon="8.2666883"><ele>168.0</ele><time>2026-05-01T07:47:26.26Z</time></trkpt><trkpt lat="45.4438617" lon="8.2662533"><ele>169.5</ele><time>2026-05-01T07:47:27.26Z</time></trkpt><trkpt lat="45.4437817" lon="8.265825"><ele>171.0</ele><time>2026-05-01T07:47:28.26Z</time></trkpt><trkpt lat="45.443705" lon="8.2653967"><ele>171.5</ele><time>2026-05-01T07:47:29.261Z</time></trkpt><trkpt lat="45.443635" lon="8.264975"><ele>172.0</ele><time>2026-05-01T07:47:30.261Z</time></trkpt><trkpt lat="45.4435533" lon="8.2645483"><ele>172.0</ele><time>2026-05-01T07:47:31.261Z</time></trkpt><trkpt lat="45.4434683" lon="8.264115"><ele>172.0</ele><time>2026-05-01T07:47:32.261Z</time></trkpt><trkpt lat="45.443385" lon="8.2636683"><ele>172.0</ele><time>2026-05-01T07:47:33.261Z</time></trkpt><trkpt lat="45.4432967" lon="8.2632367"><ele>172.0</ele><time>2026-05-01T07:47:34.261Z</time></trkpt><trkpt lat="45.443225" lon="8.2628017"><ele>172.0</ele><time>2026-05-01T07:47:35.261Z</time></trkpt><trkpt lat="45.443145" lon="8.2623533"><ele>172.0</ele><time>2026-05-01T07:47:36.261Z</time></trkpt><trkpt lat="45.44307" lon="8.2619117"><ele>171.5</ele><time>2026-05-01T07:47:37.261Z</time></trkpt><trkpt lat="45.4429933" lon="8.2614767"><ele>171.0</ele><time>2026-05-01T07:47:38.261Z</time></trkpt><trkpt lat="45.442915" lon="8.2610417"><ele>172.0</ele><time>2026-05-01T07:47:39.261Z</time></trkpt><trkpt lat="45.44285" lon="8.260615"><ele>173.0</ele><time>2026-05-01T07:47:40.261Z</time></trkpt><trkpt lat="45.4427867" lon="8.2601933"><ele>173.0</ele><time>2026-05-01T07:47:41.261Z</time></trkpt><trkpt lat="45.442715" lon="8.259775"><ele>173.0</ele><time>2026-05-01T07:47:42.261Z</time></trkpt><trkpt lat="45.4426483" lon="8.25935"><ele>175.0</ele><time>2026-05-01T07:47:43.26Z</time></trkpt><trkpt lat="45.4425783" lon="8.2589083"><ele>177.0</ele><time>2026-05-01T07:47:44.261Z</time></trkpt><trkpt lat="45.4425033" lon="8.2584767"><ele>175.5</ele><time>2026-05-01T07:47:45.261Z</time></trkpt><trkpt lat="45.4424283" lon="8.2580483"><ele>174.0</ele><time>2026-05-01T07:47:46.26Z</time></trkpt><trkpt lat="45.4423567" lon="8.25762"><ele>173.5</ele><time>2026-05-01T07:47:47.26Z</time></trkpt><trkpt lat="45.4423" lon="8.2571783"><ele>173.0</ele><time>2026-05-01T07:47:48.261Z</time></trkpt><trkpt lat="45.4422333" lon="8.2567333"><ele>173.0</ele><time>2026-05-01T07:47:49.261Z</time></trkpt><trkpt lat="45.4421517" lon="8.2562817"><ele>173.0</ele><time>2026-05-01T07:47:50.261Z</time></trkpt><trkpt lat="45.4420717" lon="8.255845"><ele>173.0</ele><time>2026-05-01T07:47:51.261Z</time></trkpt><trkpt lat="45.44199" lon="8.2554083"><ele>173.0</ele><time>2026-05-01T07:47:52.26Z</time></trkpt><trkpt lat="45.4418983" lon="8.2549567"><ele>173.0</ele><time>2026-05-01T07:47:53.261Z</time></trkpt><trkpt lat="45.4418183" lon="8.2545117"><ele>173.0</ele><time>2026-05-01T07:47:54.261Z</time></trkpt><trkpt lat="45.441745" lon="8.254075"><ele>173.0</ele><time>2026-05-01T07:47:55.26Z</time></trkpt><trkpt lat="45.44167" lon="8.2536233"><ele>173.0</ele><time>2026-05-01T07:47:56.261Z</time></trkpt><trkpt lat="45.4416033" lon="8.25319"><ele>173.5</ele><time>2026-05-01T07:47:57.261Z</time></trkpt><trkpt lat="45.4415117" lon="8.25275"><ele>174.0</ele><time>2026-05-01T07:47:58.26Z</time></trkpt><trkpt lat="45.44143" lon="8.2523133"><ele>174.0</ele><time>2026-05-01T07:47:59.261Z</time></trkpt><trkpt lat="45.4413567" lon="8.2518833"><ele>174.0</ele><time>2026-05-01T07:48:00.261Z</time></trkpt><trkpt lat="45.4412917" lon="8.2514633"><ele>173.5</ele><time>2026-05-01T07:48:01.261Z</time></trkpt><trkpt lat="45.44122" lon="8.251035"><ele>173.0</ele><time>2026-05-01T07:48:02.261Z</time></trkpt><trkpt lat="45.4411483" lon="8.2506033"><ele>172.5</ele><time>2026-05-01T07:48:03.261Z</time></trkpt><trkpt lat="45.441075" lon="8.2501583"><ele>172.0</ele><time>2026-05-01T07:48:04.261Z</time></trkpt><trkpt lat="45.4410033" lon="8.2497267"><ele>173.0</ele><time>2026-05-01T07:48:05.261Z</time></trkpt><trkpt lat="45.4409317" lon="8.2492933"><ele>174.0</ele><time>2026-05-01T07:48:06.261Z</time></trkpt><trkpt lat="45.4408583" lon="8.24886"><ele>174.0</ele><time>2026-05-01T07:48:07.261Z</time></trkpt><trkpt lat="45.4407883" lon="8.2484267"><ele>174.0</ele><time>2026-05-01T07:48:08.261Z</time></trkpt><trkpt lat="45.4407233" lon="8.248005"><ele>173.5</ele><time>2026-05-01T07:48:09.26Z</time></trkpt><trkpt lat="45.440645" lon="8.247585"><ele>173.0</ele><time>2026-05-01T07:48:10.26Z</time></trkpt><trkpt lat="45.4405767" lon="8.2471617"><ele>174.5</ele><time>2026-05-01T07:48:11.261Z</time></trkpt><trkpt lat="45.4405067" lon="8.2467383"><ele>176.0</ele><time>2026-05-01T07:48:12.261Z</time></trkpt><trkpt lat="45.4404367" lon="8.24632"><ele>176.5</ele><time>2026-05-01T07:48:13.261Z</time></trkpt><trkpt lat="45.440355" lon="8.2458933"><ele>177.0</ele><time>2026-05-01T07:48:14.261Z</time></trkpt><trkpt lat="45.4402833" lon="8.2454583"><ele>178.0</ele><time>2026-05-01T07:48:15.261Z</time></trkpt><trkpt lat="45.440225" lon="8.24503"><ele>179.0</ele><time>2026-05-01T07:48:16.26Z</time></trkpt><trkpt lat="45.4401567" lon="8.2445883"><ele>179.0</ele><time>2026-05-01T07:48:17.261Z</time></trkpt><trkpt lat="45.4400767" lon="8.24415"><ele>179.0</ele><time>2026-05-01T07:48:18.261Z</time></trkpt><trkpt lat="45.4400017" lon="8.2437167"><ele>179.5</ele><time>2026-05-01T07:48:19.261Z</time></trkpt><trkpt lat="45.4399233" lon="8.2432733"><ele>180.0</ele><time>2026-05-01T07:48:20.261Z</time></trkpt><trkpt lat="45.4398467" lon="8.24284"><ele>180.5</ele><time>2026-05-01T07:48:21.261Z</time></trkpt><trkpt lat="45.4397583" lon="8.2423917"><ele>181.0</ele><time>2026-05-01T07:48:22.261Z</time></trkpt><trkpt lat="45.439665" lon="8.2419483"><ele>180.5</ele><time>2026-05-01T07:48:23.261Z</time></trkpt><trkpt lat="45.4395983" lon="8.24151"><ele>180.0</ele><time>2026-05-01T07:48:24.261Z</time></trkpt><trkpt lat="45.43953" lon="8.2410667"><ele>180.5</ele><time>2026-05-01T07:48:25.261Z</time></trkpt><trkpt lat="45.4394717" lon="8.2406283"><ele>181.0</ele><time>2026-05-01T07:48:26.261Z</time></trkpt><trkpt lat="45.4394033" lon="8.24018"><ele>181.0</ele><time>2026-05-01T07:48:27.261Z</time></trkpt><trkpt lat="45.4393267" lon="8.2397383"><ele>181.0</ele><time>2026-05-01T07:48:28.261Z</time></trkpt><trkpt lat="45.4392467" lon="8.2392883"><ele>180.0</ele><time>2026-05-01T07:48:29.261Z</time></trkpt><trkpt lat="45.43917" lon="8.2388433"><ele>179.0</ele><time>2026-05-01T07:48:30.26Z</time></trkpt><trkpt lat="45.43909" lon="8.2383833"><ele>179.0</ele><time>2026-05-01T07:48:31.261Z</time></trkpt><trkpt lat="45.4390083" lon="8.2379317"><ele>179.0</ele><time>2026-05-01T07:48:32.261Z</time></trkpt><trkpt lat="45.4389333" lon="8.2374717"><ele>179.0</ele><time>2026-05-01T07:48:33.261Z</time></trkpt><trkpt lat="45.43887" lon="8.237035"><ele>179.0</ele><time>2026-05-01T07:48:34.26Z</time></trkpt><trkpt lat="45.4388" lon="8.2365917"><ele>178.5</ele><time>2026-05-01T07:48:35.261Z</time></trkpt><trkpt lat="45.4387283" lon="8.23616"><ele>178.0</ele><time>2026-05-01T07:48:36.261Z</time></trkpt><trkpt lat="45.438655" lon="8.2357267"><ele>178.5</ele><time>2026-05-01T07:48:37.261Z</time></trkpt><trkpt lat="45.4385817" lon="8.2352983"><ele>179.0</ele><time>2026-05-01T07:48:38.261Z</time></trkpt><trkpt lat="45.43852" lon="8.2348667"><ele>178.5</ele><time>2026-05-01T07:48:39.261Z</time></trkpt><trkpt lat="45.4384567" lon="8.23444"><ele>178.0</ele><time>2026-05-01T07:48:40.261Z</time></trkpt><trkpt lat="45.438395" lon="8.2340133"><ele>178.5</ele><time>2026-05-01T07:48:41.261Z</time></trkpt><trkpt lat="45.438335" lon="8.2335817"><ele>179.0</ele><time>2026-05-01T07:48:42.261Z</time></trkpt><trkpt lat="45.4382633" lon="8.2331567"><ele>178.5</ele><time>2026-05-01T07:48:43.261Z</time></trkpt><trkpt lat="45.4381917" lon="8.2327183"><ele>178.0</ele><time>2026-05-01T07:48:44.261Z</time></trkpt><trkpt lat="45.4381117" lon="8.232275"><ele>179.0</ele><time>2026-05-01T07:48:45.261Z</time></trkpt><trkpt lat="45.4380317" lon="8.23182"><ele>180.0</ele><time>2026-05-01T07:48:46.261Z</time></trkpt><trkpt lat="45.43796" lon="8.2313383"><ele>180.0</ele><time>2026-05-01T07:48:47.261Z</time></trkpt><trkpt lat="45.437885" lon="8.2308883"><ele>180.0</ele><time>2026-05-01T07:48:48.261Z</time></trkpt><trkpt lat="45.4378" lon="8.23043"><ele>181.0</ele><time>2026-05-01T07:48:49.26Z</time></trkpt><trkpt lat="45.43773" lon="8.2299883"><ele>182.0</ele><time>2026-05-01T07:48:50.261Z</time></trkpt><trkpt lat="45.4376383" lon="8.2295333"><ele>182.5</ele><time>2026-05-01T07:48:51.261Z</time></trkpt><trkpt lat="45.437555" lon="8.2290867"><ele>183.0</ele><time>2026-05-01T07:48:52.261Z</time></trkpt><trkpt lat="45.4374733" lon="8.228645"><ele>184.0</ele><time>2026-05-01T07:48:53.261Z</time></trkpt><trkpt lat="45.4373867" lon="8.2282033"><ele>185.0</ele><time>2026-05-01T07:48:54.261Z</time></trkpt><trkpt lat="45.4373033" lon="8.2277583"><ele>184.5</ele><time>2026-05-01T07:48:55.261Z</time></trkpt><trkpt lat="45.4372117" lon="8.22731"><ele>184.0</ele><time>2026-05-01T07:48:56.26Z</time></trkpt><trkpt lat="45.4371117" lon="8.2268633"><ele>184.5</ele><time>2026-05-01T07:48:57.26Z</time></trkpt><trkpt lat="45.43703" lon="8.2264383"><ele>185.0</ele><time>2026-05-01T07:48:58.26Z</time></trkpt><trkpt lat="45.436945" lon="8.226005"><ele>185.0</ele><time>2026-05-01T07:48:59.261Z</time></trkpt><trkpt lat="45.4368567" lon="8.2255783"><ele>185.0</ele><time>2026-05-01T07:49:00.261Z</time></trkpt><trkpt lat="45.4367683" lon="8.22516"><ele>185.0</ele><time>2026-05-01T07:49:01.261Z</time></trkpt><trkpt lat="45.4366717" lon="8.22473"><ele>185.0</ele><time>2026-05-01T07:49:02.261Z</time></trkpt><trkpt lat="45.436575" lon="8.2242983"><ele>185.0</ele><time>2026-05-01T07:49:03.26Z</time></trkpt><trkpt lat="45.4364783" lon="8.2238617"><ele>185.0</ele><time>2026-05-01T07:49:04.26Z</time></trkpt><trkpt lat="45.4363833" lon="8.2234417"><ele>184.5</ele><time>2026-05-01T07:49:05.261Z</time></trkpt><trkpt lat="45.436295" lon="8.223015"><ele>184.0</ele><time>2026-05-01T07:49:06.261Z</time></trkpt><trkpt lat="45.4361783" lon="8.2225717"><ele>184.5</ele><time>2026-05-01T07:49:07.261Z</time></trkpt><trkpt lat="45.4360767" lon="8.2221333"><ele>185.0</ele><time>2026-05-01T07:49:08.26Z</time></trkpt><trkpt lat="45.4359767" lon="8.2217033"><ele>186.0</ele><time>2026-05-01T07:49:09.261Z</time></trkpt><trkpt lat="45.4358817" lon="8.2212733"><ele>187.0</ele><time>2026-05-01T07:49:10.26Z</time></trkpt><trkpt lat="45.4357733" lon="8.2208267"><ele>186.0</ele><time>2026-05-01T07:49:11.26Z</time></trkpt><trkpt lat="45.4356667" lon="8.2203717"><ele>185.0</ele><time>2026-05-01T07:49:12.261Z</time></trkpt><trkpt lat="45.43557" lon="8.21993"><ele>184.0</ele><time>2026-05-01T07:49:13.26Z</time></trkpt><trkpt lat="45.435445" lon="8.21948"><ele>183.0</ele><time>2026-05-01T07:49:14.261Z</time></trkpt><trkpt lat="45.4353217" lon="8.2190483"><ele>184.5</ele><time>2026-05-01T07:49:15.261Z</time></trkpt><trkpt lat="45.4351983" lon="8.2186"><ele>186.0</ele><time>2026-05-01T07:49:16.261Z</time></trkpt><trkpt lat="45.4350933" lon="8.2181633"><ele>185.5</ele><time>2026-05-01T07:49:17.261Z</time></trkpt><trkpt lat="45.434995" lon="8.21774"><ele>185.0</ele><time>2026-05-01T07:49:18.26Z</time></trkpt><trkpt lat="45.4348967" lon="8.2173367"><ele>185.0</ele><time>2026-05-01T07:49:19.26Z</time></trkpt><trkpt lat="45.4348017" lon="8.2169367"><ele>185.0</ele><time>2026-05-01T07:49:20.261Z</time></trkpt><trkpt lat="45.4346967" lon="8.2165383"><ele>185.5</ele><time>2026-05-01T07:49:21.26Z</time></trkpt><trkpt lat="45.4345917" lon="8.2161383"><ele>186.0</ele><time>2026-05-01T07:49:22.261Z</time></trkpt><trkpt lat="45.4344833" lon="8.2157333"><ele>186.0</ele><time>2026-05-01T07:49:23.261Z</time></trkpt><trkpt lat="45.434375" lon="8.2153167"><ele>186.0</ele><time>2026-05-01T07:49:24.261Z</time></trkpt><trkpt lat="45.4342567" lon="8.2149033"><ele>186.0</ele><time>2026-05-01T07:49:25.261Z</time></trkpt><trkpt lat="45.434125" lon="8.214485"><ele>186.0</ele><time>2026-05-01T07:49:26.26Z</time></trkpt><trkpt lat="45.434" lon="8.2140617"><ele>186.0</ele><time>2026-05-01T07:49:27.261Z</time></trkpt><trkpt lat="45.4338683" lon="8.2136283"><ele>186.0</ele><time>2026-05-01T07:49:28.261Z</time></trkpt><trkpt lat="45.433735" lon="8.21321"><ele>186.0</ele><time>2026-05-01T07:49:29.261Z</time></trkpt><trkpt lat="45.4336017" lon="8.2127933"><ele>186.0</ele><time>2026-05-01T07:49:30.261Z</time></trkpt><trkpt lat="45.4334833" lon="8.2123767"><ele>186.0</ele><time>2026-05-01T07:49:31.261Z</time></trkpt><trkpt lat="45.4333633" lon="8.2119533"><ele>186.0</ele><time>2026-05-01T07:49:32.261Z</time></trkpt><trkpt lat="45.4332383" lon="8.2115383"><ele>186.0</ele><time>2026-05-01T07:49:33.261Z</time></trkpt><trkpt lat="45.4331017" lon="8.2111233"><ele>186.0</ele><time>2026-05-01T07:49:34.261Z</time></trkpt><trkpt lat="45.4329783" lon="8.21072"><ele>187.0</ele><time>2026-05-01T07:49:35.26Z</time></trkpt><trkpt lat="45.432845" lon="8.2103217"><ele>188.0</ele><time>2026-05-01T07:49:36.261Z</time></trkpt><trkpt lat="45.4327217" lon="8.209925"><ele>188.5</ele><time>2026-05-01T07:49:37.261Z</time></trkpt><trkpt lat="45.4325833" lon="8.20952"><ele>189.0</ele><time>2026-05-01T07:49:38.261Z</time></trkpt><trkpt lat="45.432445" lon="8.2091233"><ele>189.5</ele><time>2026-05-01T07:49:39.261Z</time></trkpt><trkpt lat="45.4323183" lon="8.20873"><ele>190.0</ele><time>2026-05-01T07:49:40.261Z</time></trkpt><trkpt lat="45.43219" lon="8.2083367"><ele>189.5</ele><time>2026-05-01T07:49:41.261Z</time></trkpt><trkpt lat="45.4320567" lon="8.2079517"><ele>189.0</ele><time>2026-05-01T07:49:42.261Z</time></trkpt><trkpt lat="45.4319167" lon="8.2075683"><ele>189.5</ele><time>2026-05-01T07:49:43.261Z</time></trkpt><trkpt lat="45.43179" lon="8.2071967"><ele>190.0</ele><time>2026-05-01T07:49:44.26Z</time></trkpt><trkpt lat="45.431665" lon="8.2068133"><ele>190.5</ele><time>2026-05-01T07:49:45.261Z</time></trkpt><trkpt lat="45.431525" lon="8.2064317"><ele>191.0</ele><time>2026-05-01T07:49:46.261Z</time></trkpt><trkpt lat="45.4313917" lon="8.2060533"><ele>191.0</ele><time>2026-05-01T07:49:47.26Z</time></trkpt><trkpt lat="45.4312417" lon="8.205665"><ele>191.0</ele><time>2026-05-01T07:49:48.261Z</time></trkpt><trkpt lat="45.43109" lon="8.2052617"><ele>190.5</ele><time>2026-05-01T07:49:49.26Z</time></trkpt><trkpt lat="45.430935" lon="8.20485"><ele>190.0</ele><time>2026-05-01T07:49:50.261Z</time></trkpt><trkpt lat="45.4307767" lon="8.204435"><ele>189.5</ele><time>2026-05-01T07:49:51.261Z</time></trkpt><trkpt lat="45.4306217" lon="8.204015"><ele>189.0</ele><time>2026-05-01T07:49:52.26Z</time></trkpt><trkpt lat="45.4304733" lon="8.203595"><ele>189.0</ele><time>2026-05-01T07:49:53.261Z</time></trkpt><trkpt lat="45.430325" lon="8.2031833"><ele>189.0</ele><time>2026-05-01T07:49:54.26Z</time></trkpt><trkpt lat="45.43018" lon="8.2027733"><ele>189.0</ele><time>2026-05-01T07:49:55.261Z</time></trkpt><trkpt lat="45.4300433" lon="8.2023617"><ele>189.0</ele><time>2026-05-01T07:49:56.26Z</time></trkpt><trkpt lat="45.4299067" lon="8.20196"><ele>189.0</ele><time>2026-05-01T07:49:57.261Z</time></trkpt><trkpt lat="45.42976" lon="8.20156"><ele>189.0</ele><time>2026-05-01T07:49:58.26Z</time></trkpt><trkpt lat="45.4296117" lon="8.2011533"><ele>189.0</ele><time>2026-05-01T07:49:59.261Z</time></trkpt><trkpt lat="45.42946" lon="8.2007467"><ele>189.0</ele><time>2026-05-01T07:50:00.261Z</time></trkpt><trkpt lat="45.4293033" lon="8.200345"><ele>189.5</ele><time>2026-05-01T07:50:01.26Z</time></trkpt><trkpt lat="45.4291567" lon="8.1999483"><ele>190.0</ele><time>2026-05-01T07:50:02.26Z</time></trkpt><trkpt lat="45.429005" lon="8.1995517"><ele>190.5</ele><time>2026-05-01T07:50:03.261Z</time></trkpt><trkpt lat="45.4288467" lon="8.1991667"><ele>191.0</ele><time>2026-05-01T07:50:04.261Z</time></trkpt><trkpt lat="45.4286933" lon="8.1987817"><ele>191.5</ele><time>2026-05-01T07:50:05.261Z</time></trkpt><trkpt lat="45.4285383" lon="8.1983867"><ele>192.0</ele><time>2026-05-01T07:50:06.261Z</time></trkpt><trkpt lat="45.4283667" lon="8.1979883"><ele>192.0</ele><time>2026-05-01T07:50:07.261Z</time></trkpt><trkpt lat="45.4282" lon="8.1975933"><ele>192.0</ele><time>2026-05-01T07:50:08.261Z</time></trkpt><trkpt lat="45.428035" lon="8.197195"><ele>191.0</ele><time>2026-05-01T07:50:09.261Z</time></trkpt><trkpt lat="45.4278717" lon="8.19681"><ele>190.0</ele><time>2026-05-01T07:50:10.261Z</time></trkpt><trkpt lat="45.4277083" lon="8.1964333"><ele>190.0</ele><time>2026-05-01T07:50:11.261Z</time></trkpt><trkpt lat="45.4275433" lon="8.1960567"><ele>190.0</ele><time>2026-05-01T07:50:12.261Z</time></trkpt><trkpt lat="45.4273767" lon="8.1956817"><ele>190.5</ele><time>2026-05-01T07:50:13.261Z</time></trkpt><trkpt lat="45.4272217" lon="8.1953217"><ele>191.0</ele><time>2026-05-01T07:50:14.26Z</time></trkpt><trkpt lat="45.4270633" lon="8.1949517"><ele>190.5</ele><time>2026-05-01T07:50:15.26Z</time></trkpt><trkpt lat="45.4268967" lon="8.1945867"><ele>190.0</ele><time>2026-05-01T07:50:16.261Z</time></trkpt><trkpt lat="45.4267283" lon="8.1942317"><ele>190.0</ele><time>2026-05-01T07:50:17.261Z</time></trkpt><trkpt lat="45.4265567" lon="8.19386"><ele>190.0</ele><time>2026-05-01T07:50:18.26Z</time></trkpt><trkpt lat="45.4263867" lon="8.1934867"><ele>189.5</ele><time>2026-05-01T07:50:19.26Z</time></trkpt><trkpt lat="45.4262033" lon="8.1931233"><ele>189.0</ele><time>2026-05-01T07:50:20.26Z</time></trkpt><trkpt lat="45.4260217" lon="8.1927633"><ele>189.0</ele><time>2026-05-01T07:50:21.261Z</time></trkpt><trkpt lat="45.4258483" lon="8.1924017"><ele>189.0</ele><time>2026-05-01T07:50:22.261Z</time></trkpt><trkpt lat="45.425665" lon="8.19204"><ele>188.5</ele><time>2026-05-01T07:50:23.261Z</time></trkpt><trkpt lat="45.4254733" lon="8.1916683"><ele>188.0</ele><time>2026-05-01T07:50:24.261Z</time></trkpt><trkpt lat="45.4252983" lon="8.1913083"><ele>187.5</ele><time>2026-05-01T07:50:25.261Z</time></trkpt><trkpt lat="45.42511" lon="8.19095"><ele>187.0</ele><time>2026-05-01T07:50:26.261Z</time></trkpt><trkpt lat="45.4249233" lon="8.1905817"><ele>187.0</ele><time>2026-05-01T07:50:27.26Z</time></trkpt><trkpt lat="45.4247383" lon="8.1902283"><ele>187.0</ele><time>2026-05-01T07:50:28.261Z</time></trkpt><trkpt lat="45.4245467" lon="8.18988"><ele>187.0</ele><time>2026-05-01T07:50:29.261Z</time></trkpt><trkpt lat="45.4243733" lon="8.1895317"><ele>187.0</ele><time>2026-05-01T07:50:30.26Z</time></trkpt><trkpt lat="45.42419" lon="8.189185"><ele>187.5</ele><time>2026-05-01T07:50:31.261Z</time></trkpt><trkpt lat="45.4240017" lon="8.1888383"><ele>188.0</ele><time>2026-05-01T07:50:32.261Z</time></trkpt><trkpt lat="45.423805" lon="8.1884817"><ele>188.0</ele><time>2026-05-01T07:50:33.261Z</time></trkpt><trkpt lat="45.423615" lon="8.1881283"><ele>188.0</ele><time>2026-05-01T07:50:34.261Z</time></trkpt><trkpt lat="45.4234183" lon="8.1877717"><ele>188.0</ele><time>2026-05-01T07:50:35.261Z</time></trkpt><trkpt lat="45.42323" lon="8.1874233"><ele>188.0</ele><time>2026-05-01T07:50:36.261Z</time></trkpt><trkpt lat="45.42301" lon="8.187065"><ele>188.0</ele><time>2026-05-01T07:50:37.261Z</time></trkpt><trkpt lat="45.4228033" lon="8.18671"><ele>188.0</ele><time>2026-05-01T07:50:38.261Z</time></trkpt><trkpt lat="45.4225933" lon="8.1863633"><ele>188.0</ele><time>2026-05-01T07:50:39.261Z</time></trkpt><trkpt lat="45.422385" lon="8.1860117"><ele>188.0</ele><time>2026-05-01T07:50:40.261Z</time></trkpt><trkpt lat="45.4221733" lon="8.185665"><ele>189.0</ele><time>2026-05-01T07:50:41.26Z</time></trkpt><trkpt lat="45.4219517" lon="8.1853133"><ele>190.0</ele><time>2026-05-01T07:50:42.26Z</time></trkpt><trkpt lat="45.4217233" lon="8.1849683"><ele>190.0</ele><time>2026-05-01T07:50:43.261Z</time></trkpt><trkpt lat="45.4215067" lon="8.1846183"><ele>190.0</ele><time>2026-05-01T07:50:44.261Z</time></trkpt><trkpt lat="45.421295" lon="8.1842717"><ele>189.5</ele><time>2026-05-01T07:50:45.26Z</time></trkpt><trkpt lat="45.4210867" lon="8.183945"><ele>189.0</ele><time>2026-05-01T07:50:46.261Z</time></trkpt><trkpt lat="45.42087" lon="8.1836317"><ele>189.0</ele><time>2026-05-01T07:50:47.26Z</time></trkpt><trkpt lat="45.4206583" lon="8.1833133"><ele>189.0</ele><time>2026-05-01T07:50:48.261Z</time></trkpt><trkpt lat="45.4204483" lon="8.1829983"><ele>188.5</ele><time>2026-05-01T07:50:49.261Z</time></trkpt><trkpt lat="45.4202317" lon="8.18267"><ele>188.0</ele><time>2026-05-01T07:50:50.26Z</time></trkpt><trkpt lat="45.4200167" lon="8.1823383"><ele>188.0</ele><time>2026-05-01T07:50:51.26Z</time></trkpt><trkpt lat="45.4197933" lon="8.1820233"><ele>188.0</ele><time>2026-05-01T07:50:52.26Z</time></trkpt><trkpt lat="45.4195733" lon="8.18171"><ele>189.0</ele><time>2026-05-01T07:50:53.26Z</time></trkpt><trkpt lat="45.4193533" lon="8.18139"><ele>190.0</ele><time>2026-05-01T07:50:54.26Z</time></trkpt><trkpt lat="45.4191333" lon="8.1810617"><ele>190.0</ele><time>2026-05-01T07:50:55.26Z</time></trkpt><trkpt lat="45.41892" lon="8.1807433"><ele>190.0</ele><time>2026-05-01T07:50:56.261Z</time></trkpt><trkpt lat="45.4187233" lon="8.1804367"><ele>190.5</ele><time>2026-05-01T07:50:57.261Z</time></trkpt><trkpt lat="45.4185217" lon="8.1801233"><ele>191.0</ele><time>2026-05-01T07:50:58.26Z</time></trkpt><trkpt lat="45.418305" lon="8.1798233"><ele>191.0</ele><time>2026-05-01T07:50:59.261Z</time></trkpt><trkpt lat="45.4180983" lon="8.1795117"><ele>191.0</ele><time>2026-05-01T07:51:00.26Z</time></trkpt><trkpt lat="45.4178783" lon="8.1791983"><ele>194.0</ele><time>2026-05-01T07:51:01.261Z</time></trkpt><trkpt lat="45.4176567" lon="8.1788733"><ele>197.0</ele><time>2026-05-01T07:51:02.26Z</time></trkpt><trkpt lat="45.4174317" lon="8.1785483"><ele>197.0</ele><time>2026-05-01T07:51:03.261Z</time></trkpt><trkpt lat="45.4172117" lon="8.1782267"><ele>197.0</ele><time>2026-05-01T07:51:04.261Z</time></trkpt><trkpt lat="45.4169817" lon="8.177895"><ele>205.0</ele><time>2026-05-01T07:51:05.26Z</time></trkpt><trkpt lat="45.41675" lon="8.1775683"><ele>213.0</ele><time>2026-05-01T07:51:06.261Z</time></trkpt><trkpt lat="45.416515" lon="8.1772467"><ele>213.0</ele><time>2026-05-01T07:51:07.26Z</time></trkpt><trkpt lat="45.4162933" lon="8.1769167"><ele>213.0</ele><time>2026-05-01T07:51:08.261Z</time></trkpt><trkpt lat="45.4160533" lon="8.17659"><ele>213.0</ele><time>2026-05-01T07:51:09.261Z</time></trkpt><trkpt lat="45.4158167" lon="8.1762617"><ele>213.0</ele><time>2026-05-01T07:51:10.261Z</time></trkpt><trkpt lat="45.4155883" lon="8.1759267"><ele>212.5</ele><time>2026-05-01T07:51:11.261Z</time></trkpt><trkpt lat="45.4153567" lon="8.1756133"><ele>212.0</ele><time>2026-05-01T07:51:12.26Z</time></trkpt><trkpt lat="45.4151167" lon="8.1752967"><ele>212.0</ele><time>2026-05-01T07:51:13.261Z</time></trkpt><trkpt lat="45.414885" lon="8.1749617"><ele>212.0</ele><time>2026-05-01T07:51:14.261Z</time></trkpt><trkpt lat="45.4146467" lon="8.1746517"><ele>211.0</ele><time>2026-05-01T07:51:15.261Z</time></trkpt><trkpt lat="45.4144167" lon="8.17434"><ele>210.0</ele><time>2026-05-01T07:51:16.26Z</time></trkpt><trkpt lat="45.4141933" lon="8.1740417"><ele>210.5</ele><time>2026-05-01T07:51:17.261Z</time></trkpt><trkpt lat="45.4139667" lon="8.17374"><ele>211.0</ele><time>2026-05-01T07:51:18.261Z</time></trkpt><trkpt lat="45.4137283" lon="8.1734367"><ele>210.0</ele><time>2026-05-01T07:51:19.261Z</time></trkpt><trkpt lat="45.4134917" lon="8.1731467"><ele>209.0</ele><time>2026-05-01T07:51:20.261Z</time></trkpt><trkpt lat="45.413245" lon="8.1728367"><ele>209.0</ele><time>2026-05-01T07:51:21.261Z</time></trkpt><trkpt lat="45.41301" lon="8.1725367"><ele>209.0</ele><time>2026-05-01T07:51:22.26Z</time></trkpt><trkpt lat="45.412775" lon="8.1722367"><ele>207.5</ele><time>2026-05-01T07:51:23.261Z</time></trkpt><trkpt lat="45.4125367" lon="8.1719417"><ele>206.0</ele><time>2026-05-01T07:51:24.261Z</time></trkpt><trkpt lat="45.4122967" lon="8.1716467"><ele>204.0</ele><time>2026-05-01T07:51:25.261Z</time></trkpt><trkpt lat="45.4120633" lon="8.1713517"><ele>202.0</ele><time>2026-05-01T07:51:26.261Z</time></trkpt><trkpt lat="45.4118283" lon="8.1710617"><ele>202.0</ele><time>2026-05-01T07:51:27.261Z</time></trkpt><trkpt lat="45.411585" lon="8.1707733"><ele>202.0</ele><time>2026-05-01T07:51:28.261Z</time></trkpt><trkpt lat="45.4113317" lon="8.1704883"><ele>204.0</ele><time>2026-05-01T07:51:29.26Z</time></trkpt><trkpt lat="45.4110933" lon="8.1702033"><ele>206.0</ele><time>2026-05-01T07:51:30.261Z</time></trkpt><trkpt lat="45.4108517" lon="8.1699183"><ele>206.5</ele><time>2026-05-01T07:51:31.261Z</time></trkpt><trkpt lat="45.410615" lon="8.1696317"><ele>207.0</ele><time>2026-05-01T07:51:32.261Z</time></trkpt><trkpt lat="45.410365" lon="8.1693433"><ele>208.0</ele><time>2026-05-01T07:51:33.261Z</time></trkpt><trkpt lat="45.41012" lon="8.169055"><ele>209.0</ele><time>2026-05-01T07:51:34.261Z</time></trkpt><trkpt lat="45.4098767" lon="8.1687717"><ele>208.0</ele><time>2026-05-01T07:51:35.26Z</time></trkpt><trkpt lat="45.4096267" lon="8.1684967"><ele>207.0</ele><time>2026-05-01T07:51:36.261Z</time></trkpt><trkpt lat="45.409385" lon="8.1682267"><ele>207.5</ele><time>2026-05-01T07:51:37.261Z</time></trkpt><trkpt lat="45.4091383" lon="8.1679517"><ele>208.0</ele><time>2026-05-01T07:51:38.261Z</time></trkpt><trkpt lat="45.4088933" lon="8.1676733"><ele>208.0</ele><time>2026-05-01T07:51:39.261Z</time></trkpt><trkpt lat="45.4086467" lon="8.16739"><ele>208.0</ele><time>2026-05-01T07:51:40.26Z</time></trkpt><trkpt lat="45.40839" lon="8.1671133"><ele>208.0</ele><time>2026-05-01T07:51:41.261Z</time></trkpt><trkpt lat="45.4081383" lon="8.1668383"><ele>208.0</ele><time>2026-05-01T07:51:42.261Z</time></trkpt><trkpt lat="45.4078767" lon="8.16657"><ele>209.5</ele><time>2026-05-01T07:51:43.26Z</time></trkpt><trkpt lat="45.4076267" lon="8.1663033"><ele>211.0</ele><time>2026-05-01T07:51:44.261Z</time></trkpt><trkpt lat="45.4073667" lon="8.1660283"><ele>211.0</ele><time>2026-05-01T07:51:45.261Z</time></trkpt><trkpt lat="45.4071267" lon="8.165755"><ele>211.0</ele><time>2026-05-01T07:51:46.261Z</time></trkpt><trkpt lat="45.406865" lon="8.16548"><ele>211.5</ele><time>2026-05-01T07:51:47.261Z</time></trkpt><trkpt lat="45.4066183" lon="8.1652017"><ele>212.0</ele><time>2026-05-01T07:51:48.261Z</time></trkpt><trkpt lat="45.406365" lon="8.1649233"><ele>210.5</ele><time>2026-05-01T07:51:49.261Z</time></trkpt><trkpt lat="45.4061217" lon="8.1646533"><ele>209.0</ele><time>2026-05-01T07:51:50.26Z</time></trkpt><trkpt lat="45.4058667" lon="8.1643817"><ele>209.0</ele><time>2026-05-01T07:51:51.261Z</time></trkpt><trkpt lat="45.4056233" lon="8.164115"><ele>209.0</ele><time>2026-05-01T07:51:52.261Z</time></trkpt><trkpt lat="45.4053717" lon="8.16384"><ele>208.5</ele><time>2026-05-01T07:51:53.26Z</time></trkpt><trkpt lat="45.4051183" lon="8.1635767"><ele>208.0</ele><time>2026-05-01T07:51:54.261Z</time></trkpt><trkpt lat="45.404865" lon="8.1633067"><ele>208.0</ele><time>2026-05-01T07:51:55.261Z</time></trkpt><trkpt lat="45.404615" lon="8.1630367"><ele>208.0</ele><time>2026-05-01T07:51:56.261Z</time></trkpt><trkpt lat="45.4043633" lon="8.162775"><ele>208.0</ele><time>2026-05-01T07:51:57.261Z</time></trkpt><trkpt lat="45.404115" lon="8.1625067"><ele>208.0</ele><time>2026-05-01T07:51:58.261Z</time></trkpt><trkpt lat="45.4038617" lon="8.1622283"><ele>209.0</ele><time>2026-05-01T07:51:59.261Z</time></trkpt><trkpt lat="45.403605" lon="8.1619433"><ele>210.0</ele><time>2026-05-01T07:52:00.261Z</time></trkpt><trkpt lat="45.4033383" lon="8.1616583"><ele>209.5</ele><time>2026-05-01T07:52:01.26Z</time></trkpt><trkpt lat="45.403055" lon="8.1613633"><ele>209.0</ele><time>2026-05-01T07:52:02.261Z</time></trkpt><trkpt lat="45.4027683" lon="8.1610533"><ele>209.0</ele><time>2026-05-01T07:52:03.26Z</time></trkpt><trkpt lat="45.4024733" lon="8.1607317"><ele>209.0</ele><time>2026-05-01T07:52:04.261Z</time></trkpt><trkpt lat="45.4021833" lon="8.1604083"><ele>209.5</ele><time>2026-05-01T07:52:05.26Z</time></trkpt><trkpt lat="45.4018917" lon="8.1600833"><ele>210.0</ele><time>2026-05-01T07:52:06.261Z</time></trkpt><trkpt lat="45.4016083" lon="8.1597683"><ele>210.0</ele><time>2026-05-01T07:52:07.26Z</time></trkpt><trkpt lat="45.4013367" lon="8.1594667"><ele>210.0</ele><time>2026-05-01T07:52:08.261Z</time></trkpt><trkpt lat="45.4010767" lon="8.1591867"><ele>210.0</ele><time>2026-05-01T07:52:09.261Z</time></trkpt><trkpt lat="45.4008167" lon="8.15891"><ele>210.0</ele><time>2026-05-01T07:52:10.261Z</time></trkpt><trkpt lat="45.4005583" lon="8.1586267"><ele>209.5</ele><time>2026-05-01T07:52:11.261Z</time></trkpt><trkpt lat="45.4002917" lon="8.1583467"><ele>209.0</ele><time>2026-05-01T07:52:12.261Z</time></trkpt><trkpt lat="45.4000283" lon="8.1580617"><ele>209.0</ele><time>2026-05-01T07:52:13.261Z</time></trkpt><trkpt lat="45.3997633" lon="8.1577683"><ele>209.0</ele><time>2026-05-01T07:52:14.26Z</time></trkpt><trkpt lat="45.3995067" lon="8.157485"><ele>207.0</ele><time>2026-05-01T07:52:15.261Z</time></trkpt><trkpt lat="45.39926" lon="8.157215"><ele>205.0</ele><time>2026-05-01T07:52:16.261Z</time></trkpt><trkpt lat="45.39901" lon="8.1569383"><ele>204.5</ele><time>2026-05-01T07:52:17.26Z</time></trkpt><trkpt lat="45.39875" lon="8.1566667"><ele>204.0</ele><time>2026-05-01T07:52:18.261Z</time></trkpt><trkpt lat="45.3984967" lon="8.1563883"><ele>202.5</ele><time>2026-05-01T07:52:19.26Z</time></trkpt><trkpt lat="45.3982433" lon="8.1561117"><ele>201.0</ele><time>2026-05-01T07:52:20.26Z</time></trkpt><trkpt lat="45.3979867" lon="8.155835"><ele>201.0</ele><time>2026-05-01T07:52:21.261Z</time></trkpt><trkpt lat="45.3977283" lon="8.155565"><ele>201.0</ele><time>2026-05-01T07:52:22.261Z</time></trkpt><trkpt lat="45.3974783" lon="8.1552967"><ele>201.0</ele><time>2026-05-01T07:52:23.261Z</time></trkpt><trkpt lat="45.3972283" lon="8.155025"><ele>201.0</ele><time>2026-05-01T07:52:24.26Z</time></trkpt><trkpt lat="45.396975" lon="8.1547567"><ele>202.0</ele><time>2026-05-01T07:52:25.261Z</time></trkpt><trkpt lat="45.3967167" lon="8.1544933"><ele>203.0</ele><time>2026-05-01T07:52:26.261Z</time></trkpt><trkpt lat="45.3964667" lon="8.1542117"><ele>201.0</ele><time>2026-05-01T07:52:27.261Z</time></trkpt><trkpt lat="45.39622" lon="8.15394"><ele>199.0</ele><time>2026-05-01T07:52:28.261Z</time></trkpt><trkpt lat="45.3959667" lon="8.15366"><ele>199.0</ele><time>2026-05-01T07:52:29.261Z</time></trkpt><trkpt lat="45.3957183" lon="8.1533833"><ele>199.0</ele><time>2026-05-01T07:52:30.26Z</time></trkpt><trkpt lat="45.3954733" lon="8.1531033"><ele>199.5</ele><time>2026-05-01T07:52:31.261Z</time></trkpt><trkpt lat="45.395225" lon="8.152845"><ele>200.0</ele><time>2026-05-01T07:52:32.261Z</time></trkpt><trkpt lat="45.3949817" lon="8.152585"><ele>199.5</ele><time>2026-05-01T07:52:33.26Z</time></trkpt><trkpt lat="45.3947333" lon="8.152325"><ele>199.0</ele><time>2026-05-01T07:52:34.261Z</time></trkpt><trkpt lat="45.39449" lon="8.152045"><ele>199.0</ele><time>2026-05-01T07:52:35.26Z</time></trkpt><trkpt lat="45.39423" lon="8.15177"><ele>199.0</ele><time>2026-05-01T07:52:36.26Z</time></trkpt><trkpt lat="45.3939717" lon="8.1514883"><ele>199.5</ele><time>2026-05-01T07:52:37.261Z</time></trkpt><trkpt lat="45.39372" lon="8.1512267"><ele>200.0</ele><time>2026-05-01T07:52:38.261Z</time></trkpt><trkpt lat="45.3934633" lon="8.1509533"><ele>200.0</ele><time>2026-05-01T07:52:39.261Z</time></trkpt><trkpt lat="45.3932033" lon="8.1506733"><ele>200.0</ele><time>2026-05-01T07:52:40.261Z</time></trkpt><trkpt lat="45.3929417" lon="8.1503967"><ele>200.0</ele><time>2026-05-01T07:52:41.261Z</time></trkpt><trkpt lat="45.3926917" lon="8.150115"><ele>200.0</ele><time>2026-05-01T07:52:42.261Z</time></trkpt><trkpt lat="45.3924467" lon="8.1498383"><ele>200.0</ele><time>2026-05-01T07:52:43.261Z</time></trkpt><trkpt lat="45.3922117" lon="8.149565"><ele>200.0</ele><time>2026-05-01T07:52:44.261Z</time></trkpt><trkpt lat="45.391965" lon="8.1492883"><ele>200.5</ele><time>2026-05-01T07:52:45.261Z</time></trkpt><trkpt lat="45.3917" lon="8.1490083"><ele>201.0</ele><time>2026-05-01T07:52:46.261Z</time></trkpt><trkpt lat="45.3914417" lon="8.1487333"><ele>201.5</ele><time>2026-05-01T07:52:47.261Z</time></trkpt><trkpt lat="45.39117" lon="8.1484517"><ele>202.0</ele><time>2026-05-01T07:52:48.261Z</time></trkpt><trkpt lat="45.3909067" lon="8.1481783"><ele>202.5</ele><time>2026-05-01T07:52:49.261Z</time></trkpt><trkpt lat="45.3906583" lon="8.147895"><ele>203.0</ele><time>2026-05-01T07:52:50.261Z</time></trkpt><trkpt lat="45.3904017" lon="8.147625"><ele>203.5</ele><time>2026-05-01T07:52:51.26Z</time></trkpt><trkpt lat="45.3901383" lon="8.1473467"><ele>204.0</ele><time>2026-05-01T07:52:52.261Z</time></trkpt><trkpt lat="45.3898817" lon="8.147065"><ele>204.0</ele><time>2026-05-01T07:52:53.261Z</time></trkpt><trkpt lat="45.38963" lon="8.14678"><ele>204.0</ele><time>2026-05-01T07:52:54.261Z</time></trkpt><trkpt lat="45.389375" lon="8.14649"><ele>204.0</ele><time>2026-05-01T07:52:55.261Z</time></trkpt><trkpt lat="45.38911" lon="8.14621"><ele>204.0</ele><time>2026-05-01T07:52:56.261Z</time></trkpt><trkpt lat="45.3888533" lon="8.1459333"><ele>204.0</ele><time>2026-05-01T07:52:57.261Z</time></trkpt><trkpt lat="45.38861" lon="8.145645"><ele>204.0</ele><time>2026-05-01T07:52:58.26Z</time></trkpt><trkpt lat="45.3883567" lon="8.1453633"><ele>204.0</ele><time>2026-05-01T07:52:59.261Z</time></trkpt><trkpt lat="45.3881083" lon="8.1450933"><ele>204.0</ele><time>2026-05-01T07:53:00.261Z</time></trkpt><trkpt lat="45.387855" lon="8.1448217"><ele>204.5</ele><time>2026-05-01T07:53:01.261Z</time></trkpt><trkpt lat="45.3875983" lon="8.1445467"><ele>205.0</ele><time>2026-05-01T07:53:02.261Z</time></trkpt><trkpt lat="45.387345" lon="8.1442733"><ele>205.5</ele><time>2026-05-01T07:53:03.261Z</time></trkpt><trkpt lat="45.3870817" lon="8.1439967"><ele>206.0</ele><time>2026-05-01T07:53:04.261Z</time></trkpt><trkpt lat="45.3868117" lon="8.14372"><ele>206.0</ele><time>2026-05-01T07:53:05.261Z</time></trkpt><trkpt lat="45.3865633" lon="8.143445"><ele>206.0</ele><time>2026-05-01T07:53:06.26Z</time></trkpt><trkpt lat="45.3862983" lon="8.143175"><ele>206.5</ele><time>2026-05-01T07:53:07.261Z</time></trkpt><trkpt lat="45.3860483" lon="8.1428917"><ele>207.0</ele><time>2026-05-01T07:53:08.26Z</time></trkpt><trkpt lat="45.3858033" lon="8.14262"><ele>206.5</ele><time>2026-05-01T07:53:09.261Z</time></trkpt><trkpt lat="45.38555" lon="8.142345"><ele>206.0</ele><time>2026-05-01T07:53:10.261Z</time></trkpt><trkpt lat="45.3853" lon="8.1420733"><ele>206.5</ele><time>2026-05-01T07:53:11.261Z</time></trkpt><trkpt lat="45.3850517" lon="8.141795"><ele>207.0</ele><time>2026-05-01T07:53:12.261Z</time></trkpt><trkpt lat="45.3848" lon="8.1415133"><ele>206.0</ele><time>2026-05-01T07:53:13.261Z</time></trkpt><trkpt lat="45.3845417" lon="8.1412467"><ele>205.0</ele><time>2026-05-01T07:53:14.261Z</time></trkpt><trkpt lat="45.3842833" lon="8.14097"><ele>205.0</ele><time>2026-05-01T07:53:15.261Z</time></trkpt><trkpt lat="45.3840417" lon="8.1406817"><ele>205.0</ele><time>2026-05-01T07:53:16.261Z</time></trkpt><trkpt lat="45.3837867" lon="8.140415"><ele>205.0</ele><time>2026-05-01T07:53:17.261Z</time></trkpt><trkpt lat="45.3835433" lon="8.1401467"><ele>205.0</ele><time>2026-05-01T07:53:18.261Z</time></trkpt><trkpt lat="45.3832933" lon="8.1398817"><ele>206.5</ele><time>2026-05-01T07:53:19.26Z</time></trkpt><trkpt lat="45.383045" lon="8.1396167"><ele>208.0</ele><time>2026-05-01T07:53:20.26Z</time></trkpt><trkpt lat="45.38279" lon="8.1393283"><ele>209.5</ele><time>2026-05-01T07:53:21.261Z</time></trkpt><trkpt lat="45.382535" lon="8.1390233"><ele>211.0</ele><time>2026-05-01T07:53:22.261Z</time></trkpt><trkpt lat="45.38228" lon="8.138735"><ele>211.0</ele><time>2026-05-01T07:53:23.261Z</time></trkpt><trkpt lat="45.38202" lon="8.138445"><ele>211.0</ele><time>2026-05-01T07:53:24.26Z</time></trkpt><trkpt lat="45.381765" lon="8.1381617"><ele>210.5</ele><time>2026-05-01T07:53:25.261Z</time></trkpt><trkpt lat="45.381505" lon="8.1378783"><ele>210.0</ele><time>2026-05-01T07:53:26.261Z</time></trkpt><trkpt lat="45.381245" lon="8.1376"><ele>209.5</ele><time>2026-05-01T07:53:27.261Z</time></trkpt><trkpt lat="45.3809883" lon="8.1373267"><ele>209.0</ele><time>2026-05-01T07:53:28.261Z</time></trkpt><trkpt lat="45.380735" lon="8.1370417"><ele>209.0</ele><time>2026-05-01T07:53:29.261Z</time></trkpt><trkpt lat="45.38048" lon="8.136755"><ele>209.0</ele><time>2026-05-01T07:53:30.261Z</time></trkpt><trkpt lat="45.38023" lon="8.136475"><ele>209.0</ele><time>2026-05-01T07:53:31.261Z</time></trkpt><trkpt lat="45.3799767" lon="8.136205"><ele>209.0</ele><time>2026-05-01T07:53:32.261Z</time></trkpt><trkpt lat="45.379715" lon="8.1359217"><ele>209.0</ele><time>2026-05-01T07:53:33.26Z</time></trkpt><trkpt lat="45.3794667" lon="8.1356467"><ele>209.0</ele><time>2026-05-01T07:53:34.261Z</time></trkpt><trkpt lat="45.3792283" lon="8.1353717"><ele>209.0</ele><time>2026-05-01T07:53:35.261Z</time></trkpt><trkpt lat="45.37898" lon="8.1350867"><ele>209.0</ele><time>2026-05-01T07:53:36.261Z</time></trkpt><trkpt lat="45.3787383" lon="8.1348067"><ele>208.5</ele><time>2026-05-01T07:53:37.26Z</time></trkpt><trkpt lat="45.37848" lon="8.13454"><ele>208.0</ele><time>2026-05-01T07:53:38.261Z</time></trkpt><trkpt lat="45.3782217" lon="8.1342667"><ele>208.0</ele><time>2026-05-01T07:53:39.261Z</time></trkpt><trkpt lat="45.37797" lon="8.1339967"><ele>208.0</ele><time>2026-05-01T07:53:40.261Z</time></trkpt><trkpt lat="45.377715" lon="8.133725"><ele>208.0</ele><time>2026-05-01T07:53:41.26Z</time></trkpt><trkpt lat="45.3774567" lon="8.1334483"><ele>208.0</ele><time>2026-05-01T07:53:42.261Z</time></trkpt><trkpt lat="45.3772167" lon="8.13317"><ele>208.5</ele><time>2026-05-01T07:53:43.261Z</time></trkpt><trkpt lat="45.37696" lon="8.1329"><ele>209.0</ele><time>2026-05-01T07:53:44.26Z</time></trkpt><trkpt lat="45.3766983" lon="8.132625"><ele>209.0</ele><time>2026-05-01T07:53:45.261Z</time></trkpt><trkpt lat="45.3764417" lon="8.1323483"><ele>209.0</ele><time>2026-05-01T07:53:46.261Z</time></trkpt><trkpt lat="45.3761883" lon="8.1320717"><ele>209.5</ele><time>2026-05-01T07:53:47.261Z</time></trkpt><trkpt lat="45.3759367" lon="8.1317833"><ele>210.0</ele><time>2026-05-01T07:53:48.26Z</time></trkpt><trkpt lat="45.3756733" lon="8.1314917"><ele>209.5</ele><time>2026-05-01T07:53:49.26Z</time></trkpt><trkpt lat="45.3754183" lon="8.131205"><ele>209.0</ele><time>2026-05-01T07:53:50.26Z</time></trkpt><trkpt lat="45.3751633" lon="8.1309267"><ele>209.5</ele><time>2026-05-01T07:53:51.261Z</time></trkpt><trkpt lat="45.3749083" lon="8.13065"><ele>210.0</ele><time>2026-05-01T07:53:52.261Z</time></trkpt><trkpt lat="45.3746417" lon="8.1303683"><ele>210.0</ele><time>2026-05-01T07:53:53.261Z</time></trkpt><trkpt lat="45.374385" lon="8.1300883"><ele>210.0</ele><time>2026-05-01T07:53:54.261Z</time></trkpt><trkpt lat="45.37413" lon="8.1298017"><ele>209.5</ele><time>2026-05-01T07:53:55.261Z</time></trkpt><trkpt lat="45.3738717" lon="8.129525"><ele>209.0</ele><time>2026-05-01T07:53:56.261Z</time></trkpt><trkpt lat="45.3736133" lon="8.129245"><ele>210.0</ele><time>2026-05-01T07:53:57.261Z</time></trkpt><trkpt lat="45.373355" lon="8.128955"><ele>211.0</ele><time>2026-05-01T07:53:58.261Z</time></trkpt><trkpt lat="45.3730883" lon="8.12867"><ele>211.5</ele><time>2026-05-01T07:53:59.26Z</time></trkpt><trkpt lat="45.3728217" lon="8.128385"><ele>212.0</ele><time>2026-05-01T07:54:00.261Z</time></trkpt><trkpt lat="45.3725567" lon="8.1281083"><ele>212.0</ele><time>2026-05-01T07:54:01.26Z</time></trkpt><trkpt lat="45.3722933" lon="8.1278283"><ele>212.0</ele><time>2026-05-01T07:54:02.261Z</time></trkpt><trkpt lat="45.37203" lon="8.1275467"><ele>210.5</ele><time>2026-05-01T07:54:03.261Z</time></trkpt><trkpt lat="45.37178" lon="8.1272617"><ele>209.0</ele><time>2026-05-01T07:54:04.261Z</time></trkpt><trkpt lat="45.371515" lon="8.126995"><ele>208.5</ele><time>2026-05-01T07:54:05.261Z</time></trkpt><trkpt lat="45.3712533" lon="8.1267267"><ele>208.0</ele><time>2026-05-01T07:54:06.261Z</time></trkpt><trkpt lat="45.3709933" lon="8.126455"><ele>208.5</ele><time>2026-05-01T07:54:07.26Z</time></trkpt><trkpt lat="45.37074" lon="8.12619"><ele>209.0</ele><time>2026-05-01T07:54:08.261Z</time></trkpt><trkpt lat="45.3704867" lon="8.1259133"><ele>209.5</ele><time>2026-05-01T07:54:09.261Z</time></trkpt><trkpt lat="45.3702333" lon="8.1256367"><ele>210.0</ele><time>2026-05-01T07:54:10.261Z</time></trkpt><trkpt lat="45.369975" lon="8.1253667"><ele>210.0</ele><time>2026-05-01T07:54:11.26Z</time></trkpt><trkpt lat="45.369725" lon="8.1251033"><ele>210.0</ele><time>2026-05-01T07:54:12.261Z</time></trkpt><trkpt lat="45.36948" lon="8.12483"><ele>210.5</ele><time>2026-05-01T07:54:13.261Z</time></trkpt><trkpt lat="45.36923" lon="8.1245567"><ele>211.0</ele><time>2026-05-01T07:54:14.26Z</time></trkpt><trkpt lat="45.3689667" lon="8.124265"><ele>211.5</ele><time>2026-05-01T07:54:15.261Z</time></trkpt><trkpt lat="45.36871" lon="8.1239817"><ele>212.0</ele><time>2026-05-01T07:54:16.26Z</time></trkpt><trkpt lat="45.3684433" lon="8.1237033"><ele>212.0</ele><time>2026-05-01T07:54:17.261Z</time></trkpt><trkpt lat="45.3681833" lon="8.1234283"><ele>212.0</ele><time>2026-05-01T07:54:18.261Z</time></trkpt><trkpt lat="45.3679233" lon="8.123145"><ele>210.5</ele><time>2026-05-01T07:54:19.26Z</time></trkpt><trkpt lat="45.3676617" lon="8.1228667"><ele>209.0</ele><time>2026-05-01T07:54:20.261Z</time></trkpt><trkpt lat="45.3673983" lon="8.12259"><ele>209.5</ele><time>2026-05-01T07:54:21.261Z</time></trkpt><trkpt lat="45.367135" lon="8.122315"><ele>210.0</ele><time>2026-05-01T07:54:22.261Z</time></trkpt><trkpt lat="45.366885" lon="8.1220317"><ele>210.0</ele><time>2026-05-01T07:54:23.261Z</time></trkpt><trkpt lat="45.366625" lon="8.1217517"><ele>210.0</ele><time>2026-05-01T07:54:24.261Z</time></trkpt><trkpt lat="45.366365" lon="8.1214633"><ele>209.0</ele><time>2026-05-01T07:54:25.26Z</time></trkpt><trkpt lat="45.366095" lon="8.121175"><ele>208.0</ele><time>2026-05-01T07:54:26.26Z</time></trkpt><trkpt lat="45.3658283" lon="8.1208817"><ele>208.0</ele><time>2026-05-01T07:54:27.261Z</time></trkpt><trkpt lat="45.3655717" lon="8.1205883"><ele>208.0</ele><time>2026-05-01T07:54:28.26Z</time></trkpt><trkpt lat="45.3653183" lon="8.1202983"><ele>208.0</ele><time>2026-05-01T07:54:29.26Z</time></trkpt><trkpt lat="45.3650467" lon="8.120005"><ele>208.0</ele><time>2026-05-01T07:54:30.261Z</time></trkpt><trkpt lat="45.3647917" lon="8.119715"><ele>208.0</ele><time>2026-05-01T07:54:31.26Z</time></trkpt><trkpt lat="45.3645267" lon="8.11944"><ele>208.0</ele><time>2026-05-01T07:54:32.26Z</time></trkpt><trkpt lat="45.3642817" lon="8.1191717"><ele>208.0</ele><time>2026-05-01T07:54:33.261Z</time></trkpt><trkpt lat="45.3640333" lon="8.118915"><ele>208.0</ele><time>2026-05-01T07:54:34.261Z</time></trkpt><trkpt lat="45.3637917" lon="8.118645"><ele>208.0</ele><time>2026-05-01T07:54:35.261Z</time></trkpt><trkpt lat="45.3635467" lon="8.1183883"><ele>208.0</ele><time>2026-05-01T07:54:36.26Z</time></trkpt><trkpt lat="45.363305" lon="8.118125"><ele>208.0</ele><time>2026-05-01T07:54:37.26Z</time></trkpt><trkpt lat="45.3630583" lon="8.1178583"><ele>208.0</ele><time>2026-05-01T07:54:38.261Z</time></trkpt><trkpt lat="45.3628117" lon="8.1175917"><ele>208.0</ele><time>2026-05-01T07:54:39.261Z</time></trkpt><trkpt lat="45.362555" lon="8.1173267"><ele>208.0</ele><time>2026-05-01T07:54:40.261Z</time></trkpt><trkpt lat="45.3623067" lon="8.1170533"><ele>209.0</ele><time>2026-05-01T07:54:41.26Z</time></trkpt><trkpt lat="45.3620533" lon="8.11678"><ele>210.0</ele><time>2026-05-01T07:54:42.26Z</time></trkpt><trkpt lat="45.3617967" lon="8.116505"><ele>210.0</ele><time>2026-05-01T07:54:43.261Z</time></trkpt><trkpt lat="45.3615383" lon="8.1162283"><ele>210.0</ele><time>2026-05-01T07:54:44.261Z</time></trkpt><trkpt lat="45.361275" lon="8.1159517"><ele>209.5</ele><time>2026-05-01T07:54:45.26Z</time></trkpt><trkpt lat="45.3610167" lon="8.115675"><ele>209.0</ele><time>2026-05-01T07:54:46.261Z</time></trkpt><trkpt lat="45.3607617" lon="8.1153917"><ele>209.0</ele><time>2026-05-01T07:54:47.261Z</time></trkpt><trkpt lat="45.3605" lon="8.1151083"><ele>209.0</ele><time>2026-05-01T07:54:48.26Z</time></trkpt><trkpt lat="45.36024" lon="8.11483"><ele>209.0</ele><time>2026-05-01T07:54:49.261Z</time></trkpt><trkpt lat="45.3599783" lon="8.1145467"><ele>209.0</ele><time>2026-05-01T07:54:50.261Z</time></trkpt><trkpt lat="45.3597083" lon="8.1142667"><ele>209.0</ele><time>2026-05-01T07:54:51.261Z</time></trkpt><trkpt lat="45.3594467" lon="8.1139733"><ele>209.0</ele><time>2026-05-01T07:54:52.261Z</time></trkpt><trkpt lat="45.35919" lon="8.113695"><ele>209.0</ele><time>2026-05-01T07:54:53.261Z</time></trkpt><trkpt lat="45.35893" lon="8.1134083"><ele>209.0</ele><time>2026-05-01T07:54:54.26Z</time></trkpt><trkpt lat="45.358685" lon="8.1131183"><ele>208.0</ele><time>2026-05-01T07:54:55.26Z</time></trkpt><trkpt lat="45.3584417" lon="8.112835"><ele>207.0</ele><time>2026-05-01T07:54:56.26Z</time></trkpt><trkpt lat="45.3581817" lon="8.1125433"><ele>208.5</ele><time>2026-05-01T07:54:57.261Z</time></trkpt><trkpt lat="45.3579317" lon="8.11226"><ele>210.0</ele><time>2026-05-01T07:54:58.261Z</time></trkpt><trkpt lat="45.3576767" lon="8.1119783"><ele>210.0</ele><time>2026-05-01T07:54:59.261Z</time></trkpt><trkpt lat="45.3574267" lon="8.1117"><ele>210.0</ele><time>2026-05-01T07:55:00.261Z</time></trkpt><trkpt lat="45.35717" lon="8.1114233"><ele>210.0</ele><time>2026-05-01T07:55:01.261Z</time></trkpt><trkpt lat="45.3569233" lon="8.1111517"><ele>210.0</ele><time>2026-05-01T07:55:02.261Z</time></trkpt><trkpt lat="45.35666" lon="8.1108767"><ele>210.0</ele><time>2026-05-01T07:55:03.261Z</time></trkpt><trkpt lat="45.35641" lon="8.1105983"><ele>210.0</ele><time>2026-05-01T07:55:04.261Z</time></trkpt><trkpt lat="45.3561417" lon="8.1103167"><ele>209.5</ele><time>2026-05-01T07:55:05.261Z</time></trkpt><trkpt lat="45.3558767" lon="8.1100383"><ele>209.0</ele><time>2026-05-01T07:55:06.26Z</time></trkpt><trkpt lat="45.355615" lon="8.109755"><ele>209.5</ele><time>2026-05-01T07:55:07.261Z</time></trkpt><trkpt lat="45.3553583" lon="8.1094683"><ele>210.0</ele><time>2026-05-01T07:55:08.261Z</time></trkpt><trkpt lat="45.3551" lon="8.1091867"><ele>210.0</ele><time>2026-05-01T07:55:09.26Z</time></trkpt><trkpt lat="45.354835" lon="8.1089033"><ele>210.0</ele><time>2026-05-01T07:55:10.26Z</time></trkpt><trkpt lat="45.3545733" lon="8.1086233"><ele>210.0</ele><time>2026-05-01T07:55:11.261Z</time></trkpt><trkpt lat="45.3543217" lon="8.1083483"><ele>210.0</ele><time>2026-05-01T07:55:12.26Z</time></trkpt><trkpt lat="45.3540667" lon="8.1080733"><ele>208.5</ele><time>2026-05-01T07:55:13.261Z</time></trkpt><trkpt lat="45.3538167" lon="8.1077983"><ele>207.0</ele><time>2026-05-01T07:55:14.261Z</time></trkpt><trkpt lat="45.3535633" lon="8.1075233"><ele>207.0</ele><time>2026-05-01T07:55:15.261Z</time></trkpt><trkpt lat="45.353315" lon="8.107245"><ele>207.0</ele><time>2026-05-01T07:55:16.261Z</time></trkpt><trkpt lat="45.3530617" lon="8.106975"><ele>207.0</ele><time>2026-05-01T07:55:17.26Z</time></trkpt><trkpt lat="45.3528017" lon="8.1067017"><ele>207.0</ele><time>2026-05-01T07:55:18.261Z</time></trkpt><trkpt lat="45.352555" lon="8.10642"><ele>207.5</ele><time>2026-05-01T07:55:19.261Z</time></trkpt><trkpt lat="45.3523067" lon="8.1061383"><ele>208.0</ele><time>2026-05-01T07:55:20.261Z</time></trkpt><trkpt lat="45.3520383" lon="8.1058517"><ele>208.5</ele><time>2026-05-01T07:55:21.261Z</time></trkpt><trkpt lat="45.3517733" lon="8.1055767"><ele>209.0</ele><time>2026-05-01T07:55:22.261Z</time></trkpt><trkpt lat="45.3515183" lon="8.105295"><ele>209.0</ele><time>2026-05-01T07:55:23.261Z</time></trkpt><trkpt lat="45.3512583" lon="8.105015"><ele>209.0</ele><time>2026-05-01T07:55:24.261Z</time></trkpt><trkpt lat="45.3510033" lon="8.1047333"><ele>208.5</ele><time>2026-05-01T07:55:25.261Z</time></trkpt><trkpt lat="45.35075" lon="8.1044567"><ele>208.0</ele><time>2026-05-01T07:55:26.26Z</time></trkpt><trkpt lat="45.3504933" lon="8.1041883"><ele>208.0</ele><time>2026-05-01T07:55:27.26Z</time></trkpt><trkpt lat="45.3502433" lon="8.1039117"><ele>208.0</ele><time>2026-05-01T07:55:28.261Z</time></trkpt><trkpt lat="45.3499967" lon="8.1036367"><ele>208.0</ele><time>2026-05-01T07:55:29.261Z</time></trkpt><trkpt lat="45.3497433" lon="8.1033567"><ele>208.0</ele><time>2026-05-01T07:55:30.261Z</time></trkpt><trkpt lat="45.349485" lon="8.103085"><ele>207.5</ele><time>2026-05-01T07:55:31.26Z</time></trkpt><trkpt lat="45.34922" lon="8.1028183"><ele>207.0</ele><time>2026-05-01T07:55:32.261Z</time></trkpt><trkpt lat="45.348945" lon="8.1025467"><ele>207.5</ele><time>2026-05-01T07:55:33.261Z</time></trkpt><trkpt lat="45.3486617" lon="8.102275"><ele>208.0</ele><time>2026-05-01T07:55:34.26Z</time></trkpt><trkpt lat="45.348385" lon="8.1019933"><ele>208.0</ele><time>2026-05-01T07:55:35.261Z</time></trkpt><trkpt lat="45.3481217" lon="8.1017183"><ele>208.0</ele><time>2026-05-01T07:55:36.261Z</time></trkpt><trkpt lat="45.34786" lon="8.1014417"><ele>208.0</ele><time>2026-05-01T07:55:37.261Z</time></trkpt><trkpt lat="45.3476" lon="8.1011717"><ele>208.0</ele><time>2026-05-01T07:55:38.261Z</time></trkpt><trkpt lat="45.3473467" lon="8.100895"><ele>208.0</ele><time>2026-05-01T07:55:39.261Z</time></trkpt><trkpt lat="45.3471" lon="8.1006217"><ele>208.0</ele><time>2026-05-01T07:55:40.261Z</time></trkpt><trkpt lat="45.3468417" lon="8.100335"><ele>208.0</ele><time>2026-05-01T07:55:41.261Z</time></trkpt><trkpt lat="45.346585" lon="8.100055"><ele>208.0</ele><time>2026-05-01T07:55:42.261Z</time></trkpt><trkpt lat="45.34633" lon="8.099765"><ele>208.0</ele><time>2026-05-01T07:55:43.26Z</time></trkpt><trkpt lat="45.3460667" lon="8.099475"><ele>208.0</ele><time>2026-05-01T07:55:44.261Z</time></trkpt><trkpt lat="45.3458033" lon="8.0991933"><ele>207.5</ele><time>2026-05-01T07:55:45.261Z</time></trkpt><trkpt lat="45.3455383" lon="8.098905"><ele>207.0</ele><time>2026-05-01T07:55:46.26Z</time></trkpt><trkpt lat="45.34528" lon="8.0986217"><ele>207.0</ele><time>2026-05-01T07:55:47.261Z</time></trkpt><trkpt lat="45.3450117" lon="8.0983417"><ele>207.0</ele><time>2026-05-01T07:55:48.261Z</time></trkpt><trkpt lat="45.3447483" lon="8.0980583"><ele>207.5</ele><time>2026-05-01T07:55:49.26Z</time></trkpt><trkpt lat="45.3444867" lon="8.09777"><ele>208.0</ele><time>2026-05-01T07:55:50.261Z</time></trkpt><trkpt lat="45.3442217" lon="8.0974783"><ele>208.0</ele><time>2026-05-01T07:55:51.26Z</time></trkpt><trkpt lat="45.3439517" lon="8.09718"><ele>208.0</ele><time>2026-05-01T07:55:52.26Z</time></trkpt><trkpt lat="45.34368" lon="8.0968833"><ele>208.0</ele><time>2026-05-01T07:55:53.261Z</time></trkpt><trkpt lat="45.34341" lon="8.0965917"><ele>208.0</ele><time>2026-05-01T07:55:54.261Z</time></trkpt><trkpt lat="45.3431467" lon="8.0963033"><ele>206.5</ele><time>2026-05-01T07:55:55.261Z</time></trkpt><trkpt lat="45.3428933" lon="8.0960333"><ele>205.0</ele><time>2026-05-01T07:55:56.261Z</time></trkpt><trkpt lat="45.3426417" lon="8.0957733"><ele>205.5</ele><time>2026-05-01T07:55:57.261Z</time></trkpt><trkpt lat="45.3423917" lon="8.09551"><ele>206.0</ele><time>2026-05-01T07:55:58.26Z</time></trkpt><trkpt lat="45.34215" lon="8.0952367"><ele>207.0</ele><time>2026-05-01T07:55:59.261Z</time></trkpt><trkpt lat="45.3419017" lon="8.094965"><ele>208.0</ele><time>2026-05-01T07:56:00.261Z</time></trkpt><trkpt lat="45.341655" lon="8.094705"><ele>208.0</ele><time>2026-05-01T07:56:01.261Z</time></trkpt><trkpt lat="45.34141" lon="8.0944417"><ele>208.0</ele><time>2026-05-01T07:56:02.261Z</time></trkpt><trkpt lat="45.3411683" lon="8.0941767"><ele>207.5</ele><time>2026-05-01T07:56:03.261Z</time></trkpt><trkpt lat="45.3409183" lon="8.0939083"><ele>207.0</ele><time>2026-05-01T07:56:04.26Z</time></trkpt><trkpt lat="45.3406633" lon="8.0936383"><ele>206.5</ele><time>2026-05-01T07:56:05.26Z</time></trkpt><trkpt lat="45.3404017" lon="8.0933517"><ele>206.0</ele><time>2026-05-01T07:56:06.26Z</time></trkpt><trkpt lat="45.3401483" lon="8.0930683"><ele>206.0</ele><time>2026-05-01T07:56:07.261Z</time></trkpt><trkpt lat="45.33989" lon="8.0927883"><ele>206.0</ele><time>2026-05-01T07:56:08.261Z</time></trkpt><trkpt lat="45.3396367" lon="8.0925167"><ele>206.5</ele><time>2026-05-01T07:56:09.261Z</time></trkpt><trkpt lat="45.3393817" lon="8.092245"><ele>207.0</ele><time>2026-05-01T07:56:10.26Z</time></trkpt><trkpt lat="45.339125" lon="8.091975"><ele>207.5</ele><time>2026-05-01T07:56:11.26Z</time></trkpt><trkpt lat="45.3388667" lon="8.0917017"><ele>208.0</ele><time>2026-05-01T07:56:12.26Z</time></trkpt><trkpt lat="45.338605" lon="8.0914167"><ele>208.0</ele><time>2026-05-01T07:56:13.261Z</time></trkpt><trkpt lat="45.3383383" lon="8.0911317"><ele>208.0</ele><time>2026-05-01T07:56:14.261Z</time></trkpt><trkpt lat="45.33806" lon="8.0908367"><ele>208.0</ele><time>2026-05-01T07:56:15.261Z</time></trkpt><trkpt lat="45.337785" lon="8.09053"><ele>208.0</ele><time>2026-05-01T07:56:16.261Z</time></trkpt><trkpt lat="45.33751" lon="8.0902167"><ele>208.0</ele><time>2026-05-01T07:56:17.261Z</time></trkpt><trkpt lat="45.337215" lon="8.0899033"><ele>208.0</ele><time>2026-05-01T07:56:18.26Z</time></trkpt><trkpt lat="45.3369233" lon="8.0895917"><ele>208.0</ele><time>2026-05-01T07:56:19.26Z</time></trkpt><trkpt lat="45.3366383" lon="8.08928"><ele>208.0</ele><time>2026-05-01T07:56:20.26Z</time></trkpt><trkpt lat="45.3363567" lon="8.08897"><ele>207.0</ele><time>2026-05-01T07:56:21.261Z</time></trkpt><trkpt lat="45.3360883" lon="8.0886517"><ele>206.0</ele><time>2026-05-01T07:56:22.261Z</time></trkpt><trkpt lat="45.335815" lon="8.08834"><ele>206.5</ele><time>2026-05-01T07:56:23.261Z</time></trkpt><trkpt lat="45.335535" lon="8.088035"><ele>207.0</ele><time>2026-05-01T07:56:24.26Z</time></trkpt><trkpt lat="45.33526" lon="8.0877267"><ele>207.0</ele><time>2026-05-01T07:56:25.261Z</time></trkpt><trkpt lat="45.3349717" lon="8.0874283"><ele>207.0</ele><time>2026-05-01T07:56:26.261Z</time></trkpt><trkpt lat="45.334695" lon="8.0871317"><ele>207.5</ele><time>2026-05-01T07:56:27.261Z</time></trkpt><trkpt lat="45.3344117" lon="8.08683"><ele>208.0</ele><time>2026-05-01T07:56:28.26Z</time></trkpt><trkpt lat="45.33413" lon="8.0865317"><ele>207.0</ele><time>2026-05-01T07:56:29.261Z</time></trkpt><trkpt lat="45.333845" lon="8.0862383"><ele>206.0</ele><time>2026-05-01T07:56:30.261Z</time></trkpt><trkpt lat="45.3335633" lon="8.0859367"><ele>206.5</ele><time>2026-05-01T07:56:31.261Z</time></trkpt><trkpt lat="45.3332917" lon="8.0856167"><ele>207.0</ele><time>2026-05-01T07:56:32.26Z</time></trkpt><trkpt lat="45.33302" lon="8.0853117"><ele>207.5</ele><time>2026-05-01T07:56:33.26Z</time></trkpt><trkpt lat="45.33274" lon="8.085"><ele>208.0</ele><time>2026-05-01T07:56:34.261Z</time></trkpt><trkpt lat="45.3324633" lon="8.0847"><ele>208.0</ele><time>2026-05-01T07:56:35.261Z</time></trkpt><trkpt lat="45.3321917" lon="8.0843983"><ele>208.0</ele><time>2026-05-01T07:56:36.26Z</time></trkpt><trkpt lat="45.3319233" lon="8.0841"><ele>207.5</ele><time>2026-05-01T07:56:37.26Z</time></trkpt><trkpt lat="45.3316517" lon="8.0838083"><ele>207.0</ele><time>2026-05-01T07:56:38.261Z</time></trkpt><trkpt lat="45.3313917" lon="8.0835167"><ele>207.0</ele><time>2026-05-01T07:56:39.26Z</time></trkpt><trkpt lat="45.3311283" lon="8.0832233"><ele>207.0</ele><time>2026-05-01T07:56:40.26Z</time></trkpt><trkpt lat="45.33087" lon="8.0829333"><ele>207.0</ele><time>2026-05-01T07:56:41.261Z</time></trkpt><trkpt lat="45.3306017" lon="8.0826517"><ele>207.0</ele><time>2026-05-01T07:56:42.26Z</time></trkpt><trkpt lat="45.33033" lon="8.0823633"><ele>207.0</ele><time>2026-05-01T07:56:43.26Z</time></trkpt><trkpt lat="45.33006" lon="8.0820633"><ele>207.0</ele><time>2026-05-01T07:56:44.26Z</time></trkpt><trkpt lat="45.329795" lon="8.0817683"><ele>207.5</ele><time>2026-05-01T07:56:45.261Z</time></trkpt><trkpt lat="45.3295133" lon="8.0814717"><ele>208.0</ele><time>2026-05-01T07:56:46.261Z</time></trkpt><trkpt lat="45.32924" lon="8.081175"><ele>208.0</ele><time>2026-05-01T07:56:47.261Z</time></trkpt><trkpt lat="45.3289567" lon="8.08088"><ele>208.0</ele><time>2026-05-01T07:56:48.261Z</time></trkpt><trkpt lat="45.3286767" lon="8.08058"><ele>207.5</ele><time>2026-05-01T07:56:49.26Z</time></trkpt><trkpt lat="45.3283883" lon="8.0802833"><ele>207.0</ele><time>2026-05-01T07:56:50.26Z</time></trkpt><trkpt lat="45.32811" lon="8.0799867"><ele>207.0</ele><time>2026-05-01T07:56:51.261Z</time></trkpt><trkpt lat="45.3278317" lon="8.0796917"><ele>207.0</ele><time>2026-05-01T07:56:52.261Z</time></trkpt><trkpt lat="45.3275583" lon="8.079395"><ele>207.0</ele><time>2026-05-01T07:56:53.26Z</time></trkpt><trkpt lat="45.3272883" lon="8.0790933"><ele>207.0</ele><time>2026-05-01T07:56:54.261Z</time></trkpt><trkpt lat="45.3270183" lon="8.0788033"><ele>207.0</ele><time>2026-05-01T07:56:55.26Z</time></trkpt><trkpt lat="45.3267567" lon="8.078515"><ele>207.0</ele><time>2026-05-01T07:56:56.261Z</time></trkpt><trkpt lat="45.3264933" lon="8.0782217"><ele>207.5</ele><time>2026-05-01T07:56:57.261Z</time></trkpt><trkpt lat="45.3262267" lon="8.0779383"><ele>208.0</ele><time>2026-05-01T07:56:58.261Z</time></trkpt><trkpt lat="45.325965" lon="8.07766"><ele>207.5</ele><time>2026-05-01T07:56:59.261Z</time></trkpt><trkpt lat="45.3256983" lon="8.077365"><ele>207.0</ele><time>2026-05-01T07:57:00.261Z</time></trkpt><trkpt lat="45.32543" lon="8.0770783"><ele>206.5</ele><time>2026-05-01T07:57:01.261Z</time></trkpt><trkpt lat="45.32515" lon="8.0767733"><ele>206.0</ele><time>2026-05-01T07:57:02.261Z</time></trkpt><trkpt lat="45.3248683" lon="8.0764683"><ele>206.5</ele><time>2026-05-01T07:57:03.261Z</time></trkpt><trkpt lat="45.3245933" lon="8.0761567"><ele>207.0</ele><time>2026-05-01T07:57:04.261Z</time></trkpt><trkpt lat="45.3243067" lon="8.0758433"><ele>207.0</ele><time>2026-05-01T07:57:05.26Z</time></trkpt><trkpt lat="45.3240167" lon="8.075535"><ele>207.0</ele><time>2026-05-01T07:57:06.26Z</time></trkpt><trkpt lat="45.32373" lon="8.0752333"><ele>207.0</ele><time>2026-05-01T07:57:07.26Z</time></trkpt><trkpt lat="45.3234417" lon="8.0749233"><ele>207.0</ele><time>2026-05-01T07:57:08.261Z</time></trkpt><trkpt lat="45.3231433" lon="8.0746267"><ele>207.0</ele><time>2026-05-01T07:57:09.261Z</time></trkpt><trkpt lat="45.3228583" lon="8.07431"><ele>207.0</ele><time>2026-05-01T07:57:10.261Z</time></trkpt><trkpt lat="45.3225767" lon="8.074"><ele>206.5</ele><time>2026-05-01T07:57:11.261Z</time></trkpt><trkpt lat="45.3222883" lon="8.0736967"><ele>206.0</ele><time>2026-05-01T07:57:12.261Z</time></trkpt><trkpt lat="45.3220067" lon="8.0733817"><ele>205.5</ele><time>2026-05-01T07:57:13.261Z</time></trkpt><trkpt lat="45.3217183" lon="8.07307"><ele>205.0</ele><time>2026-05-01T07:57:14.261Z</time></trkpt><trkpt lat="45.32143" lon="8.0727617"><ele>205.0</ele><time>2026-05-01T07:57:15.261Z</time></trkpt><trkpt lat="45.321145" lon="8.07246"><ele>205.0</ele><time>2026-05-01T07:57:16.261Z</time></trkpt><trkpt lat="45.320865" lon="8.0721517"><ele>205.0</ele><time>2026-05-01T07:57:17.261Z</time></trkpt><trkpt lat="45.3205933" lon="8.0718483"><ele>205.0</ele><time>2026-05-01T07:57:18.261Z</time></trkpt><trkpt lat="45.3203017" lon="8.0715433"><ele>205.5</ele><time>2026-05-01T07:57:19.261Z</time></trkpt><trkpt lat="45.32" lon="8.0712233"><ele>206.0</ele><time>2026-05-01T07:57:20.26Z</time></trkpt><trkpt lat="45.319715" lon="8.070905"><ele>207.0</ele><time>2026-05-01T07:57:21.26Z</time></trkpt><trkpt lat="45.3194233" lon="8.0705817"><ele>208.0</ele><time>2026-05-01T07:57:22.261Z</time></trkpt><trkpt lat="45.3191467" lon="8.070265"><ele>207.0</ele><time>2026-05-01T07:57:23.26Z</time></trkpt><trkpt lat="45.31887" lon="8.06996"><ele>206.0</ele><time>2026-05-01T07:57:24.261Z</time></trkpt><trkpt lat="45.3186067" lon="8.0696617"><ele>206.0</ele><time>2026-05-01T07:57:25.261Z</time></trkpt><trkpt lat="45.3183317" lon="8.0693617"><ele>206.0</ele><time>2026-05-01T07:57:26.261Z</time></trkpt><trkpt lat="45.3180733" lon="8.0690683"><ele>205.5</ele><time>2026-05-01T07:57:27.261Z</time></trkpt><trkpt lat="45.3178" lon="8.0687667"><ele>205.0</ele><time>2026-05-01T07:57:28.261Z</time></trkpt><trkpt lat="45.3175367" lon="8.06847"><ele>205.5</ele><time>2026-05-01T07:57:29.26Z</time></trkpt><trkpt lat="45.317255" lon="8.0681783"><ele>206.0</ele><time>2026-05-01T07:57:30.261Z</time></trkpt><trkpt lat="45.3169883" lon="8.0678833"><ele>206.0</ele><time>2026-05-01T07:57:31.261Z</time></trkpt><trkpt lat="45.316725" lon="8.0675933"><ele>206.0</ele><time>2026-05-01T07:57:32.261Z</time></trkpt><trkpt lat="45.3164717" lon="8.06731"><ele>206.5</ele><time>2026-05-01T07:57:33.261Z</time></trkpt><trkpt lat="45.3162017" lon="8.06703"><ele>207.0</ele><time>2026-05-01T07:57:34.261Z</time></trkpt><trkpt lat="45.3159383" lon="8.066745"><ele>207.0</ele><time>2026-05-01T07:57:35.261Z</time></trkpt><trkpt lat="45.31567" lon="8.0664567"><ele>207.0</ele><time>2026-05-01T07:57:36.26Z</time></trkpt><trkpt lat="45.3154083" lon="8.0661667"><ele>207.0</ele><time>2026-05-01T07:57:37.261Z</time></trkpt><trkpt lat="45.3151367" lon="8.065875"><ele>207.0</ele><time>2026-05-01T07:57:38.26Z</time></trkpt><trkpt lat="45.31488" lon="8.06559"><ele>207.5</ele><time>2026-05-01T07:57:39.26Z</time></trkpt><trkpt lat="45.3146183" lon="8.0653117"><ele>208.0</ele><time>2026-05-01T07:57:40.261Z</time></trkpt><trkpt lat="45.314365" lon="8.0650383"><ele>208.0</ele><time>2026-05-01T07:57:41.261Z</time></trkpt><trkpt lat="45.3141083" lon="8.06476"><ele>208.0</ele><time>2026-05-01T07:57:42.261Z</time></trkpt><trkpt lat="45.313855" lon="8.064485"><ele>208.0</ele><time>2026-05-01T07:57:43.26Z</time></trkpt><trkpt lat="45.313595" lon="8.0642117"><ele>208.0</ele><time>2026-05-01T07:57:44.261Z</time></trkpt><trkpt lat="45.313345" lon="8.0639367"><ele>208.0</ele><time>2026-05-01T07:57:45.261Z</time></trkpt><trkpt lat="45.313085" lon="8.0636667"><ele>208.0</ele><time>2026-05-01T07:57:46.26Z</time></trkpt><trkpt lat="45.312835" lon="8.0633983"><ele>208.5</ele><time>2026-05-01T07:57:47.26Z</time></trkpt><trkpt lat="45.3125833" lon="8.0631317"><ele>209.0</ele><time>2026-05-01T07:57:48.261Z</time></trkpt><trkpt lat="45.3123317" lon="8.062865"><ele>209.0</ele><time>2026-05-01T07:57:49.26Z</time></trkpt><trkpt lat="45.312075" lon="8.0625967"><ele>209.0</ele><time>2026-05-01T07:57:50.261Z</time></trkpt><trkpt lat="45.31182" lon="8.0623217"><ele>209.0</ele><time>2026-05-01T07:57:51.261Z</time></trkpt><trkpt lat="45.3115667" lon="8.0620517"><ele>209.0</ele><time>2026-05-01T07:57:52.261Z</time></trkpt><trkpt lat="45.3113217" lon="8.0617717"><ele>209.0</ele><time>2026-05-01T07:57:53.261Z</time></trkpt><trkpt lat="45.3110633" lon="8.0615"><ele>209.0</ele><time>2026-05-01T07:57:54.261Z</time></trkpt><trkpt lat="45.3108017" lon="8.0612267"><ele>208.5</ele><time>2026-05-01T07:57:55.261Z</time></trkpt><trkpt lat="45.3105417" lon="8.0609467"><ele>208.0</ele><time>2026-05-01T07:57:56.261Z</time></trkpt><trkpt lat="45.310285" lon="8.0606667"><ele>209.0</ele><time>2026-05-01T07:57:57.261Z</time></trkpt><trkpt lat="45.3100217" lon="8.0603917"><ele>210.0</ele><time>2026-05-01T07:57:58.261Z</time></trkpt><trkpt lat="45.3097633" lon="8.0601167"><ele>211.0</ele><time>2026-05-01T07:57:59.26Z</time></trkpt><trkpt lat="45.3095083" lon="8.0598333"><ele>212.0</ele><time>2026-05-01T07:58:00.261Z</time></trkpt><trkpt lat="45.3092617" lon="8.0595583"><ele>212.0</ele><time>2026-05-01T07:58:01.26Z</time></trkpt><trkpt lat="45.3090167" lon="8.0592833"><ele>212.0</ele><time>2026-05-01T07:58:02.261Z</time></trkpt><trkpt lat="45.3087667" lon="8.0590167"><ele>210.5</ele><time>2026-05-01T07:58:03.261Z</time></trkpt><trkpt lat="45.3085217" lon="8.0587517"><ele>209.0</ele><time>2026-05-01T07:58:04.26Z</time></trkpt><trkpt lat="45.308275" lon="8.0584817"><ele>210.5</ele><time>2026-05-01T07:58:05.261Z</time></trkpt><trkpt lat="45.308035" lon="8.058215"><ele>212.0</ele><time>2026-05-01T07:58:06.261Z</time></trkpt><trkpt lat="45.3077867" lon="8.0579617"><ele>212.0</ele><time>2026-05-01T07:58:07.261Z</time></trkpt><trkpt lat="45.3075467" lon="8.0577033"><ele>212.0</ele><time>2026-05-01T07:58:08.26Z</time></trkpt><trkpt lat="45.3073017" lon="8.0574367"><ele>210.5</ele><time>2026-05-01T07:58:09.261Z</time></trkpt><trkpt lat="45.3070583" lon="8.05717"><ele>209.0</ele><time>2026-05-01T07:58:10.261Z</time></trkpt><trkpt lat="45.3068133" lon="8.0569067"><ele>209.0</ele><time>2026-05-01T07:58:11.261Z</time></trkpt><trkpt lat="45.306565" lon="8.05665"><ele>209.0</ele><time>2026-05-01T07:58:12.261Z</time></trkpt><trkpt lat="45.3063167" lon="8.05638"><ele>209.0</ele><time>2026-05-01T07:58:13.26Z</time></trkpt><trkpt lat="45.3060767" lon="8.0561167"><ele>209.0</ele><time>2026-05-01T07:58:14.261Z</time></trkpt><trkpt lat="45.3058217" lon="8.05585"><ele>210.0</ele><time>2026-05-01T07:58:15.26Z</time></trkpt><trkpt lat="45.3055817" lon="8.0555883"><ele>211.0</ele><time>2026-05-01T07:58:16.261Z</time></trkpt><trkpt lat="45.3053283" lon="8.055315"><ele>211.0</ele><time>2026-05-01T07:58:17.261Z</time></trkpt><trkpt lat="45.3050817" lon="8.055045"><ele>211.0</ele><time>2026-05-01T07:58:18.26Z</time></trkpt><trkpt lat="45.30483" lon="8.0547733"><ele>211.0</ele><time>2026-05-01T07:58:19.26Z</time></trkpt><trkpt lat="45.30459" lon="8.0545017"><ele>211.0</ele><time>2026-05-01T07:58:20.261Z</time></trkpt><trkpt lat="45.3043417" lon="8.05423"><ele>211.0</ele><time>2026-05-01T07:58:21.26Z</time></trkpt><trkpt lat="45.3040867" lon="8.05395"><ele>211.0</ele><time>2026-05-01T07:58:22.261Z</time></trkpt><trkpt lat="45.303815" lon="8.0536633"><ele>211.0</ele><time>2026-05-01T07:58:23.261Z</time></trkpt><trkpt lat="45.3035417" lon="8.0533733"><ele>211.0</ele><time>2026-05-01T07:58:24.26Z</time></trkpt><trkpt lat="45.3032617" lon="8.0530767"><ele>210.5</ele><time>2026-05-01T07:58:25.261Z</time></trkpt><trkpt lat="45.3029967" lon="8.0527783"><ele>210.0</ele><time>2026-05-01T07:58:26.261Z</time></trkpt><trkpt lat="45.3027267" lon="8.05249"><ele>210.0</ele><time>2026-05-01T07:58:27.26Z</time></trkpt><trkpt lat="45.302475" lon="8.0521983"><ele>210.0</ele><time>2026-05-01T07:58:28.261Z</time></trkpt><trkpt lat="45.3022267" lon="8.0519033"><ele>209.5</ele><time>2026-05-01T07:58:29.26Z</time></trkpt><trkpt lat="45.3019767" lon="8.0516117"><ele>209.0</ele><time>2026-05-01T07:58:30.26Z</time></trkpt><trkpt lat="45.3017233" lon="8.0513283"><ele>209.0</ele><time>2026-05-01T07:58:31.26Z</time></trkpt><trkpt lat="45.301465" lon="8.0510533"><ele>209.0</ele><time>2026-05-01T07:58:32.26Z</time></trkpt><trkpt lat="45.3011983" lon="8.0507783"><ele>209.5</ele><time>2026-05-01T07:58:33.261Z</time></trkpt><trkpt lat="45.3009433" lon="8.0505083"><ele>210.0</ele><time>2026-05-01T07:58:34.261Z</time></trkpt><trkpt lat="45.30069" lon="8.0502317"><ele>210.0</ele><time>2026-05-01T07:58:35.261Z</time></trkpt><trkpt lat="45.3004417" lon="8.0499633"><ele>210.0</ele><time>2026-05-01T07:58:36.26Z</time></trkpt><trkpt lat="45.300185" lon="8.0496917"><ele>209.5</ele><time>2026-05-01T07:58:37.261Z</time></trkpt><trkpt lat="45.2999317" lon="8.0494217"><ele>209.0</ele><time>2026-05-01T07:58:38.26Z</time></trkpt><trkpt lat="45.299685" lon="8.0491367"><ele>210.5</ele><time>2026-05-01T07:58:39.261Z</time></trkpt><trkpt lat="45.29944" lon="8.0488533"><ele>212.0</ele><time>2026-05-01T07:58:40.261Z</time></trkpt><trkpt lat="45.2991867" lon="8.04857"><ele>212.0</ele><time>2026-05-01T07:58:41.261Z</time></trkpt><trkpt lat="45.2989283" lon="8.0483017"><ele>212.0</ele><time>2026-05-01T07:58:42.26Z</time></trkpt><trkpt lat="45.29868" lon="8.048025"><ele>211.0</ele><time>2026-05-01T07:58:43.26Z</time></trkpt><trkpt lat="45.29842" lon="8.0477533"><ele>210.0</ele><time>2026-05-01T07:58:44.26Z</time></trkpt><trkpt lat="45.2981733" lon="8.0474783"><ele>210.0</ele><time>2026-05-01T07:58:45.261Z</time></trkpt><trkpt lat="45.2979267" lon="8.0472033"><ele>210.0</ele><time>2026-05-01T07:58:46.26Z</time></trkpt><trkpt lat="45.2976817" lon="8.0469383"><ele>210.0</ele><time>2026-05-01T07:58:47.261Z</time></trkpt><trkpt lat="45.2974367" lon="8.046665"><ele>210.0</ele><time>2026-05-01T07:58:48.261Z</time></trkpt><trkpt lat="45.297185" lon="8.0463883"><ele>210.0</ele><time>2026-05-01T07:58:49.26Z</time></trkpt><trkpt lat="45.2969217" lon="8.0461117"><ele>210.0</ele><time>2026-05-01T07:58:50.261Z</time></trkpt><trkpt lat="45.2966617" lon="8.0458367"><ele>209.5</ele><time>2026-05-01T07:58:51.261Z</time></trkpt><trkpt lat="45.2963983" lon="8.0455567"><ele>209.0</ele><time>2026-05-01T07:58:52.261Z</time></trkpt><trkpt lat="45.2961383" lon="8.0452783"><ele>209.0</ele><time>2026-05-01T07:58:53.261Z</time></trkpt><trkpt lat="45.2958817" lon="8.0449983"><ele>209.0</ele><time>2026-05-01T07:58:54.26Z</time></trkpt><trkpt lat="45.29563" lon="8.0447283"><ele>209.5</ele><time>2026-05-01T07:58:55.261Z</time></trkpt><trkpt lat="45.29538" lon="8.0444517"><ele>210.0</ele><time>2026-05-01T07:58:56.261Z</time></trkpt><trkpt lat="45.2951267" lon="8.0441783"><ele>210.0</ele><time>2026-05-01T07:58:57.261Z</time></trkpt><trkpt lat="45.29488" lon="8.0439083"><ele>210.0</ele><time>2026-05-01T07:58:58.261Z</time></trkpt><trkpt lat="45.2946317" lon="8.0436433"><ele>210.0</ele><time>2026-05-01T07:58:59.261Z</time></trkpt><trkpt lat="45.2943817" lon="8.0433867"><ele>210.0</ele><time>2026-05-01T07:59:00.261Z</time></trkpt><trkpt lat="45.294125" lon="8.0431383"><ele>210.0</ele><time>2026-05-01T07:59:01.261Z</time></trkpt><trkpt lat="45.2938767" lon="8.042885"><ele>210.0</ele><time>2026-05-01T07:59:02.261Z</time></trkpt><trkpt lat="45.2936233" lon="8.0426217"><ele>209.5</ele><time>2026-05-01T07:59:03.261Z</time></trkpt><trkpt lat="45.2933767" lon="8.0423517"><ele>209.0</ele><time>2026-05-01T07:59:04.261Z</time></trkpt><trkpt lat="45.2931333" lon="8.0420717"><ele>209.5</ele><time>2026-05-01T07:59:05.261Z</time></trkpt><trkpt lat="45.2928833" lon="8.041795"><ele>210.0</ele><time>2026-05-01T07:59:06.261Z</time></trkpt><trkpt lat="45.2926283" lon="8.041525"><ele>210.5</ele><time>2026-05-01T07:59:07.26Z</time></trkpt><trkpt lat="45.2923717" lon="8.041245"><ele>211.0</ele><time>2026-05-01T07:59:08.261Z</time></trkpt><trkpt lat="45.2921067" lon="8.040965"><ele>212.0</ele><time>2026-05-01T07:59:09.261Z</time></trkpt><trkpt lat="45.2918467" lon="8.0406833"><ele>213.0</ele><time>2026-05-01T07:59:10.261Z</time></trkpt><trkpt lat="45.2915867" lon="8.0403967"><ele>212.0</ele><time>2026-05-01T07:59:11.26Z</time></trkpt><trkpt lat="45.2913283" lon="8.0401133"><ele>211.0</ele><time>2026-05-01T07:59:12.261Z</time></trkpt><trkpt lat="45.2910717" lon="8.0398233"><ele>211.0</ele><time>2026-05-01T07:59:13.261Z</time></trkpt><trkpt lat="45.2908133" lon="8.0395533"><ele>211.0</ele><time>2026-05-01T07:59:14.26Z</time></trkpt><trkpt lat="45.2905533" lon="8.0392783"><ele>212.0</ele><time>2026-05-01T07:59:15.261Z</time></trkpt><trkpt lat="45.2903" lon="8.0389967"><ele>213.0</ele><time>2026-05-01T07:59:16.261Z</time></trkpt><trkpt lat="45.2900383" lon="8.0387067"><ele>213.0</ele><time>2026-05-01T07:59:17.261Z</time></trkpt><trkpt lat="45.28978" lon="8.03842"><ele>213.0</ele><time>2026-05-01T07:59:18.261Z</time></trkpt><trkpt lat="45.289515" lon="8.0381367"><ele>213.5</ele><time>2026-05-01T07:59:19.262Z</time></trkpt><trkpt lat="45.289245" lon="8.0378417"><ele>214.0</ele><time>2026-05-01T07:59:20.262Z</time></trkpt><trkpt lat="45.2889817" lon="8.0375567"><ele>213.0</ele><time>2026-05-01T07:59:21.261Z</time></trkpt><trkpt lat="45.2887133" lon="8.03727"><ele>212.0</ele><time>2026-05-01T07:59:22.262Z</time></trkpt><trkpt lat="45.2884467" lon="8.03698"><ele>212.0</ele><time>2026-05-01T07:59:23.262Z</time></trkpt><trkpt lat="45.2881883" lon="8.0367017"><ele>212.0</ele><time>2026-05-01T07:59:24.261Z</time></trkpt><trkpt lat="45.287935" lon="8.036435"><ele>213.0</ele><time>2026-05-01T07:59:25.262Z</time></trkpt><trkpt lat="45.287695" lon="8.03617"><ele>214.0</ele><time>2026-05-01T07:59:26.262Z</time></trkpt><trkpt lat="45.28745" lon="8.0359033"><ele>213.5</ele><time>2026-05-01T07:59:27.262Z</time></trkpt><trkpt lat="45.2872117" lon="8.0356333"><ele>213.0</ele><time>2026-05-01T07:59:28.262Z</time></trkpt><trkpt lat="45.28696" lon="8.0353667"><ele>213.0</ele><time>2026-05-01T07:59:29.261Z</time></trkpt><trkpt lat="45.2867183" lon="8.0351067"><ele>213.0</ele><time>2026-05-01T07:59:30.261Z</time></trkpt><trkpt lat="45.2864733" lon="8.0348433"><ele>212.5</ele><time>2026-05-01T07:59:31.262Z</time></trkpt><trkpt lat="45.2862367" lon="8.0345783"><ele>212.0</ele><time>2026-05-01T07:59:32.262Z</time></trkpt><trkpt lat="45.2859983" lon="8.0343183"><ele>212.5</ele><time>2026-05-01T07:59:33.261Z</time></trkpt><trkpt lat="45.2857667" lon="8.0340567"><ele>213.0</ele><time>2026-05-01T07:59:34.262Z</time></trkpt><trkpt lat="45.285525" lon="8.0337967"><ele>213.0</ele><time>2026-05-01T07:59:35.262Z</time></trkpt><trkpt lat="45.2852867" lon="8.033535"><ele>213.0</ele><time>2026-05-01T07:59:36.262Z</time></trkpt><trkpt lat="45.285035" lon="8.0332767"><ele>212.5</ele><time>2026-05-01T07:59:37.262Z</time></trkpt><trkpt lat="45.2847933" lon="8.03301"><ele>212.0</ele><time>2026-05-01T07:59:38.262Z</time></trkpt><trkpt lat="45.284545" lon="8.0327383"><ele>213.0</ele><time>2026-05-01T07:59:39.261Z</time></trkpt><trkpt lat="45.28429" lon="8.0324533"><ele>214.0</ele><time>2026-05-01T07:59:40.262Z</time></trkpt><trkpt lat="45.2840267" lon="8.03216"><ele>214.5</ele><time>2026-05-01T07:59:41.262Z</time></trkpt><trkpt lat="45.2837533" lon="8.0318667"><ele>215.0</ele><time>2026-05-01T07:59:42.262Z</time></trkpt><trkpt lat="45.2834783" lon="8.0315683"><ele>215.0</ele><time>2026-05-01T07:59:43.262Z</time></trkpt><trkpt lat="45.28321" lon="8.0312667"><ele>215.0</ele><time>2026-05-01T07:59:44.261Z</time></trkpt><trkpt lat="45.282935" lon="8.0309683"><ele>214.5</ele><time>2026-05-01T07:59:45.261Z</time></trkpt><trkpt lat="45.2826617" lon="8.0306717"><ele>214.0</ele><time>2026-05-01T07:59:46.262Z</time></trkpt><trkpt lat="45.2823933" lon="8.0303733"><ele>213.5</ele><time>2026-05-01T07:59:47.261Z</time></trkpt><trkpt lat="45.2821233" lon="8.0300833"><ele>213.0</ele><time>2026-05-01T07:59:48.262Z</time></trkpt><trkpt lat="45.2818533" lon="8.0297933"><ele>213.0</ele><time>2026-05-01T07:59:49.261Z</time></trkpt><trkpt lat="45.2815917" lon="8.029505"><ele>213.0</ele><time>2026-05-01T07:59:50.262Z</time></trkpt><trkpt lat="45.2813267" lon="8.0292233"><ele>214.5</ele><time>2026-05-01T07:59:51.262Z</time></trkpt><trkpt lat="45.28106" lon="8.028945"><ele>216.0</ele><time>2026-05-01T07:59:52.262Z</time></trkpt><trkpt lat="45.280795" lon="8.0286683"><ele>216.0</ele><time>2026-05-01T07:59:53.261Z</time></trkpt><trkpt lat="45.28053" lon="8.0283983"><ele>216.0</ele><time>2026-05-01T07:59:54.262Z</time></trkpt><trkpt lat="45.2802617" lon="8.0281117"><ele>215.5</ele><time>2026-05-01T07:59:55.262Z</time></trkpt><trkpt lat="45.2799817" lon="8.027825"><ele>215.0</ele><time>2026-05-01T07:59:56.261Z</time></trkpt><trkpt lat="45.27972" lon="8.0275333"><ele>213.5</ele><time>2026-05-01T07:59:57.262Z</time></trkpt><trkpt lat="45.2794533" lon="8.0272417"><ele>212.0</ele><time>2026-05-01T07:59:58.262Z</time></trkpt><trkpt lat="45.2791883" lon="8.0269483"><ele>213.0</ele><time>2026-05-01T07:59:59.262Z</time></trkpt><trkpt lat="45.2789133" lon="8.0266533"><ele>214.0</ele><time>2026-05-01T08:00:00.262Z</time></trkpt><trkpt lat="45.2786367" lon="8.0263517"><ele>214.0</ele><time>2026-05-01T08:00:01.262Z</time></trkpt><trkpt lat="45.27836" lon="8.0260483"><ele>214.0</ele><time>2026-05-01T08:00:02.262Z</time></trkpt><trkpt lat="45.2780867" lon="8.02575"><ele>214.0</ele><time>2026-05-01T08:00:03.262Z</time></trkpt><trkpt lat="45.27781" lon="8.0254583"><ele>214.0</ele><time>2026-05-01T08:00:04.262Z</time></trkpt><trkpt lat="45.2775467" lon="8.0251717"><ele>214.5</ele><time>2026-05-01T08:00:05.262Z</time></trkpt><trkpt lat="45.2772867" lon="8.0248783"><ele>215.0</ele><time>2026-05-01T08:00:06.262Z</time></trkpt><trkpt lat="45.2770183" lon="8.0246"><ele>214.0</ele><time>2026-05-01T08:00:07.262Z</time></trkpt><trkpt lat="45.2767533" lon="8.0243167"><ele>213.0</ele><time>2026-05-01T08:00:08.261Z</time></trkpt><trkpt lat="45.2764983" lon="8.024045"><ele>212.5</ele><time>2026-05-01T08:00:09.261Z</time></trkpt><trkpt lat="45.2762533" lon="8.0237717"><ele>212.0</ele><time>2026-05-01T08:00:10.262Z</time></trkpt><trkpt lat="45.275985" lon="8.0235017"><ele>212.0</ele><time>2026-05-01T08:00:11.262Z</time></trkpt><trkpt lat="45.2757333" lon="8.0232167"><ele>212.0</ele><time>2026-05-01T08:00:12.262Z</time></trkpt><trkpt lat="45.2754717" lon="8.02293"><ele>212.0</ele><time>2026-05-01T08:00:13.262Z</time></trkpt><trkpt lat="45.275205" lon="8.0226383"><ele>212.0</ele><time>2026-05-01T08:00:14.262Z</time></trkpt><trkpt lat="45.27494" lon="8.0223467"><ele>213.0</ele><time>2026-05-01T08:00:15.262Z</time></trkpt><trkpt lat="45.27468" lon="8.0220567"><ele>214.0</ele><time>2026-05-01T08:00:16.261Z</time></trkpt><trkpt lat="45.2744217" lon="8.0217767"><ele>214.0</ele><time>2026-05-01T08:00:17.262Z</time></trkpt><trkpt lat="45.2741683" lon="8.0215017"><ele>214.0</ele><time>2026-05-01T08:00:18.262Z</time></trkpt><trkpt lat="45.2739167" lon="8.0212317"><ele>214.0</ele><time>2026-05-01T08:00:19.262Z</time></trkpt><trkpt lat="45.2736617" lon="8.02097"><ele>214.0</ele><time>2026-05-01T08:00:20.262Z</time></trkpt><trkpt lat="45.2734183" lon="8.0207017"><ele>214.0</ele><time>2026-05-01T08:00:21.262Z</time></trkpt><trkpt lat="45.2731717" lon="8.0204283"><ele>214.0</ele><time>2026-05-01T08:00:22.261Z</time></trkpt><trkpt lat="45.2729183" lon="8.020155"><ele>213.5</ele><time>2026-05-01T08:00:23.262Z</time></trkpt><trkpt lat="45.272665" lon="8.019895"><ele>213.0</ele><time>2026-05-01T08:00:24.262Z</time></trkpt><trkpt lat="45.2724217" lon="8.01964"><ele>213.0</ele><time>2026-05-01T08:00:25.262Z</time></trkpt><trkpt lat="45.27217" lon="8.0193683"><ele>213.0</ele><time>2026-05-01T08:00:26.261Z</time></trkpt><trkpt lat="45.2719117" lon="8.019085"><ele>213.0</ele><time>2026-05-01T08:00:27.262Z</time></trkpt><trkpt lat="45.2716533" lon="8.018795"><ele>213.0</ele><time>2026-05-01T08:00:28.262Z</time></trkpt><trkpt lat="45.2713867" lon="8.0185017"><ele>212.5</ele><time>2026-05-01T08:00:29.261Z</time></trkpt><trkpt lat="45.2711233" lon="8.0182067"><ele>212.0</ele><time>2026-05-01T08:00:30.261Z</time></trkpt><trkpt lat="45.2708567" lon="8.017915"><ele>212.0</ele><time>2026-05-01T08:00:31.262Z</time></trkpt><trkpt lat="45.27059" lon="8.0176183"><ele>212.0</ele><time>2026-05-01T08:00:32.262Z</time></trkpt><trkpt lat="45.270315" lon="8.0173267"><ele>212.0</ele><time>2026-05-01T08:00:33.262Z</time></trkpt><trkpt lat="45.27004" lon="8.0170333"><ele>212.0</ele><time>2026-05-01T08:00:34.262Z</time></trkpt><trkpt lat="45.2697683" lon="8.0167467"><ele>212.0</ele><time>2026-05-01T08:00:35.262Z</time></trkpt><trkpt lat="45.2694933" lon="8.0164533"><ele>212.0</ele><time>2026-05-01T08:00:36.262Z</time></trkpt><trkpt lat="45.2692183" lon="8.0161667"><ele>212.0</ele><time>2026-05-01T08:00:37.262Z</time></trkpt><trkpt lat="45.2689533" lon="8.0158733"><ele>212.0</ele><time>2026-05-01T08:00:38.262Z</time></trkpt><trkpt lat="45.2686883" lon="8.01558"><ele>211.5</ele><time>2026-05-01T08:00:39.262Z</time></trkpt><trkpt lat="45.2684317" lon="8.0152917"><ele>211.0</ele><time>2026-05-01T08:00:40.261Z</time></trkpt><trkpt lat="45.2681567" lon="8.01499"><ele>211.0</ele><time>2026-05-01T08:00:41.262Z</time></trkpt><trkpt lat="45.2679083" lon="8.01471"><ele>211.0</ele><time>2026-05-01T08:00:42.262Z</time></trkpt><trkpt lat="45.2676567" lon="8.0144333"><ele>211.5</ele><time>2026-05-01T08:00:43.262Z</time></trkpt><trkpt lat="45.267405" lon="8.014145"><ele>212.0</ele><time>2026-05-01T08:00:44.262Z</time></trkpt><trkpt lat="45.26715" lon="8.0138717"><ele>211.0</ele><time>2026-05-01T08:00:45.262Z</time></trkpt><trkpt lat="45.2668967" lon="8.0135933"><ele>210.0</ele><time>2026-05-01T08:00:46.262Z</time></trkpt><trkpt lat="45.2666433" lon="8.0133117"><ele>209.5</ele><time>2026-05-01T08:00:47.262Z</time></trkpt><trkpt lat="45.26639" lon="8.01303"><ele>209.0</ele><time>2026-05-01T08:00:48.262Z</time></trkpt><trkpt lat="45.2661333" lon="8.0127567"><ele>209.5</ele><time>2026-05-01T08:00:49.262Z</time></trkpt><trkpt lat="45.26588" lon="8.0124833"><ele>210.0</ele><time>2026-05-01T08:00:50.262Z</time></trkpt><trkpt lat="45.26563" lon="8.0122067"><ele>211.5</ele><time>2026-05-01T08:00:51.262Z</time></trkpt><trkpt lat="45.265385" lon="8.011935"><ele>213.0</ele><time>2026-05-01T08:00:52.262Z</time></trkpt><trkpt lat="45.265125" lon="8.0116617"><ele>213.0</ele><time>2026-05-01T08:00:53.262Z</time></trkpt><trkpt lat="45.2648867" lon="8.0113983"><ele>213.0</ele><time>2026-05-01T08:00:54.262Z</time></trkpt><trkpt lat="45.2646467" lon="8.0111283"><ele>212.5</ele><time>2026-05-01T08:00:55.262Z</time></trkpt><trkpt lat="45.2644067" lon="8.010865"><ele>212.0</ele><time>2026-05-01T08:00:56.262Z</time></trkpt><trkpt lat="45.2641667" lon="8.0106017"><ele>210.0</ele><time>2026-05-01T08:00:57.262Z</time></trkpt><trkpt lat="45.2639283" lon="8.01034"><ele>208.0</ele><time>2026-05-01T08:00:58.262Z</time></trkpt><trkpt lat="45.26368" lon="8.010075"><ele>208.5</ele><time>2026-05-01T08:00:59.262Z</time></trkpt><trkpt lat="45.2634417" lon="8.0098117"><ele>209.0</ele><time>2026-05-01T08:01:00.262Z</time></trkpt><trkpt lat="45.2632017" lon="8.0095383"><ele>208.5</ele><time>2026-05-01T08:01:01.261Z</time></trkpt><trkpt lat="45.2629583" lon="8.0092683"><ele>208.0</ele><time>2026-05-01T08:01:02.261Z</time></trkpt><trkpt lat="45.2627067" lon="8.0089933"><ele>208.0</ele><time>2026-05-01T08:01:03.262Z</time></trkpt><trkpt lat="45.262455" lon="8.00872"><ele>208.0</ele><time>2026-05-01T08:01:04.262Z</time></trkpt><trkpt lat="45.2621933" lon="8.0084517"><ele>208.0</ele><time>2026-05-01T08:01:05.262Z</time></trkpt><trkpt lat="45.2619383" lon="8.0081783"><ele>208.0</ele><time>2026-05-01T08:01:06.261Z</time></trkpt><trkpt lat="45.2616767" lon="8.0079"><ele>208.5</ele><time>2026-05-01T08:01:07.262Z</time></trkpt><trkpt lat="45.2614083" lon="8.0076067"><ele>209.0</ele><time>2026-05-01T08:01:08.261Z</time></trkpt><trkpt lat="45.2611383" lon="8.0073117"><ele>208.0</ele><time>2026-05-01T08:01:09.262Z</time></trkpt><trkpt lat="45.2608717" lon="8.0070117"><ele>207.0</ele><time>2026-05-01T08:01:10.262Z</time></trkpt><trkpt lat="45.2606033" lon="8.006715"><ele>206.5</ele><time>2026-05-01T08:01:11.262Z</time></trkpt><trkpt lat="45.2603367" lon="8.0064333"><ele>206.0</ele><time>2026-05-01T08:01:12.261Z</time></trkpt><trkpt lat="45.2600767" lon="8.006145"><ele>206.0</ele><time>2026-05-01T08:01:13.262Z</time></trkpt><trkpt lat="45.2598183" lon="8.0058533"><ele>206.0</ele><time>2026-05-01T08:01:14.261Z</time></trkpt><trkpt lat="45.259555" lon="8.0055683"><ele>206.5</ele><time>2026-05-01T08:01:15.262Z</time></trkpt><trkpt lat="45.2593017" lon="8.005285"><ele>207.0</ele><time>2026-05-01T08:01:16.262Z</time></trkpt><trkpt lat="45.2590517" lon="8.0049917"><ele>206.5</ele><time>2026-05-01T08:01:17.261Z</time></trkpt><trkpt lat="45.2587967" lon="8.0047"><ele>206.0</ele><time>2026-05-01T08:01:18.262Z</time></trkpt><trkpt lat="45.258545" lon="8.0044067"><ele>206.0</ele><time>2026-05-01T08:01:19.261Z</time></trkpt><trkpt lat="45.2582983" lon="8.0041133"><ele>206.0</ele><time>2026-05-01T08:01:20.262Z</time></trkpt><trkpt lat="45.2580467" lon="8.0038217"><ele>206.0</ele><time>2026-05-01T08:01:21.262Z</time></trkpt><trkpt lat="45.257795" lon="8.00352"><ele>206.0</ele><time>2026-05-01T08:01:22.262Z</time></trkpt><trkpt lat="45.25755" lon="8.00322"><ele>206.0</ele><time>2026-05-01T08:01:23.262Z</time></trkpt><trkpt lat="45.2573067" lon="8.0029133"><ele>206.0</ele><time>2026-05-01T08:01:24.262Z</time></trkpt><trkpt lat="45.2570633" lon="8.00261"><ele>205.5</ele><time>2026-05-01T08:01:25.262Z</time></trkpt><trkpt lat="45.256825" lon="8.0023"><ele>205.0</ele><time>2026-05-01T08:01:26.262Z</time></trkpt><trkpt lat="45.256595" lon="8.0020017"><ele>205.5</ele><time>2026-05-01T08:01:27.262Z</time></trkpt><trkpt lat="45.2563667" lon="8.001705"><ele>206.0</ele><time>2026-05-01T08:01:28.261Z</time></trkpt><trkpt lat="45.2561367" lon="8.0014"><ele>206.0</ele><time>2026-05-01T08:01:29.262Z</time></trkpt><trkpt lat="45.2559083" lon="8.0011033"><ele>206.0</ele><time>2026-05-01T08:01:30.262Z</time></trkpt><trkpt lat="45.25568" lon="8.000795"><ele>205.0</ele><time>2026-05-01T08:01:31.262Z</time></trkpt><trkpt lat="45.2554567" lon="8.0004867"><ele>204.0</ele><time>2026-05-01T08:01:32.262Z</time></trkpt><trkpt lat="45.2552367" lon="8.0001683"><ele>204.0</ele><time>2026-05-01T08:01:33.262Z</time></trkpt><trkpt lat="45.255025" lon="7.99983"><ele>204.0</ele><time>2026-05-01T08:01:34.261Z</time></trkpt><trkpt lat="45.2548133" lon="7.9994967"><ele>206.5</ele><time>2026-05-01T08:01:35.262Z</time></trkpt><trkpt lat="45.2546017" lon="7.9991583"><ele>209.0</ele><time>2026-05-01T08:01:36.262Z</time></trkpt><trkpt lat="45.2543933" lon="7.9988283"><ele>209.0</ele><time>2026-05-01T08:01:37.262Z</time></trkpt><trkpt lat="45.2541683" lon="7.99849"><ele>209.0</ele><time>2026-05-01T08:01:38.262Z</time></trkpt><trkpt lat="45.253945" lon="7.9981567"><ele>206.0</ele><time>2026-05-01T08:01:39.262Z</time></trkpt><trkpt lat="45.2537333" lon="7.9978133"><ele>203.0</ele><time>2026-05-01T08:01:40.262Z</time></trkpt><trkpt lat="45.2535167" lon="7.99748"><ele>202.0</ele><time>2026-05-01T08:01:41.262Z</time></trkpt><trkpt lat="45.2533033" lon="7.9971333"><ele>201.0</ele><time>2026-05-01T08:01:42.262Z</time></trkpt><trkpt lat="45.2530867" lon="7.9967817"><ele>200.5</ele><time>2026-05-01T08:01:43.261Z</time></trkpt><trkpt lat="45.2528733" lon="7.9964267"><ele>200.0</ele><time>2026-05-01T08:01:44.262Z</time></trkpt><trkpt lat="45.2526583" lon="7.9960717"><ele>200.5</ele><time>2026-05-01T08:01:45.261Z</time></trkpt><trkpt lat="45.25244" lon="7.9957083"><ele>201.0</ele><time>2026-05-01T08:01:46.262Z</time></trkpt><trkpt lat="45.2522233" lon="7.9953583"><ele>200.0</ele><time>2026-05-01T08:01:47.262Z</time></trkpt><trkpt lat="45.25201" lon="7.9950017"><ele>199.0</ele><time>2026-05-01T08:01:48.262Z</time></trkpt><trkpt lat="45.2517933" lon="7.9946417"><ele>199.0</ele><time>2026-05-01T08:01:49.262Z</time></trkpt><trkpt lat="45.25158" lon="7.9942783"><ele>199.0</ele><time>2026-05-01T08:01:50.261Z</time></trkpt><trkpt lat="45.2513683" lon="7.9939167"><ele>198.0</ele><time>2026-05-01T08:01:51.262Z</time></trkpt><trkpt lat="45.2511567" lon="7.993545"><ele>197.0</ele><time>2026-05-01T08:01:52.262Z</time></trkpt><trkpt lat="45.2509467" lon="7.99318"><ele>195.5</ele><time>2026-05-01T08:01:53.261Z</time></trkpt><trkpt lat="45.25074" lon="7.9928133"><ele>194.0</ele><time>2026-05-01T08:01:54.262Z</time></trkpt><trkpt lat="45.25053" lon="7.99244"><ele>191.0</ele><time>2026-05-01T08:01:55.261Z</time></trkpt><trkpt lat="45.2503333" lon="7.9920817"><ele>188.0</ele><time>2026-05-01T08:01:56.261Z</time></trkpt><trkpt lat="45.2501317" lon="7.9917133"><ele>187.0</ele><time>2026-05-01T08:01:57.261Z</time></trkpt><trkpt lat="45.24991" lon="7.9913383"><ele>186.0</ele><time>2026-05-01T08:01:58.262Z</time></trkpt><trkpt lat="45.2497033" lon="7.99097"><ele>185.0</ele><time>2026-05-01T08:01:59.261Z</time></trkpt><trkpt lat="45.24949" lon="7.9905967"><ele>184.0</ele><time>2026-05-01T08:02:00.261Z</time></trkpt><trkpt lat="45.2492833" lon="7.9902267"><ele>184.5</ele><time>2026-05-01T08:02:01.261Z</time></trkpt><trkpt lat="45.2490833" lon="7.9898517"><ele>185.0</ele><time>2026-05-01T08:02:02.262Z</time></trkpt><trkpt lat="45.2488883" lon="7.9894733"><ele>186.0</ele><time>2026-05-01T08:02:03.261Z</time></trkpt><trkpt lat="45.248695" lon="7.98909"><ele>187.0</ele><time>2026-05-01T08:02:04.262Z</time></trkpt><trkpt lat="45.248505" lon="7.988705"><ele>187.0</ele><time>2026-05-01T08:02:05.262Z</time></trkpt><trkpt lat="45.2483117" lon="7.988315"><ele>187.0</ele><time>2026-05-01T08:02:06.262Z</time></trkpt><trkpt lat="45.24812" lon="7.987925"><ele>186.0</ele><time>2026-05-01T08:02:07.262Z</time></trkpt><trkpt lat="45.2479283" lon="7.9875333"><ele>185.0</ele><time>2026-05-01T08:02:08.262Z</time></trkpt><trkpt lat="45.2477383" lon="7.9871417"><ele>185.0</ele><time>2026-05-01T08:02:09.262Z</time></trkpt><trkpt lat="45.24755" lon="7.9867483"><ele>185.0</ele><time>2026-05-01T08:02:10.261Z</time></trkpt><trkpt lat="45.24736" lon="7.98636"><ele>185.5</ele><time>2026-05-01T08:02:11.262Z</time></trkpt><trkpt lat="45.24717" lon="7.9859633"><ele>186.0</ele><time>2026-05-01T08:02:12.262Z</time></trkpt><trkpt lat="45.246985" lon="7.98557"><ele>186.0</ele><time>2026-05-01T08:02:13.262Z</time></trkpt><trkpt lat="45.24681" lon="7.9851733"><ele>186.0</ele><time>2026-05-01T08:02:14.262Z</time></trkpt><trkpt lat="45.2466367" lon="7.9847733"><ele>186.0</ele><time>2026-05-01T08:02:15.262Z</time></trkpt><trkpt lat="45.246455" lon="7.9843633"><ele>186.0</ele><time>2026-05-01T08:02:16.261Z</time></trkpt><trkpt lat="45.2462883" lon="7.983965"><ele>186.0</ele><time>2026-05-01T08:02:17.261Z</time></trkpt><trkpt lat="45.2461133" lon="7.9835583"><ele>186.0</ele><time>2026-05-01T08:02:18.261Z</time></trkpt><trkpt lat="45.2459383" lon="7.98315"><ele>185.0</ele><time>2026-05-01T08:02:19.262Z</time></trkpt><trkpt lat="45.2457667" lon="7.9827417"><ele>184.0</ele><time>2026-05-01T08:02:20.262Z</time></trkpt><trkpt lat="45.2456133" lon="7.982335"><ele>184.0</ele><time>2026-05-01T08:02:21.261Z</time></trkpt><trkpt lat="45.245455" lon="7.9819233"><ele>184.0</ele><time>2026-05-01T08:02:22.262Z</time></trkpt><trkpt lat="45.24529" lon="7.9815233"><ele>184.0</ele><time>2026-05-01T08:02:23.262Z</time></trkpt><trkpt lat="45.2451267" lon="7.98111"><ele>184.0</ele><time>2026-05-01T08:02:24.261Z</time></trkpt><trkpt lat="45.244965" lon="7.9806933"><ele>185.5</ele><time>2026-05-01T08:02:25.262Z</time></trkpt><trkpt lat="45.2447983" lon="7.9802767"><ele>187.0</ele><time>2026-05-01T08:02:26.262Z</time></trkpt><trkpt lat="45.2446367" lon="7.9798567"><ele>187.0</ele><time>2026-05-01T08:02:27.262Z</time></trkpt><trkpt lat="45.2444933" lon="7.9794483"><ele>187.0</ele><time>2026-05-01T08:02:28.262Z</time></trkpt><trkpt lat="45.2443317" lon="7.9790267"><ele>187.0</ele><time>2026-05-01T08:02:29.262Z</time></trkpt><trkpt lat="45.2441767" lon="7.978605"><ele>187.0</ele><time>2026-05-01T08:02:30.261Z</time></trkpt><trkpt lat="45.2440283" lon="7.97819"><ele>188.5</ele><time>2026-05-01T08:02:31.261Z</time></trkpt><trkpt lat="45.2438683" lon="7.9777683"><ele>190.0</ele><time>2026-05-01T08:02:32.262Z</time></trkpt><trkpt lat="45.243725" lon="7.9773467"><ele>190.0</ele><time>2026-05-01T08:02:33.262Z</time></trkpt><trkpt lat="45.243575" lon="7.9769167"><ele>190.0</ele><time>2026-05-01T08:02:34.262Z</time></trkpt><trkpt lat="45.2434283" lon="7.976485"><ele>191.0</ele><time>2026-05-01T08:02:35.262Z</time></trkpt><trkpt lat="45.2432817" lon="7.97606"><ele>192.0</ele><time>2026-05-01T08:02:36.262Z</time></trkpt><trkpt lat="45.2431367" lon="7.9756283"><ele>191.5</ele><time>2026-05-01T08:02:37.262Z</time></trkpt><trkpt lat="45.2430017" lon="7.9752017"><ele>191.0</ele><time>2026-05-01T08:02:38.262Z</time></trkpt><trkpt lat="45.2428583" lon="7.9747783"><ele>191.0</ele><time>2026-05-01T08:02:39.262Z</time></trkpt><trkpt lat="45.2427183" lon="7.9743517"><ele>191.0</ele><time>2026-05-01T08:02:40.261Z</time></trkpt><trkpt lat="45.24258" lon="7.9739433"><ele>191.5</ele><time>2026-05-01T08:02:41.262Z</time></trkpt><trkpt lat="45.24244" lon="7.97355"><ele>192.0</ele><time>2026-05-01T08:02:42.262Z</time></trkpt><trkpt lat="45.2423333" lon="7.9731667"><ele>191.5</ele><time>2026-05-01T08:02:43.261Z</time></trkpt><trkpt lat="45.2422033" lon="7.9727633"><ele>191.0</ele><time>2026-05-01T08:02:44.262Z</time></trkpt><trkpt lat="45.2420967" lon="7.9723783"><ele>193.0</ele><time>2026-05-01T08:02:45.262Z</time></trkpt><trkpt lat="45.2419883" lon="7.9719933"><ele>195.0</ele><time>2026-05-01T08:02:46.262Z</time></trkpt><trkpt lat="45.24187" lon="7.9715967"><ele>198.5</ele><time>2026-05-01T08:02:47.262Z</time></trkpt><trkpt lat="45.2417517" lon="7.9712067"><ele>202.0</ele><time>2026-05-01T08:02:48.262Z</time></trkpt><trkpt lat="45.24163" lon="7.970825"><ele>203.0</ele><time>2026-05-01T08:02:49.262Z</time></trkpt><trkpt lat="45.2415" lon="7.9704583"><ele>204.0</ele><time>2026-05-01T08:02:50.262Z</time></trkpt><trkpt lat="45.24137" lon="7.9700967"><ele>204.5</ele><time>2026-05-01T08:02:51.261Z</time></trkpt><trkpt lat="45.2412483" lon="7.9697383"><ele>205.0</ele><time>2026-05-01T08:02:52.262Z</time></trkpt><trkpt lat="45.2411317" lon="7.9693767"><ele>205.0</ele><time>2026-05-01T08:02:53.261Z</time></trkpt><trkpt lat="45.2410217" lon="7.969025"><ele>205.0</ele><time>2026-05-01T08:02:54.262Z</time></trkpt><trkpt lat="45.2409183" lon="7.9686733"><ele>206.0</ele><time>2026-05-01T08:02:55.261Z</time></trkpt><trkpt lat="45.240815" lon="7.9683167"><ele>207.0</ele><time>2026-05-01T08:02:56.261Z</time></trkpt><trkpt lat="45.2407233" lon="7.9679433"><ele>207.0</ele><time>2026-05-01T08:02:57.262Z</time></trkpt><trkpt lat="45.2406433" lon="7.9675933"><ele>207.0</ele><time>2026-05-01T08:02:58.261Z</time></trkpt><trkpt lat="45.24056" lon="7.9672533"><ele>206.5</ele><time>2026-05-01T08:02:59.262Z</time></trkpt><trkpt lat="45.240465" lon="7.9669133"><ele>206.0</ele><time>2026-05-01T08:03:00.262Z</time></trkpt><trkpt lat="45.2403733" lon="7.9665717"><ele>206.0</ele><time>2026-05-01T08:03:01.262Z</time></trkpt><trkpt lat="45.2402883" lon="7.9662517"><ele>206.0</ele><time>2026-05-01T08:03:02.262Z</time></trkpt><trkpt lat="45.2402" lon="7.9659467"><ele>206.33333333333334</ele><time>2026-05-01T08:03:03.262Z</time></trkpt><trkpt lat="45.2401217" lon="7.9656667"><ele>206.66666666666669</ele><time>2026-05-01T08:03:04.262Z</time></trkpt><trkpt lat="45.2400417" lon="7.965405"><ele>207.0</ele><time>2026-05-01T08:03:05.262Z</time></trkpt><trkpt lat="45.2399517" lon="7.96516"><ele>207.66666666666669</ele><time>2026-05-01T08:03:06.262Z</time></trkpt><trkpt lat="45.2398783" lon="7.964935"><ele>208.33333333333334</ele><time>2026-05-01T08:03:07.262Z</time></trkpt><trkpt lat="45.23981" lon="7.964725"><ele>209.0</ele><time>2026-05-01T08:03:08.262Z</time></trkpt><trkpt lat="45.239755" lon="7.9645367"><ele>209.0</ele><time>2026-05-01T08:03:09.262Z</time></trkpt><trkpt lat="45.239705" lon="7.96438"><ele>209.0</ele><time>2026-05-01T08:03:10.262Z</time></trkpt><trkpt lat="45.2396633" lon="7.9642417"><ele>209.0</ele><time>2026-05-01T08:03:11.261Z</time></trkpt><trkpt lat="45.2396283" lon="7.9641217"><ele>209.0</ele><time>2026-05-01T08:03:12.262Z</time></trkpt><trkpt lat="45.2395983" lon="7.9640317"><ele>209.0</ele><time>2026-05-01T08:03:13.262Z</time></trkpt><trkpt lat="45.2395717" lon="7.96395"><ele>208.83333333333334</ele><time>2026-05-01T08:03:14.262Z</time></trkpt><trkpt lat="45.2395417" lon="7.96384"><ele>208.66666666666669</ele><time>2026-05-01T08:03:16.262Z</time></trkpt><trkpt lat="45.2395233" lon="7.9637483"><ele>208.5</ele><time>2026-05-01T08:03:18.262Z</time></trkpt><trkpt lat="45.23952" lon="7.9636467"><ele>208.33333333333331</ele><time>2026-05-01T08:03:21.262Z</time></trkpt><trkpt lat="45.2394933" lon="7.963525"><ele>208.16666666666666</ele><time>2026-05-01T08:03:23.262Z</time></trkpt><trkpt lat="45.2394633" lon="7.9634333"><ele>208.0</ele><time>2026-05-01T08:03:24.262Z</time></trkpt><trkpt lat="45.23942" lon="7.9633167"><ele>208.0</ele><time>2026-05-01T08:03:25.262Z</time></trkpt><trkpt lat="45.2393833" lon="7.9631983"><ele>208.0</ele><time>2026-05-01T08:03:26.262Z</time></trkpt><trkpt lat="45.2393233" lon="7.96305"><ele>208.0</ele><time>2026-05-01T08:03:27.262Z</time></trkpt><trkpt lat="45.2392683" lon="7.962895"><ele>208.0</ele><time>2026-05-01T08:03:28.261Z</time></trkpt><trkpt lat="45.2391933" lon="7.96272"><ele>208.0</ele><time>2026-05-01T08:03:29.261Z</time></trkpt><trkpt lat="45.239125" lon="7.9625433"><ele>208.0</ele><time>2026-05-01T08:03:30.261Z</time></trkpt><trkpt lat="45.2390467" lon="7.9623283"><ele>208.0</ele><time>2026-05-01T08:03:31.261Z</time></trkpt><trkpt lat="45.238965" lon="7.9620967"><ele>206.66666666666666</ele><time>2026-05-01T08:03:32.262Z</time></trkpt><trkpt lat="45.2388733" lon="7.9618467"><ele>205.33333333333331</ele><time>2026-05-01T08:03:33.262Z</time></trkpt><trkpt lat="45.2387683" lon="7.9615817"><ele>204.0</ele><time>2026-05-01T08:03:34.262Z</time></trkpt><trkpt lat="45.238665" lon="7.9612967"><ele>204.0</ele><time>2026-05-01T08:03:35.261Z</time></trkpt><trkpt lat="45.2385433" lon="7.9610167"><ele>204.0</ele><time>2026-05-01T08:03:36.261Z</time></trkpt><trkpt lat="45.2384117" lon="7.9607367"><ele>203.5</ele><time>2026-05-01T08:03:37.262Z</time></trkpt><trkpt lat="45.238275" lon="7.9604533"><ele>203.0</ele><time>2026-05-01T08:03:38.262Z</time></trkpt><trkpt lat="45.2381483" lon="7.960165"><ele>203.33333333333334</ele><time>2026-05-01T08:03:39.262Z</time></trkpt><trkpt lat="45.2380267" lon="7.9598833"><ele>203.66666666666669</ele><time>2026-05-01T08:03:40.262Z</time></trkpt><trkpt lat="45.23794" lon="7.9596233"><ele>204.0</ele><time>2026-05-01T08:03:41.262Z</time></trkpt><trkpt lat="45.2378417" lon="7.95936"><ele>205.33333333333331</ele><time>2026-05-01T08:03:42.262Z</time></trkpt><trkpt lat="45.2377783" lon="7.9591417"><ele>206.66666666666666</ele><time>2026-05-01T08:03:43.262Z</time></trkpt><trkpt lat="45.2377017" lon="7.9588967"><ele>208.0</ele><time>2026-05-01T08:03:44.262Z</time></trkpt><trkpt lat="45.2376433" lon="7.9586667"><ele>208.0</ele><time>2026-05-01T08:03:45.261Z</time></trkpt><trkpt lat="45.2375733" lon="7.958455"><ele>208.0</ele><time>2026-05-01T08:03:46.261Z</time></trkpt><trkpt lat="45.237505" lon="7.9582417"><ele>208.0</ele><time>2026-05-01T08:03:47.261Z</time></trkpt><trkpt lat="45.237425" lon="7.958005"><ele>207.33333333333331</ele><time>2026-05-01T08:03:48.262Z</time></trkpt><trkpt lat="45.2373367" lon="7.9577567"><ele>206.66666666666669</ele><time>2026-05-01T08:03:49.262Z</time></trkpt><trkpt lat="45.2372483" lon="7.9574883"><ele>206.0</ele><time>2026-05-01T08:03:50.262Z</time></trkpt><trkpt lat="45.2371483" lon="7.9571933"><ele>208.0</ele><time>2026-05-01T08:03:51.261Z</time></trkpt><trkpt lat="45.2370483" lon="7.9569033"><ele>210.0</ele><time>2026-05-01T08:03:52.262Z</time></trkpt><trkpt lat="45.23694" lon="7.9565717"><ele>211.0</ele><time>2026-05-01T08:03:53.262Z</time></trkpt><trkpt lat="45.2368233" lon="7.9562283"><ele>212.0</ele><time>2026-05-01T08:03:54.261Z</time></trkpt><trkpt lat="45.2367" lon="7.9558933"><ele>209.0</ele><time>2026-05-01T08:03:55.262Z</time></trkpt><trkpt lat="45.23658" lon="7.9555733"><ele>206.0</ele><time>2026-05-01T08:03:56.262Z</time></trkpt><trkpt lat="45.2364483" lon="7.9552333"><ele>205.0</ele><time>2026-05-01T08:03:57.262Z</time></trkpt><trkpt lat="45.2363133" lon="7.9548833"><ele>204.0</ele><time>2026-05-01T08:03:58.262Z</time></trkpt><trkpt lat="45.23617" lon="7.9545233"><ele>204.5</ele><time>2026-05-01T08:03:59.262Z</time></trkpt><trkpt lat="45.2360233" lon="7.9541417"><ele>205.0</ele><time>2026-05-01T08:04:00.262Z</time></trkpt><trkpt lat="45.2358867" lon="7.9537683"><ele>205.0</ele><time>2026-05-01T08:04:01.261Z</time></trkpt><trkpt lat="45.235745" lon="7.9533933"><ele>205.0</ele><time>2026-05-01T08:04:02.262Z</time></trkpt><trkpt lat="45.235605" lon="7.9530183"><ele>202.5</ele><time>2026-05-01T08:04:03.262Z</time></trkpt><trkpt lat="45.2354617" lon="7.9526417"><ele>200.0</ele><time>2026-05-01T08:04:04.262Z</time></trkpt><trkpt lat="45.2353233" lon="7.9522667"><ele>199.5</ele><time>2026-05-01T08:04:05.262Z</time></trkpt><trkpt lat="45.2351883" lon="7.9518883"><ele>199.0</ele><time>2026-05-01T08:04:06.261Z</time></trkpt><trkpt lat="45.2350483" lon="7.951505"><ele>200.5</ele><time>2026-05-01T08:04:07.262Z</time></trkpt><trkpt lat="45.234905" lon="7.9511217"><ele>202.0</ele><time>2026-05-01T08:04:08.261Z</time></trkpt><trkpt lat="45.2347683" lon="7.95074"><ele>202.0</ele><time>2026-05-01T08:04:09.262Z</time></trkpt><trkpt lat="45.234625" lon="7.950365"><ele>202.0</ele><time>2026-05-01T08:04:10.262Z</time></trkpt><trkpt lat="45.2344783" lon="7.94999"><ele>201.0</ele><time>2026-05-01T08:04:11.262Z</time></trkpt><trkpt lat="45.23433" lon="7.9496217"><ele>200.0</ele><time>2026-05-01T08:04:12.262Z</time></trkpt><trkpt lat="45.234185" lon="7.9492517"><ele>200.5</ele><time>2026-05-01T08:04:13.261Z</time></trkpt><trkpt lat="45.2340417" lon="7.948885"><ele>201.0</ele><time>2026-05-01T08:04:14.261Z</time></trkpt><trkpt lat="45.233895" lon="7.94852"><ele>201.5</ele><time>2026-05-01T08:04:15.261Z</time></trkpt><trkpt lat="45.2337433" lon="7.9481317"><ele>202.0</ele><time>2026-05-01T08:04:16.261Z</time></trkpt><trkpt lat="45.233595" lon="7.9477583"><ele>203.0</ele><time>2026-05-01T08:04:17.262Z</time></trkpt><trkpt lat="45.2334433" lon="7.9473783"><ele>204.0</ele><time>2026-05-01T08:04:18.262Z</time></trkpt><trkpt lat="45.2332817" lon="7.9469867"><ele>203.0</ele><time>2026-05-01T08:04:19.262Z</time></trkpt><trkpt lat="45.2331283" lon="7.9465983"><ele>202.0</ele><time>2026-05-01T08:04:20.262Z</time></trkpt><trkpt lat="45.2329633" lon="7.946205"><ele>202.5</ele><time>2026-05-01T08:04:21.262Z</time></trkpt><trkpt lat="45.2327917" lon="7.945805"><ele>203.0</ele><time>2026-05-01T08:04:22.262Z</time></trkpt><trkpt lat="45.2326333" lon="7.94541"><ele>202.5</ele><time>2026-05-01T08:04:23.262Z</time></trkpt><trkpt lat="45.2324717" lon="7.9450167"><ele>202.0</ele><time>2026-05-01T08:04:24.261Z</time></trkpt><trkpt lat="45.2322983" lon="7.94461"><ele>202.5</ele><time>2026-05-01T08:04:25.261Z</time></trkpt><trkpt lat="45.23214" lon="7.9442133"><ele>203.0</ele><time>2026-05-01T08:04:26.262Z</time></trkpt><trkpt lat="45.2319783" lon="7.94382"><ele>203.0</ele><time>2026-05-01T08:04:27.262Z</time></trkpt><trkpt lat="45.2318167" lon="7.943435"><ele>203.0</ele><time>2026-05-01T08:04:28.261Z</time></trkpt><trkpt lat="45.2316567" lon="7.943045"><ele>203.5</ele><time>2026-05-01T08:04:29.262Z</time></trkpt><trkpt lat="45.2315" lon="7.9426717"><ele>204.0</ele><time>2026-05-01T08:04:30.262Z</time></trkpt><trkpt lat="45.2313433" lon="7.9422833"><ele>202.5</ele><time>2026-05-01T08:04:31.261Z</time></trkpt><trkpt lat="45.2311883" lon="7.9419017"><ele>201.0</ele><time>2026-05-01T08:04:32.261Z</time></trkpt><trkpt lat="45.2310283" lon="7.9415233"><ele>201.0</ele><time>2026-05-01T08:04:33.262Z</time></trkpt><trkpt lat="45.2308733" lon="7.9411533"><ele>201.0</ele><time>2026-05-01T08:04:34.262Z</time></trkpt><trkpt lat="45.2307233" lon="7.940775"><ele>200.5</ele><time>2026-05-01T08:04:35.262Z</time></trkpt><trkpt lat="45.23057" lon="7.9404067"><ele>200.0</ele><time>2026-05-01T08:04:36.262Z</time></trkpt><trkpt lat="45.2304217" lon="7.9400383"><ele>199.5</ele><time>2026-05-01T08:04:37.262Z</time></trkpt><trkpt lat="45.2302717" lon="7.93967"><ele>199.0</ele><time>2026-05-01T08:04:38.262Z</time></trkpt><trkpt lat="45.2301333" lon="7.9392967"><ele>199.5</ele><time>2026-05-01T08:04:39.262Z</time></trkpt><trkpt lat="45.22998" lon="7.9389167"><ele>200.0</ele><time>2026-05-01T08:04:40.262Z</time></trkpt><trkpt lat="45.22984" lon="7.9385333"><ele>199.5</ele><time>2026-05-01T08:04:41.261Z</time></trkpt><trkpt lat="45.2296817" lon="7.9381567"><ele>199.0</ele><time>2026-05-01T08:04:42.261Z</time></trkpt><trkpt lat="45.22952" lon="7.9377883"><ele>199.5</ele><time>2026-05-01T08:04:43.262Z</time></trkpt><trkpt lat="45.229365" lon="7.9374067"><ele>200.0</ele><time>2026-05-01T08:04:44.262Z</time></trkpt><trkpt lat="45.2292117" lon="7.9370267"><ele>199.5</ele><time>2026-05-01T08:04:45.262Z</time></trkpt><trkpt lat="45.229055" lon="7.9366567"><ele>199.0</ele><time>2026-05-01T08:04:46.262Z</time></trkpt><trkpt lat="45.2289017" lon="7.93628"><ele>200.5</ele><time>2026-05-01T08:04:47.262Z</time></trkpt><trkpt lat="45.2287483" lon="7.9358967"><ele>202.0</ele><time>2026-05-01T08:04:48.262Z</time></trkpt><trkpt lat="45.2285967" lon="7.93552"><ele>202.0</ele><time>2026-05-01T08:04:49.262Z</time></trkpt><trkpt lat="45.22845" lon="7.9351467"><ele>202.0</ele><time>2026-05-01T08:04:50.262Z</time></trkpt><trkpt lat="45.22829" lon="7.93477"><ele>200.0</ele><time>2026-05-01T08:04:51.262Z</time></trkpt><trkpt lat="45.2281333" lon="7.9343983"><ele>198.0</ele><time>2026-05-01T08:04:52.262Z</time></trkpt><trkpt lat="45.227985" lon="7.934025"><ele>198.0</ele><time>2026-05-01T08:04:53.262Z</time></trkpt><trkpt lat="45.2278383" lon="7.9336433"><ele>198.0</ele><time>2026-05-01T08:04:54.261Z</time></trkpt><trkpt lat="45.2276917" lon="7.93327"><ele>199.0</ele><time>2026-05-01T08:04:55.262Z</time></trkpt><trkpt lat="45.2275383" lon="7.9328933"><ele>200.0</ele><time>2026-05-01T08:04:56.262Z</time></trkpt><trkpt lat="45.22739" lon="7.9325067"><ele>198.5</ele><time>2026-05-01T08:04:57.262Z</time></trkpt><trkpt lat="45.2272433" lon="7.9321267"><ele>197.0</ele><time>2026-05-01T08:04:58.262Z</time></trkpt><trkpt lat="45.2270983" lon="7.9317633"><ele>196.5</ele><time>2026-05-01T08:04:59.262Z</time></trkpt><trkpt lat="45.2269483" lon="7.93139"><ele>196.0</ele><time>2026-05-01T08:05:00.261Z</time></trkpt><trkpt lat="45.2267833" lon="7.9310017"><ele>199.0</ele><time>2026-05-01T08:05:01.261Z</time></trkpt><trkpt lat="45.2266217" lon="7.9306217"><ele>202.0</ele><time>2026-05-01T08:05:02.261Z</time></trkpt><trkpt lat="45.226465" lon="7.930245"><ele>201.5</ele><time>2026-05-01T08:05:03.261Z</time></trkpt><trkpt lat="45.2263033" lon="7.92987"><ele>201.0</ele><time>2026-05-01T08:05:04.262Z</time></trkpt><trkpt lat="45.226145" lon="7.929495"><ele>200.0</ele><time>2026-05-01T08:05:05.262Z</time></trkpt><trkpt lat="45.2259917" lon="7.9291217"><ele>199.0</ele><time>2026-05-01T08:05:06.261Z</time></trkpt><trkpt lat="45.225845" lon="7.9287383"><ele>199.5</ele><time>2026-05-01T08:05:07.262Z</time></trkpt><trkpt lat="45.2256983" lon="7.9283683"><ele>200.0</ele><time>2026-05-01T08:05:08.262Z</time></trkpt><trkpt lat="45.2255533" lon="7.9280017"><ele>200.0</ele><time>2026-05-01T08:05:09.262Z</time></trkpt><trkpt lat="45.225395" lon="7.92762"><ele>200.0</ele><time>2026-05-01T08:05:10.262Z</time></trkpt><trkpt lat="45.2252417" lon="7.927245"><ele>200.0</ele><time>2026-05-01T08:05:11.261Z</time></trkpt><trkpt lat="45.22508" lon="7.92686"><ele>200.0</ele><time>2026-05-01T08:05:12.261Z</time></trkpt><trkpt lat="45.2249217" lon="7.9264817"><ele>199.5</ele><time>2026-05-01T08:05:13.261Z</time></trkpt><trkpt lat="45.2247583" lon="7.926105"><ele>199.0</ele><time>2026-05-01T08:05:14.262Z</time></trkpt><trkpt lat="45.2246033" lon="7.9257367"><ele>199.0</ele><time>2026-05-01T08:05:15.262Z</time></trkpt><trkpt lat="45.2244383" lon="7.9253467"><ele>199.0</ele><time>2026-05-01T08:05:16.261Z</time></trkpt><trkpt lat="45.2242817" lon="7.9249733"><ele>199.5</ele><time>2026-05-01T08:05:17.261Z</time></trkpt><trkpt lat="45.2241233" lon="7.9245933"><ele>200.0</ele><time>2026-05-01T08:05:18.261Z</time></trkpt><trkpt lat="45.2239683" lon="7.924205"><ele>200.0</ele><time>2026-05-01T08:05:19.262Z</time></trkpt><trkpt lat="45.223815" lon="7.923825"><ele>200.0</ele><time>2026-05-01T08:05:20.262Z</time></trkpt><trkpt lat="45.223675" lon="7.92344"><ele>201.0</ele><time>2026-05-01T08:05:21.262Z</time></trkpt><trkpt lat="45.2235233" lon="7.92305"><ele>202.0</ele><time>2026-05-01T08:05:22.261Z</time></trkpt><trkpt lat="45.2233683" lon="7.9226567"><ele>201.5</ele><time>2026-05-01T08:05:23.262Z</time></trkpt><trkpt lat="45.2232083" lon="7.92227"><ele>201.0</ele><time>2026-05-01T08:05:24.262Z</time></trkpt><trkpt lat="45.2230483" lon="7.921885"><ele>200.5</ele><time>2026-05-01T08:05:25.261Z</time></trkpt><trkpt lat="45.2228933" lon="7.921505"><ele>200.0</ele><time>2026-05-01T08:05:26.262Z</time></trkpt><trkpt lat="45.2227217" lon="7.921115"><ele>200.5</ele><time>2026-05-01T08:05:27.261Z</time></trkpt><trkpt lat="45.2225617" lon="7.9207283"><ele>201.0</ele><time>2026-05-01T08:05:28.262Z</time></trkpt><trkpt lat="45.222405" lon="7.9203317"><ele>202.5</ele><time>2026-05-01T08:05:29.261Z</time></trkpt><trkpt lat="45.222245" lon="7.91995"><ele>204.0</ele><time>2026-05-01T08:05:30.262Z</time></trkpt><trkpt lat="45.222075" lon="7.9195767"><ele>202.0</ele><time>2026-05-01T08:05:31.261Z</time></trkpt><trkpt lat="45.2219217" lon="7.9192017"><ele>200.0</ele><time>2026-05-01T08:05:32.262Z</time></trkpt><trkpt lat="45.22177" lon="7.9188067"><ele>200.0</ele><time>2026-05-01T08:05:33.261Z</time></trkpt><trkpt lat="45.22162" lon="7.9184167"><ele>200.0</ele><time>2026-05-01T08:05:34.262Z</time></trkpt><trkpt lat="45.2214583" lon="7.9180217"><ele>199.0</ele><time>2026-05-01T08:05:35.262Z</time></trkpt><trkpt lat="45.2213067" lon="7.9176367"><ele>198.0</ele><time>2026-05-01T08:05:36.261Z</time></trkpt><trkpt lat="45.2211483" lon="7.9172583"><ele>198.0</ele><time>2026-05-01T08:05:37.262Z</time></trkpt><trkpt lat="45.2209933" lon="7.91688"><ele>198.0</ele><time>2026-05-01T08:05:38.262Z</time></trkpt><trkpt lat="45.2208367" lon="7.916505"><ele>199.5</ele><time>2026-05-01T08:05:39.262Z</time></trkpt><trkpt lat="45.220685" lon="7.91613"><ele>201.0</ele><time>2026-05-01T08:05:40.262Z</time></trkpt><trkpt lat="45.22052" lon="7.9157367"><ele>201.0</ele><time>2026-05-01T08:05:41.262Z</time></trkpt><trkpt lat="45.220365" lon="7.915355"><ele>201.0</ele><time>2026-05-01T08:05:42.262Z</time></trkpt><trkpt lat="45.2202017" lon="7.9149667"><ele>201.0</ele><time>2026-05-01T08:05:43.261Z</time></trkpt><trkpt lat="45.2200417" lon="7.9145833"><ele>201.0</ele><time>2026-05-01T08:05:44.262Z</time></trkpt><trkpt lat="45.2198883" lon="7.9142067"><ele>200.0</ele><time>2026-05-01T08:05:45.262Z</time></trkpt><trkpt lat="45.2197317" lon="7.9138183"><ele>199.0</ele><time>2026-05-01T08:05:46.261Z</time></trkpt><trkpt lat="45.21958" lon="7.9134417"><ele>199.5</ele><time>2026-05-01T08:05:47.262Z</time></trkpt><trkpt lat="45.219425" lon="7.9130617"><ele>200.0</ele><time>2026-05-01T08:05:48.262Z</time></trkpt><trkpt lat="45.219265" lon="7.9126783"><ele>199.5</ele><time>2026-05-01T08:05:49.262Z</time></trkpt><trkpt lat="45.219105" lon="7.9122933"><ele>199.0</ele><time>2026-05-01T08:05:50.262Z</time></trkpt><trkpt lat="45.21895" lon="7.9119067"><ele>200.0</ele><time>2026-05-01T08:05:51.262Z</time></trkpt><trkpt lat="45.2187983" lon="7.91152"><ele>201.0</ele><time>2026-05-01T08:05:52.262Z</time></trkpt><trkpt lat="45.2186433" lon="7.9111333"><ele>201.0</ele><time>2026-05-01T08:05:53.262Z</time></trkpt><trkpt lat="45.2184883" lon="7.910755"><ele>201.0</ele><time>2026-05-01T08:05:54.262Z</time></trkpt><trkpt lat="45.2183317" lon="7.9103633"><ele>200.0</ele><time>2026-05-01T08:05:55.262Z</time></trkpt><trkpt lat="45.21817" lon="7.9099783"><ele>199.0</ele><time>2026-05-01T08:05:56.262Z</time></trkpt><trkpt lat="45.2180067" lon="7.909585"><ele>197.0</ele><time>2026-05-01T08:05:57.262Z</time></trkpt><trkpt lat="45.2178533" lon="7.9092017"><ele>195.0</ele><time>2026-05-01T08:05:58.262Z</time></trkpt><trkpt lat="45.2177" lon="7.9088183"><ele>195.0</ele><time>2026-05-01T08:05:59.261Z</time></trkpt><trkpt lat="45.217545" lon="7.9084367"><ele>195.0</ele><time>2026-05-01T08:06:00.262Z</time></trkpt><trkpt lat="45.2173867" lon="7.9080567"><ele>193.5</ele><time>2026-05-01T08:06:01.262Z</time></trkpt><trkpt lat="45.2172283" lon="7.9076733"><ele>192.0</ele><time>2026-05-01T08:06:02.262Z</time></trkpt><trkpt lat="45.2170717" lon="7.9072867"><ele>195.0</ele><time>2026-05-01T08:06:03.262Z</time></trkpt><trkpt lat="45.2169167" lon="7.9069017"><ele>198.0</ele><time>2026-05-01T08:06:04.262Z</time></trkpt><trkpt lat="45.2167533" lon="7.90653"><ele>198.0</ele><time>2026-05-01T08:06:05.261Z</time></trkpt><trkpt lat="45.2165933" lon="7.906145"><ele>198.0</ele><time>2026-05-01T08:06:06.262Z</time></trkpt><trkpt lat="45.216425" lon="7.9057583"><ele>198.5</ele><time>2026-05-01T08:06:07.262Z</time></trkpt><trkpt lat="45.216265" lon="7.9053717"><ele>199.0</ele><time>2026-05-01T08:06:08.262Z</time></trkpt><trkpt lat="45.2161083" lon="7.9049833"><ele>201.0</ele><time>2026-05-01T08:06:09.261Z</time></trkpt><trkpt lat="45.2159467" lon="7.9045967"><ele>203.0</ele><time>2026-05-01T08:06:10.262Z</time></trkpt><trkpt lat="45.2157917" lon="7.9042033"><ele>205.0</ele><time>2026-05-01T08:06:11.262Z</time></trkpt><trkpt lat="45.2156367" lon="7.903815"><ele>207.0</ele><time>2026-05-01T08:06:12.262Z</time></trkpt><trkpt lat="45.2154817" lon="7.9034367"><ele>206.5</ele><time>2026-05-01T08:06:13.262Z</time></trkpt><trkpt lat="45.2153267" lon="7.9030467"><ele>206.0</ele><time>2026-05-01T08:06:14.261Z</time></trkpt><trkpt lat="45.2151717" lon="7.902655"><ele>203.5</ele><time>2026-05-01T08:06:15.261Z</time></trkpt><trkpt lat="45.2150117" lon="7.902265"><ele>201.0</ele><time>2026-05-01T08:06:16.262Z</time></trkpt><trkpt lat="45.21486" lon="7.9018833"><ele>198.5</ele><time>2026-05-01T08:06:17.261Z</time></trkpt><trkpt lat="45.2147033" lon="7.9015033"><ele>196.0</ele><time>2026-05-01T08:06:18.261Z</time></trkpt><trkpt lat="45.21453" lon="7.901105"><ele>196.5</ele><time>2026-05-01T08:06:19.262Z</time></trkpt><trkpt lat="45.2143683" lon="7.90071"><ele>197.0</ele><time>2026-05-01T08:06:20.262Z</time></trkpt><trkpt lat="45.2142133" lon="7.9003217"><ele>197.0</ele><time>2026-05-01T08:06:21.262Z</time></trkpt><trkpt lat="45.2140583" lon="7.8999283"><ele>197.0</ele><time>2026-05-01T08:06:22.262Z</time></trkpt><trkpt lat="45.2139017" lon="7.899545"><ele>197.0</ele><time>2026-05-01T08:06:23.261Z</time></trkpt><trkpt lat="45.213735" lon="7.8991667"><ele>197.0</ele><time>2026-05-01T08:06:24.262Z</time></trkpt><trkpt lat="45.2135717" lon="7.8987883"><ele>198.5</ele><time>2026-05-01T08:06:25.262Z</time></trkpt><trkpt lat="45.2134183" lon="7.898405"><ele>200.0</ele><time>2026-05-01T08:06:26.262Z</time></trkpt><trkpt lat="45.213265" lon="7.8980183"><ele>200.0</ele><time>2026-05-01T08:06:27.261Z</time></trkpt><trkpt lat="45.21311" lon="7.8976333"><ele>200.0</ele><time>2026-05-01T08:06:28.262Z</time></trkpt><trkpt lat="45.21295" lon="7.897255"><ele>200.5</ele><time>2026-05-01T08:06:29.261Z</time></trkpt><trkpt lat="45.2127933" lon="7.8968867"><ele>201.0</ele><time>2026-05-01T08:06:30.262Z</time></trkpt><trkpt lat="45.21263" lon="7.8965083"><ele>201.0</ele><time>2026-05-01T08:06:31.262Z</time></trkpt><trkpt lat="45.2124583" lon="7.896135"><ele>201.0</ele><time>2026-05-01T08:06:32.262Z</time></trkpt><trkpt lat="45.21229" lon="7.8957633"><ele>199.0</ele><time>2026-05-01T08:06:33.261Z</time></trkpt><trkpt lat="45.2121333" lon="7.8953917"><ele>197.0</ele><time>2026-05-01T08:06:34.262Z</time></trkpt><trkpt lat="45.2119617" lon="7.8950083"><ele>197.0</ele><time>2026-05-01T08:06:35.262Z</time></trkpt><trkpt lat="45.21179" lon="7.8946183"><ele>197.0</ele><time>2026-05-01T08:06:36.262Z</time></trkpt><trkpt lat="45.211625" lon="7.8942417"><ele>196.5</ele><time>2026-05-01T08:06:37.262Z</time></trkpt><trkpt lat="45.21146" lon="7.8938567"><ele>196.0</ele><time>2026-05-01T08:06:38.262Z</time></trkpt><trkpt lat="45.211305" lon="7.8934833"><ele>196.0</ele><time>2026-05-01T08:06:39.261Z</time></trkpt><trkpt lat="45.2111433" lon="7.8931067"><ele>196.0</ele><time>2026-05-01T08:06:40.262Z</time></trkpt><trkpt lat="45.2109867" lon="7.8927333"><ele>196.0</ele><time>2026-05-01T08:06:41.261Z</time></trkpt><trkpt lat="45.2108317" lon="7.8923517"><ele>196.0</ele><time>2026-05-01T08:06:42.262Z</time></trkpt><trkpt lat="45.2106683" lon="7.8919583"><ele>195.0</ele><time>2026-05-01T08:06:43.262Z</time></trkpt><trkpt lat="45.2104967" lon="7.8915683"><ele>194.0</ele><time>2026-05-01T08:06:44.261Z</time></trkpt><trkpt lat="45.21032" lon="7.8911883"><ele>194.0</ele><time>2026-05-01T08:06:45.262Z</time></trkpt><trkpt lat="45.21015" lon="7.8908083"><ele>194.0</ele><time>2026-05-01T08:06:46.261Z</time></trkpt><trkpt lat="45.2099983" lon="7.8904317"><ele>196.0</ele><time>2026-05-01T08:06:47.262Z</time></trkpt><trkpt lat="45.2098267" lon="7.8900517"><ele>198.0</ele><time>2026-05-01T08:06:48.262Z</time></trkpt><trkpt lat="45.2096633" lon="7.8896733"><ele>198.0</ele><time>2026-05-01T08:06:49.262Z</time></trkpt><trkpt lat="45.2094933" lon="7.8893067"><ele>198.0</ele><time>2026-05-01T08:06:50.262Z</time></trkpt><trkpt lat="45.209315" lon="7.8889417"><ele>197.5</ele><time>2026-05-01T08:06:51.262Z</time></trkpt><trkpt lat="45.209155" lon="7.8885617"><ele>197.0</ele><time>2026-05-01T08:06:52.261Z</time></trkpt><trkpt lat="45.2090033" lon="7.8881783"><ele>196.5</ele><time>2026-05-01T08:06:53.261Z</time></trkpt><trkpt lat="45.208845" lon="7.8878033"><ele>196.0</ele><time>2026-05-01T08:06:54.262Z</time></trkpt><trkpt lat="45.208685" lon="7.88743"><ele>196.0</ele><time>2026-05-01T08:06:55.262Z</time></trkpt><trkpt lat="45.2085183" lon="7.8870567"><ele>196.0</ele><time>2026-05-01T08:06:56.261Z</time></trkpt><trkpt lat="45.2083533" lon="7.8866817"><ele>196.0</ele><time>2026-05-01T08:06:57.262Z</time></trkpt><trkpt lat="45.2081833" lon="7.8863"><ele>196.0</ele><time>2026-05-01T08:06:58.261Z</time></trkpt><trkpt lat="45.2080183" lon="7.8859183"><ele>196.0</ele><time>2026-05-01T08:06:59.261Z</time></trkpt><trkpt lat="45.2078517" lon="7.8855333"><ele>196.0</ele><time>2026-05-01T08:07:00.262Z</time></trkpt><trkpt lat="45.2076967" lon="7.8851533"><ele>195.0</ele><time>2026-05-01T08:07:01.262Z</time></trkpt><trkpt lat="45.2075467" lon="7.8847717"><ele>194.0</ele><time>2026-05-01T08:07:02.261Z</time></trkpt><trkpt lat="45.2073783" lon="7.8843783"><ele>193.0</ele><time>2026-05-01T08:07:03.262Z</time></trkpt><trkpt lat="45.207215" lon="7.88401"><ele>192.0</ele><time>2026-05-01T08:07:04.262Z</time></trkpt><trkpt lat="45.20705" lon="7.8836417"><ele>192.0</ele><time>2026-05-01T08:07:05.262Z</time></trkpt><trkpt lat="45.206885" lon="7.8832583"><ele>192.0</ele><time>2026-05-01T08:07:06.262Z</time></trkpt><trkpt lat="45.2067217" lon="7.8828783"><ele>193.0</ele><time>2026-05-01T08:07:07.262Z</time></trkpt><trkpt lat="45.20656" lon="7.8824883"><ele>194.0</ele><time>2026-05-01T08:07:08.262Z</time></trkpt><trkpt lat="45.2064033" lon="7.8821017"><ele>192.5</ele><time>2026-05-01T08:07:09.262Z</time></trkpt><trkpt lat="45.2062383" lon="7.881725"><ele>191.0</ele><time>2026-05-01T08:07:10.261Z</time></trkpt><trkpt lat="45.2060683" lon="7.8813583"><ele>191.0</ele><time>2026-05-01T08:07:11.262Z</time></trkpt><trkpt lat="45.2059117" lon="7.8809733"><ele>191.0</ele><time>2026-05-01T08:07:12.262Z</time></trkpt><trkpt lat="45.2054333" lon="7.8798233"><ele>193.0</ele><time>2026-05-01T08:07:15.261Z</time></trkpt><trkpt lat="45.20527" lon="7.8794433"><ele>195.0</ele><time>2026-05-01T08:07:16.261Z</time></trkpt><trkpt lat="45.20511" lon="7.8790667"><ele>195.0</ele><time>2026-05-01T08:07:17.262Z</time></trkpt><trkpt lat="45.204945" lon="7.8786933"><ele>195.0</ele><time>2026-05-01T08:07:18.262Z</time></trkpt><trkpt lat="45.2047817" lon="7.8783167"><ele>193.5</ele><time>2026-05-01T08:07:19.261Z</time></trkpt><trkpt lat="45.2046233" lon="7.8779467"><ele>192.0</ele><time>2026-05-01T08:07:20.262Z</time></trkpt><trkpt lat="45.2044617" lon="7.8775617"><ele>192.0</ele><time>2026-05-01T08:07:21.262Z</time></trkpt><trkpt lat="45.2042983" lon="7.8771783"><ele>192.0</ele><time>2026-05-01T08:07:22.262Z</time></trkpt><trkpt lat="45.204135" lon="7.8767967"><ele>191.5</ele><time>2026-05-01T08:07:23.262Z</time></trkpt><trkpt lat="45.2039633" lon="7.8764133"><ele>191.0</ele><time>2026-05-01T08:07:24.261Z</time></trkpt><trkpt lat="45.2037917" lon="7.876025"><ele>191.0</ele><time>2026-05-01T08:07:25.262Z</time></trkpt><trkpt lat="45.2036267" lon="7.87565"><ele>191.0</ele><time>2026-05-01T08:07:26.261Z</time></trkpt><trkpt lat="45.20346" lon="7.875275"><ele>190.5</ele><time>2026-05-01T08:07:27.262Z</time></trkpt><trkpt lat="45.2032767" lon="7.8748867"><ele>190.0</ele><time>2026-05-01T08:07:28.262Z</time></trkpt><trkpt lat="45.20311" lon="7.8745133"><ele>190.5</ele><time>2026-05-01T08:07:29.261Z</time></trkpt><trkpt lat="45.202945" lon="7.8741567"><ele>191.0</ele><time>2026-05-01T08:07:30.262Z</time></trkpt><trkpt lat="45.2027583" lon="7.87379"><ele>191.5</ele><time>2026-05-01T08:07:31.262Z</time></trkpt><trkpt lat="45.2025883" lon="7.8734333"><ele>192.0</ele><time>2026-05-01T08:07:32.261Z</time></trkpt><trkpt lat="45.20242" lon="7.8730533"><ele>191.5</ele><time>2026-05-01T08:07:33.262Z</time></trkpt><trkpt lat="45.202255" lon="7.872675"><ele>191.0</ele><time>2026-05-01T08:07:34.261Z</time></trkpt><trkpt lat="45.2021" lon="7.8723017"><ele>190.5</ele><time>2026-05-01T08:07:35.261Z</time></trkpt><trkpt lat="45.2019233" lon="7.871935"><ele>190.0</ele><time>2026-05-01T08:07:36.262Z</time></trkpt><trkpt lat="45.2017467" lon="7.87156"><ele>183.0</ele><time>2026-05-01T08:07:37.261Z</time></trkpt><trkpt lat="45.2013933" lon="7.8708167"><ele>183.0</ele><time>2026-05-01T08:07:39.262Z</time></trkpt><trkpt lat="45.20122" lon="7.8704517"><ele>183.0</ele><time>2026-05-01T08:07:40.262Z</time></trkpt><trkpt lat="45.201045" lon="7.8700667"><ele>184.0</ele><time>2026-05-01T08:07:41.262Z</time></trkpt><trkpt lat="45.2008717" lon="7.8696767"><ele>185.0</ele><time>2026-05-01T08:07:42.262Z</time></trkpt><trkpt lat="45.200705" lon="7.8692933"><ele>186.0</ele><time>2026-05-01T08:07:43.262Z</time></trkpt><trkpt lat="45.2005517" lon="7.8688917"><ele>187.0</ele><time>2026-05-01T08:07:44.261Z</time></trkpt><trkpt lat="45.2003867" lon="7.8685033"><ele>185.0</ele><time>2026-05-01T08:07:45.262Z</time></trkpt><trkpt lat="45.200215" lon="7.8681217"><ele>183.0</ele><time>2026-05-01T08:07:46.262Z</time></trkpt><trkpt lat="45.2000467" lon="7.8677417"><ele>183.0</ele><time>2026-05-01T08:07:47.262Z</time></trkpt><trkpt lat="45.1998783" lon="7.86737"><ele>183.0</ele><time>2026-05-01T08:07:48.262Z</time></trkpt><trkpt lat="45.1997217" lon="7.8669983"><ele>185.0</ele><time>2026-05-01T08:07:49.261Z</time></trkpt><trkpt lat="45.1995533" lon="7.8666267"><ele>187.0</ele><time>2026-05-01T08:07:50.261Z</time></trkpt><trkpt lat="45.1993867" lon="7.8662667"><ele>187.0</ele><time>2026-05-01T08:07:51.262Z</time></trkpt><trkpt lat="45.1992183" lon="7.8659033"><ele>187.0</ele><time>2026-05-01T08:07:52.262Z</time></trkpt><trkpt lat="45.1990483" lon="7.8655317"><ele>187.0</ele><time>2026-05-01T08:07:53.262Z</time></trkpt><trkpt lat="45.1988883" lon="7.865155"><ele>187.0</ele><time>2026-05-01T08:07:54.262Z</time></trkpt><trkpt lat="45.1987267" lon="7.8647717"><ele>187.0</ele><time>2026-05-01T08:07:55.262Z</time></trkpt><trkpt lat="45.1985717" lon="7.8643983"><ele>187.0</ele><time>2026-05-01T08:07:56.262Z</time></trkpt><trkpt lat="45.198405" lon="7.8640183"><ele>188.0</ele><time>2026-05-01T08:07:57.262Z</time></trkpt><trkpt lat="45.19824" lon="7.8636383"><ele>189.0</ele><time>2026-05-01T08:07:58.262Z</time></trkpt><trkpt lat="45.19809" lon="7.8632633"><ele>187.5</ele><time>2026-05-01T08:07:59.261Z</time></trkpt><trkpt lat="45.1979367" lon="7.862885"><ele>186.0</ele><time>2026-05-01T08:08:00.262Z</time></trkpt><trkpt lat="45.1977767" lon="7.86251"><ele>186.0</ele><time>2026-05-01T08:08:01.261Z</time></trkpt><trkpt lat="45.1976233" lon="7.8621267"><ele>186.0</ele><time>2026-05-01T08:08:02.262Z</time></trkpt><trkpt lat="45.19748" lon="7.86173"><ele>185.5</ele><time>2026-05-01T08:08:03.262Z</time></trkpt><trkpt lat="45.197335" lon="7.861335"><ele>185.0</ele><time>2026-05-01T08:08:04.262Z</time></trkpt><trkpt lat="45.1971867" lon="7.86094"><ele>186.5</ele><time>2026-05-01T08:08:05.262Z</time></trkpt><trkpt lat="45.1970433" lon="7.860565"><ele>188.0</ele><time>2026-05-01T08:08:06.261Z</time></trkpt><trkpt lat="45.19689" lon="7.860175"><ele>189.0</ele><time>2026-05-01T08:08:07.261Z</time></trkpt><trkpt lat="45.1967333" lon="7.8597933"><ele>190.0</ele><time>2026-05-01T08:08:08.262Z</time></trkpt><trkpt lat="45.1965683" lon="7.859415"><ele>189.0</ele><time>2026-05-01T08:08:09.262Z</time></trkpt><trkpt lat="45.19641" lon="7.85904"><ele>188.0</ele><time>2026-05-01T08:08:10.262Z</time></trkpt><trkpt lat="45.19626" lon="7.8586717"><ele>187.5</ele><time>2026-05-01T08:08:11.262Z</time></trkpt><trkpt lat="45.1961117" lon="7.8582817"><ele>187.0</ele><time>2026-05-01T08:08:12.261Z</time></trkpt><trkpt lat="45.1959517" lon="7.8578833"><ele>186.5</ele><time>2026-05-01T08:08:13.261Z</time></trkpt><trkpt lat="45.1957983" lon="7.8574967"><ele>186.0</ele><time>2026-05-01T08:08:14.261Z</time></trkpt><trkpt lat="45.195645" lon="7.857105"><ele>185.0</ele><time>2026-05-01T08:08:15.261Z</time></trkpt><trkpt lat="45.1954917" lon="7.85673"><ele>184.0</ele><time>2026-05-01T08:08:16.262Z</time></trkpt><trkpt lat="45.1953333" lon="7.856345"><ele>184.0</ele><time>2026-05-01T08:08:17.262Z</time></trkpt><trkpt lat="45.1951767" lon="7.855965"><ele>184.0</ele><time>2026-05-01T08:08:18.262Z</time></trkpt><trkpt lat="45.1950083" lon="7.85557"><ele>185.5</ele><time>2026-05-01T08:08:19.262Z</time></trkpt><trkpt lat="45.19485" lon="7.8551867"><ele>187.0</ele><time>2026-05-01T08:08:20.262Z</time></trkpt><trkpt lat="45.1946683" lon="7.8547967"><ele>187.5</ele><time>2026-05-01T08:08:21.261Z</time></trkpt><trkpt lat="45.1945017" lon="7.8544217"><ele>188.0</ele><time>2026-05-01T08:08:22.261Z</time></trkpt><trkpt lat="45.1943317" lon="7.8540483"><ele>189.0</ele><time>2026-05-01T08:08:23.262Z</time></trkpt><trkpt lat="45.19417" lon="7.8536783"><ele>190.0</ele><time>2026-05-01T08:08:24.261Z</time></trkpt><trkpt lat="45.1939917" lon="7.8532983"><ele>187.5</ele><time>2026-05-01T08:08:25.262Z</time></trkpt><trkpt lat="45.19382" lon="7.852925"><ele>185.0</ele><time>2026-05-01T08:08:26.262Z</time></trkpt><trkpt lat="45.1936517" lon="7.8525467"><ele>185.0</ele><time>2026-05-01T08:08:27.262Z</time></trkpt><trkpt lat="45.1934883" lon="7.8521767"><ele>185.0</ele><time>2026-05-01T08:08:28.261Z</time></trkpt><trkpt lat="45.1933133" lon="7.8518067"><ele>185.0</ele><time>2026-05-01T08:08:29.262Z</time></trkpt><trkpt lat="45.1931383" lon="7.851435"><ele>185.0</ele><time>2026-05-01T08:08:30.262Z</time></trkpt><trkpt lat="45.1929667" lon="7.8510667"><ele>186.5</ele><time>2026-05-01T08:08:31.261Z</time></trkpt><trkpt lat="45.192785" lon="7.8506883"><ele>188.0</ele><time>2026-05-01T08:08:32.261Z</time></trkpt><trkpt lat="45.1926167" lon="7.8503183"><ele>187.5</ele><time>2026-05-01T08:08:33.262Z</time></trkpt><trkpt lat="45.19245" lon="7.849955"><ele>187.0</ele><time>2026-05-01T08:08:34.262Z</time></trkpt><trkpt lat="45.1922733" lon="7.8495783"><ele>188.0</ele><time>2026-05-01T08:08:35.262Z</time></trkpt><trkpt lat="45.1921033" lon="7.84921"><ele>189.0</ele><time>2026-05-01T08:08:36.262Z</time></trkpt><trkpt lat="45.19192" lon="7.848855"><ele>189.0</ele><time>2026-05-01T08:08:37.261Z</time></trkpt><trkpt lat="45.1917367" lon="7.8485"><ele>189.0</ele><time>2026-05-01T08:08:38.262Z</time></trkpt><trkpt lat="45.1915567" lon="7.848115"><ele>187.0</ele><time>2026-05-01T08:08:39.262Z</time></trkpt><trkpt lat="45.1913933" lon="7.84775"><ele>185.0</ele><time>2026-05-01T08:08:40.262Z</time></trkpt><trkpt lat="45.1912217" lon="7.8473767"><ele>185.0</ele><time>2026-05-01T08:08:41.262Z</time></trkpt><trkpt lat="45.1910467" lon="7.8470133"><ele>185.0</ele><time>2026-05-01T08:08:42.262Z</time></trkpt><trkpt lat="45.190865" lon="7.8466483"><ele>186.0</ele><time>2026-05-01T08:08:43.262Z</time></trkpt><trkpt lat="45.1906883" lon="7.8462767"><ele>187.0</ele><time>2026-05-01T08:08:44.262Z</time></trkpt><trkpt lat="45.1905083" lon="7.8459217"><ele>187.0</ele><time>2026-05-01T08:08:45.261Z</time></trkpt><trkpt lat="45.190335" lon="7.84557"><ele>187.0</ele><time>2026-05-01T08:08:46.262Z</time></trkpt><trkpt lat="45.1901533" lon="7.8452133"><ele>186.0</ele><time>2026-05-01T08:08:47.261Z</time></trkpt><trkpt lat="45.18997" lon="7.844855"><ele>185.0</ele><time>2026-05-01T08:08:48.262Z</time></trkpt><trkpt lat="45.1897667" lon="7.8444933"><ele>187.5</ele><time>2026-05-01T08:08:49.261Z</time></trkpt><trkpt lat="45.1895833" lon="7.844125"><ele>190.0</ele><time>2026-05-01T08:08:50.262Z</time></trkpt><trkpt lat="45.1893883" lon="7.8437633"><ele>189.5</ele><time>2026-05-01T08:08:51.262Z</time></trkpt><trkpt lat="45.1892167" lon="7.8434017"><ele>189.0</ele><time>2026-05-01T08:08:52.262Z</time></trkpt><trkpt lat="45.1890283" lon="7.8430467"><ele>188.0</ele><time>2026-05-01T08:08:53.261Z</time></trkpt><trkpt lat="45.1888417" lon="7.842685"><ele>187.0</ele><time>2026-05-01T08:08:54.261Z</time></trkpt><trkpt lat="45.1886583" lon="7.842325"><ele>186.5</ele><time>2026-05-01T08:08:55.261Z</time></trkpt><trkpt lat="45.188475" lon="7.8419667"><ele>186.0</ele><time>2026-05-01T08:08:56.262Z</time></trkpt><trkpt lat="45.1882833" lon="7.8415983"><ele>186.0</ele><time>2026-05-01T08:08:57.262Z</time></trkpt><trkpt lat="45.1880883" lon="7.84124"><ele>186.0</ele><time>2026-05-01T08:08:58.262Z</time></trkpt><trkpt lat="45.1878967" lon="7.8408817"><ele>186.5</ele><time>2026-05-01T08:08:59.261Z</time></trkpt><trkpt lat="45.1877067" lon="7.840515"><ele>187.0</ele><time>2026-05-01T08:09:00.262Z</time></trkpt><trkpt lat="45.1875233" lon="7.8401583"><ele>187.0</ele><time>2026-05-01T08:09:01.262Z</time></trkpt><trkpt lat="45.1873417" lon="7.8398183"><ele>187.0</ele><time>2026-05-01T08:09:02.261Z</time></trkpt><trkpt lat="45.1871517" lon="7.8394617"><ele>187.5</ele><time>2026-05-01T08:09:03.262Z</time></trkpt><trkpt lat="45.18696" lon="7.8391133"><ele>188.0</ele><time>2026-05-01T08:09:04.261Z</time></trkpt><trkpt lat="45.1867767" lon="7.8387683"><ele>187.5</ele><time>2026-05-01T08:09:05.262Z</time></trkpt><trkpt lat="45.1865767" lon="7.8384217"><ele>187.0</ele><time>2026-05-01T08:09:06.262Z</time></trkpt><trkpt lat="45.1863883" lon="7.8380683"><ele>187.0</ele><time>2026-05-01T08:09:07.261Z</time></trkpt><trkpt lat="45.186205" lon="7.8377183"><ele>187.0</ele><time>2026-05-01T08:09:08.261Z</time></trkpt><trkpt lat="45.1860217" lon="7.8373633"><ele>187.5</ele><time>2026-05-01T08:09:09.262Z</time></trkpt><trkpt lat="45.1858417" lon="7.837005"><ele>188.0</ele><time>2026-05-01T08:09:10.261Z</time></trkpt><trkpt lat="45.18566" lon="7.83664"><ele>188.0</ele><time>2026-05-01T08:09:11.262Z</time></trkpt><trkpt lat="45.185465" lon="7.83628"><ele>188.0</ele><time>2026-05-01T08:09:12.261Z</time></trkpt><trkpt lat="45.18529" lon="7.8359233"><ele>188.0</ele><time>2026-05-01T08:09:13.262Z</time></trkpt><trkpt lat="45.1851033" lon="7.8355567"><ele>188.0</ele><time>2026-05-01T08:09:14.262Z</time></trkpt><trkpt lat="45.18493" lon="7.8351867"><ele>188.5</ele><time>2026-05-01T08:09:15.262Z</time></trkpt><trkpt lat="45.1847517" lon="7.8348217"><ele>189.0</ele><time>2026-05-01T08:09:16.262Z</time></trkpt><trkpt lat="45.184575" lon="7.8344583"><ele>189.0</ele><time>2026-05-01T08:09:17.262Z</time></trkpt><trkpt lat="45.1844017" lon="7.8340933"><ele>189.0</ele><time>2026-05-01T08:09:18.261Z</time></trkpt><trkpt lat="45.18423" lon="7.8337133"><ele>188.5</ele><time>2026-05-01T08:09:19.262Z</time></trkpt><trkpt lat="45.18405" lon="7.8333317"><ele>188.0</ele><time>2026-05-01T08:09:20.261Z</time></trkpt><trkpt lat="45.1838767" lon="7.8329617"><ele>188.0</ele><time>2026-05-01T08:09:21.262Z</time></trkpt><trkpt lat="45.1836933" lon="7.8326033"><ele>188.0</ele><time>2026-05-01T08:09:22.262Z</time></trkpt><trkpt lat="45.1835117" lon="7.832245"><ele>188.0</ele><time>2026-05-01T08:09:23.261Z</time></trkpt><trkpt lat="45.1833217" lon="7.83189"><ele>188.0</ele><time>2026-05-01T08:09:24.262Z</time></trkpt><trkpt lat="45.18313" lon="7.8315167"><ele>189.5</ele><time>2026-05-01T08:09:25.262Z</time></trkpt><trkpt lat="45.1829467" lon="7.8311517"><ele>191.0</ele><time>2026-05-01T08:09:26.262Z</time></trkpt><trkpt lat="45.18277" lon="7.830785"><ele>191.5</ele><time>2026-05-01T08:09:27.262Z</time></trkpt><trkpt lat="45.182595" lon="7.830425"><ele>192.0</ele><time>2026-05-01T08:09:28.262Z</time></trkpt><trkpt lat="45.1824083" lon="7.8300633"><ele>192.5</ele><time>2026-05-01T08:09:29.262Z</time></trkpt><trkpt lat="45.182235" lon="7.829705"><ele>193.0</ele><time>2026-05-01T08:09:30.262Z</time></trkpt><trkpt lat="45.18205" lon="7.8293433"><ele>193.0</ele><time>2026-05-01T08:09:31.262Z</time></trkpt><trkpt lat="45.1818717" lon="7.8289867"><ele>193.0</ele><time>2026-05-01T08:09:32.262Z</time></trkpt><trkpt lat="45.18169" lon="7.82863"><ele>192.0</ele><time>2026-05-01T08:09:33.261Z</time></trkpt><trkpt lat="45.1815117" lon="7.8282683"><ele>191.0</ele><time>2026-05-01T08:09:34.261Z</time></trkpt><trkpt lat="45.1813367" lon="7.82791"><ele>191.0</ele><time>2026-05-01T08:09:35.262Z</time></trkpt><trkpt lat="45.1811533" lon="7.8275483"><ele>191.0</ele><time>2026-05-01T08:09:36.261Z</time></trkpt><trkpt lat="45.18097" lon="7.827185"><ele>191.0</ele><time>2026-05-01T08:09:37.261Z</time></trkpt><trkpt lat="45.1807917" lon="7.82682"><ele>191.0</ele><time>2026-05-01T08:09:38.262Z</time></trkpt><trkpt lat="45.1806133" lon="7.8264567"><ele>191.0</ele><time>2026-05-01T08:09:39.262Z</time></trkpt><trkpt lat="45.1804267" lon="7.82608"><ele>191.0</ele><time>2026-05-01T08:09:40.262Z</time></trkpt><trkpt lat="45.18025" lon="7.8257133"><ele>190.5</ele><time>2026-05-01T08:09:41.262Z</time></trkpt><trkpt lat="45.1800767" lon="7.825345"><ele>190.0</ele><time>2026-05-01T08:09:42.262Z</time></trkpt><trkpt lat="45.1798967" lon="7.8249733"><ele>191.5</ele><time>2026-05-01T08:09:43.261Z</time></trkpt><trkpt lat="45.1797233" lon="7.8245983"><ele>193.0</ele><time>2026-05-01T08:09:44.262Z</time></trkpt><trkpt lat="45.1795517" lon="7.8242267"><ele>193.5</ele><time>2026-05-01T08:09:45.262Z</time></trkpt><trkpt lat="45.1793733" lon="7.8238533"><ele>194.0</ele><time>2026-05-01T08:09:46.262Z</time></trkpt><trkpt lat="45.1792017" lon="7.823495"><ele>194.5</ele><time>2026-05-01T08:09:47.262Z</time></trkpt><trkpt lat="45.17902" lon="7.8231367"><ele>195.0</ele><time>2026-05-01T08:09:48.262Z</time></trkpt><trkpt lat="45.1788333" lon="7.8227767"><ele>194.5</ele><time>2026-05-01T08:09:49.262Z</time></trkpt><trkpt lat="45.178655" lon="7.8224133"><ele>194.0</ele><time>2026-05-01T08:09:50.261Z</time></trkpt><trkpt lat="45.1784783" lon="7.8220417"><ele>194.0</ele><time>2026-05-01T08:09:51.262Z</time></trkpt><trkpt lat="45.1783" lon="7.821675"><ele>194.0</ele><time>2026-05-01T08:09:52.262Z</time></trkpt><trkpt lat="45.17812" lon="7.8213133"><ele>193.5</ele><time>2026-05-01T08:09:53.261Z</time></trkpt><trkpt lat="45.177935" lon="7.8209567"><ele>193.0</ele><time>2026-05-01T08:09:54.262Z</time></trkpt><trkpt lat="45.1777517" lon="7.8206067"><ele>193.0</ele><time>2026-05-01T08:09:55.261Z</time></trkpt><trkpt lat="45.17757" lon="7.820245"><ele>193.0</ele><time>2026-05-01T08:09:56.262Z</time></trkpt><trkpt lat="45.1773867" lon="7.819885"><ele>194.0</ele><time>2026-05-01T08:09:57.261Z</time></trkpt><trkpt lat="45.1772033" lon="7.819515"><ele>195.0</ele><time>2026-05-01T08:09:58.262Z</time></trkpt><trkpt lat="45.1770067" lon="7.8191567"><ele>195.0</ele><time>2026-05-01T08:09:59.262Z</time></trkpt><trkpt lat="45.1768233" lon="7.8187933"><ele>195.0</ele><time>2026-05-01T08:10:00.261Z</time></trkpt><trkpt lat="45.17664" lon="7.8184383"><ele>195.0</ele><time>2026-05-01T08:10:01.262Z</time></trkpt><trkpt lat="45.1764583" lon="7.8180683"><ele>195.0</ele><time>2026-05-01T08:10:02.261Z</time></trkpt><trkpt lat="45.1762883" lon="7.8177233"><ele>195.5</ele><time>2026-05-01T08:10:03.262Z</time></trkpt><trkpt lat="45.17611" lon="7.8173583"><ele>196.0</ele><time>2026-05-01T08:10:04.262Z</time></trkpt><trkpt lat="45.1759183" lon="7.81699"><ele>196.5</ele><time>2026-05-01T08:10:05.262Z</time></trkpt><trkpt lat="45.1757283" lon="7.8166283"><ele>197.0</ele><time>2026-05-01T08:10:06.261Z</time></trkpt><trkpt lat="45.1755367" lon="7.81627"><ele>196.5</ele><time>2026-05-01T08:10:07.262Z</time></trkpt><trkpt lat="45.17537" lon="7.8159"><ele>196.0</ele><time>2026-05-01T08:10:08.262Z</time></trkpt><trkpt lat="45.1751983" lon="7.8155333"><ele>196.0</ele><time>2026-05-01T08:10:09.261Z</time></trkpt><trkpt lat="45.175025" lon="7.8151683"><ele>196.0</ele><time>2026-05-01T08:10:10.262Z</time></trkpt><trkpt lat="45.1748383" lon="7.814805"><ele>196.5</ele><time>2026-05-01T08:10:11.262Z</time></trkpt><trkpt lat="45.17465" lon="7.8144333"><ele>197.0</ele><time>2026-05-01T08:10:12.262Z</time></trkpt><trkpt lat="45.1744717" lon="7.8140717"><ele>197.5</ele><time>2026-05-01T08:10:13.261Z</time></trkpt><trkpt lat="45.1742967" lon="7.8137067"><ele>198.0</ele><time>2026-05-01T08:10:14.262Z</time></trkpt><trkpt lat="45.1741267" lon="7.8133567"><ele>197.5</ele><time>2026-05-01T08:10:15.262Z</time></trkpt><trkpt lat="45.1739567" lon="7.8130017"><ele>197.0</ele><time>2026-05-01T08:10:16.262Z</time></trkpt><trkpt lat="45.173765" lon="7.81263"><ele>197.0</ele><time>2026-05-01T08:10:17.262Z</time></trkpt><trkpt lat="45.1735783" lon="7.8122667"><ele>197.0</ele><time>2026-05-01T08:10:18.262Z</time></trkpt><trkpt lat="45.1734" lon="7.8119033"><ele>197.0</ele><time>2026-05-01T08:10:19.262Z</time></trkpt><trkpt lat="45.1732117" lon="7.8115467"><ele>197.0</ele><time>2026-05-01T08:10:20.262Z</time></trkpt><trkpt lat="45.17302" lon="7.8111833"><ele>196.5</ele><time>2026-05-01T08:10:21.262Z</time></trkpt><trkpt lat="45.1728283" lon="7.8108017"><ele>196.0</ele><time>2026-05-01T08:10:22.261Z</time></trkpt><trkpt lat="45.1726267" lon="7.810385"><ele>196.5</ele><time>2026-05-01T08:10:23.261Z</time></trkpt><trkpt lat="45.1724233" lon="7.8099833"><ele>197.0</ele><time>2026-05-01T08:10:24.262Z</time></trkpt><trkpt lat="45.17222" lon="7.8095817"><ele>198.0</ele><time>2026-05-01T08:10:25.262Z</time></trkpt><trkpt lat="45.1720183" lon="7.8091617"><ele>199.0</ele><time>2026-05-01T08:10:26.262Z</time></trkpt><trkpt lat="45.1718217" lon="7.80876"><ele>199.5</ele><time>2026-05-01T08:10:27.262Z</time></trkpt><trkpt lat="45.17162" lon="7.80835"><ele>200.0</ele><time>2026-05-01T08:10:28.262Z</time></trkpt><trkpt lat="45.1714233" lon="7.807935"><ele>199.5</ele><time>2026-05-01T08:10:29.262Z</time></trkpt><trkpt lat="45.171225" lon="7.8075267"><ele>199.0</ele><time>2026-05-01T08:10:30.262Z</time></trkpt><trkpt lat="45.171045" lon="7.80715"><ele>199.0</ele><time>2026-05-01T08:10:31.261Z</time></trkpt><trkpt lat="45.1708767" lon="7.8067967"><ele>199.0</ele><time>2026-05-01T08:10:32.262Z</time></trkpt><trkpt lat="45.1707117" lon="7.8064483"><ele>199.5</ele><time>2026-05-01T08:10:33.261Z</time></trkpt><trkpt lat="45.1705433" lon="7.8060983"><ele>200.0</ele><time>2026-05-01T08:10:34.262Z</time></trkpt><trkpt lat="45.1703667" lon="7.8057417"><ele>200.0</ele><time>2026-05-01T08:10:35.262Z</time></trkpt><trkpt lat="45.1701867" lon="7.8053883"><ele>200.0</ele><time>2026-05-01T08:10:36.262Z</time></trkpt><trkpt lat="45.17" lon="7.80503"><ele>200.0</ele><time>2026-05-01T08:10:37.261Z</time></trkpt><trkpt lat="45.1698133" lon="7.8046783"><ele>200.0</ele><time>2026-05-01T08:10:38.262Z</time></trkpt><trkpt lat="45.1696267" lon="7.8043083"><ele>201.0</ele><time>2026-05-01T08:10:39.262Z</time></trkpt><trkpt lat="45.1694433" lon="7.80394"><ele>202.0</ele><time>2026-05-01T08:10:40.261Z</time></trkpt><trkpt lat="45.169255" lon="7.8035617"><ele>200.5</ele><time>2026-05-01T08:10:41.262Z</time></trkpt><trkpt lat="45.169075" lon="7.803195"><ele>199.0</ele><time>2026-05-01T08:10:42.262Z</time></trkpt><trkpt lat="45.16889" lon="7.8028233"><ele>199.5</ele><time>2026-05-01T08:10:43.262Z</time></trkpt><trkpt lat="45.1687117" lon="7.802445"><ele>200.0</ele><time>2026-05-01T08:10:44.262Z</time></trkpt><trkpt lat="45.1685283" lon="7.8020817"><ele>200.0</ele><time>2026-05-01T08:10:45.262Z</time></trkpt><trkpt lat="45.1683467" lon="7.8017233"><ele>200.0</ele><time>2026-05-01T08:10:46.262Z</time></trkpt><trkpt lat="45.16817" lon="7.8013717"><ele>200.0</ele><time>2026-05-01T08:10:47.262Z</time></trkpt><trkpt lat="45.1679833" lon="7.8010133"><ele>200.0</ele><time>2026-05-01T08:10:48.262Z</time></trkpt><trkpt lat="45.1678033" lon="7.800655"><ele>201.0</ele><time>2026-05-01T08:10:49.262Z</time></trkpt><trkpt lat="45.1676267" lon="7.8002917"><ele>202.0</ele><time>2026-05-01T08:10:50.261Z</time></trkpt><trkpt lat="45.167455" lon="7.79992"><ele>201.5</ele><time>2026-05-01T08:10:51.262Z</time></trkpt><trkpt lat="45.1672783" lon="7.7995517"><ele>201.0</ele><time>2026-05-01T08:10:52.262Z</time></trkpt><trkpt lat="45.1671033" lon="7.7991783"><ele>201.0</ele><time>2026-05-01T08:10:53.262Z</time></trkpt><trkpt lat="45.1669283" lon="7.79881"><ele>201.0</ele><time>2026-05-01T08:10:54.262Z</time></trkpt><trkpt lat="45.1667433" lon="7.7984567"><ele>201.0</ele><time>2026-05-01T08:10:55.262Z</time></trkpt><trkpt lat="45.1665617" lon="7.798095"><ele>201.0</ele><time>2026-05-01T08:10:56.262Z</time></trkpt><trkpt lat="45.16638" lon="7.79773"><ele>201.0</ele><time>2026-05-01T08:10:57.262Z</time></trkpt><trkpt lat="45.1661883" lon="7.7973583"><ele>201.0</ele><time>2026-05-01T08:10:58.261Z</time></trkpt><trkpt lat="45.1660017" lon="7.796995"><ele>203.0</ele><time>2026-05-01T08:10:59.262Z</time></trkpt><trkpt lat="45.1658267" lon="7.796635"><ele>205.0</ele><time>2026-05-01T08:11:00.261Z</time></trkpt><trkpt lat="45.1656483" lon="7.7962633"><ele>203.5</ele><time>2026-05-01T08:11:01.262Z</time></trkpt><trkpt lat="45.1654717" lon="7.7958933"><ele>202.0</ele><time>2026-05-01T08:11:02.261Z</time></trkpt><trkpt lat="45.1653017" lon="7.7955267"><ele>201.5</ele><time>2026-05-01T08:11:03.262Z</time></trkpt><trkpt lat="45.1651267" lon="7.7951533"><ele>201.0</ele><time>2026-05-01T08:11:04.262Z</time></trkpt><trkpt lat="45.1649467" lon="7.794785"><ele>202.0</ele><time>2026-05-01T08:11:05.261Z</time></trkpt><trkpt lat="45.164765" lon="7.7944133"><ele>203.0</ele><time>2026-05-01T08:11:06.262Z</time></trkpt><trkpt lat="45.164585" lon="7.79404"><ele>203.0</ele><time>2026-05-01T08:11:07.262Z</time></trkpt><trkpt lat="45.1644167" lon="7.7936733"><ele>203.0</ele><time>2026-05-01T08:11:08.262Z</time></trkpt><trkpt lat="45.164235" lon="7.79331"><ele>203.0</ele><time>2026-05-01T08:11:09.262Z</time></trkpt><trkpt lat="45.1640533" lon="7.7929417"><ele>203.0</ele><time>2026-05-01T08:11:10.262Z</time></trkpt><trkpt lat="45.163875" lon="7.7925783"><ele>203.5</ele><time>2026-05-01T08:11:11.262Z</time></trkpt><trkpt lat="45.1637017" lon="7.7922233"><ele>204.0</ele><time>2026-05-01T08:11:12.261Z</time></trkpt><trkpt lat="45.1635217" lon="7.791855"><ele>204.0</ele><time>2026-05-01T08:11:13.261Z</time></trkpt><trkpt lat="45.16334" lon="7.791485"><ele>204.0</ele><time>2026-05-01T08:11:14.261Z</time></trkpt><trkpt lat="45.1631583" lon="7.791125"><ele>203.5</ele><time>2026-05-01T08:11:15.262Z</time></trkpt><trkpt lat="45.1629783" lon="7.7907667"><ele>203.0</ele><time>2026-05-01T08:11:16.262Z</time></trkpt><trkpt lat="45.1627983" lon="7.7904017"><ele>203.5</ele><time>2026-05-01T08:11:17.262Z</time></trkpt><trkpt lat="45.16263" lon="7.7900567"><ele>204.0</ele><time>2026-05-01T08:11:18.261Z</time></trkpt><trkpt lat="45.1624433" lon="7.7896933"><ele>204.5</ele><time>2026-05-01T08:11:19.262Z</time></trkpt><trkpt lat="45.1622583" lon="7.7893367"><ele>205.0</ele><time>2026-05-01T08:11:20.262Z</time></trkpt><trkpt lat="45.162065" lon="7.7889733"><ele>205.0</ele><time>2026-05-01T08:11:21.262Z</time></trkpt><trkpt lat="45.1618767" lon="7.7886133"><ele>205.0</ele><time>2026-05-01T08:11:22.262Z</time></trkpt><trkpt lat="45.1616933" lon="7.78826"><ele>207.5</ele><time>2026-05-01T08:11:23.262Z</time></trkpt><trkpt lat="45.161505" lon="7.7878983"><ele>210.0</ele><time>2026-05-01T08:11:24.262Z</time></trkpt><trkpt lat="45.1613217" lon="7.7875233"><ele>210.0</ele><time>2026-05-01T08:11:25.262Z</time></trkpt><trkpt lat="45.1611483" lon="7.787155"><ele>210.0</ele><time>2026-05-01T08:11:26.262Z</time></trkpt><trkpt lat="45.16098" lon="7.7867817"><ele>209.5</ele><time>2026-05-01T08:11:27.262Z</time></trkpt><trkpt lat="45.1608117" lon="7.78641"><ele>209.0</ele><time>2026-05-01T08:11:28.262Z</time></trkpt><trkpt lat="45.1606417" lon="7.78604"><ele>208.0</ele><time>2026-05-01T08:11:29.262Z</time></trkpt><trkpt lat="45.160465" lon="7.78567"><ele>207.0</ele><time>2026-05-01T08:11:30.262Z</time></trkpt><trkpt lat="45.1602917" lon="7.7853117"><ele>208.0</ele><time>2026-05-01T08:11:31.262Z</time></trkpt><trkpt lat="45.16011" lon="7.78495"><ele>209.0</ele><time>2026-05-01T08:11:32.261Z</time></trkpt><trkpt lat="45.1599267" lon="7.7845917"><ele>207.0</ele><time>2026-05-01T08:11:33.262Z</time></trkpt><trkpt lat="45.1597317" lon="7.7842283"><ele>205.0</ele><time>2026-05-01T08:11:34.262Z</time></trkpt><trkpt lat="45.159595" lon="7.783845"><ele>206.0</ele><time>2026-05-01T08:11:35.262Z</time></trkpt><trkpt lat="45.1593933" lon="7.7834867"><ele>207.0</ele><time>2026-05-01T08:11:36.262Z</time></trkpt><trkpt lat="45.1592067" lon="7.7831283"><ele>207.5</ele><time>2026-05-01T08:11:37.262Z</time></trkpt><trkpt lat="45.1590167" lon="7.7827633"><ele>208.0</ele><time>2026-05-01T08:11:38.262Z</time></trkpt><trkpt lat="45.1588317" lon="7.7824183"><ele>208.0</ele><time>2026-05-01T08:11:39.262Z</time></trkpt><trkpt lat="45.15865" lon="7.7820683"><ele>208.0</ele><time>2026-05-01T08:11:40.262Z</time></trkpt><trkpt lat="45.1584583" lon="7.7816983"><ele>207.0</ele><time>2026-05-01T08:11:41.262Z</time></trkpt><trkpt lat="45.1582767" lon="7.78134"><ele>206.0</ele><time>2026-05-01T08:11:42.262Z</time></trkpt><trkpt lat="45.1581" lon="7.78101"><ele>204.0</ele><time>2026-05-01T08:11:43.261Z</time></trkpt><trkpt lat="45.1579117" lon="7.7806917"><ele>202.0</ele><time>2026-05-01T08:11:44.262Z</time></trkpt><trkpt lat="45.1577267" lon="7.7803533"><ele>203.0</ele><time>2026-05-01T08:11:45.262Z</time></trkpt><trkpt lat="45.1575367" lon="7.7800117"><ele>204.0</ele><time>2026-05-01T08:11:46.262Z</time></trkpt><trkpt lat="45.15734" lon="7.7796567"><ele>205.5</ele><time>2026-05-01T08:11:47.261Z</time></trkpt><trkpt lat="45.1571467" lon="7.7793083"><ele>207.0</ele><time>2026-05-01T08:11:48.261Z</time></trkpt><trkpt lat="45.156955" lon="7.7789467"><ele>207.0</ele><time>2026-05-01T08:11:49.262Z</time></trkpt><trkpt lat="45.1567617" lon="7.7785783"><ele>207.0</ele><time>2026-05-01T08:11:50.262Z</time></trkpt><trkpt lat="45.1565817" lon="7.7781983"><ele>207.0</ele><time>2026-05-01T08:11:51.262Z</time></trkpt><trkpt lat="45.1564033" lon="7.77783"><ele>207.0</ele><time>2026-05-01T08:11:52.262Z</time></trkpt><trkpt lat="45.1562183" lon="7.7774583"><ele>207.0</ele><time>2026-05-01T08:11:53.262Z</time></trkpt><trkpt lat="45.1560267" lon="7.7770967"><ele>207.0</ele><time>2026-05-01T08:11:54.262Z</time></trkpt><trkpt lat="45.15585" lon="7.7767067"><ele>207.0</ele><time>2026-05-01T08:11:55.262Z</time></trkpt><trkpt lat="45.1556717" lon="7.7763317"><ele>207.0</ele><time>2026-05-01T08:11:56.262Z</time></trkpt><trkpt lat="45.155495" lon="7.775955"><ele>207.5</ele><time>2026-05-01T08:11:57.261Z</time></trkpt><trkpt lat="45.15532" lon="7.7755817"><ele>208.0</ele><time>2026-05-01T08:11:58.261Z</time></trkpt><trkpt lat="45.1551433" lon="7.7752167"><ele>208.0</ele><time>2026-05-01T08:11:59.262Z</time></trkpt><trkpt lat="45.1549717" lon="7.77485"><ele>208.0</ele><time>2026-05-01T08:12:00.262Z</time></trkpt><trkpt lat="45.15479" lon="7.7744883"><ele>208.0</ele><time>2026-05-01T08:12:01.262Z</time></trkpt><trkpt lat="45.15461" lon="7.7741333"><ele>208.0</ele><time>2026-05-01T08:12:02.262Z</time></trkpt><trkpt lat="45.154435" lon="7.7737667"><ele>209.0</ele><time>2026-05-01T08:12:03.262Z</time></trkpt><trkpt lat="45.1542517" lon="7.7733967"><ele>210.0</ele><time>2026-05-01T08:12:04.261Z</time></trkpt><trkpt lat="45.154075" lon="7.7730167"><ele>208.5</ele><time>2026-05-01T08:12:05.261Z</time></trkpt><trkpt lat="45.1538883" lon="7.7726567"><ele>207.0</ele><time>2026-05-01T08:12:06.262Z</time></trkpt><trkpt lat="45.1537083" lon="7.7722833"><ele>207.0</ele><time>2026-05-01T08:12:07.262Z</time></trkpt><trkpt lat="45.1535317" lon="7.77191"><ele>207.0</ele><time>2026-05-01T08:12:08.262Z</time></trkpt><trkpt lat="45.153355" lon="7.77154"><ele>206.5</ele><time>2026-05-01T08:12:09.261Z</time></trkpt><trkpt lat="45.1531733" lon="7.7711667"><ele>206.0</ele><time>2026-05-01T08:12:10.262Z</time></trkpt><trkpt lat="45.15299" lon="7.770785"><ele>208.5</ele><time>2026-05-01T08:12:11.262Z</time></trkpt><trkpt lat="45.15279" lon="7.7704"><ele>211.0</ele><time>2026-05-01T08:12:12.262Z</time></trkpt><trkpt lat="45.1525717" lon="7.7700133"><ele>211.0</ele><time>2026-05-01T08:12:13.261Z</time></trkpt><trkpt lat="45.1523817" lon="7.7696283"><ele>211.0</ele><time>2026-05-01T08:12:14.262Z</time></trkpt><trkpt lat="45.1521883" lon="7.7692217"><ele>208.5</ele><time>2026-05-01T08:12:15.261Z</time></trkpt><trkpt lat="45.1520017" lon="7.76882"><ele>206.0</ele><time>2026-05-01T08:12:16.262Z</time></trkpt><trkpt lat="45.15181" lon="7.7684167"><ele>206.0</ele><time>2026-05-01T08:12:17.262Z</time></trkpt><trkpt lat="45.1516183" lon="7.7680083"><ele>206.0</ele><time>2026-05-01T08:12:18.261Z</time></trkpt><trkpt lat="45.1514133" lon="7.767595"><ele>207.5</ele><time>2026-05-01T08:12:19.262Z</time></trkpt><trkpt lat="45.15123" lon="7.7671917"><ele>209.0</ele><time>2026-05-01T08:12:20.262Z</time></trkpt><trkpt lat="45.151035" lon="7.766795"><ele>209.0</ele><time>2026-05-01T08:12:21.262Z</time></trkpt><trkpt lat="45.150835" lon="7.7664017"><ele>209.0</ele><time>2026-05-01T08:12:22.262Z</time></trkpt><trkpt lat="45.1506467" lon="7.7660117"><ele>209.5</ele><time>2026-05-01T08:12:23.261Z</time></trkpt><trkpt lat="45.1504533" lon="7.76562"><ele>210.0</ele><time>2026-05-01T08:12:24.262Z</time></trkpt><trkpt lat="45.150255" lon="7.7652333"><ele>210.5</ele><time>2026-05-01T08:12:25.262Z</time></trkpt><trkpt lat="45.150055" lon="7.7648467"><ele>211.0</ele><time>2026-05-01T08:12:26.262Z</time></trkpt><trkpt lat="45.149865" lon="7.76446"><ele>210.5</ele><time>2026-05-01T08:12:27.262Z</time></trkpt><trkpt lat="45.1496833" lon="7.76409"><ele>210.0</ele><time>2026-05-01T08:12:28.262Z</time></trkpt><trkpt lat="45.1494833" lon="7.7636983"><ele>209.5</ele><time>2026-05-01T08:12:29.262Z</time></trkpt><trkpt lat="45.14929" lon="7.7633083"><ele>209.0</ele><time>2026-05-01T08:12:30.262Z</time></trkpt><trkpt lat="45.1490933" lon="7.762925"><ele>210.5</ele><time>2026-05-01T08:12:31.261Z</time></trkpt><trkpt lat="45.1489" lon="7.7625467"><ele>212.0</ele><time>2026-05-01T08:12:32.262Z</time></trkpt><trkpt lat="45.1487117" lon="7.7621667"><ele>212.5</ele><time>2026-05-01T08:12:33.261Z</time></trkpt><trkpt lat="45.1485267" lon="7.7617933"><ele>213.0</ele><time>2026-05-01T08:12:34.261Z</time></trkpt><trkpt lat="45.1483433" lon="7.7614233"><ele>212.5</ele><time>2026-05-01T08:12:35.261Z</time></trkpt><trkpt lat="45.14816" lon="7.7610567"><ele>212.0</ele><time>2026-05-01T08:12:36.262Z</time></trkpt><trkpt lat="45.1479667" lon="7.76068"><ele>212.0</ele><time>2026-05-01T08:12:37.262Z</time></trkpt><trkpt lat="45.147775" lon="7.7602967"><ele>212.0</ele><time>2026-05-01T08:12:38.262Z</time></trkpt><trkpt lat="45.1476" lon="7.75992"><ele>212.5</ele><time>2026-05-01T08:12:39.262Z</time></trkpt><trkpt lat="45.1474167" lon="7.7595417"><ele>213.0</ele><time>2026-05-01T08:12:40.262Z</time></trkpt><trkpt lat="45.1472333" lon="7.7591683"><ele>213.0</ele><time>2026-05-01T08:12:41.262Z</time></trkpt><trkpt lat="45.1470467" lon="7.758805"><ele>213.0</ele><time>2026-05-01T08:12:42.262Z</time></trkpt><trkpt lat="45.1468683" lon="7.7584533"><ele>213.0</ele><time>2026-05-01T08:12:43.261Z</time></trkpt><trkpt lat="45.1466983" lon="7.7581017"><ele>213.0</ele><time>2026-05-01T08:12:44.262Z</time></trkpt><trkpt lat="45.1465317" lon="7.757765"><ele>214.0</ele><time>2026-05-01T08:12:45.262Z</time></trkpt><trkpt lat="45.1463533" lon="7.7574117"><ele>215.0</ele><time>2026-05-01T08:12:46.262Z</time></trkpt><trkpt lat="45.1461717" lon="7.7570617"><ele>214.5</ele><time>2026-05-01T08:12:47.261Z</time></trkpt><trkpt lat="45.1459817" lon="7.756705"><ele>214.0</ele><time>2026-05-01T08:12:48.261Z</time></trkpt><trkpt lat="45.14581" lon="7.756345"><ele>214.0</ele><time>2026-05-01T08:12:49.262Z</time></trkpt><trkpt lat="45.1456267" lon="7.7560067"><ele>214.0</ele><time>2026-05-01T08:12:50.262Z</time></trkpt><trkpt lat="45.1454733" lon="7.7556417"><ele>214.0</ele><time>2026-05-01T08:12:51.262Z</time></trkpt><trkpt lat="45.1452983" lon="7.75528"><ele>214.0</ele><time>2026-05-01T08:12:52.262Z</time></trkpt><trkpt lat="45.1451033" lon="7.7549317"><ele>213.5</ele><time>2026-05-01T08:12:53.262Z</time></trkpt><trkpt lat="45.1449283" lon="7.7545617"><ele>213.0</ele><time>2026-05-01T08:12:54.261Z</time></trkpt><trkpt lat="45.1447317" lon="7.7542117"><ele>213.0</ele><time>2026-05-01T08:12:55.262Z</time></trkpt><trkpt lat="45.1445517" lon="7.7538433"><ele>213.0</ele><time>2026-05-01T08:12:56.262Z</time></trkpt><trkpt lat="45.1443683" lon="7.75348"><ele>213.0</ele><time>2026-05-01T08:12:57.262Z</time></trkpt><trkpt lat="45.1441883" lon="7.7531133"><ele>213.0</ele><time>2026-05-01T08:12:58.262Z</time></trkpt><trkpt lat="45.1440017" lon="7.75275"><ele>213.5</ele><time>2026-05-01T08:12:59.262Z</time></trkpt><trkpt lat="45.1438167" lon="7.7523817"><ele>214.0</ele><time>2026-05-01T08:13:00.262Z</time></trkpt><trkpt lat="45.1436317" lon="7.752005"><ele>214.0</ele><time>2026-05-01T08:13:01.261Z</time></trkpt><trkpt lat="45.1434467" lon="7.7516367"><ele>214.0</ele><time>2026-05-01T08:13:02.261Z</time></trkpt><trkpt lat="45.1432683" lon="7.7512883"><ele>214.5</ele><time>2026-05-01T08:13:03.262Z</time></trkpt><trkpt lat="45.1430867" lon="7.7509183"><ele>215.0</ele><time>2026-05-01T08:13:04.262Z</time></trkpt><trkpt lat="45.142905" lon="7.7505633"><ele>215.0</ele><time>2026-05-01T08:13:05.261Z</time></trkpt><trkpt lat="45.142725" lon="7.7501967"><ele>215.0</ele><time>2026-05-01T08:13:06.261Z</time></trkpt><trkpt lat="45.1425533" lon="7.749825"><ele>215.0</ele><time>2026-05-01T08:13:07.262Z</time></trkpt><trkpt lat="45.1423717" lon="7.74946"><ele>215.0</ele><time>2026-05-01T08:13:08.262Z</time></trkpt><trkpt lat="45.1422017" lon="7.7491083"><ele>216.0</ele><time>2026-05-01T08:13:09.262Z</time></trkpt><trkpt lat="45.1420217" lon="7.7487533"><ele>217.0</ele><time>2026-05-01T08:13:10.262Z</time></trkpt><trkpt lat="45.14183" lon="7.7484083"><ele>217.5</ele><time>2026-05-01T08:13:11.262Z</time></trkpt><trkpt lat="45.14165" lon="7.7480467"><ele>218.0</ele><time>2026-05-01T08:13:12.261Z</time></trkpt><trkpt lat="45.141475" lon="7.7476733"><ele>218.5</ele><time>2026-05-01T08:13:13.262Z</time></trkpt><trkpt lat="45.1412883" lon="7.7473083"><ele>219.0</ele><time>2026-05-01T08:13:14.262Z</time></trkpt><trkpt lat="45.1411167" lon="7.746955"><ele>219.0</ele><time>2026-05-01T08:13:15.262Z</time></trkpt><trkpt lat="45.1409417" lon="7.746595"><ele>219.0</ele><time>2026-05-01T08:13:16.262Z</time></trkpt><trkpt lat="45.1407683" lon="7.746235"><ele>217.5</ele><time>2026-05-01T08:13:17.262Z</time></trkpt><trkpt lat="45.140585" lon="7.7458517"><ele>216.0</ele><time>2026-05-01T08:13:18.262Z</time></trkpt><trkpt lat="45.1404083" lon="7.7454833"><ele>216.5</ele><time>2026-05-01T08:13:19.262Z</time></trkpt><trkpt lat="45.1402333" lon="7.7451133"><ele>217.0</ele><time>2026-05-01T08:13:20.262Z</time></trkpt><trkpt lat="45.140065" lon="7.7447383"><ele>217.5</ele><time>2026-05-01T08:13:21.262Z</time></trkpt><trkpt lat="45.1398883" lon="7.7443667"><ele>218.0</ele><time>2026-05-01T08:13:22.262Z</time></trkpt><trkpt lat="45.13971" lon="7.744"><ele>218.0</ele><time>2026-05-01T08:13:23.262Z</time></trkpt><trkpt lat="45.1395333" lon="7.7436283"><ele>218.0</ele><time>2026-05-01T08:13:24.261Z</time></trkpt><trkpt lat="45.1393583" lon="7.74326"><ele>218.0</ele><time>2026-05-01T08:13:25.262Z</time></trkpt><trkpt lat="45.139185" lon="7.7428933"><ele>218.0</ele><time>2026-05-01T08:13:26.261Z</time></trkpt><trkpt lat="45.1390067" lon="7.7425233"><ele>218.5</ele><time>2026-05-01T08:13:27.262Z</time></trkpt><trkpt lat="45.1388367" lon="7.7421533"><ele>219.0</ele><time>2026-05-01T08:13:28.262Z</time></trkpt><trkpt lat="45.13866" lon="7.7417817"><ele>219.0</ele><time>2026-05-01T08:13:29.261Z</time></trkpt><trkpt lat="45.1384833" lon="7.7414183"><ele>219.0</ele><time>2026-05-01T08:13:30.262Z</time></trkpt><trkpt lat="45.13831" lon="7.74105"><ele>217.5</ele><time>2026-05-01T08:13:31.262Z</time></trkpt><trkpt lat="45.1381267" lon="7.740685"><ele>216.0</ele><time>2026-05-01T08:13:32.262Z</time></trkpt><trkpt lat="45.137945" lon="7.7403233"><ele>216.5</ele><time>2026-05-01T08:13:33.261Z</time></trkpt><trkpt lat="45.1377617" lon="7.7399583"><ele>217.0</ele><time>2026-05-01T08:13:34.261Z</time></trkpt><trkpt lat="45.1375817" lon="7.7395967"><ele>218.0</ele><time>2026-05-01T08:13:35.262Z</time></trkpt><trkpt lat="45.1374033" lon="7.7392433"><ele>219.0</ele><time>2026-05-01T08:13:36.262Z</time></trkpt><trkpt lat="45.1372283" lon="7.7388783"><ele>219.5</ele><time>2026-05-01T08:13:37.262Z</time></trkpt><trkpt lat="45.13704" lon="7.7385283"><ele>220.0</ele><time>2026-05-01T08:13:38.261Z</time></trkpt><trkpt lat="45.1368483" lon="7.7381517"><ele>220.0</ele><time>2026-05-01T08:13:39.262Z</time></trkpt><trkpt lat="45.1366767" lon="7.737795"><ele>220.0</ele><time>2026-05-01T08:13:40.262Z</time></trkpt><trkpt lat="45.1365133" lon="7.73746"><ele>219.0</ele><time>2026-05-01T08:13:41.262Z</time></trkpt><trkpt lat="45.136345" lon="7.7371333"><ele>218.0</ele><time>2026-05-01T08:13:42.262Z</time></trkpt><trkpt lat="45.1361733" lon="7.7368167"><ele>218.0</ele><time>2026-05-01T08:13:43.261Z</time></trkpt><trkpt lat="45.13602" lon="7.736495"><ele>218.0</ele><time>2026-05-01T08:13:44.262Z</time></trkpt><trkpt lat="45.1358717" lon="7.7361717"><ele>218.0</ele><time>2026-05-01T08:13:45.262Z</time></trkpt><trkpt lat="45.1357167" lon="7.7358583"><ele>218.0</ele><time>2026-05-01T08:13:46.261Z</time></trkpt><trkpt lat="45.1355667" lon="7.7355417"><ele>218.0</ele><time>2026-05-01T08:13:47.262Z</time></trkpt><trkpt lat="45.1354117" lon="7.7352333"><ele>218.0</ele><time>2026-05-01T08:13:48.261Z</time></trkpt><trkpt lat="45.1352533" lon="7.7349283"><ele>218.5</ele><time>2026-05-01T08:13:49.262Z</time></trkpt><trkpt lat="45.1350967" lon="7.73463"><ele>219.0</ele><time>2026-05-01T08:13:50.262Z</time></trkpt><trkpt lat="45.134945" lon="7.7343383"><ele>218.5</ele><time>2026-05-01T08:13:51.262Z</time></trkpt><trkpt lat="45.1347983" lon="7.734045"><ele>218.0</ele><time>2026-05-01T08:13:52.262Z</time></trkpt><trkpt lat="45.1346533" lon="7.7337467"><ele>216.5</ele><time>2026-05-01T08:13:53.262Z</time></trkpt><trkpt lat="45.1345117" lon="7.7334517"><ele>215.0</ele><time>2026-05-01T08:13:54.262Z</time></trkpt><trkpt lat="45.1343583" lon="7.733165"><ele>215.0</ele><time>2026-05-01T08:13:55.262Z</time></trkpt><trkpt lat="45.13421" lon="7.7328733"><ele>215.0</ele><time>2026-05-01T08:13:56.262Z</time></trkpt><trkpt lat="45.1340667" lon="7.732595"><ele>215.33333333333334</ele><time>2026-05-01T08:13:57.262Z</time></trkpt><trkpt lat="45.1339583" lon="7.7323367"><ele>215.66666666666669</ele><time>2026-05-01T08:13:58.261Z</time></trkpt><trkpt lat="45.13386" lon="7.73209"><ele>216.0</ele><time>2026-05-01T08:13:59.261Z</time></trkpt><trkpt lat="45.133765" lon="7.73187"><ele>217.0</ele><time>2026-05-01T08:14:00.261Z</time></trkpt><trkpt lat="45.1336717" lon="7.7316633"><ele>218.0</ele><time>2026-05-01T08:14:01.261Z</time></trkpt><trkpt lat="45.133585" lon="7.7314533"><ele>219.0</ele><time>2026-05-01T08:14:02.262Z</time></trkpt><trkpt lat="45.133515" lon="7.7312283"><ele>219.33333333333331</ele><time>2026-05-01T08:14:03.262Z</time></trkpt><trkpt lat="45.133445" lon="7.73099"><ele>219.66666666666666</ele><time>2026-05-01T08:14:04.262Z</time></trkpt><trkpt lat="45.1334067" lon="7.73073"><ele>220.0</ele><time>2026-05-01T08:14:05.261Z</time></trkpt><trkpt lat="45.1334183" lon="7.7304867"><ele>220.0</ele><time>2026-05-01T08:14:06.262Z</time></trkpt><trkpt lat="45.1333933" lon="7.7302733"><ele>220.0</ele><time>2026-05-01T08:14:07.262Z</time></trkpt><trkpt lat="45.133405" lon="7.7300717"><ele>220.0</ele><time>2026-05-01T08:14:08.262Z</time></trkpt><trkpt lat="45.133445" lon="7.7298683"><ele>220.0</ele><time>2026-05-01T08:14:09.261Z</time></trkpt><trkpt lat="45.1335033" lon="7.72969"><ele>220.33333333333331</ele><time>2026-05-01T08:14:10.262Z</time></trkpt><trkpt lat="45.133605" lon="7.729495"><ele>220.66666666666669</ele><time>2026-05-01T08:14:11.262Z</time></trkpt><trkpt lat="45.1336983" lon="7.7292933"><ele>221.0</ele><time>2026-05-01T08:14:12.262Z</time></trkpt><trkpt lat="45.1338217" lon="7.729105"><ele>221.0</ele><time>2026-05-01T08:14:13.262Z</time></trkpt><trkpt lat="45.1339417" lon="7.72893"><ele>221.0</ele><time>2026-05-01T08:14:14.261Z</time></trkpt><trkpt lat="45.13407" lon="7.728775"><ele>221.0</ele><time>2026-05-01T08:14:15.262Z</time></trkpt><trkpt lat="45.13419" lon="7.7286167"><ele>222.0</ele><time>2026-05-01T08:14:16.261Z</time></trkpt><trkpt lat="45.134315" lon="7.7284583"><ele>223.0</ele><time>2026-05-01T08:14:17.262Z</time></trkpt><trkpt lat="45.1344417" lon="7.72828"><ele>224.0</ele><time>2026-05-01T08:14:18.262Z</time></trkpt><trkpt lat="45.1345867" lon="7.728095"><ele>224.0</ele><time>2026-05-01T08:14:19.262Z</time></trkpt><trkpt lat="45.13474" lon="7.7278983"><ele>224.0</ele><time>2026-05-01T08:14:20.262Z</time></trkpt><trkpt lat="45.1348967" lon="7.7277217"><ele>224.0</ele><time>2026-05-01T08:14:21.261Z</time></trkpt><trkpt lat="45.1350367" lon="7.7275617"><ele>224.0</ele><time>2026-05-01T08:14:22.261Z</time></trkpt><trkpt lat="45.135165" lon="7.727425"><ele>224.0</ele><time>2026-05-01T08:14:23.261Z</time></trkpt><trkpt lat="45.135285" lon="7.7272917"><ele>224.0</ele><time>2026-05-01T08:14:24.261Z</time></trkpt><trkpt lat="45.1354083" lon="7.7271433"><ele>224.0</ele><time>2026-05-01T08:14:25.262Z</time></trkpt><trkpt lat="45.1355433" lon="7.7269767"><ele>224.0</ele><time>2026-05-01T08:14:26.262Z</time></trkpt><trkpt lat="45.1356817" lon="7.7268017"><ele>224.0</ele><time>2026-05-01T08:14:27.262Z</time></trkpt><trkpt lat="45.1358367" lon="7.7266133"><ele>224.0</ele><time>2026-05-01T08:14:28.262Z</time></trkpt><trkpt lat="45.1359933" lon="7.726425"><ele>224.0</ele><time>2026-05-01T08:14:29.261Z</time></trkpt><trkpt lat="45.1361583" lon="7.7262283"><ele>224.0</ele><time>2026-05-01T08:14:30.262Z</time></trkpt><trkpt lat="45.1363333" lon="7.72603"><ele>224.33333333333334</ele><time>2026-05-01T08:14:31.262Z</time></trkpt><trkpt lat="45.1364983" lon="7.725835"><ele>224.66666666666669</ele><time>2026-05-01T08:14:32.262Z</time></trkpt><trkpt lat="45.13664" lon="7.72565"><ele>225.0</ele><time>2026-05-01T08:14:33.262Z</time></trkpt><trkpt lat="45.1367617" lon="7.725465"><ele>225.0</ele><time>2026-05-01T08:14:34.262Z</time></trkpt><trkpt lat="45.13687" lon="7.7252667"><ele>225.0</ele><time>2026-05-01T08:14:35.262Z</time></trkpt><trkpt lat="45.1369683" lon="7.7250667"><ele>225.0</ele><time>2026-05-01T08:14:36.262Z</time></trkpt><trkpt lat="45.1370517" lon="7.72486"><ele>224.66666666666669</ele><time>2026-05-01T08:14:37.262Z</time></trkpt><trkpt lat="45.13713" lon="7.7246333"><ele>224.33333333333334</ele><time>2026-05-01T08:14:38.262Z</time></trkpt><trkpt lat="45.1372033" lon="7.7243917"><ele>224.0</ele><time>2026-05-01T08:14:39.262Z</time></trkpt><trkpt lat="45.1372733" lon="7.72411"><ele>224.0</ele><time>2026-05-01T08:14:40.262Z</time></trkpt><trkpt lat="45.1373267" lon="7.7238117"><ele>224.0</ele><time>2026-05-01T08:14:41.261Z</time></trkpt><trkpt lat="45.1373617" lon="7.7234917"><ele>224.0</ele><time>2026-05-01T08:14:42.262Z</time></trkpt><trkpt lat="45.1373883" lon="7.7231717"><ele>225.0</ele><time>2026-05-01T08:14:43.262Z</time></trkpt><trkpt lat="45.1373983" lon="7.7228367"><ele>226.0</ele><time>2026-05-01T08:14:44.262Z</time></trkpt><trkpt lat="45.13738" lon="7.7224883"><ele>226.0</ele><time>2026-05-01T08:14:45.262Z</time></trkpt><trkpt lat="45.1373433" lon="7.7221383"><ele>226.0</ele><time>2026-05-01T08:14:46.262Z</time></trkpt><trkpt lat="45.137285" lon="7.7217883"><ele>224.5</ele><time>2026-05-01T08:14:47.261Z</time></trkpt><trkpt lat="45.137215" lon="7.72146"><ele>223.0</ele><time>2026-05-01T08:14:48.262Z</time></trkpt><trkpt lat="45.1371233" lon="7.7211317"><ele>223.5</ele><time>2026-05-01T08:14:49.262Z</time></trkpt><trkpt lat="45.13702" lon="7.720805"><ele>224.0</ele><time>2026-05-01T08:14:50.262Z</time></trkpt><trkpt lat="45.1369117" lon="7.7204733"><ele>224.0</ele><time>2026-05-01T08:14:51.261Z</time></trkpt><trkpt lat="45.1368067" lon="7.7201567"><ele>224.0</ele><time>2026-05-01T08:14:52.262Z</time></trkpt><trkpt lat="45.1366967" lon="7.7198467"><ele>224.0</ele><time>2026-05-01T08:14:53.262Z</time></trkpt><trkpt lat="45.1366" lon="7.7195467"><ele>224.0</ele><time>2026-05-01T08:14:54.262Z</time></trkpt><trkpt lat="45.1364983" lon="7.71925"><ele>224.0</ele><time>2026-05-01T08:14:55.262Z</time></trkpt><trkpt lat="45.1363833" lon="7.7189617"><ele>224.0</ele><time>2026-05-01T08:14:56.262Z</time></trkpt><trkpt lat="45.136265" lon="7.71867"><ele>224.33333333333334</ele><time>2026-05-01T08:14:57.262Z</time></trkpt><trkpt lat="45.1361517" lon="7.7183883"><ele>224.66666666666669</ele><time>2026-05-01T08:14:58.261Z</time></trkpt><trkpt lat="45.1360367" lon="7.71814"><ele>225.0</ele><time>2026-05-01T08:14:59.261Z</time></trkpt><trkpt lat="45.1359217" lon="7.7179"><ele>225.66666666666669</ele><time>2026-05-01T08:15:00.262Z</time></trkpt><trkpt lat="45.135805" lon="7.7176633"><ele>226.33333333333334</ele><time>2026-05-01T08:15:01.262Z</time></trkpt><trkpt lat="45.1356833" lon="7.7174617"><ele>227.0</ele><time>2026-05-01T08:15:02.262Z</time></trkpt><trkpt lat="45.135545" lon="7.7172933"><ele>227.0</ele><time>2026-05-01T08:15:03.262Z</time></trkpt><trkpt lat="45.13542" lon="7.71715"><ele>227.0</ele><time>2026-05-01T08:15:04.262Z</time></trkpt><trkpt lat="45.1353033" lon="7.7170167"><ele>227.0</ele><time>2026-05-01T08:15:05.262Z</time></trkpt><trkpt lat="45.1351983" lon="7.716885"><ele>227.0</ele><time>2026-05-01T08:15:06.261Z</time></trkpt><trkpt lat="45.1351" lon="7.71676"><ele>227.0</ele><time>2026-05-01T08:15:07.261Z</time></trkpt><trkpt lat="45.135015" lon="7.7166433"><ele>227.0</ele><time>2026-05-01T08:15:08.261Z</time></trkpt><trkpt lat="45.13495" lon="7.7165317"><ele>227.0</ele><time>2026-05-01T08:15:09.262Z</time></trkpt><trkpt lat="45.13489" lon="7.716445"><ele>227.0</ele><time>2026-05-01T08:15:10.262Z</time></trkpt><trkpt lat="45.1348367" lon="7.71636"><ele>227.0</ele><time>2026-05-01T08:15:11.261Z</time></trkpt><trkpt lat="45.13477" lon="7.7162683"><ele>227.0</ele><time>2026-05-01T08:15:13.262Z</time></trkpt><trkpt lat="45.1346983" lon="7.7161467"><ele>227.0</ele><time>2026-05-01T08:15:15.262Z</time></trkpt><trkpt lat="45.134655" lon="7.7160683"><ele>227.0</ele><time>2026-05-01T08:15:16.262Z</time></trkpt><trkpt lat="45.13459" lon="7.71591"><ele>227.0</ele><time>2026-05-01T08:15:17.262Z</time></trkpt><trkpt lat="45.1345033" lon="7.7157333"><ele>226.66666666666669</ele><time>2026-05-01T08:15:18.262Z</time></trkpt><trkpt lat="45.134395" lon="7.71551"><ele>226.33333333333331</ele><time>2026-05-01T08:15:19.262Z</time></trkpt><trkpt lat="45.1342883" lon="7.7152667"><ele>226.0</ele><time>2026-05-01T08:15:20.262Z</time></trkpt><trkpt lat="45.1341967" lon="7.715015"><ele>225.66666666666666</ele><time>2026-05-01T08:15:21.262Z</time></trkpt><trkpt lat="45.1341083" lon="7.7147883"><ele>225.33333333333331</ele><time>2026-05-01T08:15:22.262Z</time></trkpt><trkpt lat="45.1340217" lon="7.7145633"><ele>225.0</ele><time>2026-05-01T08:15:23.262Z</time></trkpt><trkpt lat="45.13394" lon="7.7143383"><ele>226.0</ele><time>2026-05-01T08:15:24.262Z</time></trkpt><trkpt lat="45.133855" lon="7.7141233"><ele>227.0</ele><time>2026-05-01T08:15:25.262Z</time></trkpt><trkpt lat="45.13378" lon="7.7139367"><ele>228.0</ele><time>2026-05-01T08:15:26.262Z</time></trkpt><trkpt lat="45.13372" lon="7.71377"><ele>228.0</ele><time>2026-05-01T08:15:27.262Z</time></trkpt><trkpt lat="45.1336717" lon="7.7135967"><ele>228.0</ele><time>2026-05-01T08:15:28.262Z</time></trkpt><trkpt lat="45.1336217" lon="7.713415"><ele>228.0</ele><time>2026-05-01T08:15:29.262Z</time></trkpt><trkpt lat="45.1335817" lon="7.7132183"><ele>228.0</ele><time>2026-05-01T08:15:30.262Z</time></trkpt><trkpt lat="45.13355" lon="7.7130167"><ele>228.0</ele><time>2026-05-01T08:15:31.262Z</time></trkpt><trkpt lat="45.1335333" lon="7.712805"><ele>228.0</ele><time>2026-05-01T08:15:32.262Z</time></trkpt><trkpt lat="45.1335283" lon="7.712565"><ele>228.0</ele><time>2026-05-01T08:15:33.262Z</time></trkpt><trkpt lat="45.13352" lon="7.7123217"><ele>228.0</ele><time>2026-05-01T08:15:34.261Z</time></trkpt><trkpt lat="45.133535" lon="7.712055"><ele>228.0</ele><time>2026-05-01T08:15:35.262Z</time></trkpt><trkpt lat="45.1335733" lon="7.7117717"><ele>228.0</ele><time>2026-05-01T08:15:36.262Z</time></trkpt><trkpt lat="45.1336483" lon="7.7114783"><ele>228.33333333333331</ele><time>2026-05-01T08:15:37.261Z</time></trkpt><trkpt lat="45.1337367" lon="7.7111883"><ele>228.66666666666666</ele><time>2026-05-01T08:15:38.262Z</time></trkpt><trkpt lat="45.1338633" lon="7.7109267"><ele>229.0</ele><time>2026-05-01T08:15:39.262Z</time></trkpt><trkpt lat="45.1339783" lon="7.710635"><ele>229.0</ele><time>2026-05-01T08:15:40.262Z</time></trkpt><trkpt lat="45.1340883" lon="7.7103533"><ele>229.0</ele><time>2026-05-01T08:15:41.261Z</time></trkpt><trkpt lat="45.1342033" lon="7.7100517"><ele>228.66666666666666</ele><time>2026-05-01T08:15:42.261Z</time></trkpt><trkpt lat="45.1343083" lon="7.7097783"><ele>228.33333333333331</ele><time>2026-05-01T08:15:43.262Z</time></trkpt><trkpt lat="45.1344133" lon="7.7095117"><ele>228.0</ele><time>2026-05-01T08:15:44.262Z</time></trkpt><trkpt lat="45.1344983" lon="7.709255"><ele>228.0</ele><time>2026-05-01T08:15:45.262Z</time></trkpt><trkpt lat="45.134575" lon="7.7089967"><ele>228.0</ele><time>2026-05-01T08:15:46.262Z</time></trkpt><trkpt lat="45.13463" lon="7.7087317"><ele>228.0</ele><time>2026-05-01T08:15:47.262Z</time></trkpt><trkpt lat="45.134655" lon="7.7084583"><ele>228.0</ele><time>2026-05-01T08:15:48.262Z</time></trkpt><trkpt lat="45.1346583" lon="7.70819"><ele>228.0</ele><time>2026-05-01T08:15:49.262Z</time></trkpt><trkpt lat="45.134625" lon="7.70794"><ele>228.0</ele><time>2026-05-01T08:15:50.262Z</time></trkpt><trkpt lat="45.1345617" lon="7.7076867"><ele>228.0</ele><time>2026-05-01T08:15:51.261Z</time></trkpt><trkpt lat="45.13447" lon="7.7074533"><ele>228.0</ele><time>2026-05-01T08:15:52.262Z</time></trkpt><trkpt lat="45.13435" lon="7.7072333"><ele>228.0</ele><time>2026-05-01T08:15:53.262Z</time></trkpt><trkpt lat="45.1342067" lon="7.707055"><ele>228.66666666666669</ele><time>2026-05-01T08:15:54.261Z</time></trkpt><trkpt lat="45.13405" lon="7.7069067"><ele>229.33333333333334</ele><time>2026-05-01T08:15:55.262Z</time></trkpt><trkpt lat="45.133865" lon="7.7067983"><ele>230.0</ele><time>2026-05-01T08:15:56.262Z</time></trkpt><trkpt lat="45.1336617" lon="7.706675"><ele>230.0</ele><time>2026-05-01T08:15:57.262Z</time></trkpt><trkpt lat="45.1334333" lon="7.7065517"><ele>230.0</ele><time>2026-05-01T08:15:58.262Z</time></trkpt><trkpt lat="45.1332167" lon="7.7064067"><ele>229.0</ele><time>2026-05-01T08:15:59.262Z</time></trkpt><trkpt lat="45.1330033" lon="7.706225"><ele>228.0</ele><time>2026-05-01T08:16:00.262Z</time></trkpt><trkpt lat="45.132815" lon="7.7060383"><ele>227.5</ele><time>2026-05-01T08:16:01.262Z</time></trkpt><trkpt lat="45.1326433" lon="7.705825"><ele>227.0</ele><time>2026-05-01T08:16:02.261Z</time></trkpt><trkpt lat="45.1325117" lon="7.7055667"><ele>227.0</ele><time>2026-05-01T08:16:03.262Z</time></trkpt><trkpt lat="45.1324067" lon="7.7053033"><ele>227.0</ele><time>2026-05-01T08:16:04.262Z</time></trkpt><trkpt lat="45.1323067" lon="7.70503"><ele>227.0</ele><time>2026-05-01T08:16:05.262Z</time></trkpt><trkpt lat="45.13219" lon="7.7047333"><ele>227.0</ele><time>2026-05-01T08:16:06.262Z</time></trkpt><trkpt lat="45.132065" lon="7.70442"><ele>227.0</ele><time>2026-05-01T08:16:07.262Z</time></trkpt><trkpt lat="45.1319433" lon="7.7040783"><ele>227.0</ele><time>2026-05-01T08:16:08.262Z</time></trkpt><trkpt lat="45.13181" lon="7.703725"><ele>227.0</ele><time>2026-05-01T08:16:09.262Z</time></trkpt><trkpt lat="45.1316733" lon="7.703335"><ele>226.0</ele><time>2026-05-01T08:16:10.262Z</time></trkpt><trkpt lat="45.1315483" lon="7.7029517"><ele>225.0</ele><time>2026-05-01T08:16:11.262Z</time></trkpt><trkpt lat="45.1314083" lon="7.7025733"><ele>225.0</ele><time>2026-05-01T08:16:12.262Z</time></trkpt><trkpt lat="45.13129" lon="7.7021733"><ele>225.0</ele><time>2026-05-01T08:16:13.262Z</time></trkpt><trkpt lat="45.13118" lon="7.7017817"><ele>225.5</ele><time>2026-05-01T08:16:14.262Z</time></trkpt><trkpt lat="45.131065" lon="7.7013683"><ele>226.0</ele><time>2026-05-01T08:16:15.261Z</time></trkpt><trkpt lat="45.1309533" lon="7.7009467"><ele>227.0</ele><time>2026-05-01T08:16:16.262Z</time></trkpt><trkpt lat="45.1308417" lon="7.700535"><ele>228.0</ele><time>2026-05-01T08:16:17.262Z</time></trkpt><trkpt lat="45.1307433" lon="7.7001267"><ele>228.0</ele><time>2026-05-01T08:16:18.262Z</time></trkpt><trkpt lat="45.1306367" lon="7.6997167"><ele>228.0</ele><time>2026-05-01T08:16:19.261Z</time></trkpt><trkpt lat="45.1305433" lon="7.6993017"><ele>228.0</ele><time>2026-05-01T08:16:20.262Z</time></trkpt><trkpt lat="45.1304367" lon="7.69889"><ele>228.0</ele><time>2026-05-01T08:16:21.262Z</time></trkpt><trkpt lat="45.1303333" lon="7.6984733"><ele>227.5</ele><time>2026-05-01T08:16:22.262Z</time></trkpt><trkpt lat="45.1302383" lon="7.6980517"><ele>227.0</ele><time>2026-05-01T08:16:23.262Z</time></trkpt><trkpt lat="45.1301483" lon="7.6976283"><ele>227.5</ele><time>2026-05-01T08:16:24.262Z</time></trkpt><trkpt lat="45.1300633" lon="7.6972033"><ele>228.0</ele><time>2026-05-01T08:16:25.262Z</time></trkpt><trkpt lat="45.12998" lon="7.69678"><ele>228.0</ele><time>2026-05-01T08:16:26.262Z</time></trkpt><trkpt lat="45.1299033" lon="7.6963517"><ele>228.0</ele><time>2026-05-01T08:16:27.262Z</time></trkpt><trkpt lat="45.129835" lon="7.6959217"><ele>228.5</ele><time>2026-05-01T08:16:28.262Z</time></trkpt><trkpt lat="45.129765" lon="7.69551"><ele>229.0</ele><time>2026-05-01T08:16:29.261Z</time></trkpt><trkpt lat="45.12971" lon="7.6950917"><ele>229.5</ele><time>2026-05-01T08:16:30.262Z</time></trkpt><trkpt lat="45.129645" lon="7.6946767"><ele>230.0</ele><time>2026-05-01T08:16:31.261Z</time></trkpt><trkpt lat="45.1295917" lon="7.6942467"><ele>230.0</ele><time>2026-05-01T08:16:32.262Z</time></trkpt><trkpt lat="45.1295367" lon="7.6938117"><ele>230.0</ele><time>2026-05-01T08:16:33.262Z</time></trkpt><trkpt lat="45.1294783" lon="7.6933867"><ele>229.5</ele><time>2026-05-01T08:16:34.262Z</time></trkpt><trkpt lat="45.129425" lon="7.6929583"><ele>229.0</ele><time>2026-05-01T08:16:35.262Z</time></trkpt><trkpt lat="45.1293733" lon="7.6925267"><ele>229.0</ele><time>2026-05-01T08:16:36.262Z</time></trkpt><trkpt lat="45.1293283" lon="7.6920933"><ele>229.0</ele><time>2026-05-01T08:16:37.261Z</time></trkpt><trkpt lat="45.1292817" lon="7.69166"><ele>229.5</ele><time>2026-05-01T08:16:38.261Z</time></trkpt><trkpt lat="45.1292383" lon="7.6912217"><ele>230.0</ele><time>2026-05-01T08:16:39.262Z</time></trkpt><trkpt lat="45.1292" lon="7.69079"><ele>230.5</ele><time>2026-05-01T08:16:40.261Z</time></trkpt><trkpt lat="45.1291683" lon="7.6903683"><ele>231.0</ele><time>2026-05-01T08:16:41.261Z</time></trkpt><trkpt lat="45.12914" lon="7.6899367"><ele>231.0</ele><time>2026-05-01T08:16:42.262Z</time></trkpt><trkpt lat="45.1291" lon="7.6895033"><ele>231.0</ele><time>2026-05-01T08:16:43.261Z</time></trkpt><trkpt lat="45.1290717" lon="7.6890667"><ele>231.0</ele><time>2026-05-01T08:16:44.262Z</time></trkpt><trkpt lat="45.1290417" lon="7.6886317"><ele>231.0</ele><time>2026-05-01T08:16:45.262Z</time></trkpt><trkpt lat="45.12901" lon="7.6882017"><ele>231.0</ele><time>2026-05-01T08:16:46.262Z</time></trkpt><trkpt lat="45.1289833" lon="7.687765"><ele>231.0</ele><time>2026-05-01T08:16:47.262Z</time></trkpt><trkpt lat="45.1289467" lon="7.68733"><ele>231.0</ele><time>2026-05-01T08:16:48.261Z</time></trkpt><trkpt lat="45.1289117" lon="7.6868967"><ele>231.0</ele><time>2026-05-01T08:16:49.262Z</time></trkpt><trkpt lat="45.12887" lon="7.6864533"><ele>229.5</ele><time>2026-05-01T08:16:50.262Z</time></trkpt><trkpt lat="45.1288317" lon="7.6860117"><ele>228.0</ele><time>2026-05-01T08:16:51.262Z</time></trkpt><trkpt lat="45.1287983" lon="7.6855833"><ele>227.5</ele><time>2026-05-01T08:16:52.262Z</time></trkpt><trkpt lat="45.1287583" lon="7.6851433"><ele>227.0</ele><time>2026-05-01T08:16:53.261Z</time></trkpt><trkpt lat="45.1287233" lon="7.684715"><ele>228.5</ele><time>2026-05-01T08:16:54.262Z</time></trkpt><trkpt lat="45.1286833" lon="7.68428"><ele>230.0</ele><time>2026-05-01T08:16:55.262Z</time></trkpt><trkpt lat="45.128645" lon="7.68384"><ele>231.5</ele><time>2026-05-01T08:16:56.262Z</time></trkpt><trkpt lat="45.1286117" lon="7.6834033"><ele>233.0</ele><time>2026-05-01T08:16:57.262Z</time></trkpt><trkpt lat="45.1285783" lon="7.6829733"><ele>232.5</ele><time>2026-05-01T08:16:58.261Z</time></trkpt><trkpt lat="45.128545" lon="7.68254"><ele>232.0</ele><time>2026-05-01T08:16:59.262Z</time></trkpt><trkpt lat="45.1285" lon="7.6821083"><ele>230.5</ele><time>2026-05-01T08:17:00.262Z</time></trkpt><trkpt lat="45.1284717" lon="7.6816783"><ele>229.0</ele><time>2026-05-01T08:17:01.261Z</time></trkpt><trkpt lat="45.1284367" lon="7.6812533"><ele>229.0</ele><time>2026-05-01T08:17:02.261Z</time></trkpt><trkpt lat="45.1283967" lon="7.6808167"><ele>229.0</ele><time>2026-05-01T08:17:03.261Z</time></trkpt><trkpt lat="45.1283567" lon="7.68038"><ele>230.5</ele><time>2026-05-01T08:17:04.262Z</time></trkpt><trkpt lat="45.1283167" lon="7.6799433"><ele>232.0</ele><time>2026-05-01T08:17:05.262Z</time></trkpt><trkpt lat="45.1282833" lon="7.6795117"><ele>232.5</ele><time>2026-05-01T08:17:06.262Z</time></trkpt><trkpt lat="45.1282483" lon="7.6790733"><ele>233.0</ele><time>2026-05-01T08:17:07.261Z</time></trkpt><trkpt lat="45.1282133" lon="7.6786367"><ele>232.0</ele><time>2026-05-01T08:17:08.262Z</time></trkpt><trkpt lat="45.12818" lon="7.6782033"><ele>231.0</ele><time>2026-05-01T08:17:09.262Z</time></trkpt><trkpt lat="45.1281467" lon="7.67777"><ele>231.0</ele><time>2026-05-01T08:17:10.261Z</time></trkpt><trkpt lat="45.12811" lon="7.677325"><ele>231.0</ele><time>2026-05-01T08:17:11.261Z</time></trkpt><trkpt lat="45.128075" lon="7.6768983"><ele>231.0</ele><time>2026-05-01T08:17:12.262Z</time></trkpt><trkpt lat="45.1280433" lon="7.67646"><ele>231.0</ele><time>2026-05-01T08:17:13.261Z</time></trkpt><trkpt lat="45.1280067" lon="7.6760283"><ele>230.5</ele><time>2026-05-01T08:17:14.262Z</time></trkpt><trkpt lat="45.12797" lon="7.675595"><ele>230.0</ele><time>2026-05-01T08:17:15.261Z</time></trkpt><trkpt lat="45.1279367" lon="7.6751633"><ele>230.0</ele><time>2026-05-01T08:17:16.262Z</time></trkpt><trkpt lat="45.127905" lon="7.6747283"><ele>230.0</ele><time>2026-05-01T08:17:17.261Z</time></trkpt><trkpt lat="45.12787" lon="7.6742917"><ele>230.0</ele><time>2026-05-01T08:17:18.261Z</time></trkpt><trkpt lat="45.1278367" lon="7.6738583"><ele>230.0</ele><time>2026-05-01T08:17:19.262Z</time></trkpt><trkpt lat="45.1277983" lon="7.673425"><ele>231.0</ele><time>2026-05-01T08:17:20.262Z</time></trkpt><trkpt lat="45.1277533" lon="7.6729917"><ele>232.0</ele><time>2026-05-01T08:17:21.262Z</time></trkpt><trkpt lat="45.127715" lon="7.67256"><ele>233.5</ele><time>2026-05-01T08:17:22.262Z</time></trkpt><trkpt lat="45.1276817" lon="7.672125"><ele>235.0</ele><time>2026-05-01T08:17:23.262Z</time></trkpt><trkpt lat="45.1276433" lon="7.6716917"><ele>235.0</ele><time>2026-05-01T08:17:24.262Z</time></trkpt><trkpt lat="45.1275983" lon="7.671255"><ele>235.0</ele><time>2026-05-01T08:17:25.262Z</time></trkpt><trkpt lat="45.1275583" lon="7.6708167"><ele>236.0</ele><time>2026-05-01T08:17:26.262Z</time></trkpt><trkpt lat="45.127515" lon="7.6703783"><ele>237.0</ele><time>2026-05-01T08:17:27.261Z</time></trkpt><trkpt lat="45.127475" lon="7.66995"><ele>237.0</ele><time>2026-05-01T08:17:28.262Z</time></trkpt><trkpt lat="45.12743" lon="7.669515"><ele>237.0</ele><time>2026-05-01T08:17:29.262Z</time></trkpt><trkpt lat="45.1273917" lon="7.6690817"><ele>236.0</ele><time>2026-05-01T08:17:30.261Z</time></trkpt><trkpt lat="45.127355" lon="7.66865"><ele>235.0</ele><time>2026-05-01T08:17:31.261Z</time></trkpt><trkpt lat="45.1273217" lon="7.6682117"><ele>234.5</ele><time>2026-05-01T08:17:32.262Z</time></trkpt><trkpt lat="45.1272917" lon="7.6677733"><ele>234.0</ele><time>2026-05-01T08:17:33.262Z</time></trkpt><trkpt lat="45.1272567" lon="7.6673483"><ele>235.0</ele><time>2026-05-01T08:17:34.261Z</time></trkpt><trkpt lat="45.1272267" lon="7.666935"><ele>236.0</ele><time>2026-05-01T08:17:35.262Z</time></trkpt><trkpt lat="45.1272017" lon="7.6665367"><ele>236.0</ele><time>2026-05-01T08:17:36.262Z</time></trkpt><trkpt lat="45.127165" lon="7.66614"><ele>236.0</ele><time>2026-05-01T08:17:37.262Z</time></trkpt><trkpt lat="45.12714" lon="7.6657433"><ele>236.0</ele><time>2026-05-01T08:17:38.261Z</time></trkpt><trkpt lat="45.12711" lon="7.6653383"><ele>236.0</ele><time>2026-05-01T08:17:39.262Z</time></trkpt><trkpt lat="45.1270833" lon="7.6649367"><ele>236.0</ele><time>2026-05-01T08:17:40.262Z</time></trkpt><trkpt lat="45.1270467" lon="7.664515"><ele>236.0</ele><time>2026-05-01T08:17:41.262Z</time></trkpt><trkpt lat="45.1270133" lon="7.6640917"><ele>236.5</ele><time>2026-05-01T08:17:42.262Z</time></trkpt><trkpt lat="45.1269867" lon="7.6636767"><ele>237.0</ele><time>2026-05-01T08:17:43.262Z</time></trkpt><trkpt lat="45.1269583" lon="7.6632567"><ele>237.5</ele><time>2026-05-01T08:17:44.261Z</time></trkpt><trkpt lat="45.126925" lon="7.6628383"><ele>238.0</ele><time>2026-05-01T08:17:45.261Z</time></trkpt><trkpt lat="45.12689" lon="7.6624217"><ele>238.0</ele><time>2026-05-01T08:17:46.261Z</time></trkpt><trkpt lat="45.1268617" lon="7.66201"><ele>238.0</ele><time>2026-05-01T08:17:47.261Z</time></trkpt><trkpt lat="45.1268367" lon="7.661605"><ele>239.0</ele><time>2026-05-01T08:17:48.262Z</time></trkpt><trkpt lat="45.1268017" lon="7.6611967"><ele>240.0</ele><time>2026-05-01T08:17:49.262Z</time></trkpt><trkpt lat="45.1267767" lon="7.6608067"><ele>240.5</ele><time>2026-05-01T08:17:50.261Z</time></trkpt><trkpt lat="45.1267233" lon="7.660415"><ele>241.0</ele><time>2026-05-01T08:17:51.262Z</time></trkpt><trkpt lat="45.1266633" lon="7.66002"><ele>241.0</ele><time>2026-05-01T08:17:52.262Z</time></trkpt><trkpt lat="45.1265883" lon="7.65964"><ele>241.0</ele><time>2026-05-01T08:17:53.262Z</time></trkpt><trkpt lat="45.1264933" lon="7.65925"><ele>241.0</ele><time>2026-05-01T08:17:54.262Z</time></trkpt><trkpt lat="45.1264033" lon="7.6588733"><ele>241.0</ele><time>2026-05-01T08:17:55.262Z</time></trkpt><trkpt lat="45.1263133" lon="7.6585"><ele>241.0</ele><time>2026-05-01T08:17:56.262Z</time></trkpt><trkpt lat="45.1262267" lon="7.6581317"><ele>241.0</ele><time>2026-05-01T08:17:57.262Z</time></trkpt><trkpt lat="45.1261167" lon="7.65777"><ele>239.5</ele><time>2026-05-01T08:17:58.262Z</time></trkpt><trkpt lat="45.1259933" lon="7.6574217"><ele>238.0</ele><time>2026-05-01T08:17:59.262Z</time></trkpt><trkpt lat="45.125875" lon="7.6570717"><ele>238.0</ele><time>2026-05-01T08:18:00.262Z</time></trkpt><trkpt lat="45.1257517" lon="7.65673"><ele>238.0</ele><time>2026-05-01T08:18:01.262Z</time></trkpt><trkpt lat="45.125645" lon="7.65637"><ele>237.0</ele><time>2026-05-01T08:18:02.261Z</time></trkpt><trkpt lat="45.1255233" lon="7.6560033"><ele>236.0</ele><time>2026-05-01T08:18:03.262Z</time></trkpt><trkpt lat="45.1254033" lon="7.6556333"><ele>235.0</ele><time>2026-05-01T08:18:04.262Z</time></trkpt><trkpt lat="45.1252767" lon="7.6552583"><ele>234.0</ele><time>2026-05-01T08:18:05.261Z</time></trkpt><trkpt lat="45.125135" lon="7.6548733"><ele>234.0</ele><time>2026-05-01T08:18:06.262Z</time></trkpt><trkpt lat="45.1249983" lon="7.6544733"><ele>234.0</ele><time>2026-05-01T08:18:07.262Z</time></trkpt><trkpt lat="45.124875" lon="7.6540717"><ele>237.5</ele><time>2026-05-01T08:18:08.262Z</time></trkpt><trkpt lat="45.12474" lon="7.6536533"><ele>241.0</ele><time>2026-05-01T08:18:09.261Z</time></trkpt><trkpt lat="45.1246033" lon="7.6532433"><ele>244.5</ele><time>2026-05-01T08:18:10.262Z</time></trkpt><trkpt lat="45.12447" lon="7.652835"><ele>248.0</ele><time>2026-05-01T08:18:11.262Z</time></trkpt><trkpt lat="45.1243433" lon="7.6524483"><ele>249.5</ele><time>2026-05-01T08:18:12.262Z</time></trkpt><trkpt lat="45.1242133" lon="7.6520533"><ele>251.0</ele><time>2026-05-01T08:18:13.262Z</time></trkpt><trkpt lat="45.12408" lon="7.6516383"><ele>250.5</ele><time>2026-05-01T08:18:14.261Z</time></trkpt><trkpt lat="45.1239467" lon="7.6512167"><ele>250.0</ele><time>2026-05-01T08:18:15.262Z</time></trkpt><trkpt lat="45.1238167" lon="7.6507917"><ele>250.0</ele><time>2026-05-01T08:18:16.261Z</time></trkpt><trkpt lat="45.1236917" lon="7.65036"><ele>250.0</ele><time>2026-05-01T08:18:17.262Z</time></trkpt><trkpt lat="45.123565" lon="7.649925"><ele>250.0</ele><time>2026-05-01T08:18:18.261Z</time></trkpt><trkpt lat="45.1234317" lon="7.6494883"><ele>250.0</ele><time>2026-05-01T08:18:19.261Z</time></trkpt><trkpt lat="45.1232883" lon="7.649065"><ele>250.5</ele><time>2026-05-01T08:18:20.262Z</time></trkpt><trkpt lat="45.1231517" lon="7.6486433"><ele>251.0</ele><time>2026-05-01T08:18:21.262Z</time></trkpt><trkpt lat="45.123015" lon="7.64822"><ele>251.0</ele><time>2026-05-01T08:18:22.262Z</time></trkpt><trkpt lat="45.1228767" lon="7.6478"><ele>251.0</ele><time>2026-05-01T08:18:23.261Z</time></trkpt><trkpt lat="45.12273" lon="7.6473667"><ele>252.0</ele><time>2026-05-01T08:18:24.261Z</time></trkpt><trkpt lat="45.1225917" lon="7.64694"><ele>253.0</ele><time>2026-05-01T08:18:25.262Z</time></trkpt><trkpt lat="45.1224567" lon="7.6465233"><ele>254.0</ele><time>2026-05-01T08:18:26.262Z</time></trkpt><trkpt lat="45.1223217" lon="7.6461017"><ele>255.0</ele><time>2026-05-01T08:18:27.261Z</time></trkpt><trkpt lat="45.1221883" lon="7.6456817"><ele>253.0</ele><time>2026-05-01T08:18:28.262Z</time></trkpt><trkpt lat="45.1220533" lon="7.6452633"><ele>251.0</ele><time>2026-05-01T08:18:29.262Z</time></trkpt><trkpt lat="45.12192" lon="7.644845"><ele>251.0</ele><time>2026-05-01T08:18:30.261Z</time></trkpt><trkpt lat="45.1217867" lon="7.6444267"><ele>251.0</ele><time>2026-05-01T08:18:31.261Z</time></trkpt><trkpt lat="45.12165" lon="7.644"><ele>253.5</ele><time>2026-05-01T08:18:32.262Z</time></trkpt><trkpt lat="45.1215133" lon="7.6435767"><ele>256.0</ele><time>2026-05-01T08:18:33.262Z</time></trkpt><trkpt lat="45.1213867" lon="7.6431583"><ele>254.5</ele><time>2026-05-01T08:18:34.262Z</time></trkpt><trkpt lat="45.121265" lon="7.6427383"><ele>253.0</ele><time>2026-05-01T08:18:35.262Z</time></trkpt><trkpt lat="45.1211333" lon="7.6423317"><ele>253.0</ele><time>2026-05-01T08:18:36.262Z</time></trkpt><trkpt lat="45.1210183" lon="7.6419383"><ele>253.0</ele><time>2026-05-01T08:18:37.262Z</time></trkpt><trkpt lat="45.1208967" lon="7.641565"><ele>253.0</ele><time>2026-05-01T08:18:38.262Z</time></trkpt><trkpt lat="45.1207783" lon="7.6412017"><ele>253.0</ele><time>2026-05-01T08:18:39.262Z</time></trkpt><trkpt lat="45.12066" lon="7.6408617"><ele>253.5</ele><time>2026-05-01T08:18:40.262Z</time></trkpt><trkpt lat="45.12055" lon="7.6405133"><ele>254.0</ele><time>2026-05-01T08:18:41.262Z</time></trkpt><trkpt lat="45.1204417" lon="7.64016"><ele>254.5</ele><time>2026-05-01T08:18:42.262Z</time></trkpt><trkpt lat="45.1203233" lon="7.639785"><ele>255.0</ele><time>2026-05-01T08:18:43.262Z</time></trkpt><trkpt lat="45.1201967" lon="7.6394083"><ele>255.0</ele><time>2026-05-01T08:18:44.262Z</time></trkpt><trkpt lat="45.1200683" lon="7.6390117"><ele>255.0</ele><time>2026-05-01T08:18:45.262Z</time></trkpt><trkpt lat="45.1199467" lon="7.6386067"><ele>255.5</ele><time>2026-05-01T08:18:46.262Z</time></trkpt><trkpt lat="45.11982" lon="7.6382033"><ele>256.0</ele><time>2026-05-01T08:18:47.261Z</time></trkpt><trkpt lat="45.1196883" lon="7.63779"><ele>257.0</ele><time>2026-05-01T08:18:48.262Z</time></trkpt><trkpt lat="45.1195533" lon="7.63737"><ele>258.0</ele><time>2026-05-01T08:18:49.262Z</time></trkpt><trkpt lat="45.119415" lon="7.6369483"><ele>258.5</ele><time>2026-05-01T08:18:50.262Z</time></trkpt><trkpt lat="45.1192717" lon="7.6365283"><ele>259.0</ele><time>2026-05-01T08:18:51.262Z</time></trkpt><trkpt lat="45.1191283" lon="7.636105"><ele>258.5</ele><time>2026-05-01T08:18:52.262Z</time></trkpt><trkpt lat="45.119" lon="7.63568"><ele>258.0</ele><time>2026-05-01T08:18:53.261Z</time></trkpt><trkpt lat="45.1188667" lon="7.63525"><ele>258.0</ele><time>2026-05-01T08:18:54.262Z</time></trkpt><trkpt lat="45.1187333" lon="7.6348233"><ele>258.0</ele><time>2026-05-01T08:18:55.262Z</time></trkpt><trkpt lat="45.118595" lon="7.6343967"><ele>259.0</ele><time>2026-05-01T08:18:56.262Z</time></trkpt><trkpt lat="45.1184517" lon="7.6339717"><ele>260.0</ele><time>2026-05-01T08:18:57.261Z</time></trkpt><trkpt lat="45.118315" lon="7.6335483"><ele>260.0</ele><time>2026-05-01T08:18:58.261Z</time></trkpt><trkpt lat="45.118175" lon="7.63313"><ele>260.0</ele><time>2026-05-01T08:18:59.261Z</time></trkpt><trkpt lat="45.1180333" lon="7.6327217"><ele>261.0</ele><time>2026-05-01T08:19:00.262Z</time></trkpt><trkpt lat="45.1179017" lon="7.6323183"><ele>262.0</ele><time>2026-05-01T08:19:01.261Z</time></trkpt><trkpt lat="45.11777" lon="7.6319167"><ele>263.0</ele><time>2026-05-01T08:19:02.262Z</time></trkpt><trkpt lat="45.1176333" lon="7.6315017"><ele>264.0</ele><time>2026-05-01T08:19:03.262Z</time></trkpt><trkpt lat="45.1174983" lon="7.63109"><ele>264.0</ele><time>2026-05-01T08:19:04.261Z</time></trkpt><trkpt lat="45.11736" lon="7.6306733"><ele>264.0</ele><time>2026-05-01T08:19:05.262Z</time></trkpt><trkpt lat="45.1172283" lon="7.630255"><ele>264.0</ele><time>2026-05-01T08:19:06.262Z</time></trkpt><trkpt lat="45.1171" lon="7.62984"><ele>264.0</ele><time>2026-05-01T08:19:07.262Z</time></trkpt><trkpt lat="45.1169717" lon="7.6294217"><ele>263.5</ele><time>2026-05-01T08:19:08.262Z</time></trkpt><trkpt lat="45.1168417" lon="7.6290133"><ele>263.0</ele><time>2026-05-01T08:19:09.261Z</time></trkpt><trkpt lat="45.1167083" lon="7.628605"><ele>263.5</ele><time>2026-05-01T08:19:10.262Z</time></trkpt><trkpt lat="45.11657" lon="7.6282033"><ele>264.0</ele><time>2026-05-01T08:19:11.261Z</time></trkpt><trkpt lat="45.11644" lon="7.6277883"><ele>264.0</ele><time>2026-05-01T08:19:12.262Z</time></trkpt><trkpt lat="45.116305" lon="7.6273733"><ele>264.0</ele><time>2026-05-01T08:19:13.261Z</time></trkpt><trkpt lat="45.1161683" lon="7.6269617"><ele>264.0</ele><time>2026-05-01T08:19:14.261Z</time></trkpt><trkpt lat="45.11603" lon="7.6265433"><ele>264.0</ele><time>2026-05-01T08:19:15.262Z</time></trkpt><trkpt lat="45.1158817" lon="7.6261317"><ele>263.5</ele><time>2026-05-01T08:19:16.262Z</time></trkpt><trkpt lat="45.1157267" lon="7.62573"><ele>263.0</ele><time>2026-05-01T08:19:17.262Z</time></trkpt><trkpt lat="45.1155717" lon="7.62532"><ele>263.0</ele><time>2026-05-01T08:19:18.262Z</time></trkpt><trkpt lat="45.1154167" lon="7.62491"><ele>263.0</ele><time>2026-05-01T08:19:19.262Z</time></trkpt><trkpt lat="45.11526" lon="7.6244983"><ele>265.0</ele><time>2026-05-01T08:19:20.262Z</time></trkpt><trkpt lat="45.1150967" lon="7.6241033"><ele>267.0</ele><time>2026-05-01T08:19:21.262Z</time></trkpt><trkpt lat="45.11494" lon="7.6237117"><ele>267.0</ele><time>2026-05-01T08:19:22.262Z</time></trkpt><trkpt lat="45.1147883" lon="7.6233417"><ele>267.0</ele><time>2026-05-01T08:19:23.262Z</time></trkpt><trkpt lat="45.1146367" lon="7.6229883"><ele>267.5</ele><time>2026-05-01T08:19:24.262Z</time></trkpt><trkpt lat="45.114465" lon="7.6226383"><ele>268.0</ele><time>2026-05-01T08:19:25.262Z</time></trkpt><trkpt lat="45.1142967" lon="7.6222767"><ele>269.0</ele><time>2026-05-01T08:19:26.261Z</time></trkpt><trkpt lat="45.1141217" lon="7.6219117"><ele>270.0</ele><time>2026-05-01T08:19:27.261Z</time></trkpt><trkpt lat="45.1139417" lon="7.621545"><ele>270.0</ele><time>2026-05-01T08:19:28.262Z</time></trkpt><trkpt lat="45.1137733" lon="7.6211767"><ele>270.0</ele><time>2026-05-01T08:19:29.261Z</time></trkpt><trkpt lat="45.1136017" lon="7.6208233"><ele>270.0</ele><time>2026-05-01T08:19:30.262Z</time></trkpt><trkpt lat="45.1134433" lon="7.6204733"><ele>270.0</ele><time>2026-05-01T08:19:31.262Z</time></trkpt><trkpt lat="45.1132967" lon="7.6201233"><ele>270.0</ele><time>2026-05-01T08:19:32.262Z</time></trkpt><trkpt lat="45.1131467" lon="7.6197783"><ele>270.0</ele><time>2026-05-01T08:19:33.262Z</time></trkpt><trkpt lat="45.1129867" lon="7.6194433"><ele>271.0</ele><time>2026-05-01T08:19:34.262Z</time></trkpt><trkpt lat="45.11283" lon="7.6191017"><ele>272.0</ele><time>2026-05-01T08:19:35.261Z</time></trkpt><trkpt lat="45.11267" lon="7.6187617"><ele>272.0</ele><time>2026-05-01T08:19:36.261Z</time></trkpt><trkpt lat="45.1125083" lon="7.61841"><ele>272.0</ele><time>2026-05-01T08:19:37.262Z</time></trkpt><trkpt lat="45.1123317" lon="7.6180583"><ele>272.5</ele><time>2026-05-01T08:19:38.262Z</time></trkpt><trkpt lat="45.1121717" lon="7.61771"><ele>273.0</ele><time>2026-05-01T08:19:39.262Z</time></trkpt><trkpt lat="45.1120117" lon="7.6173583"><ele>273.0</ele><time>2026-05-01T08:19:40.262Z</time></trkpt><trkpt lat="45.111845" lon="7.6170133"><ele>273.0</ele><time>2026-05-01T08:19:41.261Z</time></trkpt><trkpt lat="45.1116867" lon="7.61668"><ele>273.0</ele><time>2026-05-01T08:19:42.261Z</time></trkpt><trkpt lat="45.1115283" lon="7.6163583"><ele>273.0</ele><time>2026-05-01T08:19:43.262Z</time></trkpt><trkpt lat="45.1113783" lon="7.6160433"><ele>273.0</ele><time>2026-05-01T08:19:44.262Z</time></trkpt><trkpt lat="45.11123" lon="7.6157317"><ele>273.0</ele><time>2026-05-01T08:19:45.262Z</time></trkpt><trkpt lat="45.1110717" lon="7.61541"><ele>273.5</ele><time>2026-05-01T08:19:46.262Z</time></trkpt><trkpt lat="45.1109217" lon="7.615075"><ele>274.0</ele><time>2026-05-01T08:19:47.262Z</time></trkpt><trkpt lat="45.1107633" lon="7.6147417"><ele>273.5</ele><time>2026-05-01T08:19:48.262Z</time></trkpt><trkpt lat="45.110605" lon="7.614405"><ele>273.0</ele><time>2026-05-01T08:19:49.262Z</time></trkpt><trkpt lat="45.1104383" lon="7.6140667"><ele>273.0</ele><time>2026-05-01T08:19:50.261Z</time></trkpt><trkpt lat="45.1102767" lon="7.6137117"><ele>273.0</ele><time>2026-05-01T08:19:51.262Z</time></trkpt><trkpt lat="45.1100983" lon="7.613355"><ele>273.5</ele><time>2026-05-01T08:19:52.262Z</time></trkpt><trkpt lat="45.10994" lon="7.613"><ele>274.0</ele><time>2026-05-01T08:19:53.262Z</time></trkpt><trkpt lat="45.1097783" lon="7.6126383"><ele>274.5</ele><time>2026-05-01T08:19:54.261Z</time></trkpt><trkpt lat="45.109605" lon="7.612265"><ele>275.0</ele><time>2026-05-01T08:19:55.261Z</time></trkpt><trkpt lat="45.109425" lon="7.6118933"><ele>274.0</ele><time>2026-05-01T08:19:56.262Z</time></trkpt><trkpt lat="45.1092383" lon="7.6115317"><ele>273.0</ele><time>2026-05-01T08:19:57.262Z</time></trkpt><trkpt lat="45.109065" lon="7.61117"><ele>272.0</ele><time>2026-05-01T08:19:58.262Z</time></trkpt><trkpt lat="45.108895" lon="7.6108117"><ele>271.0</ele><time>2026-05-01T08:19:59.262Z</time></trkpt><trkpt lat="45.1087267" lon="7.6104533"><ele>272.0</ele><time>2026-05-01T08:20:00.262Z</time></trkpt><trkpt lat="45.1085617" lon="7.6101"><ele>273.0</ele><time>2026-05-01T08:20:01.262Z</time></trkpt><trkpt lat="45.1083983" lon="7.609735"><ele>274.0</ele><time>2026-05-01T08:20:02.261Z</time></trkpt><trkpt lat="45.10822" lon="7.6093683"><ele>275.0</ele><time>2026-05-01T08:20:03.262Z</time></trkpt><trkpt lat="45.10805" lon="7.609"><ele>274.0</ele><time>2026-05-01T08:20:04.262Z</time></trkpt><trkpt lat="45.1078667" lon="7.608625"><ele>273.0</ele><time>2026-05-01T08:20:05.262Z</time></trkpt><trkpt lat="45.1076933" lon="7.60825"><ele>273.0</ele><time>2026-05-01T08:20:06.262Z</time></trkpt><trkpt lat="45.10752" lon="7.6078867"><ele>273.0</ele><time>2026-05-01T08:20:07.261Z</time></trkpt><trkpt lat="45.1073533" lon="7.6075233"><ele>273.0</ele><time>2026-05-01T08:20:08.261Z</time></trkpt><trkpt lat="45.1071933" lon="7.6071567"><ele>273.0</ele><time>2026-05-01T08:20:09.261Z</time></trkpt><trkpt lat="45.107035" lon="7.6067833"><ele>273.0</ele><time>2026-05-01T08:20:10.262Z</time></trkpt><trkpt lat="45.1068783" lon="7.6064117"><ele>273.0</ele><time>2026-05-01T08:20:11.262Z</time></trkpt><trkpt lat="45.10672" lon="7.6060433"><ele>275.5</ele><time>2026-05-01T08:20:12.262Z</time></trkpt><trkpt lat="45.1065767" lon="7.605685"><ele>278.0</ele><time>2026-05-01T08:20:13.262Z</time></trkpt><trkpt lat="45.10644" lon="7.60535"><ele>277.5</ele><time>2026-05-01T08:20:14.261Z</time></trkpt><trkpt lat="45.10631" lon="7.6050117"><ele>277.0</ele><time>2026-05-01T08:20:15.262Z</time></trkpt><trkpt lat="45.106185" lon="7.6046767"><ele>277.0</ele><time>2026-05-01T08:20:16.262Z</time></trkpt><trkpt lat="45.1060617" lon="7.6043433"><ele>277.0</ele><time>2026-05-01T08:20:17.261Z</time></trkpt><trkpt lat="45.1059317" lon="7.604005"><ele>277.5</ele><time>2026-05-01T08:20:18.262Z</time></trkpt><trkpt lat="45.1058233" lon="7.603655"><ele>278.0</ele><time>2026-05-01T08:20:19.262Z</time></trkpt><trkpt lat="45.1057067" lon="7.6032967"><ele>277.5</ele><time>2026-05-01T08:20:20.262Z</time></trkpt><trkpt lat="45.1056" lon="7.60295"><ele>277.0</ele><time>2026-05-01T08:20:21.262Z</time></trkpt><trkpt lat="45.10549" lon="7.6026017"><ele>277.0</ele><time>2026-05-01T08:20:22.262Z</time></trkpt><trkpt lat="45.10539" lon="7.6022517"><ele>277.0</ele><time>2026-05-01T08:20:23.261Z</time></trkpt><trkpt lat="45.1052933" lon="7.6019"><ele>277.0</ele><time>2026-05-01T08:20:24.262Z</time></trkpt><trkpt lat="45.1051867" lon="7.6015317"><ele>277.0</ele><time>2026-05-01T08:20:25.262Z</time></trkpt><trkpt lat="45.1050883" lon="7.601165"><ele>278.0</ele><time>2026-05-01T08:20:26.262Z</time></trkpt><trkpt lat="45.10501" lon="7.6008217"><ele>279.0</ele><time>2026-05-01T08:20:27.261Z</time></trkpt><trkpt lat="45.1049233" lon="7.60048"><ele>278.5</ele><time>2026-05-01T08:20:28.262Z</time></trkpt><trkpt lat="45.1048333" lon="7.600145"><ele>278.0</ele><time>2026-05-01T08:20:29.262Z</time></trkpt><trkpt lat="45.10474" lon="7.5997967"><ele>279.0</ele><time>2026-05-01T08:20:30.262Z</time></trkpt><trkpt lat="45.1046433" lon="7.5994567"><ele>280.0</ele><time>2026-05-01T08:20:31.262Z</time></trkpt><trkpt lat="45.1045467" lon="7.5991117"><ele>280.0</ele><time>2026-05-01T08:20:32.261Z</time></trkpt><trkpt lat="45.104445" lon="7.5987667"><ele>280.0</ele><time>2026-05-01T08:20:33.261Z</time></trkpt><trkpt lat="45.1043467" lon="7.59842"><ele>281.0</ele><time>2026-05-01T08:20:34.261Z</time></trkpt><trkpt lat="45.1042433" lon="7.59808"><ele>282.0</ele><time>2026-05-01T08:20:35.261Z</time></trkpt><trkpt lat="45.104145" lon="7.597735"><ele>281.0</ele><time>2026-05-01T08:20:36.262Z</time></trkpt><trkpt lat="45.1040533" lon="7.59739"><ele>280.0</ele><time>2026-05-01T08:20:37.262Z</time></trkpt><trkpt lat="45.1039617" lon="7.597045"><ele>281.0</ele><time>2026-05-01T08:20:38.262Z</time></trkpt><trkpt lat="45.1038683" lon="7.5967"><ele>282.0</ele><time>2026-05-01T08:20:39.261Z</time></trkpt><trkpt lat="45.1037717" lon="7.5963483"><ele>282.5</ele><time>2026-05-01T08:20:40.262Z</time></trkpt><trkpt lat="45.1036767" lon="7.5959867"><ele>283.0</ele><time>2026-05-01T08:20:41.262Z</time></trkpt><trkpt lat="45.103575" lon="7.5956167"><ele>282.5</ele><time>2026-05-01T08:20:42.262Z</time></trkpt><trkpt lat="45.1034733" lon="7.595245"><ele>282.0</ele><time>2026-05-01T08:20:43.262Z</time></trkpt><trkpt lat="45.1033733" lon="7.5948617"><ele>282.5</ele><time>2026-05-01T08:20:44.262Z</time></trkpt><trkpt lat="45.103265" lon="7.59448"><ele>283.0</ele><time>2026-05-01T08:20:45.262Z</time></trkpt><trkpt lat="45.1031617" lon="7.5940983"><ele>283.0</ele><time>2026-05-01T08:20:46.262Z</time></trkpt><trkpt lat="45.1030583" lon="7.5937267"><ele>283.0</ele><time>2026-05-01T08:20:47.261Z</time></trkpt><trkpt lat="45.1029533" lon="7.5933617"><ele>283.0</ele><time>2026-05-01T08:20:48.262Z</time></trkpt><trkpt lat="45.10285" lon="7.5929983"><ele>283.0</ele><time>2026-05-01T08:20:49.262Z</time></trkpt><trkpt lat="45.1027533" lon="7.592635"><ele>283.0</ele><time>2026-05-01T08:20:50.262Z</time></trkpt><trkpt lat="45.1026567" lon="7.5922833"><ele>283.0</ele><time>2026-05-01T08:20:51.261Z</time></trkpt><trkpt lat="45.1025583" lon="7.5919183"><ele>284.0</ele><time>2026-05-01T08:20:52.262Z</time></trkpt><trkpt lat="45.1024567" lon="7.591545"><ele>285.0</ele><time>2026-05-01T08:20:53.262Z</time></trkpt><trkpt lat="45.1023567" lon="7.5911583"><ele>285.0</ele><time>2026-05-01T08:20:54.262Z</time></trkpt><trkpt lat="45.1022517" lon="7.5907767"><ele>285.0</ele><time>2026-05-01T08:20:55.261Z</time></trkpt><trkpt lat="45.1021383" lon="7.5903867"><ele>283.5</ele><time>2026-05-01T08:20:56.261Z</time></trkpt><trkpt lat="45.1020217" lon="7.58999"><ele>282.0</ele><time>2026-05-01T08:20:57.262Z</time></trkpt><trkpt lat="45.1019083" lon="7.5895933"><ele>283.0</ele><time>2026-05-01T08:20:58.262Z</time></trkpt><trkpt lat="45.1017967" lon="7.5891883"><ele>284.0</ele><time>2026-05-01T08:20:59.262Z</time></trkpt><trkpt lat="45.101685" lon="7.5887817"><ele>285.0</ele><time>2026-05-01T08:21:00.262Z</time></trkpt><trkpt lat="45.10158" lon="7.588385"><ele>286.0</ele><time>2026-05-01T08:21:01.262Z</time></trkpt><trkpt lat="45.1014767" lon="7.58798"><ele>286.0</ele><time>2026-05-01T08:21:02.262Z</time></trkpt><trkpt lat="45.1013683" lon="7.587565"><ele>286.0</ele><time>2026-05-01T08:21:03.262Z</time></trkpt><trkpt lat="45.1012417" lon="7.5871533"><ele>286.5</ele><time>2026-05-01T08:21:04.262Z</time></trkpt><trkpt lat="45.101125" lon="7.5867317"><ele>287.0</ele><time>2026-05-01T08:21:05.261Z</time></trkpt><trkpt lat="45.10101" lon="7.5863133"><ele>287.0</ele><time>2026-05-01T08:21:06.261Z</time></trkpt><trkpt lat="45.1008967" lon="7.5858883"><ele>287.0</ele><time>2026-05-01T08:21:07.262Z</time></trkpt><trkpt lat="45.1007867" lon="7.5854817"><ele>287.0</ele><time>2026-05-01T08:21:08.262Z</time></trkpt><trkpt lat="45.10066" lon="7.5850517"><ele>287.0</ele><time>2026-05-01T08:21:09.262Z</time></trkpt><trkpt lat="45.1005483" lon="7.5846467"><ele>286.5</ele><time>2026-05-01T08:21:10.261Z</time></trkpt><trkpt lat="45.1004283" lon="7.5842133"><ele>286.0</ele><time>2026-05-01T08:21:11.262Z</time></trkpt><trkpt lat="45.1003133" lon="7.5837983"><ele>287.0</ele><time>2026-05-01T08:21:12.261Z</time></trkpt><trkpt lat="45.1001917" lon="7.583365"><ele>288.0</ele><time>2026-05-01T08:21:13.262Z</time></trkpt><trkpt lat="45.1000783" lon="7.5829517"><ele>288.5</ele><time>2026-05-01T08:21:14.262Z</time></trkpt><trkpt lat="45.0999683" lon="7.5825333"><ele>289.0</ele><time>2026-05-01T08:21:15.262Z</time></trkpt><trkpt lat="45.0998533" lon="7.5821117"><ele>288.5</ele><time>2026-05-01T08:21:16.262Z</time></trkpt><trkpt lat="45.0997383" lon="7.5817017"><ele>288.0</ele><time>2026-05-01T08:21:17.261Z</time></trkpt><trkpt lat="45.09962" lon="7.581295"><ele>289.0</ele><time>2026-05-01T08:21:18.262Z</time></trkpt><trkpt lat="45.099505" lon="7.580885"><ele>290.0</ele><time>2026-05-01T08:21:19.261Z</time></trkpt><trkpt lat="45.0993983" lon="7.5804933"><ele>291.0</ele><time>2026-05-01T08:21:20.261Z</time></trkpt><trkpt lat="45.09929" lon="7.5800967"><ele>292.0</ele><time>2026-05-01T08:21:21.262Z</time></trkpt><trkpt lat="45.09919" lon="7.5797083"><ele>292.0</ele><time>2026-05-01T08:21:22.262Z</time></trkpt><trkpt lat="45.0990733" lon="7.5793333"><ele>292.0</ele><time>2026-05-01T08:21:23.262Z</time></trkpt><trkpt lat="45.0989717" lon="7.578965"><ele>293.0</ele><time>2026-05-01T08:21:24.262Z</time></trkpt><trkpt lat="45.098865" lon="7.5786067"><ele>294.0</ele><time>2026-05-01T08:21:25.262Z</time></trkpt><trkpt lat="45.0987517" lon="7.5782367"><ele>294.0</ele><time>2026-05-01T08:21:26.262Z</time></trkpt><trkpt lat="45.0986667" lon="7.5778567"><ele>294.0</ele><time>2026-05-01T08:21:27.262Z</time></trkpt><trkpt lat="45.09857" lon="7.5774833"><ele>294.5</ele><time>2026-05-01T08:21:28.262Z</time></trkpt><trkpt lat="45.0984533" lon="7.5771167"><ele>295.0</ele><time>2026-05-01T08:21:29.261Z</time></trkpt><trkpt lat="45.098335" lon="7.57676"><ele>294.5</ele><time>2026-05-01T08:21:30.261Z</time></trkpt><trkpt lat="45.0982117" lon="7.576395"><ele>294.0</ele><time>2026-05-01T08:21:31.261Z</time></trkpt><trkpt lat="45.09808" lon="7.57605"><ele>295.0</ele><time>2026-05-01T08:21:32.262Z</time></trkpt><trkpt lat="45.097925" lon="7.5756917"><ele>296.0</ele><time>2026-05-01T08:21:33.262Z</time></trkpt><trkpt lat="45.0977667" lon="7.575335"><ele>296.0</ele><time>2026-05-01T08:21:34.261Z</time></trkpt><trkpt lat="45.0976083" lon="7.574995"><ele>296.0</ele><time>2026-05-01T08:21:35.262Z</time></trkpt><trkpt lat="45.0974483" lon="7.5746617"><ele>296.0</ele><time>2026-05-01T08:21:36.262Z</time></trkpt><trkpt lat="45.0972867" lon="7.57434"><ele>296.0</ele><time>2026-05-01T08:21:37.262Z</time></trkpt><trkpt lat="45.0971067" lon="7.5740333"><ele>296.0</ele><time>2026-05-01T08:21:38.262Z</time></trkpt><trkpt lat="45.0969383" lon="7.5737417"><ele>296.0</ele><time>2026-05-01T08:21:39.262Z</time></trkpt><trkpt lat="45.09677" lon="7.5734717"><ele>296.0</ele><time>2026-05-01T08:21:40.261Z</time></trkpt><trkpt lat="45.0966017" lon="7.5731883"><ele>296.0</ele><time>2026-05-01T08:21:41.262Z</time></trkpt><trkpt lat="45.0964033" lon="7.572925"><ele>297.0</ele><time>2026-05-01T08:21:42.262Z</time></trkpt><trkpt lat="45.0962167" lon="7.572665"><ele>298.0</ele><time>2026-05-01T08:21:43.262Z</time></trkpt><trkpt lat="45.096015" lon="7.572405"><ele>298.0</ele><time>2026-05-01T08:21:44.262Z</time></trkpt><trkpt lat="45.0958067" lon="7.5721467"><ele>298.0</ele><time>2026-05-01T08:21:45.262Z</time></trkpt><trkpt lat="45.0955933" lon="7.571875"><ele>297.5</ele><time>2026-05-01T08:21:46.261Z</time></trkpt><trkpt lat="45.09538" lon="7.5716017"><ele>297.0</ele><time>2026-05-01T08:21:47.262Z</time></trkpt><trkpt lat="45.0951617" lon="7.5713317"><ele>298.0</ele><time>2026-05-01T08:21:48.262Z</time></trkpt><trkpt lat="45.0949483" lon="7.5710633"><ele>299.0</ele><time>2026-05-01T08:21:49.262Z</time></trkpt><trkpt lat="45.0947267" lon="7.5707883"><ele>299.0</ele><time>2026-05-01T08:21:50.261Z</time></trkpt><trkpt lat="45.0945" lon="7.5705117"><ele>299.0</ele><time>2026-05-01T08:21:51.262Z</time></trkpt><trkpt lat="45.09428" lon="7.5702333"><ele>300.0</ele><time>2026-05-01T08:21:52.262Z</time></trkpt><trkpt lat="45.094055" lon="7.569955"><ele>301.0</ele><time>2026-05-01T08:21:53.261Z</time></trkpt><trkpt lat="45.093825" lon="7.5696733"><ele>301.5</ele><time>2026-05-01T08:21:54.262Z</time></trkpt><trkpt lat="45.0935917" lon="7.569385"><ele>302.0</ele><time>2026-05-01T08:21:55.261Z</time></trkpt><trkpt lat="45.0933517" lon="7.5690917"><ele>300.5</ele><time>2026-05-01T08:21:56.262Z</time></trkpt><trkpt lat="45.0931117" lon="7.5687933"><ele>299.0</ele><time>2026-05-01T08:21:57.261Z</time></trkpt><trkpt lat="45.0928767" lon="7.568495"><ele>299.0</ele><time>2026-05-01T08:21:58.262Z</time></trkpt><trkpt lat="45.09263" lon="7.5681983"><ele>299.0</ele><time>2026-05-01T08:21:59.262Z</time></trkpt><trkpt lat="45.0923917" lon="7.5678933"><ele>298.0</ele><time>2026-05-01T08:22:00.261Z</time></trkpt><trkpt lat="45.0921583" lon="7.56759"><ele>297.0</ele><time>2026-05-01T08:22:01.262Z</time></trkpt><trkpt lat="45.09193" lon="7.5672833"><ele>298.0</ele><time>2026-05-01T08:22:02.261Z</time></trkpt><trkpt lat="45.091705" lon="7.5669833"><ele>299.0</ele><time>2026-05-01T08:22:03.262Z</time></trkpt><trkpt lat="45.0914717" lon="7.5666817"><ele>297.0</ele><time>2026-05-01T08:22:04.261Z</time></trkpt><trkpt lat="45.09124" lon="7.5663833"><ele>295.0</ele><time>2026-05-01T08:22:05.262Z</time></trkpt><trkpt lat="45.0910133" lon="7.566085"><ele>294.5</ele><time>2026-05-01T08:22:06.261Z</time></trkpt><trkpt lat="45.0907883" lon="7.5657867"><ele>294.0</ele><time>2026-05-01T08:22:07.262Z</time></trkpt><trkpt lat="45.09056" lon="7.5655067"><ele>293.5</ele><time>2026-05-01T08:22:08.262Z</time></trkpt><trkpt lat="45.090335" lon="7.56523"><ele>293.0</ele><time>2026-05-01T08:22:09.262Z</time></trkpt><trkpt lat="45.0901167" lon="7.5649467"><ele>292.5</ele><time>2026-05-01T08:22:10.262Z</time></trkpt><trkpt lat="45.0898867" lon="7.564675"><ele>292.0</ele><time>2026-05-01T08:22:11.261Z</time></trkpt><trkpt lat="45.08968" lon="7.5644017"><ele>293.0</ele><time>2026-05-01T08:22:12.262Z</time></trkpt><trkpt lat="45.08945" lon="7.5641483"><ele>294.0</ele><time>2026-05-01T08:22:13.262Z</time></trkpt><trkpt lat="45.0892367" lon="7.5638733"><ele>293.5</ele><time>2026-05-01T08:22:14.262Z</time></trkpt><trkpt lat="45.08902" lon="7.56361"><ele>293.0</ele><time>2026-05-01T08:22:15.262Z</time></trkpt><trkpt lat="45.08882" lon="7.563345"><ele>293.0</ele><time>2026-05-01T08:22:16.262Z</time></trkpt><trkpt lat="45.0886283" lon="7.5630917"><ele>293.0</ele><time>2026-05-01T08:22:17.262Z</time></trkpt><trkpt lat="45.08844" lon="7.5628567"><ele>295.0</ele><time>2026-05-01T08:22:18.262Z</time></trkpt><trkpt lat="45.08825" lon="7.5626367"><ele>297.0</ele><time>2026-05-01T08:22:19.262Z</time></trkpt><trkpt lat="45.0880767" lon="7.5624117"><ele>297.0</ele><time>2026-05-01T08:22:20.262Z</time></trkpt><trkpt lat="45.087905" lon="7.5621933"><ele>297.0</ele><time>2026-05-01T08:22:21.261Z</time></trkpt><trkpt lat="45.0877367" lon="7.5619633"><ele>297.3333333333333</ele><time>2026-05-01T08:22:22.262Z</time></trkpt><trkpt lat="45.087575" lon="7.5617433"><ele>297.66666666666663</ele><time>2026-05-01T08:22:23.262Z</time></trkpt><trkpt lat="45.0874133" lon="7.5615283"><ele>298.0</ele><time>2026-05-01T08:22:24.262Z</time></trkpt><trkpt lat="45.0872533" lon="7.5613133"><ele>302.0</ele><time>2026-05-01T08:22:25.262Z</time></trkpt><trkpt lat="45.08709" lon="7.561095"><ele>306.0</ele><time>2026-05-01T08:22:26.261Z</time></trkpt><trkpt lat="45.0869267" lon="7.560875"><ele>306.0</ele><time>2026-05-01T08:22:27.261Z</time></trkpt><trkpt lat="45.08676" lon="7.56067"><ele>306.0</ele><time>2026-05-01T08:22:28.261Z</time></trkpt><trkpt lat="45.0866033" lon="7.56048"><ele>306.0</ele><time>2026-05-01T08:22:29.262Z</time></trkpt><trkpt lat="45.086465" lon="7.5602933"><ele>307.6666666666667</ele><time>2026-05-01T08:22:30.261Z</time></trkpt><trkpt lat="45.0863167" lon="7.5601217"><ele>309.33333333333337</ele><time>2026-05-01T08:22:31.262Z</time></trkpt><trkpt lat="45.0861717" lon="7.5599333"><ele>311.0</ele><time>2026-05-01T08:22:32.262Z</time></trkpt><trkpt lat="45.08602" lon="7.5597483"><ele>311.0</ele><time>2026-05-01T08:22:33.261Z</time></trkpt><trkpt lat="45.0858467" lon="7.55956"><ele>311.0</ele><time>2026-05-01T08:22:34.262Z</time></trkpt><trkpt lat="45.085695" lon="7.5593583"><ele>311.0</ele><time>2026-05-01T08:22:35.262Z</time></trkpt><trkpt lat="45.0855633" lon="7.559165"><ele>312.0</ele><time>2026-05-01T08:22:36.262Z</time></trkpt><trkpt lat="45.085415" lon="7.5589767"><ele>313.0</ele><time>2026-05-01T08:22:37.262Z</time></trkpt><trkpt lat="45.0852717" lon="7.5587783"><ele>314.0</ele><time>2026-05-01T08:22:38.262Z</time></trkpt><trkpt lat="45.0851283" lon="7.55859"><ele>314.0</ele><time>2026-05-01T08:22:39.262Z</time></trkpt><trkpt lat="45.084985" lon="7.5584067"><ele>314.0</ele><time>2026-05-01T08:22:40.262Z</time></trkpt><trkpt lat="45.0848467" lon="7.5582383"><ele>314.0</ele><time>2026-05-01T08:22:41.262Z</time></trkpt><trkpt lat="45.0847183" lon="7.5580783"><ele>313.75</ele><time>2026-05-01T08:22:42.262Z</time></trkpt><trkpt lat="45.0845967" lon="7.5579383"><ele>313.5</ele><time>2026-05-01T08:22:43.261Z</time></trkpt><trkpt lat="45.084495" lon="7.5578183"><ele>313.25</ele><time>2026-05-01T08:22:44.262Z</time></trkpt><trkpt lat="45.084395" lon="7.5576767"><ele>313.0</ele><time>2026-05-01T08:22:45.261Z</time></trkpt><trkpt lat="45.08428" lon="7.5575417"><ele>313.0</ele><time>2026-05-01T08:22:46.261Z</time></trkpt><trkpt lat="45.0841717" lon="7.5574033"><ele>313.0</ele><time>2026-05-01T08:22:47.262Z</time></trkpt><trkpt lat="45.0840567" lon="7.557245"><ele>313.0</ele><time>2026-05-01T08:22:48.261Z</time></trkpt><trkpt lat="45.0839333" lon="7.5570917"><ele>313.66666666666663</ele><time>2026-05-01T08:22:49.262Z</time></trkpt><trkpt lat="45.0838133" lon="7.5569367"><ele>314.3333333333333</ele><time>2026-05-01T08:22:50.262Z</time></trkpt><trkpt lat="45.0836967" lon="7.5567667"><ele>315.0</ele><time>2026-05-01T08:22:51.261Z</time></trkpt><trkpt lat="45.0835667" lon="7.556595"><ele>315.0</ele><time>2026-05-01T08:22:52.262Z</time></trkpt><trkpt lat="45.0834367" lon="7.5564067"><ele>315.0</ele><time>2026-05-01T08:22:53.261Z</time></trkpt><trkpt lat="45.08332" lon="7.5562067"><ele>315.0</ele><time>2026-05-01T08:22:54.262Z</time></trkpt><trkpt lat="45.0832117" lon="7.5559967"><ele>315.6666666666667</ele><time>2026-05-01T08:22:55.261Z</time></trkpt><trkpt lat="45.0830933" lon="7.5557817"><ele>316.33333333333337</ele><time>2026-05-01T08:22:56.261Z</time></trkpt><trkpt lat="45.0829717" lon="7.555565"><ele>317.0</ele><time>2026-05-01T08:22:57.262Z</time></trkpt><trkpt lat="45.0828467" lon="7.5553433"><ele>317.0</ele><time>2026-05-01T08:22:58.261Z</time></trkpt><trkpt lat="45.0827267" lon="7.5551233"><ele>317.0</ele><time>2026-05-01T08:22:59.261Z</time></trkpt><trkpt lat="45.082615" lon="7.5548983"><ele>317.0</ele><time>2026-05-01T08:23:00.262Z</time></trkpt><trkpt lat="45.082505" lon="7.55467"><ele>316.33333333333337</ele><time>2026-05-01T08:23:01.261Z</time></trkpt><trkpt lat="45.0823917" lon="7.55444"><ele>315.6666666666667</ele><time>2026-05-01T08:23:02.262Z</time></trkpt><trkpt lat="45.082295" lon="7.5542217"><ele>315.0</ele><time>2026-05-01T08:23:03.262Z</time></trkpt><trkpt lat="45.082205" lon="7.5539983"><ele>315.0</ele><time>2026-05-01T08:23:04.262Z</time></trkpt><trkpt lat="45.0821167" lon="7.55378"><ele>315.0</ele><time>2026-05-01T08:23:05.262Z</time></trkpt><trkpt lat="45.0820317" lon="7.5535633"><ele>315.0</ele><time>2026-05-01T08:23:06.262Z</time></trkpt><trkpt lat="45.0819483" lon="7.5533267"><ele>315.3333333333333</ele><time>2026-05-01T08:23:07.261Z</time></trkpt><trkpt lat="45.0818633" lon="7.5530833"><ele>315.66666666666663</ele><time>2026-05-01T08:23:08.261Z</time></trkpt><trkpt lat="45.0817917" lon="7.552815"><ele>316.0</ele><time>2026-05-01T08:23:09.262Z</time></trkpt><trkpt lat="45.0817283" lon="7.5525433"><ele>317.3333333333333</ele><time>2026-05-01T08:23:10.262Z</time></trkpt><trkpt lat="45.0816733" lon="7.552285"><ele>318.6666666666667</ele><time>2026-05-01T08:23:11.261Z</time></trkpt><trkpt lat="45.08161" lon="7.552025"><ele>320.0</ele><time>2026-05-01T08:23:12.262Z</time></trkpt><trkpt lat="45.0815517" lon="7.5517733"><ele>318.33333333333337</ele><time>2026-05-01T08:23:13.262Z</time></trkpt><trkpt lat="45.081495" lon="7.55153"><ele>316.6666666666667</ele><time>2026-05-01T08:23:14.262Z</time></trkpt><trkpt lat="45.0814283" lon="7.55128"><ele>315.0</ele><time>2026-05-01T08:23:15.261Z</time></trkpt><trkpt lat="45.0813717" lon="7.5510333"><ele>315.0</ele><time>2026-05-01T08:23:16.262Z</time></trkpt><trkpt lat="45.08132" lon="7.5507717"><ele>315.0</ele><time>2026-05-01T08:23:17.262Z</time></trkpt><trkpt lat="45.0812683" lon="7.5504833"><ele>315.0</ele><time>2026-05-01T08:23:18.262Z</time></trkpt><trkpt lat="45.08122" lon="7.5501767"><ele>317.5</ele><time>2026-05-01T08:23:19.262Z</time></trkpt><trkpt lat="45.0811783" lon="7.5498333"><ele>320.0</ele><time>2026-05-01T08:23:20.262Z</time></trkpt><trkpt lat="45.0811233" lon="7.5494933"><ele>321.0</ele><time>2026-05-01T08:23:21.262Z</time></trkpt><trkpt lat="45.0810733" lon="7.5491683"><ele>322.0</ele><time>2026-05-01T08:23:22.262Z</time></trkpt><trkpt lat="45.08104" lon="7.54885"><ele>321.5</ele><time>2026-05-01T08:23:23.262Z</time></trkpt><trkpt lat="45.081015" lon="7.5485267"><ele>321.0</ele><time>2026-05-01T08:23:24.262Z</time></trkpt><trkpt lat="45.080995" lon="7.54821"><ele>321.0</ele><time>2026-05-01T08:23:25.261Z</time></trkpt><trkpt lat="45.0809933" lon="7.5479067"><ele>321.0</ele><time>2026-05-01T08:23:26.261Z</time></trkpt><trkpt lat="45.0809883" lon="7.5475883"><ele>321.0</ele><time>2026-05-01T08:23:27.262Z</time></trkpt><trkpt lat="45.080995" lon="7.5472717"><ele>321.6666666666667</ele><time>2026-05-01T08:23:28.261Z</time></trkpt><trkpt lat="45.08101" lon="7.5469683"><ele>322.33333333333337</ele><time>2026-05-01T08:23:29.262Z</time></trkpt><trkpt lat="45.0810367" lon="7.5466567"><ele>323.0</ele><time>2026-05-01T08:23:30.262Z</time></trkpt><trkpt lat="45.0810717" lon="7.546355"><ele>322.33333333333337</ele><time>2026-05-01T08:23:31.262Z</time></trkpt><trkpt lat="45.081115" lon="7.5460417"><ele>321.6666666666667</ele><time>2026-05-01T08:23:32.262Z</time></trkpt><trkpt lat="45.0811617" lon="7.54574"><ele>321.0</ele><time>2026-05-01T08:23:33.262Z</time></trkpt><trkpt lat="45.0812133" lon="7.5454317"><ele>322.0</ele><time>2026-05-01T08:23:34.262Z</time></trkpt><trkpt lat="45.0812667" lon="7.545125"><ele>323.0</ele><time>2026-05-01T08:23:35.261Z</time></trkpt><trkpt lat="45.081325" lon="7.5448083"><ele>324.5</ele><time>2026-05-01T08:23:36.261Z</time></trkpt><trkpt lat="45.0813817" lon="7.544495"><ele>326.0</ele><time>2026-05-01T08:23:37.262Z</time></trkpt><trkpt lat="45.0814367" lon="7.5441883"><ele>326.0</ele><time>2026-05-01T08:23:38.262Z</time></trkpt><trkpt lat="45.0814983" lon="7.54389"><ele>326.0</ele><time>2026-05-01T08:23:39.262Z</time></trkpt><trkpt lat="45.0815667" lon="7.5436017"><ele>326.0</ele><time>2026-05-01T08:23:40.262Z</time></trkpt><trkpt lat="45.0816333" lon="7.5433233"><ele>326.33333333333337</ele><time>2026-05-01T08:23:41.262Z</time></trkpt><trkpt lat="45.0816883" lon="7.543055"><ele>326.6666666666667</ele><time>2026-05-01T08:23:42.262Z</time></trkpt><trkpt lat="45.081755" lon="7.5428117"><ele>327.0</ele><time>2026-05-01T08:23:43.262Z</time></trkpt><trkpt lat="45.0818183" lon="7.5425867"><ele>327.6666666666667</ele><time>2026-05-01T08:23:44.262Z</time></trkpt><trkpt lat="45.0818733" lon="7.5423633"><ele>328.33333333333337</ele><time>2026-05-01T08:23:45.262Z</time></trkpt><trkpt lat="45.08194" lon="7.54215"><ele>329.0</ele><time>2026-05-01T08:23:46.262Z</time></trkpt><trkpt lat="45.0820133" lon="7.5419267"><ele>329.5</ele><time>2026-05-01T08:23:47.262Z</time></trkpt><trkpt lat="45.08207" lon="7.5417167"><ele>330.0</ele><time>2026-05-01T08:23:48.262Z</time></trkpt><trkpt lat="45.0821217" lon="7.5415283"><ele>330.5</ele><time>2026-05-01T08:23:49.262Z</time></trkpt><trkpt lat="45.08216" lon="7.5413567"><ele>331.0</ele><time>2026-05-01T08:23:50.262Z</time></trkpt><trkpt lat="45.082195" lon="7.5412167"><ele>331.4</ele><time>2026-05-01T08:23:51.262Z</time></trkpt><trkpt lat="45.0822283" lon="7.54111"><ele>331.8</ele><time>2026-05-01T08:23:52.262Z</time></trkpt><trkpt lat="45.0822767" lon="7.540975"><ele>332.2</ele><time>2026-05-01T08:23:54.261Z</time></trkpt><trkpt lat="45.082305" lon="7.54088"><ele>332.59999999999997</ele><time>2026-05-01T08:23:56.262Z</time></trkpt><trkpt lat="45.0823717" lon="7.5407083"><ele>333.0</ele><time>2026-05-01T08:23:58.262Z</time></trkpt><trkpt lat="45.0824017" lon="7.54058"><ele>331.5</ele><time>2026-05-01T08:23:59.262Z</time></trkpt><trkpt lat="45.082445" lon="7.540425"><ele>330.0</ele><time>2026-05-01T08:24:00.261Z</time></trkpt><trkpt lat="45.082515" lon="7.5402283"><ele>328.5</ele><time>2026-05-01T08:24:01.262Z</time></trkpt><trkpt lat="45.0825683" lon="7.5400433"><ele>327.0</ele><time>2026-05-01T08:24:02.261Z</time></trkpt><trkpt lat="45.0826183" lon="7.5398617"><ele>326.5</ele><time>2026-05-01T08:24:03.262Z</time></trkpt><trkpt lat="45.0826717" lon="7.5396733"><ele>326.0</ele><time>2026-05-01T08:24:04.262Z</time></trkpt><trkpt lat="45.0827283" lon="7.539485"><ele>325.5</ele><time>2026-05-01T08:24:05.262Z</time></trkpt><trkpt lat="45.08279" lon="7.53929"><ele>325.0</ele><time>2026-05-01T08:24:06.261Z</time></trkpt><trkpt lat="45.0828683" lon="7.5390683"><ele>327.3333333333333</ele><time>2026-05-01T08:24:07.262Z</time></trkpt><trkpt lat="45.0829433" lon="7.5388233"><ele>329.6666666666667</ele><time>2026-05-01T08:24:08.262Z</time></trkpt><trkpt lat="45.083025" lon="7.5385533"><ele>332.0</ele><time>2026-05-01T08:24:09.262Z</time></trkpt><trkpt lat="45.0831233" lon="7.538255"><ele>333.0</ele><time>2026-05-01T08:24:10.262Z</time></trkpt><trkpt lat="45.08321" lon="7.5379467"><ele>334.0</ele><time>2026-05-01T08:24:11.262Z</time></trkpt><trkpt lat="45.0832967" lon="7.5376183"><ele>334.0</ele><time>2026-05-01T08:24:12.262Z</time></trkpt><trkpt lat="45.0833883" lon="7.5372783"><ele>334.0</ele><time>2026-05-01T08:24:13.262Z</time></trkpt><trkpt lat="45.083485" lon="7.5369233"><ele>334.0</ele><time>2026-05-01T08:24:14.262Z</time></trkpt><trkpt lat="45.0835667" lon="7.5365567"><ele>334.0</ele><time>2026-05-01T08:24:15.262Z</time></trkpt><trkpt lat="45.0836467" lon="7.5361783"><ele>337.5</ele><time>2026-05-01T08:24:16.262Z</time></trkpt><trkpt lat="45.0837233" lon="7.5357883"><ele>341.0</ele><time>2026-05-01T08:24:17.262Z</time></trkpt><trkpt lat="45.0837917" lon="7.535405"><ele>342.0</ele><time>2026-05-01T08:24:18.262Z</time></trkpt><trkpt lat="45.0838217" lon="7.5349867"><ele>343.0</ele><time>2026-05-01T08:24:19.262Z</time></trkpt><trkpt lat="45.083885" lon="7.5345883"><ele>342.5</ele><time>2026-05-01T08:24:20.262Z</time></trkpt><trkpt lat="45.083935" lon="7.534175"><ele>342.0</ele><time>2026-05-01T08:24:21.262Z</time></trkpt><trkpt lat="45.08398" lon="7.533765"><ele>339.0</ele><time>2026-05-01T08:24:22.262Z</time></trkpt><trkpt lat="45.08402" lon="7.5333617"><ele>336.0</ele><time>2026-05-01T08:24:23.262Z</time></trkpt><trkpt lat="45.08405" lon="7.53295"><ele>337.0</ele><time>2026-05-01T08:24:24.261Z</time></trkpt><trkpt lat="45.0840783" lon="7.53254"><ele>338.0</ele><time>2026-05-01T08:24:25.262Z</time></trkpt><trkpt lat="45.08409" lon="7.5321267"><ele>340.0</ele><time>2026-05-01T08:24:26.262Z</time></trkpt><trkpt lat="45.0841" lon="7.53172"><ele>342.0</ele><time>2026-05-01T08:24:27.262Z</time></trkpt><trkpt lat="45.0841033" lon="7.5313183"><ele>342.5</ele><time>2026-05-01T08:24:28.261Z</time></trkpt><trkpt lat="45.0841133" lon="7.5309067"><ele>343.0</ele><time>2026-05-01T08:24:29.262Z</time></trkpt><trkpt lat="45.084115" lon="7.5304683"><ele>343.5</ele><time>2026-05-01T08:24:30.262Z</time></trkpt><trkpt lat="45.08412" lon="7.5300517"><ele>344.0</ele><time>2026-05-01T08:24:31.261Z</time></trkpt><trkpt lat="45.084125" lon="7.5296367"><ele>345.0</ele><time>2026-05-01T08:24:32.261Z</time></trkpt><trkpt lat="45.0841283" lon="7.5292183"><ele>346.0</ele><time>2026-05-01T08:24:33.262Z</time></trkpt><trkpt lat="45.084145" lon="7.5287917"><ele>347.0</ele><time>2026-05-01T08:24:34.262Z</time></trkpt><trkpt lat="45.0841683" lon="7.5283583"><ele>348.0</ele><time>2026-05-01T08:24:35.262Z</time></trkpt><trkpt lat="45.0841967" lon="7.5279267"><ele>348.5</ele><time>2026-05-01T08:24:36.262Z</time></trkpt><trkpt lat="45.0842167" lon="7.5274883"><ele>349.0</ele><time>2026-05-01T08:24:37.262Z</time></trkpt><trkpt lat="45.084235" lon="7.52705"><ele>349.0</ele><time>2026-05-01T08:24:38.262Z</time></trkpt><trkpt lat="45.08426" lon="7.5266233"><ele>349.0</ele><time>2026-05-01T08:24:39.261Z</time></trkpt><trkpt lat="45.0842867" lon="7.5261883"><ele>349.5</ele><time>2026-05-01T08:24:40.262Z</time></trkpt><trkpt lat="45.0843083" lon="7.5257683"><ele>350.0</ele><time>2026-05-01T08:24:41.262Z</time></trkpt><trkpt lat="45.0843317" lon="7.52532"><ele>350.5</ele><time>2026-05-01T08:24:42.262Z</time></trkpt><trkpt lat="45.08436" lon="7.524865"><ele>351.0</ele><time>2026-05-01T08:24:43.262Z</time></trkpt><trkpt lat="45.0843983" lon="7.52441"><ele>351.0</ele><time>2026-05-01T08:24:44.262Z</time></trkpt><trkpt lat="45.084425" lon="7.52394"><ele>351.0</ele><time>2026-05-01T08:24:45.262Z</time></trkpt><trkpt lat="45.0844483" lon="7.5234567"><ele>351.0</ele><time>2026-05-01T08:24:46.262Z</time></trkpt><trkpt lat="45.0844767" lon="7.522985"><ele>351.0</ele><time>2026-05-01T08:24:47.262Z</time></trkpt><trkpt lat="45.0845083" lon="7.52253"><ele>350.0</ele><time>2026-05-01T08:24:48.262Z</time></trkpt><trkpt lat="45.0845433" lon="7.5220733"><ele>349.0</ele><time>2026-05-01T08:24:49.262Z</time></trkpt><trkpt lat="45.0845783" lon="7.521615"><ele>346.5</ele><time>2026-05-01T08:24:50.262Z</time></trkpt><trkpt lat="45.0846133" lon="7.5211467"><ele>344.0</ele><time>2026-05-01T08:24:51.262Z</time></trkpt><trkpt lat="45.084645" lon="7.5206883"><ele>344.5</ele><time>2026-05-01T08:24:52.262Z</time></trkpt><trkpt lat="45.0846717" lon="7.5202233"><ele>345.0</ele><time>2026-05-01T08:24:53.262Z</time></trkpt><trkpt lat="45.08468" lon="7.519765"><ele>346.0</ele><time>2026-05-01T08:24:54.262Z</time></trkpt><trkpt lat="45.0846867" lon="7.5193117"><ele>347.0</ele><time>2026-05-01T08:24:55.262Z</time></trkpt><trkpt lat="45.0846817" lon="7.5188583"><ele>346.0</ele><time>2026-05-01T08:24:56.261Z</time></trkpt><trkpt lat="45.084655" lon="7.5184"><ele>345.0</ele><time>2026-05-01T08:24:57.262Z</time></trkpt><trkpt lat="45.08462" lon="7.51795"><ele>344.5</ele><time>2026-05-01T08:24:58.262Z</time></trkpt><trkpt lat="45.0845783" lon="7.5175067"><ele>344.0</ele><time>2026-05-01T08:24:59.262Z</time></trkpt><trkpt lat="45.0845317" lon="7.5170583"><ele>344.0</ele><time>2026-05-01T08:25:00.262Z</time></trkpt><trkpt lat="45.0844617" lon="7.5166333"><ele>344.0</ele><time>2026-05-01T08:25:01.261Z</time></trkpt><trkpt lat="45.0843783" lon="7.5161967"><ele>346.5</ele><time>2026-05-01T08:25:02.261Z</time></trkpt><trkpt lat="45.08428" lon="7.5157717"><ele>349.0</ele><time>2026-05-01T08:25:03.262Z</time></trkpt><trkpt lat="45.0841717" lon="7.5153433"><ele>347.5</ele><time>2026-05-01T08:25:04.262Z</time></trkpt><trkpt lat="45.08406" lon="7.514925"><ele>346.0</ele><time>2026-05-01T08:25:05.262Z</time></trkpt><trkpt lat="45.083945" lon="7.5145067"><ele>346.0</ele><time>2026-05-01T08:25:06.262Z</time></trkpt><trkpt lat="45.08383" lon="7.5140983"><ele>346.0</ele><time>2026-05-01T08:25:07.262Z</time></trkpt><trkpt lat="45.0837233" lon="7.5136883"><ele>346.5</ele><time>2026-05-01T08:25:08.261Z</time></trkpt><trkpt lat="45.08362" lon="7.5132833"><ele>347.0</ele><time>2026-05-01T08:25:09.262Z</time></trkpt><trkpt lat="45.083525" lon="7.51288"><ele>347.5</ele><time>2026-05-01T08:25:10.262Z</time></trkpt><trkpt lat="45.0834217" lon="7.51247"><ele>348.0</ele><time>2026-05-01T08:25:11.261Z</time></trkpt><trkpt lat="45.0833267" lon="7.5120667"><ele>348.0</ele><time>2026-05-01T08:25:12.261Z</time></trkpt><trkpt lat="45.08322" lon="7.51166"><ele>348.0</ele><time>2026-05-01T08:25:13.261Z</time></trkpt><trkpt lat="45.0831167" lon="7.5112483"><ele>347.5</ele><time>2026-05-01T08:25:14.262Z</time></trkpt><trkpt lat="45.0830117" lon="7.510825"><ele>347.0</ele><time>2026-05-01T08:25:15.262Z</time></trkpt><trkpt lat="45.08292" lon="7.5104017"><ele>348.0</ele><time>2026-05-01T08:25:16.261Z</time></trkpt><trkpt lat="45.08283" lon="7.5099733"><ele>349.0</ele><time>2026-05-01T08:25:17.262Z</time></trkpt><trkpt lat="45.0827433" lon="7.5095467"><ele>349.5</ele><time>2026-05-01T08:25:18.261Z</time></trkpt><trkpt lat="45.082655" lon="7.50912"><ele>350.0</ele><time>2026-05-01T08:25:19.262Z</time></trkpt><trkpt lat="45.08258" lon="7.5086917"><ele>350.5</ele><time>2026-05-01T08:25:20.261Z</time></trkpt><trkpt lat="45.0825117" lon="7.5082667"><ele>351.0</ele><time>2026-05-01T08:25:21.262Z</time></trkpt><trkpt lat="45.0824333" lon="7.5078333"><ele>352.5</ele><time>2026-05-01T08:25:22.262Z</time></trkpt><trkpt lat="45.08236" lon="7.50738"><ele>354.0</ele><time>2026-05-01T08:25:23.262Z</time></trkpt><trkpt lat="45.08228" lon="7.5069383"><ele>354.5</ele><time>2026-05-01T08:25:24.262Z</time></trkpt><trkpt lat="45.0821883" lon="7.5064983"><ele>355.0</ele><time>2026-05-01T08:25:25.262Z</time></trkpt><trkpt lat="45.082105" lon="7.5060717"><ele>356.0</ele><time>2026-05-01T08:25:26.261Z</time></trkpt><trkpt lat="45.082015" lon="7.5056483"><ele>357.0</ele><time>2026-05-01T08:25:27.262Z</time></trkpt><trkpt lat="45.081945" lon="7.5052267"><ele>357.5</ele><time>2026-05-01T08:25:28.262Z</time></trkpt><trkpt lat="45.081865" lon="7.5048183"><ele>358.0</ele><time>2026-05-01T08:25:29.262Z</time></trkpt><trkpt lat="45.0817983" lon="7.5044433"><ele>358.5</ele><time>2026-05-01T08:25:30.262Z</time></trkpt><trkpt lat="45.081745" lon="7.5040917"><ele>359.0</ele><time>2026-05-01T08:25:31.262Z</time></trkpt><trkpt lat="45.0816867" lon="7.5037567"><ele>359.5</ele><time>2026-05-01T08:25:32.262Z</time></trkpt><trkpt lat="45.08163" lon="7.5034083"><ele>360.0</ele><time>2026-05-01T08:25:33.262Z</time></trkpt><trkpt lat="45.081575" lon="7.5030517"><ele>360.5</ele><time>2026-05-01T08:25:34.262Z</time></trkpt><trkpt lat="45.081515" lon="7.5026817"><ele>361.0</ele><time>2026-05-01T08:25:35.262Z</time></trkpt><trkpt lat="45.0814517" lon="7.5022967"><ele>360.0</ele><time>2026-05-01T08:25:36.261Z</time></trkpt><trkpt lat="45.0813917" lon="7.5019167"><ele>359.0</ele><time>2026-05-01T08:25:37.262Z</time></trkpt><trkpt lat="45.0813267" lon="7.5015533"><ele>359.5</ele><time>2026-05-01T08:25:38.262Z</time></trkpt><trkpt lat="45.0812533" lon="7.5011983"><ele>360.0</ele><time>2026-05-01T08:25:39.262Z</time></trkpt><trkpt lat="45.0811883" lon="7.5008633"><ele>360.0</ele><time>2026-05-01T08:25:40.262Z</time></trkpt><trkpt lat="45.0811367" lon="7.50054"><ele>360.0</ele><time>2026-05-01T08:25:41.262Z</time></trkpt><trkpt lat="45.0810867" lon="7.50024"><ele>359.3333333333333</ele><time>2026-05-01T08:25:42.262Z</time></trkpt><trkpt lat="45.081045" lon="7.4999417"><ele>358.66666666666663</ele><time>2026-05-01T08:25:43.261Z</time></trkpt><trkpt lat="45.081005" lon="7.499655"><ele>358.0</ele><time>2026-05-01T08:25:44.261Z</time></trkpt><trkpt lat="45.0809667" lon="7.4993583"><ele>358.0</ele><time>2026-05-01T08:25:45.262Z</time></trkpt><trkpt lat="45.0809267" lon="7.4990683"><ele>358.0</ele><time>2026-05-01T08:25:46.261Z</time></trkpt><trkpt lat="45.0808867" lon="7.498785"><ele>358.0</ele><time>2026-05-01T08:25:47.262Z</time></trkpt><trkpt lat="45.0808983" lon="7.4985083"><ele>358.66666666666663</ele><time>2026-05-01T08:25:48.262Z</time></trkpt><trkpt lat="45.08088" lon="7.4982333"><ele>359.3333333333333</ele><time>2026-05-01T08:25:49.261Z</time></trkpt><trkpt lat="45.08086" lon="7.4979583"><ele>360.0</ele><time>2026-05-01T08:25:50.262Z</time></trkpt><trkpt lat="45.08084" lon="7.497685"><ele>330.0</ele><time>2026-05-01T08:25:51.262Z</time></trkpt><trkpt lat="45.0866783" lon="7.4878067"><ele>330.0</ele><time>2026-05-01T08:26:27.259Z</time></trkpt><trkpt lat="45.086715" lon="7.48768"><ele>330.0</ele><time>2026-05-01T08:26:28.259Z</time></trkpt><trkpt lat="45.0868617" lon="7.4874033"><ele>330.0</ele><time>2026-05-01T08:26:29.259Z</time></trkpt><trkpt lat="45.0870117" lon="7.487115"><ele>329.5</ele><time>2026-05-01T08:26:30.259Z</time></trkpt><trkpt lat="45.0871317" lon="7.4867833"><ele>329.0</ele><time>2026-05-01T08:26:31.259Z</time></trkpt><trkpt lat="45.08728" lon="7.486495"><ele>328.5</ele><time>2026-05-01T08:26:32.259Z</time></trkpt><trkpt lat="45.0874133" lon="7.486185"><ele>328.0</ele><time>2026-05-01T08:26:33.258Z</time></trkpt><trkpt lat="45.08754" lon="7.4858583"><ele>328.0</ele><time>2026-05-01T08:26:34.259Z</time></trkpt><trkpt lat="45.0876533" lon="7.4855183"><ele>328.0</ele><time>2026-05-01T08:26:35.258Z</time></trkpt><trkpt lat="45.087765" lon="7.4851817"><ele>328.0</ele><time>2026-05-01T08:26:36.259Z</time></trkpt><trkpt lat="45.087855" lon="7.48482"><ele>328.0</ele><time>2026-05-01T08:26:37.258Z</time></trkpt><trkpt lat="45.0879367" lon="7.484475"><ele>327.5</ele><time>2026-05-01T08:26:38.259Z</time></trkpt><trkpt lat="45.0880083" lon="7.4841283"><ele>327.0</ele><time>2026-05-01T08:26:39.258Z</time></trkpt><trkpt lat="45.0880733" lon="7.4837683"><ele>325.5</ele><time>2026-05-01T08:26:40.259Z</time></trkpt><trkpt lat="45.0881283" lon="7.4834083"><ele>324.0</ele><time>2026-05-01T08:26:41.259Z</time></trkpt><trkpt lat="45.0881683" lon="7.483045"><ele>324.0</ele><time>2026-05-01T08:26:42.259Z</time></trkpt><trkpt lat="45.0882067" lon="7.4826667"><ele>324.0</ele><time>2026-05-01T08:26:43.259Z</time></trkpt><trkpt lat="45.0882483" lon="7.4822933"><ele>325.5</ele><time>2026-05-01T08:26:44.259Z</time></trkpt><trkpt lat="45.08829" lon="7.4819283"><ele>327.0</ele><time>2026-05-01T08:26:45.258Z</time></trkpt><trkpt lat="45.0883233" lon="7.481525"><ele>326.0</ele><time>2026-05-01T08:26:46.259Z</time></trkpt><trkpt lat="45.08835" lon="7.481105"><ele>325.0</ele><time>2026-05-01T08:26:47.259Z</time></trkpt><trkpt lat="45.0883733" lon="7.48068"><ele>325.0</ele><time>2026-05-01T08:26:48.259Z</time></trkpt><trkpt lat="45.0884083" lon="7.480245"><ele>325.0</ele><time>2026-05-01T08:26:49.259Z</time></trkpt><trkpt lat="45.0884433" lon="7.4798067"><ele>327.0</ele><time>2026-05-01T08:26:50.259Z</time></trkpt><trkpt lat="45.08848" lon="7.4793383"><ele>329.0</ele><time>2026-05-01T08:26:51.259Z</time></trkpt><trkpt lat="45.0885233" lon="7.478885"><ele>329.0</ele><time>2026-05-01T08:26:52.259Z</time></trkpt><trkpt lat="45.0885467" lon="7.478395"><ele>329.0</ele><time>2026-05-01T08:26:53.259Z</time></trkpt><trkpt lat="45.0885867" lon="7.4779183"><ele>329.0</ele><time>2026-05-01T08:26:54.259Z</time></trkpt><trkpt lat="45.088615" lon="7.47744"><ele>329.0</ele><time>2026-05-01T08:26:55.259Z</time></trkpt><trkpt lat="45.0886533" lon="7.4769767"><ele>329.0</ele><time>2026-05-01T08:26:56.259Z</time></trkpt><trkpt lat="45.088695" lon="7.47651"><ele>329.0</ele><time>2026-05-01T08:26:57.259Z</time></trkpt><trkpt lat="45.0887383" lon="7.4760467"><ele>329.0</ele><time>2026-05-01T08:26:58.258Z</time></trkpt><trkpt lat="45.0887783" lon="7.4756"><ele>329.0</ele><time>2026-05-01T08:26:59.258Z</time></trkpt><trkpt lat="45.0888167" lon="7.4751567"><ele>329.0</ele><time>2026-05-01T08:27:00.258Z</time></trkpt><trkpt lat="45.0888417" lon="7.4747133"><ele>329.0</ele><time>2026-05-01T08:27:01.258Z</time></trkpt><trkpt lat="45.08887" lon="7.4742733"><ele>328.5</ele><time>2026-05-01T08:27:02.259Z</time></trkpt><trkpt lat="45.0889" lon="7.4738383"><ele>328.0</ele><time>2026-05-01T08:27:03.259Z</time></trkpt><trkpt lat="45.0889283" lon="7.473405"><ele>328.0</ele><time>2026-05-01T08:27:04.259Z</time></trkpt><trkpt lat="45.088965" lon="7.4729733"><ele>328.0</ele><time>2026-05-01T08:27:05.259Z</time></trkpt><trkpt lat="45.0889983" lon="7.4725433"><ele>326.5</ele><time>2026-05-01T08:27:06.259Z</time></trkpt><trkpt lat="45.08904" lon="7.472105"><ele>325.0</ele><time>2026-05-01T08:27:07.258Z</time></trkpt><trkpt lat="45.0890817" lon="7.4716783"><ele>326.5</ele><time>2026-05-01T08:27:08.259Z</time></trkpt><trkpt lat="45.0891067" lon="7.4712417"><ele>328.0</ele><time>2026-05-01T08:27:09.259Z</time></trkpt><trkpt lat="45.0891517" lon="7.4708133"><ele>329.0</ele><time>2026-05-01T08:27:10.258Z</time></trkpt><trkpt lat="45.0891933" lon="7.4703733"><ele>330.0</ele><time>2026-05-01T08:27:11.259Z</time></trkpt><trkpt lat="45.0892133" lon="7.4699317"><ele>330.0</ele><time>2026-05-01T08:27:12.258Z</time></trkpt><trkpt lat="45.0892483" lon="7.469485"><ele>330.0</ele><time>2026-05-01T08:27:13.259Z</time></trkpt><trkpt lat="45.089285" lon="7.4690417"><ele>329.5</ele><time>2026-05-01T08:27:14.258Z</time></trkpt><trkpt lat="45.0893183" lon="7.4686"><ele>329.0</ele><time>2026-05-01T08:27:15.259Z</time></trkpt><trkpt lat="45.0893517" lon="7.4681617"><ele>329.0</ele><time>2026-05-01T08:27:16.259Z</time></trkpt><trkpt lat="45.089385" lon="7.4677117"><ele>329.0</ele><time>2026-05-01T08:27:17.259Z</time></trkpt><trkpt lat="45.0894233" lon="7.4672617"><ele>328.0</ele><time>2026-05-01T08:27:18.258Z</time></trkpt><trkpt lat="45.08946" lon="7.4667933"><ele>327.0</ele><time>2026-05-01T08:27:19.258Z</time></trkpt><trkpt lat="45.0894983" lon="7.46634"><ele>327.5</ele><time>2026-05-01T08:27:20.259Z</time></trkpt><trkpt lat="45.0895267" lon="7.4658833"><ele>328.0</ele><time>2026-05-01T08:27:21.259Z</time></trkpt><trkpt lat="45.08956" lon="7.4654417"><ele>328.0</ele><time>2026-05-01T08:27:22.259Z</time></trkpt><trkpt lat="45.0895933" lon="7.4649933"><ele>328.0</ele><time>2026-05-01T08:27:23.258Z</time></trkpt><trkpt lat="45.08963" lon="7.4645467"><ele>327.5</ele><time>2026-05-01T08:27:24.259Z</time></trkpt><trkpt lat="45.0896567" lon="7.4641017"><ele>327.0</ele><time>2026-05-01T08:27:25.259Z</time></trkpt><trkpt lat="45.0896867" lon="7.463655"><ele>327.0</ele><time>2026-05-01T08:27:26.258Z</time></trkpt><trkpt lat="45.0897233" lon="7.4632133"><ele>327.0</ele><time>2026-05-01T08:27:27.258Z</time></trkpt><trkpt lat="45.08976" lon="7.462765"><ele>327.5</ele><time>2026-05-01T08:27:28.259Z</time></trkpt><trkpt lat="45.0897967" lon="7.4623083"><ele>328.0</ele><time>2026-05-01T08:27:29.259Z</time></trkpt><trkpt lat="45.0898367" lon="7.4618567"><ele>329.0</ele><time>2026-05-01T08:27:30.259Z</time></trkpt><trkpt lat="45.08988" lon="7.4614083"><ele>330.0</ele><time>2026-05-01T08:27:31.258Z</time></trkpt><trkpt lat="45.089915" lon="7.46096"><ele>330.0</ele><time>2026-05-01T08:27:32.258Z</time></trkpt><trkpt lat="45.0899517" lon="7.46051"><ele>330.0</ele><time>2026-05-01T08:27:33.259Z</time></trkpt><trkpt lat="45.0899883" lon="7.460085"><ele>330.0</ele><time>2026-05-01T08:27:34.259Z</time></trkpt><trkpt lat="45.0900167" lon="7.45966"><ele>330.0</ele><time>2026-05-01T08:27:35.258Z</time></trkpt><trkpt lat="45.0900433" lon="7.4592383"><ele>329.5</ele><time>2026-05-01T08:27:36.259Z</time></trkpt><trkpt lat="45.0900667" lon="7.45882"><ele>329.0</ele><time>2026-05-01T08:27:37.258Z</time></trkpt><trkpt lat="45.0900983" lon="7.4583783"><ele>329.5</ele><time>2026-05-01T08:27:38.258Z</time></trkpt><trkpt lat="45.09014" lon="7.4579467"><ele>330.0</ele><time>2026-05-01T08:27:39.259Z</time></trkpt><trkpt lat="45.0901767" lon="7.4575083"><ele>329.5</ele><time>2026-05-01T08:27:40.259Z</time></trkpt><trkpt lat="45.0901983" lon="7.4570617"><ele>329.0</ele><time>2026-05-01T08:27:41.259Z</time></trkpt><trkpt lat="45.09023" lon="7.4566133"><ele>329.5</ele><time>2026-05-01T08:27:42.258Z</time></trkpt><trkpt lat="45.0902617" lon="7.4561783"><ele>330.0</ele><time>2026-05-01T08:27:43.258Z</time></trkpt><trkpt lat="45.0903" lon="7.4557567"><ele>330.0</ele><time>2026-05-01T08:27:44.259Z</time></trkpt><trkpt lat="45.0903317" lon="7.455335"><ele>330.0</ele><time>2026-05-01T08:27:45.258Z</time></trkpt><trkpt lat="45.0903517" lon="7.454905"><ele>330.0</ele><time>2026-05-01T08:27:46.259Z</time></trkpt><trkpt lat="45.0903667" lon="7.45449"><ele>330.0</ele><time>2026-05-01T08:27:47.259Z</time></trkpt><trkpt lat="45.0903817" lon="7.4540717"><ele>330.0</ele><time>2026-05-01T08:27:48.259Z</time></trkpt><trkpt lat="45.090395" lon="7.453645"><ele>330.0</ele><time>2026-05-01T08:27:49.259Z</time></trkpt><trkpt lat="45.0904083" lon="7.4532283"><ele>330.0</ele><time>2026-05-01T08:27:50.259Z</time></trkpt><trkpt lat="45.0904033" lon="7.4528133"><ele>330.0</ele><time>2026-05-01T08:27:51.259Z</time></trkpt><trkpt lat="45.0904167" lon="7.452395"><ele>329.5</ele><time>2026-05-01T08:27:52.259Z</time></trkpt><trkpt lat="45.0904233" lon="7.4519817"><ele>329.0</ele><time>2026-05-01T08:27:53.259Z</time></trkpt><trkpt lat="45.0904233" lon="7.45157"><ele>328.5</ele><time>2026-05-01T08:27:54.258Z</time></trkpt><trkpt lat="45.0904083" lon="7.4511567"><ele>328.0</ele><time>2026-05-01T08:27:55.259Z</time></trkpt><trkpt lat="45.09041" lon="7.4507367"><ele>329.0</ele><time>2026-05-01T08:27:56.258Z</time></trkpt><trkpt lat="45.090415" lon="7.450325"><ele>330.0</ele><time>2026-05-01T08:27:57.259Z</time></trkpt><trkpt lat="45.0904183" lon="7.4499117"><ele>329.5</ele><time>2026-05-01T08:27:58.258Z</time></trkpt><trkpt lat="45.0904233" lon="7.4494983"><ele>329.0</ele><time>2026-05-01T08:27:59.259Z</time></trkpt><trkpt lat="45.0904367" lon="7.4490933"><ele>330.0</ele><time>2026-05-01T08:28:00.259Z</time></trkpt><trkpt lat="45.0904433" lon="7.4486833"><ele>331.0</ele><time>2026-05-01T08:28:01.258Z</time></trkpt><trkpt lat="45.0904483" lon="7.448275"><ele>330.5</ele><time>2026-05-01T08:28:02.258Z</time></trkpt><trkpt lat="45.0904517" lon="7.44786"><ele>330.0</ele><time>2026-05-01T08:28:03.258Z</time></trkpt><trkpt lat="45.0904517" lon="7.4474383"><ele>329.5</ele><time>2026-05-01T08:28:04.259Z</time></trkpt><trkpt lat="45.0904667" lon="7.4470267"><ele>329.0</ele><time>2026-05-01T08:28:05.258Z</time></trkpt><trkpt lat="45.0904517" lon="7.4466017"><ele>329.5</ele><time>2026-05-01T08:28:06.259Z</time></trkpt><trkpt lat="45.0904417" lon="7.4461833"><ele>330.0</ele><time>2026-05-01T08:28:07.259Z</time></trkpt><trkpt lat="45.0904383" lon="7.4457483"><ele>330.5</ele><time>2026-05-01T08:28:08.259Z</time></trkpt><trkpt lat="45.09042" lon="7.4453"><ele>331.0</ele><time>2026-05-01T08:28:09.259Z</time></trkpt><trkpt lat="45.0904167" lon="7.4448367"><ele>331.0</ele><time>2026-05-01T08:28:10.259Z</time></trkpt><trkpt lat="45.09042" lon="7.444395"><ele>331.0</ele><time>2026-05-01T08:28:11.259Z</time></trkpt><trkpt lat="45.09042" lon="7.443955"><ele>330.0</ele><time>2026-05-01T08:28:12.259Z</time></trkpt><trkpt lat="45.0904167" lon="7.443515"><ele>329.0</ele><time>2026-05-01T08:28:13.259Z</time></trkpt><trkpt lat="45.0904117" lon="7.4430767"><ele>329.5</ele><time>2026-05-01T08:28:14.259Z</time></trkpt><trkpt lat="45.0904" lon="7.4426467"><ele>330.0</ele><time>2026-05-01T08:28:15.259Z</time></trkpt><trkpt lat="45.090375" lon="7.44222"><ele>331.0</ele><time>2026-05-01T08:28:16.259Z</time></trkpt><trkpt lat="45.090345" lon="7.4418017"><ele>332.0</ele><time>2026-05-01T08:28:17.259Z</time></trkpt><trkpt lat="45.090305" lon="7.4413883"><ele>332.0</ele><time>2026-05-01T08:28:18.259Z</time></trkpt><trkpt lat="45.09027" lon="7.4409767"><ele>332.0</ele><time>2026-05-01T08:28:19.259Z</time></trkpt><trkpt lat="45.0902183" lon="7.4405717"><ele>332.0</ele><time>2026-05-01T08:28:20.259Z</time></trkpt><trkpt lat="45.0901583" lon="7.4401683"><ele>332.0</ele><time>2026-05-01T08:28:21.259Z</time></trkpt><trkpt lat="45.0901133" lon="7.4397567"><ele>331.5</ele><time>2026-05-01T08:28:22.258Z</time></trkpt><trkpt lat="45.0900683" lon="7.439345"><ele>331.0</ele><time>2026-05-01T08:28:23.258Z</time></trkpt><trkpt lat="45.09002" lon="7.4389317"><ele>330.5</ele><time>2026-05-01T08:28:24.259Z</time></trkpt><trkpt lat="45.0899683" lon="7.4385233"><ele>330.0</ele><time>2026-05-01T08:28:25.258Z</time></trkpt><trkpt lat="45.089925" lon="7.4381133"><ele>330.0</ele><time>2026-05-01T08:28:26.259Z</time></trkpt><trkpt lat="45.0898783" lon="7.43771"><ele>330.0</ele><time>2026-05-01T08:28:27.259Z</time></trkpt><trkpt lat="45.0898217" lon="7.4373083"><ele>329.0</ele><time>2026-05-01T08:28:28.259Z</time></trkpt><trkpt lat="45.0897783" lon="7.4369083"><ele>328.0</ele><time>2026-05-01T08:28:29.259Z</time></trkpt><trkpt lat="45.0897283" lon="7.4365067"><ele>329.0</ele><time>2026-05-01T08:28:30.259Z</time></trkpt><trkpt lat="45.0896783" lon="7.4361033"><ele>330.0</ele><time>2026-05-01T08:28:31.259Z</time></trkpt><trkpt lat="45.08963" lon="7.435695"><ele>331.0</ele><time>2026-05-01T08:28:32.259Z</time></trkpt><trkpt lat="45.089575" lon="7.4352817"><ele>332.0</ele><time>2026-05-01T08:28:33.258Z</time></trkpt><trkpt lat="45.0895267" lon="7.4348717"><ele>332.0</ele><time>2026-05-01T08:28:34.259Z</time></trkpt><trkpt lat="45.08948" lon="7.43447"><ele>332.0</ele><time>2026-05-01T08:28:35.259Z</time></trkpt><trkpt lat="45.0894433" lon="7.4340717"><ele>331.5</ele><time>2026-05-01T08:28:36.259Z</time></trkpt><trkpt lat="45.0894133" lon="7.4336717"><ele>331.0</ele><time>2026-05-01T08:28:37.258Z</time></trkpt><trkpt lat="45.0894017" lon="7.433275"><ele>330.5</ele><time>2026-05-01T08:28:38.259Z</time></trkpt><trkpt lat="45.0894" lon="7.4328633"><ele>330.0</ele><time>2026-05-01T08:28:39.259Z</time></trkpt><trkpt lat="45.0893983" lon="7.432455"><ele>330.5</ele><time>2026-05-01T08:28:40.259Z</time></trkpt><trkpt lat="45.0894067" lon="7.4320467"><ele>331.0</ele><time>2026-05-01T08:28:41.259Z</time></trkpt><trkpt lat="45.0894183" lon="7.4316533"><ele>331.5</ele><time>2026-05-01T08:28:42.259Z</time></trkpt><trkpt lat="45.0894367" lon="7.431255"><ele>332.0</ele><time>2026-05-01T08:28:43.258Z</time></trkpt><trkpt lat="45.0894617" lon="7.4308567"><ele>332.0</ele><time>2026-05-01T08:28:44.259Z</time></trkpt><trkpt lat="45.0894983" lon="7.43046"><ele>332.0</ele><time>2026-05-01T08:28:45.258Z</time></trkpt><trkpt lat="45.089555" lon="7.43007"><ele>332.0</ele><time>2026-05-01T08:28:46.259Z</time></trkpt><trkpt lat="45.0896317" lon="7.4296967"><ele>332.0</ele><time>2026-05-01T08:28:47.258Z</time></trkpt><trkpt lat="45.0896983" lon="7.4293167"><ele>332.0</ele><time>2026-05-01T08:28:48.259Z</time></trkpt><trkpt lat="45.0897767" lon="7.4289333"><ele>332.0</ele><time>2026-05-01T08:28:49.258Z</time></trkpt><trkpt lat="45.0898583" lon="7.4285567"><ele>332.5</ele><time>2026-05-01T08:28:50.259Z</time></trkpt><trkpt lat="45.089945" lon="7.4281917"><ele>333.0</ele><time>2026-05-01T08:28:51.259Z</time></trkpt><trkpt lat="45.090015" lon="7.4278117"><ele>333.0</ele><time>2026-05-01T08:28:52.259Z</time></trkpt><trkpt lat="45.0900983" lon="7.427435"><ele>333.0</ele><time>2026-05-01T08:28:53.258Z</time></trkpt><trkpt lat="45.0901767" lon="7.427055"><ele>333.5</ele><time>2026-05-01T08:28:54.259Z</time></trkpt><trkpt lat="45.0902517" lon="7.4266833"><ele>334.0</ele><time>2026-05-01T08:28:55.259Z</time></trkpt><trkpt lat="45.0903283" lon="7.4262917"><ele>335.0</ele><time>2026-05-01T08:28:56.258Z</time></trkpt><trkpt lat="45.0904" lon="7.4259017"><ele>336.0</ele><time>2026-05-01T08:28:57.259Z</time></trkpt><trkpt lat="45.0904733" lon="7.42551"><ele>336.0</ele><time>2026-05-01T08:28:58.259Z</time></trkpt><trkpt lat="45.0905483" lon="7.42512"><ele>336.0</ele><time>2026-05-01T08:28:59.259Z</time></trkpt><trkpt lat="45.0906267" lon="7.42473"><ele>335.5</ele><time>2026-05-01T08:29:00.259Z</time></trkpt><trkpt lat="45.0907" lon="7.424335"><ele>335.0</ele><time>2026-05-01T08:29:01.259Z</time></trkpt><trkpt lat="45.0907767" lon="7.4239367"><ele>335.0</ele><time>2026-05-01T08:29:02.258Z</time></trkpt><trkpt lat="45.0908483" lon="7.4235467"><ele>335.0</ele><time>2026-05-01T08:29:03.259Z</time></trkpt><trkpt lat="45.09092" lon="7.4231567"><ele>336.0</ele><time>2026-05-01T08:29:04.259Z</time></trkpt><trkpt lat="45.09099" lon="7.4227667"><ele>337.0</ele><time>2026-05-01T08:29:05.258Z</time></trkpt><trkpt lat="45.0910517" lon="7.4223667"><ele>336.5</ele><time>2026-05-01T08:29:06.259Z</time></trkpt><trkpt lat="45.0911083" lon="7.421965"><ele>336.0</ele><time>2026-05-01T08:29:07.259Z</time></trkpt><trkpt lat="45.0911483" lon="7.42157"><ele>336.0</ele><time>2026-05-01T08:29:08.258Z</time></trkpt><trkpt lat="45.0911917" lon="7.4211767"><ele>336.0</ele><time>2026-05-01T08:29:09.258Z</time></trkpt><trkpt lat="45.09124" lon="7.4207783"><ele>335.5</ele><time>2026-05-01T08:29:10.259Z</time></trkpt><trkpt lat="45.09128" lon="7.4203933"><ele>335.0</ele><time>2026-05-01T08:29:11.259Z</time></trkpt><trkpt lat="45.0913283" lon="7.420005"><ele>335.0</ele><time>2026-05-01T08:29:12.258Z</time></trkpt><trkpt lat="45.091375" lon="7.4196183"><ele>335.0</ele><time>2026-05-01T08:29:13.259Z</time></trkpt><trkpt lat="45.091425" lon="7.4192267"><ele>335.0</ele><time>2026-05-01T08:29:14.259Z</time></trkpt><trkpt lat="45.0914733" lon="7.418845"><ele>335.0</ele><time>2026-05-01T08:29:15.259Z</time></trkpt><trkpt lat="45.0915333" lon="7.4184633"><ele>334.5</ele><time>2026-05-01T08:29:16.259Z</time></trkpt><trkpt lat="45.09157" lon="7.4180867"><ele>334.0</ele><time>2026-05-01T08:29:17.259Z</time></trkpt><trkpt lat="45.0916083" lon="7.417705"><ele>337.0</ele><time>2026-05-01T08:29:18.259Z</time></trkpt><trkpt lat="45.0916517" lon="7.4173183"><ele>340.0</ele><time>2026-05-01T08:29:19.258Z</time></trkpt><trkpt lat="45.0917017" lon="7.4169167"><ele>340.0</ele><time>2026-05-01T08:29:20.259Z</time></trkpt><trkpt lat="45.0917433" lon="7.41652"><ele>340.0</ele><time>2026-05-01T08:29:21.259Z</time></trkpt><trkpt lat="45.0917983" lon="7.4161333"><ele>340.0</ele><time>2026-05-01T08:29:22.259Z</time></trkpt><trkpt lat="45.0918467" lon="7.4157583"><ele>340.0</ele><time>2026-05-01T08:29:23.259Z</time></trkpt><trkpt lat="45.0918833" lon="7.4153717"><ele>339.5</ele><time>2026-05-01T08:29:24.258Z</time></trkpt><trkpt lat="45.0919167" lon="7.4149783"><ele>339.0</ele><time>2026-05-01T08:29:25.259Z</time></trkpt><trkpt lat="45.0919483" lon="7.414585"><ele>338.5</ele><time>2026-05-01T08:29:26.259Z</time></trkpt><trkpt lat="45.0919833" lon="7.414225"><ele>338.0</ele><time>2026-05-01T08:29:27.259Z</time></trkpt><trkpt lat="45.092025" lon="7.413875"><ele>337.0</ele><time>2026-05-01T08:29:28.259Z</time></trkpt><trkpt lat="45.0920767" lon="7.413515"><ele>336.0</ele><time>2026-05-01T08:29:29.259Z</time></trkpt><trkpt lat="45.09212" lon="7.4131667"><ele>335.5</ele><time>2026-05-01T08:29:30.259Z</time></trkpt><trkpt lat="45.0921533" lon="7.4128233"><ele>335.0</ele><time>2026-05-01T08:29:31.258Z</time></trkpt><trkpt lat="45.0921883" lon="7.4124833"><ele>334.0</ele><time>2026-05-01T08:29:32.259Z</time></trkpt><trkpt lat="45.0922283" lon="7.4121283"><ele>333.0</ele><time>2026-05-01T08:29:33.259Z</time></trkpt><trkpt lat="45.0922717" lon="7.4117667"><ele>333.0</ele><time>2026-05-01T08:29:34.258Z</time></trkpt><trkpt lat="45.0923217" lon="7.4114133"><ele>333.0</ele><time>2026-05-01T08:29:35.259Z</time></trkpt><trkpt lat="45.0923467" lon="7.4110717"><ele>334.0</ele><time>2026-05-01T08:29:36.259Z</time></trkpt><trkpt lat="45.09239" lon="7.410735"><ele>335.0</ele><time>2026-05-01T08:29:37.259Z</time></trkpt><trkpt lat="45.0924283" lon="7.4104217"><ele>336.0</ele><time>2026-05-01T08:29:38.259Z</time></trkpt><trkpt lat="45.0924683" lon="7.4101333"><ele>337.0</ele><time>2026-05-01T08:29:39.258Z</time></trkpt><trkpt lat="45.0925133" lon="7.4098517"><ele>338.0</ele><time>2026-05-01T08:29:40.258Z</time></trkpt><trkpt lat="45.092555" lon="7.409555"><ele>338.33333333333337</ele><time>2026-05-01T08:29:41.259Z</time></trkpt><trkpt lat="45.0925917" lon="7.4092617"><ele>338.6666666666667</ele><time>2026-05-01T08:29:42.259Z</time></trkpt><trkpt lat="45.0926267" lon="7.4089633"><ele>339.0</ele><time>2026-05-01T08:29:43.258Z</time></trkpt><trkpt lat="45.092655" lon="7.408675"><ele>339.0</ele><time>2026-05-01T08:29:44.258Z</time></trkpt><trkpt lat="45.0926783" lon="7.4084017"><ele>339.0</ele><time>2026-05-01T08:29:45.258Z</time></trkpt><trkpt lat="45.0927067" lon="7.40812"><ele>339.0</ele><time>2026-05-01T08:29:46.258Z</time></trkpt><trkpt lat="45.0927333" lon="7.40782"><ele>338.6666666666667</ele><time>2026-05-01T08:29:47.259Z</time></trkpt><trkpt lat="45.0927783" lon="7.407525"><ele>338.33333333333337</ele><time>2026-05-01T08:29:48.259Z</time></trkpt><trkpt lat="45.0928067" lon="7.4072233"><ele>338.0</ele><time>2026-05-01T08:29:49.259Z</time></trkpt><trkpt lat="45.0928383" lon="7.4069383"><ele>338.6666666666667</ele><time>2026-05-01T08:29:50.258Z</time></trkpt><trkpt lat="45.0928783" lon="7.4066433"><ele>339.3333333333333</ele><time>2026-05-01T08:29:51.259Z</time></trkpt><trkpt lat="45.0929167" lon="7.4063867"><ele>340.0</ele><time>2026-05-01T08:29:52.258Z</time></trkpt><trkpt lat="45.0929533" lon="7.4061217"><ele>340.0</ele><time>2026-05-01T08:29:53.259Z</time></trkpt><trkpt lat="45.09299" lon="7.4058517"><ele>340.0</ele><time>2026-05-01T08:29:54.259Z</time></trkpt><trkpt lat="45.093025" lon="7.4055817"><ele>340.0</ele><time>2026-05-01T08:29:55.259Z</time></trkpt><trkpt lat="45.093055" lon="7.4052967"><ele>340.0</ele><time>2026-05-01T08:29:56.259Z</time></trkpt><trkpt lat="45.093085" lon="7.4050083"><ele>340.0</ele><time>2026-05-01T08:29:57.259Z</time></trkpt><trkpt lat="45.09312" lon="7.4047217"><ele>340.0</ele><time>2026-05-01T08:29:58.259Z</time></trkpt><trkpt lat="45.09316" lon="7.4044267"><ele>340.3333333333333</ele><time>2026-05-01T08:29:59.258Z</time></trkpt><trkpt lat="45.093195" lon="7.4041433"><ele>340.6666666666667</ele><time>2026-05-01T08:30:00.259Z</time></trkpt><trkpt lat="45.0931967" lon="7.4038567"><ele>341.0</ele><time>2026-05-01T08:30:01.259Z</time></trkpt><trkpt lat="45.09323" lon="7.40357"><ele>341.6666666666667</ele><time>2026-05-01T08:30:02.258Z</time></trkpt><trkpt lat="45.0932667" lon="7.40329"><ele>342.3333333333333</ele><time>2026-05-01T08:30:03.259Z</time></trkpt><trkpt lat="45.0933033" lon="7.4030167"><ele>343.0</ele><time>2026-05-01T08:30:04.259Z</time></trkpt><trkpt lat="45.09333" lon="7.4027617"><ele>343.0</ele><time>2026-05-01T08:30:05.258Z</time></trkpt><trkpt lat="45.0933667" lon="7.4025067"><ele>343.0</ele><time>2026-05-01T08:30:06.258Z</time></trkpt><trkpt lat="45.0934017" lon="7.4022433"><ele>343.0</ele><time>2026-05-01T08:30:07.259Z</time></trkpt><trkpt lat="45.0934533" lon="7.4019767"><ele>343.0</ele><time>2026-05-01T08:30:08.258Z</time></trkpt><trkpt lat="45.09349" lon="7.4016617"><ele>343.0</ele><time>2026-05-01T08:30:09.259Z</time></trkpt><trkpt lat="45.0935117" lon="7.4013733"><ele>343.0</ele><time>2026-05-01T08:30:10.259Z</time></trkpt><trkpt lat="45.093555" lon="7.4011017"><ele>343.3333333333333</ele><time>2026-05-01T08:30:11.259Z</time></trkpt><trkpt lat="45.0935883" lon="7.4008467"><ele>343.6666666666667</ele><time>2026-05-01T08:30:12.259Z</time></trkpt><trkpt lat="45.0936267" lon="7.4005967"><ele>344.0</ele><time>2026-05-01T08:30:13.259Z</time></trkpt><trkpt lat="45.0936783" lon="7.4003367"><ele>344.33333333333337</ele><time>2026-05-01T08:30:14.259Z</time></trkpt><trkpt lat="45.0937267" lon="7.4001017"><ele>344.6666666666667</ele><time>2026-05-01T08:30:15.259Z</time></trkpt><trkpt lat="45.093765" lon="7.3998883"><ele>345.0</ele><time>2026-05-01T08:30:16.259Z</time></trkpt><trkpt lat="45.0937883" lon="7.39971"><ele>345.0</ele><time>2026-05-01T08:30:17.258Z</time></trkpt><trkpt lat="45.0938017" lon="7.3995483"><ele>345.0</ele><time>2026-05-01T08:30:18.259Z</time></trkpt><trkpt lat="45.093825" lon="7.3993933"><ele>345.0</ele><time>2026-05-01T08:30:19.259Z</time></trkpt><trkpt lat="45.0938533" lon="7.3992417"><ele>345.0</ele><time>2026-05-01T08:30:20.259Z</time></trkpt><trkpt lat="45.0938883" lon="7.3991083"><ele>345.0</ele><time>2026-05-01T08:30:21.258Z</time></trkpt><trkpt lat="45.093935" lon="7.3989967"><ele>345.0</ele><time>2026-05-01T08:30:22.258Z</time></trkpt><trkpt lat="45.09401" lon="7.3989017"><ele>345.0</ele><time>2026-05-01T08:30:23.259Z</time></trkpt><trkpt lat="45.0941083" lon="7.398835"><ele>345.0</ele><time>2026-05-01T08:30:24.259Z</time></trkpt><trkpt lat="45.0942017" lon="7.3987917"><ele>345.0</ele><time>2026-05-01T08:30:25.259Z</time></trkpt><trkpt lat="45.0943067" lon="7.3987733"><ele>345.0</ele><time>2026-05-01T08:30:26.259Z</time></trkpt><trkpt lat="45.0944233" lon="7.398765"><ele>345.0</ele><time>2026-05-01T08:30:27.259Z</time></trkpt><trkpt lat="45.0945533" lon="7.3987383"><ele>345.0</ele><time>2026-05-01T08:30:28.258Z</time></trkpt><trkpt lat="45.0946833" lon="7.3987167"><ele>345.0</ele><time>2026-05-01T08:30:29.259Z</time></trkpt><trkpt lat="45.0948133" lon="7.3986917"><ele>345.0</ele><time>2026-05-01T08:30:30.259Z</time></trkpt><trkpt lat="45.094955" lon="7.3986667"><ele>344.75</ele><time>2026-05-01T08:30:31.259Z</time></trkpt><trkpt lat="45.095095" lon="7.3986417"><ele>344.5</ele><time>2026-05-01T08:30:32.258Z</time></trkpt><trkpt lat="45.0952283" lon="7.3986117"><ele>344.25</ele><time>2026-05-01T08:30:33.259Z</time></trkpt><trkpt lat="45.0953617" lon="7.3985867"><ele>344.0</ele><time>2026-05-01T08:30:34.258Z</time></trkpt><trkpt lat="45.0954633" lon="7.3985733"><ele>344.0</ele><time>2026-05-01T08:30:35.259Z</time></trkpt><trkpt lat="45.0955567" lon="7.39856"><ele>344.0</ele><time>2026-05-01T08:30:36.259Z</time></trkpt><trkpt lat="45.0956333" lon="7.39855"><ele>344.0</ele><time>2026-05-01T08:30:37.259Z</time></trkpt><trkpt lat="45.0957167" lon="7.3985267"><ele>344.0</ele><time>2026-05-01T08:30:38.258Z</time></trkpt><trkpt lat="45.0958117" lon="7.3985017"><ele>344.0</ele><time>2026-05-01T08:30:39.259Z</time></trkpt><trkpt lat="45.0959367" lon="7.39848"><ele>344.0</ele><time>2026-05-01T08:30:40.259Z</time></trkpt><trkpt lat="45.09607" lon="7.3984467"><ele>344.0</ele><time>2026-05-01T08:30:41.259Z</time></trkpt><trkpt lat="45.0962" lon="7.39845"><ele>344.0</ele><time>2026-05-01T08:30:42.259Z</time></trkpt><trkpt lat="45.096355" lon="7.39845"><ele>344.0</ele><time>2026-05-01T08:30:43.259Z</time></trkpt><trkpt lat="45.0965233" lon="7.3984317"><ele>344.33333333333337</ele><time>2026-05-01T08:30:44.259Z</time></trkpt><trkpt lat="45.09668" lon="7.398435"><ele>344.6666666666667</ele><time>2026-05-01T08:30:45.259Z</time></trkpt><trkpt lat="45.0968333" lon="7.398435"><ele>345.0</ele><time>2026-05-01T08:30:46.259Z</time></trkpt><trkpt lat="45.096975" lon="7.3984583"><ele>345.0</ele><time>2026-05-01T08:30:47.259Z</time></trkpt><trkpt lat="45.0971217" lon="7.3984683"><ele>345.0</ele><time>2026-05-01T08:30:48.259Z</time></trkpt><trkpt lat="45.0972517" lon="7.3985"><ele>345.0</ele><time>2026-05-01T08:30:49.258Z</time></trkpt><trkpt lat="45.09738" lon="7.3985217"><ele>345.0</ele><time>2026-05-01T08:30:50.259Z</time></trkpt><trkpt lat="45.0975217" lon="7.398555"><ele>344.75</ele><time>2026-05-01T08:30:51.258Z</time></trkpt><trkpt lat="45.09767" lon="7.39859"><ele>344.5</ele><time>2026-05-01T08:30:52.258Z</time></trkpt><trkpt lat="45.0978183" lon="7.3986083"><ele>344.25</ele><time>2026-05-01T08:30:53.259Z</time></trkpt><trkpt lat="45.097955" lon="7.398645"><ele>344.0</ele><time>2026-05-01T08:30:54.258Z</time></trkpt><trkpt lat="45.098095" lon="7.3986733"><ele>344.0</ele><time>2026-05-01T08:30:55.259Z</time></trkpt><trkpt lat="45.0982267" lon="7.398695"><ele>344.0</ele><time>2026-05-01T08:30:56.259Z</time></trkpt><trkpt lat="45.0983567" lon="7.398715"><ele>344.0</ele><time>2026-05-01T08:30:57.259Z</time></trkpt><trkpt lat="45.0984667" lon="7.398735"><ele>344.0</ele><time>2026-05-01T08:30:58.259Z</time></trkpt><trkpt lat="45.0985617" lon="7.3987617"><ele>344.00000000000006</ele><time>2026-05-01T08:30:59.259Z</time></trkpt><trkpt lat="45.0986383" lon="7.398795"><ele>344.0</ele><time>2026-05-01T08:31:00.259Z</time></trkpt><trkpt lat="45.0987117" lon="7.398825"><ele>344.0</ele><time>2026-05-01T08:31:01.259Z</time></trkpt><trkpt lat="45.0987667" lon="7.39887"><ele>344.0</ele><time>2026-05-01T08:31:02.258Z</time></trkpt><trkpt lat="45.0988267" lon="7.398915"><ele>344.0</ele><time>2026-05-01T08:31:03.259Z</time></trkpt><trkpt lat="45.0988767" lon="7.3989817"><ele>344.00000000000006</ele><time>2026-05-01T08:31:04.258Z</time></trkpt><trkpt lat="45.0989083" lon="7.3990767"><ele>344.0</ele><time>2026-05-01T08:31:05.259Z</time></trkpt><trkpt lat="45.098935" lon="7.3991817"><ele>343.79999999999995</ele><time>2026-05-01T08:31:06.259Z</time></trkpt><trkpt lat="45.09894" lon="7.399305"><ele>343.59999999999997</ele><time>2026-05-01T08:31:07.259Z</time></trkpt><trkpt lat="45.098925" lon="7.399435"><ele>343.4</ele><time>2026-05-01T08:31:08.259Z</time></trkpt><trkpt lat="45.0988917" lon="7.399595"><ele>343.2</ele><time>2026-05-01T08:31:09.259Z</time></trkpt><trkpt lat="45.09883" lon="7.3997633"><ele>343.0</ele><time>2026-05-01T08:31:10.259Z</time></trkpt><trkpt lat="45.098745" lon="7.39993"><ele>343.0</ele><time>2026-05-01T08:31:11.259Z</time></trkpt><trkpt lat="45.0986467" lon="7.4000917"><ele>343.0</ele><time>2026-05-01T08:31:12.258Z</time></trkpt><trkpt lat="45.0985367" lon="7.4002367"><ele>343.0</ele><time>2026-05-01T08:31:13.258Z</time></trkpt><trkpt lat="45.09844" lon="7.4004"><ele>343.0</ele><time>2026-05-01T08:31:14.258Z</time></trkpt><trkpt lat="45.0983367" lon="7.400555"><ele>343.0</ele><time>2026-05-01T08:31:15.259Z</time></trkpt><trkpt lat="45.098225" lon="7.4006833"><ele>343.0</ele><time>2026-05-01T08:31:16.259Z</time></trkpt><trkpt lat="45.0980083" lon="7.4010083"><ele>343.0</ele><time>2026-05-01T08:31:18.259Z</time></trkpt><trkpt lat="45.0979017" lon="7.4011733"><ele>343.0</ele><time>2026-05-01T08:31:19.259Z</time></trkpt><trkpt lat="45.0977983" lon="7.401335"><ele>343.0</ele><time>2026-05-01T08:31:20.259Z</time></trkpt><trkpt lat="45.0976917" lon="7.4014917"><ele>343.0</ele><time>2026-05-01T08:31:21.259Z</time></trkpt><trkpt lat="45.097585" lon="7.401655"><ele>343.0</ele><time>2026-05-01T08:31:22.258Z</time></trkpt><trkpt lat="45.0974767" lon="7.4017983"><ele>343.0</ele><time>2026-05-01T08:31:23.259Z</time></trkpt><trkpt lat="45.0973833" lon="7.4019433"><ele>343.0</ele><time>2026-05-01T08:31:24.259Z</time></trkpt><trkpt lat="45.097295" lon="7.4020867"><ele>343.0</ele><time>2026-05-01T08:31:25.258Z</time></trkpt><trkpt lat="45.0972" lon="7.40221"><ele>343.0</ele><time>2026-05-01T08:31:26.259Z</time></trkpt><trkpt lat="45.0971117" lon="7.4023317"><ele>343.0</ele><time>2026-05-01T08:31:27.258Z</time></trkpt><trkpt lat="45.09702" lon="7.4024683"><ele>343.0</ele><time>2026-05-01T08:31:28.259Z</time></trkpt><trkpt lat="45.0969317" lon="7.4026017"><ele>343.0</ele><time>2026-05-01T08:31:29.259Z</time></trkpt><trkpt lat="45.09684" lon="7.40272"><ele>343.0</ele><time>2026-05-01T08:31:30.259Z</time></trkpt><trkpt lat="45.0967633" lon="7.40284"><ele>343.0</ele><time>2026-05-01T08:31:31.259Z</time></trkpt><trkpt lat="45.0966783" lon="7.402965"><ele>343.0</ele><time>2026-05-01T08:31:32.259Z</time></trkpt><trkpt lat="45.0966033" lon="7.40309"><ele>342.75</ele><time>2026-05-01T08:31:33.259Z</time></trkpt><trkpt lat="45.0965267" lon="7.4032183"><ele>342.5</ele><time>2026-05-01T08:31:34.259Z</time></trkpt><trkpt lat="45.0964483" lon="7.4033467"><ele>342.25</ele><time>2026-05-01T08:31:35.259Z</time></trkpt><trkpt lat="45.0963683" lon="7.403475"><ele>342.0</ele><time>2026-05-01T08:31:36.259Z</time></trkpt><trkpt lat="45.0962867" lon="7.4036017"><ele>342.0</ele><time>2026-05-01T08:31:37.259Z</time></trkpt><trkpt lat="45.0962167" lon="7.403725"><ele>342.0</ele><time>2026-05-01T08:31:38.258Z</time></trkpt><trkpt lat="45.096145" lon="7.4038367"><ele>342.0</ele><time>2026-05-01T08:31:39.259Z</time></trkpt><trkpt lat="45.0960783" lon="7.4039383"><ele>342.0</ele><time>2026-05-01T08:31:40.259Z</time></trkpt><trkpt lat="45.0960233" lon="7.4040167"><ele>342.0</ele><time>2026-05-01T08:31:41.259Z</time></trkpt><trkpt lat="45.0959817" lon="7.4040967"><ele>342.0</ele><time>2026-05-01T08:31:42.259Z</time></trkpt><trkpt lat="45.0959083" lon="7.404235"><ele>342.0</ele><time>2026-05-01T08:31:44.259Z</time></trkpt><trkpt lat="45.0958117" lon="7.4043233"><ele>342.0</ele><time>2026-05-01T08:31:46.259Z</time></trkpt><trkpt lat="45.0957067" lon="7.4043917"><ele>342.0</ele><time>2026-05-01T08:31:48.258Z</time></trkpt><trkpt lat="45.0956233" lon="7.4044633"><ele>342.0</ele><time>2026-05-01T08:31:50.259Z</time></trkpt><trkpt lat="45.0956067" lon="7.4045733"><ele>342.0</ele><time>2026-05-01T08:31:52.259Z</time></trkpt><trkpt lat="45.0956617" lon="7.4046367"><ele>342.0</ele><time>2026-05-01T08:31:54.259Z</time></trkpt><trkpt lat="45.0957267" lon="7.404645"><ele>342.0</ele><time>2026-05-01T08:31:56.258Z</time></trkpt><trkpt lat="45.0958717" lon="7.4046133"><ele>342.0</ele><time>2026-05-01T08:31:58.259Z</time></trkpt><trkpt lat="45.095975" lon="7.4045933"><ele>342.0</ele><time>2026-05-01T08:31:59.259Z</time></trkpt><trkpt lat="45.0961" lon="7.4045833"><ele>342.0</ele><time>2026-05-01T08:32:00.259Z</time></trkpt><trkpt lat="45.0962283" lon="7.4045733"><ele>342.0</ele><time>2026-05-01T08:32:01.259Z</time></trkpt><trkpt lat="45.0963283" lon="7.4045467"><ele>342.0</ele><time>2026-05-01T08:32:02.259Z</time></trkpt><trkpt lat="45.09643" lon="7.4045467"><ele>342.0</ele><time>2026-05-01T08:32:03.259Z</time></trkpt><trkpt lat="45.0965433" lon="7.404545"><ele>342.0</ele><time>2026-05-01T08:32:04.259Z</time></trkpt><trkpt lat="45.0966533" lon="7.40453"><ele>342.0</ele><time>2026-05-01T08:32:05.259Z</time></trkpt><trkpt lat="45.0967817" lon="7.4044983"><ele>342.0</ele><time>2026-05-01T08:32:06.259Z</time></trkpt><trkpt lat="45.0969117" lon="7.4044383"><ele>342.25</ele><time>2026-05-01T08:32:07.259Z</time></trkpt><trkpt lat="45.0970383" lon="7.4043883"><ele>342.5</ele><time>2026-05-01T08:32:08.259Z</time></trkpt><trkpt lat="45.0971933" lon="7.4043033"><ele>342.75</ele><time>2026-05-01T08:32:09.259Z</time></trkpt><trkpt lat="45.0973183" lon="7.40426"><ele>343.0</ele><time>2026-05-01T08:32:10.258Z</time></trkpt><trkpt lat="45.0974267" lon="7.4042067"><ele>343.0</ele><time>2026-05-01T08:32:11.259Z</time></trkpt><trkpt lat="45.0975233" lon="7.40417"><ele>343.0</ele><time>2026-05-01T08:32:12.259Z</time></trkpt><trkpt lat="45.09762" lon="7.40412"><ele>343.0</ele><time>2026-05-01T08:32:13.259Z</time></trkpt><trkpt lat="45.0977317" lon="7.404065"><ele>343.0</ele><time>2026-05-01T08:32:14.259Z</time></trkpt><trkpt lat="45.0978367" lon="7.404025"><ele>343.0</ele><time>2026-05-01T08:32:15.259Z</time></trkpt><trkpt lat="45.0979283" lon="7.403985"><ele>343.0</ele><time>2026-05-01T08:32:16.258Z</time></trkpt><trkpt lat="45.0980133" lon="7.4039567"><ele>343.0</ele><time>2026-05-01T08:32:17.258Z</time></trkpt><trkpt lat="45.0981033" lon="7.4039233"><ele>343.0</ele><time>2026-05-01T08:32:18.258Z</time></trkpt><trkpt lat="45.0982" lon="7.4039"><ele>343.0</ele><time>2026-05-01T08:32:19.259Z</time></trkpt><trkpt lat="45.0982833" lon="7.40387"><ele>343.0</ele><time>2026-05-01T08:32:20.259Z</time></trkpt><trkpt lat="45.0983633" lon="7.40385"><ele>343.0</ele><time>2026-05-01T08:32:21.258Z</time></trkpt><trkpt lat="45.0984367" lon="7.4038333"><ele>343.16666666666663</ele><time>2026-05-01T08:32:22.259Z</time></trkpt><trkpt lat="45.0985683" lon="7.4037967"><ele>343.3333333333333</ele><time>2026-05-01T08:32:24.259Z</time></trkpt><trkpt lat="45.098635" lon="7.403785"><ele>343.5</ele><time>2026-05-01T08:32:25.259Z</time></trkpt><trkpt lat="45.0987067" lon="7.4037767"><ele>343.6666666666667</ele><time>2026-05-01T08:32:26.258Z</time></trkpt><trkpt lat="45.0987883" lon="7.403775"><ele>343.83333333333337</ele><time>2026-05-01T08:32:27.259Z</time></trkpt><trkpt lat="45.09886" lon="7.4037667"><ele>344.0</ele><time>2026-05-01T08:32:28.259Z</time></trkpt><trkpt lat="45.09893" lon="7.403755"><ele>344.0</ele><time>2026-05-01T08:32:29.259Z</time></trkpt><trkpt lat="45.09903" lon="7.4037317"><ele>344.0</ele><time>2026-05-01T08:32:31.259Z</time></trkpt><trkpt lat="45.0991167" lon="7.4036617"><ele>344.0</ele><time>2026-05-01T08:32:33.258Z</time></trkpt><trkpt lat="45.09917" lon="7.40358"><ele>344.0</ele><time>2026-05-01T08:32:35.259Z</time></trkpt><trkpt lat="45.0992517" lon="7.40355"><ele>344.0</ele><time>2026-05-01T08:32:37.259Z</time></trkpt><trkpt lat="45.0993367" lon="7.4035167"><ele>344.1666666666667</ele><time>2026-05-01T08:32:39.259Z</time></trkpt><trkpt lat="45.0994" lon="7.403485"><ele>344.33333333333337</ele><time>2026-05-01T08:32:42.259Z</time></trkpt><trkpt lat="45.0994633" lon="7.4035183"><ele>344.5</ele><time>2026-05-01T08:34:45.259Z</time></trkpt><trkpt lat="45.0994333" lon="7.4036517"><ele>344.6666666666667</ele><time>2026-05-01T08:34:52.259Z</time></trkpt><trkpt lat="45.0993267" lon="7.4036383"><ele>344.8333333333333</ele><time>2026-05-01T08:34:54.259Z</time></trkpt><trkpt lat="45.0992367" lon="7.4036283"><ele>345.0</ele><time>2026-05-01T08:34:55.259Z</time></trkpt><trkpt lat="45.0991267" lon="7.40363"><ele>344.75</ele><time>2026-05-01T08:34:56.259Z</time></trkpt><trkpt lat="45.0990117" lon="7.40363"><ele>344.5</ele><time>2026-05-01T08:34:57.259Z</time></trkpt><trkpt lat="45.0988583" lon="7.4036433"><ele>344.25</ele><time>2026-05-01T08:34:58.259Z</time></trkpt><trkpt lat="45.098695" lon="7.4036583"><ele>344.0</ele><time>2026-05-01T08:34:59.259Z</time></trkpt><trkpt lat="45.0985433" lon="7.40369"><ele>344.0</ele><time>2026-05-01T08:35:00.259Z</time></trkpt><trkpt lat="45.0984033" lon="7.4037267"><ele>344.0</ele><time>2026-05-01T08:35:01.259Z</time></trkpt><trkpt lat="45.098275" lon="7.4037817"><ele>344.0</ele><time>2026-05-01T08:35:02.258Z</time></trkpt><trkpt lat="45.098135" lon="7.40384"><ele>344.0</ele><time>2026-05-01T08:35:03.259Z</time></trkpt><trkpt lat="45.0980117" lon="7.4038917"><ele>343.75</ele><time>2026-05-01T08:35:04.259Z</time></trkpt><trkpt lat="45.09789" lon="7.40395"><ele>343.5</ele><time>2026-05-01T08:35:05.259Z</time></trkpt><trkpt lat="45.0977633" lon="7.4040083"><ele>343.25</ele><time>2026-05-01T08:35:06.259Z</time></trkpt><trkpt lat="45.097615" lon="7.4040733"><ele>343.0</ele><time>2026-05-01T08:35:07.259Z</time></trkpt><trkpt lat="45.097465" lon="7.4041333"><ele>343.3333333333333</ele><time>2026-05-01T08:35:08.259Z</time></trkpt><trkpt lat="45.0973083" lon="7.4041983"><ele>343.6666666666667</ele><time>2026-05-01T08:35:09.259Z</time></trkpt><trkpt lat="45.0971467" lon="7.40426"><ele>344.0</ele><time>2026-05-01T08:35:10.259Z</time></trkpt><trkpt lat="45.0969867" lon="7.4043317"><ele>344.0</ele><time>2026-05-01T08:35:11.259Z</time></trkpt><trkpt lat="45.096655" lon="7.40444"><ele>344.0</ele><time>2026-05-01T08:35:13.258Z</time></trkpt><trkpt lat="45.0965117" lon="7.4044567"><ele>343.6</ele><time>2026-05-01T08:35:14.258Z</time></trkpt><trkpt lat="45.0963833" lon="7.4044533"><ele>343.2</ele><time>2026-05-01T08:35:15.259Z</time></trkpt><trkpt lat="45.096265" lon="7.4044383"><ele>342.8</ele><time>2026-05-01T08:35:16.258Z</time></trkpt><trkpt lat="45.096205" lon="7.40441"><ele>342.40000000000003</ele><time>2026-05-01T08:35:17.259Z</time></trkpt><trkpt lat="45.0961067" lon="7.4043933"><ele>342.0</ele><time>2026-05-01T08:35:19.258Z</time></trkpt><trkpt lat="45.0960433" lon="7.4043383"><ele>342.0</ele><time>2026-05-01T08:35:32.259Z</time></trkpt><trkpt lat="45.0960167" lon="7.4042083"><ele>342.0</ele><time>2026-05-01T08:35:34.259Z</time></trkpt><trkpt lat="45.0960317" lon="7.404095"><ele>342.0</ele><time>2026-05-01T08:35:35.259Z</time></trkpt><trkpt lat="45.0960917" lon="7.4039733"><ele>342.0</ele><time>2026-05-01T08:35:36.258Z</time></trkpt><trkpt lat="45.0961733" lon="7.40385"><ele>342.0</ele><time>2026-05-01T08:35:37.258Z</time></trkpt><trkpt lat="45.0962833" lon="7.4036983"><ele>342.0</ele><time>2026-05-01T08:35:38.259Z</time></trkpt><trkpt lat="45.0963817" lon="7.4035717"><ele>342.0</ele><time>2026-05-01T08:35:39.259Z</time></trkpt><trkpt lat="45.096495" lon="7.403425"><ele>342.0</ele><time>2026-05-01T08:35:40.259Z</time></trkpt><trkpt lat="45.0965883" lon="7.40329"><ele>342.0</ele><time>2026-05-01T08:35:41.258Z</time></trkpt><trkpt lat="45.09668" lon="7.4031433"><ele>342.25</ele><time>2026-05-01T08:35:42.259Z</time></trkpt><trkpt lat="45.0967733" lon="7.4030133"><ele>342.5</ele><time>2026-05-01T08:35:43.259Z</time></trkpt><trkpt lat="45.0968517" lon="7.4028817"><ele>342.75</ele><time>2026-05-01T08:35:44.259Z</time></trkpt><trkpt lat="45.0969367" lon="7.4027433"><ele>343.0</ele><time>2026-05-01T08:35:45.259Z</time></trkpt><trkpt lat="45.0970217" lon="7.402595"><ele>343.0</ele><time>2026-05-01T08:35:46.259Z</time></trkpt><trkpt lat="45.0971283" lon="7.40245"><ele>343.0</ele><time>2026-05-01T08:35:47.258Z</time></trkpt><trkpt lat="45.0972367" lon="7.4023017"><ele>343.0</ele><time>2026-05-01T08:35:48.259Z</time></trkpt><trkpt lat="45.09735" lon="7.4021467"><ele>343.3333333333333</ele><time>2026-05-01T08:35:49.259Z</time></trkpt><trkpt lat="45.097465" lon="7.401995"><ele>343.6666666666667</ele><time>2026-05-01T08:35:50.259Z</time></trkpt><trkpt lat="45.09756" lon="7.40183"><ele>344.0</ele><time>2026-05-01T08:35:51.259Z</time></trkpt><trkpt lat="45.09766" lon="7.4016717"><ele>344.0</ele><time>2026-05-01T08:35:52.259Z</time></trkpt><trkpt lat="45.0977483" lon="7.4015083"><ele>344.0</ele><time>2026-05-01T08:35:53.258Z</time></trkpt><trkpt lat="45.0978433" lon="7.4013517"><ele>344.0</ele><time>2026-05-01T08:35:54.259Z</time></trkpt><trkpt lat="45.0979367" lon="7.4011933"><ele>344.0</ele><time>2026-05-01T08:35:55.258Z</time></trkpt><trkpt lat="45.09804" lon="7.4010317"><ele>343.6666666666667</ele><time>2026-05-01T08:35:56.259Z</time></trkpt><trkpt lat="45.09814" lon="7.4008583"><ele>343.3333333333333</ele><time>2026-05-01T08:35:57.258Z</time></trkpt><trkpt lat="45.0982483" lon="7.4007"><ele>343.0</ele><time>2026-05-01T08:35:58.258Z</time></trkpt><trkpt lat="45.0983583" lon="7.4005417"><ele>343.0</ele><time>2026-05-01T08:35:59.259Z</time></trkpt><trkpt lat="45.0984633" lon="7.4003817"><ele>343.0</ele><time>2026-05-01T08:36:00.259Z</time></trkpt><trkpt lat="45.0985567" lon="7.4002317"><ele>343.0</ele><time>2026-05-01T08:36:01.259Z</time></trkpt><trkpt lat="45.098645" lon="7.4000783"><ele>343.0</ele><time>2026-05-01T08:36:02.258Z</time></trkpt><trkpt lat="45.0987283" lon="7.3999333"><ele>343.0</ele><time>2026-05-01T08:36:03.259Z</time></trkpt><trkpt lat="45.09881" lon="7.3997983"><ele>343.0</ele><time>2026-05-01T08:36:04.259Z</time></trkpt><trkpt lat="45.098885" lon="7.3996667"><ele>343.0</ele><time>2026-05-01T08:36:05.259Z</time></trkpt><trkpt lat="45.0989733" lon="7.3995533"><ele>343.0</ele><time>2026-05-01T08:36:06.259Z</time></trkpt><trkpt lat="45.0990583" lon="7.3994367"><ele>342.5</ele><time>2026-05-01T08:36:07.259Z</time></trkpt><trkpt lat="45.0991617" lon="7.399345"><ele>342.0</ele><time>2026-05-01T08:36:08.259Z</time></trkpt><trkpt lat="45.09927" lon="7.3992483"><ele>341.5</ele><time>2026-05-01T08:36:09.259Z</time></trkpt><trkpt lat="45.09936" lon="7.3991633"><ele>341.0</ele><time>2026-05-01T08:36:10.259Z</time></trkpt><trkpt lat="45.0994333" lon="7.3990717"><ele>341.0</ele><time>2026-05-01T08:36:11.259Z</time></trkpt><trkpt lat="45.099485" lon="7.3989517"><ele>341.0</ele><time>2026-05-01T08:36:12.259Z</time></trkpt><trkpt lat="45.0995183" lon="7.398805"><ele>341.0</ele><time>2026-05-01T08:36:13.258Z</time></trkpt><trkpt lat="45.0995283" lon="7.3986533"><ele>341.0</ele><time>2026-05-01T08:36:14.259Z</time></trkpt><trkpt lat="45.099515" lon="7.3984767"><ele>341.0</ele><time>2026-05-01T08:36:15.259Z</time></trkpt><trkpt lat="45.09949" lon="7.398295"><ele>341.25</ele><time>2026-05-01T08:36:16.259Z</time></trkpt><trkpt lat="45.09947" lon="7.39812"><ele>341.5</ele><time>2026-05-01T08:36:17.259Z</time></trkpt><trkpt lat="45.0995017" lon="7.3979333"><ele>341.75</ele><time>2026-05-01T08:36:18.258Z</time></trkpt><trkpt lat="45.09954" lon="7.3977617"><ele>342.0</ele><time>2026-05-01T08:36:19.259Z</time></trkpt><trkpt lat="45.09958" lon="7.3976283"><ele>342.5</ele><time>2026-05-01T08:36:20.259Z</time></trkpt><trkpt lat="45.0996167" lon="7.3974983"><ele>343.0</ele><time>2026-05-01T08:36:21.259Z</time></trkpt><trkpt lat="45.0996533" lon="7.3973817"><ele>343.5</ele><time>2026-05-01T08:36:22.259Z</time></trkpt><trkpt lat="45.09969" lon="7.397275"><ele>344.0</ele><time>2026-05-01T08:36:23.258Z</time></trkpt><trkpt lat="45.0997267" lon="7.3971667"><ele>344.5</ele><time>2026-05-01T08:36:24.258Z</time></trkpt><trkpt lat="45.0997617" lon="7.3970517"><ele>345.0</ele><time>2026-05-01T08:36:25.258Z</time></trkpt><trkpt lat="45.0997967" lon="7.396945"><ele>345.2</ele><time>2026-05-01T08:36:26.259Z</time></trkpt><trkpt lat="45.09983" lon="7.3968367"><ele>345.4</ele><time>2026-05-01T08:36:27.258Z</time></trkpt><trkpt lat="45.0998617" lon="7.3967283"><ele>345.6</ele><time>2026-05-01T08:36:28.259Z</time></trkpt><trkpt lat="45.0998933" lon="7.3966"><ele>345.8</ele><time>2026-05-01T08:36:29.259Z</time></trkpt><trkpt lat="45.0999383" lon="7.3964567"><ele>346.0</ele><time>2026-05-01T08:36:30.259Z</time></trkpt><trkpt lat="45.099995" lon="7.3962917"><ele>346.0</ele><time>2026-05-01T08:36:31.258Z</time></trkpt><trkpt lat="45.1000633" lon="7.39611"><ele>346.0</ele><time>2026-05-01T08:36:32.259Z</time></trkpt><trkpt lat="45.1001267" lon="7.395905"><ele>346.0</ele><time>2026-05-01T08:36:33.259Z</time></trkpt><trkpt lat="45.100205" lon="7.3956817"><ele>346.0</ele><time>2026-05-01T08:36:34.259Z</time></trkpt><trkpt lat="45.1002667" lon="7.3954633"><ele>346.0</ele><time>2026-05-01T08:36:35.259Z</time></trkpt><trkpt lat="45.1003317" lon="7.3952483"><ele>346.0</ele><time>2026-05-01T08:36:36.259Z</time></trkpt><trkpt lat="45.100395" lon="7.3950283"><ele>346.0</ele><time>2026-05-01T08:36:37.259Z</time></trkpt><trkpt lat="45.1004567" lon="7.3948083"><ele>346.0</ele><time>2026-05-01T08:36:38.259Z</time></trkpt><trkpt lat="45.100525" lon="7.3946"><ele>346.0</ele><time>2026-05-01T08:36:39.259Z</time></trkpt><trkpt lat="45.1005817" lon="7.39439"><ele>346.0</ele><time>2026-05-01T08:36:40.259Z</time></trkpt><trkpt lat="45.100625" lon="7.3941867"><ele>346.0</ele><time>2026-05-01T08:36:41.259Z</time></trkpt><trkpt lat="45.1006617" lon="7.39398"><ele>346.0</ele><time>2026-05-01T08:36:42.258Z</time></trkpt><trkpt lat="45.100705" lon="7.3937783"><ele>346.0</ele><time>2026-05-01T08:36:43.258Z</time></trkpt><trkpt lat="45.1007467" lon="7.3935917"><ele>346.25</ele><time>2026-05-01T08:36:44.259Z</time></trkpt><trkpt lat="45.1007767" lon="7.3934"><ele>346.5</ele><time>2026-05-01T08:36:45.259Z</time></trkpt><trkpt lat="45.1008067" lon="7.3932567"><ele>346.75</ele><time>2026-05-01T08:36:46.259Z</time></trkpt><trkpt lat="45.1008367" lon="7.3931067"><ele>347.0</ele><time>2026-05-01T08:36:47.259Z</time></trkpt><trkpt lat="45.1008667" lon="7.39294"><ele>347.0</ele><time>2026-05-01T08:36:48.259Z</time></trkpt><trkpt lat="45.1008967" lon="7.3927633"><ele>347.0</ele><time>2026-05-01T08:36:49.258Z</time></trkpt><trkpt lat="45.1009283" lon="7.392595"><ele>347.0</ele><time>2026-05-01T08:36:50.259Z</time></trkpt><trkpt lat="45.100945" lon="7.3924367"><ele>347.0</ele><time>2026-05-01T08:36:51.259Z</time></trkpt><trkpt lat="45.1009817" lon="7.3922683"><ele>347.0</ele><time>2026-05-01T08:36:52.258Z</time></trkpt><trkpt lat="45.1010183" lon="7.3921067"><ele>347.0</ele><time>2026-05-01T08:36:53.259Z</time></trkpt><trkpt lat="45.1010567" lon="7.39197"><ele>347.0</ele><time>2026-05-01T08:36:54.259Z</time></trkpt><trkpt lat="45.1010833" lon="7.3918783"><ele>347.0</ele><time>2026-05-01T08:36:55.259Z</time></trkpt><trkpt lat="45.1011167" lon="7.391775"><ele>347.0</ele><time>2026-05-01T08:36:57.258Z</time></trkpt><trkpt lat="45.1011067" lon="7.3916817"><ele>347.0</ele><time>2026-05-01T08:37:01.259Z</time></trkpt><trkpt lat="45.10114" lon="7.39157"><ele>347.0</ele><time>2026-05-01T08:37:04.258Z</time></trkpt><trkpt lat="45.10116" lon="7.3914633"><ele>347.0</ele><time>2026-05-01T08:37:07.259Z</time></trkpt><trkpt lat="45.1012283" lon="7.391375"><ele>347.0</ele><time>2026-05-01T08:37:33.259Z</time></trkpt><trkpt lat="45.1012433" lon="7.391465"><ele>347.0</ele><time>2026-05-01T08:56:20.258Z</time></trkpt><trkpt lat="45.1012617" lon="7.391375"><ele>347.0</ele><time>2026-05-01T08:56:23.257Z</time></trkpt><trkpt lat="45.10128" lon="7.39127"><ele>347.0</ele><time>2026-05-01T08:56:25.258Z</time></trkpt><trkpt lat="45.101295" lon="7.3911667"><ele>347.0</ele><time>2026-05-01T08:56:27.258Z</time></trkpt><trkpt lat="45.101315" lon="7.391075"><ele>347.0</ele><time>2026-05-01T08:56:29.258Z</time></trkpt><trkpt lat="45.101345" lon="7.3909717"><ele>347.0</ele><time>2026-05-01T08:56:32.258Z</time></trkpt><trkpt lat="45.101345" lon="7.390845"><ele>347.0</ele><time>2026-05-01T08:57:14.257Z</time></trkpt><trkpt lat="45.1013667" lon="7.3907167"><ele>347.0</ele><time>2026-05-01T08:57:16.258Z</time></trkpt><trkpt lat="45.1013983" lon="7.3905533"><ele>347.0</ele><time>2026-05-01T08:57:18.258Z</time></trkpt><trkpt lat="45.101415" lon="7.3904567"><ele>347.0</ele><time>2026-05-01T08:57:19.258Z</time></trkpt><trkpt lat="45.1014367" lon="7.3903517"><ele>347.0</ele><time>2026-05-01T08:57:20.258Z</time></trkpt><trkpt lat="45.1014617" lon="7.3902183"><ele>347.0</ele><time>2026-05-01T08:57:21.257Z</time></trkpt><trkpt lat="45.1014883" lon="7.39003"><ele>347.0</ele><time>2026-05-01T08:57:22.258Z</time></trkpt><trkpt lat="45.101525" lon="7.38986"><ele>347.0</ele><time>2026-05-01T08:57:23.257Z</time></trkpt><trkpt lat="45.1015667" lon="7.38968"><ele>347.0</ele><time>2026-05-01T08:57:24.258Z</time></trkpt><trkpt lat="45.1016133" lon="7.3894717"><ele>347.0</ele><time>2026-05-01T08:57:25.257Z</time></trkpt><trkpt lat="45.1016533" lon="7.389275"><ele>347.0</ele><time>2026-05-01T08:57:26.257Z</time></trkpt><trkpt lat="45.101695" lon="7.3890633"><ele>347.0</ele><time>2026-05-01T08:57:27.258Z</time></trkpt><trkpt lat="45.1017333" lon="7.3888433"><ele>347.0</ele><time>2026-05-01T08:57:28.258Z</time></trkpt><trkpt lat="45.10177" lon="7.3886433"><ele>347.0</ele><time>2026-05-01T08:57:29.258Z</time></trkpt><trkpt lat="45.1018083" lon="7.38846"><ele>347.0</ele><time>2026-05-01T08:57:30.258Z</time></trkpt><trkpt lat="45.1018417" lon="7.3882883"><ele>347.0</ele><time>2026-05-01T08:57:31.257Z</time></trkpt><trkpt lat="45.1018667" lon="7.3881167"><ele>347.0</ele><time>2026-05-01T08:57:32.257Z</time></trkpt><trkpt lat="45.1018883" lon="7.387935"><ele>347.0</ele><time>2026-05-01T08:57:33.257Z</time></trkpt><trkpt lat="45.1019167" lon="7.3877383"><ele>347.0</ele><time>2026-05-01T08:57:34.257Z</time></trkpt><trkpt lat="45.10196" lon="7.38753"><ele>347.33333333333337</ele><time>2026-05-01T08:57:35.258Z</time></trkpt><trkpt lat="45.1019783" lon="7.387315"><ele>347.6666666666667</ele><time>2026-05-01T08:57:36.257Z</time></trkpt><trkpt lat="45.10198" lon="7.3870983"><ele>348.0</ele><time>2026-05-01T08:57:37.257Z</time></trkpt><trkpt lat="45.1020117" lon="7.386875"><ele>348.0</ele><time>2026-05-01T08:57:38.258Z</time></trkpt><trkpt lat="45.1020483" lon="7.386655"><ele>348.0</ele><time>2026-05-01T08:57:39.258Z</time></trkpt><trkpt lat="45.1020767" lon="7.3864217"><ele>348.0</ele><time>2026-05-01T08:57:40.257Z</time></trkpt><trkpt lat="45.1021033" lon="7.386185"><ele>348.0</ele><time>2026-05-01T08:57:41.257Z</time></trkpt><trkpt lat="45.10212" lon="7.3859383"><ele>348.0</ele><time>2026-05-01T08:57:42.258Z</time></trkpt><trkpt lat="45.1021433" lon="7.385665"><ele>348.0</ele><time>2026-05-01T08:57:43.257Z</time></trkpt><trkpt lat="45.10218" lon="7.3853817"><ele>348.0</ele><time>2026-05-01T08:57:44.258Z</time></trkpt><trkpt lat="45.10221" lon="7.3850883"><ele>348.0</ele><time>2026-05-01T08:57:45.257Z</time></trkpt><trkpt lat="45.1022317" lon="7.3847967"><ele>348.0</ele><time>2026-05-01T08:57:46.258Z</time></trkpt><trkpt lat="45.1022567" lon="7.384505"><ele>348.3333333333333</ele><time>2026-05-01T08:57:47.258Z</time></trkpt><trkpt lat="45.1022817" lon="7.3842183"><ele>348.66666666666663</ele><time>2026-05-01T08:57:48.258Z</time></trkpt><trkpt lat="45.102315" lon="7.3839483"><ele>349.0</ele><time>2026-05-01T08:57:49.257Z</time></trkpt><trkpt lat="45.1023433" lon="7.3836983"><ele>349.0</ele><time>2026-05-01T08:57:50.257Z</time></trkpt><trkpt lat="45.102365" lon="7.383465"><ele>349.0</ele><time>2026-05-01T08:57:51.257Z</time></trkpt><trkpt lat="45.1023917" lon="7.3832417"><ele>349.0</ele><time>2026-05-01T08:57:52.256Z</time></trkpt><trkpt lat="45.1023983" lon="7.3830267"><ele>349.0</ele><time>2026-05-01T08:57:53.256Z</time></trkpt><trkpt lat="45.1024083" lon="7.38283"><ele>349.0</ele><time>2026-05-01T08:57:54.256Z</time></trkpt><trkpt lat="45.1024117" lon="7.3826417"><ele>349.0</ele><time>2026-05-01T08:57:55.256Z</time></trkpt><trkpt lat="45.1024433" lon="7.3824383"><ele>349.0</ele><time>2026-05-01T08:57:56.257Z</time></trkpt><trkpt lat="45.1024817" lon="7.38226"><ele>349.25</ele><time>2026-05-01T08:57:57.257Z</time></trkpt><trkpt lat="45.1025217" lon="7.382075"><ele>349.5</ele><time>2026-05-01T08:57:58.257Z</time></trkpt><trkpt lat="45.102505" lon="7.38188"><ele>349.75</ele><time>2026-05-01T08:57:59.257Z</time></trkpt><trkpt lat="45.10253" lon="7.3816783"><ele>350.0</ele><time>2026-05-01T08:58:00.256Z</time></trkpt><trkpt lat="45.10256" lon="7.3814667"><ele>350.0</ele><time>2026-05-01T08:58:01.257Z</time></trkpt><trkpt lat="45.1025917" lon="7.38124"><ele>350.0</ele><time>2026-05-01T08:58:02.257Z</time></trkpt><trkpt lat="45.1026083" lon="7.3810033"><ele>350.0</ele><time>2026-05-01T08:58:03.257Z</time></trkpt><trkpt lat="45.1026417" lon="7.3807483"><ele>349.6666666666667</ele><time>2026-05-01T08:58:04.256Z</time></trkpt><trkpt lat="45.1026633" lon="7.38047"><ele>349.3333333333333</ele><time>2026-05-01T08:58:05.256Z</time></trkpt><trkpt lat="45.10269" lon="7.3801767"><ele>349.0</ele><time>2026-05-01T08:58:06.257Z</time></trkpt><trkpt lat="45.102715" lon="7.3798833"><ele>349.0</ele><time>2026-05-01T08:58:07.257Z</time></trkpt><trkpt lat="45.102745" lon="7.3796"><ele>349.0</ele><time>2026-05-01T08:58:08.257Z</time></trkpt><trkpt lat="45.1027767" lon="7.379345"><ele>349.0</ele><time>2026-05-01T08:58:09.257Z</time></trkpt><trkpt lat="45.1027867" lon="7.37909"><ele>349.66666666666663</ele><time>2026-05-01T08:58:10.257Z</time></trkpt><trkpt lat="45.1028" lon="7.3788383"><ele>350.3333333333333</ele><time>2026-05-01T08:58:11.257Z</time></trkpt><trkpt lat="45.10283" lon="7.3785867"><ele>351.0</ele><time>2026-05-01T08:58:12.257Z</time></trkpt><trkpt lat="45.1028533" lon="7.3783383"><ele>351.0</ele><time>2026-05-01T08:58:13.257Z</time></trkpt><trkpt lat="45.10288" lon="7.37811"><ele>351.0</ele><time>2026-05-01T08:58:14.257Z</time></trkpt><trkpt lat="45.10291" lon="7.3778817"><ele>351.0</ele><time>2026-05-01T08:58:15.257Z</time></trkpt><trkpt lat="45.1029733" lon="7.3776667"><ele>351.0</ele><time>2026-05-01T08:58:16.257Z</time></trkpt><trkpt lat="45.10301" lon="7.37744"><ele>351.0</ele><time>2026-05-01T08:58:17.257Z</time></trkpt><trkpt lat="45.1030383" lon="7.3772067"><ele>351.0</ele><time>2026-05-01T08:58:18.257Z</time></trkpt><trkpt lat="45.1030567" lon="7.3769733"><ele>351.0</ele><time>2026-05-01T08:58:19.257Z</time></trkpt><trkpt lat="45.1030733" lon="7.3767567"><ele>351.0</ele><time>2026-05-01T08:58:20.257Z</time></trkpt><trkpt lat="45.1030833" lon="7.376545"><ele>351.0</ele><time>2026-05-01T08:58:21.257Z</time></trkpt><trkpt lat="45.1030967" lon="7.376365"><ele>351.0</ele><time>2026-05-01T08:58:22.257Z</time></trkpt><trkpt lat="45.1031117" lon="7.3761933"><ele>351.0</ele><time>2026-05-01T08:58:23.257Z</time></trkpt><trkpt lat="45.1031317" lon="7.3760533"><ele>351.0</ele><time>2026-05-01T08:58:24.257Z</time></trkpt><trkpt lat="45.1031467" lon="7.3759233"><ele>351.0</ele><time>2026-05-01T08:58:25.257Z</time></trkpt><trkpt lat="45.1031567" lon="7.3757817"><ele>351.0</ele><time>2026-05-01T08:58:26.257Z</time></trkpt><trkpt lat="45.103165" lon="7.375625"><ele>351.0</ele><time>2026-05-01T08:58:27.257Z</time></trkpt><trkpt lat="45.1031617" lon="7.3754617"><ele>351.1666666666667</ele><time>2026-05-01T08:58:28.256Z</time></trkpt><trkpt lat="45.1031617" lon="7.3753233"><ele>351.3333333333333</ele><time>2026-05-01T08:58:29.257Z</time></trkpt><trkpt lat="45.1031717" lon="7.3752033"><ele>351.5</ele><time>2026-05-01T08:58:30.257Z</time></trkpt><trkpt lat="45.1031867" lon="7.3750633"><ele>351.66666666666663</ele><time>2026-05-01T08:58:32.257Z</time></trkpt><trkpt lat="45.1031883" lon="7.3749733"><ele>351.8333333333333</ele><time>2026-05-01T08:58:35.256Z</time></trkpt><trkpt lat="45.1031933" lon="7.374865"><ele>352.0</ele><time>2026-05-01T08:58:37.257Z</time></trkpt><trkpt lat="45.103225" lon="7.374745"><ele>352.0</ele><time>2026-05-01T08:58:39.256Z</time></trkpt><trkpt lat="45.1032833" lon="7.3745867"><ele>352.0</ele><time>2026-05-01T08:58:41.256Z</time></trkpt><trkpt lat="45.1033017" lon="7.3744983"><ele>352.0</ele><time>2026-05-01T08:58:42.257Z</time></trkpt><trkpt lat="45.103315" lon="7.37439"><ele>352.0</ele><time>2026-05-01T08:58:43.256Z</time></trkpt><trkpt lat="45.1033183" lon="7.37426"><ele>352.0</ele><time>2026-05-01T08:58:44.257Z</time></trkpt><trkpt lat="45.1033267" lon="7.3741"><ele>352.0</ele><time>2026-05-01T08:58:45.257Z</time></trkpt><trkpt lat="45.1033567" lon="7.373915"><ele>352.0</ele><time>2026-05-01T08:58:46.256Z</time></trkpt><trkpt lat="45.1033917" lon="7.3737333"><ele>352.0</ele><time>2026-05-01T08:58:47.257Z</time></trkpt><trkpt lat="45.1034183" lon="7.3735717"><ele>352.0</ele><time>2026-05-01T08:58:48.256Z</time></trkpt><trkpt lat="45.1034533" lon="7.37344"><ele>352.0</ele><time>2026-05-01T08:58:49.257Z</time></trkpt><trkpt lat="45.103505" lon="7.3733533"><ele>352.0</ele><time>2026-05-01T08:58:50.257Z</time></trkpt><trkpt lat="45.1035717" lon="7.3733"><ele>352.0</ele><time>2026-05-01T08:58:51.257Z</time></trkpt><trkpt lat="45.1036433" lon="7.3732683"><ele>352.0</ele><time>2026-05-01T08:58:52.256Z</time></trkpt><trkpt lat="45.1037217" lon="7.3732383"><ele>352.0</ele><time>2026-05-01T08:58:53.257Z</time></trkpt><trkpt lat="45.1037867" lon="7.3731733"><ele>352.0</ele><time>2026-05-01T08:58:54.256Z</time></trkpt><trkpt lat="45.1038417" lon="7.373095"><ele>351.8</ele><time>2026-05-01T08:58:55.257Z</time></trkpt><trkpt lat="45.1038783" lon="7.3729967"><ele>351.6</ele><time>2026-05-01T08:58:56.257Z</time></trkpt><trkpt lat="45.103885" lon="7.3728617"><ele>351.40000000000003</ele><time>2026-05-01T08:58:57.257Z</time></trkpt><trkpt lat="45.103885" lon="7.3727133"><ele>351.20000000000005</ele><time>2026-05-01T08:58:58.257Z</time></trkpt><trkpt lat="45.1039" lon="7.3725817"><ele>351.0</ele><time>2026-05-01T08:58:59.257Z</time></trkpt><trkpt lat="45.1039483" lon="7.3724533"><ele>351.0</ele><time>2026-05-01T08:59:00.257Z</time></trkpt><trkpt lat="45.1040133" lon="7.37234"><ele>351.0</ele><time>2026-05-01T08:59:01.257Z</time></trkpt><trkpt lat="45.1040933" lon="7.37222"><ele>351.0</ele><time>2026-05-01T08:59:02.257Z</time></trkpt><trkpt lat="45.1041933" lon="7.3721017"><ele>351.0</ele><time>2026-05-01T08:59:03.256Z</time></trkpt><trkpt lat="45.10429" lon="7.3719717"><ele>351.6666666666667</ele><time>2026-05-01T08:59:04.256Z</time></trkpt><trkpt lat="45.1044083" lon="7.3718233"><ele>352.33333333333337</ele><time>2026-05-01T08:59:05.256Z</time></trkpt><trkpt lat="45.1045433" lon="7.371675"><ele>353.0</ele><time>2026-05-01T08:59:06.257Z</time></trkpt><trkpt lat="45.1046717" lon="7.3715333"><ele>353.0</ele><time>2026-05-01T08:59:07.257Z</time></trkpt><trkpt lat="45.1048033" lon="7.37141"><ele>353.0</ele><time>2026-05-01T08:59:08.256Z</time></trkpt><trkpt lat="45.104935" lon="7.371305"><ele>353.0</ele><time>2026-05-01T08:59:09.257Z</time></trkpt><trkpt lat="45.1050667" lon="7.3712317"><ele>353.6666666666667</ele><time>2026-05-01T08:59:10.256Z</time></trkpt><trkpt lat="45.1051983" lon="7.3711683"><ele>354.3333333333333</ele><time>2026-05-01T08:59:11.257Z</time></trkpt><trkpt lat="45.1053383" lon="7.3711167"><ele>355.0</ele><time>2026-05-01T08:59:12.257Z</time></trkpt><trkpt lat="45.1055017" lon="7.37107"><ele>355.0</ele><time>2026-05-01T08:59:13.257Z</time></trkpt><trkpt lat="45.1056683" lon="7.3710383"><ele>355.0</ele><time>2026-05-01T08:59:14.257Z</time></trkpt><trkpt lat="45.1058667" lon="7.370995"><ele>355.0</ele><time>2026-05-01T08:59:15.257Z</time></trkpt><trkpt lat="45.10604" lon="7.37096"><ele>355.66666666666663</ele><time>2026-05-01T08:59:16.256Z</time></trkpt><trkpt lat="45.106195" lon="7.370945"><ele>356.3333333333333</ele><time>2026-05-01T08:59:17.256Z</time></trkpt><trkpt lat="45.1063517" lon="7.3709283"><ele>357.0</ele><time>2026-05-01T08:59:18.256Z</time></trkpt><trkpt lat="45.1064967" lon="7.370995"><ele>357.3333333333333</ele><time>2026-05-01T08:59:19.257Z</time></trkpt><trkpt lat="45.106645" lon="7.3710017"><ele>357.66666666666663</ele><time>2026-05-01T08:59:20.256Z</time></trkpt><trkpt lat="45.1068233" lon="7.3709733"><ele>358.0</ele><time>2026-05-01T08:59:21.256Z</time></trkpt><trkpt lat="45.10702" lon="7.3709683"><ele>358.0</ele><time>2026-05-01T08:59:22.257Z</time></trkpt><trkpt lat="45.1071867" lon="7.3709567"><ele>358.0</ele><time>2026-05-01T08:59:23.256Z</time></trkpt><trkpt lat="45.1073533" lon="7.37094"><ele>358.0</ele><time>2026-05-01T08:59:24.256Z</time></trkpt><trkpt lat="45.1075217" lon="7.3709033"><ele>359.3333333333333</ele><time>2026-05-01T08:59:25.257Z</time></trkpt><trkpt lat="45.1077117" lon="7.370845"><ele>360.6666666666667</ele><time>2026-05-01T08:59:26.256Z</time></trkpt><trkpt lat="45.10789" lon="7.3707833"><ele>362.0</ele><time>2026-05-01T08:59:27.257Z</time></trkpt><trkpt lat="45.1080633" lon="7.37069"><ele>362.0</ele><time>2026-05-01T08:59:28.257Z</time></trkpt><trkpt lat="45.108225" lon="7.3706067"><ele>362.0</ele><time>2026-05-01T08:59:29.257Z</time></trkpt><trkpt lat="45.10841" lon="7.3705117"><ele>362.0</ele><time>2026-05-01T08:59:30.257Z</time></trkpt><trkpt lat="45.1085967" lon="7.370365"><ele>362.0</ele><time>2026-05-01T08:59:31.256Z</time></trkpt><trkpt lat="45.1087717" lon="7.3702233"><ele>362.0</ele><time>2026-05-01T08:59:32.257Z</time></trkpt><trkpt lat="45.1089517" lon="7.3701"><ele>362.0</ele><time>2026-05-01T08:59:33.256Z</time></trkpt><trkpt lat="45.109145" lon="7.36995"><ele>362.33333333333337</ele><time>2026-05-01T08:59:34.257Z</time></trkpt><trkpt lat="45.1093333" lon="7.3698333"><ele>362.6666666666667</ele><time>2026-05-01T08:59:35.257Z</time></trkpt><trkpt lat="45.109535" lon="7.36964"><ele>363.0</ele><time>2026-05-01T08:59:36.257Z</time></trkpt><trkpt lat="45.10969" lon="7.3694783"><ele>361.3333333333333</ele><time>2026-05-01T08:59:37.257Z</time></trkpt><trkpt lat="45.1098583" lon="7.3692867"><ele>359.66666666666663</ele><time>2026-05-01T08:59:38.257Z</time></trkpt><trkpt lat="45.11002" lon="7.3690733"><ele>358.0</ele><time>2026-05-01T08:59:39.257Z</time></trkpt><trkpt lat="45.1101667" lon="7.3688767"><ele>356.3333333333333</ele><time>2026-05-01T08:59:40.256Z</time></trkpt><trkpt lat="45.1103" lon="7.3686733"><ele>354.6666666666667</ele><time>2026-05-01T08:59:41.257Z</time></trkpt><trkpt lat="45.110425" lon="7.3684567"><ele>353.0</ele><time>2026-05-01T08:59:42.256Z</time></trkpt><trkpt lat="45.1105433" lon="7.3681767"><ele>354.0</ele><time>2026-05-01T08:59:43.256Z</time></trkpt><trkpt lat="45.11066" lon="7.3679083"><ele>355.0</ele><time>2026-05-01T08:59:44.257Z</time></trkpt><trkpt lat="45.11077" lon="7.3676467"><ele>356.0</ele><time>2026-05-01T08:59:45.257Z</time></trkpt><trkpt lat="45.1108883" lon="7.36738"><ele>356.6666666666667</ele><time>2026-05-01T08:59:46.257Z</time></trkpt><trkpt lat="45.110995" lon="7.3671083"><ele>357.3333333333333</ele><time>2026-05-01T08:59:47.257Z</time></trkpt><trkpt lat="45.1110867" lon="7.366825"><ele>358.0</ele><time>2026-05-01T08:59:48.257Z</time></trkpt><trkpt lat="45.111165" lon="7.3665433"><ele>357.0</ele><time>2026-05-01T08:59:49.257Z</time></trkpt><trkpt lat="45.11122" lon="7.3662867"><ele>356.0</ele><time>2026-05-01T08:59:50.257Z</time></trkpt><trkpt lat="45.1112817" lon="7.3660033"><ele>355.0</ele><time>2026-05-01T08:59:51.257Z</time></trkpt><trkpt lat="45.1113467" lon="7.3657083"><ele>355.5</ele><time>2026-05-01T08:59:52.256Z</time></trkpt><trkpt lat="45.1114233" lon="7.3653983"><ele>356.0</ele><time>2026-05-01T08:59:53.256Z</time></trkpt><trkpt lat="45.1115067" lon="7.36509"><ele>356.0</ele><time>2026-05-01T08:59:54.257Z</time></trkpt><trkpt lat="45.1115783" lon="7.3647917"><ele>356.0</ele><time>2026-05-01T08:59:55.257Z</time></trkpt><trkpt lat="45.1116633" lon="7.3644883"><ele>356.0</ele><time>2026-05-01T08:59:56.257Z</time></trkpt><trkpt lat="45.111735" lon="7.364195"><ele>356.0</ele><time>2026-05-01T08:59:57.257Z</time></trkpt><trkpt lat="45.1118" lon="7.3639367"><ele>356.0</ele><time>2026-05-01T08:59:58.257Z</time></trkpt><trkpt lat="45.1118633" lon="7.3636767"><ele>356.0</ele><time>2026-05-01T08:59:59.257Z</time></trkpt><trkpt lat="45.1119333" lon="7.3634333"><ele>356.0</ele><time>2026-05-01T09:00:00.257Z</time></trkpt><trkpt lat="45.1119933" lon="7.3632017"><ele>356.0</ele><time>2026-05-01T09:00:01.257Z</time></trkpt><trkpt lat="45.11204" lon="7.36299"><ele>356.0</ele><time>2026-05-01T09:00:02.257Z</time></trkpt><trkpt lat="45.1120817" lon="7.3628133"><ele>356.0</ele><time>2026-05-01T09:00:03.257Z</time></trkpt><trkpt lat="45.11212" lon="7.362685"><ele>356.0</ele><time>2026-05-01T09:00:04.257Z</time></trkpt><trkpt lat="45.112155" lon="7.36256"><ele>356.0</ele><time>2026-05-01T09:00:05.257Z</time></trkpt><trkpt lat="45.1121867" lon="7.3624567"><ele>356.0</ele><time>2026-05-01T09:00:06.256Z</time></trkpt><trkpt lat="45.1122117" lon="7.3623733"><ele>356.0</ele><time>2026-05-01T09:00:07.257Z</time></trkpt><trkpt lat="45.1122667" lon="7.3622283"><ele>356.0</ele><time>2026-05-01T09:00:09.257Z</time></trkpt><trkpt lat="45.11232" lon="7.3621717"><ele>356.0</ele><time>2026-05-01T09:00:10.257Z</time></trkpt><trkpt lat="45.1123667" lon="7.3621"><ele>356.0</ele><time>2026-05-01T09:00:11.257Z</time></trkpt><trkpt lat="45.1124183" lon="7.3620217"><ele>356.0</ele><time>2026-05-01T09:00:12.257Z</time></trkpt><trkpt lat="45.1124467" lon="7.361925"><ele>356.0</ele><time>2026-05-01T09:00:13.257Z</time></trkpt><trkpt lat="45.1124567" lon="7.3618083"><ele>356.0</ele><time>2026-05-01T09:00:14.256Z</time></trkpt><trkpt lat="45.1124567" lon="7.3616617"><ele>356.0</ele><time>2026-05-01T09:00:15.256Z</time></trkpt><trkpt lat="45.112475" lon="7.3614867"><ele>356.0</ele><time>2026-05-01T09:00:16.257Z</time></trkpt><trkpt lat="45.1125117" lon="7.361295"><ele>356.0</ele><time>2026-05-01T09:00:17.257Z</time></trkpt><trkpt lat="45.11256" lon="7.3610917"><ele>356.0</ele><time>2026-05-01T09:00:18.256Z</time></trkpt><trkpt lat="45.112605" lon="7.3608667"><ele>356.0</ele><time>2026-05-01T09:00:19.257Z</time></trkpt><trkpt lat="45.11266" lon="7.36063"><ele>356.0</ele><time>2026-05-01T09:00:20.257Z</time></trkpt><trkpt lat="45.11272" lon="7.3603683"><ele>356.5</ele><time>2026-05-01T09:00:21.256Z</time></trkpt><trkpt lat="45.1127817" lon="7.36008"><ele>357.0</ele><time>2026-05-01T09:00:22.257Z</time></trkpt><trkpt lat="45.1128617" lon="7.3597517"><ele>358.0</ele><time>2026-05-01T09:00:23.257Z</time></trkpt><trkpt lat="45.1129383" lon="7.3594117"><ele>359.0</ele><time>2026-05-01T09:00:24.257Z</time></trkpt><trkpt lat="45.1130183" lon="7.359085"><ele>358.5</ele><time>2026-05-01T09:00:25.257Z</time></trkpt><trkpt lat="45.1131017" lon="7.3587667"><ele>358.0</ele><time>2026-05-01T09:00:26.257Z</time></trkpt><trkpt lat="45.1132033" lon="7.3584483"><ele>357.0</ele><time>2026-05-01T09:00:27.256Z</time></trkpt><trkpt lat="45.1132933" lon="7.3581317"><ele>356.0</ele><time>2026-05-01T09:00:28.257Z</time></trkpt><trkpt lat="45.1133767" lon="7.35781"><ele>356.0</ele><time>2026-05-01T09:00:29.257Z</time></trkpt><trkpt lat="45.1134733" lon="7.357525"><ele>356.0</ele><time>2026-05-01T09:00:30.256Z</time></trkpt><trkpt lat="45.1135283" lon="7.3571983"><ele>356.0</ele><time>2026-05-01T09:00:31.256Z</time></trkpt><trkpt lat="45.113565" lon="7.3568683"><ele>356.0</ele><time>2026-05-01T09:00:32.256Z</time></trkpt><trkpt lat="45.1135983" lon="7.3565417"><ele>357.0</ele><time>2026-05-01T09:00:33.257Z</time></trkpt><trkpt lat="45.11361" lon="7.3562017"><ele>358.0</ele><time>2026-05-01T09:00:34.257Z</time></trkpt><trkpt lat="45.1135883" lon="7.3558683"><ele>358.0</ele><time>2026-05-01T09:00:35.257Z</time></trkpt><trkpt lat="45.11357" lon="7.3555517"><ele>358.0</ele><time>2026-05-01T09:00:36.257Z</time></trkpt><trkpt lat="45.1135483" lon="7.3552483"><ele>358.0</ele><time>2026-05-01T09:00:37.256Z</time></trkpt><trkpt lat="45.1135017" lon="7.3549333"><ele>357.66666666666663</ele><time>2026-05-01T09:00:38.256Z</time></trkpt><trkpt lat="45.1134783" lon="7.3546333"><ele>357.3333333333333</ele><time>2026-05-01T09:00:39.257Z</time></trkpt><trkpt lat="45.1134667" lon="7.3543517"><ele>357.0</ele><time>2026-05-01T09:00:40.257Z</time></trkpt><trkpt lat="45.113455" lon="7.3540333"><ele>356.5</ele><time>2026-05-01T09:00:41.257Z</time></trkpt><trkpt lat="45.1134417" lon="7.3537017"><ele>356.0</ele><time>2026-05-01T09:00:42.257Z</time></trkpt><trkpt lat="45.1134283" lon="7.3533583"><ele>357.0</ele><time>2026-05-01T09:00:43.257Z</time></trkpt><trkpt lat="45.113405" lon="7.353005"><ele>358.0</ele><time>2026-05-01T09:00:44.257Z</time></trkpt><trkpt lat="45.11339" lon="7.3526517"><ele>358.0</ele><time>2026-05-01T09:00:45.257Z</time></trkpt><trkpt lat="45.1133733" lon="7.3522917"><ele>358.0</ele><time>2026-05-01T09:00:46.257Z</time></trkpt><trkpt lat="45.11336" lon="7.3519183"><ele>358.0</ele><time>2026-05-01T09:00:47.257Z</time></trkpt><trkpt lat="45.1133517" lon="7.3515383"><ele>358.0</ele><time>2026-05-01T09:00:48.257Z</time></trkpt><trkpt lat="45.1133483" lon="7.3511833"><ele>358.5</ele><time>2026-05-01T09:00:49.257Z</time></trkpt><trkpt lat="45.1133417" lon="7.3508167"><ele>359.0</ele><time>2026-05-01T09:00:50.257Z</time></trkpt><trkpt lat="45.1133367" lon="7.350455"><ele>359.0</ele><time>2026-05-01T09:00:51.257Z</time></trkpt><trkpt lat="45.11333" lon="7.3500917"><ele>359.0</ele><time>2026-05-01T09:00:52.257Z</time></trkpt><trkpt lat="45.1133233" lon="7.3497233"><ele>358.0</ele><time>2026-05-01T09:00:53.257Z</time></trkpt><trkpt lat="45.1133167" lon="7.3493533"><ele>357.0</ele><time>2026-05-01T09:00:54.256Z</time></trkpt><trkpt lat="45.11331" lon="7.3489783"><ele>357.5</ele><time>2026-05-01T09:00:55.257Z</time></trkpt><trkpt lat="45.1132933" lon="7.348595"><ele>358.0</ele><time>2026-05-01T09:00:56.257Z</time></trkpt><trkpt lat="45.113305" lon="7.348215"><ele>358.5</ele><time>2026-05-01T09:00:57.257Z</time></trkpt><trkpt lat="45.1132833" lon="7.347835"><ele>359.0</ele><time>2026-05-01T09:00:58.257Z</time></trkpt><trkpt lat="45.1132533" lon="7.3474633"><ele>357.5</ele><time>2026-05-01T09:00:59.256Z</time></trkpt><trkpt lat="45.1132217" lon="7.3470717"><ele>356.0</ele><time>2026-05-01T09:01:00.257Z</time></trkpt><trkpt lat="45.11321" lon="7.3466983"><ele>356.0</ele><time>2026-05-01T09:01:01.257Z</time></trkpt><trkpt lat="45.1131767" lon="7.346295"><ele>356.0</ele><time>2026-05-01T09:01:02.257Z</time></trkpt><trkpt lat="45.1131617" lon="7.345915"><ele>356.0</ele><time>2026-05-01T09:01:03.257Z</time></trkpt><trkpt lat="45.11315" lon="7.3455333"><ele>356.0</ele><time>2026-05-01T09:01:04.257Z</time></trkpt><trkpt lat="45.1131383" lon="7.34516"><ele>356.0</ele><time>2026-05-01T09:01:05.257Z</time></trkpt><trkpt lat="45.113125" lon="7.3447883"><ele>356.0</ele><time>2026-05-01T09:01:06.257Z</time></trkpt><trkpt lat="45.11312" lon="7.3444333"><ele>356.5</ele><time>2026-05-01T09:01:07.256Z</time></trkpt><trkpt lat="45.1131117" lon="7.34409"><ele>357.0</ele><time>2026-05-01T09:01:08.257Z</time></trkpt><trkpt lat="45.1131033" lon="7.343765"><ele>357.6666666666667</ele><time>2026-05-01T09:01:09.257Z</time></trkpt><trkpt lat="45.1130933" lon="7.3434583"><ele>358.33333333333337</ele><time>2026-05-01T09:01:10.256Z</time></trkpt><trkpt lat="45.113075" lon="7.343185"><ele>359.0</ele><time>2026-05-01T09:01:11.257Z</time></trkpt><trkpt lat="45.1130667" lon="7.342925"><ele>359.0</ele><time>2026-05-01T09:01:12.257Z</time></trkpt><trkpt lat="45.113055" lon="7.3426667"><ele>359.0</ele><time>2026-05-01T09:01:13.257Z</time></trkpt><trkpt lat="45.1130417" lon="7.3424017"><ele>359.0</ele><time>2026-05-01T09:01:14.256Z</time></trkpt><trkpt lat="45.1130267" lon="7.3421383"><ele>360.0</ele><time>2026-05-01T09:01:15.257Z</time></trkpt><trkpt lat="45.1130117" lon="7.3418433"><ele>361.0</ele><time>2026-05-01T09:01:16.257Z</time></trkpt><trkpt lat="45.1129883" lon="7.34154"><ele>362.0</ele><time>2026-05-01T09:01:17.257Z</time></trkpt><trkpt lat="45.1129733" lon="7.3412367"><ele>362.33333333333337</ele><time>2026-05-01T09:01:18.256Z</time></trkpt><trkpt lat="45.1129633" lon="7.34093"><ele>362.6666666666667</ele><time>2026-05-01T09:01:19.257Z</time></trkpt><trkpt lat="45.1129467" lon="7.34063"><ele>363.0</ele><time>2026-05-01T09:01:20.257Z</time></trkpt><trkpt lat="45.11295" lon="7.3403267"><ele>363.0</ele><time>2026-05-01T09:01:21.257Z</time></trkpt><trkpt lat="45.1129367" lon="7.3400083"><ele>363.0</ele><time>2026-05-01T09:01:22.257Z</time></trkpt><trkpt lat="45.1129167" lon="7.33969"><ele>361.5</ele><time>2026-05-01T09:01:23.256Z</time></trkpt><trkpt lat="45.1129" lon="7.3393633"><ele>360.0</ele><time>2026-05-01T09:01:24.257Z</time></trkpt><trkpt lat="45.1128883" lon="7.3390467"><ele>360.6666666666667</ele><time>2026-05-01T09:01:25.256Z</time></trkpt><trkpt lat="45.11287" lon="7.338765"><ele>361.33333333333337</ele><time>2026-05-01T09:01:26.257Z</time></trkpt><trkpt lat="45.1128433" lon="7.3384717"><ele>362.0</ele><time>2026-05-01T09:01:27.257Z</time></trkpt><trkpt lat="45.1128117" lon="7.338135"><ele>362.5</ele><time>2026-05-01T09:01:28.257Z</time></trkpt><trkpt lat="45.1127983" lon="7.3378"><ele>363.0</ele><time>2026-05-01T09:01:29.257Z</time></trkpt><trkpt lat="45.1127983" lon="7.3374633"><ele>363.6666666666667</ele><time>2026-05-01T09:01:30.256Z</time></trkpt><trkpt lat="45.1127883" lon="7.337145"><ele>364.33333333333337</ele><time>2026-05-01T09:01:31.256Z</time></trkpt><trkpt lat="45.1127817" lon="7.3368467"><ele>365.0</ele><time>2026-05-01T09:01:32.256Z</time></trkpt><trkpt lat="45.11277" lon="7.3365617"><ele>365.0</ele><time>2026-05-01T09:01:33.256Z</time></trkpt><trkpt lat="45.11276" lon="7.33628"><ele>365.0</ele><time>2026-05-01T09:01:34.257Z</time></trkpt><trkpt lat="45.1127533" lon="7.3359983"><ele>365.0</ele><time>2026-05-01T09:01:35.257Z</time></trkpt><trkpt lat="45.112745" lon="7.3357083"><ele>365.33333333333337</ele><time>2026-05-01T09:01:36.257Z</time></trkpt><trkpt lat="45.1127317" lon="7.3354217"><ele>365.6666666666667</ele><time>2026-05-01T09:01:37.256Z</time></trkpt><trkpt lat="45.1127267" lon="7.3351483"><ele>366.0</ele><time>2026-05-01T09:01:38.257Z</time></trkpt><trkpt lat="45.112725" lon="7.3348633"><ele>366.0</ele><time>2026-05-01T09:01:39.257Z</time></trkpt><trkpt lat="45.1127183" lon="7.3345533"><ele>366.0</ele><time>2026-05-01T09:01:40.256Z</time></trkpt><trkpt lat="45.11274" lon="7.334235"><ele>366.0</ele><time>2026-05-01T09:01:41.257Z</time></trkpt><trkpt lat="45.1127483" lon="7.3338967"><ele>366.0</ele><time>2026-05-01T09:01:42.257Z</time></trkpt><trkpt lat="45.1127567" lon="7.3335317"><ele>366.0</ele><time>2026-05-01T09:01:43.257Z</time></trkpt><trkpt lat="45.1127883" lon="7.333175"><ele>365.5</ele><time>2026-05-01T09:01:44.257Z</time></trkpt><trkpt lat="45.1128267" lon="7.33283"><ele>365.0</ele><time>2026-05-01T09:01:45.257Z</time></trkpt><trkpt lat="45.1128633" lon="7.33251"><ele>367.0</ele><time>2026-05-01T09:01:46.257Z</time></trkpt><trkpt lat="45.1129067" lon="7.3321833"><ele>369.0</ele><time>2026-05-01T09:01:47.257Z</time></trkpt><trkpt lat="45.11293" lon="7.3318767"><ele>369.0</ele><time>2026-05-01T09:01:48.257Z</time></trkpt><trkpt lat="45.1129367" lon="7.331575"><ele>369.0</ele><time>2026-05-01T09:01:49.257Z</time></trkpt><trkpt lat="45.1129767" lon="7.3312983"><ele>369.0</ele><time>2026-05-01T09:01:50.257Z</time></trkpt><trkpt lat="45.1130133" lon="7.3310367"><ele>368.6666666666667</ele><time>2026-05-01T09:01:51.257Z</time></trkpt><trkpt lat="45.1130433" lon="7.3307767"><ele>368.33333333333337</ele><time>2026-05-01T09:01:52.257Z</time></trkpt><trkpt lat="45.1130733" lon="7.3305317"><ele>368.0</ele><time>2026-05-01T09:01:53.257Z</time></trkpt><trkpt lat="45.1130933" lon="7.330305"><ele>367.6666666666667</ele><time>2026-05-01T09:01:54.257Z</time></trkpt><trkpt lat="45.1131067" lon="7.33009"><ele>367.3333333333333</ele><time>2026-05-01T09:01:55.256Z</time></trkpt><trkpt lat="45.1131167" lon="7.3298667"><ele>367.0</ele><time>2026-05-01T09:01:56.257Z</time></trkpt><trkpt lat="45.113125" lon="7.3296533"><ele>366.66666666666663</ele><time>2026-05-01T09:01:57.257Z</time></trkpt><trkpt lat="45.11314" lon="7.3294367"><ele>366.3333333333333</ele><time>2026-05-01T09:01:58.256Z</time></trkpt><trkpt lat="45.1131583" lon="7.329215"><ele>366.0</ele><time>2026-05-01T09:01:59.257Z</time></trkpt><trkpt lat="45.11316" lon="7.3289733"><ele>365.3333333333333</ele><time>2026-05-01T09:02:00.257Z</time></trkpt><trkpt lat="45.11315" lon="7.3287333"><ele>364.66666666666663</ele><time>2026-05-01T09:02:01.257Z</time></trkpt><trkpt lat="45.1131233" lon="7.3284767"><ele>364.0</ele><time>2026-05-01T09:02:02.257Z</time></trkpt><trkpt lat="45.11309" lon="7.3282467"><ele>364.0</ele><time>2026-05-01T09:02:03.257Z</time></trkpt><trkpt lat="45.1130483" lon="7.328025"><ele>364.0</ele><time>2026-05-01T09:02:04.257Z</time></trkpt><trkpt lat="45.1129967" lon="7.327825"><ele>364.0</ele><time>2026-05-01T09:02:05.257Z</time></trkpt><trkpt lat="45.1129583" lon="7.3276583"><ele>364.0</ele><time>2026-05-01T09:02:06.256Z</time></trkpt><trkpt lat="45.11293" lon="7.327525"><ele>364.0</ele><time>2026-05-01T09:02:07.257Z</time></trkpt><trkpt lat="45.11291" lon="7.3274117"><ele>364.0</ele><time>2026-05-01T09:02:08.256Z</time></trkpt><trkpt lat="45.112895" lon="7.3272683"><ele>364.0</ele><time>2026-05-01T09:02:10.256Z</time></trkpt><trkpt lat="45.11293" lon="7.3271833"><ele>364.0</ele><time>2026-05-01T09:02:12.257Z</time></trkpt><trkpt lat="45.112975" lon="7.3270767"><ele>364.0</ele><time>2026-05-01T09:02:14.256Z</time></trkpt><trkpt lat="45.1129617" lon="7.326915"><ele>364.0</ele><time>2026-05-01T09:02:16.257Z</time></trkpt><trkpt lat="45.1129117" lon="7.3268233"><ele>364.0</ele><time>2026-05-01T09:02:17.257Z</time></trkpt><trkpt lat="45.1128467" lon="7.3267283"><ele>364.0</ele><time>2026-05-01T09:02:18.257Z</time></trkpt><trkpt lat="45.1127517" lon="7.32663"><ele>364.0</ele><time>2026-05-01T09:02:19.257Z</time></trkpt><trkpt lat="45.112645" lon="7.326495"><ele>364.0</ele><time>2026-05-01T09:02:20.257Z</time></trkpt><trkpt lat="45.11254" lon="7.3263283"><ele>364.0</ele><time>2026-05-01T09:02:21.257Z</time></trkpt><trkpt lat="45.1124383" lon="7.3261233"><ele>364.0</ele><time>2026-05-01T09:02:22.257Z</time></trkpt><trkpt lat="45.112325" lon="7.3258883"><ele>364.0</ele><time>2026-05-01T09:02:23.256Z</time></trkpt><trkpt lat="45.1122133" lon="7.3256533"><ele>365.0</ele><time>2026-05-01T09:02:24.257Z</time></trkpt><trkpt lat="45.11211" lon="7.32542"><ele>366.0</ele><time>2026-05-01T09:02:25.257Z</time></trkpt><trkpt lat="45.112005" lon="7.3251583"><ele>367.0</ele><time>2026-05-01T09:02:26.257Z</time></trkpt><trkpt lat="45.1118867" lon="7.32489"><ele>367.0</ele><time>2026-05-01T09:02:27.257Z</time></trkpt><trkpt lat="45.1117617" lon="7.324605"><ele>367.0</ele><time>2026-05-01T09:02:28.257Z</time></trkpt><trkpt lat="45.111645" lon="7.3243267"><ele>366.5</ele><time>2026-05-01T09:02:29.257Z</time></trkpt><trkpt lat="45.1115267" lon="7.3240417"><ele>366.0</ele><time>2026-05-01T09:02:30.256Z</time></trkpt><trkpt lat="45.1114067" lon="7.32375"><ele>366.0</ele><time>2026-05-01T09:02:31.256Z</time></trkpt><trkpt lat="45.111285" lon="7.3234583"><ele>366.0</ele><time>2026-05-01T09:02:32.256Z</time></trkpt><trkpt lat="45.1111733" lon="7.32318"><ele>365.0</ele><time>2026-05-01T09:02:33.257Z</time></trkpt><trkpt lat="45.1110567" lon="7.3228967"><ele>364.0</ele><time>2026-05-01T09:02:34.257Z</time></trkpt><trkpt lat="45.1109333" lon="7.3226067"><ele>364.0</ele><time>2026-05-01T09:02:35.257Z</time></trkpt><trkpt lat="45.1108067" lon="7.3223267"><ele>364.0</ele><time>2026-05-01T09:02:36.257Z</time></trkpt><trkpt lat="45.1106917" lon="7.3220333"><ele>365.0</ele><time>2026-05-01T09:02:37.256Z</time></trkpt><trkpt lat="45.11059" lon="7.3217417"><ele>366.0</ele><time>2026-05-01T09:02:38.257Z</time></trkpt><trkpt lat="45.1104917" lon="7.3214467"><ele>366.3333333333333</ele><time>2026-05-01T09:02:39.257Z</time></trkpt><trkpt lat="45.1103767" lon="7.32118"><ele>366.66666666666663</ele><time>2026-05-01T09:02:40.257Z</time></trkpt><trkpt lat="45.1102717" lon="7.32093"><ele>367.0</ele><time>2026-05-01T09:02:41.257Z</time></trkpt><trkpt lat="45.1101867" lon="7.3206783"><ele>366.3333333333333</ele><time>2026-05-01T09:02:42.257Z</time></trkpt><trkpt lat="45.1101033" lon="7.3204533"><ele>365.6666666666667</ele><time>2026-05-01T09:02:43.257Z</time></trkpt><trkpt lat="45.1100233" lon="7.320225"><ele>365.0</ele><time>2026-05-01T09:02:44.256Z</time></trkpt><trkpt lat="45.10995" lon="7.319995"><ele>365.33333333333337</ele><time>2026-05-01T09:02:45.257Z</time></trkpt><trkpt lat="45.1098817" lon="7.3197767"><ele>365.6666666666667</ele><time>2026-05-01T09:02:46.257Z</time></trkpt><trkpt lat="45.1098433" lon="7.319585"><ele>366.0</ele><time>2026-05-01T09:02:47.256Z</time></trkpt><trkpt lat="45.10979" lon="7.319385"><ele>366.0</ele><time>2026-05-01T09:02:48.257Z</time></trkpt><trkpt lat="45.1097567" lon="7.3192067"><ele>366.0</ele><time>2026-05-01T09:02:49.257Z</time></trkpt><trkpt lat="45.10973" lon="7.31904"><ele>366.0</ele><time>2026-05-01T09:02:50.256Z</time></trkpt><trkpt lat="45.1097017" lon="7.3188767"><ele>366.0</ele><time>2026-05-01T09:02:51.256Z</time></trkpt><trkpt lat="45.109685" lon="7.3187033"><ele>366.0</ele><time>2026-05-01T09:02:52.256Z</time></trkpt><trkpt lat="45.1096783" lon="7.31852"><ele>366.0</ele><time>2026-05-01T09:02:53.257Z</time></trkpt><trkpt lat="45.10967" lon="7.3183333"><ele>366.0</ele><time>2026-05-01T09:02:54.257Z</time></trkpt><trkpt lat="45.1096683" lon="7.318135"><ele>366.0</ele><time>2026-05-01T09:02:55.257Z</time></trkpt><trkpt lat="45.1096717" lon="7.3179417"><ele>366.3333333333333</ele><time>2026-05-01T09:02:56.257Z</time></trkpt><trkpt lat="45.1096767" lon="7.317725"><ele>366.66666666666663</ele><time>2026-05-01T09:02:57.257Z</time></trkpt><trkpt lat="45.109675" lon="7.3174783"><ele>367.0</ele><time>2026-05-01T09:02:58.257Z</time></trkpt><trkpt lat="45.1096667" lon="7.3172283"><ele>367.66666666666663</ele><time>2026-05-01T09:02:59.257Z</time></trkpt><trkpt lat="45.1096617" lon="7.3169733"><ele>368.3333333333333</ele><time>2026-05-01T09:03:00.257Z</time></trkpt><trkpt lat="45.1096617" lon="7.3167333"><ele>369.0</ele><time>2026-05-01T09:03:01.256Z</time></trkpt><trkpt lat="45.1096633" lon="7.3165133"><ele>368.75</ele><time>2026-05-01T09:03:02.257Z</time></trkpt><trkpt lat="45.109665" lon="7.316305"><ele>368.5</ele><time>2026-05-01T09:03:03.256Z</time></trkpt><trkpt lat="45.109665" lon="7.3160933"><ele>368.25</ele><time>2026-05-01T09:03:04.257Z</time></trkpt><trkpt lat="45.109665" lon="7.315895"><ele>368.0</ele><time>2026-05-01T09:03:05.257Z</time></trkpt><trkpt lat="45.1096567" lon="7.315695"><ele>368.1666666666667</ele><time>2026-05-01T09:03:06.257Z</time></trkpt><trkpt lat="45.1096717" lon="7.315545"><ele>368.33333333333337</ele><time>2026-05-01T09:03:07.257Z</time></trkpt><trkpt lat="45.1096617" lon="7.315425"><ele>368.5</ele><time>2026-05-01T09:03:08.256Z</time></trkpt><trkpt lat="45.1096583" lon="7.3153133"><ele>368.6666666666667</ele><time>2026-05-01T09:03:09.256Z</time></trkpt><trkpt lat="45.10966" lon="7.3152133"><ele>368.8333333333333</ele><time>2026-05-01T09:03:10.256Z</time></trkpt><trkpt lat="45.109665" lon="7.3151217"><ele>369.0</ele><time>2026-05-01T09:03:11.256Z</time></trkpt><trkpt lat="45.1096683" lon="7.3149667"><ele>369.0</ele><time>2026-05-01T09:03:13.257Z</time></trkpt><trkpt lat="45.1097033" lon="7.3148333"><ele>369.0</ele><time>2026-05-01T09:03:15.256Z</time></trkpt><trkpt lat="45.1097033" lon="7.314715"><ele>369.0</ele><time>2026-05-01T09:03:17.257Z</time></trkpt><trkpt lat="45.1096867" lon="7.3145433"><ele>369.0</ele><time>2026-05-01T09:03:19.257Z</time></trkpt><trkpt lat="45.1096717" lon="7.3144367"><ele>369.0</ele><time>2026-05-01T09:03:20.257Z</time></trkpt><trkpt lat="45.1096517" lon="7.3143133"><ele>368.6666666666667</ele><time>2026-05-01T09:03:21.257Z</time></trkpt><trkpt lat="45.10963" lon="7.3141467"><ele>368.33333333333337</ele><time>2026-05-01T09:03:22.257Z</time></trkpt><trkpt lat="45.1096267" lon="7.313935"><ele>368.0</ele><time>2026-05-01T09:03:23.257Z</time></trkpt><trkpt lat="45.1096267" lon="7.313665"><ele>368.0</ele><time>2026-05-01T09:03:24.256Z</time></trkpt><trkpt lat="45.10965" lon="7.313355"><ele>368.0</ele><time>2026-05-01T09:03:25.256Z</time></trkpt><trkpt lat="45.1097067" lon="7.313035"><ele>368.0</ele><time>2026-05-01T09:03:26.257Z</time></trkpt><trkpt lat="45.1097933" lon="7.3127433"><ele>368.0</ele><time>2026-05-01T09:03:27.257Z</time></trkpt><trkpt lat="45.10988" lon="7.3124783"><ele>368.0</ele><time>2026-05-01T09:03:28.256Z</time></trkpt><trkpt lat="45.1099733" lon="7.3122383"><ele>368.33333333333337</ele><time>2026-05-01T09:03:29.257Z</time></trkpt><trkpt lat="45.1100783" lon="7.311985"><ele>368.6666666666667</ele><time>2026-05-01T09:03:30.257Z</time></trkpt><trkpt lat="45.11019" lon="7.3117033"><ele>369.0</ele><time>2026-05-01T09:03:31.257Z</time></trkpt><trkpt lat="45.110315" lon="7.31141"><ele>369.0</ele><time>2026-05-01T09:03:32.257Z</time></trkpt><trkpt lat="45.1104333" lon="7.3111317"><ele>369.0</ele><time>2026-05-01T09:03:33.256Z</time></trkpt><trkpt lat="45.1105567" lon="7.3108483"><ele>369.0</ele><time>2026-05-01T09:03:34.256Z</time></trkpt><trkpt lat="45.110685" lon="7.3105883"><ele>369.0</ele><time>2026-05-01T09:03:35.257Z</time></trkpt><trkpt lat="45.1108167" lon="7.3103267"><ele>368.5</ele><time>2026-05-01T09:03:36.257Z</time></trkpt><trkpt lat="45.11094" lon="7.3100517"><ele>368.0</ele><time>2026-05-01T09:03:37.257Z</time></trkpt><trkpt lat="45.11107" lon="7.3097717"><ele>369.5</ele><time>2026-05-01T09:03:38.257Z</time></trkpt><trkpt lat="45.1111917" lon="7.3094817"><ele>371.0</ele><time>2026-05-01T09:03:39.257Z</time></trkpt><trkpt lat="45.1113167" lon="7.3091783"><ele>371.6666666666667</ele><time>2026-05-01T09:03:40.257Z</time></trkpt><trkpt lat="45.1114283" lon="7.308905"><ele>372.3333333333333</ele><time>2026-05-01T09:03:41.257Z</time></trkpt><trkpt lat="45.1115417" lon="7.3086667"><ele>373.0</ele><time>2026-05-01T09:03:42.257Z</time></trkpt><trkpt lat="45.11164" lon="7.30844"><ele>373.3333333333333</ele><time>2026-05-01T09:03:43.257Z</time></trkpt><trkpt lat="45.11174" lon="7.308225"><ele>373.6666666666667</ele><time>2026-05-01T09:03:44.257Z</time></trkpt><trkpt lat="45.1118317" lon="7.3079933"><ele>374.0</ele><time>2026-05-01T09:03:45.257Z</time></trkpt><trkpt lat="45.11193" lon="7.3077667"><ele>374.0</ele><time>2026-05-01T09:03:46.257Z</time></trkpt><trkpt lat="45.1120283" lon="7.30755"><ele>374.0</ele><time>2026-05-01T09:03:47.257Z</time></trkpt><trkpt lat="45.112135" lon="7.3073333"><ele>374.0</ele><time>2026-05-01T09:03:48.257Z</time></trkpt><trkpt lat="45.11224" lon="7.307115"><ele>374.0</ele><time>2026-05-01T09:03:49.257Z</time></trkpt><trkpt lat="45.1123483" lon="7.306885"><ele>374.0</ele><time>2026-05-01T09:03:50.257Z</time></trkpt><trkpt lat="45.112455" lon="7.306645"><ele>374.0</ele><time>2026-05-01T09:03:51.257Z</time></trkpt><trkpt lat="45.1125667" lon="7.3064033"><ele>375.33333333333337</ele><time>2026-05-01T09:03:52.257Z</time></trkpt><trkpt lat="45.1126883" lon="7.3061433"><ele>376.6666666666667</ele><time>2026-05-01T09:03:53.257Z</time></trkpt><trkpt lat="45.112805" lon="7.305895"><ele>378.0</ele><time>2026-05-01T09:03:54.257Z</time></trkpt><trkpt lat="45.1129117" lon="7.3056383"><ele>377.6666666666667</ele><time>2026-05-01T09:03:55.256Z</time></trkpt><trkpt lat="45.1130283" lon="7.3053783"><ele>377.33333333333337</ele><time>2026-05-01T09:03:56.257Z</time></trkpt><trkpt lat="45.1131517" lon="7.3051117"><ele>377.0</ele><time>2026-05-01T09:03:57.256Z</time></trkpt><trkpt lat="45.1132717" lon="7.3048267"><ele>379.5</ele><time>2026-05-01T09:03:58.257Z</time></trkpt><trkpt lat="45.113395" lon="7.3045433"><ele>382.0</ele><time>2026-05-01T09:03:59.256Z</time></trkpt><trkpt lat="45.1134983" lon="7.3042567"><ele>382.0</ele><time>2026-05-01T09:04:00.257Z</time></trkpt><trkpt lat="45.1136033" lon="7.303995"><ele>382.0</ele><time>2026-05-01T09:04:01.256Z</time></trkpt><trkpt lat="45.1136917" lon="7.3037717"><ele>382.0</ele><time>2026-05-01T09:04:02.256Z</time></trkpt><trkpt lat="45.1137833" lon="7.3035617"><ele>381.66666666666663</ele><time>2026-05-01T09:04:03.257Z</time></trkpt><trkpt lat="45.1138733" lon="7.303335"><ele>381.3333333333333</ele><time>2026-05-01T09:04:04.257Z</time></trkpt><trkpt lat="45.1139767" lon="7.3031033"><ele>381.0</ele><time>2026-05-01T09:04:05.257Z</time></trkpt><trkpt lat="45.114075" lon="7.302875"><ele>382.66666666666663</ele><time>2026-05-01T09:04:06.257Z</time></trkpt><trkpt lat="45.11416" lon="7.3026833"><ele>384.3333333333333</ele><time>2026-05-01T09:04:07.256Z</time></trkpt><trkpt lat="45.114255" lon="7.30248"><ele>386.0</ele><time>2026-05-01T09:04:08.257Z</time></trkpt><trkpt lat="45.1143433" lon="7.3022733"><ele>385.66666666666663</ele><time>2026-05-01T09:04:09.257Z</time></trkpt><trkpt lat="45.114415" lon="7.3020533"><ele>385.33333333333337</ele><time>2026-05-01T09:04:10.257Z</time></trkpt><trkpt lat="45.114515" lon="7.3018567"><ele>385.0</ele><time>2026-05-01T09:04:11.256Z</time></trkpt><trkpt lat="45.1146183" lon="7.301655"><ele>385.0</ele><time>2026-05-01T09:04:12.257Z</time></trkpt><trkpt lat="45.1147117" lon="7.3014917"><ele>385.0</ele><time>2026-05-01T09:04:13.256Z</time></trkpt><trkpt lat="45.1147917" lon="7.3013483"><ele>385.0</ele><time>2026-05-01T09:04:14.257Z</time></trkpt><trkpt lat="45.1148533" lon="7.3012283"><ele>385.0</ele><time>2026-05-01T09:04:15.257Z</time></trkpt><trkpt lat="45.1149183" lon="7.301155"><ele>385.33333333333337</ele><time>2026-05-01T09:04:16.257Z</time></trkpt><trkpt lat="45.1149717" lon="7.3010817"><ele>385.6666666666667</ele><time>2026-05-01T09:04:17.256Z</time></trkpt><trkpt lat="45.115025" lon="7.3010067"><ele>386.0</ele><time>2026-05-01T09:04:18.257Z</time></trkpt><trkpt lat="45.1150717" lon="7.3009183"><ele>386.33333333333337</ele><time>2026-05-01T09:04:19.257Z</time></trkpt><trkpt lat="45.1151017" lon="7.3008283"><ele>386.6666666666667</ele><time>2026-05-01T09:04:20.257Z</time></trkpt><trkpt lat="45.115125" lon="7.30073"><ele>387.0</ele><time>2026-05-01T09:04:21.257Z</time></trkpt><trkpt lat="45.11512" lon="7.30061"><ele>387.75</ele><time>2026-05-01T09:04:22.257Z</time></trkpt><trkpt lat="45.115105" lon="7.3004783"><ele>388.5</ele><time>2026-05-01T09:04:23.256Z</time></trkpt><trkpt lat="45.1150967" lon="7.3003283"><ele>389.25</ele><time>2026-05-01T09:04:24.257Z</time></trkpt><trkpt lat="45.11512" lon="7.30014"><ele>390.0</ele><time>2026-05-01T09:04:25.257Z</time></trkpt><trkpt lat="45.1151433" lon="7.299915"><ele>389.66666666666663</ele><time>2026-05-01T09:04:26.257Z</time></trkpt><trkpt lat="45.1151867" lon="7.2996567"><ele>389.3333333333333</ele><time>2026-05-01T09:04:27.256Z</time></trkpt><trkpt lat="45.115225" lon="7.2994317"><ele>389.0</ele><time>2026-05-01T09:04:28.256Z</time></trkpt><trkpt lat="45.1152483" lon="7.29922"><ele>389.0</ele><time>2026-05-01T09:04:29.257Z</time></trkpt><trkpt lat="45.115275" lon="7.299025"><ele>389.0</ele><time>2026-05-01T09:04:30.257Z</time></trkpt><trkpt lat="45.1153033" lon="7.2988467"><ele>389.0</ele><time>2026-05-01T09:04:31.256Z</time></trkpt><trkpt lat="45.115295" lon="7.2986717"><ele>389.0</ele><time>2026-05-01T09:04:32.257Z</time></trkpt><trkpt lat="45.1153183" lon="7.29852"><ele>388.5</ele><time>2026-05-01T09:04:33.257Z</time></trkpt><trkpt lat="45.115345" lon="7.2983717"><ele>388.0</ele><time>2026-05-01T09:04:34.257Z</time></trkpt><trkpt lat="45.1153783" lon="7.2982083"><ele>387.5</ele><time>2026-05-01T09:04:35.257Z</time></trkpt><trkpt lat="45.1154167" lon="7.2980317"><ele>387.0</ele><time>2026-05-01T09:04:36.256Z</time></trkpt><trkpt lat="45.1154533" lon="7.297815"><ele>385.6666666666667</ele><time>2026-05-01T09:04:37.257Z</time></trkpt><trkpt lat="45.11549" lon="7.2975733"><ele>384.33333333333337</ele><time>2026-05-01T09:04:38.257Z</time></trkpt><trkpt lat="45.1155317" lon="7.2973283"><ele>383.0</ele><time>2026-05-01T09:04:39.256Z</time></trkpt><trkpt lat="45.1155833" lon="7.2970733"><ele>383.0</ele><time>2026-05-01T09:04:40.257Z</time></trkpt><trkpt lat="45.1156333" lon="7.296795"><ele>383.0</ele><time>2026-05-01T09:04:41.257Z</time></trkpt><trkpt lat="45.1156683" lon="7.296515"><ele>383.0</ele><time>2026-05-01T09:04:42.257Z</time></trkpt><trkpt lat="45.1157017" lon="7.2962083"><ele>383.33333333333337</ele><time>2026-05-01T09:04:43.257Z</time></trkpt><trkpt lat="45.11573" lon="7.2959367"><ele>383.6666666666667</ele><time>2026-05-01T09:04:44.257Z</time></trkpt><trkpt lat="45.115765" lon="7.2956783"><ele>384.0</ele><time>2026-05-01T09:04:45.256Z</time></trkpt><trkpt lat="45.1157817" lon="7.2954467"><ele>384.0</ele><time>2026-05-01T09:04:46.257Z</time></trkpt><trkpt lat="45.1158" lon="7.2952267"><ele>384.0</ele><time>2026-05-01T09:04:47.256Z</time></trkpt><trkpt lat="45.1158117" lon="7.2949967"><ele>384.0</ele><time>2026-05-01T09:04:48.256Z</time></trkpt><trkpt lat="45.1158217" lon="7.294745"><ele>383.3333333333333</ele><time>2026-05-01T09:04:49.257Z</time></trkpt><trkpt lat="45.1158317" lon="7.294475"><ele>382.66666666666663</ele><time>2026-05-01T09:04:50.257Z</time></trkpt><trkpt lat="45.1158383" lon="7.294195"><ele>382.0</ele><time>2026-05-01T09:04:51.257Z</time></trkpt><trkpt lat="45.1158417" lon="7.2939183"><ele>381.0</ele><time>2026-05-01T09:04:52.256Z</time></trkpt><trkpt lat="45.1158483" lon="7.29366"><ele>380.0</ele><time>2026-05-01T09:04:53.256Z</time></trkpt><trkpt lat="45.1158267" lon="7.2933583"><ele>379.0</ele><time>2026-05-01T09:04:54.257Z</time></trkpt><trkpt lat="45.1158233" lon="7.2930783"><ele>378.3333333333333</ele><time>2026-05-01T09:04:55.256Z</time></trkpt><trkpt lat="45.11581" lon="7.2927933"><ele>377.6666666666667</ele><time>2026-05-01T09:04:56.257Z</time></trkpt><trkpt lat="45.115805" lon="7.2925083"><ele>377.0</ele><time>2026-05-01T09:04:57.257Z</time></trkpt><trkpt lat="45.1157867" lon="7.292235"><ele>377.0</ele><time>2026-05-01T09:04:58.257Z</time></trkpt><trkpt lat="45.1157717" lon="7.29195"><ele>377.0</ele><time>2026-05-01T09:04:59.257Z</time></trkpt><trkpt lat="45.115755" lon="7.29167"><ele>377.0</ele><time>2026-05-01T09:05:00.256Z</time></trkpt><trkpt lat="45.1157567" lon="7.2914"><ele>376.6666666666667</ele><time>2026-05-01T09:05:01.257Z</time></trkpt><trkpt lat="45.115765" lon="7.29114"><ele>376.3333333333333</ele><time>2026-05-01T09:05:02.257Z</time></trkpt><trkpt lat="45.11577" lon="7.29088"><ele>376.0</ele><time>2026-05-01T09:05:03.257Z</time></trkpt><trkpt lat="45.1157783" lon="7.290625"><ele>376.66666666666663</ele><time>2026-05-01T09:05:04.256Z</time></trkpt><trkpt lat="45.1157833" lon="7.290385"><ele>377.3333333333333</ele><time>2026-05-01T09:05:05.256Z</time></trkpt><trkpt lat="45.1157883" lon="7.2901633"><ele>378.0</ele><time>2026-05-01T09:05:06.257Z</time></trkpt><trkpt lat="45.1158017" lon="7.2899633"><ele>377.75</ele><time>2026-05-01T09:05:07.257Z</time></trkpt><trkpt lat="45.1158117" lon="7.2897583"><ele>377.5</ele><time>2026-05-01T09:05:08.256Z</time></trkpt><trkpt lat="45.1158133" lon="7.289545"><ele>377.25</ele><time>2026-05-01T09:05:09.256Z</time></trkpt><trkpt lat="45.1158217" lon="7.2893367"><ele>377.0</ele><time>2026-05-01T09:05:10.257Z</time></trkpt><trkpt lat="45.1158433" lon="7.2890833"><ele>376.25</ele><time>2026-05-01T09:05:11.257Z</time></trkpt><trkpt lat="45.115845" lon="7.288855"><ele>375.5</ele><time>2026-05-01T09:05:12.257Z</time></trkpt><trkpt lat="45.11587" lon="7.2886667"><ele>374.75</ele><time>2026-05-01T09:05:13.256Z</time></trkpt><trkpt lat="45.1158833" lon="7.2884983"><ele>374.0</ele><time>2026-05-01T09:05:14.257Z</time></trkpt><trkpt lat="45.11589" lon="7.2883467"><ele>374.0</ele><time>2026-05-01T09:05:15.257Z</time></trkpt><trkpt lat="45.11588" lon="7.2882117"><ele>374.0</ele><time>2026-05-01T09:05:16.257Z</time></trkpt><trkpt lat="45.1158867" lon="7.2880883"><ele>374.0</ele><time>2026-05-01T09:05:17.257Z</time></trkpt><trkpt lat="45.115895" lon="7.2879783"><ele>374.0</ele><time>2026-05-01T09:05:18.257Z</time></trkpt><trkpt lat="45.1159133" lon="7.287825"><ele>374.0</ele><time>2026-05-01T09:05:20.257Z</time></trkpt><trkpt lat="45.115955" lon="7.2876933"><ele>374.33333333333337</ele><time>2026-05-01T09:05:22.257Z</time></trkpt><trkpt lat="45.116015" lon="7.2875767"><ele>374.6666666666667</ele><time>2026-05-01T09:05:24.257Z</time></trkpt><trkpt lat="45.116035" lon="7.28749"><ele>375.0</ele><time>2026-05-01T09:05:25.257Z</time></trkpt><trkpt lat="45.1160433" lon="7.2873983"><ele>375.3333333333333</ele><time>2026-05-01T09:05:26.257Z</time></trkpt><trkpt lat="45.1160383" lon="7.287285"><ele>375.66666666666663</ele><time>2026-05-01T09:05:27.257Z</time></trkpt><trkpt lat="45.116025" lon="7.2871333"><ele>376.0</ele><time>2026-05-01T09:05:28.256Z</time></trkpt><trkpt lat="45.1160033" lon="7.2869567"><ele>376.3333333333333</ele><time>2026-05-01T09:05:29.256Z</time></trkpt><trkpt lat="45.1160033" lon="7.2867233"><ele>376.6666666666667</ele><time>2026-05-01T09:05:30.257Z</time></trkpt><trkpt lat="45.1160017" lon="7.286455"><ele>377.0</ele><time>2026-05-01T09:05:31.257Z</time></trkpt><trkpt lat="45.116005" lon="7.2861783"><ele>377.0</ele><time>2026-05-01T09:05:32.257Z</time></trkpt><trkpt lat="45.1160183" lon="7.2859217"><ele>377.0</ele><time>2026-05-01T09:05:33.257Z</time></trkpt><trkpt lat="45.1160217" lon="7.285645"><ele>377.0</ele><time>2026-05-01T09:05:34.257Z</time></trkpt><trkpt lat="45.1160317" lon="7.2853933"><ele>377.33333333333337</ele><time>2026-05-01T09:05:35.257Z</time></trkpt><trkpt lat="45.1160517" lon="7.2851617"><ele>377.6666666666667</ele><time>2026-05-01T09:05:36.256Z</time></trkpt><trkpt lat="45.1160617" lon="7.2849133"><ele>378.0</ele><time>2026-05-01T09:05:37.257Z</time></trkpt><trkpt lat="45.11607" lon="7.28465"><ele>377.3333333333333</ele><time>2026-05-01T09:05:38.257Z</time></trkpt><trkpt lat="45.116075" lon="7.2843717"><ele>376.66666666666663</ele><time>2026-05-01T09:05:39.257Z</time></trkpt><trkpt lat="45.116045" lon="7.2840717"><ele>376.0</ele><time>2026-05-01T09:05:40.257Z</time></trkpt><trkpt lat="45.11604" lon="7.2837933"><ele>376.0</ele><time>2026-05-01T09:05:41.257Z</time></trkpt><trkpt lat="45.1160533" lon="7.28352"><ele>376.0</ele><time>2026-05-01T09:05:42.257Z</time></trkpt><trkpt lat="45.1160733" lon="7.2832233"><ele>376.0</ele><time>2026-05-01T09:05:43.256Z</time></trkpt><trkpt lat="45.1160767" lon="7.2829067"><ele>376.5</ele><time>2026-05-01T09:05:44.257Z</time></trkpt><trkpt lat="45.1160983" lon="7.28258"><ele>377.0</ele><time>2026-05-01T09:05:45.257Z</time></trkpt><trkpt lat="45.1160983" lon="7.2822217"><ele>377.0</ele><time>2026-05-01T09:05:46.257Z</time></trkpt><trkpt lat="45.1161167" lon="7.281875"><ele>377.0</ele><time>2026-05-01T09:05:47.257Z</time></trkpt><trkpt lat="45.1161367" lon="7.2815433"><ele>376.0</ele><time>2026-05-01T09:05:48.257Z</time></trkpt><trkpt lat="45.1161533" lon="7.2812133"><ele>375.0</ele><time>2026-05-01T09:05:49.257Z</time></trkpt><trkpt lat="45.1161617" lon="7.28088"><ele>377.0</ele><time>2026-05-01T09:05:50.257Z</time></trkpt><trkpt lat="45.116185" lon="7.2805233"><ele>379.0</ele><time>2026-05-01T09:05:51.257Z</time></trkpt><trkpt lat="45.1162067" lon="7.2801617"><ele>379.0</ele><time>2026-05-01T09:05:52.257Z</time></trkpt><trkpt lat="45.116245" lon="7.2798217"><ele>379.0</ele><time>2026-05-01T09:05:53.257Z</time></trkpt><trkpt lat="45.1162717" lon="7.2794433"><ele>378.0</ele><time>2026-05-01T09:05:54.257Z</time></trkpt><trkpt lat="45.1162917" lon="7.2790683"><ele>377.0</ele><time>2026-05-01T09:05:55.256Z</time></trkpt><trkpt lat="45.1163117" lon="7.2786983"><ele>377.0</ele><time>2026-05-01T09:05:56.257Z</time></trkpt><trkpt lat="45.1163233" lon="7.278325"><ele>377.0</ele><time>2026-05-01T09:05:57.257Z</time></trkpt><trkpt lat="45.116335" lon="7.2779467"><ele>377.5</ele><time>2026-05-01T09:05:58.257Z</time></trkpt><trkpt lat="45.116355" lon="7.27757"><ele>378.0</ele><time>2026-05-01T09:05:59.256Z</time></trkpt><trkpt lat="45.116365" lon="7.27723"><ele>378.5</ele><time>2026-05-01T09:06:00.256Z</time></trkpt><trkpt lat="45.1163817" lon="7.27691"><ele>379.0</ele><time>2026-05-01T09:06:01.257Z</time></trkpt><trkpt lat="45.1163983" lon="7.27659"><ele>377.66666666666663</ele><time>2026-05-01T09:06:02.257Z</time></trkpt><trkpt lat="45.1164133" lon="7.276275"><ele>376.3333333333333</ele><time>2026-05-01T09:06:03.256Z</time></trkpt><trkpt lat="45.1164283" lon="7.2759733"><ele>375.0</ele><time>2026-05-01T09:06:04.256Z</time></trkpt><trkpt lat="45.1164467" lon="7.2757183"><ele>375.3333333333333</ele><time>2026-05-01T09:06:05.256Z</time></trkpt><trkpt lat="45.1164533" lon="7.275435"><ele>375.66666666666663</ele><time>2026-05-01T09:06:06.256Z</time></trkpt><trkpt lat="45.1164417" lon="7.2751617"><ele>376.0</ele><time>2026-05-01T09:06:07.256Z</time></trkpt><trkpt lat="45.1164467" lon="7.27489"><ele>376.3333333333333</ele><time>2026-05-01T09:06:08.257Z</time></trkpt><trkpt lat="45.1164217" lon="7.2746"><ele>376.6666666666667</ele><time>2026-05-01T09:06:09.257Z</time></trkpt><trkpt lat="45.11639" lon="7.2742933"><ele>377.0</ele><time>2026-05-01T09:06:10.256Z</time></trkpt><trkpt lat="45.1163233" lon="7.2739867"><ele>378.0</ele><time>2026-05-01T09:06:11.256Z</time></trkpt><trkpt lat="45.116245" lon="7.2737033"><ele>379.0</ele><time>2026-05-01T09:06:12.257Z</time></trkpt><trkpt lat="45.11617" lon="7.2734367"><ele>380.0</ele><time>2026-05-01T09:06:13.257Z</time></trkpt><trkpt lat="45.1160917" lon="7.2731817"><ele>381.0</ele><time>2026-05-01T09:06:14.257Z</time></trkpt><trkpt lat="45.116025" lon="7.272945"><ele>382.0</ele><time>2026-05-01T09:06:15.257Z</time></trkpt><trkpt lat="45.1159533" lon="7.2727267"><ele>383.0</ele><time>2026-05-01T09:06:16.257Z</time></trkpt><trkpt lat="45.1158833" lon="7.27252"><ele>383.0</ele><time>2026-05-01T09:06:17.257Z</time></trkpt><trkpt lat="45.115815" lon="7.272335"><ele>383.0</ele><time>2026-05-01T09:06:18.257Z</time></trkpt><trkpt lat="45.1157367" lon="7.2721283"><ele>383.0</ele><time>2026-05-01T09:06:19.257Z</time></trkpt><trkpt lat="45.1156567" lon="7.2719167"><ele>382.33333333333337</ele><time>2026-05-01T09:06:20.257Z</time></trkpt><trkpt lat="45.1156017" lon="7.2717167"><ele>381.6666666666667</ele><time>2026-05-01T09:06:21.257Z</time></trkpt><trkpt lat="45.1155367" lon="7.2715033"><ele>381.0</ele><time>2026-05-01T09:06:22.257Z</time></trkpt><trkpt lat="45.1154517" lon="7.2712617"><ele>381.0</ele><time>2026-05-01T09:06:23.257Z</time></trkpt><trkpt lat="45.11537" lon="7.2710233"><ele>381.0</ele><time>2026-05-01T09:06:24.256Z</time></trkpt><trkpt lat="45.1152467" lon="7.2707783"><ele>381.0</ele><time>2026-05-01T09:06:25.257Z</time></trkpt><trkpt lat="45.1151567" lon="7.2705417"><ele>381.0</ele><time>2026-05-01T09:06:26.257Z</time></trkpt><trkpt lat="45.1150733" lon="7.2703067"><ele>381.0</ele><time>2026-05-01T09:06:27.257Z</time></trkpt><trkpt lat="45.1149933" lon="7.2700767"><ele>381.0</ele><time>2026-05-01T09:06:28.257Z</time></trkpt><trkpt lat="45.1149183" lon="7.269835"><ele>381.3333333333333</ele><time>2026-05-01T09:06:29.257Z</time></trkpt><trkpt lat="45.1148717" lon="7.269605"><ele>381.66666666666663</ele><time>2026-05-01T09:06:30.257Z</time></trkpt><trkpt lat="45.1148" lon="7.2693883"><ele>382.0</ele><time>2026-05-01T09:06:31.257Z</time></trkpt><trkpt lat="45.11473" lon="7.2691767"><ele>382.0</ele><time>2026-05-01T09:06:32.257Z</time></trkpt><trkpt lat="45.1146633" lon="7.26899"><ele>382.0</ele><time>2026-05-01T09:06:33.257Z</time></trkpt><trkpt lat="45.1145783" lon="7.2688067"><ele>382.0</ele><time>2026-05-01T09:06:34.257Z</time></trkpt><trkpt lat="45.114525" lon="7.2686417"><ele>382.0</ele><time>2026-05-01T09:06:35.257Z</time></trkpt><trkpt lat="45.1144783" lon="7.26849"><ele>382.0</ele><time>2026-05-01T09:06:36.257Z</time></trkpt><trkpt lat="45.11444" lon="7.2683533"><ele>382.0</ele><time>2026-05-01T09:06:37.257Z</time></trkpt><trkpt lat="45.11441" lon="7.2682317"><ele>382.0</ele><time>2026-05-01T09:06:38.256Z</time></trkpt><trkpt lat="45.114385" lon="7.2681267"><ele>382.0</ele><time>2026-05-01T09:06:39.257Z</time></trkpt><trkpt lat="45.114365" lon="7.268035"><ele>382.0</ele><time>2026-05-01T09:06:40.257Z</time></trkpt><trkpt lat="45.1143317" lon="7.2678717"><ele>382.0</ele><time>2026-05-01T09:06:42.257Z</time></trkpt><trkpt lat="45.1142983" lon="7.2676983"><ele>382.0</ele><time>2026-05-01T09:06:44.256Z</time></trkpt><trkpt lat="45.1142633" lon="7.2676"><ele>382.0</ele><time>2026-05-01T09:06:45.257Z</time></trkpt><trkpt lat="45.114225" lon="7.2674883"><ele>382.0</ele><time>2026-05-01T09:06:46.257Z</time></trkpt><trkpt lat="45.11418" lon="7.267365"><ele>382.0</ele><time>2026-05-01T09:06:47.256Z</time></trkpt><trkpt lat="45.1141067" lon="7.267225"><ele>382.0</ele><time>2026-05-01T09:06:48.256Z</time></trkpt><trkpt lat="45.114035" lon="7.2670683"><ele>382.0</ele><time>2026-05-01T09:06:49.257Z</time></trkpt><trkpt lat="45.1139633" lon="7.2668867"><ele>382.0</ele><time>2026-05-01T09:06:50.257Z</time></trkpt><trkpt lat="45.1138617" lon="7.2666833"><ele>382.0</ele><time>2026-05-01T09:06:51.257Z</time></trkpt><trkpt lat="45.1137683" lon="7.2664567"><ele>382.0</ele><time>2026-05-01T09:06:52.257Z</time></trkpt><trkpt lat="45.1136767" lon="7.2661767"><ele>382.0</ele><time>2026-05-01T09:06:53.257Z</time></trkpt><trkpt lat="45.1135767" lon="7.2658683"><ele>382.0</ele><time>2026-05-01T09:06:54.256Z</time></trkpt><trkpt lat="45.1134933" lon="7.2655917"><ele>382.0</ele><time>2026-05-01T09:06:55.256Z</time></trkpt><trkpt lat="45.1134133" lon="7.2653367"><ele>382.0</ele><time>2026-05-01T09:06:56.257Z</time></trkpt><trkpt lat="45.1133317" lon="7.2650817"><ele>382.0</ele><time>2026-05-01T09:06:57.257Z</time></trkpt><trkpt lat="45.1132633" lon="7.2648117"><ele>382.0</ele><time>2026-05-01T09:06:58.257Z</time></trkpt><trkpt lat="45.113235" lon="7.2644967"><ele>382.0</ele><time>2026-05-01T09:06:59.257Z</time></trkpt><trkpt lat="45.1132" lon="7.2641683"><ele>382.5</ele><time>2026-05-01T09:07:00.257Z</time></trkpt><trkpt lat="45.1131933" lon="7.2638267"><ele>383.0</ele><time>2026-05-01T09:07:01.257Z</time></trkpt><trkpt lat="45.1131983" lon="7.2634733"><ele>382.5</ele><time>2026-05-01T09:07:02.256Z</time></trkpt><trkpt lat="45.1131967" lon="7.2631067"><ele>382.0</ele><time>2026-05-01T09:07:03.257Z</time></trkpt><trkpt lat="45.1131917" lon="7.2627533"><ele>382.0</ele><time>2026-05-01T09:07:04.256Z</time></trkpt><trkpt lat="45.11316" lon="7.262425"><ele>382.0</ele><time>2026-05-01T09:07:05.257Z</time></trkpt><trkpt lat="45.1131383" lon="7.26211"><ele>382.3333333333333</ele><time>2026-05-01T09:07:06.257Z</time></trkpt><trkpt lat="45.113145" lon="7.2618017"><ele>382.6666666666667</ele><time>2026-05-01T09:07:07.256Z</time></trkpt><trkpt lat="45.1131567" lon="7.261505"><ele>383.0</ele><time>2026-05-01T09:07:08.256Z</time></trkpt><trkpt lat="45.1132083" lon="7.2612017"><ele>385.5</ele><time>2026-05-01T09:07:09.257Z</time></trkpt><trkpt lat="45.11327" lon="7.26089"><ele>388.0</ele><time>2026-05-01T09:07:10.257Z</time></trkpt><trkpt lat="45.1133367" lon="7.26056"><ele>388.0</ele><time>2026-05-01T09:07:11.256Z</time></trkpt><trkpt lat="45.1134217" lon="7.26024"><ele>388.0</ele><time>2026-05-01T09:07:12.257Z</time></trkpt><trkpt lat="45.1135533" lon="7.25994"><ele>387.5</ele><time>2026-05-01T09:07:13.256Z</time></trkpt><trkpt lat="45.1136767" lon="7.2596333"><ele>387.0</ele><time>2026-05-01T09:07:14.256Z</time></trkpt><trkpt lat="45.1138067" lon="7.2593367"><ele>387.0</ele><time>2026-05-01T09:07:15.257Z</time></trkpt><trkpt lat="45.1139183" lon="7.25902"><ele>387.0</ele><time>2026-05-01T09:07:16.257Z</time></trkpt><trkpt lat="45.114035" lon="7.2587033"><ele>387.0</ele><time>2026-05-01T09:07:17.256Z</time></trkpt><trkpt lat="45.1141467" lon="7.25837"><ele>387.0</ele><time>2026-05-01T09:07:18.257Z</time></trkpt><trkpt lat="45.1142433" lon="7.25806"><ele>387.0</ele><time>2026-05-01T09:07:19.257Z</time></trkpt><trkpt lat="45.1143667" lon="7.2577767"><ele>387.0</ele><time>2026-05-01T09:07:20.256Z</time></trkpt><trkpt lat="45.1144567" lon="7.2574983"><ele>386.33333333333337</ele><time>2026-05-01T09:07:21.256Z</time></trkpt><trkpt lat="45.1145517" lon="7.2572283"><ele>385.6666666666667</ele><time>2026-05-01T09:07:22.257Z</time></trkpt><trkpt lat="45.114645" lon="7.2569833"><ele>385.0</ele><time>2026-05-01T09:07:23.257Z</time></trkpt><trkpt lat="45.1147533" lon="7.256765"><ele>385.0</ele><time>2026-05-01T09:07:24.257Z</time></trkpt><trkpt lat="45.11487" lon="7.2565433"><ele>385.0</ele><time>2026-05-01T09:07:25.256Z</time></trkpt><trkpt lat="45.1149883" lon="7.25633"><ele>385.0</ele><time>2026-05-01T09:07:26.257Z</time></trkpt><trkpt lat="45.1151083" lon="7.25613"><ele>386.0</ele><time>2026-05-01T09:07:27.257Z</time></trkpt><trkpt lat="45.1152333" lon="7.2559533"><ele>387.0</ele><time>2026-05-01T09:07:28.256Z</time></trkpt><trkpt lat="45.115345" lon="7.2558317"><ele>388.0</ele><time>2026-05-01T09:07:29.257Z</time></trkpt><trkpt lat="45.1154817" lon="7.2556617"><ele>388.0</ele><time>2026-05-01T09:07:30.257Z</time></trkpt><trkpt lat="45.1156317" lon="7.255475"><ele>388.0</ele><time>2026-05-01T09:07:31.257Z</time></trkpt><trkpt lat="45.1157683" lon="7.255305"><ele>388.0</ele><time>2026-05-01T09:07:32.257Z</time></trkpt><trkpt lat="45.1159117" lon="7.2551067"><ele>388.6666666666667</ele><time>2026-05-01T09:07:33.257Z</time></trkpt><trkpt lat="45.1160683" lon="7.254925"><ele>389.33333333333337</ele><time>2026-05-01T09:07:34.257Z</time></trkpt><trkpt lat="45.1162" lon="7.2547567"><ele>390.0</ele><time>2026-05-01T09:07:35.257Z</time></trkpt><trkpt lat="45.1163" lon="7.2546033"><ele>389.0</ele><time>2026-05-01T09:07:36.257Z</time></trkpt><trkpt lat="45.11642" lon="7.25444"><ele>388.0</ele><time>2026-05-01T09:07:37.257Z</time></trkpt><trkpt lat="45.1165283" lon="7.254265"><ele>387.0</ele><time>2026-05-01T09:07:38.256Z</time></trkpt><trkpt lat="45.116645" lon="7.2540967"><ele>387.0</ele><time>2026-05-01T09:07:39.257Z</time></trkpt><trkpt lat="45.1167567" lon="7.25393"><ele>387.0</ele><time>2026-05-01T09:07:40.257Z</time></trkpt><trkpt lat="45.1168817" lon="7.2537867"><ele>387.0</ele><time>2026-05-01T09:07:41.256Z</time></trkpt><trkpt lat="45.117005" lon="7.2536383"><ele>387.0</ele><time>2026-05-01T09:07:42.257Z</time></trkpt><trkpt lat="45.11713" lon="7.25347"><ele>387.0</ele><time>2026-05-01T09:07:43.257Z</time></trkpt><trkpt lat="45.117275" lon="7.25329"><ele>387.0</ele><time>2026-05-01T09:07:44.257Z</time></trkpt><trkpt lat="45.1174" lon="7.2531083"><ele>387.33333333333337</ele><time>2026-05-01T09:07:45.257Z</time></trkpt><trkpt lat="45.1175317" lon="7.2529417"><ele>387.6666666666667</ele><time>2026-05-01T09:07:46.256Z</time></trkpt><trkpt lat="45.117655" lon="7.2527883"><ele>388.0</ele><time>2026-05-01T09:07:47.257Z</time></trkpt><trkpt lat="45.11776" lon="7.2526483"><ele>388.0</ele><time>2026-05-01T09:07:48.257Z</time></trkpt><trkpt lat="45.1178867" lon="7.2524967"><ele>388.0</ele><time>2026-05-01T09:07:49.257Z</time></trkpt><trkpt lat="45.1180217" lon="7.252335"><ele>388.0</ele><time>2026-05-01T09:07:50.257Z</time></trkpt><trkpt lat="45.1181667" lon="7.2521533"><ele>388.6666666666667</ele><time>2026-05-01T09:07:51.257Z</time></trkpt><trkpt lat="45.1182983" lon="7.2519833"><ele>389.33333333333337</ele><time>2026-05-01T09:07:52.257Z</time></trkpt><trkpt lat="45.1184417" lon="7.2517883"><ele>390.0</ele><time>2026-05-01T09:07:53.257Z</time></trkpt><trkpt lat="45.118605" lon="7.251575"><ele>390.33333333333337</ele><time>2026-05-01T09:07:54.257Z</time></trkpt><trkpt lat="45.118745" lon="7.2514"><ele>390.6666666666667</ele><time>2026-05-01T09:07:55.257Z</time></trkpt><trkpt lat="45.1188783" lon="7.2512183"><ele>391.0</ele><time>2026-05-01T09:07:56.256Z</time></trkpt><trkpt lat="45.119005" lon="7.251045"><ele>391.0</ele><time>2026-05-01T09:07:57.256Z</time></trkpt><trkpt lat="45.1191233" lon="7.2508933"><ele>391.0</ele><time>2026-05-01T09:07:58.256Z</time></trkpt><trkpt lat="45.1192217" lon="7.2507517"><ele>391.0</ele><time>2026-05-01T09:07:59.257Z</time></trkpt><trkpt lat="45.1193267" lon="7.2506167"><ele>391.0</ele><time>2026-05-01T09:08:00.257Z</time></trkpt><trkpt lat="45.1194317" lon="7.250475"><ele>391.0</ele><time>2026-05-01T09:08:01.256Z</time></trkpt><trkpt lat="45.1194933" lon="7.2502917"><ele>391.0</ele><time>2026-05-01T09:08:02.257Z</time></trkpt><trkpt lat="45.1195433" lon="7.2500817"><ele>391.0</ele><time>2026-05-01T09:08:03.257Z</time></trkpt><trkpt lat="45.11959" lon="7.2498417"><ele>390.33333333333337</ele><time>2026-05-01T09:08:04.257Z</time></trkpt><trkpt lat="45.119625" lon="7.2496183"><ele>389.66666666666663</ele><time>2026-05-01T09:08:05.256Z</time></trkpt><trkpt lat="45.1196017" lon="7.2493883"><ele>389.0</ele><time>2026-05-01T09:08:06.257Z</time></trkpt><trkpt lat="45.119595" lon="7.249165"><ele>389.66666666666663</ele><time>2026-05-01T09:08:07.257Z</time></trkpt><trkpt lat="45.1195733" lon="7.2489383"><ele>390.33333333333337</ele><time>2026-05-01T09:08:08.257Z</time></trkpt><trkpt lat="45.1195317" lon="7.248685"><ele>391.0</ele><time>2026-05-01T09:08:09.256Z</time></trkpt><trkpt lat="45.1194967" lon="7.2484167"><ele>391.0</ele><time>2026-05-01T09:08:10.257Z</time></trkpt><trkpt lat="45.119465" lon="7.24814"><ele>391.0</ele><time>2026-05-01T09:08:11.256Z</time></trkpt><trkpt lat="45.11943" lon="7.2478467"><ele>391.0</ele><time>2026-05-01T09:08:12.256Z</time></trkpt><trkpt lat="45.1193733" lon="7.2475283"><ele>391.33333333333337</ele><time>2026-05-01T09:08:13.257Z</time></trkpt><trkpt lat="45.1193167" lon="7.2472233"><ele>391.66666666666663</ele><time>2026-05-01T09:08:14.256Z</time></trkpt><trkpt lat="45.1192533" lon="7.2469217"><ele>392.0</ele><time>2026-05-01T09:08:15.257Z</time></trkpt><trkpt lat="45.1192033" lon="7.2466083"><ele>391.66666666666663</ele><time>2026-05-01T09:08:16.257Z</time></trkpt><trkpt lat="45.1191333" lon="7.2463"><ele>391.33333333333337</ele><time>2026-05-01T09:08:17.257Z</time></trkpt><trkpt lat="45.1190833" lon="7.245995"><ele>391.0</ele><time>2026-05-01T09:08:18.256Z</time></trkpt><trkpt lat="45.1190517" lon="7.2456817"><ele>391.6666666666667</ele><time>2026-05-01T09:08:19.257Z</time></trkpt><trkpt lat="45.11901" lon="7.2453817"><ele>392.33333333333337</ele><time>2026-05-01T09:08:20.256Z</time></trkpt><trkpt lat="45.118965" lon="7.2451033"><ele>393.0</ele><time>2026-05-01T09:08:21.257Z</time></trkpt><trkpt lat="45.1189167" lon="7.2448367"><ele>392.66666666666663</ele><time>2026-05-01T09:08:22.256Z</time></trkpt><trkpt lat="45.1188833" lon="7.2445617"><ele>392.3333333333333</ele><time>2026-05-01T09:08:23.257Z</time></trkpt><trkpt lat="45.1188417" lon="7.2443033"><ele>392.0</ele><time>2026-05-01T09:08:24.257Z</time></trkpt><trkpt lat="45.1188133" lon="7.2440367"><ele>392.0</ele><time>2026-05-01T09:08:25.257Z</time></trkpt><trkpt lat="45.1187883" lon="7.24376"><ele>392.0</ele><time>2026-05-01T09:08:26.257Z</time></trkpt><trkpt lat="45.1187667" lon="7.2434867"><ele>392.0</ele><time>2026-05-01T09:08:27.257Z</time></trkpt><trkpt lat="45.1187533" lon="7.24319"><ele>392.66666666666663</ele><time>2026-05-01T09:08:28.257Z</time></trkpt><trkpt lat="45.1187567" lon="7.2429067"><ele>393.33333333333337</ele><time>2026-05-01T09:08:29.257Z</time></trkpt><trkpt lat="45.118775" lon="7.2425883"><ele>394.0</ele><time>2026-05-01T09:08:30.257Z</time></trkpt><trkpt lat="45.1188233" lon="7.2422833"><ele>394.0</ele><time>2026-05-01T09:08:31.256Z</time></trkpt><trkpt lat="45.1188917" lon="7.2419983"><ele>394.0</ele><time>2026-05-01T09:08:32.256Z</time></trkpt><trkpt lat="45.1189483" lon="7.241725"><ele>394.0</ele><time>2026-05-01T09:08:33.256Z</time></trkpt><trkpt lat="45.119065" lon="7.2415217"><ele>394.0</ele><time>2026-05-01T09:08:34.257Z</time></trkpt><trkpt lat="45.1191817" lon="7.2413483"><ele>394.0</ele><time>2026-05-01T09:08:35.257Z</time></trkpt><trkpt lat="45.1192683" lon="7.241215"><ele>394.0</ele><time>2026-05-01T09:08:36.257Z</time></trkpt><trkpt lat="45.1193683" lon="7.2411133"><ele>394.0</ele><time>2026-05-01T09:08:37.257Z</time></trkpt><trkpt lat="45.11947" lon="7.2410317"><ele>394.0</ele><time>2026-05-01T09:08:38.257Z</time></trkpt><trkpt lat="45.1195517" lon="7.2409367"><ele>394.0</ele><time>2026-05-01T09:08:39.257Z</time></trkpt><trkpt lat="45.1196217" lon="7.2408383"><ele>394.0</ele><time>2026-05-01T09:08:40.257Z</time></trkpt><trkpt lat="45.119675" lon="7.24075"><ele>394.0</ele><time>2026-05-01T09:08:41.257Z</time></trkpt><trkpt lat="45.1197417" lon="7.2406183"><ele>394.0</ele><time>2026-05-01T09:08:43.257Z</time></trkpt><trkpt lat="45.11981" lon="7.2405117"><ele>394.4</ele><time>2026-05-01T09:08:45.257Z</time></trkpt><trkpt lat="45.1199067" lon="7.2403967"><ele>394.79999999999995</ele><time>2026-05-01T09:08:47.257Z</time></trkpt><trkpt lat="45.11995" lon="7.2403283"><ele>395.20000000000005</ele><time>2026-05-01T09:08:48.257Z</time></trkpt><trkpt lat="45.120025" lon="7.2401933"><ele>395.6</ele><time>2026-05-01T09:08:50.257Z</time></trkpt><trkpt lat="45.1200883" lon="7.2401267"><ele>396.0</ele><time>2026-05-01T09:08:51.257Z</time></trkpt><trkpt lat="45.1201617" lon="7.2400667"><ele>396.0</ele><time>2026-05-01T09:08:52.257Z</time></trkpt><trkpt lat="45.1202483" lon="7.2400167"><ele>396.0</ele><time>2026-05-01T09:08:53.256Z</time></trkpt><trkpt lat="45.1203517" lon="7.23997"><ele>396.0</ele><time>2026-05-01T09:08:54.257Z</time></trkpt><trkpt lat="45.1204683" lon="7.2399283"><ele>396.0</ele><time>2026-05-01T09:08:55.257Z</time></trkpt><trkpt lat="45.1205833" lon="7.239865"><ele>396.0</ele><time>2026-05-01T09:08:56.256Z</time></trkpt><trkpt lat="45.1207083" lon="7.2398033"><ele>395.75</ele><time>2026-05-01T09:08:57.256Z</time></trkpt><trkpt lat="45.1208383" lon="7.239745"><ele>395.5</ele><time>2026-05-01T09:08:58.257Z</time></trkpt><trkpt lat="45.120955" lon="7.2396667"><ele>395.25</ele><time>2026-05-01T09:08:59.257Z</time></trkpt><trkpt lat="45.1210633" lon="7.2395633"><ele>395.0</ele><time>2026-05-01T09:09:00.256Z</time></trkpt><trkpt lat="45.1211533" lon="7.2394517"><ele>395.0</ele><time>2026-05-01T09:09:01.256Z</time></trkpt><trkpt lat="45.1212417" lon="7.2393467"><ele>395.0</ele><time>2026-05-01T09:09:02.257Z</time></trkpt><trkpt lat="45.12132" lon="7.239245"><ele>395.0</ele><time>2026-05-01T09:09:03.257Z</time></trkpt><trkpt lat="45.1213983" lon="7.2391367"><ele>395.0</ele><time>2026-05-01T09:09:04.257Z</time></trkpt><trkpt lat="45.1214783" lon="7.2390233"><ele>395.0</ele><time>2026-05-01T09:09:05.256Z</time></trkpt><trkpt lat="45.1215467" lon="7.2389083"><ele>395.3333333333333</ele><time>2026-05-01T09:09:06.257Z</time></trkpt><trkpt lat="45.1216117" lon="7.238805"><ele>395.66666666666663</ele><time>2026-05-01T09:09:07.256Z</time></trkpt><trkpt lat="45.1216683" lon="7.2387033"><ele>396.0</ele><time>2026-05-01T09:09:08.257Z</time></trkpt><trkpt lat="45.1217217" lon="7.2386117"><ele>396.33333333333337</ele><time>2026-05-01T09:09:09.257Z</time></trkpt><trkpt lat="45.121765" lon="7.2385233"><ele>396.6666666666667</ele><time>2026-05-01T09:09:10.257Z</time></trkpt><trkpt lat="45.1218033" lon="7.23845"><ele>397.0</ele><time>2026-05-01T09:09:11.257Z</time></trkpt><trkpt lat="45.1218467" lon="7.238375"><ele>397.00000000000006</ele><time>2026-05-01T09:09:12.257Z</time></trkpt><trkpt lat="45.121885" lon="7.2382867"><ele>397.0</ele><time>2026-05-01T09:09:13.257Z</time></trkpt><trkpt lat="45.1219283" lon="7.2381883"><ele>397.0</ele><time>2026-05-01T09:09:14.257Z</time></trkpt><trkpt lat="45.1219767" lon="7.2380817"><ele>397.0</ele><time>2026-05-01T09:09:15.257Z</time></trkpt><trkpt lat="45.122035" lon="7.2379633"><ele>397.00000000000006</ele><time>2026-05-01T09:09:16.256Z</time></trkpt><trkpt lat="45.122085" lon="7.2378467"><ele>397.0</ele><time>2026-05-01T09:09:17.257Z</time></trkpt><trkpt lat="45.1221333" lon="7.23772"><ele>397.0</ele><time>2026-05-01T09:09:18.257Z</time></trkpt><trkpt lat="45.1221867" lon="7.23758"><ele>397.0</ele><time>2026-05-01T09:09:19.257Z</time></trkpt><trkpt lat="45.1222267" lon="7.2374667"><ele>397.0</ele><time>2026-05-01T09:09:20.257Z</time></trkpt><trkpt lat="45.1222717" lon="7.2373683"><ele>397.0</ele><time>2026-05-01T09:09:21.256Z</time></trkpt><trkpt lat="45.1223217" lon="7.237265"><ele>397.0</ele><time>2026-05-01T09:09:22.256Z</time></trkpt><trkpt lat="45.1223667" lon="7.23715"><ele>397.25</ele><time>2026-05-01T09:09:23.257Z</time></trkpt><trkpt lat="45.122415" lon="7.23703"><ele>397.5</ele><time>2026-05-01T09:09:24.257Z</time></trkpt><trkpt lat="45.1224667" lon="7.2368883"><ele>397.75</ele><time>2026-05-01T09:09:25.257Z</time></trkpt><trkpt lat="45.12252" lon="7.2367317"><ele>398.0</ele><time>2026-05-01T09:09:26.255Z</time></trkpt><trkpt lat="45.1226" lon="7.236555"><ele>398.0</ele><time>2026-05-01T09:09:27.256Z</time></trkpt><trkpt lat="45.122655" lon="7.2363417"><ele>398.0</ele><time>2026-05-01T09:09:28.257Z</time></trkpt><trkpt lat="45.122715" lon="7.236135"><ele>398.0</ele><time>2026-05-01T09:09:29.257Z</time></trkpt><trkpt lat="45.12278" lon="7.235925"><ele>398.0</ele><time>2026-05-01T09:09:30.257Z</time></trkpt><trkpt lat="45.12284" lon="7.2357067"><ele>398.0</ele><time>2026-05-01T09:09:31.256Z</time></trkpt><trkpt lat="45.1228983" lon="7.2354917"><ele>398.0</ele><time>2026-05-01T09:09:32.257Z</time></trkpt><trkpt lat="45.122945" lon="7.2352717"><ele>398.0</ele><time>2026-05-01T09:09:33.256Z</time></trkpt><trkpt lat="45.1229633" lon="7.235055"><ele>398.0</ele><time>2026-05-01T09:09:34.257Z</time></trkpt><trkpt lat="45.1229883" lon="7.2348367"><ele>398.0</ele><time>2026-05-01T09:09:35.256Z</time></trkpt><trkpt lat="45.1230267" lon="7.2346167"><ele>397.66666666666663</ele><time>2026-05-01T09:09:36.257Z</time></trkpt><trkpt lat="45.1230867" lon="7.2343967"><ele>397.33333333333337</ele><time>2026-05-01T09:09:37.256Z</time></trkpt><trkpt lat="45.12314" lon="7.23417"><ele>397.0</ele><time>2026-05-01T09:09:38.257Z</time></trkpt><trkpt lat="45.1231933" lon="7.2339517"><ele>397.0</ele><time>2026-05-01T09:09:39.257Z</time></trkpt><trkpt lat="45.1232383" lon="7.2337467"><ele>397.0</ele><time>2026-05-01T09:09:40.256Z</time></trkpt><trkpt lat="45.1232883" lon="7.2335583"><ele>397.0</ele><time>2026-05-01T09:09:41.257Z</time></trkpt><trkpt lat="45.1233333" lon="7.2333767"><ele>397.0</ele><time>2026-05-01T09:09:42.257Z</time></trkpt><trkpt lat="45.12338" lon="7.23319"><ele>396.75</ele><time>2026-05-01T09:09:43.256Z</time></trkpt><trkpt lat="45.1234283" lon="7.2330017"><ele>396.5</ele><time>2026-05-01T09:09:44.257Z</time></trkpt><trkpt lat="45.1234733" lon="7.2328083"><ele>396.25</ele><time>2026-05-01T09:09:45.257Z</time></trkpt><trkpt lat="45.1235233" lon="7.2325967"><ele>396.0</ele><time>2026-05-01T09:09:46.257Z</time></trkpt><trkpt lat="45.1235633" lon="7.232365"><ele>396.33333333333337</ele><time>2026-05-01T09:09:47.256Z</time></trkpt><trkpt lat="45.1235983" lon="7.2320867"><ele>396.6666666666667</ele><time>2026-05-01T09:09:48.257Z</time></trkpt><trkpt lat="45.1236567" lon="7.2317883"><ele>397.0</ele><time>2026-05-01T09:09:49.256Z</time></trkpt><trkpt lat="45.1237117" lon="7.2314783"><ele>397.5</ele><time>2026-05-01T09:09:50.256Z</time></trkpt><trkpt lat="45.123785" lon="7.2311467"><ele>398.0</ele><time>2026-05-01T09:09:51.256Z</time></trkpt><trkpt lat="45.1238567" lon="7.2308583"><ele>397.66666666666663</ele><time>2026-05-01T09:09:52.257Z</time></trkpt><trkpt lat="45.123925" lon="7.2305783"><ele>397.33333333333337</ele><time>2026-05-01T09:09:53.257Z</time></trkpt><trkpt lat="45.12398" lon="7.23033"><ele>397.0</ele><time>2026-05-01T09:09:54.257Z</time></trkpt><trkpt lat="45.12404" lon="7.2300933"><ele>397.0</ele><time>2026-05-01T09:09:55.257Z</time></trkpt><trkpt lat="45.12409" lon="7.2298567"><ele>397.0</ele><time>2026-05-01T09:09:56.256Z</time></trkpt><trkpt lat="45.124145" lon="7.22961"><ele>397.0</ele><time>2026-05-01T09:09:57.256Z</time></trkpt><trkpt lat="45.1242067" lon="7.2293783"><ele>397.0</ele><time>2026-05-01T09:09:58.257Z</time></trkpt><trkpt lat="45.1242717" lon="7.2291383"><ele>397.0</ele><time>2026-05-01T09:09:59.257Z</time></trkpt><trkpt lat="45.12433" lon="7.2288983"><ele>397.0</ele><time>2026-05-01T09:10:00.257Z</time></trkpt><trkpt lat="45.1243783" lon="7.2286567"><ele>397.33333333333337</ele><time>2026-05-01T09:10:01.257Z</time></trkpt><trkpt lat="45.1244367" lon="7.2284167"><ele>397.66666666666663</ele><time>2026-05-01T09:10:02.257Z</time></trkpt><trkpt lat="45.124475" lon="7.228215"><ele>398.0</ele><time>2026-05-01T09:10:03.257Z</time></trkpt><trkpt lat="45.1245133" lon="7.2280383"><ele>398.0</ele><time>2026-05-01T09:10:04.257Z</time></trkpt><trkpt lat="45.1245217" lon="7.2278817"><ele>398.0</ele><time>2026-05-01T09:10:05.257Z</time></trkpt><trkpt lat="45.12455" lon="7.227745"><ele>398.0</ele><time>2026-05-01T09:10:06.257Z</time></trkpt><trkpt lat="45.1245933" lon="7.2276183"><ele>398.0</ele><time>2026-05-01T09:10:07.257Z</time></trkpt><trkpt lat="45.12465" lon="7.227505"><ele>398.0</ele><time>2026-05-01T09:10:08.257Z</time></trkpt><trkpt lat="45.1247" lon="7.227395"><ele>398.0</ele><time>2026-05-01T09:10:09.257Z</time></trkpt><trkpt lat="45.12473" lon="7.227275"><ele>398.0</ele><time>2026-05-01T09:10:10.257Z</time></trkpt><trkpt lat="45.1247433" lon="7.2271333"><ele>398.0</ele><time>2026-05-01T09:10:11.257Z</time></trkpt><trkpt lat="45.1247617" lon="7.2269783"><ele>398.0</ele><time>2026-05-01T09:10:12.257Z</time></trkpt><trkpt lat="45.1247867" lon="7.226805"><ele>398.0</ele><time>2026-05-01T09:10:13.257Z</time></trkpt><trkpt lat="45.12483" lon="7.226595"><ele>398.3333333333333</ele><time>2026-05-01T09:10:14.256Z</time></trkpt><trkpt lat="45.1248767" lon="7.2263567"><ele>398.66666666666663</ele><time>2026-05-01T09:10:15.257Z</time></trkpt><trkpt lat="45.1249383" lon="7.2261067"><ele>399.0</ele><time>2026-05-01T09:10:16.257Z</time></trkpt><trkpt lat="45.1249883" lon="7.2257933"><ele>399.0</ele><time>2026-05-01T09:10:17.256Z</time></trkpt><trkpt lat="45.12505" lon="7.2254933"><ele>399.0</ele><time>2026-05-01T09:10:18.257Z</time></trkpt><trkpt lat="45.1251" lon="7.2251917"><ele>399.0</ele><time>2026-05-01T09:10:19.257Z</time></trkpt><trkpt lat="45.12516" lon="7.2249"><ele>399.33333333333337</ele><time>2026-05-01T09:10:20.257Z</time></trkpt><trkpt lat="45.1252383" lon="7.2246117"><ele>399.6666666666667</ele><time>2026-05-01T09:10:21.256Z</time></trkpt><trkpt lat="45.1253017" lon="7.2243133"><ele>400.0</ele><time>2026-05-01T09:10:22.257Z</time></trkpt><trkpt lat="45.125355" lon="7.2240067"><ele>400.6666666666667</ele><time>2026-05-01T09:10:23.257Z</time></trkpt><trkpt lat="45.1254167" lon="7.2237417"><ele>401.33333333333337</ele><time>2026-05-01T09:10:24.257Z</time></trkpt><trkpt lat="45.12548" lon="7.22349"><ele>402.0</ele><time>2026-05-01T09:10:25.257Z</time></trkpt><trkpt lat="45.1255317" lon="7.22324"><ele>402.33333333333337</ele><time>2026-05-01T09:10:26.257Z</time></trkpt><trkpt lat="45.1255833" lon="7.2229867"><ele>402.6666666666667</ele><time>2026-05-01T09:10:27.257Z</time></trkpt><trkpt lat="45.1256467" lon="7.2227267"><ele>403.0</ele><time>2026-05-01T09:10:28.257Z</time></trkpt><trkpt lat="45.125705" lon="7.2224733"><ele>402.0</ele><time>2026-05-01T09:10:29.257Z</time></trkpt><trkpt lat="45.1257617" lon="7.22221"><ele>401.0</ele><time>2026-05-01T09:10:30.256Z</time></trkpt><trkpt lat="45.12582" lon="7.221955"><ele>400.0</ele><time>2026-05-01T09:10:31.256Z</time></trkpt><trkpt lat="45.1258767" lon="7.2216783"><ele>399.6666666666667</ele><time>2026-05-01T09:10:32.257Z</time></trkpt><trkpt lat="45.1259517" lon="7.22138"><ele>399.33333333333337</ele><time>2026-05-01T09:10:33.257Z</time></trkpt><trkpt lat="45.1260267" lon="7.2210817"><ele>399.0</ele><time>2026-05-01T09:10:34.257Z</time></trkpt><trkpt lat="45.1260917" lon="7.2207733"><ele>399.0</ele><time>2026-05-01T09:10:35.257Z</time></trkpt><trkpt lat="45.1261567" lon="7.2204617"><ele>399.0</ele><time>2026-05-01T09:10:36.257Z</time></trkpt><trkpt lat="45.1262083" lon="7.2201383"><ele>399.0</ele><time>2026-05-01T09:10:37.257Z</time></trkpt><trkpt lat="45.1262767" lon="7.21983"><ele>399.0</ele><time>2026-05-01T09:10:38.257Z</time></trkpt><trkpt lat="45.1263633" lon="7.2195367"><ele>399.5</ele><time>2026-05-01T09:10:39.256Z</time></trkpt><trkpt lat="45.1264417" lon="7.2192167"><ele>400.0</ele><time>2026-05-01T09:10:40.257Z</time></trkpt><trkpt lat="45.1265217" lon="7.21891"><ele>400.5</ele><time>2026-05-01T09:10:41.257Z</time></trkpt><trkpt lat="45.1266033" lon="7.21861"><ele>401.0</ele><time>2026-05-01T09:10:42.257Z</time></trkpt><trkpt lat="45.126675" lon="7.2183067"><ele>400.66666666666663</ele><time>2026-05-01T09:10:43.256Z</time></trkpt><trkpt lat="45.126745" lon="7.2180133"><ele>400.33333333333337</ele><time>2026-05-01T09:10:44.257Z</time></trkpt><trkpt lat="45.12681" lon="7.2177283"><ele>400.0</ele><time>2026-05-01T09:10:45.257Z</time></trkpt><trkpt lat="45.12688" lon="7.21744"><ele>400.6666666666667</ele><time>2026-05-01T09:10:46.257Z</time></trkpt><trkpt lat="45.126945" lon="7.2171517"><ele>401.33333333333337</ele><time>2026-05-01T09:10:47.256Z</time></trkpt><trkpt lat="45.12701" lon="7.2168483"><ele>402.0</ele><time>2026-05-01T09:10:48.257Z</time></trkpt><trkpt lat="45.1270617" lon="7.2164967"><ele>402.5</ele><time>2026-05-01T09:10:49.257Z</time></trkpt><trkpt lat="45.1271183" lon="7.2161567"><ele>403.0</ele><time>2026-05-01T09:10:50.257Z</time></trkpt><trkpt lat="45.1271817" lon="7.2158117"><ele>403.0</ele><time>2026-05-01T09:10:51.256Z</time></trkpt><trkpt lat="45.12726" lon="7.21544"><ele>403.0</ele><time>2026-05-01T09:10:52.256Z</time></trkpt><trkpt lat="45.12734" lon="7.215075"><ele>403.5</ele><time>2026-05-01T09:10:53.256Z</time></trkpt><trkpt lat="45.12743" lon="7.2147233"><ele>404.0</ele><time>2026-05-01T09:10:54.256Z</time></trkpt><trkpt lat="45.1275083" lon="7.2144067"><ele>404.0</ele><time>2026-05-01T09:10:55.256Z</time></trkpt><trkpt lat="45.127575" lon="7.2141183"><ele>404.0</ele><time>2026-05-01T09:10:56.257Z</time></trkpt><trkpt lat="45.1276383" lon="7.2138333"><ele>404.0</ele><time>2026-05-01T09:10:57.257Z</time></trkpt><trkpt lat="45.1277017" lon="7.2135467"><ele>404.3333333333333</ele><time>2026-05-01T09:10:58.257Z</time></trkpt><trkpt lat="45.12777" lon="7.2132717"><ele>404.66666666666663</ele><time>2026-05-01T09:10:59.257Z</time></trkpt><trkpt lat="45.1278367" lon="7.212995"><ele>405.0</ele><time>2026-05-01T09:11:00.257Z</time></trkpt><trkpt lat="45.12791" lon="7.2127267"><ele>405.33333333333337</ele><time>2026-05-01T09:11:01.257Z</time></trkpt><trkpt lat="45.127965" lon="7.2124467"><ele>405.6666666666667</ele><time>2026-05-01T09:11:02.256Z</time></trkpt><trkpt lat="45.1280217" lon="7.2121767"><ele>406.0</ele><time>2026-05-01T09:11:03.257Z</time></trkpt><trkpt lat="45.1280867" lon="7.2119067"><ele>406.0</ele><time>2026-05-01T09:11:04.257Z</time></trkpt><trkpt lat="45.1281417" lon="7.21165"><ele>406.0</ele><time>2026-05-01T09:11:05.257Z</time></trkpt><trkpt lat="45.1281983" lon="7.2114133"><ele>406.0</ele><time>2026-05-01T09:11:06.257Z</time></trkpt><trkpt lat="45.128255" lon="7.2111783"><ele>406.0</ele><time>2026-05-01T09:11:07.257Z</time></trkpt><trkpt lat="45.1283133" lon="7.2109583"><ele>406.0</ele><time>2026-05-01T09:11:08.257Z</time></trkpt><trkpt lat="45.128365" lon="7.2107567"><ele>406.0</ele><time>2026-05-01T09:11:09.257Z</time></trkpt><trkpt lat="45.1284067" lon="7.2105717"><ele>406.0</ele><time>2026-05-01T09:11:10.257Z</time></trkpt><trkpt lat="45.1284317" lon="7.2103917"><ele>406.0</ele><time>2026-05-01T09:11:11.257Z</time></trkpt><trkpt lat="45.1284717" lon="7.2101967"><ele>406.0</ele><time>2026-05-01T09:11:12.257Z</time></trkpt><trkpt lat="45.12851" lon="7.2100133"><ele>406.0</ele><time>2026-05-01T09:11:13.257Z</time></trkpt><trkpt lat="45.1285483" lon="7.2098433"><ele>406.0</ele><time>2026-05-01T09:11:14.256Z</time></trkpt><trkpt lat="45.128595" lon="7.2096817"><ele>406.0</ele><time>2026-05-01T09:11:15.257Z</time></trkpt><trkpt lat="45.12863" lon="7.2095117"><ele>406.0</ele><time>2026-05-01T09:11:16.257Z</time></trkpt><trkpt lat="45.1286367" lon="7.209335"><ele>406.0</ele><time>2026-05-01T09:11:17.257Z</time></trkpt><trkpt lat="45.12867" lon="7.2091833"><ele>406.00000000000006</ele><time>2026-05-01T09:11:18.257Z</time></trkpt><trkpt lat="45.1287333" lon="7.2090683"><ele>406.0</ele><time>2026-05-01T09:11:19.256Z</time></trkpt><trkpt lat="45.1287867" lon="7.2089567"><ele>406.0</ele><time>2026-05-01T09:11:20.257Z</time></trkpt><trkpt lat="45.1288317" lon="7.20885"><ele>406.0</ele><time>2026-05-01T09:11:21.257Z</time></trkpt><trkpt lat="45.12889" lon="7.2087667"><ele>406.00000000000006</ele><time>2026-05-01T09:11:22.257Z</time></trkpt><trkpt lat="45.1289417" lon="7.2086867"><ele>406.0</ele><time>2026-05-01T09:11:23.257Z</time></trkpt><trkpt lat="45.128985" lon="7.2085783"><ele>406.0</ele><time>2026-05-01T09:11:24.256Z</time></trkpt><trkpt lat="45.12902" lon="7.2084617"><ele>406.0</ele><time>2026-05-01T09:11:25.256Z</time></trkpt><trkpt lat="45.1290333" lon="7.2083467"><ele>406.0</ele><time>2026-05-01T09:11:26.256Z</time></trkpt><trkpt lat="45.1290367" lon="7.2082217"><ele>406.0</ele><time>2026-05-01T09:11:27.257Z</time></trkpt><trkpt lat="45.1290233" lon="7.20807"><ele>406.0</ele><time>2026-05-01T09:11:28.256Z</time></trkpt><trkpt lat="45.1290333" lon="7.207895"><ele>406.33333333333337</ele><time>2026-05-01T09:11:29.257Z</time></trkpt><trkpt lat="45.1290633" lon="7.207685"><ele>406.66666666666663</ele><time>2026-05-01T09:11:30.257Z</time></trkpt><trkpt lat="45.1291067" lon="7.207455"><ele>407.0</ele><time>2026-05-01T09:11:31.257Z</time></trkpt><trkpt lat="45.12915" lon="7.2071817"><ele>407.0</ele><time>2026-05-01T09:11:32.257Z</time></trkpt><trkpt lat="45.12918" lon="7.2069483"><ele>407.0</ele><time>2026-05-01T09:11:33.257Z</time></trkpt><trkpt lat="45.12922" lon="7.2067483"><ele>407.0</ele><time>2026-05-01T09:11:34.257Z</time></trkpt><trkpt lat="45.1292817" lon="7.206555"><ele>406.66666666666663</ele><time>2026-05-01T09:11:35.257Z</time></trkpt><trkpt lat="45.1293383" lon="7.206345"><ele>406.33333333333337</ele><time>2026-05-01T09:11:36.257Z</time></trkpt><trkpt lat="45.129385" lon="7.2061283"><ele>406.0</ele><time>2026-05-01T09:11:37.257Z</time></trkpt><trkpt lat="45.1294317" lon="7.205895"><ele>406.33333333333337</ele><time>2026-05-01T09:11:38.257Z</time></trkpt><trkpt lat="45.12947" lon="7.2056417"><ele>406.66666666666663</ele><time>2026-05-01T09:11:39.256Z</time></trkpt><trkpt lat="45.129525" lon="7.205375"><ele>407.0</ele><time>2026-05-01T09:11:40.257Z</time></trkpt><trkpt lat="45.129565" lon="7.205135"><ele>407.0</ele><time>2026-05-01T09:11:41.257Z</time></trkpt><trkpt lat="45.129615" lon="7.20489"><ele>407.0</ele><time>2026-05-01T09:11:42.257Z</time></trkpt><trkpt lat="45.129685" lon="7.204675"><ele>407.0</ele><time>2026-05-01T09:11:43.257Z</time></trkpt><trkpt lat="45.12974" lon="7.20445"><ele>407.0</ele><time>2026-05-01T09:11:44.256Z</time></trkpt><trkpt lat="45.1297867" lon="7.2042217"><ele>407.0</ele><time>2026-05-01T09:11:45.256Z</time></trkpt><trkpt lat="45.129835" lon="7.2040083"><ele>407.0</ele><time>2026-05-01T09:11:46.257Z</time></trkpt><trkpt lat="45.1298817" lon="7.203795"><ele>408.0</ele><time>2026-05-01T09:11:47.256Z</time></trkpt><trkpt lat="45.1299417" lon="7.2035533"><ele>409.0</ele><time>2026-05-01T09:11:48.256Z</time></trkpt><trkpt lat="45.130005" lon="7.2033183"><ele>410.0</ele><time>2026-05-01T09:11:49.256Z</time></trkpt><trkpt lat="45.130085" lon="7.20309"><ele>410.0</ele><time>2026-05-01T09:11:50.257Z</time></trkpt><trkpt lat="45.13014" lon="7.20284"><ele>410.0</ele><time>2026-05-01T09:11:51.256Z</time></trkpt><trkpt lat="45.1302083" lon="7.20259"><ele>410.0</ele><time>2026-05-01T09:11:52.257Z</time></trkpt><trkpt lat="45.1302717" lon="7.2023317"><ele>410.3333333333333</ele><time>2026-05-01T09:11:53.257Z</time></trkpt><trkpt lat="45.1303317" lon="7.2020717"><ele>410.66666666666663</ele><time>2026-05-01T09:11:54.257Z</time></trkpt><trkpt lat="45.1303883" lon="7.2017833"><ele>411.0</ele><time>2026-05-01T09:11:55.256Z</time></trkpt><trkpt lat="45.130455" lon="7.20153"><ele>411.33333333333337</ele><time>2026-05-01T09:11:56.257Z</time></trkpt><trkpt lat="45.1304883" lon="7.201245"><ele>411.6666666666667</ele><time>2026-05-01T09:11:57.256Z</time></trkpt><trkpt lat="45.130535" lon="7.200945"><ele>412.0</ele><time>2026-05-01T09:11:58.256Z</time></trkpt><trkpt lat="45.1305933" lon="7.20067"><ele>412.0</ele><time>2026-05-01T09:11:59.257Z</time></trkpt><trkpt lat="45.1306483" lon="7.2003833"><ele>412.0</ele><time>2026-05-01T09:12:00.257Z</time></trkpt><trkpt lat="45.1307167" lon="7.2000833"><ele>412.0</ele><time>2026-05-01T09:12:01.257Z</time></trkpt><trkpt lat="45.1307883" lon="7.1997983"><ele>412.0</ele><time>2026-05-01T09:12:02.257Z</time></trkpt><trkpt lat="45.1308617" lon="7.1994933"><ele>412.0</ele><time>2026-05-01T09:12:03.257Z</time></trkpt><trkpt lat="45.13094" lon="7.1991817"><ele>412.0</ele><time>2026-05-01T09:12:04.257Z</time></trkpt><trkpt lat="45.1310167" lon="7.1988717"><ele>412.0</ele><time>2026-05-01T09:12:05.257Z</time></trkpt><trkpt lat="45.13109" lon="7.1985667"><ele>412.0</ele><time>2026-05-01T09:12:06.257Z</time></trkpt><trkpt lat="45.1311533" lon="7.1982583"><ele>412.0</ele><time>2026-05-01T09:12:07.256Z</time></trkpt><trkpt lat="45.1312167" lon="7.1979433"><ele>412.0</ele><time>2026-05-01T09:12:08.257Z</time></trkpt><trkpt lat="45.13129" lon="7.197625"><ele>412.0</ele><time>2026-05-01T09:12:09.256Z</time></trkpt><trkpt lat="45.1313633" lon="7.1973067"><ele>412.0</ele><time>2026-05-01T09:12:10.257Z</time></trkpt><trkpt lat="45.1314283" lon="7.197"><ele>412.0</ele><time>2026-05-01T09:12:11.257Z</time></trkpt><trkpt lat="45.1314967" lon="7.196695"><ele>411.33333333333337</ele><time>2026-05-01T09:12:12.257Z</time></trkpt><trkpt lat="45.1315667" lon="7.196395"><ele>410.66666666666663</ele><time>2026-05-01T09:12:13.256Z</time></trkpt><trkpt lat="45.1316317" lon="7.1961083"><ele>410.0</ele><time>2026-05-01T09:12:14.257Z</time></trkpt><trkpt lat="45.1316967" lon="7.1958"><ele>409.5</ele><time>2026-05-01T09:12:15.256Z</time></trkpt><trkpt lat="45.1317617" lon="7.1954833"><ele>409.0</ele><time>2026-05-01T09:12:16.256Z</time></trkpt><trkpt lat="45.1318383" lon="7.1951467"><ele>409.0</ele><time>2026-05-01T09:12:17.257Z</time></trkpt><trkpt lat="45.13192" lon="7.1948083"><ele>409.0</ele><time>2026-05-01T09:12:18.257Z</time></trkpt><trkpt lat="45.1319967" lon="7.1944667"><ele>409.0</ele><time>2026-05-01T09:12:19.257Z</time></trkpt><trkpt lat="45.132075" lon="7.194125"><ele>409.0</ele><time>2026-05-01T09:12:20.256Z</time></trkpt><trkpt lat="45.13215" lon="7.193785"><ele>410.5</ele><time>2026-05-01T09:12:21.257Z</time></trkpt><trkpt lat="45.132225" lon="7.1934383"><ele>412.0</ele><time>2026-05-01T09:12:22.257Z</time></trkpt><trkpt lat="45.132305" lon="7.19308"><ele>412.0</ele><time>2026-05-01T09:12:23.257Z</time></trkpt><trkpt lat="45.1323817" lon="7.1927217"><ele>412.0</ele><time>2026-05-01T09:12:24.257Z</time></trkpt><trkpt lat="45.1324583" lon="7.1923767"><ele>412.5</ele><time>2026-05-01T09:12:25.257Z</time></trkpt><trkpt lat="45.1325333" lon="7.1920433"><ele>413.0</ele><time>2026-05-01T09:12:26.256Z</time></trkpt><trkpt lat="45.132595" lon="7.1917283"><ele>412.5</ele><time>2026-05-01T09:12:27.257Z</time></trkpt><trkpt lat="45.132665" lon="7.1914267"><ele>412.0</ele><time>2026-05-01T09:12:28.257Z</time></trkpt><trkpt lat="45.132735" lon="7.1911083"><ele>412.0</ele><time>2026-05-01T09:12:29.257Z</time></trkpt><trkpt lat="45.1328033" lon="7.190795"><ele>412.0</ele><time>2026-05-01T09:12:30.257Z</time></trkpt><trkpt lat="45.1328617" lon="7.1904883"><ele>412.33333333333337</ele><time>2026-05-01T09:12:31.256Z</time></trkpt><trkpt lat="45.132915" lon="7.1901867"><ele>412.66666666666663</ele><time>2026-05-01T09:12:32.256Z</time></trkpt><trkpt lat="45.1329833" lon="7.1898867"><ele>413.0</ele><time>2026-05-01T09:12:33.256Z</time></trkpt><trkpt lat="45.1330567" lon="7.1895767"><ele>413.5</ele><time>2026-05-01T09:12:34.257Z</time></trkpt><trkpt lat="45.133125" lon="7.1892517"><ele>414.0</ele><time>2026-05-01T09:12:35.257Z</time></trkpt><trkpt lat="45.1331933" lon="7.18892"><ele>414.0</ele><time>2026-05-01T09:12:36.257Z</time></trkpt><trkpt lat="45.1332633" lon="7.1885933"><ele>414.0</ele><time>2026-05-01T09:12:37.257Z</time></trkpt><trkpt lat="45.1333317" lon="7.188285"><ele>414.66666666666663</ele><time>2026-05-01T09:12:38.256Z</time></trkpt><trkpt lat="45.1333933" lon="7.187995"><ele>415.3333333333333</ele><time>2026-05-01T09:12:39.257Z</time></trkpt><trkpt lat="45.13347" lon="7.1877017"><ele>416.0</ele><time>2026-05-01T09:12:40.257Z</time></trkpt><trkpt lat="45.13355" lon="7.1874033"><ele>416.0</ele><time>2026-05-01T09:12:41.257Z</time></trkpt><trkpt lat="45.1336233" lon="7.18709"><ele>416.0</ele><time>2026-05-01T09:12:42.257Z</time></trkpt><trkpt lat="45.133695" lon="7.1867917"><ele>416.0</ele><time>2026-05-01T09:12:43.257Z</time></trkpt><trkpt lat="45.1337633" lon="7.1865233"><ele>416.0</ele><time>2026-05-01T09:12:44.257Z</time></trkpt><trkpt lat="45.1338317" lon="7.1862633"><ele>416.0</ele><time>2026-05-01T09:12:45.257Z</time></trkpt><trkpt lat="45.1339017" lon="7.1859883"><ele>416.0</ele><time>2026-05-01T09:12:46.257Z</time></trkpt><trkpt lat="45.1339767" lon="7.1856967"><ele>416.0</ele><time>2026-05-01T09:12:47.257Z</time></trkpt><trkpt lat="45.1340333" lon="7.185395"><ele>416.0</ele><time>2026-05-01T09:12:48.257Z</time></trkpt><trkpt lat="45.134095" lon="7.1850867"><ele>416.0</ele><time>2026-05-01T09:12:49.256Z</time></trkpt><trkpt lat="45.1341633" lon="7.1847683"><ele>416.0</ele><time>2026-05-01T09:12:50.257Z</time></trkpt><trkpt lat="45.1342217" lon="7.184455"><ele>416.0</ele><time>2026-05-01T09:12:51.256Z</time></trkpt><trkpt lat="45.1342733" lon="7.1841683"><ele>416.0</ele><time>2026-05-01T09:12:52.256Z</time></trkpt><trkpt lat="45.1343283" lon="7.18391"><ele>416.0</ele><time>2026-05-01T09:12:53.257Z</time></trkpt><trkpt lat="45.1343833" lon="7.1836683"><ele>417.0</ele><time>2026-05-01T09:12:54.257Z</time></trkpt><trkpt lat="45.1344367" lon="7.1834317"><ele>418.0</ele><time>2026-05-01T09:12:55.257Z</time></trkpt><trkpt lat="45.1345067" lon="7.1831917"><ele>419.0</ele><time>2026-05-01T09:12:56.256Z</time></trkpt><trkpt lat="45.1345667" lon="7.1829383"><ele>419.0</ele><time>2026-05-01T09:12:57.257Z</time></trkpt><trkpt lat="45.1346233" lon="7.1827"><ele>419.0</ele><time>2026-05-01T09:12:58.257Z</time></trkpt><trkpt lat="45.1346817" lon="7.1824667"><ele>419.0</ele><time>2026-05-01T09:12:59.256Z</time></trkpt><trkpt lat="45.13473" lon="7.1822367"><ele>419.0</ele><time>2026-05-01T09:13:00.257Z</time></trkpt><trkpt lat="45.1347833" lon="7.181995"><ele>419.0</ele><time>2026-05-01T09:13:01.257Z</time></trkpt><trkpt lat="45.1348367" lon="7.181735"><ele>419.0</ele><time>2026-05-01T09:13:02.257Z</time></trkpt><trkpt lat="45.13488" lon="7.1814783"><ele>419.66666666666663</ele><time>2026-05-01T09:13:03.257Z</time></trkpt><trkpt lat="45.134925" lon="7.1812283"><ele>420.33333333333337</ele><time>2026-05-01T09:13:04.257Z</time></trkpt><trkpt lat="45.134975" lon="7.18097"><ele>421.0</ele><time>2026-05-01T09:13:05.257Z</time></trkpt><trkpt lat="45.13502" lon="7.1807017"><ele>421.33333333333337</ele><time>2026-05-01T09:13:06.257Z</time></trkpt><trkpt lat="45.13507" lon="7.180425"><ele>421.66666666666663</ele><time>2026-05-01T09:13:07.257Z</time></trkpt><trkpt lat="45.13512" lon="7.180145"><ele>422.0</ele><time>2026-05-01T09:13:08.257Z</time></trkpt><trkpt lat="45.135205" lon="7.1798633"><ele>422.0</ele><time>2026-05-01T09:13:09.257Z</time></trkpt><trkpt lat="45.1352733" lon="7.1795583"><ele>422.0</ele><time>2026-05-01T09:13:10.257Z</time></trkpt><trkpt lat="45.1353417" lon="7.179245"><ele>421.5</ele><time>2026-05-01T09:13:11.257Z</time></trkpt><trkpt lat="45.135405" lon="7.1789367"><ele>421.0</ele><time>2026-05-01T09:13:12.257Z</time></trkpt><trkpt lat="45.13547" lon="7.1786217"><ele>421.0</ele><time>2026-05-01T09:13:13.257Z</time></trkpt><trkpt lat="45.1355117" lon="7.1782983"><ele>421.0</ele><time>2026-05-01T09:13:14.257Z</time></trkpt><trkpt lat="45.1355567" lon="7.1779767"><ele>421.0</ele><time>2026-05-01T09:13:15.257Z</time></trkpt><trkpt lat="45.1355867" lon="7.177675"><ele>421.0</ele><time>2026-05-01T09:13:16.257Z</time></trkpt><trkpt lat="45.1356167" lon="7.1774117"><ele>421.0</ele><time>2026-05-01T09:13:17.257Z</time></trkpt><trkpt lat="45.1356467" lon="7.177185"><ele>421.0</ele><time>2026-05-01T09:13:18.257Z</time></trkpt><trkpt lat="45.1356633" lon="7.1769733"><ele>421.0</ele><time>2026-05-01T09:13:19.257Z</time></trkpt><trkpt lat="45.135675" lon="7.1767783"><ele>421.0</ele><time>2026-05-01T09:13:20.256Z</time></trkpt><trkpt lat="45.1356967" lon="7.1765933"><ele>421.0</ele><time>2026-05-01T09:13:21.256Z</time></trkpt><trkpt lat="45.1357133" lon="7.176425"><ele>422.4</ele><time>2026-05-01T09:13:22.257Z</time></trkpt><trkpt lat="45.13573" lon="7.1762567"><ele>423.8</ele><time>2026-05-01T09:13:23.257Z</time></trkpt><trkpt lat="45.1357483" lon="7.17611"><ele>425.19999999999993</ele><time>2026-05-01T09:13:24.256Z</time></trkpt><trkpt lat="45.1357667" lon="7.17598"><ele>426.59999999999997</ele><time>2026-05-01T09:13:25.257Z</time></trkpt><trkpt lat="45.1357833" lon="7.1758517"><ele>428.0</ele><time>2026-05-01T09:13:26.257Z</time></trkpt><trkpt lat="45.1357917" lon="7.17572"><ele>427.8333333333333</ele><time>2026-05-01T09:13:27.257Z</time></trkpt><trkpt lat="45.1358067" lon="7.1755983"><ele>427.66666666666663</ele><time>2026-05-01T09:13:28.257Z</time></trkpt><trkpt lat="45.13583" lon="7.1755017"><ele>427.5</ele><time>2026-05-01T09:13:29.257Z</time></trkpt><trkpt lat="45.1358383" lon="7.1753917"><ele>427.33333333333337</ele><time>2026-05-01T09:13:30.256Z</time></trkpt><trkpt lat="45.135855" lon="7.1752933"><ele>427.1666666666667</ele><time>2026-05-01T09:13:31.256Z</time></trkpt><trkpt lat="45.1358717" lon="7.1751867"><ele>427.0</ele><time>2026-05-01T09:13:32.257Z</time></trkpt><trkpt lat="45.1358817" lon="7.1750767"><ele>427.00000000000006</ele><time>2026-05-01T09:13:33.257Z</time></trkpt><trkpt lat="45.13588" lon="7.17497"><ele>427.0</ele><time>2026-05-01T09:13:34.257Z</time></trkpt><trkpt lat="45.135855" lon="7.17486"><ele>427.0</ele><time>2026-05-01T09:13:35.257Z</time></trkpt><trkpt lat="45.1358067" lon="7.1747683"><ele>427.0</ele><time>2026-05-01T09:13:36.257Z</time></trkpt><trkpt lat="45.135755" lon="7.1747033"><ele>427.00000000000006</ele><time>2026-05-01T09:13:37.257Z</time></trkpt><trkpt lat="45.135645" lon="7.174655"><ele>427.0</ele><time>2026-05-01T09:13:38.257Z</time></trkpt><trkpt lat="45.1355117" lon="7.1746117"><ele>426.6666666666667</ele><time>2026-05-01T09:13:39.256Z</time></trkpt><trkpt lat="45.1353317" lon="7.17456"><ele>426.33333333333337</ele><time>2026-05-01T09:13:40.257Z</time></trkpt><trkpt lat="45.1351333" lon="7.1744733"><ele>426.0</ele><time>2026-05-01T09:13:41.257Z</time></trkpt><trkpt lat="45.134925" lon="7.1743667"><ele>425.33333333333337</ele><time>2026-05-01T09:13:42.257Z</time></trkpt><trkpt lat="45.1347217" lon="7.17426"><ele>424.6666666666667</ele><time>2026-05-01T09:13:43.257Z</time></trkpt><trkpt lat="45.1345067" lon="7.174145"><ele>424.0</ele><time>2026-05-01T09:13:44.256Z</time></trkpt><trkpt lat="45.1343" lon="7.1740267"><ele>424.33333333333337</ele><time>2026-05-01T09:13:45.256Z</time></trkpt><trkpt lat="45.1340967" lon="7.1738983"><ele>424.66666666666663</ele><time>2026-05-01T09:13:46.257Z</time></trkpt><trkpt lat="45.1338967" lon="7.1737633"><ele>425.0</ele><time>2026-05-01T09:13:47.257Z</time></trkpt><trkpt lat="45.1337433" lon="7.173695"><ele>424.3333333333333</ele><time>2026-05-01T09:13:48.257Z</time></trkpt><trkpt lat="45.13359" lon="7.1736033"><ele>423.66666666666663</ele><time>2026-05-01T09:13:49.257Z</time></trkpt><trkpt lat="45.1334283" lon="7.173505"><ele>423.0</ele><time>2026-05-01T09:13:50.257Z</time></trkpt><trkpt lat="45.1332883" lon="7.1734"><ele>422.33333333333337</ele><time>2026-05-01T09:13:51.257Z</time></trkpt><trkpt lat="45.1331567" lon="7.1732733"><ele>421.6666666666667</ele><time>2026-05-01T09:13:52.257Z</time></trkpt><trkpt lat="45.1330233" lon="7.17312"><ele>421.0</ele><time>2026-05-01T09:13:53.257Z</time></trkpt><trkpt lat="45.13289" lon="7.17293"><ele>421.0</ele><time>2026-05-01T09:13:54.256Z</time></trkpt><trkpt lat="45.1327717" lon="7.17273"><ele>421.0</ele><time>2026-05-01T09:13:55.257Z</time></trkpt><trkpt lat="45.1326517" lon="7.1725017"><ele>421.0</ele><time>2026-05-01T09:13:56.256Z</time></trkpt><trkpt lat="45.1325083" lon="7.1722867"><ele>421.0</ele><time>2026-05-01T09:13:57.257Z</time></trkpt><trkpt lat="45.1324067" lon="7.17203"><ele>421.0</ele><time>2026-05-01T09:13:58.257Z</time></trkpt><trkpt lat="45.13227" lon="7.1717783"><ele>421.0</ele><time>2026-05-01T09:13:59.257Z</time></trkpt><trkpt lat="45.132125" lon="7.1715217"><ele>423.5</ele><time>2026-05-01T09:14:00.257Z</time></trkpt><trkpt lat="45.1319733" lon="7.1712833"><ele>426.0</ele><time>2026-05-01T09:14:01.257Z</time></trkpt><trkpt lat="45.1318233" lon="7.1710317"><ele>426.0</ele><time>2026-05-01T09:14:02.256Z</time></trkpt><trkpt lat="45.1316667" lon="7.1708017"><ele>426.0</ele><time>2026-05-01T09:14:03.257Z</time></trkpt><trkpt lat="45.1315333" lon="7.1705967"><ele>426.0</ele><time>2026-05-01T09:14:04.257Z</time></trkpt><trkpt lat="45.1314133" lon="7.1704117"><ele>426.5</ele><time>2026-05-01T09:14:05.256Z</time></trkpt><trkpt lat="45.131305" lon="7.1702433"><ele>427.0</ele><time>2026-05-01T09:14:06.257Z</time></trkpt><trkpt lat="45.1312317" lon="7.170075"><ele>427.5</ele><time>2026-05-01T09:14:07.256Z</time></trkpt><trkpt lat="45.1311667" lon="7.16992"><ele>428.0</ele><time>2026-05-01T09:14:08.257Z</time></trkpt><trkpt lat="45.131085" lon="7.169805"><ele>428.2</ele><time>2026-05-01T09:14:09.256Z</time></trkpt><trkpt lat="45.1310283" lon="7.169695"><ele>428.4</ele><time>2026-05-01T09:14:10.257Z</time></trkpt><trkpt lat="45.13098" lon="7.1696067"><ele>428.59999999999997</ele><time>2026-05-01T09:14:11.257Z</time></trkpt><trkpt lat="45.1309317" lon="7.1695033"><ele>428.79999999999995</ele><time>2026-05-01T09:14:12.257Z</time></trkpt><trkpt lat="45.1308883" lon="7.1693967"><ele>429.0</ele><time>2026-05-01T09:14:13.257Z</time></trkpt><trkpt lat="45.1308583" lon="7.1692567"><ele>429.0</ele><time>2026-05-01T09:14:14.256Z</time></trkpt><trkpt lat="45.130835" lon="7.1691067"><ele>429.0</ele><time>2026-05-01T09:14:15.257Z</time></trkpt><trkpt lat="45.130835" lon="7.16893"><ele>429.0</ele><time>2026-05-01T09:14:16.257Z</time></trkpt><trkpt lat="45.1308467" lon="7.1687367"><ele>429.0</ele><time>2026-05-01T09:14:17.257Z</time></trkpt><trkpt lat="45.1308767" lon="7.1685267"><ele>429.0</ele><time>2026-05-01T09:14:18.257Z</time></trkpt><trkpt lat="45.1309183" lon="7.16829"><ele>429.0</ele><time>2026-05-01T09:14:19.257Z</time></trkpt><trkpt lat="45.130965" lon="7.1680283"><ele>429.0</ele><time>2026-05-01T09:14:20.256Z</time></trkpt><trkpt lat="45.1310033" lon="7.1677683"><ele>429.0</ele><time>2026-05-01T09:14:21.257Z</time></trkpt><trkpt lat="45.1310417" lon="7.167495"><ele>429.0</ele><time>2026-05-01T09:14:22.257Z</time></trkpt><trkpt lat="45.1310817" lon="7.1672167"><ele>429.0</ele><time>2026-05-01T09:14:23.257Z</time></trkpt><trkpt lat="45.1311283" lon="7.16694"><ele>429.66666666666663</ele><time>2026-05-01T09:14:24.257Z</time></trkpt><trkpt lat="45.1311633" lon="7.16666"><ele>430.3333333333333</ele><time>2026-05-01T09:14:25.257Z</time></trkpt><trkpt lat="45.1311933" lon="7.166395"><ele>431.0</ele><time>2026-05-01T09:14:26.256Z</time></trkpt><trkpt lat="45.13122" lon="7.1661467"><ele>431.3333333333333</ele><time>2026-05-01T09:14:27.257Z</time></trkpt><trkpt lat="45.1312533" lon="7.1659017"><ele>431.66666666666663</ele><time>2026-05-01T09:14:28.257Z</time></trkpt><trkpt lat="45.1313033" lon="7.1656517"><ele>432.0</ele><time>2026-05-01T09:14:29.257Z</time></trkpt><trkpt lat="45.13137" lon="7.1654017"><ele>432.66666666666663</ele><time>2026-05-01T09:14:30.256Z</time></trkpt><trkpt lat="45.1314533" lon="7.1651417"><ele>433.3333333333333</ele><time>2026-05-01T09:14:31.256Z</time></trkpt><trkpt lat="45.1315333" lon="7.1648983"><ele>434.0</ele><time>2026-05-01T09:14:32.256Z</time></trkpt><trkpt lat="45.1316717" lon="7.1646233"><ele>432.0</ele><time>2026-05-01T09:14:33.257Z</time></trkpt><trkpt lat="45.1317983" lon="7.16433"><ele>430.0</ele><time>2026-05-01T09:14:34.257Z</time></trkpt><trkpt lat="45.1319283" lon="7.1640333"><ele>431.5</ele><time>2026-05-01T09:14:35.256Z</time></trkpt><trkpt lat="45.1320583" lon="7.16373"><ele>433.0</ele><time>2026-05-01T09:14:36.256Z</time></trkpt><trkpt lat="45.13217" lon="7.1634183"><ele>433.0</ele><time>2026-05-01T09:14:37.257Z</time></trkpt><trkpt lat="45.1322917" lon="7.163105"><ele>433.0</ele><time>2026-05-01T09:14:38.257Z</time></trkpt><trkpt lat="45.1323983" lon="7.16279"><ele>433.0</ele><time>2026-05-01T09:14:39.257Z</time></trkpt><trkpt lat="45.132505" lon="7.162475"><ele>433.0</ele><time>2026-05-01T09:14:40.256Z</time></trkpt><trkpt lat="45.1326217" lon="7.1621617"><ele>432.0</ele><time>2026-05-01T09:14:41.256Z</time></trkpt><trkpt lat="45.1327433" lon="7.1618567"><ele>431.0</ele><time>2026-05-01T09:14:42.257Z</time></trkpt><trkpt lat="45.132865" lon="7.1615467"><ele>431.0</ele><time>2026-05-01T09:14:43.256Z</time></trkpt><trkpt lat="45.1329783" lon="7.1612317"><ele>431.0</ele><time>2026-05-01T09:14:44.257Z</time></trkpt><trkpt lat="45.13308" lon="7.16091"><ele>432.5</ele><time>2026-05-01T09:14:45.256Z</time></trkpt><trkpt lat="45.1331883" lon="7.1605633"><ele>434.0</ele><time>2026-05-01T09:14:46.256Z</time></trkpt><trkpt lat="45.1332867" lon="7.160235"><ele>434.0</ele><time>2026-05-01T09:14:47.257Z</time></trkpt><trkpt lat="45.1333867" lon="7.1599167"><ele>434.0</ele><time>2026-05-01T09:14:48.257Z</time></trkpt><trkpt lat="45.13348" lon="7.1595833"><ele>434.5</ele><time>2026-05-01T09:14:49.257Z</time></trkpt><trkpt lat="45.13357" lon="7.1592717"><ele>435.0</ele><time>2026-05-01T09:14:50.256Z</time></trkpt><trkpt lat="45.1336567" lon="7.15894"><ele>435.0</ele><time>2026-05-01T09:14:51.257Z</time></trkpt><trkpt lat="45.133735" lon="7.158605"><ele>435.0</ele><time>2026-05-01T09:14:52.257Z</time></trkpt><trkpt lat="45.1338267" lon="7.1582833"><ele>436.0</ele><time>2026-05-01T09:14:53.256Z</time></trkpt><trkpt lat="45.1338817" lon="7.1579633"><ele>437.0</ele><time>2026-05-01T09:14:54.257Z</time></trkpt><trkpt lat="45.1339767" lon="7.15765"><ele>437.0</ele><time>2026-05-01T09:14:55.257Z</time></trkpt><trkpt lat="45.1340733" lon="7.157355"><ele>437.0</ele><time>2026-05-01T09:14:56.257Z</time></trkpt><trkpt lat="45.1341783" lon="7.1570733"><ele>437.0</ele><time>2026-05-01T09:14:57.256Z</time></trkpt><trkpt lat="45.1342933" lon="7.1567867"><ele>437.0</ele><time>2026-05-01T09:14:58.257Z</time></trkpt><trkpt lat="45.1344017" lon="7.156505"><ele>437.5</ele><time>2026-05-01T09:14:59.257Z</time></trkpt><trkpt lat="45.1345167" lon="7.15622"><ele>438.0</ele><time>2026-05-01T09:15:00.257Z</time></trkpt><trkpt lat="45.13462" lon="7.1559267"><ele>438.0</ele><time>2026-05-01T09:15:01.257Z</time></trkpt><trkpt lat="45.1347217" lon="7.1556567"><ele>438.0</ele><time>2026-05-01T09:15:02.257Z</time></trkpt><trkpt lat="45.1348233" lon="7.1554067"><ele>438.0</ele><time>2026-05-01T09:15:03.257Z</time></trkpt><trkpt lat="45.134925" lon="7.1551633"><ele>437.66666666666663</ele><time>2026-05-01T09:15:04.257Z</time></trkpt><trkpt lat="45.1350117" lon="7.1549467"><ele>437.3333333333333</ele><time>2026-05-01T09:15:05.257Z</time></trkpt><trkpt lat="45.1350817" lon="7.154725"><ele>437.0</ele><time>2026-05-01T09:15:06.256Z</time></trkpt><trkpt lat="45.1351567" lon="7.1545133"><ele>437.0</ele><time>2026-05-01T09:15:07.257Z</time></trkpt><trkpt lat="45.1352217" lon="7.1542883"><ele>437.0</ele><time>2026-05-01T09:15:08.257Z</time></trkpt><trkpt lat="45.1352833" lon="7.154065"><ele>437.0</ele><time>2026-05-01T09:15:09.257Z</time></trkpt><trkpt lat="45.1353267" lon="7.153835"><ele>437.3333333333333</ele><time>2026-05-01T09:15:10.257Z</time></trkpt><trkpt lat="45.135365" lon="7.1535967"><ele>437.66666666666663</ele><time>2026-05-01T09:15:11.257Z</time></trkpt><trkpt lat="45.13539" lon="7.153365"><ele>438.0</ele><time>2026-05-01T09:15:12.257Z</time></trkpt><trkpt lat="45.1354017" lon="7.153155"><ele>438.2</ele><time>2026-05-01T09:15:13.256Z</time></trkpt><trkpt lat="45.1354" lon="7.1529633"><ele>438.4</ele><time>2026-05-01T09:15:14.256Z</time></trkpt><trkpt lat="45.1354083" lon="7.1528017"><ele>438.59999999999997</ele><time>2026-05-01T09:15:15.257Z</time></trkpt><trkpt lat="45.1354333" lon="7.152675"><ele>438.79999999999995</ele><time>2026-05-01T09:15:16.257Z</time></trkpt><trkpt lat="45.1354583" lon="7.15255"><ele>439.0</ele><time>2026-05-01T09:15:17.256Z</time></trkpt><trkpt lat="45.1354717" lon="7.152435"><ele>439.25</ele><time>2026-05-01T09:15:18.257Z</time></trkpt><trkpt lat="45.1354767" lon="7.152305"><ele>439.5</ele><time>2026-05-01T09:15:19.257Z</time></trkpt><trkpt lat="45.1354633" lon="7.1521483"><ele>439.75</ele><time>2026-05-01T09:15:20.257Z</time></trkpt><trkpt lat="45.1354567" lon="7.15196"><ele>440.0</ele><time>2026-05-01T09:15:21.257Z</time></trkpt><trkpt lat="45.135455" lon="7.15172"><ele>441.0</ele><time>2026-05-01T09:15:22.257Z</time></trkpt><trkpt lat="45.13548" lon="7.1514467"><ele>442.0</ele><time>2026-05-01T09:15:23.257Z</time></trkpt><trkpt lat="45.1354867" lon="7.1511633"><ele>443.0</ele><time>2026-05-01T09:15:24.256Z</time></trkpt><trkpt lat="45.1355017" lon="7.1508583"><ele>443.0</ele><time>2026-05-01T09:15:25.256Z</time></trkpt><trkpt lat="45.1355083" lon="7.150555"><ele>443.0</ele><time>2026-05-01T09:15:26.257Z</time></trkpt><trkpt lat="45.1355233" lon="7.15027"><ele>443.0</ele><time>2026-05-01T09:15:27.257Z</time></trkpt><trkpt lat="45.1355467" lon="7.1499917"><ele>443.3333333333333</ele><time>2026-05-01T09:15:28.257Z</time></trkpt><trkpt lat="45.1355617" lon="7.1497317"><ele>443.66666666666663</ele><time>2026-05-01T09:15:29.257Z</time></trkpt><trkpt lat="45.135565" lon="7.1494883"><ele>444.0</ele><time>2026-05-01T09:15:30.256Z</time></trkpt><trkpt lat="45.135565" lon="7.1492267"><ele>444.33333333333337</ele><time>2026-05-01T09:15:31.257Z</time></trkpt><trkpt lat="45.1355767" lon="7.1489533"><ele>444.6666666666667</ele><time>2026-05-01T09:15:32.256Z</time></trkpt><trkpt lat="45.1356083" lon="7.148675"><ele>445.0</ele><time>2026-05-01T09:15:33.257Z</time></trkpt><trkpt lat="45.135635" lon="7.1484067"><ele>446.33333333333337</ele><time>2026-05-01T09:15:34.257Z</time></trkpt><trkpt lat="45.135655" lon="7.1481467"><ele>447.66666666666663</ele><time>2026-05-01T09:15:35.257Z</time></trkpt><trkpt lat="45.1356733" lon="7.14791"><ele>449.0</ele><time>2026-05-01T09:15:36.257Z</time></trkpt><trkpt lat="45.1356817" lon="7.1477067"><ele>449.0</ele><time>2026-05-01T09:15:37.256Z</time></trkpt><trkpt lat="45.13568" lon="7.14753"><ele>449.0</ele><time>2026-05-01T09:15:38.257Z</time></trkpt><trkpt lat="45.1356783" lon="7.1473667"><ele>449.0</ele><time>2026-05-01T09:15:39.257Z</time></trkpt><trkpt lat="45.13569" lon="7.1472"><ele>449.0</ele><time>2026-05-01T09:15:40.256Z</time></trkpt><trkpt lat="45.135695" lon="7.1470283"><ele>449.2</ele><time>2026-05-01T09:15:41.257Z</time></trkpt><trkpt lat="45.13568" lon="7.146865"><ele>449.4</ele><time>2026-05-01T09:15:42.257Z</time></trkpt><trkpt lat="45.1356633" lon="7.1467267"><ele>449.6</ele><time>2026-05-01T09:15:43.257Z</time></trkpt><trkpt lat="45.1356633" lon="7.1465933"><ele>449.8</ele><time>2026-05-01T09:15:44.256Z</time></trkpt><trkpt lat="45.1356683" lon="7.146455"><ele>450.0</ele><time>2026-05-01T09:15:45.256Z</time></trkpt><trkpt lat="45.1356783" lon="7.1463017"><ele>450.75</ele><time>2026-05-01T09:15:46.257Z</time></trkpt><trkpt lat="45.13569" lon="7.146125"><ele>451.5</ele><time>2026-05-01T09:15:47.256Z</time></trkpt><trkpt lat="45.135685" lon="7.14593"><ele>452.25</ele><time>2026-05-01T09:15:48.256Z</time></trkpt><trkpt lat="45.1356833" lon="7.1457067"><ele>453.0</ele><time>2026-05-01T09:15:49.257Z</time></trkpt><trkpt lat="45.1356833" lon="7.1454567"><ele>453.0</ele><time>2026-05-01T09:15:50.257Z</time></trkpt><trkpt lat="45.1356883" lon="7.1452083"><ele>453.0</ele><time>2026-05-01T09:15:51.257Z</time></trkpt><trkpt lat="45.1357033" lon="7.1449367"><ele>453.0</ele><time>2026-05-01T09:15:52.256Z</time></trkpt><trkpt lat="45.1356933" lon="7.1446717"><ele>453.33333333333337</ele><time>2026-05-01T09:15:53.257Z</time></trkpt><trkpt lat="45.1357167" lon="7.1444233"><ele>453.6666666666667</ele><time>2026-05-01T09:15:54.257Z</time></trkpt><trkpt lat="45.1357367" lon="7.1441867"><ele>454.0</ele><time>2026-05-01T09:15:55.257Z</time></trkpt><trkpt lat="45.1357517" lon="7.14396"><ele>452.6666666666667</ele><time>2026-05-01T09:15:56.257Z</time></trkpt><trkpt lat="45.1357783" lon="7.1437483"><ele>451.33333333333337</ele><time>2026-05-01T09:15:57.256Z</time></trkpt><trkpt lat="45.135805" lon="7.1435017"><ele>450.0</ele><time>2026-05-01T09:15:58.257Z</time></trkpt><trkpt lat="45.1357983" lon="7.14325"><ele>450.66666666666663</ele><time>2026-05-01T09:15:59.257Z</time></trkpt><trkpt lat="45.1357683" lon="7.1429833"><ele>451.3333333333333</ele><time>2026-05-01T09:16:00.257Z</time></trkpt><trkpt lat="45.1357317" lon="7.1427017"><ele>452.0</ele><time>2026-05-01T09:16:01.257Z</time></trkpt><trkpt lat="45.135695" lon="7.1424183"><ele>452.0</ele><time>2026-05-01T09:16:02.257Z</time></trkpt><trkpt lat="45.1356533" lon="7.1421367"><ele>452.0</ele><time>2026-05-01T09:16:03.257Z</time></trkpt><trkpt lat="45.1356217" lon="7.1418417"><ele>452.0</ele><time>2026-05-01T09:16:04.256Z</time></trkpt><trkpt lat="45.1355817" lon="7.1415617"><ele>452.3333333333333</ele><time>2026-05-01T09:16:05.256Z</time></trkpt><trkpt lat="45.1355617" lon="7.1412883"><ele>452.66666666666663</ele><time>2026-05-01T09:16:06.257Z</time></trkpt><trkpt lat="45.1355267" lon="7.1410217"><ele>453.0</ele><time>2026-05-01T09:16:07.257Z</time></trkpt><trkpt lat="45.1354717" lon="7.14073"><ele>453.0</ele><time>2026-05-01T09:16:08.257Z</time></trkpt><trkpt lat="45.1354333" lon="7.14044"><ele>453.0</ele><time>2026-05-01T09:16:09.257Z</time></trkpt><trkpt lat="45.1354" lon="7.1401517"><ele>453.0</ele><time>2026-05-01T09:16:10.256Z</time></trkpt><trkpt lat="45.1353767" lon="7.1398367"><ele>453.0</ele><time>2026-05-01T09:16:11.257Z</time></trkpt><trkpt lat="45.1353167" lon="7.1395717"><ele>453.0</ele><time>2026-05-01T09:16:12.257Z</time></trkpt><trkpt lat="45.1352417" lon="7.1393133"><ele>453.0</ele><time>2026-05-01T09:16:13.257Z</time></trkpt><trkpt lat="45.1352067" lon="7.139025"><ele>452.33333333333337</ele><time>2026-05-01T09:16:14.257Z</time></trkpt><trkpt lat="45.1351333" lon="7.138735"><ele>451.6666666666667</ele><time>2026-05-01T09:16:15.257Z</time></trkpt><trkpt lat="45.1350567" lon="7.1384433"><ele>451.0</ele><time>2026-05-01T09:16:16.257Z</time></trkpt><trkpt lat="45.13498" lon="7.13815"><ele>451.0</ele><time>2026-05-01T09:16:17.257Z</time></trkpt><trkpt lat="45.1348967" lon="7.137865"><ele>451.0</ele><time>2026-05-01T09:16:18.257Z</time></trkpt><trkpt lat="45.1348133" lon="7.1375867"><ele>451.0</ele><time>2026-05-01T09:16:19.257Z</time></trkpt><trkpt lat="45.1347267" lon="7.13732"><ele>450.6666666666667</ele><time>2026-05-01T09:16:20.257Z</time></trkpt><trkpt lat="45.13464" lon="7.1370567"><ele>450.33333333333337</ele><time>2026-05-01T09:16:21.257Z</time></trkpt><trkpt lat="45.1345533" lon="7.1367867"><ele>450.0</ele><time>2026-05-01T09:16:22.257Z</time></trkpt><trkpt lat="45.1344433" lon="7.1365167"><ele>450.0</ele><time>2026-05-01T09:16:23.257Z</time></trkpt><trkpt lat="45.1343483" lon="7.13623"><ele>450.0</ele><time>2026-05-01T09:16:24.257Z</time></trkpt><trkpt lat="45.1342417" lon="7.1359233"><ele>451.0</ele><time>2026-05-01T09:16:25.257Z</time></trkpt><trkpt lat="45.13413" lon="7.135615"><ele>452.0</ele><time>2026-05-01T09:16:26.257Z</time></trkpt><trkpt lat="45.1340317" lon="7.1353167"><ele>452.0</ele><time>2026-05-01T09:16:27.257Z</time></trkpt><trkpt lat="45.1339383" lon="7.135015"><ele>452.0</ele><time>2026-05-01T09:16:28.257Z</time></trkpt><trkpt lat="45.133855" lon="7.1347067"><ele>451.66666666666663</ele><time>2026-05-01T09:16:29.256Z</time></trkpt><trkpt lat="45.133775" lon="7.134415"><ele>451.33333333333337</ele><time>2026-05-01T09:16:30.257Z</time></trkpt><trkpt lat="45.1336883" lon="7.1341333"><ele>451.0</ele><time>2026-05-01T09:16:31.257Z</time></trkpt><trkpt lat="45.1336033" lon="7.1338683"><ele>451.0</ele><time>2026-05-01T09:16:32.256Z</time></trkpt><trkpt lat="45.1335267" lon="7.133605"><ele>451.0</ele><time>2026-05-01T09:16:33.257Z</time></trkpt><trkpt lat="45.1334467" lon="7.1333533"><ele>451.0</ele><time>2026-05-01T09:16:34.256Z</time></trkpt><trkpt lat="45.1333817" lon="7.1330617"><ele>449.0</ele><time>2026-05-01T09:16:35.257Z</time></trkpt><trkpt lat="45.13333" lon="7.13275"><ele>447.0</ele><time>2026-05-01T09:16:36.257Z</time></trkpt><trkpt lat="45.133265" lon="7.1324067"><ele>445.0</ele><time>2026-05-01T09:16:37.256Z</time></trkpt><trkpt lat="45.1332517" lon="7.1320033"><ele>443.0</ele><time>2026-05-01T09:16:38.256Z</time></trkpt><trkpt lat="45.1332267" lon="7.1316217"><ele>444.5</ele><time>2026-05-01T09:16:39.257Z</time></trkpt><trkpt lat="45.1332033" lon="7.1312433"><ele>446.0</ele><time>2026-05-01T09:16:40.257Z</time></trkpt><trkpt lat="45.1331883" lon="7.13088"><ele>446.0</ele><time>2026-05-01T09:16:41.257Z</time></trkpt><trkpt lat="45.133185" lon="7.1305467"><ele>446.0</ele><time>2026-05-01T09:16:42.257Z</time></trkpt><trkpt lat="45.1331917" lon="7.1302533"><ele>446.0</ele><time>2026-05-01T09:16:43.257Z</time></trkpt><trkpt lat="45.13319" lon="7.12994"><ele>448.3333333333333</ele><time>2026-05-01T09:16:44.257Z</time></trkpt><trkpt lat="45.13319" lon="7.1296383"><ele>450.66666666666663</ele><time>2026-05-01T09:16:45.257Z</time></trkpt><trkpt lat="45.13319" lon="7.1293617"><ele>453.0</ele><time>2026-05-01T09:16:46.257Z</time></trkpt><trkpt lat="45.1331817" lon="7.1290983"><ele>454.33333333333337</ele><time>2026-05-01T09:16:47.257Z</time></trkpt><trkpt lat="45.1331817" lon="7.1288383"><ele>455.6666666666667</ele><time>2026-05-01T09:16:48.256Z</time></trkpt><trkpt lat="45.13319" lon="7.128585"><ele>457.0</ele><time>2026-05-01T09:16:49.257Z</time></trkpt><trkpt lat="45.13318" lon="7.1283267"><ele>456.0</ele><time>2026-05-01T09:16:50.257Z</time></trkpt><trkpt lat="45.1331533" lon="7.128055"><ele>455.0</ele><time>2026-05-01T09:16:51.257Z</time></trkpt><trkpt lat="45.1331183" lon="7.1278067"><ele>454.0</ele><time>2026-05-01T09:16:52.257Z</time></trkpt><trkpt lat="45.13307" lon="7.127535"><ele>452.6666666666667</ele><time>2026-05-01T09:16:53.256Z</time></trkpt><trkpt lat="45.133" lon="7.127265"><ele>451.33333333333337</ele><time>2026-05-01T09:16:54.256Z</time></trkpt><trkpt lat="45.132925" lon="7.126995"><ele>450.0</ele><time>2026-05-01T09:16:55.257Z</time></trkpt><trkpt lat="45.1328467" lon="7.126735"><ele>449.0</ele><time>2026-05-01T09:16:56.257Z</time></trkpt><trkpt lat="45.132765" lon="7.1264983"><ele>448.0</ele><time>2026-05-01T09:16:57.257Z</time></trkpt><trkpt lat="45.1326717" lon="7.126265"><ele>447.0</ele><time>2026-05-01T09:16:58.257Z</time></trkpt><trkpt lat="45.1325617" lon="7.12601"><ele>447.0</ele><time>2026-05-01T09:16:59.256Z</time></trkpt><trkpt lat="45.13245" lon="7.1257867"><ele>447.0</ele><time>2026-05-01T09:17:00.257Z</time></trkpt><trkpt lat="45.1323083" lon="7.1255717"><ele>447.0</ele><time>2026-05-01T09:17:01.257Z</time></trkpt><trkpt lat="45.132135" lon="7.1253517"><ele>447.33333333333337</ele><time>2026-05-01T09:17:02.256Z</time></trkpt><trkpt lat="45.1319817" lon="7.1251367"><ele>447.6666666666667</ele><time>2026-05-01T09:17:03.257Z</time></trkpt><trkpt lat="45.131835" lon="7.1249333"><ele>448.0</ele><time>2026-05-01T09:17:04.257Z</time></trkpt><trkpt lat="45.1316967" lon="7.1247133"><ele>447.6666666666667</ele><time>2026-05-01T09:17:05.256Z</time></trkpt><trkpt lat="45.1315833" lon="7.1244917"><ele>447.33333333333337</ele><time>2026-05-01T09:17:06.257Z</time></trkpt><trkpt lat="45.1314867" lon="7.1242667"><ele>447.0</ele><time>2026-05-01T09:17:07.257Z</time></trkpt><trkpt lat="45.1314117" lon="7.1240233"><ele>447.0</ele><time>2026-05-01T09:17:08.256Z</time></trkpt><trkpt lat="45.13137" lon="7.1237633"><ele>447.0</ele><time>2026-05-01T09:17:09.257Z</time></trkpt><trkpt lat="45.131335" lon="7.1234983"><ele>447.0</ele><time>2026-05-01T09:17:10.257Z</time></trkpt><trkpt lat="45.1313633" lon="7.1231783"><ele>446.5</ele><time>2026-05-01T09:17:11.256Z</time></trkpt><trkpt lat="45.1314233" lon="7.1228117"><ele>446.0</ele><time>2026-05-01T09:17:12.257Z</time></trkpt><trkpt lat="45.131525" lon="7.1224117"><ele>446.5</ele><time>2026-05-01T09:17:13.257Z</time></trkpt><trkpt lat="45.13163" lon="7.12199"><ele>447.0</ele><time>2026-05-01T09:17:14.256Z</time></trkpt><trkpt lat="45.1317133" lon="7.121585"><ele>447.5</ele><time>2026-05-01T09:17:15.256Z</time></trkpt><trkpt lat="45.1318067" lon="7.1211733"><ele>448.0</ele><time>2026-05-01T09:17:16.257Z</time></trkpt><trkpt lat="45.1318783" lon="7.1207633"><ele>448.0</ele><time>2026-05-01T09:17:17.257Z</time></trkpt><trkpt lat="45.131925" lon="7.1203367"><ele>448.0</ele><time>2026-05-01T09:17:18.256Z</time></trkpt><trkpt lat="45.1319583" lon="7.11994"><ele>448.0</ele><time>2026-05-01T09:17:19.256Z</time></trkpt><trkpt lat="45.1319817" lon="7.1195433"><ele>448.0</ele><time>2026-05-01T09:17:20.257Z</time></trkpt><trkpt lat="45.1319983" lon="7.1191633"><ele>448.33333333333337</ele><time>2026-05-01T09:17:21.257Z</time></trkpt><trkpt lat="45.1320067" lon="7.1188433"><ele>448.66666666666663</ele><time>2026-05-01T09:17:22.257Z</time></trkpt><trkpt lat="45.1320167" lon="7.1185333"><ele>449.0</ele><time>2026-05-01T09:17:23.256Z</time></trkpt><trkpt lat="45.13203" lon="7.1182433"><ele>449.3333333333333</ele><time>2026-05-01T09:17:24.256Z</time></trkpt><trkpt lat="45.132045" lon="7.1179833"><ele>449.66666666666663</ele><time>2026-05-01T09:17:25.257Z</time></trkpt><trkpt lat="45.1320783" lon="7.1177167"><ele>450.0</ele><time>2026-05-01T09:17:26.256Z</time></trkpt><trkpt lat="45.1321483" lon="7.1174717"><ele>450.33333333333337</ele><time>2026-05-01T09:17:27.257Z</time></trkpt><trkpt lat="45.1322367" lon="7.1172317"><ele>450.6666666666667</ele><time>2026-05-01T09:17:28.257Z</time></trkpt><trkpt lat="45.132325" lon="7.1169667"><ele>451.0</ele><time>2026-05-01T09:17:29.256Z</time></trkpt><trkpt lat="45.132415" lon="7.1166933"><ele>451.0</ele><time>2026-05-01T09:17:30.257Z</time></trkpt><trkpt lat="45.1325167" lon="7.116435"><ele>451.0</ele><time>2026-05-01T09:17:31.257Z</time></trkpt><trkpt lat="45.1325983" lon="7.1161567"><ele>451.0</ele><time>2026-05-01T09:17:32.257Z</time></trkpt><trkpt lat="45.132665" lon="7.1158917"><ele>451.6666666666667</ele><time>2026-05-01T09:17:33.256Z</time></trkpt><trkpt lat="45.1327167" lon="7.1156133"><ele>452.33333333333337</ele><time>2026-05-01T09:17:34.256Z</time></trkpt><trkpt lat="45.1327533" lon="7.115335"><ele>453.0</ele><time>2026-05-01T09:17:35.257Z</time></trkpt><trkpt lat="45.1327533" lon="7.1150417"><ele>453.66666666666663</ele><time>2026-05-01T09:17:36.256Z</time></trkpt><trkpt lat="45.1327217" lon="7.1147267"><ele>454.3333333333333</ele><time>2026-05-01T09:17:37.256Z</time></trkpt><trkpt lat="45.1327033" lon="7.1144183"><ele>455.0</ele><time>2026-05-01T09:17:38.257Z</time></trkpt><trkpt lat="45.1326783" lon="7.1141083"><ele>455.3333333333333</ele><time>2026-05-01T09:17:39.257Z</time></trkpt><trkpt lat="45.13264" lon="7.1138083"><ele>455.66666666666663</ele><time>2026-05-01T09:17:40.256Z</time></trkpt><trkpt lat="45.1325867" lon="7.1135283"><ele>456.0</ele><time>2026-05-01T09:17:41.256Z</time></trkpt><trkpt lat="45.1325367" lon="7.1132617"><ele>456.33333333333337</ele><time>2026-05-01T09:17:42.256Z</time></trkpt><trkpt lat="45.13249" lon="7.1129967"><ele>456.6666666666667</ele><time>2026-05-01T09:17:43.257Z</time></trkpt><trkpt lat="45.13246" lon="7.1127667"><ele>457.0</ele><time>2026-05-01T09:17:44.256Z</time></trkpt><trkpt lat="45.1324217" lon="7.1125333"><ele>458.0</ele><time>2026-05-01T09:17:45.256Z</time></trkpt><trkpt lat="45.132385" lon="7.1122967"><ele>459.0</ele><time>2026-05-01T09:17:46.257Z</time></trkpt><trkpt lat="45.1323583" lon="7.1120433"><ele>460.0</ele><time>2026-05-01T09:17:47.257Z</time></trkpt><trkpt lat="45.1323367" lon="7.111785"><ele>460.0</ele><time>2026-05-01T09:17:48.257Z</time></trkpt><trkpt lat="45.1323167" lon="7.1115067"><ele>460.0</ele><time>2026-05-01T09:17:49.257Z</time></trkpt><trkpt lat="45.13228" lon="7.1112033"><ele>460.0</ele><time>2026-05-01T09:17:50.256Z</time></trkpt><trkpt lat="45.1322333" lon="7.11088"><ele>459.5</ele><time>2026-05-01T09:17:51.256Z</time></trkpt><trkpt lat="45.132185" lon="7.110545"><ele>459.0</ele><time>2026-05-01T09:17:52.257Z</time></trkpt><trkpt lat="45.132135" lon="7.1101983"><ele>459.0</ele><time>2026-05-01T09:17:53.256Z</time></trkpt><trkpt lat="45.1320817" lon="7.10986"><ele>459.0</ele><time>2026-05-01T09:17:54.257Z</time></trkpt><trkpt lat="45.1320283" lon="7.109515"><ele>459.0</ele><time>2026-05-01T09:17:55.256Z</time></trkpt><trkpt lat="45.1319717" lon="7.109165"><ele>459.0</ele><time>2026-05-01T09:17:56.256Z</time></trkpt><trkpt lat="45.1318833" lon="7.108875"><ele>458.0</ele><time>2026-05-01T09:17:57.257Z</time></trkpt><trkpt lat="45.1318517" lon="7.1085183"><ele>457.0</ele><time>2026-05-01T09:17:58.257Z</time></trkpt><trkpt lat="45.131845" lon="7.1081517"><ele>456.0</ele><time>2026-05-01T09:17:59.257Z</time></trkpt><trkpt lat="45.131855" lon="7.10779"><ele>455.0</ele><time>2026-05-01T09:18:00.257Z</time></trkpt><trkpt lat="45.1318917" lon="7.10743"><ele>454.5</ele><time>2026-05-01T09:18:01.256Z</time></trkpt><trkpt lat="45.1319583" lon="7.1070417"><ele>454.0</ele><time>2026-05-01T09:18:02.257Z</time></trkpt><trkpt lat="45.1320333" lon="7.1066533"><ele>454.5</ele><time>2026-05-01T09:18:03.257Z</time></trkpt><trkpt lat="45.1321267" lon="7.1062733"><ele>455.0</ele><time>2026-05-01T09:18:04.257Z</time></trkpt><trkpt lat="45.132185" lon="7.1058933"><ele>455.5</ele><time>2026-05-01T09:18:05.257Z</time></trkpt><trkpt lat="45.132235" lon="7.1055367"><ele>456.0</ele><time>2026-05-01T09:18:06.257Z</time></trkpt><trkpt lat="45.1322467" lon="7.1051617"><ele>457.0</ele><time>2026-05-01T09:18:07.256Z</time></trkpt><trkpt lat="45.1322467" lon="7.10478"><ele>458.0</ele><time>2026-05-01T09:18:08.257Z</time></trkpt><trkpt lat="45.1322333" lon="7.1044117"><ele>459.0</ele><time>2026-05-01T09:18:09.257Z</time></trkpt><trkpt lat="45.1322083" lon="7.1040717"><ele>460.0</ele><time>2026-05-01T09:18:10.257Z</time></trkpt><trkpt lat="45.1321867" lon="7.1037517"><ele>460.0</ele><time>2026-05-01T09:18:11.256Z</time></trkpt><trkpt lat="45.1321867" lon="7.1034533"><ele>460.0</ele><time>2026-05-01T09:18:12.257Z</time></trkpt><trkpt lat="45.1321767" lon="7.1031967"><ele>460.0</ele><time>2026-05-01T09:18:13.257Z</time></trkpt><trkpt lat="45.132175" lon="7.1029367"><ele>460.0</ele><time>2026-05-01T09:18:14.257Z</time></trkpt><trkpt lat="45.13218" lon="7.1026667"><ele>460.0</ele><time>2026-05-01T09:18:15.256Z</time></trkpt><trkpt lat="45.132195" lon="7.1023983"><ele>460.0</ele><time>2026-05-01T09:18:16.257Z</time></trkpt><trkpt lat="45.1322117" lon="7.102135"><ele>460.6666666666667</ele><time>2026-05-01T09:18:17.257Z</time></trkpt><trkpt lat="45.1322433" lon="7.101845"><ele>461.33333333333337</ele><time>2026-05-01T09:18:18.257Z</time></trkpt><trkpt lat="45.13228" lon="7.1015417"><ele>462.0</ele><time>2026-05-01T09:18:19.256Z</time></trkpt><trkpt lat="45.1323317" lon="7.1012317"><ele>462.0</ele><time>2026-05-01T09:18:20.256Z</time></trkpt><trkpt lat="45.1323867" lon="7.1009083"><ele>462.0</ele><time>2026-05-01T09:18:21.257Z</time></trkpt><trkpt lat="45.1324733" lon="7.1005933"><ele>462.0</ele><time>2026-05-01T09:18:22.257Z</time></trkpt><trkpt lat="45.1325783" lon="7.1002867"><ele>462.0</ele><time>2026-05-01T09:18:23.256Z</time></trkpt><trkpt lat="45.1326733" lon="7.0999817"><ele>463.0</ele><time>2026-05-01T09:18:24.257Z</time></trkpt><trkpt lat="45.132765" lon="7.0996717"><ele>464.0</ele><time>2026-05-01T09:18:25.257Z</time></trkpt><trkpt lat="45.1328333" lon="7.0993483"><ele>464.5</ele><time>2026-05-01T09:18:26.257Z</time></trkpt><trkpt lat="45.13289" lon="7.0990283"><ele>465.0</ele><time>2026-05-01T09:18:27.257Z</time></trkpt><trkpt lat="45.1329433" lon="7.09871"><ele>465.0</ele><time>2026-05-01T09:18:28.256Z</time></trkpt><trkpt lat="45.132995" lon="7.0983867"><ele>465.0</ele><time>2026-05-01T09:18:29.257Z</time></trkpt><trkpt lat="45.1330417" lon="7.0980533"><ele>465.66666666666663</ele><time>2026-05-01T09:18:30.257Z</time></trkpt><trkpt lat="45.1330833" lon="7.0977383"><ele>466.3333333333333</ele><time>2026-05-01T09:18:31.257Z</time></trkpt><trkpt lat="45.1331283" lon="7.097445"><ele>467.0</ele><time>2026-05-01T09:18:32.257Z</time></trkpt><trkpt lat="45.1331767" lon="7.0971683"><ele>467.0</ele><time>2026-05-01T09:18:33.257Z</time></trkpt><trkpt lat="45.1332217" lon="7.0968917"><ele>467.0</ele><time>2026-05-01T09:18:34.256Z</time></trkpt><trkpt lat="45.1332883" lon="7.09665"><ele>467.0</ele><time>2026-05-01T09:18:35.257Z</time></trkpt><trkpt lat="45.1333733" lon="7.0963867"><ele>467.5</ele><time>2026-05-01T09:18:36.257Z</time></trkpt><trkpt lat="45.13348" lon="7.0961033"><ele>468.0</ele><time>2026-05-01T09:18:37.257Z</time></trkpt><trkpt lat="45.1335933" lon="7.095825"><ele>469.0</ele><time>2026-05-01T09:18:38.257Z</time></trkpt><trkpt lat="45.133745" lon="7.0955367"><ele>470.0</ele><time>2026-05-01T09:18:39.257Z</time></trkpt><trkpt lat="45.133865" lon="7.0952567"><ele>470.0</ele><time>2026-05-01T09:18:40.256Z</time></trkpt><trkpt lat="45.1339783" lon="7.094985"><ele>470.0</ele><time>2026-05-01T09:18:41.256Z</time></trkpt><trkpt lat="45.1340683" lon="7.0947133"><ele>470.0</ele><time>2026-05-01T09:18:42.257Z</time></trkpt><trkpt lat="45.1341417" lon="7.094395"><ele>468.5</ele><time>2026-05-01T09:18:43.256Z</time></trkpt><trkpt lat="45.13421" lon="7.0940667"><ele>467.0</ele><time>2026-05-01T09:18:44.257Z</time></trkpt><trkpt lat="45.1342617" lon="7.0937217"><ele>467.0</ele><time>2026-05-01T09:18:45.257Z</time></trkpt><trkpt lat="45.134295" lon="7.09338"><ele>467.0</ele><time>2026-05-01T09:18:46.257Z</time></trkpt><trkpt lat="45.13433" lon="7.093045"><ele>467.66666666666663</ele><time>2026-05-01T09:18:47.257Z</time></trkpt><trkpt lat="45.134355" lon="7.0927233"><ele>468.33333333333337</ele><time>2026-05-01T09:18:48.257Z</time></trkpt><trkpt lat="45.1343867" lon="7.092415"><ele>469.0</ele><time>2026-05-01T09:18:49.257Z</time></trkpt><trkpt lat="45.1344167" lon="7.0921067"><ele>469.0</ele><time>2026-05-01T09:18:50.257Z</time></trkpt><trkpt lat="45.13445" lon="7.0918033"><ele>469.0</ele><time>2026-05-01T09:18:51.257Z</time></trkpt><trkpt lat="45.1344683" lon="7.0915017"><ele>469.0</ele><time>2026-05-01T09:18:52.257Z</time></trkpt><trkpt lat="45.1345033" lon="7.091195"><ele>469.5</ele><time>2026-05-01T09:18:53.257Z</time></trkpt><trkpt lat="45.1345233" lon="7.0908817"><ele>470.0</ele><time>2026-05-01T09:18:54.256Z</time></trkpt><trkpt lat="45.1345417" lon="7.0905533"><ele>471.0</ele><time>2026-05-01T09:18:55.257Z</time></trkpt><trkpt lat="45.13457" lon="7.0902317"><ele>472.0</ele><time>2026-05-01T09:18:56.257Z</time></trkpt><trkpt lat="45.1346083" lon="7.08992"><ele>472.0</ele><time>2026-05-01T09:18:57.256Z</time></trkpt><trkpt lat="45.13465" lon="7.089625"><ele>472.0</ele><time>2026-05-01T09:18:58.257Z</time></trkpt><trkpt lat="45.134675" lon="7.0893167"><ele>472.0</ele><time>2026-05-01T09:18:59.257Z</time></trkpt><trkpt lat="45.1346967" lon="7.089015"><ele>473.0</ele><time>2026-05-01T09:19:00.257Z</time></trkpt><trkpt lat="45.1347183" lon="7.0886933"><ele>474.0</ele><time>2026-05-01T09:19:01.257Z</time></trkpt><trkpt lat="45.13474" lon="7.0883867"><ele>475.0</ele><time>2026-05-01T09:19:02.257Z</time></trkpt><trkpt lat="45.1347667" lon="7.0880867"><ele>475.0</ele><time>2026-05-01T09:19:03.257Z</time></trkpt><trkpt lat="45.1347867" lon="7.0877933"><ele>475.0</ele><time>2026-05-01T09:19:04.257Z</time></trkpt><trkpt lat="45.13481" lon="7.0875017"><ele>475.0</ele><time>2026-05-01T09:19:05.257Z</time></trkpt><trkpt lat="45.134835" lon="7.0872033"><ele>475.0</ele><time>2026-05-01T09:19:06.257Z</time></trkpt><trkpt lat="45.1348617" lon="7.0869083"><ele>475.0</ele><time>2026-05-01T09:19:07.257Z</time></trkpt><trkpt lat="45.1348867" lon="7.08663"><ele>475.0</ele><time>2026-05-01T09:19:08.257Z</time></trkpt><trkpt lat="45.1349117" lon="7.0863717"><ele>475.0</ele><time>2026-05-01T09:19:09.256Z</time></trkpt><trkpt lat="45.1349283" lon="7.0861483"><ele>475.0</ele><time>2026-05-01T09:19:10.257Z</time></trkpt><trkpt lat="45.1349267" lon="7.085955"><ele>475.0</ele><time>2026-05-01T09:19:11.256Z</time></trkpt><trkpt lat="45.1349683" lon="7.0858033"><ele>475.0</ele><time>2026-05-01T09:19:12.257Z</time></trkpt><trkpt lat="45.134995" lon="7.085665"><ele>475.00000000000006</ele><time>2026-05-01T09:19:13.256Z</time></trkpt><trkpt lat="45.1350117" lon="7.085535"><ele>475.0</ele><time>2026-05-01T09:19:14.257Z</time></trkpt><trkpt lat="45.1350183" lon="7.0854083"><ele>475.0</ele><time>2026-05-01T09:19:15.257Z</time></trkpt><trkpt lat="45.1350217" lon="7.0852883"><ele>475.0</ele><time>2026-05-01T09:19:16.257Z</time></trkpt><trkpt lat="45.1350233" lon="7.0851817"><ele>475.00000000000006</ele><time>2026-05-01T09:19:17.256Z</time></trkpt><trkpt lat="45.1350217" lon="7.0850883"><ele>475.0</ele><time>2026-05-01T09:19:18.257Z</time></trkpt><trkpt lat="45.1350333" lon="7.0849483"><ele>475.33333333333337</ele><time>2026-05-01T09:19:20.256Z</time></trkpt><trkpt lat="45.1350417" lon="7.0848383"><ele>475.6666666666667</ele><time>2026-05-01T09:19:22.257Z</time></trkpt><trkpt lat="45.135055" lon="7.0847467"><ele>476.0</ele><time>2026-05-01T09:19:24.256Z</time></trkpt><trkpt lat="45.135045" lon="7.0846133"><ele>476.33333333333337</ele><time>2026-05-01T09:19:27.256Z</time></trkpt><trkpt lat="45.1350433" lon="7.0845067"><ele>476.6666666666667</ele><time>2026-05-01T09:19:30.257Z</time></trkpt><trkpt lat="45.13502" lon="7.0843717"><ele>477.0</ele><time>2026-05-01T09:19:56.256Z</time></trkpt><trkpt lat="45.1350117" lon="7.0842033"><ele>476.75</ele><time>2026-05-01T09:19:58.257Z</time></trkpt><trkpt lat="45.135" lon="7.08408"><ele>476.5</ele><time>2026-05-01T09:19:59.257Z</time></trkpt><trkpt lat="45.1349867" lon="7.0839333"><ele>476.25</ele><time>2026-05-01T09:20:00.257Z</time></trkpt><trkpt lat="45.1349567" lon="7.0837533"><ele>476.0</ele><time>2026-05-01T09:20:01.256Z</time></trkpt><trkpt lat="45.13492" lon="7.0835517"><ele>476.75</ele><time>2026-05-01T09:20:02.256Z</time></trkpt><trkpt lat="45.134875" lon="7.083335"><ele>477.5</ele><time>2026-05-01T09:20:03.257Z</time></trkpt><trkpt lat="45.13483" lon="7.08313"><ele>478.25</ele><time>2026-05-01T09:20:04.257Z</time></trkpt><trkpt lat="45.1347917" lon="7.08296"><ele>479.0</ele><time>2026-05-01T09:20:05.257Z</time></trkpt><trkpt lat="45.1347333" lon="7.0827833"><ele>479.0</ele><time>2026-05-01T09:20:06.257Z</time></trkpt><trkpt lat="45.1346767" lon="7.0826067"><ele>479.0</ele><time>2026-05-01T09:20:07.257Z</time></trkpt><trkpt lat="45.13463" lon="7.08243"><ele>479.0</ele><time>2026-05-01T09:20:08.257Z</time></trkpt><trkpt lat="45.13458" lon="7.0822667"><ele>479.0</ele><time>2026-05-01T09:20:09.257Z</time></trkpt><trkpt lat="45.1345417" lon="7.0821083"><ele>478.75</ele><time>2026-05-01T09:20:10.256Z</time></trkpt><trkpt lat="45.1344933" lon="7.0819483"><ele>478.5</ele><time>2026-05-01T09:20:11.257Z</time></trkpt><trkpt lat="45.13444" lon="7.0817933"><ele>478.25</ele><time>2026-05-01T09:20:12.257Z</time></trkpt><trkpt lat="45.1343867" lon="7.081635"><ele>478.0</ele><time>2026-05-01T09:20:13.256Z</time></trkpt><trkpt lat="45.13434" lon="7.0814633"><ele>477.0</ele><time>2026-05-01T09:20:14.256Z</time></trkpt><trkpt lat="45.134285" lon="7.0812767"><ele>476.0</ele><time>2026-05-01T09:20:15.257Z</time></trkpt><trkpt lat="45.1342317" lon="7.0810883"><ele>475.0</ele><time>2026-05-01T09:20:16.256Z</time></trkpt><trkpt lat="45.134145" lon="7.0808583"><ele>475.0</ele><time>2026-05-01T09:20:17.257Z</time></trkpt><trkpt lat="45.1340867" lon="7.0806133"><ele>475.0</ele><time>2026-05-01T09:20:18.257Z</time></trkpt><trkpt lat="45.1340217" lon="7.0803617"><ele>475.0</ele><time>2026-05-01T09:20:19.257Z</time></trkpt><trkpt lat="45.1339533" lon="7.08011"><ele>475.33333333333337</ele><time>2026-05-01T09:20:20.257Z</time></trkpt><trkpt lat="45.1338783" lon="7.0798667"><ele>475.66666666666663</ele><time>2026-05-01T09:20:21.257Z</time></trkpt><trkpt lat="45.1338133" lon="7.0796117"><ele>476.0</ele><time>2026-05-01T09:20:22.257Z</time></trkpt><trkpt lat="45.1337417" lon="7.07933"><ele>475.66666666666663</ele><time>2026-05-01T09:20:23.256Z</time></trkpt><trkpt lat="45.1337133" lon="7.0790467"><ele>475.33333333333337</ele><time>2026-05-01T09:20:24.257Z</time></trkpt><trkpt lat="45.1336667" lon="7.07878"><ele>475.0</ele><time>2026-05-01T09:20:25.257Z</time></trkpt><trkpt lat="45.1336117" lon="7.0785133"><ele>474.6666666666667</ele><time>2026-05-01T09:20:26.256Z</time></trkpt><trkpt lat="45.1335533" lon="7.078235"><ele>474.33333333333337</ele><time>2026-05-01T09:20:27.257Z</time></trkpt><trkpt lat="45.133485" lon="7.0779633"><ele>474.0</ele><time>2026-05-01T09:20:28.257Z</time></trkpt><trkpt lat="45.1334067" lon="7.0776933"><ele>473.66666666666663</ele><time>2026-05-01T09:20:29.257Z</time></trkpt><trkpt lat="45.1333467" lon="7.0773967"><ele>473.3333333333333</ele><time>2026-05-01T09:20:30.257Z</time></trkpt><trkpt lat="45.13328" lon="7.077095"><ele>473.0</ele><time>2026-05-01T09:20:31.256Z</time></trkpt><trkpt lat="45.133235" lon="7.07681"><ele>473.0</ele><time>2026-05-01T09:20:32.257Z</time></trkpt><trkpt lat="45.133165" lon="7.0765183"><ele>473.0</ele><time>2026-05-01T09:20:33.256Z</time></trkpt><trkpt lat="45.1331017" lon="7.0762117"><ele>473.0</ele><time>2026-05-01T09:20:34.257Z</time></trkpt><trkpt lat="45.1330433" lon="7.0759133"><ele>474.0</ele><time>2026-05-01T09:20:35.257Z</time></trkpt><trkpt lat="45.13301" lon="7.0756267"><ele>475.0</ele><time>2026-05-01T09:20:36.256Z</time></trkpt><trkpt lat="45.1329733" lon="7.0753617"><ele>476.0</ele><time>2026-05-01T09:20:37.257Z</time></trkpt><trkpt lat="45.1329267" lon="7.075095"><ele>476.0</ele><time>2026-05-01T09:20:38.257Z</time></trkpt><trkpt lat="45.1328833" lon="7.0748233"><ele>476.0</ele><time>2026-05-01T09:20:39.256Z</time></trkpt><trkpt lat="45.1328433" lon="7.0745467"><ele>476.0</ele><time>2026-05-01T09:20:40.256Z</time></trkpt><trkpt lat="45.1328217" lon="7.074275"><ele>476.0</ele><time>2026-05-01T09:20:41.257Z</time></trkpt><trkpt lat="45.1328183" lon="7.0740033"><ele>476.0</ele><time>2026-05-01T09:20:42.257Z</time></trkpt><trkpt lat="45.1327967" lon="7.0737333"><ele>476.0</ele><time>2026-05-01T09:20:43.257Z</time></trkpt><trkpt lat="45.1327867" lon="7.0734867"><ele>476.0</ele><time>2026-05-01T09:20:44.256Z</time></trkpt><trkpt lat="45.132785" lon="7.07323"><ele>476.0</ele><time>2026-05-01T09:20:45.257Z</time></trkpt><trkpt lat="45.132785" lon="7.0729533"><ele>476.0</ele><time>2026-05-01T09:20:46.257Z</time></trkpt><trkpt lat="45.1327883" lon="7.0726683"><ele>476.3333333333333</ele><time>2026-05-01T09:20:47.257Z</time></trkpt><trkpt lat="45.1327817" lon="7.0723683"><ele>476.66666666666663</ele><time>2026-05-01T09:20:48.257Z</time></trkpt><trkpt lat="45.132775" lon="7.0720583"><ele>477.0</ele><time>2026-05-01T09:20:49.256Z</time></trkpt><trkpt lat="45.1327683" lon="7.0717417"><ele>478.0</ele><time>2026-05-01T09:20:50.256Z</time></trkpt><trkpt lat="45.1327717" lon="7.0714167"><ele>479.0</ele><time>2026-05-01T09:20:51.257Z</time></trkpt><trkpt lat="45.1327817" lon="7.0710883"><ele>479.0</ele><time>2026-05-01T09:20:52.256Z</time></trkpt><trkpt lat="45.1328017" lon="7.0707767"><ele>479.0</ele><time>2026-05-01T09:20:53.257Z</time></trkpt><trkpt lat="45.132805" lon="7.0704583"><ele>479.0</ele><time>2026-05-01T09:20:54.257Z</time></trkpt><trkpt lat="45.132805" lon="7.070135"><ele>479.0</ele><time>2026-05-01T09:20:55.257Z</time></trkpt><trkpt lat="45.1328017" lon="7.0698133"><ele>479.0</ele><time>2026-05-01T09:20:56.257Z</time></trkpt><trkpt lat="45.1327933" lon="7.0694983"><ele>479.0</ele><time>2026-05-01T09:20:57.257Z</time></trkpt><trkpt lat="45.1328033" lon="7.0691883"><ele>479.3333333333333</ele><time>2026-05-01T09:20:58.257Z</time></trkpt><trkpt lat="45.1328067" lon="7.06887"><ele>479.66666666666663</ele><time>2026-05-01T09:20:59.257Z</time></trkpt><trkpt lat="45.1328267" lon="7.0685567"><ele>480.0</ele><time>2026-05-01T09:21:00.257Z</time></trkpt><trkpt lat="45.1328317" lon="7.0682567"><ele>481.0</ele><time>2026-05-01T09:21:01.256Z</time></trkpt><trkpt lat="45.1328283" lon="7.0679783"><ele>482.0</ele><time>2026-05-01T09:21:02.256Z</time></trkpt><trkpt lat="45.1328517" lon="7.0677167"><ele>483.0</ele><time>2026-05-01T09:21:03.257Z</time></trkpt><trkpt lat="45.13285" lon="7.067465"><ele>484.0</ele><time>2026-05-01T09:21:04.257Z</time></trkpt><trkpt lat="45.1328467" lon="7.0672117"><ele>485.0</ele><time>2026-05-01T09:21:05.257Z</time></trkpt><trkpt lat="45.1328433" lon="7.0669467"><ele>486.0</ele><time>2026-05-01T09:21:06.257Z</time></trkpt><trkpt lat="45.1328283" lon="7.0666617"><ele>486.33333333333337</ele><time>2026-05-01T09:21:07.256Z</time></trkpt><trkpt lat="45.13283" lon="7.06636"><ele>486.6666666666667</ele><time>2026-05-01T09:21:08.256Z</time></trkpt><trkpt lat="45.1328317" lon="7.0660733"><ele>487.0</ele><time>2026-05-01T09:21:09.257Z</time></trkpt><trkpt lat="45.13283" lon="7.0657833"><ele>486.33333333333337</ele><time>2026-05-01T09:21:10.257Z</time></trkpt><trkpt lat="45.13284" lon="7.065475"><ele>485.66666666666663</ele><time>2026-05-01T09:21:11.257Z</time></trkpt><trkpt lat="45.1328483" lon="7.0651783"><ele>485.0</ele><time>2026-05-01T09:21:12.257Z</time></trkpt><trkpt lat="45.1328467" lon="7.06489"><ele>485.0</ele><time>2026-05-01T09:21:13.257Z</time></trkpt><trkpt lat="45.13286" lon="7.0645883"><ele>485.0</ele><time>2026-05-01T09:21:14.256Z</time></trkpt><trkpt lat="45.13289" lon="7.0642783"><ele>485.0</ele><time>2026-05-01T09:21:15.256Z</time></trkpt><trkpt lat="45.1329383" lon="7.0639867"><ele>485.3333333333333</ele><time>2026-05-01T09:21:16.256Z</time></trkpt><trkpt lat="45.132995" lon="7.0637267"><ele>485.66666666666663</ele><time>2026-05-01T09:21:17.255Z</time></trkpt><trkpt lat="45.13308" lon="7.0635217"><ele>486.0</ele><time>2026-05-01T09:21:18.256Z</time></trkpt><trkpt lat="45.1331717" lon="7.063365"><ele>485.33333333333337</ele><time>2026-05-01T09:21:19.256Z</time></trkpt><trkpt lat="45.1333167" lon="7.06325"><ele>484.6666666666667</ele><time>2026-05-01T09:21:20.256Z</time></trkpt><trkpt lat="45.1334167" lon="7.0630717"><ele>484.0</ele><time>2026-05-01T09:21:21.255Z</time></trkpt><trkpt lat="45.1334667" lon="7.0628933"><ele>484.0</ele><time>2026-05-01T09:21:22.255Z</time></trkpt><trkpt lat="45.133515" lon="7.0627133"><ele>484.0</ele><time>2026-05-01T09:21:23.256Z</time></trkpt><trkpt lat="45.1335667" lon="7.0625233"><ele>484.0</ele><time>2026-05-01T09:21:24.256Z</time></trkpt><trkpt lat="45.1336117" lon="7.0623517"><ele>484.0</ele><time>2026-05-01T09:21:25.255Z</time></trkpt><trkpt lat="45.1336667" lon="7.0621883"><ele>484.0</ele><time>2026-05-01T09:21:26.255Z</time></trkpt><trkpt lat="45.1337233" lon="7.0620217"><ele>484.0</ele><time>2026-05-01T09:21:27.255Z</time></trkpt><trkpt lat="45.1337867" lon="7.0618667"><ele>484.0</ele><time>2026-05-01T09:21:28.256Z</time></trkpt><trkpt lat="45.1338533" lon="7.0617067"><ele>484.0</ele><time>2026-05-01T09:21:29.255Z</time></trkpt><trkpt lat="45.13392" lon="7.0615283"><ele>483.75</ele><time>2026-05-01T09:21:30.256Z</time></trkpt><trkpt lat="45.1339817" lon="7.0613417"><ele>483.5</ele><time>2026-05-01T09:21:31.255Z</time></trkpt><trkpt lat="45.1340433" lon="7.0611567"><ele>483.25</ele><time>2026-05-01T09:21:32.256Z</time></trkpt><trkpt lat="45.13412" lon="7.0609817"><ele>483.0</ele><time>2026-05-01T09:21:33.255Z</time></trkpt><trkpt lat="45.134185" lon="7.0608083"><ele>484.0</ele><time>2026-05-01T09:21:34.255Z</time></trkpt><trkpt lat="45.134245" lon="7.060625"><ele>485.0</ele><time>2026-05-01T09:21:35.256Z</time></trkpt><trkpt lat="45.13429" lon="7.0604483"><ele>486.0</ele><time>2026-05-01T09:21:36.255Z</time></trkpt><trkpt lat="45.13436" lon="7.06031"><ele>487.0</ele><time>2026-05-01T09:21:37.256Z</time></trkpt><trkpt lat="45.1344267" lon="7.0601817"><ele>487.00000000000006</ele><time>2026-05-01T09:21:38.256Z</time></trkpt><trkpt lat="45.1344917" lon="7.0600783"><ele>487.0</ele><time>2026-05-01T09:21:39.256Z</time></trkpt><trkpt lat="45.134555" lon="7.0599717"><ele>487.0</ele><time>2026-05-01T09:21:40.255Z</time></trkpt><trkpt lat="45.1346133" lon="7.059895"><ele>487.0</ele><time>2026-05-01T09:21:41.255Z</time></trkpt><trkpt lat="45.13466" lon="7.059825"><ele>487.00000000000006</ele><time>2026-05-01T09:21:42.256Z</time></trkpt><trkpt lat="45.1346983" lon="7.0597433"><ele>487.0</ele><time>2026-05-01T09:21:43.256Z</time></trkpt><trkpt lat="45.1347233" lon="7.0596467"><ele>487.25</ele><time>2026-05-01T09:21:44.256Z</time></trkpt><trkpt lat="45.1347417" lon="7.0595183"><ele>487.5</ele><time>2026-05-01T09:21:45.256Z</time></trkpt><trkpt lat="45.1347583" lon="7.05936"><ele>487.75</ele><time>2026-05-01T09:21:46.256Z</time></trkpt><trkpt lat="45.1347817" lon="7.059185"><ele>488.0</ele><time>2026-05-01T09:21:47.256Z</time></trkpt><trkpt lat="45.1348133" lon="7.0589833"><ele>488.0</ele><time>2026-05-01T09:21:48.256Z</time></trkpt><trkpt lat="45.1348733" lon="7.0587933"><ele>488.0</ele><time>2026-05-01T09:21:49.256Z</time></trkpt><trkpt lat="45.1349517" lon="7.0585817"><ele>488.0</ele><time>2026-05-01T09:21:50.256Z</time></trkpt><trkpt lat="45.1350317" lon="7.05835"><ele>488.3333333333333</ele><time>2026-05-01T09:21:51.255Z</time></trkpt><trkpt lat="45.13513" lon="7.0581167"><ele>488.66666666666663</ele><time>2026-05-01T09:21:52.256Z</time></trkpt><trkpt lat="45.1352283" lon="7.057885"><ele>489.0</ele><time>2026-05-01T09:21:53.256Z</time></trkpt><trkpt lat="45.1353217" lon="7.0576483"><ele>489.33333333333337</ele><time>2026-05-01T09:21:54.256Z</time></trkpt><trkpt lat="45.1354117" lon="7.0573883"><ele>489.6666666666667</ele><time>2026-05-01T09:21:55.256Z</time></trkpt><trkpt lat="45.1355033" lon="7.0571183"><ele>490.0</ele><time>2026-05-01T09:21:56.255Z</time></trkpt><trkpt lat="45.1355933" lon="7.056835"><ele>490.33333333333337</ele><time>2026-05-01T09:21:57.255Z</time></trkpt><trkpt lat="45.1356867" lon="7.05655"><ele>490.66666666666663</ele><time>2026-05-01T09:21:58.256Z</time></trkpt><trkpt lat="45.13577" lon="7.0562783"><ele>491.0</ele><time>2026-05-01T09:21:59.256Z</time></trkpt><trkpt lat="45.1358567" lon="7.0560433"><ele>490.3333333333333</ele><time>2026-05-01T09:22:00.256Z</time></trkpt><trkpt lat="45.1359517" lon="7.0558067"><ele>489.66666666666663</ele><time>2026-05-01T09:22:01.256Z</time></trkpt><trkpt lat="45.1360267" lon="7.055585"><ele>489.0</ele><time>2026-05-01T09:22:02.255Z</time></trkpt><trkpt lat="45.13607" lon="7.055355"><ele>491.66666666666663</ele><time>2026-05-01T09:22:03.255Z</time></trkpt><trkpt lat="45.1361017" lon="7.0551217"><ele>494.3333333333333</ele><time>2026-05-01T09:22:04.256Z</time></trkpt><trkpt lat="45.1361233" lon="7.054915"><ele>497.0</ele><time>2026-05-01T09:22:05.256Z</time></trkpt><trkpt lat="45.1361017" lon="7.054705"><ele>497.0</ele><time>2026-05-01T09:22:06.256Z</time></trkpt><trkpt lat="45.1360783" lon="7.0544917"><ele>497.0</ele><time>2026-05-01T09:22:07.256Z</time></trkpt><trkpt lat="45.1360367" lon="7.054275"><ele>497.0</ele><time>2026-05-01T09:22:08.256Z</time></trkpt><trkpt lat="45.135975" lon="7.0540633"><ele>495.66666666666663</ele><time>2026-05-01T09:22:09.255Z</time></trkpt><trkpt lat="45.1358883" lon="7.053845"><ele>494.33333333333337</ele><time>2026-05-01T09:22:10.256Z</time></trkpt><trkpt lat="45.135805" lon="7.0536367"><ele>493.0</ele><time>2026-05-01T09:22:11.256Z</time></trkpt><trkpt lat="45.135715" lon="7.0534333"><ele>494.0</ele><time>2026-05-01T09:22:12.256Z</time></trkpt><trkpt lat="45.1356467" lon="7.0532583"><ele>495.0</ele><time>2026-05-01T09:22:13.256Z</time></trkpt><trkpt lat="45.1355667" lon="7.05308"><ele>496.0</ele><time>2026-05-01T09:22:14.255Z</time></trkpt><trkpt lat="45.135475" lon="7.0528967"><ele>497.0</ele><time>2026-05-01T09:22:15.256Z</time></trkpt><trkpt lat="45.1353967" lon="7.0527067"><ele>497.0</ele><time>2026-05-01T09:22:16.256Z</time></trkpt><trkpt lat="45.1353183" lon="7.0525"><ele>497.0</ele><time>2026-05-01T09:22:17.256Z</time></trkpt><trkpt lat="45.1352467" lon="7.0522817"><ele>497.0</ele><time>2026-05-01T09:22:18.256Z</time></trkpt><trkpt lat="45.135165" lon="7.0520633"><ele>497.3333333333333</ele><time>2026-05-01T09:22:19.256Z</time></trkpt><trkpt lat="45.13509" lon="7.051825"><ele>497.66666666666663</ele><time>2026-05-01T09:22:20.256Z</time></trkpt><trkpt lat="45.135015" lon="7.0515867"><ele>498.0</ele><time>2026-05-01T09:22:21.256Z</time></trkpt><trkpt lat="45.1349383" lon="7.0513483"><ele>499.33333333333337</ele><time>2026-05-01T09:22:22.256Z</time></trkpt><trkpt lat="45.134865" lon="7.0511217"><ele>500.6666666666667</ele><time>2026-05-01T09:22:23.256Z</time></trkpt><trkpt lat="45.134795" lon="7.0509033"><ele>502.0</ele><time>2026-05-01T09:22:24.256Z</time></trkpt><trkpt lat="45.1347367" lon="7.050675"><ele>502.6666666666667</ele><time>2026-05-01T09:22:25.256Z</time></trkpt><trkpt lat="45.13466" lon="7.05048"><ele>503.33333333333337</ele><time>2026-05-01T09:22:26.256Z</time></trkpt><trkpt lat="45.1345917" lon="7.05029"><ele>504.0</ele><time>2026-05-01T09:22:27.256Z</time></trkpt><trkpt lat="45.1345167" lon="7.05009"><ele>505.0</ele><time>2026-05-01T09:22:28.256Z</time></trkpt><trkpt lat="45.1344667" lon="7.049895"><ele>506.0</ele><time>2026-05-01T09:22:29.256Z</time></trkpt><trkpt lat="45.13438" lon="7.0496567"><ele>507.0</ele><time>2026-05-01T09:22:30.256Z</time></trkpt><trkpt lat="45.1342833" lon="7.0494083"><ele>507.0</ele><time>2026-05-01T09:22:31.256Z</time></trkpt><trkpt lat="45.134175" lon="7.0491683"><ele>507.0</ele><time>2026-05-01T09:22:32.255Z</time></trkpt><trkpt lat="45.134085" lon="7.0489367"><ele>507.0</ele><time>2026-05-01T09:22:33.256Z</time></trkpt><trkpt lat="45.134005" lon="7.0487233"><ele>509.0</ele><time>2026-05-01T09:22:34.256Z</time></trkpt><trkpt lat="45.133905" lon="7.0485367"><ele>511.0</ele><time>2026-05-01T09:22:35.255Z</time></trkpt><trkpt lat="45.133825" lon="7.048355"><ele>513.0</ele><time>2026-05-01T09:22:36.255Z</time></trkpt><trkpt lat="45.1337583" lon="7.0482233"><ele>515.0</ele><time>2026-05-01T09:22:37.255Z</time></trkpt><trkpt lat="45.1337033" lon="7.0480933"><ele>515.0</ele><time>2026-05-01T09:22:38.256Z</time></trkpt><trkpt lat="45.1336483" lon="7.047975"><ele>515.0</ele><time>2026-05-01T09:22:39.256Z</time></trkpt><trkpt lat="45.1336017" lon="7.047865"><ele>515.0</ele><time>2026-05-01T09:22:40.256Z</time></trkpt><trkpt lat="45.133565" lon="7.0477617"><ele>515.0</ele><time>2026-05-01T09:22:41.256Z</time></trkpt><trkpt lat="45.1335333" lon="7.0476633"><ele>515.0</ele><time>2026-05-01T09:22:42.255Z</time></trkpt><trkpt lat="45.1334917" lon="7.0475767"><ele>515.0</ele><time>2026-05-01T09:22:43.256Z</time></trkpt><trkpt lat="45.1334483" lon="7.047495"><ele>514.75</ele><time>2026-05-01T09:22:44.255Z</time></trkpt><trkpt lat="45.1333983" lon="7.0473867"><ele>514.5</ele><time>2026-05-01T09:22:45.255Z</time></trkpt><trkpt lat="45.133345" lon="7.0472683"><ele>514.25</ele><time>2026-05-01T09:22:46.255Z</time></trkpt><trkpt lat="45.13327" lon="7.0471283"><ele>514.0</ele><time>2026-05-01T09:22:47.256Z</time></trkpt><trkpt lat="45.1331583" lon="7.0469533"><ele>516.3333333333334</ele><time>2026-05-01T09:22:48.256Z</time></trkpt><trkpt lat="45.1330333" lon="7.0467667"><ele>518.6666666666666</ele><time>2026-05-01T09:22:49.256Z</time></trkpt><trkpt lat="45.1328917" lon="7.0465533"><ele>521.0</ele><time>2026-05-01T09:22:50.255Z</time></trkpt><trkpt lat="45.1327017" lon="7.0463117"><ele>521.6666666666666</ele><time>2026-05-01T09:22:51.256Z</time></trkpt><trkpt lat="45.1325433" lon="7.0461083"><ele>522.3333333333334</ele><time>2026-05-01T09:22:52.255Z</time></trkpt><trkpt lat="45.1323767" lon="7.0459167"><ele>523.0</ele><time>2026-05-01T09:22:53.255Z</time></trkpt><trkpt lat="45.13224" lon="7.0457617"><ele>525.0</ele><time>2026-05-01T09:22:54.255Z</time></trkpt><trkpt lat="45.13212" lon="7.0456167"><ele>527.0</ele><time>2026-05-01T09:22:55.256Z</time></trkpt><trkpt lat="45.1320033" lon="7.04549"><ele>529.0</ele><time>2026-05-01T09:22:56.256Z</time></trkpt><trkpt lat="45.1318967" lon="7.04534"><ele>529.0</ele><time>2026-05-01T09:22:57.256Z</time></trkpt><trkpt lat="45.1317967" lon="7.0451917"><ele>529.0</ele><time>2026-05-01T09:22:58.256Z</time></trkpt><trkpt lat="45.1317033" lon="7.04501"><ele>529.0</ele><time>2026-05-01T09:22:59.256Z</time></trkpt><trkpt lat="45.1315983" lon="7.04483"><ele>532.3333333333334</ele><time>2026-05-01T09:23:00.256Z</time></trkpt><trkpt lat="45.13149" lon="7.0446267"><ele>535.6666666666666</ele><time>2026-05-01T09:23:01.256Z</time></trkpt><trkpt lat="45.131385" lon="7.0444333"><ele>539.0</ele><time>2026-05-01T09:23:02.255Z</time></trkpt><trkpt lat="45.1312967" lon="7.0442417"><ele>540.6666666666666</ele><time>2026-05-01T09:23:03.256Z</time></trkpt><trkpt lat="45.1312183" lon="7.04404"><ele>542.3333333333334</ele><time>2026-05-01T09:23:04.255Z</time></trkpt><trkpt lat="45.1311433" lon="7.0438467"><ele>544.0</ele><time>2026-05-01T09:23:05.256Z</time></trkpt><trkpt lat="45.1310817" lon="7.0436417"><ele>544.0</ele><time>2026-05-01T09:23:06.256Z</time></trkpt><trkpt lat="45.13106" lon="7.0434367"><ele>544.0</ele><time>2026-05-01T09:23:07.255Z</time></trkpt><trkpt lat="45.1310317" lon="7.0432467"><ele>544.0</ele><time>2026-05-01T09:23:08.256Z</time></trkpt><trkpt lat="45.1310133" lon="7.04307"><ele>544.0</ele><time>2026-05-01T09:23:09.256Z</time></trkpt><trkpt lat="45.13101" lon="7.04291"><ele>544.75</ele><time>2026-05-01T09:23:10.255Z</time></trkpt><trkpt lat="45.1309733" lon="7.042755"><ele>545.5</ele><time>2026-05-01T09:23:11.256Z</time></trkpt><trkpt lat="45.1309067" lon="7.0426333"><ele>546.25</ele><time>2026-05-01T09:23:12.255Z</time></trkpt><trkpt lat="45.1308117" lon="7.042525"><ele>547.0</ele><time>2026-05-01T09:23:13.256Z</time></trkpt><trkpt lat="45.1307067" lon="7.04247"><ele>549.5</ele><time>2026-05-01T09:23:14.256Z</time></trkpt><trkpt lat="45.1305933" lon="7.04243"><ele>552.0</ele><time>2026-05-01T09:23:15.256Z</time></trkpt><trkpt lat="45.1304583" lon="7.0424167"><ele>554.5</ele><time>2026-05-01T09:23:16.256Z</time></trkpt><trkpt lat="45.1303683" lon="7.0423667"><ele>557.0</ele><time>2026-05-01T09:23:17.256Z</time></trkpt><trkpt lat="45.13027" lon="7.0423117"><ele>557.0</ele><time>2026-05-01T09:23:18.255Z</time></trkpt><trkpt lat="45.1301917" lon="7.0422233"><ele>557.0</ele><time>2026-05-01T09:23:19.256Z</time></trkpt><trkpt lat="45.1301267" lon="7.04213"><ele>557.0</ele><time>2026-05-01T09:23:20.256Z</time></trkpt><trkpt lat="45.1300917" lon="7.0420267"><ele>557.0</ele><time>2026-05-01T09:23:21.256Z</time></trkpt><trkpt lat="45.1300933" lon="7.0419267"><ele>557.0</ele><time>2026-05-01T09:23:22.256Z</time></trkpt><trkpt lat="45.1301233" lon="7.0418417"><ele>557.0</ele><time>2026-05-01T09:23:23.255Z</time></trkpt><trkpt lat="45.130205" lon="7.041805"><ele>557.0</ele><time>2026-05-01T09:23:24.255Z</time></trkpt><trkpt lat="45.13034" lon="7.04179"><ele>557.0</ele><time>2026-05-01T09:23:25.256Z</time></trkpt><trkpt lat="45.13048" lon="7.0418183"><ele>557.0</ele><time>2026-05-01T09:23:26.256Z</time></trkpt><trkpt lat="45.1306683" lon="7.0418817"><ele>558.5</ele><time>2026-05-01T09:23:27.256Z</time></trkpt><trkpt lat="45.1308833" lon="7.0419783"><ele>560.0</ele><time>2026-05-01T09:23:28.256Z</time></trkpt><trkpt lat="45.1311083" lon="7.0420867"><ele>560.0</ele><time>2026-05-01T09:23:29.255Z</time></trkpt><trkpt lat="45.1313533" lon="7.0421867"><ele>560.0</ele><time>2026-05-01T09:23:30.256Z</time></trkpt><trkpt lat="45.1315467" lon="7.0422467"><ele>563.6666666666666</ele><time>2026-05-01T09:23:31.256Z</time></trkpt><trkpt lat="45.131755" lon="7.04225"><ele>567.3333333333334</ele><time>2026-05-01T09:23:32.256Z</time></trkpt><trkpt lat="45.1319433" lon="7.0422467"><ele>571.0</ele><time>2026-05-01T09:23:33.256Z</time></trkpt><trkpt lat="45.1321283" lon="7.0422833"><ele>571.0</ele><time>2026-05-01T09:23:34.256Z</time></trkpt><trkpt lat="45.13228" lon="7.0423433"><ele>571.0</ele><time>2026-05-01T09:23:35.256Z</time></trkpt><trkpt lat="45.1324183" lon="7.0424333"><ele>571.0</ele><time>2026-05-01T09:23:36.255Z</time></trkpt><trkpt lat="45.132515" lon="7.0425367"><ele>571.0</ele><time>2026-05-01T09:23:37.256Z</time></trkpt><trkpt lat="45.132595" lon="7.0426983"><ele>566.6666666666667</ele><time>2026-05-01T09:23:38.256Z</time></trkpt><trkpt lat="45.132645" lon="7.0429133"><ele>562.3333333333334</ele><time>2026-05-01T09:23:39.255Z</time></trkpt><trkpt lat="45.1326783" lon="7.0431483"><ele>558.0</ele><time>2026-05-01T09:23:40.256Z</time></trkpt><trkpt lat="45.13269" lon="7.04337"><ele>556.4</ele><time>2026-05-01T09:23:41.256Z</time></trkpt><trkpt lat="45.1327217" lon="7.0435517"><ele>554.8</ele><time>2026-05-01T09:23:42.255Z</time></trkpt><trkpt lat="45.132765" lon="7.0437017"><ele>553.2</ele><time>2026-05-01T09:23:43.255Z</time></trkpt><trkpt lat="45.1328217" lon="7.0438"><ele>551.6</ele><time>2026-05-01T09:23:44.256Z</time></trkpt><trkpt lat="45.1328917" lon="7.0438517"><ele>550.0</ele><time>2026-05-01T09:23:45.256Z</time></trkpt><trkpt lat="45.132995" lon="7.0438367"><ele>550.0</ele><time>2026-05-01T09:23:46.255Z</time></trkpt><trkpt lat="45.1330983" lon="7.043765"><ele>550.0</ele><time>2026-05-01T09:23:47.256Z</time></trkpt><trkpt lat="45.13317" lon="7.0436533"><ele>550.0</ele><time>2026-05-01T09:23:48.256Z</time></trkpt><trkpt lat="45.1331933" lon="7.0434917"><ele>550.0</ele><time>2026-05-01T09:23:49.256Z</time></trkpt><trkpt lat="45.1331883" lon="7.0433167"><ele>552.6666666666667</ele><time>2026-05-01T09:23:50.256Z</time></trkpt><trkpt lat="45.133135" lon="7.043085"><ele>555.3333333333334</ele><time>2026-05-01T09:23:51.255Z</time></trkpt><trkpt lat="45.1330267" lon="7.04278"><ele>558.0</ele><time>2026-05-01T09:23:52.256Z</time></trkpt><trkpt lat="45.13293" lon="7.0424567"><ele>561.6666666666666</ele><time>2026-05-01T09:23:53.256Z</time></trkpt><trkpt lat="45.1328633" lon="7.042155"><ele>565.3333333333333</ele><time>2026-05-01T09:23:54.256Z</time></trkpt><trkpt lat="45.1328567" lon="7.041875"><ele>569.0</ele><time>2026-05-01T09:23:55.256Z</time></trkpt><trkpt lat="45.132885" lon="7.04162"><ele>572.0</ele><time>2026-05-01T09:23:56.256Z</time></trkpt><trkpt lat="45.1329283" lon="7.0413817"><ele>575.0</ele><time>2026-05-01T09:23:57.256Z</time></trkpt><trkpt lat="45.1329983" lon="7.0411683"><ele>578.0</ele><time>2026-05-01T09:23:58.256Z</time></trkpt><trkpt lat="45.1330717" lon="7.0409833"><ele>578.0</ele><time>2026-05-01T09:23:59.256Z</time></trkpt><trkpt lat="45.1331517" lon="7.0408233"><ele>578.0</ele><time>2026-05-01T09:24:00.255Z</time></trkpt><trkpt lat="45.1332733" lon="7.0406983"><ele>578.0</ele><time>2026-05-01T09:24:01.256Z</time></trkpt><trkpt lat="45.1333533" lon="7.0405383"><ele>578.0</ele><time>2026-05-01T09:24:02.256Z</time></trkpt><trkpt lat="45.13341" lon="7.04037"><ele>581.0</ele><time>2026-05-01T09:24:03.255Z</time></trkpt><trkpt lat="45.133455" lon="7.0402117"><ele>584.0</ele><time>2026-05-01T09:24:04.256Z</time></trkpt><trkpt lat="45.1334567" lon="7.04003"><ele>587.0</ele><time>2026-05-01T09:24:05.256Z</time></trkpt><trkpt lat="45.1334433" lon="7.03986"><ele>590.0</ele><time>2026-05-01T09:24:06.255Z</time></trkpt><trkpt lat="45.1333867" lon="7.03969"><ele>595.0</ele><time>2026-05-01T09:24:07.256Z</time></trkpt><trkpt lat="45.13333" lon="7.0395283"><ele>600.0</ele><time>2026-05-01T09:24:08.255Z</time></trkpt><trkpt lat="45.1332333" lon="7.0393883"><ele>605.0</ele><time>2026-05-01T09:24:09.255Z</time></trkpt><trkpt lat="45.1331233" lon="7.03927"><ele>610.0</ele><time>2026-05-01T09:24:10.256Z</time></trkpt><trkpt lat="45.1330033" lon="7.03917"><ele>610.0</ele><time>2026-05-01T09:24:11.255Z</time></trkpt><trkpt lat="45.132885" lon="7.039145"><ele>610.0</ele><time>2026-05-01T09:24:12.256Z</time></trkpt><trkpt lat="45.132735" lon="7.0391633"><ele>610.0</ele><time>2026-05-01T09:24:13.256Z</time></trkpt><trkpt lat="45.1326117" lon="7.03919"><ele>610.0</ele><time>2026-05-01T09:24:14.256Z</time></trkpt><trkpt lat="45.13246" lon="7.0393417"><ele>609.3333333333334</ele><time>2026-05-01T09:24:15.255Z</time></trkpt><trkpt lat="45.1323033" lon="7.0395417"><ele>608.6666666666666</ele><time>2026-05-01T09:24:16.256Z</time></trkpt><trkpt lat="45.1321483" lon="7.0397717"><ele>608.0</ele><time>2026-05-01T09:24:17.255Z</time></trkpt><trkpt lat="45.131995" lon="7.0399383"><ele>606.6666666666666</ele><time>2026-05-01T09:24:18.255Z</time></trkpt><trkpt lat="45.1318333" lon="7.0401033"><ele>605.3333333333334</ele><time>2026-05-01T09:24:19.256Z</time></trkpt><trkpt lat="45.13168" lon="7.0402517"><ele>604.0</ele><time>2026-05-01T09:24:20.256Z</time></trkpt><trkpt lat="45.131525" lon="7.040355"><ele>600.0</ele><time>2026-05-01T09:24:21.256Z</time></trkpt><trkpt lat="45.131365" lon="7.0404183"><ele>596.0</ele><time>2026-05-01T09:24:22.256Z</time></trkpt><trkpt lat="45.1312267" lon="7.0404067"><ele>592.0</ele><time>2026-05-01T09:24:23.256Z</time></trkpt><trkpt lat="45.1310867" lon="7.0403467"><ele>592.0</ele><time>2026-05-01T09:24:24.256Z</time></trkpt><trkpt lat="45.130965" lon="7.04021"><ele>592.0</ele><time>2026-05-01T09:24:25.255Z</time></trkpt><trkpt lat="45.13085" lon="7.0400317"><ele>592.0</ele><time>2026-05-01T09:24:26.255Z</time></trkpt><trkpt lat="45.1307817" lon="7.0398433"><ele>593.0</ele><time>2026-05-01T09:24:27.256Z</time></trkpt><trkpt lat="45.1307417" lon="7.0396533"><ele>594.0</ele><time>2026-05-01T09:24:28.256Z</time></trkpt><trkpt lat="45.1307383" lon="7.0394883"><ele>595.0</ele><time>2026-05-01T09:24:29.256Z</time></trkpt><trkpt lat="45.13078" lon="7.0393417"><ele>596.0</ele><time>2026-05-01T09:24:30.256Z</time></trkpt><trkpt lat="45.1308483" lon="7.03917"><ele>597.5</ele><time>2026-05-01T09:24:31.256Z</time></trkpt><trkpt lat="45.131225" lon="7.0388633"><ele>599.0</ele><time>2026-05-01T09:24:32.256Z</time></trkpt><trkpt lat="45.131375" lon="7.0386033"><ele>599.0</ele><time>2026-05-01T09:24:33.256Z</time></trkpt><trkpt lat="45.1314733" lon="7.03835"><ele>599.0</ele><time>2026-05-01T09:24:34.256Z</time></trkpt><trkpt lat="45.13154" lon="7.0381183"><ele>599.0</ele><time>2026-05-01T09:24:35.256Z</time></trkpt><trkpt lat="45.13158" lon="7.03786"><ele>602.0</ele><time>2026-05-01T09:24:36.256Z</time></trkpt><trkpt lat="45.13158" lon="7.0375917"><ele>605.0</ele><time>2026-05-01T09:24:37.256Z</time></trkpt><trkpt lat="45.1315417" lon="7.0373"><ele>608.0</ele><time>2026-05-01T09:24:38.255Z</time></trkpt><trkpt lat="45.1315167" lon="7.0369933"><ele>608.0</ele><time>2026-05-01T09:24:39.256Z</time></trkpt><trkpt lat="45.1314883" lon="7.0366833"><ele>608.0</ele><time>2026-05-01T09:24:40.256Z</time></trkpt><trkpt lat="45.1314583" lon="7.036355"><ele>612.5</ele><time>2026-05-01T09:24:41.256Z</time></trkpt><trkpt lat="45.1314167" lon="7.0360283"><ele>617.0</ele><time>2026-05-01T09:24:42.256Z</time></trkpt><trkpt lat="45.131385" lon="7.0357183"><ele>621.3333333333333</ele><time>2026-05-01T09:24:43.256Z</time></trkpt><trkpt lat="45.131355" lon="7.03544"><ele>625.6666666666666</ele><time>2026-05-01T09:24:44.255Z</time></trkpt><trkpt lat="45.131325" lon="7.035175"><ele>630.0</ele><time>2026-05-01T09:24:45.256Z</time></trkpt><trkpt lat="45.1312833" lon="7.034895"><ele>633.0</ele><time>2026-05-01T09:24:46.255Z</time></trkpt><trkpt lat="45.1312367" lon="7.0346317"><ele>636.0</ele><time>2026-05-01T09:24:47.256Z</time></trkpt><trkpt lat="45.1311583" lon="7.0344133"><ele>639.0</ele><time>2026-05-01T09:24:48.256Z</time></trkpt><trkpt lat="45.1310633" lon="7.0341817"><ele>644.3333333333334</ele><time>2026-05-01T09:24:49.255Z</time></trkpt><trkpt lat="45.1309783" lon="7.0339433"><ele>649.6666666666667</ele><time>2026-05-01T09:24:50.255Z</time></trkpt><trkpt lat="45.13088" lon="7.0336883"><ele>655.0</ele><time>2026-05-01T09:24:51.256Z</time></trkpt><trkpt lat="45.1307383" lon="7.0333883"><ele>653.5</ele><time>2026-05-01T09:24:52.255Z</time></trkpt><trkpt lat="45.130605" lon="7.0330933"><ele>652.0</ele><time>2026-05-01T09:24:53.256Z</time></trkpt><trkpt lat="45.130455" lon="7.03282"><ele>652.0</ele><time>2026-05-01T09:24:54.256Z</time></trkpt><trkpt lat="45.1303083" lon="7.0325333"><ele>652.0</ele><time>2026-05-01T09:24:55.255Z</time></trkpt><trkpt lat="45.1301633" lon="7.0322533"><ele>658.5</ele><time>2026-05-01T09:24:56.256Z</time></trkpt><trkpt lat="45.1300233" lon="7.0319683"><ele>665.0</ele><time>2026-05-01T09:24:57.256Z</time></trkpt><trkpt lat="45.129875" lon="7.031725"><ele>669.6666666666666</ele><time>2026-05-01T09:24:58.256Z</time></trkpt><trkpt lat="45.1297617" lon="7.0315167"><ele>674.3333333333334</ele><time>2026-05-01T09:24:59.255Z</time></trkpt><trkpt lat="45.12964" lon="7.031315"><ele>679.0</ele><time>2026-05-01T09:25:00.256Z</time></trkpt><trkpt lat="45.129515" lon="7.0311283"><ele>679.0</ele><time>2026-05-01T09:25:01.255Z</time></trkpt><trkpt lat="45.129395" lon="7.0309367"><ele>679.0</ele><time>2026-05-01T09:25:02.255Z</time></trkpt><trkpt lat="45.1292783" lon="7.0307417"><ele>679.0</ele><time>2026-05-01T09:25:03.256Z</time></trkpt><trkpt lat="45.129185" lon="7.0305367"><ele>680.0</ele><time>2026-05-01T09:25:04.256Z</time></trkpt><trkpt lat="45.1290833" lon="7.0303167"><ele>681.0</ele><time>2026-05-01T09:25:05.256Z</time></trkpt><trkpt lat="45.1289933" lon="7.03007"><ele>682.0</ele><time>2026-05-01T09:25:06.256Z</time></trkpt><trkpt lat="45.12894" lon="7.0298233"><ele>705.6666666666667</ele><time>2026-05-01T09:25:07.255Z</time></trkpt><trkpt lat="45.1289467" lon="7.029585"><ele>729.3333333333334</ele><time>2026-05-01T09:25:08.255Z</time></trkpt><trkpt lat="45.128955" lon="7.0293717"><ele>753.0</ele><time>2026-05-01T09:25:09.255Z</time></trkpt><trkpt lat="45.12901" lon="7.029165"><ele>732.6666666666666</ele><time>2026-05-01T09:25:10.256Z</time></trkpt><trkpt lat="45.1290967" lon="7.0289583"><ele>712.3333333333333</ele><time>2026-05-01T09:25:11.255Z</time></trkpt><trkpt lat="45.1292533" lon="7.0287783"><ele>692.0</ele><time>2026-05-01T09:25:12.256Z</time></trkpt><trkpt lat="45.1293867" lon="7.0285833"><ele>692.0</ele><time>2026-05-01T09:25:13.255Z</time></trkpt><trkpt lat="45.1294533" lon="7.02836"><ele>692.0</ele><time>2026-05-01T09:25:14.255Z</time></trkpt><trkpt lat="45.1294883" lon="7.028115"><ele>692.0</ele><time>2026-05-01T09:25:15.256Z</time></trkpt><trkpt lat="45.1295117" lon="7.0278417"><ele>693.0</ele><time>2026-05-01T09:25:16.256Z</time></trkpt><trkpt lat="45.1295383" lon="7.02756"><ele>694.0</ele><time>2026-05-01T09:25:17.255Z</time></trkpt><trkpt lat="45.1295617" lon="7.0272917"><ele>695.0</ele><time>2026-05-01T09:25:18.256Z</time></trkpt><trkpt lat="45.1296017" lon="7.0270433"><ele>695.0</ele><time>2026-05-01T09:25:19.255Z</time></trkpt><trkpt lat="45.129625" lon="7.0268017"><ele>695.0</ele><time>2026-05-01T09:25:20.256Z</time></trkpt><trkpt lat="45.1296467" lon="7.0265783"><ele>695.0</ele><time>2026-05-01T09:25:21.256Z</time></trkpt><trkpt lat="45.12964" lon="7.0263867"><ele>695.5</ele><time>2026-05-01T09:25:22.255Z</time></trkpt><trkpt lat="45.1296333" lon="7.0262133"><ele>696.0</ele><time>2026-05-01T09:25:23.255Z</time></trkpt><trkpt lat="45.1295983" lon="7.0260267"><ele>696.5</ele><time>2026-05-01T09:25:24.256Z</time></trkpt><trkpt lat="45.129535" lon="7.0258283"><ele>697.0</ele><time>2026-05-01T09:25:25.256Z</time></trkpt><trkpt lat="45.1294667" lon="7.0256417"><ele>697.3333333333334</ele><time>2026-05-01T09:25:26.255Z</time></trkpt><trkpt lat="45.1293783" lon="7.0254517"><ele>697.6666666666666</ele><time>2026-05-01T09:25:27.256Z</time></trkpt><trkpt lat="45.1292883" lon="7.02527"><ele>698.0</ele><time>2026-05-01T09:25:28.256Z</time></trkpt><trkpt lat="45.1291933" lon="7.0251017"><ele>699.3333333333333</ele><time>2026-05-01T09:25:29.256Z</time></trkpt><trkpt lat="45.1290833" lon="7.02494"><ele>700.6666666666666</ele><time>2026-05-01T09:25:30.256Z</time></trkpt><trkpt lat="45.1289567" lon="7.0247767"><ele>702.0</ele><time>2026-05-01T09:25:31.256Z</time></trkpt><trkpt lat="45.1288017" lon="7.0246083"><ele>706.0</ele><time>2026-05-01T09:25:32.256Z</time></trkpt><trkpt lat="45.128655" lon="7.0243867"><ele>710.0</ele><time>2026-05-01T09:25:33.256Z</time></trkpt><trkpt lat="45.128425" lon="7.0242017"><ele>715.5</ele><time>2026-05-01T09:25:34.256Z</time></trkpt><trkpt lat="45.1281867" lon="7.024"><ele>721.0</ele><time>2026-05-01T09:25:35.256Z</time></trkpt><trkpt lat="45.127945" lon="7.0237967"><ele>721.0</ele><time>2026-05-01T09:25:36.256Z</time></trkpt><trkpt lat="45.1276933" lon="7.023595"><ele>721.0</ele><time>2026-05-01T09:25:37.256Z</time></trkpt><trkpt lat="45.1274383" lon="7.023415"><ele>723.5</ele><time>2026-05-01T09:25:38.255Z</time></trkpt><trkpt lat="45.1272017" lon="7.023245"><ele>726.0</ele><time>2026-05-01T09:25:39.256Z</time></trkpt><trkpt lat="45.126975" lon="7.0230833"><ele>726.0</ele><time>2026-05-01T09:25:40.256Z</time></trkpt><trkpt lat="45.1267633" lon="7.0229333"><ele>726.0</ele><time>2026-05-01T09:25:41.255Z</time></trkpt><trkpt lat="45.1265683" lon="7.0227867"><ele>731.3333333333334</ele><time>2026-05-01T09:25:42.256Z</time></trkpt><trkpt lat="45.1263917" lon="7.0226633"><ele>736.6666666666667</ele><time>2026-05-01T09:25:43.256Z</time></trkpt><trkpt lat="45.1262383" lon="7.02254"><ele>742.0</ele><time>2026-05-01T09:25:44.256Z</time></trkpt><trkpt lat="45.126105" lon="7.0224267"><ele>742.0</ele><time>2026-05-01T09:25:45.256Z</time></trkpt><trkpt lat="45.1259683" lon="7.02232"><ele>742.0</ele><time>2026-05-01T09:25:46.256Z</time></trkpt><trkpt lat="45.125825" lon="7.0222017"><ele>742.0</ele><time>2026-05-01T09:25:47.256Z</time></trkpt><trkpt lat="45.12569" lon="7.022065"><ele>753.5</ele><time>2026-05-01T09:25:48.256Z</time></trkpt><trkpt lat="45.1255817" lon="7.02191"><ele>765.0</ele><time>2026-05-01T09:25:49.256Z</time></trkpt><trkpt lat="45.1254983" lon="7.02175"><ele>776.5</ele><time>2026-05-01T09:25:50.256Z</time></trkpt><trkpt lat="45.1254217" lon="7.0215733"><ele>788.0</ele><time>2026-05-01T09:25:51.256Z</time></trkpt><trkpt lat="45.1253717" lon="7.021385"><ele>788.0</ele><time>2026-05-01T09:25:52.255Z</time></trkpt><trkpt lat="45.1253367" lon="7.0211883"><ele>788.0</ele><time>2026-05-01T09:25:53.256Z</time></trkpt><trkpt lat="45.125335" lon="7.020995"><ele>788.0</ele><time>2026-05-01T09:25:54.256Z</time></trkpt><trkpt lat="45.1253883" lon="7.0207983"><ele>788.0</ele><time>2026-05-01T09:25:55.256Z</time></trkpt><trkpt lat="45.1254633" lon="7.0206317"><ele>783.6666666666667</ele><time>2026-05-01T09:25:56.256Z</time></trkpt><trkpt lat="45.12559" lon="7.02045"><ele>779.3333333333333</ele><time>2026-05-01T09:25:57.256Z</time></trkpt><trkpt lat="45.1257033" lon="7.020285"><ele>775.0</ele><time>2026-05-01T09:25:58.256Z</time></trkpt><trkpt lat="45.1258183" lon="7.02012"><ele>768.6666666666666</ele><time>2026-05-01T09:25:59.256Z</time></trkpt><trkpt lat="45.12594" lon="7.01991"><ele>762.3333333333333</ele><time>2026-05-01T09:26:00.256Z</time></trkpt><trkpt lat="45.126055" lon="7.019675"><ele>756.0</ele><time>2026-05-01T09:26:01.256Z</time></trkpt><trkpt lat="45.1261283" lon="7.0194433"><ele>756.0</ele><time>2026-05-01T09:26:02.255Z</time></trkpt><trkpt lat="45.1261967" lon="7.0192367"><ele>756.0</ele><time>2026-05-01T09:26:03.255Z</time></trkpt><trkpt lat="45.12629" lon="7.0190433"><ele>756.0</ele><time>2026-05-01T09:26:04.256Z</time></trkpt><trkpt lat="45.1263467" lon="7.0188833"><ele>757.3333333333334</ele><time>2026-05-01T09:26:05.256Z</time></trkpt><trkpt lat="45.1263767" lon="7.0187767"><ele>758.6666666666666</ele><time>2026-05-01T09:26:06.256Z</time></trkpt><trkpt lat="45.1264217" lon="7.0186983"><ele>760.0</ele><time>2026-05-01T09:26:07.255Z</time></trkpt><trkpt lat="45.1264933" lon="7.01873"><ele>761.3333333333333</ele><time>2026-05-01T09:26:10.256Z</time></trkpt><trkpt lat="45.1264417" lon="7.0187867"><ele>762.6666666666666</ele><time>2026-05-01T09:26:14.256Z</time></trkpt><trkpt lat="45.1264517" lon="7.0186533"><ele>764.0</ele><time>2026-05-01T09:26:16.256Z</time></trkpt><trkpt lat="45.1264817" lon="7.0185333"><ele>764.0</ele><time>2026-05-01T09:26:17.255Z</time></trkpt><trkpt lat="45.1265083" lon="7.01838"><ele>764.0</ele><time>2026-05-01T09:26:18.256Z</time></trkpt><trkpt lat="45.1265433" lon="7.0181817"><ele>764.0</ele><time>2026-05-01T09:26:19.255Z</time></trkpt><trkpt lat="45.1265767" lon="7.0179683"><ele>764.0</ele><time>2026-05-01T09:26:20.256Z</time></trkpt><trkpt lat="45.1266033" lon="7.0177567"><ele>762.6666666666666</ele><time>2026-05-01T09:26:21.255Z</time></trkpt><trkpt lat="45.1266317" lon="7.0175133"><ele>761.3333333333334</ele><time>2026-05-01T09:26:22.255Z</time></trkpt><trkpt lat="45.1266717" lon="7.017275"><ele>760.0</ele><time>2026-05-01T09:26:23.256Z</time></trkpt><trkpt lat="45.126735" lon="7.0170233"><ele>760.0</ele><time>2026-05-01T09:26:24.255Z</time></trkpt><trkpt lat="45.1268333" lon="7.0168033"><ele>760.0</ele><time>2026-05-01T09:26:25.256Z</time></trkpt><trkpt lat="45.126905" lon="7.016565"><ele>760.0</ele><time>2026-05-01T09:26:26.256Z</time></trkpt><trkpt lat="45.1269617" lon="7.016335"><ele>760.0</ele><time>2026-05-01T09:26:27.255Z</time></trkpt><trkpt lat="45.1270033" lon="7.0160867"><ele>760.0</ele><time>2026-05-01T09:26:28.255Z</time></trkpt><trkpt lat="45.12706" lon="7.01584"><ele>760.0</ele><time>2026-05-01T09:26:29.256Z</time></trkpt><trkpt lat="45.127125" lon="7.0155967"><ele>759.6666666666667</ele><time>2026-05-01T09:26:30.256Z</time></trkpt><trkpt lat="45.127185" lon="7.01535"><ele>759.3333333333334</ele><time>2026-05-01T09:26:31.256Z</time></trkpt><trkpt lat="45.1272567" lon="7.0150733"><ele>759.0</ele><time>2026-05-01T09:26:32.256Z</time></trkpt><trkpt lat="45.1273217" lon="7.0148017"><ele>758.3333333333334</ele><time>2026-05-01T09:26:33.255Z</time></trkpt><trkpt lat="45.1273717" lon="7.014515"><ele>757.6666666666667</ele><time>2026-05-01T09:26:34.255Z</time></trkpt><trkpt lat="45.127405" lon="7.0142317"><ele>757.0</ele><time>2026-05-01T09:26:35.256Z</time></trkpt><trkpt lat="45.1274067" lon="7.0139367"><ele>757.3333333333334</ele><time>2026-05-01T09:26:36.255Z</time></trkpt><trkpt lat="45.1274067" lon="7.013665"><ele>757.6666666666666</ele><time>2026-05-01T09:26:37.255Z</time></trkpt><trkpt lat="45.1273933" lon="7.0134017"><ele>758.0</ele><time>2026-05-01T09:26:38.256Z</time></trkpt><trkpt lat="45.1273683" lon="7.01314"><ele>756.3333333333333</ele><time>2026-05-01T09:26:39.255Z</time></trkpt><trkpt lat="45.1273483" lon="7.0128867"><ele>754.6666666666666</ele><time>2026-05-01T09:26:40.256Z</time></trkpt><trkpt lat="45.127325" lon="7.01266"><ele>753.0</ele><time>2026-05-01T09:26:41.256Z</time></trkpt><trkpt lat="45.1273067" lon="7.0124667"><ele>752.2</ele><time>2026-05-01T09:26:42.256Z</time></trkpt><trkpt lat="45.1272683" lon="7.0123333"><ele>751.4</ele><time>2026-05-01T09:26:43.256Z</time></trkpt><trkpt lat="45.12725" lon="7.0122133"><ele>750.6</ele><time>2026-05-01T09:26:44.256Z</time></trkpt><trkpt lat="45.12723" lon="7.012075"><ele>749.8000000000001</ele><time>2026-05-01T09:26:45.256Z</time></trkpt><trkpt lat="45.1272033" lon="7.0119333"><ele>749.0</ele><time>2026-05-01T09:26:46.256Z</time></trkpt><trkpt lat="45.1271817" lon="7.0117633"><ele>748.3333333333333</ele><time>2026-05-01T09:26:47.256Z</time></trkpt><trkpt lat="45.1271433" lon="7.011565"><ele>747.6666666666666</ele><time>2026-05-01T09:26:48.256Z</time></trkpt><trkpt lat="45.1270867" lon="7.0113417"><ele>747.0</ele><time>2026-05-01T09:26:49.255Z</time></trkpt><trkpt lat="45.127055" lon="7.0111083"><ele>747.0</ele><time>2026-05-01T09:26:50.255Z</time></trkpt><trkpt lat="45.1270167" lon="7.010855"><ele>747.0</ele><time>2026-05-01T09:26:51.256Z</time></trkpt><trkpt lat="45.1269683" lon="7.010595"><ele>747.0</ele><time>2026-05-01T09:26:52.255Z</time></trkpt><trkpt lat="45.1269217" lon="7.0103033"><ele>746.6666666666666</ele><time>2026-05-01T09:26:53.256Z</time></trkpt><trkpt lat="45.1268717" lon="7.0100083"><ele>746.3333333333333</ele><time>2026-05-01T09:26:54.255Z</time></trkpt><trkpt lat="45.1268117" lon="7.0097067"><ele>746.0</ele><time>2026-05-01T09:26:55.256Z</time></trkpt><trkpt lat="45.1267567" lon="7.00943"><ele>745.0</ele><time>2026-05-01T09:26:56.256Z</time></trkpt><trkpt lat="45.1267017" lon="7.0091633"><ele>744.0</ele><time>2026-05-01T09:26:57.256Z</time></trkpt><trkpt lat="45.1266583" lon="7.0088867"><ele>743.0</ele><time>2026-05-01T09:26:58.255Z</time></trkpt><trkpt lat="45.1266167" lon="7.0086183"><ele>743.3333333333333</ele><time>2026-05-01T09:26:59.256Z</time></trkpt><trkpt lat="45.1265817" lon="7.0083433"><ele>743.6666666666666</ele><time>2026-05-01T09:27:00.256Z</time></trkpt><trkpt lat="45.126545" lon="7.0080617"><ele>744.0</ele><time>2026-05-01T09:27:01.256Z</time></trkpt><trkpt lat="45.1265067" lon="7.0077767"><ele>744.3333333333334</ele><time>2026-05-01T09:27:02.256Z</time></trkpt><trkpt lat="45.1264633" lon="7.0074933"><ele>744.6666666666667</ele><time>2026-05-01T09:27:03.256Z</time></trkpt><trkpt lat="45.126435" lon="7.0072"><ele>745.0</ele><time>2026-05-01T09:27:04.256Z</time></trkpt><trkpt lat="45.1264033" lon="7.00691"><ele>745.3333333333334</ele><time>2026-05-01T09:27:05.256Z</time></trkpt><trkpt lat="45.1263633" lon="7.0066317"><ele>745.6666666666666</ele><time>2026-05-01T09:27:06.256Z</time></trkpt><trkpt lat="45.1263167" lon="7.0063383"><ele>746.0</ele><time>2026-05-01T09:27:07.256Z</time></trkpt><trkpt lat="45.1262517" lon="7.0060467"><ele>745.0</ele><time>2026-05-01T09:27:08.256Z</time></trkpt><trkpt lat="45.1261817" lon="7.0057617"><ele>744.0</ele><time>2026-05-01T09:27:09.256Z</time></trkpt><trkpt lat="45.1261083" lon="7.0054833"><ele>743.0</ele><time>2026-05-01T09:27:10.256Z</time></trkpt><trkpt lat="45.1260467" lon="7.0052133"><ele>741.6666666666666</ele><time>2026-05-01T09:27:11.256Z</time></trkpt><trkpt lat="45.12596" lon="7.004965"><ele>740.3333333333334</ele><time>2026-05-01T09:27:12.255Z</time></trkpt><trkpt lat="45.1258667" lon="7.0047217"><ele>739.0</ele><time>2026-05-01T09:27:13.255Z</time></trkpt><trkpt lat="45.1257717" lon="7.0044917"><ele>740.6666666666667</ele><time>2026-05-01T09:27:14.256Z</time></trkpt><trkpt lat="45.12568" lon="7.00427"><ele>742.3333333333334</ele><time>2026-05-01T09:27:15.256Z</time></trkpt><trkpt lat="45.12558" lon="7.0040217"><ele>744.0</ele><time>2026-05-01T09:27:16.256Z</time></trkpt><trkpt lat="45.1254867" lon="7.003765"><ele>744.0</ele><time>2026-05-01T09:27:17.256Z</time></trkpt><trkpt lat="45.1253833" lon="7.0035083"><ele>744.0</ele><time>2026-05-01T09:27:18.256Z</time></trkpt><trkpt lat="45.1252683" lon="7.0032667"><ele>744.0</ele><time>2026-05-01T09:27:19.256Z</time></trkpt><trkpt lat="45.1251517" lon="7.0030433"><ele>743.3333333333334</ele><time>2026-05-01T09:27:20.256Z</time></trkpt><trkpt lat="45.1250367" lon="7.00284"><ele>742.6666666666667</ele><time>2026-05-01T09:27:21.255Z</time></trkpt><trkpt lat="45.1249333" lon="7.002645"><ele>742.0</ele><time>2026-05-01T09:27:22.256Z</time></trkpt><trkpt lat="45.124835" lon="7.002445"><ele>743.6666666666667</ele><time>2026-05-01T09:27:23.256Z</time></trkpt><trkpt lat="45.124755" lon="7.00224"><ele>745.3333333333334</ele><time>2026-05-01T09:27:24.256Z</time></trkpt><trkpt lat="45.1246783" lon="7.0020217"><ele>747.0</ele><time>2026-05-01T09:27:25.256Z</time></trkpt><trkpt lat="45.1246183" lon="7.0018033"><ele>746.3333333333334</ele><time>2026-05-01T09:27:26.256Z</time></trkpt><trkpt lat="45.1245917" lon="7.0015883"><ele>745.6666666666667</ele><time>2026-05-01T09:27:27.256Z</time></trkpt><trkpt lat="45.1245783" lon="7.001345"><ele>745.0</ele><time>2026-05-01T09:27:28.256Z</time></trkpt><trkpt lat="45.124585" lon="7.0011133"><ele>745.0</ele><time>2026-05-01T09:27:29.256Z</time></trkpt><trkpt lat="45.1245833" lon="7.00086"><ele>745.0</ele><time>2026-05-01T09:27:30.256Z</time></trkpt><trkpt lat="45.1245833" lon="7.0006117"><ele>745.0</ele><time>2026-05-01T09:27:31.256Z</time></trkpt><trkpt lat="45.124625" lon="7.0003683"><ele>745.0</ele><time>2026-05-01T09:27:32.256Z</time></trkpt><trkpt lat="45.1246633" lon="7.0001183"><ele>745.0</ele><time>2026-05-01T09:27:33.256Z</time></trkpt><trkpt lat="45.1247033" lon="6.9998583"><ele>745.0</ele><time>2026-05-01T09:27:34.256Z</time></trkpt><trkpt lat="45.1247417" lon="6.9996283"><ele>745.0</ele><time>2026-05-01T09:27:35.256Z</time></trkpt><trkpt lat="45.12477" lon="6.9994117"><ele>745.0</ele><time>2026-05-01T09:27:36.256Z</time></trkpt><trkpt lat="45.1248" lon="6.9992"><ele>745.0</ele><time>2026-05-01T09:27:37.256Z</time></trkpt><trkpt lat="45.124805" lon="6.9989867"><ele>744.0</ele><time>2026-05-01T09:27:38.256Z</time></trkpt><trkpt lat="45.124785" lon="6.9987633"><ele>743.0</ele><time>2026-05-01T09:27:39.256Z</time></trkpt><trkpt lat="45.1247633" lon="6.99857"><ele>742.0</ele><time>2026-05-01T09:27:40.256Z</time></trkpt><trkpt lat="45.1247117" lon="6.9983633"><ele>742.0</ele><time>2026-05-01T09:27:41.256Z</time></trkpt><trkpt lat="45.1246317" lon="6.9981567"><ele>742.0</ele><time>2026-05-01T09:27:42.256Z</time></trkpt><trkpt lat="45.1245567" lon="6.99796"><ele>742.0</ele><time>2026-05-01T09:27:43.256Z</time></trkpt><trkpt lat="45.1244367" lon="6.99777"><ele>742.0</ele><time>2026-05-01T09:27:44.255Z</time></trkpt><trkpt lat="45.1242233" lon="6.99754"><ele>742.0</ele><time>2026-05-01T09:27:45.256Z</time></trkpt><trkpt lat="45.1240633" lon="6.997305"><ele>745.5</ele><time>2026-05-01T09:27:46.255Z</time></trkpt><trkpt lat="45.123905" lon="6.9970567"><ele>749.0</ele><time>2026-05-01T09:27:47.256Z</time></trkpt><trkpt lat="45.1237617" lon="6.9968067"><ele>747.3333333333333</ele><time>2026-05-01T09:27:48.256Z</time></trkpt><trkpt lat="45.123635" lon="6.9965617"><ele>745.6666666666666</ele><time>2026-05-01T09:27:49.256Z</time></trkpt><trkpt lat="45.123515" lon="6.9963117"><ele>744.0</ele><time>2026-05-01T09:27:50.255Z</time></trkpt><trkpt lat="45.123425" lon="6.9960683"><ele>742.0</ele><time>2026-05-01T09:27:51.255Z</time></trkpt><trkpt lat="45.1233483" lon="6.9958267"><ele>740.0</ele><time>2026-05-01T09:27:52.255Z</time></trkpt><trkpt lat="45.123285" lon="6.9955867"><ele>738.0</ele><time>2026-05-01T09:27:53.256Z</time></trkpt><trkpt lat="45.1232117" lon="6.99532"><ele>743.5</ele><time>2026-05-01T09:27:54.255Z</time></trkpt><trkpt lat="45.1231133" lon="6.9949983"><ele>749.0</ele><time>2026-05-01T09:27:55.255Z</time></trkpt><trkpt lat="45.1230267" lon="6.9946967"><ele>749.0</ele><time>2026-05-01T09:27:56.256Z</time></trkpt><trkpt lat="45.1229417" lon="6.994405"><ele>749.0</ele><time>2026-05-01T09:27:57.255Z</time></trkpt><trkpt lat="45.1228633" lon="6.994105"><ele>749.0</ele><time>2026-05-01T09:27:58.255Z</time></trkpt><trkpt lat="45.1227817" lon="6.9938167"><ele>747.0</ele><time>2026-05-01T09:27:59.256Z</time></trkpt><trkpt lat="45.1227033" lon="6.99355"><ele>745.0</ele><time>2026-05-01T09:28:00.256Z</time></trkpt><trkpt lat="45.1226317" lon="6.993285"><ele>743.0</ele><time>2026-05-01T09:28:01.255Z</time></trkpt><trkpt lat="45.1225683" lon="6.9930183"><ele>742.3333333333333</ele><time>2026-05-01T09:28:02.256Z</time></trkpt><trkpt lat="45.1225017" lon="6.992745"><ele>741.6666666666666</ele><time>2026-05-01T09:28:03.256Z</time></trkpt><trkpt lat="45.122435" lon="6.992495"><ele>741.0</ele><time>2026-05-01T09:28:04.255Z</time></trkpt><trkpt lat="45.1223767" lon="6.9922667"><ele>743.75</ele><time>2026-05-01T09:28:05.256Z</time></trkpt><trkpt lat="45.1223233" lon="6.9920733"><ele>746.5</ele><time>2026-05-01T09:28:06.256Z</time></trkpt><trkpt lat="45.1222733" lon="6.9919"><ele>749.25</ele><time>2026-05-01T09:28:07.255Z</time></trkpt><trkpt lat="45.12223" lon="6.99173"><ele>752.0</ele><time>2026-05-01T09:28:08.256Z</time></trkpt><trkpt lat="45.1222167" lon="6.991575"><ele>752.0</ele><time>2026-05-01T09:28:09.256Z</time></trkpt><trkpt lat="45.122175" lon="6.9914317"><ele>752.0</ele><time>2026-05-01T09:28:10.256Z</time></trkpt><trkpt lat="45.12214" lon="6.9912683"><ele>752.0</ele><time>2026-05-01T09:28:11.256Z</time></trkpt><trkpt lat="45.1220967" lon="6.9911"><ele>752.0</ele><time>2026-05-01T09:28:12.255Z</time></trkpt><trkpt lat="45.12206" lon="6.9909283"><ele>751.25</ele><time>2026-05-01T09:28:13.256Z</time></trkpt><trkpt lat="45.1220267" lon="6.9907567"><ele>750.5</ele><time>2026-05-01T09:28:14.256Z</time></trkpt><trkpt lat="45.121985" lon="6.9906017"><ele>749.75</ele><time>2026-05-01T09:28:15.256Z</time></trkpt><trkpt lat="45.1219567" lon="6.9904383"><ele>749.0</ele><time>2026-05-01T09:28:16.255Z</time></trkpt><trkpt lat="45.1219317" lon="6.99029"><ele>749.0</ele><time>2026-05-01T09:28:17.256Z</time></trkpt><trkpt lat="45.1219017" lon="6.990135"><ele>749.0</ele><time>2026-05-01T09:28:18.256Z</time></trkpt><trkpt lat="45.1218567" lon="6.9899617"><ele>749.0</ele><time>2026-05-01T09:28:19.255Z</time></trkpt><trkpt lat="45.1218117" lon="6.9897717"><ele>749.0</ele><time>2026-05-01T09:28:20.256Z</time></trkpt><trkpt lat="45.121755" lon="6.989575"><ele>748.6666666666666</ele><time>2026-05-01T09:28:21.255Z</time></trkpt><trkpt lat="45.121685" lon="6.9893767"><ele>748.3333333333334</ele><time>2026-05-01T09:28:22.256Z</time></trkpt><trkpt lat="45.1216217" lon="6.989185"><ele>748.0</ele><time>2026-05-01T09:28:23.256Z</time></trkpt><trkpt lat="45.1215567" lon="6.9889883"><ele>751.3333333333334</ele><time>2026-05-01T09:28:24.256Z</time></trkpt><trkpt lat="45.1214817" lon="6.9887983"><ele>754.6666666666666</ele><time>2026-05-01T09:28:25.255Z</time></trkpt><trkpt lat="45.12141" lon="6.9886067"><ele>758.0</ele><time>2026-05-01T09:28:26.255Z</time></trkpt><trkpt lat="45.121345" lon="6.9883983"><ele>757.3333333333333</ele><time>2026-05-01T09:28:27.255Z</time></trkpt><trkpt lat="45.1212783" lon="6.988185"><ele>756.6666666666666</ele><time>2026-05-01T09:28:28.256Z</time></trkpt><trkpt lat="45.1212083" lon="6.9879733"><ele>756.0</ele><time>2026-05-01T09:28:29.255Z</time></trkpt><trkpt lat="45.1211367" lon="6.98777"><ele>756.0</ele><time>2026-05-01T09:28:30.256Z</time></trkpt><trkpt lat="45.121065" lon="6.9875733"><ele>756.0</ele><time>2026-05-01T09:28:31.256Z</time></trkpt><trkpt lat="45.1209817" lon="6.98738"><ele>756.0</ele><time>2026-05-01T09:28:32.255Z</time></trkpt><trkpt lat="45.120905" lon="6.9872033"><ele>755.5</ele><time>2026-05-01T09:28:33.255Z</time></trkpt><trkpt lat="45.1208417" lon="6.98705"><ele>755.0</ele><time>2026-05-01T09:28:34.256Z</time></trkpt><trkpt lat="45.1207717" lon="6.98691"><ele>754.5</ele><time>2026-05-01T09:28:35.255Z</time></trkpt><trkpt lat="45.120695" lon="6.986795"><ele>754.0</ele><time>2026-05-01T09:28:36.256Z</time></trkpt><trkpt lat="45.1206117" lon="6.986685"><ele>755.0</ele><time>2026-05-01T09:28:37.256Z</time></trkpt><trkpt lat="45.12054" lon="6.986585"><ele>756.0</ele><time>2026-05-01T09:28:38.256Z</time></trkpt><trkpt lat="45.12047" lon="6.9864967"><ele>757.0</ele><time>2026-05-01T09:28:39.256Z</time></trkpt><trkpt lat="45.1203883" lon="6.9864217"><ele>758.0</ele><time>2026-05-01T09:28:40.256Z</time></trkpt><trkpt lat="45.1203033" lon="6.9863567"><ele>759.0</ele><time>2026-05-01T09:28:41.256Z</time></trkpt><trkpt lat="45.120215" lon="6.9863233"><ele>759.0</ele><time>2026-05-01T09:28:42.256Z</time></trkpt><trkpt lat="45.1201233" lon="6.9862917"><ele>759.0</ele><time>2026-05-01T09:28:43.256Z</time></trkpt><trkpt lat="45.1200233" lon="6.9862667"><ele>759.0</ele><time>2026-05-01T09:28:44.256Z</time></trkpt><trkpt lat="45.1199167" lon="6.986235"><ele>759.0</ele><time>2026-05-01T09:28:45.256Z</time></trkpt><trkpt lat="45.1198033" lon="6.9861783"><ele>759.0</ele><time>2026-05-01T09:28:46.256Z</time></trkpt><trkpt lat="45.1196967" lon="6.9861083"><ele>759.0</ele><time>2026-05-01T09:28:47.256Z</time></trkpt><trkpt lat="45.1195867" lon="6.9860283"><ele>759.0</ele><time>2026-05-01T09:28:48.255Z</time></trkpt><trkpt lat="45.11949" lon="6.98594"><ele>759.0</ele><time>2026-05-01T09:28:49.256Z</time></trkpt><trkpt lat="45.11939" lon="6.9858383"><ele>759.0</ele><time>2026-05-01T09:28:50.255Z</time></trkpt><trkpt lat="45.1192883" lon="6.9857133"><ele>759.0</ele><time>2026-05-01T09:28:51.256Z</time></trkpt><trkpt lat="45.1191833" lon="6.98559"><ele>759.0</ele><time>2026-05-01T09:28:52.256Z</time></trkpt><trkpt lat="45.1190667" lon="6.9854483"><ele>759.0</ele><time>2026-05-01T09:28:53.256Z</time></trkpt><trkpt lat="45.118935" lon="6.985285"><ele>760.6666666666666</ele><time>2026-05-01T09:28:54.255Z</time></trkpt><trkpt lat="45.1188117" lon="6.9850983"><ele>762.3333333333333</ele><time>2026-05-01T09:28:55.255Z</time></trkpt><trkpt lat="45.1186783" lon="6.984875"><ele>764.0</ele><time>2026-05-01T09:28:56.256Z</time></trkpt><trkpt lat="45.1185167" lon="6.9846167"><ele>764.0</ele><time>2026-05-01T09:28:57.256Z</time></trkpt><trkpt lat="45.118315" lon="6.9844067"><ele>764.0</ele><time>2026-05-01T09:28:58.255Z</time></trkpt><trkpt lat="45.1181983" lon="6.9842033"><ele>764.0</ele><time>2026-05-01T09:28:59.256Z</time></trkpt><trkpt lat="45.1180933" lon="6.9840117"><ele>765.6666666666666</ele><time>2026-05-01T09:29:00.256Z</time></trkpt><trkpt lat="45.1180167" lon="6.983845"><ele>767.3333333333333</ele><time>2026-05-01T09:29:01.256Z</time></trkpt><trkpt lat="45.1179067" lon="6.9836867"><ele>769.0</ele><time>2026-05-01T09:29:02.256Z</time></trkpt><trkpt lat="45.1177983" lon="6.983515"><ele>767.3333333333333</ele><time>2026-05-01T09:29:03.256Z</time></trkpt><trkpt lat="45.1176967" lon="6.9833433"><ele>765.6666666666666</ele><time>2026-05-01T09:29:04.256Z</time></trkpt><trkpt lat="45.117615" lon="6.98313"><ele>764.0</ele><time>2026-05-01T09:29:05.256Z</time></trkpt><trkpt lat="45.1175167" lon="6.9829167"><ele>764.0</ele><time>2026-05-01T09:29:06.255Z</time></trkpt><trkpt lat="45.1174583" lon="6.9827083"><ele>764.0</ele><time>2026-05-01T09:29:07.256Z</time></trkpt><trkpt lat="45.11738" lon="6.98248"><ele>764.0</ele><time>2026-05-01T09:29:08.256Z</time></trkpt><trkpt lat="45.1172983" lon="6.98225"><ele>766.5</ele><time>2026-05-01T09:29:09.255Z</time></trkpt><trkpt lat="45.1172533" lon="6.9820267"><ele>769.0</ele><time>2026-05-01T09:29:10.256Z</time></trkpt><trkpt lat="45.1172267" lon="6.9818283"><ele>771.5</ele><time>2026-05-01T09:29:11.256Z</time></trkpt><trkpt lat="45.117205" lon="6.9816417"><ele>774.0</ele><time>2026-05-01T09:29:12.256Z</time></trkpt><trkpt lat="45.1172067" lon="6.9814683"><ele>774.0</ele><time>2026-05-01T09:29:13.256Z</time></trkpt><trkpt lat="45.1171967" lon="6.981285"><ele>774.0</ele><time>2026-05-01T09:29:14.255Z</time></trkpt><trkpt lat="45.117175" lon="6.9810617"><ele>774.0</ele><time>2026-05-01T09:29:15.255Z</time></trkpt><trkpt lat="45.1171633" lon="6.9808233"><ele>772.3333333333333</ele><time>2026-05-01T09:29:16.256Z</time></trkpt><trkpt lat="45.117155" lon="6.9805733"><ele>770.6666666666666</ele><time>2026-05-01T09:29:17.256Z</time></trkpt><trkpt lat="45.1171467" lon="6.980315"><ele>769.0</ele><time>2026-05-01T09:29:18.256Z</time></trkpt><trkpt lat="45.1171383" lon="6.980065"><ele>767.0</ele><time>2026-05-01T09:29:19.256Z</time></trkpt><trkpt lat="45.1171283" lon="6.9798367"><ele>765.0</ele><time>2026-05-01T09:29:20.256Z</time></trkpt><trkpt lat="45.1171267" lon="6.9795967"><ele>763.0</ele><time>2026-05-01T09:29:21.256Z</time></trkpt><trkpt lat="45.117125" lon="6.9793617"><ele>763.3333333333334</ele><time>2026-05-01T09:29:22.256Z</time></trkpt><trkpt lat="45.1171167" lon="6.9791133"><ele>763.6666666666666</ele><time>2026-05-01T09:29:23.255Z</time></trkpt><trkpt lat="45.1171133" lon="6.9788667"><ele>764.0</ele><time>2026-05-01T09:29:24.256Z</time></trkpt><trkpt lat="45.1171183" lon="6.9786367"><ele>764.0</ele><time>2026-05-01T09:29:25.256Z</time></trkpt><trkpt lat="45.1171683" lon="6.978395"><ele>764.0</ele><time>2026-05-01T09:29:26.256Z</time></trkpt><trkpt lat="45.1171683" lon="6.978165"><ele>764.0</ele><time>2026-05-01T09:29:27.256Z</time></trkpt><trkpt lat="45.1171633" lon="6.9779383"><ele>764.75</ele><time>2026-05-01T09:29:28.256Z</time></trkpt><trkpt lat="45.11716" lon="6.9777283"><ele>765.5</ele><time>2026-05-01T09:29:29.255Z</time></trkpt><trkpt lat="45.1171433" lon="6.977525"><ele>766.25</ele><time>2026-05-01T09:29:30.256Z</time></trkpt><trkpt lat="45.1171117" lon="6.9773217"><ele>767.0</ele><time>2026-05-01T09:29:31.256Z</time></trkpt><trkpt lat="45.1170683" lon="6.977105"><ele>767.3333333333333</ele><time>2026-05-01T09:29:32.256Z</time></trkpt><trkpt lat="45.11696" lon="6.97687"><ele>767.6666666666666</ele><time>2026-05-01T09:29:33.256Z</time></trkpt><trkpt lat="45.11686" lon="6.976675"><ele>768.0</ele><time>2026-05-01T09:29:34.255Z</time></trkpt><trkpt lat="45.1167683" lon="6.9765"><ele>769.0</ele><time>2026-05-01T09:29:35.255Z</time></trkpt><trkpt lat="45.1166667" lon="6.97633"><ele>770.0</ele><time>2026-05-01T09:29:36.256Z</time></trkpt><trkpt lat="45.11654" lon="6.9761383"><ele>771.0</ele><time>2026-05-01T09:29:37.256Z</time></trkpt><trkpt lat="45.1164083" lon="6.9759383"><ele>774.0</ele><time>2026-05-01T09:29:38.255Z</time></trkpt><trkpt lat="45.1162683" lon="6.975715"><ele>777.0</ele><time>2026-05-01T09:29:39.256Z</time></trkpt><trkpt lat="45.1161167" lon="6.975455"><ele>780.0</ele><time>2026-05-01T09:29:40.255Z</time></trkpt><trkpt lat="45.1159567" lon="6.9752233"><ele>778.5</ele><time>2026-05-01T09:29:41.256Z</time></trkpt><trkpt lat="45.1157783" lon="6.9750133"><ele>777.0</ele><time>2026-05-01T09:29:42.256Z</time></trkpt><trkpt lat="45.1155967" lon="6.974735"><ele>776.0</ele><time>2026-05-01T09:29:43.255Z</time></trkpt><trkpt lat="45.11544" lon="6.97451"><ele>775.0</ele><time>2026-05-01T09:29:44.256Z</time></trkpt><trkpt lat="45.11528" lon="6.9742867"><ele>774.0</ele><time>2026-05-01T09:29:45.256Z</time></trkpt><trkpt lat="45.115125" lon="6.974065"><ele>774.0</ele><time>2026-05-01T09:29:46.256Z</time></trkpt><trkpt lat="45.11497" lon="6.9738267"><ele>774.0</ele><time>2026-05-01T09:29:47.256Z</time></trkpt><trkpt lat="45.1148533" lon="6.973605"><ele>774.0</ele><time>2026-05-01T09:29:48.255Z</time></trkpt><trkpt lat="45.1147067" lon="6.97338"><ele>778.3333333333333</ele><time>2026-05-01T09:29:49.256Z</time></trkpt><trkpt lat="45.1145567" lon="6.973155"><ele>782.6666666666666</ele><time>2026-05-01T09:29:50.255Z</time></trkpt><trkpt lat="45.1144083" lon="6.972935"><ele>787.0</ele><time>2026-05-01T09:29:51.256Z</time></trkpt><trkpt lat="45.1142683" lon="6.9727033"><ele>782.5</ele><time>2026-05-01T09:29:52.256Z</time></trkpt><trkpt lat="45.1141317" lon="6.9724517"><ele>778.0</ele><time>2026-05-01T09:29:53.256Z</time></trkpt><trkpt lat="45.1139917" lon="6.972185"><ele>784.5</ele><time>2026-05-01T09:29:54.255Z</time></trkpt><trkpt lat="45.1138517" lon="6.97192"><ele>791.0</ele><time>2026-05-01T09:29:55.255Z</time></trkpt><trkpt lat="45.1137167" lon="6.971665"><ele>791.0</ele><time>2026-05-01T09:29:56.256Z</time></trkpt><trkpt lat="45.11364" lon="6.9713967"><ele>791.0</ele><time>2026-05-01T09:29:57.255Z</time></trkpt><trkpt lat="45.11355" lon="6.9711533"><ele>791.0</ele><time>2026-05-01T09:29:58.256Z</time></trkpt><trkpt lat="45.1134533" lon="6.9709083"><ele>786.6666666666667</ele><time>2026-05-01T09:29:59.256Z</time></trkpt><trkpt lat="45.1133517" lon="6.9706767"><ele>782.3333333333333</ele><time>2026-05-01T09:30:00.256Z</time></trkpt><trkpt lat="45.1132617" lon="6.97048"><ele>778.0</ele><time>2026-05-01T09:30:01.256Z</time></trkpt><trkpt lat="45.1131617" lon="6.97029"><ele>779.3333333333333</ele><time>2026-05-01T09:30:02.255Z</time></trkpt><trkpt lat="45.1130483" lon="6.9701133"><ele>780.6666666666667</ele><time>2026-05-01T09:30:03.256Z</time></trkpt><trkpt lat="45.1129267" lon="6.9699467"><ele>782.0</ele><time>2026-05-01T09:30:04.255Z</time></trkpt><trkpt lat="45.112785" lon="6.9698017"><ele>782.0</ele><time>2026-05-01T09:30:05.255Z</time></trkpt><trkpt lat="45.1126383" lon="6.9696583"><ele>782.0</ele><time>2026-05-01T09:30:06.256Z</time></trkpt><trkpt lat="45.1124667" lon="6.9695483"><ele>782.0</ele><time>2026-05-01T09:30:07.255Z</time></trkpt><trkpt lat="45.11229" lon="6.9694533"><ele>788.0</ele><time>2026-05-01T09:30:08.255Z</time></trkpt><trkpt lat="45.1121567" lon="6.9693333"><ele>794.0</ele><time>2026-05-01T09:30:09.256Z</time></trkpt><trkpt lat="45.112035" lon="6.969195"><ele>800.0</ele><time>2026-05-01T09:30:10.256Z</time></trkpt><trkpt lat="45.111925" lon="6.969"><ele>800.0</ele><time>2026-05-01T09:30:11.256Z</time></trkpt><trkpt lat="45.1118383" lon="6.9687933"><ele>800.0</ele><time>2026-05-01T09:30:12.256Z</time></trkpt><trkpt lat="45.1117733" lon="6.9685733"><ele>800.0</ele><time>2026-05-01T09:30:13.255Z</time></trkpt><trkpt lat="45.111755" lon="6.9683067"><ele>800.0</ele><time>2026-05-01T09:30:14.255Z</time></trkpt><trkpt lat="45.11185" lon="6.9679983"><ele>800.0</ele><time>2026-05-01T09:30:15.256Z</time></trkpt><trkpt lat="45.1118717" lon="6.96772"><ele>800.0</ele><time>2026-05-01T09:30:16.256Z</time></trkpt><trkpt lat="45.1118733" lon="6.9674183"><ele>800.0</ele><time>2026-05-01T09:30:17.255Z</time></trkpt><trkpt lat="45.1118883" lon="6.9671133"><ele>800.0</ele><time>2026-05-01T09:30:18.256Z</time></trkpt><trkpt lat="45.111895" lon="6.9668183"><ele>800.0</ele><time>2026-05-01T09:30:19.256Z</time></trkpt><trkpt lat="45.1119183" lon="6.9665333"><ele>798.0</ele><time>2026-05-01T09:30:20.255Z</time></trkpt><trkpt lat="45.1119017" lon="6.9662783"><ele>796.0</ele><time>2026-05-01T09:30:21.256Z</time></trkpt><trkpt lat="45.11189" lon="6.9660433"><ele>794.0</ele><time>2026-05-01T09:30:22.256Z</time></trkpt><trkpt lat="45.11186" lon="6.9658067"><ele>789.6666666666667</ele><time>2026-05-01T09:30:23.256Z</time></trkpt><trkpt lat="45.1118117" lon="6.9656017"><ele>785.3333333333333</ele><time>2026-05-01T09:30:24.256Z</time></trkpt><trkpt lat="45.1117383" lon="6.9653983"><ele>781.0</ele><time>2026-05-01T09:30:25.256Z</time></trkpt><trkpt lat="45.111625" lon="6.965225"><ele>785.3333333333333</ele><time>2026-05-01T09:30:26.255Z</time></trkpt><trkpt lat="45.1115067" lon="6.9650317"><ele>789.6666666666667</ele><time>2026-05-01T09:30:27.255Z</time></trkpt><trkpt lat="45.1113433" lon="6.9648517"><ele>794.0</ele><time>2026-05-01T09:30:28.255Z</time></trkpt><trkpt lat="45.11117" lon="6.9646783"><ele>794.0</ele><time>2026-05-01T09:30:29.256Z</time></trkpt><trkpt lat="45.111035" lon="6.9644767"><ele>794.0</ele><time>2026-05-01T09:30:30.256Z</time></trkpt><trkpt lat="45.1108917" lon="6.964285"><ele>794.0</ele><time>2026-05-01T09:30:31.256Z</time></trkpt><trkpt lat="45.1107533" lon="6.9640917"><ele>799.3333333333334</ele><time>2026-05-01T09:30:32.256Z</time></trkpt><trkpt lat="45.1106217" lon="6.9639"><ele>804.6666666666667</ele><time>2026-05-01T09:30:33.256Z</time></trkpt><trkpt lat="45.1104817" lon="6.9637467"><ele>810.0</ele><time>2026-05-01T09:30:34.256Z</time></trkpt><trkpt lat="45.1103583" lon="6.96355"><ele>810.0</ele><time>2026-05-01T09:30:35.255Z</time></trkpt><trkpt lat="45.11025" lon="6.9633733"><ele>810.0</ele><time>2026-05-01T09:30:36.256Z</time></trkpt><trkpt lat="45.110145" lon="6.9631617"><ele>810.0</ele><time>2026-05-01T09:30:37.256Z</time></trkpt><trkpt lat="45.1100417" lon="6.9629133"><ele>812.0</ele><time>2026-05-01T09:30:38.255Z</time></trkpt><trkpt lat="45.1099433" lon="6.9626567"><ele>814.0</ele><time>2026-05-01T09:30:39.256Z</time></trkpt><trkpt lat="45.109865" lon="6.9624633"><ele>816.0</ele><time>2026-05-01T09:30:40.256Z</time></trkpt><trkpt lat="45.10978" lon="6.9622917"><ele>816.0</ele><time>2026-05-01T09:30:41.256Z</time></trkpt><trkpt lat="45.1096867" lon="6.9621067"><ele>816.0</ele><time>2026-05-01T09:30:42.256Z</time></trkpt><trkpt lat="45.1095833" lon="6.9618917"><ele>816.0</ele><time>2026-05-01T09:30:43.256Z</time></trkpt><trkpt lat="45.1094817" lon="6.961675"><ele>810.6666666666667</ele><time>2026-05-01T09:30:44.255Z</time></trkpt><trkpt lat="45.1093767" lon="6.96145"><ele>805.3333333333334</ele><time>2026-05-01T09:30:45.256Z</time></trkpt><trkpt lat="45.109285" lon="6.9612133"><ele>800.0</ele><time>2026-05-01T09:30:46.255Z</time></trkpt><trkpt lat="45.1092083" lon="6.9609517"><ele>806.3333333333334</ele><time>2026-05-01T09:30:47.256Z</time></trkpt><trkpt lat="45.1091283" lon="6.960705"><ele>812.6666666666667</ele><time>2026-05-01T09:30:48.256Z</time></trkpt><trkpt lat="45.109045" lon="6.960485"><ele>819.0</ele><time>2026-05-01T09:30:49.255Z</time></trkpt><trkpt lat="45.1089367" lon="6.960275"><ele>819.0</ele><time>2026-05-01T09:30:50.256Z</time></trkpt><trkpt lat="45.10885" lon="6.960075"><ele>819.0</ele><time>2026-05-01T09:30:51.256Z</time></trkpt><trkpt lat="45.10876" lon="6.9598767"><ele>819.0</ele><time>2026-05-01T09:30:52.256Z</time></trkpt><trkpt lat="45.108675" lon="6.9596833"><ele>812.0</ele><time>2026-05-01T09:30:53.256Z</time></trkpt><trkpt lat="45.1086067" lon="6.9594783"><ele>805.0</ele><time>2026-05-01T09:30:54.256Z</time></trkpt><trkpt lat="45.1085567" lon="6.9592683"><ele>798.0</ele><time>2026-05-01T09:30:55.255Z</time></trkpt><trkpt lat="45.10853" lon="6.9590467"><ele>793.6666666666667</ele><time>2026-05-01T09:30:56.256Z</time></trkpt><trkpt lat="45.10856" lon="6.9587983"><ele>789.3333333333334</ele><time>2026-05-01T09:30:57.255Z</time></trkpt><trkpt lat="45.1085567" lon="6.9585633"><ele>785.0</ele><time>2026-05-01T09:30:58.255Z</time></trkpt><trkpt lat="45.1085967" lon="6.9583017"><ele>782.6666666666667</ele><time>2026-05-01T09:30:59.256Z</time></trkpt><trkpt lat="45.1086267" lon="6.9580367"><ele>780.3333333333333</ele><time>2026-05-01T09:31:00.255Z</time></trkpt><trkpt lat="45.108625" lon="6.957765"><ele>778.0</ele><time>2026-05-01T09:31:01.256Z</time></trkpt><trkpt lat="45.10861" lon="6.9574867"><ele>776.3333333333333</ele><time>2026-05-01T09:31:02.256Z</time></trkpt><trkpt lat="45.1085683" lon="6.9572233"><ele>774.6666666666667</ele><time>2026-05-01T09:31:03.256Z</time></trkpt><trkpt lat="45.1085033" lon="6.9569683"><ele>773.0</ele><time>2026-05-01T09:31:04.256Z</time></trkpt><trkpt lat="45.1084117" lon="6.956725"><ele>769.6666666666667</ele><time>2026-05-01T09:31:05.256Z</time></trkpt><trkpt lat="45.1083267" lon="6.956455"><ele>766.3333333333334</ele><time>2026-05-01T09:31:06.256Z</time></trkpt><trkpt lat="45.1082317" lon="6.95617"><ele>763.0</ele><time>2026-05-01T09:31:07.256Z</time></trkpt><trkpt lat="45.1081317" lon="6.95587"><ele>753.5</ele><time>2026-05-01T09:31:08.256Z</time></trkpt><trkpt lat="45.1080267" lon="6.955555"><ele>744.0</ele><time>2026-05-01T09:31:09.256Z</time></trkpt><trkpt lat="45.1079283" lon="6.955225"><ele>741.0</ele><time>2026-05-01T09:31:10.256Z</time></trkpt><trkpt lat="45.1078367" lon="6.9548833"><ele>738.0</ele><time>2026-05-01T09:31:11.256Z</time></trkpt><trkpt lat="45.1077417" lon="6.95454"><ele>738.0</ele><time>2026-05-01T09:31:12.255Z</time></trkpt><trkpt lat="45.107645" lon="6.9542233"><ele>738.0</ele><time>2026-05-01T09:31:13.255Z</time></trkpt><trkpt lat="45.10755" lon="6.9539017"><ele>739.0</ele><time>2026-05-01T09:31:14.256Z</time></trkpt><trkpt lat="45.1074583" lon="6.9535967"><ele>740.0</ele><time>2026-05-01T09:31:15.256Z</time></trkpt><trkpt lat="45.1073733" lon="6.95331"><ele>740.0</ele><time>2026-05-01T09:31:16.256Z</time></trkpt><trkpt lat="45.1073167" lon="6.95303"><ele>740.0</ele><time>2026-05-01T09:31:17.256Z</time></trkpt><trkpt lat="45.1072633" lon="6.95277"><ele>740.0</ele><time>2026-05-01T09:31:18.256Z</time></trkpt><trkpt lat="45.1072233" lon="6.9525033"><ele>743.6666666666666</ele><time>2026-05-01T09:31:19.255Z</time></trkpt><trkpt lat="45.10718" lon="6.9522433"><ele>747.3333333333334</ele><time>2026-05-01T09:31:20.256Z</time></trkpt><trkpt lat="45.1071183" lon="6.9519983"><ele>751.0</ele><time>2026-05-01T09:31:21.256Z</time></trkpt><trkpt lat="45.1070567" lon="6.95179"><ele>754.25</ele><time>2026-05-01T09:31:22.255Z</time></trkpt><trkpt lat="45.107005" lon="6.9515917"><ele>757.5</ele><time>2026-05-01T09:31:23.256Z</time></trkpt><trkpt lat="45.1069333" lon="6.9514133"><ele>760.75</ele><time>2026-05-01T09:31:24.256Z</time></trkpt><trkpt lat="45.1068583" lon="6.9512317"><ele>764.0</ele><time>2026-05-01T09:31:25.255Z</time></trkpt><trkpt lat="45.1067783" lon="6.9510683"><ele>764.0</ele><time>2026-05-01T09:31:26.256Z</time></trkpt><trkpt lat="45.10673" lon="6.950885"><ele>764.0</ele><time>2026-05-01T09:31:27.255Z</time></trkpt><trkpt lat="45.106705" lon="6.9506983"><ele>764.0</ele><time>2026-05-01T09:31:28.256Z</time></trkpt><trkpt lat="45.10666" lon="6.950515"><ele>764.0</ele><time>2026-05-01T09:31:29.255Z</time></trkpt><trkpt lat="45.1066317" lon="6.9503283"><ele>761.75</ele><time>2026-05-01T09:31:30.256Z</time></trkpt><trkpt lat="45.1066017" lon="6.9501333"><ele>759.5</ele><time>2026-05-01T09:31:31.256Z</time></trkpt><trkpt lat="45.1065667" lon="6.9499433"><ele>757.25</ele><time>2026-05-01T09:31:32.256Z</time></trkpt><trkpt lat="45.1065317" lon="6.949785"><ele>755.0</ele><time>2026-05-01T09:31:33.256Z</time></trkpt><trkpt lat="45.1065083" lon="6.9496283"><ele>755.0</ele><time>2026-05-01T09:31:34.256Z</time></trkpt><trkpt lat="45.1064683" lon="6.9494833"><ele>755.0</ele><time>2026-05-01T09:31:35.256Z</time></trkpt><trkpt lat="45.1064267" lon="6.94936"><ele>755.0</ele><time>2026-05-01T09:31:36.255Z</time></trkpt><trkpt lat="45.1063783" lon="6.94928"><ele>755.0</ele><time>2026-05-01T09:31:37.255Z</time></trkpt><trkpt lat="45.1063233" lon="6.9492067"><ele>755.0</ele><time>2026-05-01T09:31:38.256Z</time></trkpt><trkpt lat="45.1062367" lon="6.9491533"><ele>758.4</ele><time>2026-05-01T09:31:39.256Z</time></trkpt><trkpt lat="45.1061733" lon="6.9490717"><ele>761.8</ele><time>2026-05-01T09:31:40.256Z</time></trkpt><trkpt lat="45.1061283" lon="6.94896"><ele>765.2</ele><time>2026-05-01T09:31:41.255Z</time></trkpt><trkpt lat="45.10608" lon="6.948835"><ele>768.6</ele><time>2026-05-01T09:31:42.256Z</time></trkpt><trkpt lat="45.106025" lon="6.9486817"><ele>772.0</ele><time>2026-05-01T09:31:43.255Z</time></trkpt><trkpt lat="45.10599" lon="6.94853"><ele>772.0</ele><time>2026-05-01T09:31:44.256Z</time></trkpt><trkpt lat="45.1059683" lon="6.9483767"><ele>772.0</ele><time>2026-05-01T09:31:45.256Z</time></trkpt><trkpt lat="45.1059417" lon="6.948235"><ele>772.0</ele><time>2026-05-01T09:31:46.256Z</time></trkpt><trkpt lat="45.1059317" lon="6.9480917"><ele>772.0</ele><time>2026-05-01T09:31:47.255Z</time></trkpt><trkpt lat="45.1059267" lon="6.9479533"><ele>772.0</ele><time>2026-05-01T09:31:48.255Z</time></trkpt><trkpt lat="45.1058983" lon="6.9478017"><ele>770.25</ele><time>2026-05-01T09:31:49.256Z</time></trkpt><trkpt lat="45.1058767" lon="6.9476517"><ele>768.5</ele><time>2026-05-01T09:31:50.256Z</time></trkpt><trkpt lat="45.105835" lon="6.94752"><ele>766.75</ele><time>2026-05-01T09:31:51.256Z</time></trkpt><trkpt lat="45.10576" lon="6.9473617"><ele>765.0</ele><time>2026-05-01T09:31:52.256Z</time></trkpt><trkpt lat="45.1056867" lon="6.947205"><ele>765.0</ele><time>2026-05-01T09:31:53.256Z</time></trkpt><trkpt lat="45.1056317" lon="6.9470417"><ele>765.0</ele><time>2026-05-01T09:31:54.256Z</time></trkpt><trkpt lat="45.1055583" lon="6.9468833"><ele>765.0</ele><time>2026-05-01T09:31:55.256Z</time></trkpt><trkpt lat="45.1054817" lon="6.9467267"><ele>765.0</ele><time>2026-05-01T09:31:56.255Z</time></trkpt><trkpt lat="45.1053933" lon="6.9465583"><ele>771.5</ele><time>2026-05-01T09:31:57.255Z</time></trkpt><trkpt lat="45.1053033" lon="6.9464017"><ele>778.0</ele><time>2026-05-01T09:31:58.256Z</time></trkpt><trkpt lat="45.105225" lon="6.946255"><ele>784.5</ele><time>2026-05-01T09:31:59.256Z</time></trkpt><trkpt lat="45.10514" lon="6.94612"><ele>791.0</ele><time>2026-05-01T09:32:00.256Z</time></trkpt><trkpt lat="45.1050517" lon="6.94602"><ele>791.0</ele><time>2026-05-01T09:32:01.255Z</time></trkpt><trkpt lat="45.10496" lon="6.9459333"><ele>791.0</ele><time>2026-05-01T09:32:02.255Z</time></trkpt><trkpt lat="45.104865" lon="6.945835"><ele>791.0</ele><time>2026-05-01T09:32:03.256Z</time></trkpt><trkpt lat="45.1047667" lon="6.94573"><ele>791.0</ele><time>2026-05-01T09:32:04.256Z</time></trkpt><trkpt lat="45.104635" lon="6.9456167"><ele>789.6666666666667</ele><time>2026-05-01T09:32:05.256Z</time></trkpt><trkpt lat="45.1045183" lon="6.945455"><ele>788.3333333333333</ele><time>2026-05-01T09:32:06.256Z</time></trkpt><trkpt lat="45.10439" lon="6.9453083"><ele>787.0</ele><time>2026-05-01T09:32:07.256Z</time></trkpt><trkpt lat="45.1042817" lon="6.9451067"><ele>786.0</ele><time>2026-05-01T09:32:08.256Z</time></trkpt><trkpt lat="45.1041683" lon="6.9448933"><ele>785.0</ele><time>2026-05-01T09:32:09.256Z</time></trkpt><trkpt lat="45.1040467" lon="6.9446783"><ele>784.0</ele><time>2026-05-01T09:32:10.256Z</time></trkpt><trkpt lat="45.103935" lon="6.9444633"><ele>784.0</ele><time>2026-05-01T09:32:11.256Z</time></trkpt><trkpt lat="45.1038083" lon="6.94426"><ele>784.0</ele><time>2026-05-01T09:32:12.256Z</time></trkpt><trkpt lat="45.10368" lon="6.9440567"><ele>784.0</ele><time>2026-05-01T09:32:13.256Z</time></trkpt><trkpt lat="45.1035467" lon="6.94385"><ele>791.0</ele><time>2026-05-01T09:32:14.256Z</time></trkpt><trkpt lat="45.1034333" lon="6.9436167"><ele>798.0</ele><time>2026-05-01T09:32:15.256Z</time></trkpt><trkpt lat="45.103315" lon="6.9433617"><ele>805.0</ele><time>2026-05-01T09:32:16.256Z</time></trkpt><trkpt lat="45.1031917" lon="6.9431217"><ele>805.0</ele><time>2026-05-01T09:32:17.255Z</time></trkpt><trkpt lat="45.1030767" lon="6.9428867"><ele>805.0</ele><time>2026-05-01T09:32:18.255Z</time></trkpt><trkpt lat="45.1029717" lon="6.9426717"><ele>805.0</ele><time>2026-05-01T09:32:19.256Z</time></trkpt><trkpt lat="45.1028767" lon="6.9424717"><ele>809.6666666666666</ele><time>2026-05-01T09:32:20.256Z</time></trkpt><trkpt lat="45.1027683" lon="6.9423033"><ele>814.3333333333333</ele><time>2026-05-01T09:32:21.255Z</time></trkpt><trkpt lat="45.1026783" lon="6.9421267"><ele>819.0</ele><time>2026-05-01T09:32:22.256Z</time></trkpt><trkpt lat="45.1026117" lon="6.9419467"><ele>819.0</ele><time>2026-05-01T09:32:23.256Z</time></trkpt><trkpt lat="45.1025417" lon="6.9417483"><ele>819.0</ele><time>2026-05-01T09:32:24.256Z</time></trkpt><trkpt lat="45.1025017" lon="6.941535"><ele>819.0</ele><time>2026-05-01T09:32:25.256Z</time></trkpt><trkpt lat="45.102485" lon="6.9412667"><ele>820.6666666666667</ele><time>2026-05-01T09:32:26.256Z</time></trkpt><trkpt lat="45.1024533" lon="6.941005"><ele>822.3333333333334</ele><time>2026-05-01T09:32:27.255Z</time></trkpt><trkpt lat="45.1024283" lon="6.9407233"><ele>824.0</ele><time>2026-05-01T09:32:28.256Z</time></trkpt><trkpt lat="45.1024117" lon="6.940465"><ele>824.0</ele><time>2026-05-01T09:32:29.256Z</time></trkpt><trkpt lat="45.1023883" lon="6.94017"><ele>824.0</ele><time>2026-05-01T09:32:30.256Z</time></trkpt><trkpt lat="45.1023517" lon="6.939875"><ele>824.0</ele><time>2026-05-01T09:32:31.256Z</time></trkpt><trkpt lat="45.10231" lon="6.939605"><ele>828.0</ele><time>2026-05-01T09:32:32.255Z</time></trkpt><trkpt lat="45.1022667" lon="6.9393483"><ele>832.0</ele><time>2026-05-01T09:32:33.256Z</time></trkpt><trkpt lat="45.1022117" lon="6.939095"><ele>836.0</ele><time>2026-05-01T09:32:34.256Z</time></trkpt><trkpt lat="45.1021583" lon="6.9388583"><ele>839.0</ele><time>2026-05-01T09:32:35.256Z</time></trkpt><trkpt lat="45.1020783" lon="6.9386333"><ele>842.0</ele><time>2026-05-01T09:32:36.255Z</time></trkpt><trkpt lat="45.1020267" lon="6.938435"><ele>845.0</ele><time>2026-05-01T09:32:37.255Z</time></trkpt><trkpt lat="45.101955" lon="6.9382483"><ele>846.3333333333334</ele><time>2026-05-01T09:32:38.256Z</time></trkpt><trkpt lat="45.1019" lon="6.93804"><ele>847.6666666666667</ele><time>2026-05-01T09:32:39.255Z</time></trkpt><trkpt lat="45.1018583" lon="6.9378367"><ele>849.0</ele><time>2026-05-01T09:32:40.256Z</time></trkpt><trkpt lat="45.1018333" lon="6.9376133"><ele>850.0</ele><time>2026-05-01T09:32:41.256Z</time></trkpt><trkpt lat="45.1018" lon="6.9373783"><ele>851.0</ele><time>2026-05-01T09:32:42.256Z</time></trkpt><trkpt lat="45.1018233" lon="6.937145"><ele>852.0</ele><time>2026-05-01T09:32:43.256Z</time></trkpt><trkpt lat="45.1018733" lon="6.9368633"><ele>853.3333333333333</ele><time>2026-05-01T09:32:44.256Z</time></trkpt><trkpt lat="45.1019083" lon="6.936595"><ele>854.6666666666666</ele><time>2026-05-01T09:32:45.256Z</time></trkpt><trkpt lat="45.1018767" lon="6.93637"><ele>856.0</ele><time>2026-05-01T09:32:46.255Z</time></trkpt><trkpt lat="45.1018417" lon="6.936115"><ele>857.0</ele><time>2026-05-01T09:32:47.256Z</time></trkpt><trkpt lat="45.1017867" lon="6.9358167"><ele>858.0</ele><time>2026-05-01T09:32:48.255Z</time></trkpt><trkpt lat="45.10174" lon="6.9355583"><ele>859.0</ele><time>2026-05-01T09:32:49.256Z</time></trkpt><trkpt lat="45.101675" lon="6.935305"><ele>858.6666666666666</ele><time>2026-05-01T09:32:50.255Z</time></trkpt><trkpt lat="45.1015117" lon="6.93508"><ele>858.3333333333333</ele><time>2026-05-01T09:32:51.255Z</time></trkpt><trkpt lat="45.1013783" lon="6.9348383"><ele>858.0</ele><time>2026-05-01T09:32:52.256Z</time></trkpt><trkpt lat="45.1012167" lon="6.93464"><ele>860.0</ele><time>2026-05-01T09:32:53.255Z</time></trkpt><trkpt lat="45.101105" lon="6.934405"><ele>862.0</ele><time>2026-05-01T09:32:54.256Z</time></trkpt><trkpt lat="45.1009967" lon="6.934215"><ele>864.0</ele><time>2026-05-01T09:32:55.255Z</time></trkpt><trkpt lat="45.1009233" lon="6.9340133"><ele>864.0</ele><time>2026-05-01T09:32:56.255Z</time></trkpt><trkpt lat="45.1008483" lon="6.933805"><ele>864.0</ele><time>2026-05-01T09:32:57.256Z</time></trkpt><trkpt lat="45.100785" lon="6.9335767"><ele>864.0</ele><time>2026-05-01T09:32:58.256Z</time></trkpt><trkpt lat="45.1007383" lon="6.93332"><ele>862.6666666666667</ele><time>2026-05-01T09:32:59.255Z</time></trkpt><trkpt lat="45.1006983" lon="6.9330567"><ele>861.3333333333334</ele><time>2026-05-01T09:33:00.256Z</time></trkpt><trkpt lat="45.100645" lon="6.9328033"><ele>860.0</ele><time>2026-05-01T09:33:01.256Z</time></trkpt><trkpt lat="45.1005817" lon="6.932565"><ele>862.6666666666667</ele><time>2026-05-01T09:33:02.256Z</time></trkpt><trkpt lat="45.1004983" lon="6.9323483"><ele>865.3333333333333</ele><time>2026-05-01T09:33:03.256Z</time></trkpt><trkpt lat="45.1004067" lon="6.9321383"><ele>868.0</ele><time>2026-05-01T09:33:04.256Z</time></trkpt><trkpt lat="45.1002983" lon="6.931955"><ele>868.0</ele><time>2026-05-01T09:33:05.255Z</time></trkpt><trkpt lat="45.100175" lon="6.9317817"><ele>868.0</ele><time>2026-05-01T09:33:06.256Z</time></trkpt><trkpt lat="45.10002" lon="6.9316067"><ele>868.0</ele><time>2026-05-01T09:33:07.255Z</time></trkpt><trkpt lat="45.0998533" lon="6.931425"><ele>867.5</ele><time>2026-05-01T09:33:08.256Z</time></trkpt><trkpt lat="45.09966" lon="6.9312483"><ele>867.0</ele><time>2026-05-01T09:33:09.256Z</time></trkpt><trkpt lat="45.0994517" lon="6.9310433"><ele>879.0</ele><time>2026-05-01T09:33:10.256Z</time></trkpt><trkpt lat="45.0992917" lon="6.9308017"><ele>891.0</ele><time>2026-05-01T09:33:11.256Z</time></trkpt><trkpt lat="45.0991383" lon="6.9305617"><ele>887.6666666666667</ele><time>2026-05-01T09:33:12.255Z</time></trkpt><trkpt lat="45.09901" lon="6.930295"><ele>884.3333333333334</ele><time>2026-05-01T09:33:13.255Z</time></trkpt><trkpt lat="45.0989117" lon="6.9300167"><ele>881.0</ele><time>2026-05-01T09:33:14.256Z</time></trkpt><trkpt lat="45.0988017" lon="6.9297567"><ele>881.0</ele><time>2026-05-01T09:33:15.256Z</time></trkpt><trkpt lat="45.09871" lon="6.9294817"><ele>881.0</ele><time>2026-05-01T09:33:16.255Z</time></trkpt><trkpt lat="45.0986217" lon="6.9292133"><ele>881.0</ele><time>2026-05-01T09:33:17.255Z</time></trkpt><trkpt lat="45.0985267" lon="6.92895"><ele>882.0</ele><time>2026-05-01T09:33:18.255Z</time></trkpt><trkpt lat="45.09843" lon="6.928685"><ele>883.0</ele><time>2026-05-01T09:33:19.256Z</time></trkpt><trkpt lat="45.0983367" lon="6.9284267"><ele>884.0</ele><time>2026-05-01T09:33:20.256Z</time></trkpt><trkpt lat="45.0982433" lon="6.9281717"><ele>884.0</ele><time>2026-05-01T09:33:21.256Z</time></trkpt><trkpt lat="45.09814" lon="6.9279483"><ele>884.0</ele><time>2026-05-01T09:33:22.256Z</time></trkpt><trkpt lat="45.0980467" lon="6.9277317"><ele>884.0</ele><time>2026-05-01T09:33:23.256Z</time></trkpt><trkpt lat="45.0979533" lon="6.9275283"><ele>886.5</ele><time>2026-05-01T09:33:24.256Z</time></trkpt><trkpt lat="45.0978667" lon="6.92735"><ele>889.0</ele><time>2026-05-01T09:33:25.256Z</time></trkpt><trkpt lat="45.0977883" lon="6.9271917"><ele>891.5</ele><time>2026-05-01T09:33:26.256Z</time></trkpt><trkpt lat="45.097715" lon="6.92704"><ele>894.0</ele><time>2026-05-01T09:33:27.255Z</time></trkpt><trkpt lat="45.0976267" lon="6.9269033"><ele>894.0</ele><time>2026-05-01T09:33:28.256Z</time></trkpt><trkpt lat="45.09754" lon="6.9267833"><ele>894.0</ele><time>2026-05-01T09:33:29.256Z</time></trkpt><trkpt lat="45.0974417" lon="6.9266883"><ele>894.0</ele><time>2026-05-01T09:33:30.256Z</time></trkpt><trkpt lat="45.097335" lon="6.9265983"><ele>894.0</ele><time>2026-05-01T09:33:31.256Z</time></trkpt><trkpt lat="45.0972517" lon="6.9265167"><ele>894.0</ele><time>2026-05-01T09:33:32.255Z</time></trkpt><trkpt lat="45.097145" lon="6.9264633"><ele>894.0</ele><time>2026-05-01T09:33:33.256Z</time></trkpt><trkpt lat="45.097" lon="6.9264483"><ele>894.0</ele><time>2026-05-01T09:33:34.256Z</time></trkpt><trkpt lat="45.0968517" lon="6.926445"><ele>894.0</ele><time>2026-05-01T09:33:35.255Z</time></trkpt><trkpt lat="45.09669" lon="6.9264267"><ele>885.0</ele><time>2026-05-01T09:33:36.256Z</time></trkpt><trkpt lat="45.0964417" lon="6.9265033"><ele>876.0</ele><time>2026-05-01T09:33:37.256Z</time></trkpt><trkpt lat="45.096245" lon="6.9265133"><ele>876.0</ele><time>2026-05-01T09:33:38.256Z</time></trkpt><trkpt lat="45.0960983" lon="6.9264517"><ele>876.0</ele><time>2026-05-01T09:33:39.256Z</time></trkpt><trkpt lat="45.09593" lon="6.9263733"><ele>876.0</ele><time>2026-05-01T09:33:40.255Z</time></trkpt><trkpt lat="45.09577" lon="6.9262633"><ele>868.0</ele><time>2026-05-01T09:33:41.256Z</time></trkpt><trkpt lat="45.0956" lon="6.92615"><ele>860.0</ele><time>2026-05-01T09:33:42.256Z</time></trkpt><trkpt lat="45.0954333" lon="6.9260433"><ele>852.0</ele><time>2026-05-01T09:33:43.256Z</time></trkpt><trkpt lat="45.095285" lon="6.9259133"><ele>851.0</ele><time>2026-05-01T09:33:44.256Z</time></trkpt><trkpt lat="45.09513" lon="6.925805"><ele>850.0</ele><time>2026-05-01T09:33:45.257Z</time></trkpt><trkpt lat="45.094975" lon="6.9257"><ele>849.0</ele><time>2026-05-01T09:33:46.257Z</time></trkpt><trkpt lat="45.0948133" lon="6.9255983"><ele>849.0</ele><time>2026-05-01T09:33:47.257Z</time></trkpt><trkpt lat="45.0946517" lon="6.9254933"><ele>849.0</ele><time>2026-05-01T09:33:48.257Z</time></trkpt><trkpt lat="45.0944917" lon="6.9253867"><ele>849.0</ele><time>2026-05-01T09:33:49.257Z</time></trkpt><trkpt lat="45.0943283" lon="6.9252817"><ele>849.0</ele><time>2026-05-01T09:33:50.256Z</time></trkpt><trkpt lat="45.0941683" lon="6.92518"><ele>849.0</ele><time>2026-05-01T09:33:51.256Z</time></trkpt><trkpt lat="45.0940083" lon="6.9250733"><ele>849.0</ele><time>2026-05-01T09:33:52.257Z</time></trkpt><trkpt lat="45.09385" lon="6.92496"><ele>845.6666666666667</ele><time>2026-05-01T09:33:53.257Z</time></trkpt><trkpt lat="45.0936917" lon="6.9248467"><ele>842.3333333333334</ele><time>2026-05-01T09:33:54.257Z</time></trkpt><trkpt lat="45.0935733" lon="6.9246167"><ele>839.0</ele><time>2026-05-01T09:33:55.256Z</time></trkpt><trkpt lat="45.0934533" lon="6.9244083"><ele>844.0</ele><time>2026-05-01T09:33:56.257Z</time></trkpt><trkpt lat="45.0933967" lon="6.9239517"><ele>849.0</ele><time>2026-05-01T09:33:57.257Z</time></trkpt><trkpt lat="45.093595" lon="6.9230517"><ele>860.0</ele><time>2026-05-01T09:33:58.257Z</time></trkpt><trkpt lat="45.093675" lon="6.9225983"><ele>871.0</ele><time>2026-05-01T09:33:59.257Z</time></trkpt><trkpt lat="45.0936383" lon="6.92231"><ele>880.0</ele><time>2026-05-01T09:34:00.257Z</time></trkpt><trkpt lat="45.093645" lon="6.9218433"><ele>889.0</ele><time>2026-05-01T09:34:01.256Z</time></trkpt><trkpt lat="45.093585" lon="6.92144"><ele>894.5</ele><time>2026-05-01T09:34:02.257Z</time></trkpt><trkpt lat="45.0934967" lon="6.9209967"><ele>900.0</ele><time>2026-05-01T09:34:03.257Z</time></trkpt><trkpt lat="45.0934083" lon="6.92069"><ele>891.0</ele><time>2026-05-01T09:34:04.257Z</time></trkpt><trkpt lat="45.093315" lon="6.9203817"><ele>882.0</ele><time>2026-05-01T09:34:05.257Z</time></trkpt><trkpt lat="45.093225" lon="6.920095"><ele>887.3333333333333</ele><time>2026-05-01T09:34:06.257Z</time></trkpt><trkpt lat="45.0931167" lon="6.9198167"><ele>892.6666666666666</ele><time>2026-05-01T09:34:07.256Z</time></trkpt><trkpt lat="45.093005" lon="6.91955"><ele>898.0</ele><time>2026-05-01T09:34:08.257Z</time></trkpt><trkpt lat="45.0928867" lon="6.9192833"><ele>906.0</ele><time>2026-05-01T09:34:09.257Z</time></trkpt><trkpt lat="45.0927667" lon="6.9190283"><ele>914.0</ele><time>2026-05-01T09:34:10.257Z</time></trkpt><trkpt lat="45.0926433" lon="6.91878"><ele>922.0</ele><time>2026-05-01T09:34:11.257Z</time></trkpt><trkpt lat="45.0925117" lon="6.9185517"><ele>919.6666666666666</ele><time>2026-05-01T09:34:12.256Z</time></trkpt><trkpt lat="45.0923933" lon="6.9183333"><ele>917.3333333333333</ele><time>2026-05-01T09:34:13.256Z</time></trkpt><trkpt lat="45.0922733" lon="6.9181"><ele>915.0</ele><time>2026-05-01T09:34:14.257Z</time></trkpt><trkpt lat="45.0921617" lon="6.917855"><ele>915.0</ele><time>2026-05-01T09:34:15.256Z</time></trkpt><trkpt lat="45.09203" lon="6.9176133"><ele>915.0</ele><time>2026-05-01T09:34:16.257Z</time></trkpt><trkpt lat="45.0918917" lon="6.9173833"><ele>915.0</ele><time>2026-05-01T09:34:17.257Z</time></trkpt><trkpt lat="45.0917533" lon="6.9171583"><ele>918.3333333333333</ele><time>2026-05-01T09:34:18.257Z</time></trkpt><trkpt lat="45.0916217" lon="6.9169433"><ele>921.6666666666666</ele><time>2026-05-01T09:34:19.257Z</time></trkpt><trkpt lat="45.09149" lon="6.9166817"><ele>925.0</ele><time>2026-05-01T09:34:20.257Z</time></trkpt><trkpt lat="45.0913683" lon="6.9164033"><ele>925.0</ele><time>2026-05-01T09:34:21.257Z</time></trkpt><trkpt lat="45.0912217" lon="6.9161283"><ele>925.0</ele><time>2026-05-01T09:34:22.256Z</time></trkpt><trkpt lat="45.0910483" lon="6.9158717"><ele>920.3333333333333</ele><time>2026-05-01T09:34:23.256Z</time></trkpt><trkpt lat="45.0909083" lon="6.915625"><ele>915.6666666666667</ele><time>2026-05-01T09:34:24.256Z</time></trkpt><trkpt lat="45.09077" lon="6.9153733"><ele>911.0</ele><time>2026-05-01T09:34:25.256Z</time></trkpt><trkpt lat="45.0906467" lon="6.9151083"><ele>929.5</ele><time>2026-05-01T09:34:26.256Z</time></trkpt><trkpt lat="45.09053" lon="6.9148333"><ele>948.0</ele><time>2026-05-01T09:34:27.257Z</time></trkpt><trkpt lat="45.090385" lon="6.914575"><ele>948.0</ele><time>2026-05-01T09:34:28.257Z</time></trkpt><trkpt lat="45.09026" lon="6.9143017"><ele>948.0</ele><time>2026-05-01T09:34:29.256Z</time></trkpt><trkpt lat="45.09014" lon="6.9140067"><ele>944.5</ele><time>2026-05-01T09:34:30.257Z</time></trkpt><trkpt lat="45.090025" lon="6.9137283"><ele>941.0</ele><time>2026-05-01T09:34:31.256Z</time></trkpt><trkpt lat="45.089925" lon="6.9134367"><ele>946.5</ele><time>2026-05-01T09:34:32.257Z</time></trkpt><trkpt lat="45.089825" lon="6.9131433"><ele>952.0</ele><time>2026-05-01T09:34:33.257Z</time></trkpt><trkpt lat="45.0897333" lon="6.9128267"><ele>957.6666666666666</ele><time>2026-05-01T09:34:34.257Z</time></trkpt><trkpt lat="45.089635" lon="6.9125483"><ele>963.3333333333333</ele><time>2026-05-01T09:34:35.257Z</time></trkpt><trkpt lat="45.0895067" lon="6.9123"><ele>969.0</ele><time>2026-05-01T09:34:36.257Z</time></trkpt><trkpt lat="45.0893767" lon="6.91204"><ele>969.0</ele><time>2026-05-01T09:34:37.257Z</time></trkpt><trkpt lat="45.0892467" lon="6.9117867"><ele>969.0</ele><time>2026-05-01T09:34:38.257Z</time></trkpt><trkpt lat="45.0891067" lon="6.911555"><ele>969.0</ele><time>2026-05-01T09:34:39.256Z</time></trkpt><trkpt lat="45.0889667" lon="6.91135"><ele>965.3333333333333</ele><time>2026-05-01T09:34:40.257Z</time></trkpt><trkpt lat="45.088765" lon="6.9112083"><ele>961.6666666666666</ele><time>2026-05-01T09:34:41.256Z</time></trkpt><trkpt lat="45.0886683" lon="6.911045"><ele>958.0</ele><time>2026-05-01T09:34:42.257Z</time></trkpt><trkpt lat="45.0885717" lon="6.9108633"><ele>966.3333333333333</ele><time>2026-05-01T09:34:43.257Z</time></trkpt><trkpt lat="45.08848" lon="6.91069"><ele>974.6666666666667</ele><time>2026-05-01T09:34:44.256Z</time></trkpt><trkpt lat="45.0884133" lon="6.9104917"><ele>983.0</ele><time>2026-05-01T09:34:45.257Z</time></trkpt><trkpt lat="45.088375" lon="6.910275"><ele>985.3333333333334</ele><time>2026-05-01T09:34:46.257Z</time></trkpt><trkpt lat="45.0883733" lon="6.9100333"><ele>987.6666666666667</ele><time>2026-05-01T09:34:47.257Z</time></trkpt><trkpt lat="45.0883683" lon="6.9097867"><ele>990.0</ele><time>2026-05-01T09:34:48.256Z</time></trkpt><trkpt lat="45.0883967" lon="6.9095417"><ele>990.0</ele><time>2026-05-01T09:34:49.257Z</time></trkpt><trkpt lat="45.08841" lon="6.9093017"><ele>990.0</ele><time>2026-05-01T09:34:50.257Z</time></trkpt><trkpt lat="45.0883983" lon="6.90905"><ele>990.0</ele><time>2026-05-01T09:34:51.257Z</time></trkpt><trkpt lat="45.0883883" lon="6.908795"><ele>992.3333333333333</ele><time>2026-05-01T09:34:52.257Z</time></trkpt><trkpt lat="45.0883517" lon="6.9085417"><ele>994.6666666666666</ele><time>2026-05-01T09:34:53.257Z</time></trkpt><trkpt lat="45.0883183" lon="6.9083133"><ele>997.0</ele><time>2026-05-01T09:34:54.257Z</time></trkpt><trkpt lat="45.0882917" lon="6.90812"><ele>997.5</ele><time>2026-05-01T09:34:55.256Z</time></trkpt><trkpt lat="45.0881467" lon="6.9080233"><ele>998.0</ele><time>2026-05-01T09:34:56.257Z</time></trkpt><trkpt lat="45.088105" lon="6.9078667"><ele>998.5</ele><time>2026-05-01T09:34:57.257Z</time></trkpt><trkpt lat="45.0880367" lon="6.9077317"><ele>999.0</ele><time>2026-05-01T09:34:58.257Z</time></trkpt><trkpt lat="45.08798" lon="6.90759"><ele>1001.5</ele><time>2026-05-01T09:34:59.257Z</time></trkpt><trkpt lat="45.087865" lon="6.9074983"><ele>1004.0</ele><time>2026-05-01T09:35:00.256Z</time></trkpt><trkpt lat="45.08771" lon="6.90747"><ele>1006.5</ele><time>2026-05-01T09:35:01.257Z</time></trkpt><trkpt lat="45.0876117" lon="6.9074967"><ele>1009.0</ele><time>2026-05-01T09:35:02.256Z</time></trkpt><trkpt lat="45.0873933" lon="6.9076467"><ele>1009.0</ele><time>2026-05-01T09:35:03.257Z</time></trkpt><trkpt lat="45.0872333" lon="6.9076783"><ele>1009.0</ele><time>2026-05-01T09:35:04.257Z</time></trkpt><trkpt lat="45.087045" lon="6.9077317"><ele>1009.0</ele><time>2026-05-01T09:35:05.257Z</time></trkpt><trkpt lat="45.08684" lon="6.90779"><ele>1009.0</ele><time>2026-05-01T09:35:06.257Z</time></trkpt><trkpt lat="45.08662" lon="6.9078483"><ele>1009.0</ele><time>2026-05-01T09:35:07.257Z</time></trkpt><trkpt lat="45.08643" lon="6.9079217"><ele>1009.0</ele><time>2026-05-01T09:35:08.257Z</time></trkpt><trkpt lat="45.0862483" lon="6.9079833"><ele>1014.3333333333333</ele><time>2026-05-01T09:35:09.257Z</time></trkpt><trkpt lat="45.086095" lon="6.9080717"><ele>1019.6666666666667</ele><time>2026-05-01T09:35:10.257Z</time></trkpt><trkpt lat="45.0859483" lon="6.9081767"><ele>1025.0</ele><time>2026-05-01T09:35:11.256Z</time></trkpt><trkpt lat="45.0857933" lon="6.90827"><ele>1025.6666666666667</ele><time>2026-05-01T09:35:12.256Z</time></trkpt><trkpt lat="45.0856283" lon="6.9083633"><ele>1026.3333333333333</ele><time>2026-05-01T09:35:13.257Z</time></trkpt><trkpt lat="45.08546" lon="6.908435"><ele>1027.0</ele><time>2026-05-01T09:35:14.257Z</time></trkpt><trkpt lat="45.085295" lon="6.9084517"><ele>1023.6666666666666</ele><time>2026-05-01T09:35:15.257Z</time></trkpt><trkpt lat="45.0851133" lon="6.9084617"><ele>1020.3333333333333</ele><time>2026-05-01T09:35:16.256Z</time></trkpt><trkpt lat="45.08494" lon="6.9084433"><ele>1017.0</ele><time>2026-05-01T09:35:17.257Z</time></trkpt><trkpt lat="45.0847717" lon="6.9083983"><ele>1017.0</ele><time>2026-05-01T09:35:18.257Z</time></trkpt><trkpt lat="45.0846117" lon="6.9083633"><ele>1017.0</ele><time>2026-05-01T09:35:19.257Z</time></trkpt><trkpt lat="45.0844717" lon="6.9083317"><ele>1017.0</ele><time>2026-05-01T09:35:20.257Z</time></trkpt><trkpt lat="45.0843567" lon="6.9083083"><ele>1017.0</ele><time>2026-05-01T09:35:21.257Z</time></trkpt><trkpt lat="45.0842517" lon="6.9082617"><ele>1017.0</ele><time>2026-05-01T09:35:22.257Z</time></trkpt><trkpt lat="45.0841383" lon="6.9081967"><ele>1017.0</ele><time>2026-05-01T09:35:23.257Z</time></trkpt><trkpt lat="45.08403" lon="6.9080983"><ele>1017.0</ele><time>2026-05-01T09:35:24.257Z</time></trkpt><trkpt lat="45.08395" lon="6.9080133"><ele>1017.0</ele><time>2026-05-01T09:35:25.257Z</time></trkpt><trkpt lat="45.0838983" lon="6.907935"><ele>1017.0</ele><time>2026-05-01T09:35:26.257Z</time></trkpt><trkpt lat="45.083875" lon="6.9078417"><ele>1017.0</ele><time>2026-05-01T09:35:27.257Z</time></trkpt><trkpt lat="45.0839017" lon="6.9077417"><ele>1017.0</ele><time>2026-05-01T09:35:28.257Z</time></trkpt><trkpt lat="45.0839817" lon="6.9076817"><ele>1017.0</ele><time>2026-05-01T09:35:29.257Z</time></trkpt><trkpt lat="45.084075" lon="6.9076433"><ele>1017.0</ele><time>2026-05-01T09:35:30.256Z</time></trkpt><trkpt lat="45.08421" lon="6.9076383"><ele>1017.0</ele><time>2026-05-01T09:35:31.257Z</time></trkpt><trkpt lat="45.0843667" lon="6.907665"><ele>1017.0</ele><time>2026-05-01T09:35:32.257Z</time></trkpt><trkpt lat="45.084555" lon="6.9077033"><ele>1017.0</ele><time>2026-05-01T09:35:33.256Z</time></trkpt><trkpt lat="45.0847967" lon="6.9077717"><ele>1017.0</ele><time>2026-05-01T09:35:34.256Z</time></trkpt><trkpt lat="45.0850267" lon="6.9078667"><ele>1020.3333333333333</ele><time>2026-05-01T09:35:35.257Z</time></trkpt><trkpt lat="45.0852217" lon="6.9079467"><ele>1023.6666666666666</ele><time>2026-05-01T09:35:36.256Z</time></trkpt><trkpt lat="45.0853783" lon="6.90798"><ele>1027.0</ele><time>2026-05-01T09:35:37.257Z</time></trkpt><trkpt lat="45.0855" lon="6.9080083"><ele>1027.0</ele><time>2026-05-01T09:35:38.257Z</time></trkpt><trkpt lat="45.0856117" lon="6.9080117"><ele>1027.0</ele><time>2026-05-01T09:35:39.256Z</time></trkpt><trkpt lat="45.0857017" lon="6.90798"><ele>1027.0</ele><time>2026-05-01T09:35:40.257Z</time></trkpt><trkpt lat="45.085785" lon="6.9078717"><ele>1027.0</ele><time>2026-05-01T09:35:42.257Z</time></trkpt><trkpt lat="45.0857367" lon="6.907735"><ele>1027.0</ele><time>2026-05-01T09:35:44.256Z</time></trkpt><trkpt lat="45.0856767" lon="6.9076767"><ele>1027.0</ele><time>2026-05-01T09:35:45.257Z</time></trkpt><trkpt lat="45.0855917" lon="6.90759"><ele>1027.0</ele><time>2026-05-01T09:35:46.257Z</time></trkpt><trkpt lat="45.0854733" lon="6.9074983"><ele>1027.0</ele><time>2026-05-01T09:35:47.257Z</time></trkpt><trkpt lat="45.0853467" lon="6.9073833"><ele>1027.0</ele><time>2026-05-01T09:35:48.257Z</time></trkpt><trkpt lat="45.0851933" lon="6.9072683"><ele>1035.5</ele><time>2026-05-01T09:35:49.257Z</time></trkpt><trkpt lat="45.0849833" lon="6.9071283"><ele>1044.0</ele><time>2026-05-01T09:35:50.257Z</time></trkpt><trkpt lat="45.0847567" lon="6.9070167"><ele>1044.0</ele><time>2026-05-01T09:35:51.257Z</time></trkpt><trkpt lat="45.0845083" lon="6.9068517"><ele>1044.0</ele><time>2026-05-01T09:35:52.256Z</time></trkpt><trkpt lat="45.084295" lon="6.9067217"><ele>1041.3333333333333</ele><time>2026-05-01T09:35:53.257Z</time></trkpt><trkpt lat="45.0841367" lon="6.9065917"><ele>1038.6666666666665</ele><time>2026-05-01T09:35:54.257Z</time></trkpt><trkpt lat="45.0839867" lon="6.906465"><ele>1036.0</ele><time>2026-05-01T09:35:55.257Z</time></trkpt><trkpt lat="45.0838283" lon="6.9063233"><ele>1036.0</ele><time>2026-05-01T09:35:56.257Z</time></trkpt><trkpt lat="45.0837017" lon="6.9061817"><ele>1036.0</ele><time>2026-05-01T09:35:57.257Z</time></trkpt><trkpt lat="45.0835883" lon="6.9060133"><ele>1036.0</ele><time>2026-05-01T09:35:58.256Z</time></trkpt><trkpt lat="45.08348" lon="6.905835"><ele>1029.6666666666665</ele><time>2026-05-01T09:35:59.257Z</time></trkpt><trkpt lat="45.0833983" lon="6.9056233"><ele>1023.3333333333333</ele><time>2026-05-01T09:36:00.257Z</time></trkpt><trkpt lat="45.08332" lon="6.905405"><ele>1017.0</ele><time>2026-05-01T09:36:01.256Z</time></trkpt><trkpt lat="45.0832583" lon="6.9051917"><ele>1026.0</ele><time>2026-05-01T09:36:02.257Z</time></trkpt><trkpt lat="45.0831967" lon="6.9049917"><ele>1035.0</ele><time>2026-05-01T09:36:03.257Z</time></trkpt><trkpt lat="45.0831433" lon="6.90482"><ele>1044.0</ele><time>2026-05-01T09:36:04.257Z</time></trkpt><trkpt lat="45.083095" lon="6.9046683"><ele>1053.0</ele><time>2026-05-01T09:36:05.256Z</time></trkpt><trkpt lat="45.0830483" lon="6.904525"><ele>1053.0</ele><time>2026-05-01T09:36:06.257Z</time></trkpt><trkpt lat="45.083" lon="6.9043867"><ele>1053.0</ele><time>2026-05-01T09:36:07.256Z</time></trkpt><trkpt lat="45.0829433" lon="6.9042683"><ele>1053.0</ele><time>2026-05-01T09:36:08.257Z</time></trkpt><trkpt lat="45.08288" lon="6.904165"><ele>1053.0</ele><time>2026-05-01T09:36:09.257Z</time></trkpt><trkpt lat="45.0828233" lon="6.9040733"><ele>1053.0</ele><time>2026-05-01T09:36:10.257Z</time></trkpt><trkpt lat="45.0827583" lon="6.9039817"><ele>1055.8</ele><time>2026-05-01T09:36:12.257Z</time></trkpt><trkpt lat="45.0826867" lon="6.9039333"><ele>1058.6</ele><time>2026-05-01T09:36:15.257Z</time></trkpt><trkpt lat="45.0826117" lon="6.9038717"><ele>1061.4</ele><time>2026-05-01T09:36:17.256Z</time></trkpt><trkpt lat="45.0825017" lon="6.903785"><ele>1064.2</ele><time>2026-05-01T09:36:19.256Z</time></trkpt><trkpt lat="45.08242" lon="6.9037467"><ele>1067.0</ele><time>2026-05-01T09:36:20.257Z</time></trkpt><trkpt lat="45.0823017" lon="6.9037333"><ele>1067.0</ele><time>2026-05-01T09:36:21.257Z</time></trkpt><trkpt lat="45.0821717" lon="6.9037467"><ele>1067.0</ele><time>2026-05-01T09:36:22.257Z</time></trkpt><trkpt lat="45.0820467" lon="6.90378"><ele>1067.0</ele><time>2026-05-01T09:36:23.257Z</time></trkpt><trkpt lat="45.0819033" lon="6.9038417"><ele>1067.0</ele><time>2026-05-01T09:36:24.257Z</time></trkpt><trkpt lat="45.08178" lon="6.9039"><ele>1067.0</ele><time>2026-05-01T09:36:25.257Z</time></trkpt><trkpt lat="45.0816533" lon="6.90391"><ele>1067.0</ele><time>2026-05-01T09:36:26.257Z</time></trkpt><trkpt lat="45.081525" lon="6.9038967"><ele>1067.0</ele><time>2026-05-01T09:36:27.257Z</time></trkpt><trkpt lat="45.081385" lon="6.90385"><ele>1067.0</ele><time>2026-05-01T09:36:28.256Z</time></trkpt><trkpt lat="45.081265" lon="6.903745"><ele>1067.0</ele><time>2026-05-01T09:36:29.257Z</time></trkpt><trkpt lat="45.0811383" lon="6.90365"><ele>1067.0</ele><time>2026-05-01T09:36:30.256Z</time></trkpt><trkpt lat="45.0810067" lon="6.9034683"><ele>1067.0</ele><time>2026-05-01T09:36:31.256Z</time></trkpt><trkpt lat="45.0808583" lon="6.903295"><ele>1058.6666666666667</ele><time>2026-05-01T09:36:32.257Z</time></trkpt><trkpt lat="45.0807167" lon="6.9031417"><ele>1050.3333333333333</ele><time>2026-05-01T09:36:33.257Z</time></trkpt><trkpt lat="45.0805667" lon="6.9029833"><ele>1042.0</ele><time>2026-05-01T09:36:34.257Z</time></trkpt><trkpt lat="45.0804" lon="6.9028083"><ele>1042.0</ele><time>2026-05-01T09:36:35.257Z</time></trkpt><trkpt lat="45.0802367" lon="6.9026567"><ele>1042.0</ele><time>2026-05-01T09:36:36.256Z</time></trkpt><trkpt lat="45.0800733" lon="6.9025217"><ele>1042.0</ele><time>2026-05-01T09:36:37.257Z</time></trkpt><trkpt lat="45.0799083" lon="6.90235"><ele>1039.3333333333333</ele><time>2026-05-01T09:36:38.256Z</time></trkpt><trkpt lat="45.0797483" lon="6.9022183"><ele>1036.6666666666667</ele><time>2026-05-01T09:36:39.257Z</time></trkpt><trkpt lat="45.0796233" lon="6.9020833"><ele>1034.0</ele><time>2026-05-01T09:36:40.257Z</time></trkpt><trkpt lat="45.079535" lon="6.9019283"><ele>1034.0</ele><time>2026-05-01T09:36:41.256Z</time></trkpt><trkpt lat="45.0794433" lon="6.9017717"><ele>1034.0</ele><time>2026-05-01T09:36:42.256Z</time></trkpt><trkpt lat="45.0793633" lon="6.9016183"><ele>1034.0</ele><time>2026-05-01T09:36:43.257Z</time></trkpt><trkpt lat="45.0793067" lon="6.9014433"><ele>1034.0</ele><time>2026-05-01T09:36:44.257Z</time></trkpt><trkpt lat="45.0792533" lon="6.9012833"><ele>1036.2</ele><time>2026-05-01T09:36:45.257Z</time></trkpt><trkpt lat="45.07923" lon="6.901125"><ele>1038.4</ele><time>2026-05-01T09:36:46.257Z</time></trkpt><trkpt lat="45.0791717" lon="6.90103"><ele>1040.6</ele><time>2026-05-01T09:36:47.256Z</time></trkpt><trkpt lat="45.07911" lon="6.9009833"><ele>1042.8</ele><time>2026-05-01T09:36:48.256Z</time></trkpt><trkpt lat="45.0790017" lon="6.901055"><ele>1045.0</ele><time>2026-05-01T09:36:50.257Z</time></trkpt><trkpt lat="45.0789733" lon="6.9011467"><ele>1042.25</ele><time>2026-05-01T09:36:51.257Z</time></trkpt><trkpt lat="45.0789633" lon="6.90129"><ele>1039.5</ele><time>2026-05-01T09:36:52.257Z</time></trkpt><trkpt lat="45.0789833" lon="6.9014683"><ele>1036.75</ele><time>2026-05-01T09:36:53.257Z</time></trkpt><trkpt lat="45.0790483" lon="6.9016983"><ele>1034.0</ele><time>2026-05-01T09:36:54.256Z</time></trkpt><trkpt lat="45.07916" lon="6.9019617"><ele>1034.0</ele><time>2026-05-01T09:36:55.257Z</time></trkpt><trkpt lat="45.07928" lon="6.90221"><ele>1034.0</ele><time>2026-05-01T09:36:56.257Z</time></trkpt><trkpt lat="45.0794583" lon="6.90248"><ele>1030.5</ele><time>2026-05-01T09:36:57.257Z</time></trkpt><trkpt lat="45.07962" lon="6.902735"><ele>1027.0</ele><time>2026-05-01T09:36:58.256Z</time></trkpt><trkpt lat="45.07978" lon="6.902955"><ele>1027.0</ele><time>2026-05-01T09:36:59.257Z</time></trkpt><trkpt lat="45.07993" lon="6.9031367"><ele>1027.0</ele><time>2026-05-01T09:37:00.256Z</time></trkpt><trkpt lat="45.08006" lon="6.9033017"><ele>1027.0</ele><time>2026-05-01T09:37:01.257Z</time></trkpt><trkpt lat="45.0801617" lon="6.9034467"><ele>1028.0</ele><time>2026-05-01T09:37:02.257Z</time></trkpt><trkpt lat="45.0802467" lon="6.9035717"><ele>1029.0</ele><time>2026-05-01T09:37:03.257Z</time></trkpt><trkpt lat="45.080325" lon="6.903675"><ele>1030.0</ele><time>2026-05-01T09:37:04.256Z</time></trkpt><trkpt lat="45.0803567" lon="6.9037817"><ele>1031.0</ele><time>2026-05-01T09:37:05.257Z</time></trkpt><trkpt lat="45.08038" lon="6.9038733"><ele>1032.0</ele><time>2026-05-01T09:37:06.256Z</time></trkpt><trkpt lat="45.0803517" lon="6.9039683"><ele>1032.0</ele><time>2026-05-01T09:37:08.257Z</time></trkpt><trkpt lat="45.08029" lon="6.9039467"><ele>1032.0</ele><time>2026-05-01T09:37:09.257Z</time></trkpt><trkpt lat="45.0802283" lon="6.9038667"><ele>1032.0</ele><time>2026-05-01T09:37:10.257Z</time></trkpt><trkpt lat="45.0800467" lon="6.9036633"><ele>1032.0</ele><time>2026-05-01T09:37:11.256Z</time></trkpt><trkpt lat="45.0799567" lon="6.903475"><ele>1029.5</ele><time>2026-05-01T09:37:12.256Z</time></trkpt><trkpt lat="45.079805" lon="6.9032283"><ele>1027.0</ele><time>2026-05-01T09:37:13.256Z</time></trkpt><trkpt lat="45.07962" lon="6.9029933"><ele>1027.0</ele><time>2026-05-01T09:37:14.257Z</time></trkpt><trkpt lat="45.0794333" lon="6.9027817"><ele>1027.0</ele><time>2026-05-01T09:37:15.256Z</time></trkpt><trkpt lat="45.0792517" lon="6.9026133"><ele>1021.3333333333333</ele><time>2026-05-01T09:37:16.256Z</time></trkpt><trkpt lat="45.0790883" lon="6.9024583"><ele>1015.6666666666667</ele><time>2026-05-01T09:37:17.256Z</time></trkpt><trkpt lat="45.0789467" lon="6.90229"><ele>1010.0</ele><time>2026-05-01T09:37:18.257Z</time></trkpt><trkpt lat="45.0788133" lon="6.9021083"><ele>1010.0</ele><time>2026-05-01T09:37:19.256Z</time></trkpt><trkpt lat="45.078705" lon="6.901875"><ele>1010.0</ele><time>2026-05-01T09:37:20.257Z</time></trkpt><trkpt lat="45.0785933" lon="6.9016567"><ele>1010.0</ele><time>2026-05-01T09:37:21.257Z</time></trkpt><trkpt lat="45.0785267" lon="6.9014183"><ele>1010.6666666666667</ele><time>2026-05-01T09:37:22.256Z</time></trkpt><trkpt lat="45.07849" lon="6.9011617"><ele>1011.3333333333333</ele><time>2026-05-01T09:37:23.256Z</time></trkpt><trkpt lat="45.0784717" lon="6.9008917"><ele>1012.0</ele><time>2026-05-01T09:37:24.256Z</time></trkpt><trkpt lat="45.0784817" lon="6.9006017"><ele>1011.5</ele><time>2026-05-01T09:37:25.256Z</time></trkpt><trkpt lat="45.0785483" lon="6.90028"><ele>1011.0</ele><time>2026-05-01T09:37:26.257Z</time></trkpt><trkpt lat="45.078615" lon="6.89999"><ele>1011.0</ele><time>2026-05-01T09:37:27.257Z</time></trkpt><trkpt lat="45.07874" lon="6.8996883"><ele>1011.0</ele><time>2026-05-01T09:37:28.257Z</time></trkpt><trkpt lat="45.0788483" lon="6.899435"><ele>1008.6666666666667</ele><time>2026-05-01T09:37:29.256Z</time></trkpt><trkpt lat="45.0789833" lon="6.8992167"><ele>1006.3333333333334</ele><time>2026-05-01T09:37:30.256Z</time></trkpt><trkpt lat="45.0790783" lon="6.8990267"><ele>1004.0</ele><time>2026-05-01T09:37:31.257Z</time></trkpt><trkpt lat="45.0791717" lon="6.8988233"><ele>1009.0</ele><time>2026-05-01T09:37:32.256Z</time></trkpt><trkpt lat="45.0792367" lon="6.8986467"><ele>1014.0</ele><time>2026-05-01T09:37:33.256Z</time></trkpt><trkpt lat="45.0793017" lon="6.89849"><ele>1019.0</ele><time>2026-05-01T09:37:34.256Z</time></trkpt><trkpt lat="45.07935" lon="6.8983317"><ele>1024.0</ele><time>2026-05-01T09:37:35.257Z</time></trkpt><trkpt lat="45.0793867" lon="6.8981667"><ele>1024.0</ele><time>2026-05-01T09:37:36.256Z</time></trkpt><trkpt lat="45.0794067" lon="6.8980267"><ele>1024.0</ele><time>2026-05-01T09:37:37.256Z</time></trkpt><trkpt lat="45.0794133" lon="6.8979"><ele>1024.0</ele><time>2026-05-01T09:37:38.257Z</time></trkpt><trkpt lat="45.0794283" lon="6.8977383"><ele>1024.0</ele><time>2026-05-01T09:37:40.256Z</time></trkpt><trkpt lat="45.0793967" lon="6.8975817"><ele>1024.0</ele><time>2026-05-01T09:37:42.256Z</time></trkpt><trkpt lat="45.0793667" lon="6.8974883"><ele>1024.0</ele><time>2026-05-01T09:37:43.257Z</time></trkpt><trkpt lat="45.079355" lon="6.8973733"><ele>1024.0</ele><time>2026-05-01T09:37:44.256Z</time></trkpt><trkpt lat="45.079325" lon="6.8972433"><ele>1024.0</ele><time>2026-05-01T09:37:45.256Z</time></trkpt><trkpt lat="45.079325" lon="6.89711"><ele>1024.0</ele><time>2026-05-01T09:37:46.257Z</time></trkpt><trkpt lat="45.0792817" lon="6.8969033"><ele>1024.0</ele><time>2026-05-01T09:37:47.257Z</time></trkpt><trkpt lat="45.079235" lon="6.8966983"><ele>1024.0</ele><time>2026-05-01T09:37:48.257Z</time></trkpt><trkpt lat="45.0792217" lon="6.89649"><ele>1024.0</ele><time>2026-05-01T09:37:49.257Z</time></trkpt><trkpt lat="45.079215" lon="6.896295"><ele>1024.0</ele><time>2026-05-01T09:37:50.257Z</time></trkpt><trkpt lat="45.0792217" lon="6.8960983"><ele>1024.0</ele><time>2026-05-01T09:37:51.256Z</time></trkpt><trkpt lat="45.0792417" lon="6.8958883"><ele>1026.3333333333333</ele><time>2026-05-01T09:37:52.256Z</time></trkpt><trkpt lat="45.0792717" lon="6.8956883"><ele>1028.6666666666667</ele><time>2026-05-01T09:37:53.257Z</time></trkpt><trkpt lat="45.07931" lon="6.8954717"><ele>1031.0</ele><time>2026-05-01T09:37:54.257Z</time></trkpt><trkpt lat="45.0793283" lon="6.8952633"><ele>1031.3333333333335</ele><time>2026-05-01T09:37:55.257Z</time></trkpt><trkpt lat="45.0793433" lon="6.8950633"><ele>1031.6666666666667</ele><time>2026-05-01T09:37:56.257Z</time></trkpt><trkpt lat="45.0793317" lon="6.8948617"><ele>1032.0</ele><time>2026-05-01T09:37:57.256Z</time></trkpt><trkpt lat="45.0791717" lon="6.8946467"><ele>1026.0</ele><time>2026-05-01T09:37:58.257Z</time></trkpt><trkpt lat="45.0790883" lon="6.89446"><ele>1020.0</ele><time>2026-05-01T09:37:59.257Z</time></trkpt><trkpt lat="45.0789983" lon="6.8942767"><ele>1014.0</ele><time>2026-05-01T09:38:00.257Z</time></trkpt><trkpt lat="45.0789233" lon="6.8941083"><ele>1014.0</ele><time>2026-05-01T09:38:01.257Z</time></trkpt><trkpt lat="45.0788517" lon="6.8939317"><ele>1014.0</ele><time>2026-05-01T09:38:02.256Z</time></trkpt><trkpt lat="45.0787817" lon="6.8937717"><ele>1014.0</ele><time>2026-05-01T09:38:03.257Z</time></trkpt><trkpt lat="45.0787033" lon="6.8936183"><ele>1014.0</ele><time>2026-05-01T09:38:04.257Z</time></trkpt><trkpt lat="45.0786267" lon="6.8934633"><ele>1017.5</ele><time>2026-05-01T09:38:05.256Z</time></trkpt><trkpt lat="45.0785517" lon="6.8932983"><ele>1021.0</ele><time>2026-05-01T09:38:06.257Z</time></trkpt><trkpt lat="45.07846" lon="6.8931383"><ele>1024.5</ele><time>2026-05-01T09:38:07.257Z</time></trkpt><trkpt lat="45.078375" lon="6.892985"><ele>1028.0</ele><time>2026-05-01T09:38:08.257Z</time></trkpt><trkpt lat="45.0782817" lon="6.8928467"><ele>1023.0</ele><time>2026-05-01T09:38:09.256Z</time></trkpt><trkpt lat="45.0782033" lon="6.8927"><ele>1018.0</ele><time>2026-05-01T09:38:10.257Z</time></trkpt><trkpt lat="45.0781267" lon="6.8925517"><ele>1013.0</ele><time>2026-05-01T09:38:11.257Z</time></trkpt><trkpt lat="45.0780517" lon="6.8923983"><ele>1008.0</ele><time>2026-05-01T09:38:12.257Z</time></trkpt><trkpt lat="45.07798" lon="6.892235"><ele>1008.0</ele><time>2026-05-01T09:38:13.256Z</time></trkpt><trkpt lat="45.0779017" lon="6.89205"><ele>1008.0</ele><time>2026-05-01T09:38:14.256Z</time></trkpt><trkpt lat="45.0778233" lon="6.8918483"><ele>1008.0</ele><time>2026-05-01T09:38:15.257Z</time></trkpt><trkpt lat="45.07773" lon="6.89165"><ele>1005.6666666666667</ele><time>2026-05-01T09:38:16.257Z</time></trkpt><trkpt lat="45.0776167" lon="6.89146"><ele>1003.3333333333334</ele><time>2026-05-01T09:38:17.257Z</time></trkpt><trkpt lat="45.07749" lon="6.8912933"><ele>1001.0</ele><time>2026-05-01T09:38:18.256Z</time></trkpt><trkpt lat="45.077375" lon="6.8911167"><ele>1001.0</ele><time>2026-05-01T09:38:19.257Z</time></trkpt><trkpt lat="45.0772567" lon="6.890935"><ele>1001.0</ele><time>2026-05-01T09:38:20.257Z</time></trkpt><trkpt lat="45.0771417" lon="6.8907367"><ele>1001.0</ele><time>2026-05-01T09:38:21.257Z</time></trkpt><trkpt lat="45.0770233" lon="6.89051"><ele>1002.3333333333334</ele><time>2026-05-01T09:38:22.256Z</time></trkpt><trkpt lat="45.0769283" lon="6.8902817"><ele>1003.6666666666667</ele><time>2026-05-01T09:38:23.256Z</time></trkpt><trkpt lat="45.0768467" lon="6.8900483"><ele>1005.0</ele><time>2026-05-01T09:38:24.256Z</time></trkpt><trkpt lat="45.0767533" lon="6.8898"><ele>1005.6666666666667</ele><time>2026-05-01T09:38:25.257Z</time></trkpt><trkpt lat="45.0766317" lon="6.889515"><ele>1006.3333333333334</ele><time>2026-05-01T09:38:26.257Z</time></trkpt><trkpt lat="45.0765183" lon="6.88929"><ele>1007.0</ele><time>2026-05-01T09:38:27.257Z</time></trkpt><trkpt lat="45.0763983" lon="6.8890583"><ele>1008.0</ele><time>2026-05-01T09:38:28.257Z</time></trkpt><trkpt lat="45.0762683" lon="6.8888717"><ele>1009.0</ele><time>2026-05-01T09:38:29.257Z</time></trkpt><trkpt lat="45.0761583" lon="6.888695"><ele>1010.0</ele><time>2026-05-01T09:38:30.257Z</time></trkpt><trkpt lat="45.0760283" lon="6.88854"><ele>1008.0</ele><time>2026-05-01T09:38:31.256Z</time></trkpt><trkpt lat="45.0759283" lon="6.88838"><ele>1006.0</ele><time>2026-05-01T09:38:32.256Z</time></trkpt><trkpt lat="45.075835" lon="6.8882067"><ele>1004.0</ele><time>2026-05-01T09:38:33.257Z</time></trkpt><trkpt lat="45.0757667" lon="6.8880233"><ele>1004.0</ele><time>2026-05-01T09:38:34.257Z</time></trkpt><trkpt lat="45.0757017" lon="6.8878483"><ele>1004.0</ele><time>2026-05-01T09:38:35.256Z</time></trkpt><trkpt lat="45.0756267" lon="6.887685"><ele>1004.0</ele><time>2026-05-01T09:38:36.257Z</time></trkpt><trkpt lat="45.07554" lon="6.8875483"><ele>1004.0</ele><time>2026-05-01T09:38:37.257Z</time></trkpt><trkpt lat="45.07544" lon="6.8874217"><ele>1006.5</ele><time>2026-05-01T09:38:38.256Z</time></trkpt><trkpt lat="45.07535" lon="6.88731"><ele>1009.0</ele><time>2026-05-01T09:38:39.257Z</time></trkpt><trkpt lat="45.07524" lon="6.887195"><ele>1011.5</ele><time>2026-05-01T09:38:40.257Z</time></trkpt><trkpt lat="45.075135" lon="6.8870683"><ele>1014.0</ele><time>2026-05-01T09:38:41.257Z</time></trkpt><trkpt lat="45.075045" lon="6.8869383"><ele>1014.0</ele><time>2026-05-01T09:38:42.256Z</time></trkpt><trkpt lat="45.0749583" lon="6.8867733"><ele>1014.0</ele><time>2026-05-01T09:38:43.257Z</time></trkpt><trkpt lat="45.0748783" lon="6.8866233"><ele>1014.0</ele><time>2026-05-01T09:38:44.257Z</time></trkpt><trkpt lat="45.0748017" lon="6.886475"><ele>1014.0</ele><time>2026-05-01T09:38:45.256Z</time></trkpt><trkpt lat="45.0747017" lon="6.8863367"><ele>1012.5</ele><time>2026-05-01T09:38:46.257Z</time></trkpt><trkpt lat="45.0746033" lon="6.8862"><ele>1011.0</ele><time>2026-05-01T09:38:47.257Z</time></trkpt><trkpt lat="45.0745083" lon="6.8860683"><ele>1009.5</ele><time>2026-05-01T09:38:48.256Z</time></trkpt><trkpt lat="45.074425" lon="6.8859283"><ele>1008.0</ele><time>2026-05-01T09:38:49.257Z</time></trkpt><trkpt lat="45.0743583" lon="6.8858017"><ele>1009.2</ele><time>2026-05-01T09:38:50.257Z</time></trkpt><trkpt lat="45.0742867" lon="6.88569"><ele>1010.4</ele><time>2026-05-01T09:38:51.257Z</time></trkpt><trkpt lat="45.074215" lon="6.8855783"><ele>1011.6000000000001</ele><time>2026-05-01T09:38:52.256Z</time></trkpt><trkpt lat="45.07413" lon="6.8854733"><ele>1012.8000000000001</ele><time>2026-05-01T09:38:53.257Z</time></trkpt><trkpt lat="45.0740417" lon="6.8853867"><ele>1014.0</ele><time>2026-05-01T09:38:54.257Z</time></trkpt><trkpt lat="45.073925" lon="6.8853133"><ele>1014.0</ele><time>2026-05-01T09:38:55.257Z</time></trkpt><trkpt lat="45.07379" lon="6.8852433"><ele>1014.0</ele><time>2026-05-01T09:38:56.256Z</time></trkpt><trkpt lat="45.0736517" lon="6.8851783"><ele>1014.0</ele><time>2026-05-01T09:38:57.256Z</time></trkpt><trkpt lat="45.0735067" lon="6.88512"><ele>1014.0</ele><time>2026-05-01T09:38:58.256Z</time></trkpt><trkpt lat="45.0733683" lon="6.8850733"><ele>1015.75</ele><time>2026-05-01T09:38:59.256Z</time></trkpt><trkpt lat="45.0732233" lon="6.8850283"><ele>1017.5</ele><time>2026-05-01T09:39:00.257Z</time></trkpt><trkpt lat="45.0730883" lon="6.8849767"><ele>1019.25</ele><time>2026-05-01T09:39:01.256Z</time></trkpt><trkpt lat="45.0729617" lon="6.8849383"><ele>1021.0</ele><time>2026-05-01T09:39:02.257Z</time></trkpt><trkpt lat="45.0728333" lon="6.8848817"><ele>1021.0</ele><time>2026-05-01T09:39:03.256Z</time></trkpt><trkpt lat="45.0727083" lon="6.8848467"><ele>1021.0</ele><time>2026-05-01T09:39:04.257Z</time></trkpt><trkpt lat="45.0725917" lon="6.8848017"><ele>1021.0</ele><time>2026-05-01T09:39:05.257Z</time></trkpt><trkpt lat="45.0724783" lon="6.8847583"><ele>1021.0</ele><time>2026-05-01T09:39:06.257Z</time></trkpt><trkpt lat="45.072375" lon="6.8847133"><ele>1019.5</ele><time>2026-05-01T09:39:07.256Z</time></trkpt><trkpt lat="45.0722667" lon="6.88467"><ele>1018.0</ele><time>2026-05-01T09:39:08.257Z</time></trkpt><trkpt lat="45.0721567" lon="6.8846167"><ele>1016.5</ele><time>2026-05-01T09:39:09.257Z</time></trkpt><trkpt lat="45.0720333" lon="6.8845667"><ele>1015.0</ele><time>2026-05-01T09:39:10.257Z</time></trkpt><trkpt lat="45.0719067" lon="6.88452"><ele>1015.0</ele><time>2026-05-01T09:39:11.256Z</time></trkpt><trkpt lat="45.0717783" lon="6.88446"><ele>1015.0</ele><time>2026-05-01T09:39:12.257Z</time></trkpt><trkpt lat="45.071655" lon="6.8844083"><ele>1015.0</ele><time>2026-05-01T09:39:13.256Z</time></trkpt><trkpt lat="45.0715367" lon="6.8843633"><ele>1015.0</ele><time>2026-05-01T09:39:14.256Z</time></trkpt><trkpt lat="45.0714233" lon="6.88432"><ele>1017.75</ele><time>2026-05-01T09:39:15.257Z</time></trkpt><trkpt lat="45.0713067" lon="6.8842567"><ele>1020.5</ele><time>2026-05-01T09:39:16.257Z</time></trkpt><trkpt lat="45.0711767" lon="6.88418"><ele>1023.25</ele><time>2026-05-01T09:39:17.257Z</time></trkpt><trkpt lat="45.0710617" lon="6.88409"><ele>1026.0</ele><time>2026-05-01T09:39:18.257Z</time></trkpt><trkpt lat="45.0709617" lon="6.88399"><ele>1026.0</ele><time>2026-05-01T09:39:19.256Z</time></trkpt><trkpt lat="45.0708533" lon="6.8838583"><ele>1026.0</ele><time>2026-05-01T09:39:20.257Z</time></trkpt><trkpt lat="45.070755" lon="6.8837067"><ele>1026.0</ele><time>2026-05-01T09:39:21.256Z</time></trkpt><trkpt lat="45.0706617" lon="6.8835383"><ele>1026.0</ele><time>2026-05-01T09:39:22.257Z</time></trkpt><trkpt lat="45.0705617" lon="6.8833683"><ele>1025.5</ele><time>2026-05-01T09:39:23.257Z</time></trkpt><trkpt lat="45.0704717" lon="6.8831983"><ele>1025.0</ele><time>2026-05-01T09:39:24.257Z</time></trkpt><trkpt lat="45.07039" lon="6.8830367"><ele>1024.5</ele><time>2026-05-01T09:39:25.256Z</time></trkpt><trkpt lat="45.070315" lon="6.882885"><ele>1024.0</ele><time>2026-05-01T09:39:26.257Z</time></trkpt><trkpt lat="45.0702433" lon="6.8827283"><ele>1026.75</ele><time>2026-05-01T09:39:27.256Z</time></trkpt><trkpt lat="45.0702033" lon="6.8825667"><ele>1029.5</ele><time>2026-05-01T09:39:28.257Z</time></trkpt><trkpt lat="45.0701233" lon="6.8824083"><ele>1032.25</ele><time>2026-05-01T09:39:29.257Z</time></trkpt><trkpt lat="45.07005" lon="6.8822567"><ele>1035.0</ele><time>2026-05-01T09:39:30.257Z</time></trkpt><trkpt lat="45.06997" lon="6.8821167"><ele>1033.25</ele><time>2026-05-01T09:39:31.257Z</time></trkpt><trkpt lat="45.06989" lon="6.8819783"><ele>1031.5</ele><time>2026-05-01T09:39:32.257Z</time></trkpt><trkpt lat="45.0698283" lon="6.8818417"><ele>1029.75</ele><time>2026-05-01T09:39:33.257Z</time></trkpt><trkpt lat="45.0697583" lon="6.881685"><ele>1028.0</ele><time>2026-05-01T09:39:34.257Z</time></trkpt><trkpt lat="45.069715" lon="6.8815433"><ele>1028.0</ele><time>2026-05-01T09:39:35.257Z</time></trkpt><trkpt lat="45.0696783" lon="6.8813983"><ele>1028.0</ele><time>2026-05-01T09:39:36.257Z</time></trkpt><trkpt lat="45.0696433" lon="6.8812567"><ele>1028.0</ele><time>2026-05-01T09:39:37.257Z</time></trkpt><trkpt lat="45.0696133" lon="6.881115"><ele>1028.0</ele><time>2026-05-01T09:39:38.257Z</time></trkpt><trkpt lat="45.0696017" lon="6.88094"><ele>1028.0</ele><time>2026-05-01T09:39:39.257Z</time></trkpt><trkpt lat="45.0695733" lon="6.8807717"><ele>1029.75</ele><time>2026-05-01T09:39:40.257Z</time></trkpt><trkpt lat="45.0695317" lon="6.880595"><ele>1031.5</ele><time>2026-05-01T09:39:41.257Z</time></trkpt><trkpt lat="45.069485" lon="6.8803983"><ele>1033.25</ele><time>2026-05-01T09:39:42.256Z</time></trkpt><trkpt lat="45.0694367" lon="6.8802033"><ele>1035.0</ele><time>2026-05-01T09:39:43.257Z</time></trkpt><trkpt lat="45.0693733" lon="6.8799983"><ele>1035.5</ele><time>2026-05-01T09:39:44.257Z</time></trkpt><trkpt lat="45.0693133" lon="6.8798"><ele>1036.0</ele><time>2026-05-01T09:39:45.257Z</time></trkpt><trkpt lat="45.0692633" lon="6.8796117"><ele>1036.5</ele><time>2026-05-01T09:39:46.257Z</time></trkpt><trkpt lat="45.0692117" lon="6.8794267"><ele>1037.0</ele><time>2026-05-01T09:39:47.256Z</time></trkpt><trkpt lat="45.0691583" lon="6.87924"><ele>1037.25</ele><time>2026-05-01T09:39:48.257Z</time></trkpt><trkpt lat="45.069115" lon="6.8790567"><ele>1037.5</ele><time>2026-05-01T09:39:49.257Z</time></trkpt><trkpt lat="45.06907" lon="6.87888"><ele>1037.75</ele><time>2026-05-01T09:39:50.257Z</time></trkpt><trkpt lat="45.069005" lon="6.8787017"><ele>1038.0</ele><time>2026-05-01T09:39:51.256Z</time></trkpt><trkpt lat="45.0688967" lon="6.8785133"><ele>1036.0</ele><time>2026-05-01T09:39:52.257Z</time></trkpt><trkpt lat="45.068775" lon="6.8783133"><ele>1034.0</ele><time>2026-05-01T09:39:53.256Z</time></trkpt><trkpt lat="45.0686433" lon="6.8781117"><ele>1032.0</ele><time>2026-05-01T09:39:54.257Z</time></trkpt><trkpt lat="45.0684917" lon="6.8779333"><ele>1032.0</ele><time>2026-05-01T09:39:55.257Z</time></trkpt><trkpt lat="45.0683433" lon="6.877765"><ele>1032.0</ele><time>2026-05-01T09:39:56.256Z</time></trkpt><trkpt lat="45.0682" lon="6.8776083"><ele>1032.0</ele><time>2026-05-01T09:39:57.256Z</time></trkpt><trkpt lat="45.0680617" lon="6.8774617"><ele>1030.0</ele><time>2026-05-01T09:39:58.257Z</time></trkpt><trkpt lat="45.06793" lon="6.8773217"><ele>1028.0</ele><time>2026-05-01T09:39:59.257Z</time></trkpt><trkpt lat="45.0677933" lon="6.877175"><ele>1026.0</ele><time>2026-05-01T09:40:00.256Z</time></trkpt><trkpt lat="45.067665" lon="6.8770383"><ele>1026.0</ele><time>2026-05-01T09:40:01.257Z</time></trkpt><trkpt lat="45.067555" lon="6.876905"><ele>1026.0</ele><time>2026-05-01T09:40:02.257Z</time></trkpt><trkpt lat="45.0674517" lon="6.876765"><ele>1026.0</ele><time>2026-05-01T09:40:03.256Z</time></trkpt><trkpt lat="45.0673383" lon="6.8766283"><ele>1026.0</ele><time>2026-05-01T09:40:04.256Z</time></trkpt><trkpt lat="45.0672417" lon="6.8764967"><ele>1026.6666666666667</ele><time>2026-05-01T09:40:05.257Z</time></trkpt><trkpt lat="45.06711" lon="6.876325"><ele>1027.3333333333335</ele><time>2026-05-01T09:40:06.256Z</time></trkpt><trkpt lat="45.0669467" lon="6.8761433"><ele>1028.0</ele><time>2026-05-01T09:40:07.257Z</time></trkpt><trkpt lat="45.0667733" lon="6.87598"><ele>1028.0</ele><time>2026-05-01T09:40:08.257Z</time></trkpt><trkpt lat="45.0665933" lon="6.8758"><ele>1028.0</ele><time>2026-05-01T09:40:09.256Z</time></trkpt><trkpt lat="45.0664567" lon="6.875615"><ele>1028.0</ele><time>2026-05-01T09:40:10.257Z</time></trkpt><trkpt lat="45.0663333" lon="6.8754083"><ele>1028.0</ele><time>2026-05-01T09:40:11.256Z</time></trkpt><trkpt lat="45.06618" lon="6.8752167"><ele>1028.0</ele><time>2026-05-01T09:40:12.256Z</time></trkpt><trkpt lat="45.0660383" lon="6.8750417"><ele>1028.0</ele><time>2026-05-01T09:40:13.257Z</time></trkpt><trkpt lat="45.0659467" lon="6.8749133"><ele>1027.75</ele><time>2026-05-01T09:40:14.257Z</time></trkpt><trkpt lat="45.0658433" lon="6.87479"><ele>1027.5</ele><time>2026-05-01T09:40:15.256Z</time></trkpt><trkpt lat="45.065755" lon="6.8746717"><ele>1027.25</ele><time>2026-05-01T09:40:16.257Z</time></trkpt><trkpt lat="45.0656633" lon="6.87456"><ele>1027.0</ele><time>2026-05-01T09:40:17.257Z</time></trkpt><trkpt lat="45.0655717" lon="6.87444"><ele>1026.6666666666665</ele><time>2026-05-01T09:40:18.256Z</time></trkpt><trkpt lat="45.0654617" lon="6.8743"><ele>1026.3333333333333</ele><time>2026-05-01T09:40:19.257Z</time></trkpt><trkpt lat="45.0653483" lon="6.8741517"><ele>1026.0</ele><time>2026-05-01T09:40:20.257Z</time></trkpt><trkpt lat="45.065245" lon="6.8739867"><ele>1026.0</ele><time>2026-05-01T09:40:21.257Z</time></trkpt><trkpt lat="45.0651333" lon="6.87381"><ele>1026.0</ele><time>2026-05-01T09:40:22.257Z</time></trkpt><trkpt lat="45.06503" lon="6.8736183"><ele>1026.0</ele><time>2026-05-01T09:40:23.257Z</time></trkpt><trkpt lat="45.0649167" lon="6.8734283"><ele>1026.0</ele><time>2026-05-01T09:40:24.257Z</time></trkpt><trkpt lat="45.064795" lon="6.8732233"><ele>1026.0</ele><time>2026-05-01T09:40:25.257Z</time></trkpt><trkpt lat="45.0646567" lon="6.8730033"><ele>1026.0</ele><time>2026-05-01T09:40:26.256Z</time></trkpt><trkpt lat="45.064525" lon="6.8727883"><ele>1025.6666666666667</ele><time>2026-05-01T09:40:27.256Z</time></trkpt><trkpt lat="45.064405" lon="6.8725667"><ele>1025.3333333333335</ele><time>2026-05-01T09:40:28.256Z</time></trkpt><trkpt lat="45.064295" lon="6.8723217"><ele>1025.0</ele><time>2026-05-01T09:40:29.257Z</time></trkpt><trkpt lat="45.0641833" lon="6.8720617"><ele>1025.0</ele><time>2026-05-01T09:40:30.256Z</time></trkpt><trkpt lat="45.064085" lon="6.8717883"><ele>1025.0</ele><time>2026-05-01T09:40:31.257Z</time></trkpt><trkpt lat="45.0639717" lon="6.8715067"><ele>1025.0</ele><time>2026-05-01T09:40:32.256Z</time></trkpt><trkpt lat="45.0638733" lon="6.8712333"><ele>1025.0</ele><time>2026-05-01T09:40:33.256Z</time></trkpt><trkpt lat="45.0637883" lon="6.870965"><ele>1025.0</ele><time>2026-05-01T09:40:34.257Z</time></trkpt><trkpt lat="45.0637067" lon="6.8706983"><ele>1025.0</ele><time>2026-05-01T09:40:35.257Z</time></trkpt><trkpt lat="45.0636217" lon="6.870465"><ele>1025.0</ele><time>2026-05-01T09:40:36.256Z</time></trkpt><trkpt lat="45.06352" lon="6.8702283"><ele>1025.0</ele><time>2026-05-01T09:40:37.257Z</time></trkpt><trkpt lat="45.0633983" lon="6.8700033"><ele>1025.0</ele><time>2026-05-01T09:40:38.256Z</time></trkpt><trkpt lat="45.06327" lon="6.869775"><ele>1025.0</ele><time>2026-05-01T09:40:39.256Z</time></trkpt><trkpt lat="45.063135" lon="6.869555"><ele>1025.0</ele><time>2026-05-01T09:40:40.257Z</time></trkpt><trkpt lat="45.06296" lon="6.869355"><ele>1025.0</ele><time>2026-05-01T09:40:41.256Z</time></trkpt><trkpt lat="45.0627717" lon="6.869165"><ele>1025.0</ele><time>2026-05-01T09:40:42.257Z</time></trkpt><trkpt lat="45.0625933" lon="6.8689717"><ele>1025.0</ele><time>2026-05-01T09:40:43.257Z</time></trkpt><trkpt lat="45.0624017" lon="6.8687833"><ele>1025.0</ele><time>2026-05-01T09:40:44.256Z</time></trkpt><trkpt lat="45.06221" lon="6.8686"><ele>1025.0</ele><time>2026-05-01T09:40:45.257Z</time></trkpt><trkpt lat="45.06202" lon="6.868405"><ele>1024.5</ele><time>2026-05-01T09:40:46.256Z</time></trkpt><trkpt lat="45.0618217" lon="6.86821"><ele>1024.0</ele><time>2026-05-01T09:40:47.256Z</time></trkpt><trkpt lat="45.06161" lon="6.8680283"><ele>1025.0</ele><time>2026-05-01T09:40:48.257Z</time></trkpt><trkpt lat="45.061405" lon="6.86785"><ele>1026.0</ele><time>2026-05-01T09:40:49.257Z</time></trkpt><trkpt lat="45.0611933" lon="6.8676783"><ele>1025.5</ele><time>2026-05-01T09:40:50.256Z</time></trkpt><trkpt lat="45.0609933" lon="6.8675017"><ele>1025.0</ele><time>2026-05-01T09:40:51.257Z</time></trkpt><trkpt lat="45.0607933" lon="6.8673317"><ele>1026.0</ele><time>2026-05-01T09:40:52.257Z</time></trkpt><trkpt lat="45.060585" lon="6.86717"><ele>1027.0</ele><time>2026-05-01T09:40:53.256Z</time></trkpt><trkpt lat="45.0603767" lon="6.8670183"><ele>1027.0</ele><time>2026-05-01T09:40:54.256Z</time></trkpt><trkpt lat="45.0601783" lon="6.8668417"><ele>1027.0</ele><time>2026-05-01T09:40:55.256Z</time></trkpt><trkpt lat="45.0599283" lon="6.866715"><ele>1027.0</ele><time>2026-05-01T09:40:56.257Z</time></trkpt><trkpt lat="45.059735" lon="6.8665433"><ele>1027.0</ele><time>2026-05-01T09:40:57.257Z</time></trkpt><trkpt lat="45.0595567" lon="6.866345"><ele>1027.0</ele><time>2026-05-01T09:40:58.257Z</time></trkpt><trkpt lat="45.0593767" lon="6.8661517"><ele>1027.0</ele><time>2026-05-01T09:40:59.257Z</time></trkpt><trkpt lat="45.059205" lon="6.865945"><ele>1028.3333333333333</ele><time>2026-05-01T09:41:00.256Z</time></trkpt><trkpt lat="45.059025" lon="6.8657483"><ele>1029.6666666666667</ele><time>2026-05-01T09:41:01.257Z</time></trkpt><trkpt lat="45.0588633" lon="6.8655617"><ele>1031.0</ele><time>2026-05-01T09:41:02.257Z</time></trkpt><trkpt lat="45.0587033" lon="6.8653467"><ele>1031.0</ele><time>2026-05-01T09:41:03.257Z</time></trkpt><trkpt lat="45.0585483" lon="6.86511"><ele>1031.0</ele><time>2026-05-01T09:41:04.257Z</time></trkpt><trkpt lat="45.05839" lon="6.8648567"><ele>1031.0</ele><time>2026-05-01T09:41:05.257Z</time></trkpt><trkpt lat="45.0582367" lon="6.864585"><ele>1031.0</ele><time>2026-05-01T09:41:06.257Z</time></trkpt><trkpt lat="45.05809" lon="6.8643167"><ele>1031.3333333333335</ele><time>2026-05-01T09:41:07.257Z</time></trkpt><trkpt lat="45.057945" lon="6.86407"><ele>1031.6666666666667</ele><time>2026-05-01T09:41:08.256Z</time></trkpt><trkpt lat="45.057825" lon="6.86382"><ele>1032.0</ele><time>2026-05-01T09:41:09.256Z</time></trkpt><trkpt lat="45.05775" lon="6.8635733"><ele>1032.6666666666667</ele><time>2026-05-01T09:41:10.256Z</time></trkpt><trkpt lat="45.057655" lon="6.8633267"><ele>1033.3333333333335</ele><time>2026-05-01T09:41:11.257Z</time></trkpt><trkpt lat="45.0575267" lon="6.863085"><ele>1034.0</ele><time>2026-05-01T09:41:12.257Z</time></trkpt><trkpt lat="45.05739" lon="6.8628483"><ele>1032.5</ele><time>2026-05-01T09:41:13.257Z</time></trkpt><trkpt lat="45.05722" lon="6.8626017"><ele>1031.0</ele><time>2026-05-01T09:41:14.257Z</time></trkpt><trkpt lat="45.0570517" lon="6.86236"><ele>1031.0</ele><time>2026-05-01T09:41:15.257Z</time></trkpt><trkpt lat="45.05689" lon="6.8621183"><ele>1031.0</ele><time>2026-05-01T09:41:16.257Z</time></trkpt><trkpt lat="45.056735" lon="6.8618783"><ele>1031.5</ele><time>2026-05-01T09:41:17.257Z</time></trkpt><trkpt lat="45.0565683" lon="6.8616367"><ele>1032.0</ele><time>2026-05-01T09:41:18.257Z</time></trkpt><trkpt lat="45.0564117" lon="6.861385"><ele>1032.0</ele><time>2026-05-01T09:41:19.256Z</time></trkpt><trkpt lat="45.0562517" lon="6.8611383"><ele>1032.0</ele><time>2026-05-01T09:41:20.256Z</time></trkpt><trkpt lat="45.0560733" lon="6.8609"><ele>1033.5</ele><time>2026-05-01T09:41:21.257Z</time></trkpt><trkpt lat="45.0559167" lon="6.86064"><ele>1035.0</ele><time>2026-05-01T09:41:22.256Z</time></trkpt><trkpt lat="45.0557717" lon="6.8603683"><ele>1035.5</ele><time>2026-05-01T09:41:23.256Z</time></trkpt><trkpt lat="45.055635" lon="6.8600933"><ele>1036.0</ele><time>2026-05-01T09:41:24.257Z</time></trkpt><trkpt lat="45.0554867" lon="6.8598267"><ele>1036.0</ele><time>2026-05-01T09:41:25.257Z</time></trkpt><trkpt lat="45.0553733" lon="6.8595533"><ele>1036.0</ele><time>2026-05-01T09:41:26.256Z</time></trkpt><trkpt lat="45.0552433" lon="6.8592783"><ele>1038.5</ele><time>2026-05-01T09:41:27.256Z</time></trkpt><trkpt lat="45.0551117" lon="6.8590183"><ele>1041.0</ele><time>2026-05-01T09:41:28.256Z</time></trkpt><trkpt lat="45.0549867" lon="6.858755"><ele>1040.0</ele><time>2026-05-01T09:41:29.257Z</time></trkpt><trkpt lat="45.0548583" lon="6.8584817"><ele>1039.0</ele><time>2026-05-01T09:41:30.257Z</time></trkpt><trkpt lat="45.0547317" lon="6.8582117"><ele>1039.0</ele><time>2026-05-01T09:41:31.257Z</time></trkpt><trkpt lat="45.0545883" lon="6.8579617"><ele>1039.0</ele><time>2026-05-01T09:41:32.257Z</time></trkpt><trkpt lat="45.0544483" lon="6.8576917"><ele>1041.0</ele><time>2026-05-01T09:41:33.256Z</time></trkpt><trkpt lat="45.054315" lon="6.8574133"><ele>1043.0</ele><time>2026-05-01T09:41:34.257Z</time></trkpt><trkpt lat="45.0541817" lon="6.8571483"><ele>1042.3333333333335</ele><time>2026-05-01T09:41:35.257Z</time></trkpt><trkpt lat="45.0540567" lon="6.8568917"><ele>1041.6666666666667</ele><time>2026-05-01T09:41:36.257Z</time></trkpt><trkpt lat="45.0539467" lon="6.85663"><ele>1041.0</ele><time>2026-05-01T09:41:37.257Z</time></trkpt><trkpt lat="45.0538267" lon="6.8563833"><ele>1041.0</ele><time>2026-05-01T09:41:38.257Z</time></trkpt><trkpt lat="45.05371" lon="6.8561283"><ele>1041.0</ele><time>2026-05-01T09:41:39.256Z</time></trkpt><trkpt lat="45.0535733" lon="6.8558883"><ele>1041.0</ele><time>2026-05-01T09:41:40.257Z</time></trkpt><trkpt lat="45.0534433" lon="6.8556733"><ele>1040.3333333333333</ele><time>2026-05-01T09:41:41.257Z</time></trkpt><trkpt lat="45.053305" lon="6.85548"><ele>1039.6666666666665</ele><time>2026-05-01T09:41:42.256Z</time></trkpt><trkpt lat="45.0531783" lon="6.8553"><ele>1039.0</ele><time>2026-05-01T09:41:43.257Z</time></trkpt><trkpt lat="45.0530633" lon="6.85513"><ele>1041.0</ele><time>2026-05-01T09:41:44.257Z</time></trkpt><trkpt lat="45.0529483" lon="6.8549633"><ele>1043.0</ele><time>2026-05-01T09:41:45.257Z</time></trkpt><trkpt lat="45.0528317" lon="6.854805"><ele>1045.0</ele><time>2026-05-01T09:41:46.256Z</time></trkpt><trkpt lat="45.0526917" lon="6.854635"><ele>1045.0</ele><time>2026-05-01T09:41:47.256Z</time></trkpt><trkpt lat="45.0525617" lon="6.8544833"><ele>1045.0</ele><time>2026-05-01T09:41:48.257Z</time></trkpt><trkpt lat="45.0524167" lon="6.8543067"><ele>1045.0</ele><time>2026-05-01T09:41:49.257Z</time></trkpt><trkpt lat="45.0522917" lon="6.85413"><ele>1045.6666666666665</ele><time>2026-05-01T09:41:50.257Z</time></trkpt><trkpt lat="45.0521583" lon="6.8539533"><ele>1046.3333333333333</ele><time>2026-05-01T09:41:51.257Z</time></trkpt><trkpt lat="45.052025" lon="6.853775"><ele>1047.0</ele><time>2026-05-01T09:41:52.257Z</time></trkpt><trkpt lat="45.0505417" lon="6.85224"><ele>1047.0</ele><time>2026-05-01T09:42:01.259Z</time></trkpt><trkpt lat="45.050425" lon="6.8520467"><ele>1047.0</ele><time>2026-05-01T09:42:02.26Z</time></trkpt><trkpt lat="45.0503833" lon="6.85188"><ele>1047.0</ele><time>2026-05-01T09:42:03.259Z</time></trkpt><trkpt lat="45.050355" lon="6.8516967"><ele>1047.0</ele><time>2026-05-01T09:42:04.26Z</time></trkpt><trkpt lat="45.050405" lon="6.85146"><ele>1047.0</ele><time>2026-05-01T09:42:05.26Z</time></trkpt><trkpt lat="45.0504783" lon="6.851185"><ele>1047.0</ele><time>2026-05-01T09:42:06.26Z</time></trkpt><trkpt lat="45.0505783" lon="6.8509033"><ele>1047.0</ele><time>2026-05-01T09:42:07.26Z</time></trkpt><trkpt lat="45.0506517" lon="6.8506567"><ele>1047.3333333333333</ele><time>2026-05-01T09:42:08.26Z</time></trkpt><trkpt lat="45.05072" lon="6.8504333"><ele>1047.6666666666665</ele><time>2026-05-01T09:42:09.259Z</time></trkpt><trkpt lat="45.0507333" lon="6.8502183"><ele>1048.0</ele><time>2026-05-01T09:42:10.26Z</time></trkpt><trkpt lat="45.0507333" lon="6.850015"><ele>1048.0</ele><time>2026-05-01T09:42:11.259Z</time></trkpt><trkpt lat="45.05072" lon="6.8498133"><ele>1048.0</ele><time>2026-05-01T09:42:12.26Z</time></trkpt><trkpt lat="45.0506117" lon="6.8495783"><ele>1048.0</ele><time>2026-05-01T09:42:13.26Z</time></trkpt><trkpt lat="45.0505183" lon="6.8493833"><ele>1049.6666666666665</ele><time>2026-05-01T09:42:14.26Z</time></trkpt><trkpt lat="45.0503967" lon="6.8491533"><ele>1051.3333333333333</ele><time>2026-05-01T09:42:15.26Z</time></trkpt><trkpt lat="45.0502633" lon="6.8489167"><ele>1053.0</ele><time>2026-05-01T09:42:16.26Z</time></trkpt><trkpt lat="45.0501283" lon="6.8486983"><ele>1053.0</ele><time>2026-05-01T09:42:17.259Z</time></trkpt><trkpt lat="45.0500017" lon="6.84852"><ele>1053.0</ele><time>2026-05-01T09:42:18.26Z</time></trkpt><trkpt lat="45.0498567" lon="6.8483633"><ele>1053.0</ele><time>2026-05-01T09:42:19.26Z</time></trkpt><trkpt lat="45.049695" lon="6.84823"><ele>1052.0</ele><time>2026-05-01T09:42:20.26Z</time></trkpt><trkpt lat="45.0495383" lon="6.8480667"><ele>1051.0</ele><time>2026-05-01T09:42:21.26Z</time></trkpt><trkpt lat="45.0493883" lon="6.8479217"><ele>1050.0</ele><time>2026-05-01T09:42:22.26Z</time></trkpt><trkpt lat="45.0492667" lon="6.8477833"><ele>1048.0</ele><time>2026-05-01T09:42:23.259Z</time></trkpt><trkpt lat="45.0491733" lon="6.8476133"><ele>1046.0</ele><time>2026-05-01T09:42:24.259Z</time></trkpt><trkpt lat="45.0490717" lon="6.84741"><ele>1044.0</ele><time>2026-05-01T09:42:25.26Z</time></trkpt><trkpt lat="45.04897" lon="6.8472017"><ele>1044.0</ele><time>2026-05-01T09:42:26.259Z</time></trkpt><trkpt lat="45.04886" lon="6.846965"><ele>1044.0</ele><time>2026-05-01T09:42:27.259Z</time></trkpt><trkpt lat="45.0487367" lon="6.84671"><ele>1044.0</ele><time>2026-05-01T09:42:28.26Z</time></trkpt><trkpt lat="45.0486117" lon="6.8464217"><ele>1046.5</ele><time>2026-05-01T09:42:29.26Z</time></trkpt><trkpt lat="45.048485" lon="6.84614"><ele>1049.0</ele><time>2026-05-01T09:42:30.259Z</time></trkpt><trkpt lat="45.0483667" lon="6.8458517"><ele>1049.0</ele><time>2026-05-01T09:42:31.259Z</time></trkpt><trkpt lat="45.048245" lon="6.845565"><ele>1049.0</ele><time>2026-05-01T09:42:32.26Z</time></trkpt><trkpt lat="45.048115" lon="6.8452733"><ele>1051.0</ele><time>2026-05-01T09:42:33.26Z</time></trkpt><trkpt lat="45.0479817" lon="6.8449833"><ele>1053.0</ele><time>2026-05-01T09:42:34.259Z</time></trkpt><trkpt lat="45.047875" lon="6.844735"><ele>1053.0</ele><time>2026-05-01T09:42:35.26Z</time></trkpt><trkpt lat="45.0477733" lon="6.8444717"><ele>1053.0</ele><time>2026-05-01T09:42:36.26Z</time></trkpt><trkpt lat="45.0477" lon="6.8442033"><ele>1053.0</ele><time>2026-05-01T09:42:37.26Z</time></trkpt><trkpt lat="45.047645" lon="6.8439367"><ele>1052.6666666666667</ele><time>2026-05-01T09:42:38.26Z</time></trkpt><trkpt lat="45.0476317" lon="6.84368"><ele>1052.3333333333335</ele><time>2026-05-01T09:42:39.26Z</time></trkpt><trkpt lat="45.0476383" lon="6.8434183"><ele>1052.0</ele><time>2026-05-01T09:42:40.259Z</time></trkpt><trkpt lat="45.0476483" lon="6.84315"><ele>1052.0</ele><time>2026-05-01T09:42:41.26Z</time></trkpt><trkpt lat="45.0476783" lon="6.842875"><ele>1052.0</ele><time>2026-05-01T09:42:42.259Z</time></trkpt><trkpt lat="45.0477083" lon="6.8425883"><ele>1052.0</ele><time>2026-05-01T09:42:43.26Z</time></trkpt><trkpt lat="45.0477367" lon="6.8423033"><ele>1052.3333333333335</ele><time>2026-05-01T09:42:44.259Z</time></trkpt><trkpt lat="45.0477783" lon="6.84202"><ele>1052.6666666666667</ele><time>2026-05-01T09:42:45.259Z</time></trkpt><trkpt lat="45.047825" lon="6.8417517"><ele>1053.0</ele><time>2026-05-01T09:42:46.259Z</time></trkpt><trkpt lat="45.047835" lon="6.84146"><ele>1053.0</ele><time>2026-05-01T09:42:47.26Z</time></trkpt><trkpt lat="45.04785" lon="6.8411767"><ele>1053.0</ele><time>2026-05-01T09:42:48.26Z</time></trkpt><trkpt lat="45.0478583" lon="6.8409083"><ele>1053.0</ele><time>2026-05-01T09:42:49.259Z</time></trkpt><trkpt lat="45.0478583" lon="6.8406517"><ele>1055.3333333333333</ele><time>2026-05-01T09:42:50.259Z</time></trkpt><trkpt lat="45.0478467" lon="6.840395"><ele>1057.6666666666665</ele><time>2026-05-01T09:42:51.26Z</time></trkpt><trkpt lat="45.0478183" lon="6.8401433"><ele>1060.0</ele><time>2026-05-01T09:42:52.26Z</time></trkpt><trkpt lat="45.0477767" lon="6.8398817"><ele>1062.6666666666665</ele><time>2026-05-01T09:42:53.259Z</time></trkpt><trkpt lat="45.0477133" lon="6.8396417"><ele>1065.3333333333333</ele><time>2026-05-01T09:42:54.26Z</time></trkpt><trkpt lat="45.0476467" lon="6.839385"><ele>1068.0</ele><time>2026-05-01T09:42:55.259Z</time></trkpt><trkpt lat="45.0475483" lon="6.8391183"><ele>1061.5</ele><time>2026-05-01T09:42:56.26Z</time></trkpt><trkpt lat="45.0474517" lon="6.8388583"><ele>1055.0</ele><time>2026-05-01T09:42:57.259Z</time></trkpt><trkpt lat="45.0472683" lon="6.838545"><ele>1056.5</ele><time>2026-05-01T09:42:58.26Z</time></trkpt><trkpt lat="45.0470567" lon="6.83822"><ele>1058.0</ele><time>2026-05-01T09:42:59.26Z</time></trkpt><trkpt lat="45.04688" lon="6.8379183"><ele>1058.5</ele><time>2026-05-01T09:43:00.259Z</time></trkpt><trkpt lat="45.046695" lon="6.8376233"><ele>1059.0</ele><time>2026-05-01T09:43:01.259Z</time></trkpt><trkpt lat="45.046545" lon="6.8373383"><ele>1058.0</ele><time>2026-05-01T09:43:02.26Z</time></trkpt><trkpt lat="45.0464133" lon="6.837045"><ele>1057.0</ele><time>2026-05-01T09:43:03.26Z</time></trkpt><trkpt lat="45.0462783" lon="6.8367583"><ele>1056.6666666666665</ele><time>2026-05-01T09:43:04.26Z</time></trkpt><trkpt lat="45.0461667" lon="6.8364733"><ele>1056.3333333333333</ele><time>2026-05-01T09:43:05.26Z</time></trkpt><trkpt lat="45.0460533" lon="6.8362083"><ele>1056.0</ele><time>2026-05-01T09:43:06.259Z</time></trkpt><trkpt lat="45.0459433" lon="6.8359533"><ele>1056.6666666666667</ele><time>2026-05-01T09:43:07.26Z</time></trkpt><trkpt lat="45.0458517" lon="6.8357067"><ele>1057.3333333333335</ele><time>2026-05-01T09:43:08.26Z</time></trkpt><trkpt lat="45.04576" lon="6.83548"><ele>1058.0</ele><time>2026-05-01T09:43:09.26Z</time></trkpt><trkpt lat="45.0456567" lon="6.8352683"><ele>1059.3333333333335</ele><time>2026-05-01T09:43:10.259Z</time></trkpt><trkpt lat="45.0455583" lon="6.8350967"><ele>1060.6666666666667</ele><time>2026-05-01T09:43:11.26Z</time></trkpt><trkpt lat="45.0454717" lon="6.8349167"><ele>1062.0</ele><time>2026-05-01T09:43:12.26Z</time></trkpt><trkpt lat="45.0453783" lon="6.83472"><ele>1062.0</ele><time>2026-05-01T09:43:13.26Z</time></trkpt><trkpt lat="45.0452767" lon="6.8345117"><ele>1062.0</ele><time>2026-05-01T09:43:14.26Z</time></trkpt><trkpt lat="45.04518" lon="6.8342733"><ele>1062.0</ele><time>2026-05-01T09:43:15.26Z</time></trkpt><trkpt lat="45.045065" lon="6.8340317"><ele>1062.0</ele><time>2026-05-01T09:43:16.26Z</time></trkpt><trkpt lat="45.044945" lon="6.8337617"><ele>1062.0</ele><time>2026-05-01T09:43:17.259Z</time></trkpt><trkpt lat="45.0448133" lon="6.833485"><ele>1063.0</ele><time>2026-05-01T09:43:18.259Z</time></trkpt><trkpt lat="45.04468" lon="6.8332"><ele>1064.0</ele><time>2026-05-01T09:43:19.26Z</time></trkpt><trkpt lat="45.0445433" lon="6.8328917"><ele>1064.5</ele><time>2026-05-01T09:43:20.26Z</time></trkpt><trkpt lat="45.0444" lon="6.8325817"><ele>1065.0</ele><time>2026-05-01T09:43:21.26Z</time></trkpt><trkpt lat="45.04426" lon="6.8322733"><ele>1065.0</ele><time>2026-05-01T09:43:22.259Z</time></trkpt><trkpt lat="45.0441117" lon="6.8319783"><ele>1065.0</ele><time>2026-05-01T09:43:23.259Z</time></trkpt><trkpt lat="45.0439633" lon="6.8316833"><ele>1064.5</ele><time>2026-05-01T09:43:24.26Z</time></trkpt><trkpt lat="45.0438283" lon="6.8313867"><ele>1064.0</ele><time>2026-05-01T09:43:25.26Z</time></trkpt><trkpt lat="45.0436933" lon="6.8310967"><ele>1064.5</ele><time>2026-05-01T09:43:26.26Z</time></trkpt><trkpt lat="45.04357" lon="6.8308083"><ele>1065.0</ele><time>2026-05-01T09:43:27.26Z</time></trkpt><trkpt lat="45.0434433" lon="6.8305267"><ele>1065.0</ele><time>2026-05-01T09:43:28.259Z</time></trkpt><trkpt lat="45.0433167" lon="6.8302583"><ele>1065.0</ele><time>2026-05-01T09:43:29.26Z</time></trkpt><trkpt lat="45.0431917" lon="6.8299983"><ele>1064.6666666666667</ele><time>2026-05-01T09:43:30.26Z</time></trkpt><trkpt lat="45.04307" lon="6.8297317"><ele>1064.3333333333335</ele><time>2026-05-01T09:43:31.26Z</time></trkpt><trkpt lat="45.042945" lon="6.82947"><ele>1064.0</ele><time>2026-05-01T09:43:32.259Z</time></trkpt><trkpt lat="45.0428283" lon="6.82922"><ele>1065.6666666666667</ele><time>2026-05-01T09:43:33.259Z</time></trkpt><trkpt lat="45.0427167" lon="6.8289967"><ele>1067.3333333333333</ele><time>2026-05-01T09:43:34.26Z</time></trkpt><trkpt lat="45.04261" lon="6.828795"><ele>1069.0</ele><time>2026-05-01T09:43:35.259Z</time></trkpt><trkpt lat="45.04252" lon="6.8286"><ele>1067.3333333333333</ele><time>2026-05-01T09:43:36.26Z</time></trkpt><trkpt lat="45.0424333" lon="6.8283783"><ele>1065.6666666666667</ele><time>2026-05-01T09:43:37.26Z</time></trkpt><trkpt lat="45.0424" lon="6.8281717"><ele>1064.0</ele><time>2026-05-01T09:43:38.26Z</time></trkpt><trkpt lat="45.0423833" lon="6.827945"><ele>1064.0</ele><time>2026-05-01T09:43:39.26Z</time></trkpt><trkpt lat="45.0423733" lon="6.82773"><ele>1064.0</ele><time>2026-05-01T09:43:40.26Z</time></trkpt><trkpt lat="45.04238" lon="6.8275233"><ele>1064.0</ele><time>2026-05-01T09:43:41.26Z</time></trkpt><trkpt lat="45.04237" lon="6.827305"><ele>1064.6666666666667</ele><time>2026-05-01T09:43:42.26Z</time></trkpt><trkpt lat="45.04237" lon="6.82709"><ele>1065.3333333333333</ele><time>2026-05-01T09:43:43.26Z</time></trkpt><trkpt lat="45.0423583" lon="6.8268333"><ele>1066.0</ele><time>2026-05-01T09:43:44.259Z</time></trkpt><trkpt lat="45.042305" lon="6.8266017"><ele>1067.0</ele><time>2026-05-01T09:43:45.259Z</time></trkpt><trkpt lat="45.0422317" lon="6.8263633"><ele>1068.0</ele><time>2026-05-01T09:43:46.26Z</time></trkpt><trkpt lat="45.0421367" lon="6.8261117"><ele>1069.0</ele><time>2026-05-01T09:43:47.26Z</time></trkpt><trkpt lat="45.04206" lon="6.8259067"><ele>1070.0</ele><time>2026-05-01T09:43:48.259Z</time></trkpt><trkpt lat="45.041975" lon="6.8257033"><ele>1071.0</ele><time>2026-05-01T09:43:49.26Z</time></trkpt><trkpt lat="45.04189" lon="6.8255383"><ele>1072.0</ele><time>2026-05-01T09:43:50.26Z</time></trkpt><trkpt lat="45.0418267" lon="6.8253783"><ele>1073.0</ele><time>2026-05-01T09:43:51.26Z</time></trkpt><trkpt lat="45.0417767" lon="6.8252383"><ele>1072.6</ele><time>2026-05-01T09:43:52.259Z</time></trkpt><trkpt lat="45.0417367" lon="6.8251233"><ele>1072.1999999999998</ele><time>2026-05-01T09:43:53.259Z</time></trkpt><trkpt lat="45.0416583" lon="6.8250517"><ele>1071.8</ele><time>2026-05-01T09:43:55.26Z</time></trkpt><trkpt lat="45.04164" lon="6.824915"><ele>1071.3999999999999</ele><time>2026-05-01T09:43:57.26Z</time></trkpt><trkpt lat="45.0415783" lon="6.8248283"><ele>1071.0</ele><time>2026-05-01T09:43:59.26Z</time></trkpt><trkpt lat="45.04148" lon="6.824805"><ele>1071.0</ele><time>2026-05-01T09:44:01.26Z</time></trkpt><trkpt lat="45.041415" lon="6.8248217"><ele>1071.0</ele><time>2026-05-01T09:44:02.26Z</time></trkpt><trkpt lat="45.041305" lon="6.8248633"><ele>1071.0</ele><time>2026-05-01T09:44:03.26Z</time></trkpt><trkpt lat="45.0412" lon="6.824905"><ele>1071.0</ele><time>2026-05-01T09:44:04.26Z</time></trkpt><trkpt lat="45.0410867" lon="6.8249567"><ele>1071.0</ele><time>2026-05-01T09:44:05.259Z</time></trkpt><trkpt lat="45.0409783" lon="6.825005"><ele>1071.0</ele><time>2026-05-01T09:44:06.26Z</time></trkpt><trkpt lat="45.0408883" lon="6.8250433"><ele>1071.0</ele><time>2026-05-01T09:44:07.26Z</time></trkpt><trkpt lat="45.04077" lon="6.8251033"><ele>1071.0</ele><time>2026-05-01T09:44:08.26Z</time></trkpt><trkpt lat="45.0406783" lon="6.8251767"><ele>1071.0</ele><time>2026-05-01T09:44:09.259Z</time></trkpt><trkpt lat="45.0405783" lon="6.8252717"><ele>1071.0</ele><time>2026-05-01T09:44:10.26Z</time></trkpt><trkpt lat="45.04044" lon="6.8254"><ele>1069.5</ele><time>2026-05-01T09:44:11.259Z</time></trkpt><trkpt lat="45.04031" lon="6.8255067"><ele>1068.0</ele><time>2026-05-01T09:44:12.26Z</time></trkpt><trkpt lat="45.0400533" lon="6.8258117"><ele>1068.0</ele><time>2026-05-01T09:44:13.26Z</time></trkpt><trkpt lat="45.0399117" lon="6.8259633"><ele>1068.0</ele><time>2026-05-01T09:44:14.259Z</time></trkpt><trkpt lat="45.0397717" lon="6.82611"><ele>1068.0</ele><time>2026-05-01T09:44:15.26Z</time></trkpt><trkpt lat="45.039635" lon="6.8262417"><ele>1067.3333333333333</ele><time>2026-05-01T09:44:16.26Z</time></trkpt><trkpt lat="45.0395067" lon="6.826375"><ele>1066.6666666666665</ele><time>2026-05-01T09:44:17.26Z</time></trkpt><trkpt lat="45.039385" lon="6.8265"><ele>1066.0</ele><time>2026-05-01T09:44:18.26Z</time></trkpt><trkpt lat="45.0392733" lon="6.8266267"><ele>1066.0</ele><time>2026-05-01T09:44:19.26Z</time></trkpt><trkpt lat="45.03917" lon="6.8267467"><ele>1066.0</ele><time>2026-05-01T09:44:20.26Z</time></trkpt><trkpt lat="45.039065" lon="6.8268417"><ele>1066.0</ele><time>2026-05-01T09:44:21.26Z</time></trkpt><trkpt lat="45.03896" lon="6.8269467"><ele>1066.0</ele><time>2026-05-01T09:44:22.26Z</time></trkpt><trkpt lat="45.03888" lon="6.8270483"><ele>1065.75</ele><time>2026-05-01T09:44:23.259Z</time></trkpt><trkpt lat="45.0387983" lon="6.8271417"><ele>1065.5</ele><time>2026-05-01T09:44:24.26Z</time></trkpt><trkpt lat="45.0387067" lon="6.8272417"><ele>1065.25</ele><time>2026-05-01T09:44:25.26Z</time></trkpt><trkpt lat="45.038605" lon="6.82733"><ele>1065.0</ele><time>2026-05-01T09:44:26.259Z</time></trkpt><trkpt lat="45.038515" lon="6.82742"><ele>1065.0</ele><time>2026-05-01T09:44:27.26Z</time></trkpt><trkpt lat="45.0384317" lon="6.8275033"><ele>1065.0</ele><time>2026-05-01T09:44:28.26Z</time></trkpt><trkpt lat="45.0383517" lon="6.827595"><ele>1065.0</ele><time>2026-05-01T09:44:29.26Z</time></trkpt><trkpt lat="45.0382583" lon="6.8276817"><ele>1065.0</ele><time>2026-05-01T09:44:30.26Z</time></trkpt><trkpt lat="45.0381767" lon="6.8277667"><ele>1065.0</ele><time>2026-05-01T09:44:31.26Z</time></trkpt><trkpt lat="45.0380867" lon="6.8278533"><ele>1065.25</ele><time>2026-05-01T09:44:32.26Z</time></trkpt><trkpt lat="45.0379817" lon="6.8279433"><ele>1065.5</ele><time>2026-05-01T09:44:33.26Z</time></trkpt><trkpt lat="45.0378783" lon="6.8280383"><ele>1065.75</ele><time>2026-05-01T09:44:34.259Z</time></trkpt><trkpt lat="45.0377833" lon="6.8281367"><ele>1066.0</ele><time>2026-05-01T09:44:35.26Z</time></trkpt><trkpt lat="45.0376967" lon="6.828245"><ele>1066.0</ele><time>2026-05-01T09:44:36.26Z</time></trkpt><trkpt lat="45.0376117" lon="6.8283583"><ele>1066.0</ele><time>2026-05-01T09:44:37.259Z</time></trkpt><trkpt lat="45.03753" lon="6.8284983"><ele>1066.0</ele><time>2026-05-01T09:44:38.26Z</time></trkpt><trkpt lat="45.03746" lon="6.828645"><ele>1066.0</ele><time>2026-05-01T09:44:39.259Z</time></trkpt><trkpt lat="45.0374017" lon="6.8287833"><ele>1066.3999999999999</ele><time>2026-05-01T09:44:40.26Z</time></trkpt><trkpt lat="45.03734" lon="6.828915"><ele>1066.8</ele><time>2026-05-01T09:44:41.259Z</time></trkpt><trkpt lat="45.03728" lon="6.8290433"><ele>1067.1999999999998</ele><time>2026-05-01T09:44:42.26Z</time></trkpt><trkpt lat="45.037225" lon="6.8291633"><ele>1067.6</ele><time>2026-05-01T09:44:43.26Z</time></trkpt><trkpt lat="45.0371767" lon="6.829295"><ele>1068.0</ele><time>2026-05-01T09:44:44.26Z</time></trkpt><trkpt lat="45.0371233" lon="6.8294167"><ele>1068.2</ele><time>2026-05-01T09:44:45.26Z</time></trkpt><trkpt lat="45.0370683" lon="6.8295367"><ele>1068.4</ele><time>2026-05-01T09:44:46.26Z</time></trkpt><trkpt lat="45.0370217" lon="6.829655"><ele>1068.6000000000001</ele><time>2026-05-01T09:44:47.26Z</time></trkpt><trkpt lat="45.0369733" lon="6.8297767"><ele>1068.8</ele><time>2026-05-01T09:44:48.259Z</time></trkpt><trkpt lat="45.03692" lon="6.8299083"><ele>1069.0</ele><time>2026-05-01T09:44:49.26Z</time></trkpt><trkpt lat="45.0368633" lon="6.8300517"><ele>1069.0</ele><time>2026-05-01T09:44:50.26Z</time></trkpt><trkpt lat="45.036785" lon="6.830195"><ele>1069.0</ele><time>2026-05-01T09:44:51.26Z</time></trkpt><trkpt lat="45.0367483" lon="6.830325"><ele>1069.0</ele><time>2026-05-01T09:44:52.26Z</time></trkpt><trkpt lat="45.0366867" lon="6.83045"><ele>1069.0</ele><time>2026-05-01T09:44:53.26Z</time></trkpt><trkpt lat="45.0366167" lon="6.8305583"><ele>1069.0</ele><time>2026-05-01T09:44:54.26Z</time></trkpt><trkpt lat="45.0365517" lon="6.8306633"><ele>1069.2</ele><time>2026-05-01T09:44:55.26Z</time></trkpt><trkpt lat="45.03648" lon="6.8307633"><ele>1069.4</ele><time>2026-05-01T09:44:56.26Z</time></trkpt><trkpt lat="45.0364117" lon="6.8308633"><ele>1069.6</ele><time>2026-05-01T09:44:57.26Z</time></trkpt><trkpt lat="45.0363267" lon="6.8309783"><ele>1069.8</ele><time>2026-05-01T09:44:58.26Z</time></trkpt><trkpt lat="45.0362383" lon="6.8311017"><ele>1070.0</ele><time>2026-05-01T09:44:59.26Z</time></trkpt><trkpt lat="45.0361383" lon="6.8312533"><ele>1070.0</ele><time>2026-05-01T09:45:00.26Z</time></trkpt><trkpt lat="45.036045" lon="6.8314033"><ele>1070.0</ele><time>2026-05-01T09:45:01.26Z</time></trkpt><trkpt lat="45.0359633" lon="6.831535"><ele>1070.0</ele><time>2026-05-01T09:45:02.26Z</time></trkpt><trkpt lat="45.0358733" lon="6.8316467"><ele>1070.0</ele><time>2026-05-01T09:45:03.26Z</time></trkpt><trkpt lat="45.0357683" lon="6.83175"><ele>1070.8</ele><time>2026-05-01T09:45:04.26Z</time></trkpt><trkpt lat="45.0356767" lon="6.8318533"><ele>1071.6</ele><time>2026-05-01T09:45:05.26Z</time></trkpt><trkpt lat="45.0355917" lon="6.8319583"><ele>1072.4</ele><time>2026-05-01T09:45:06.26Z</time></trkpt><trkpt lat="45.03552" lon="6.8320533"><ele>1073.2</ele><time>2026-05-01T09:45:07.26Z</time></trkpt><trkpt lat="45.0354467" lon="6.8321433"><ele>1074.0</ele><time>2026-05-01T09:45:08.259Z</time></trkpt><trkpt lat="45.0353783" lon="6.83224"><ele>1074.0</ele><time>2026-05-01T09:45:09.26Z</time></trkpt><trkpt lat="45.03531" lon="6.8323317"><ele>1074.0</ele><time>2026-05-01T09:45:10.26Z</time></trkpt><trkpt lat="45.03524" lon="6.832435"><ele>1074.0</ele><time>2026-05-01T09:45:11.26Z</time></trkpt><trkpt lat="45.0351583" lon="6.8325367"><ele>1074.0</ele><time>2026-05-01T09:45:12.26Z</time></trkpt><trkpt lat="45.0350667" lon="6.8326333"><ele>1074.0</ele><time>2026-05-01T09:45:13.259Z</time></trkpt><trkpt lat="45.034975" lon="6.832725"><ele>1074.0</ele><time>2026-05-01T09:45:14.26Z</time></trkpt><trkpt lat="45.03487" lon="6.8328067"><ele>1074.0</ele><time>2026-05-01T09:45:15.259Z</time></trkpt><trkpt lat="45.0347633" lon="6.8328717"><ele>1074.0</ele><time>2026-05-01T09:45:16.26Z</time></trkpt><trkpt lat="45.0346633" lon="6.832935"><ele>1074.0</ele><time>2026-05-01T09:45:17.26Z</time></trkpt><trkpt lat="45.03456" lon="6.8329883"><ele>1074.0</ele><time>2026-05-01T09:45:18.26Z</time></trkpt><trkpt lat="45.0344567" lon="6.8330383"><ele>1074.0</ele><time>2026-05-01T09:45:19.26Z</time></trkpt><trkpt lat="45.0343483" lon="6.8330733"><ele>1074.0</ele><time>2026-05-01T09:45:20.26Z</time></trkpt><trkpt lat="45.0342483" lon="6.83313"><ele>1074.0</ele><time>2026-05-01T09:45:21.26Z</time></trkpt><trkpt lat="45.034125" lon="6.8331467"><ele>1074.5714285714284</ele><time>2026-05-01T09:45:22.26Z</time></trkpt><trkpt lat="45.0340417" lon="6.8331733"><ele>1075.142857142857</ele><time>2026-05-01T09:45:23.26Z</time></trkpt><trkpt lat="45.033975" lon="6.8332017"><ele>1075.7142857142858</ele><time>2026-05-01T09:45:24.26Z</time></trkpt><trkpt lat="45.0339117" lon="6.8332267"><ele>1076.2857142857142</ele><time>2026-05-01T09:45:25.26Z</time></trkpt><trkpt lat="45.0338533" lon="6.83326"><ele>1076.857142857143</ele><time>2026-05-01T09:45:26.259Z</time></trkpt><trkpt lat="45.0337833" lon="6.8332983"><ele>1077.4285714285713</ele><time>2026-05-01T09:45:27.26Z</time></trkpt><trkpt lat="45.0337267" lon="6.83334"><ele>1078.0</ele><time>2026-05-01T09:45:28.259Z</time></trkpt><trkpt lat="45.033635" lon="6.8333883"><ele>1078.0</ele><time>2026-05-01T09:45:30.26Z</time></trkpt><trkpt lat="45.033565" lon="6.8334567"><ele>1078.0</ele><time>2026-05-01T09:45:32.26Z</time></trkpt><trkpt lat="45.0334983" lon="6.8335233"><ele>1078.0</ele><time>2026-05-01T09:45:34.259Z</time></trkpt><trkpt lat="45.03343" lon="6.8336183"><ele>1078.0</ele><time>2026-05-01T09:45:37.26Z</time></trkpt><trkpt lat="45.0333717" lon="6.8336567"><ele>1078.0</ele><time>2026-05-01T09:45:39.259Z</time></trkpt><trkpt lat="45.0332933" lon="6.8336533"><ele>1078.0</ele><time>2026-05-01T09:45:41.259Z</time></trkpt><trkpt lat="45.0331917" lon="6.8335517"><ele>1078.2</ele><time>2026-05-01T09:45:43.259Z</time></trkpt><trkpt lat="45.0331217" lon="6.8334783"><ele>1078.4</ele><time>2026-05-01T09:45:44.26Z</time></trkpt><trkpt lat="45.0330367" lon="6.8333917"><ele>1078.6000000000001</ele><time>2026-05-01T09:45:45.26Z</time></trkpt><trkpt lat="45.0329517" lon="6.83333"><ele>1078.8</ele><time>2026-05-01T09:45:46.26Z</time></trkpt><trkpt lat="45.032875" lon="6.833275"><ele>1079.0</ele><time>2026-05-01T09:45:47.26Z</time></trkpt><trkpt lat="45.0328017" lon="6.8332233"><ele>1079.0</ele><time>2026-05-01T09:45:48.26Z</time></trkpt><trkpt lat="45.032725" lon="6.83317"><ele>1079.0</ele><time>2026-05-01T09:45:49.26Z</time></trkpt><trkpt lat="45.0325783" lon="6.8330483"><ele>1079.0</ele><time>2026-05-01T09:45:51.259Z</time></trkpt><trkpt lat="45.0325133" lon="6.83299"><ele>1079.0</ele><time>2026-05-01T09:45:52.259Z</time></trkpt><trkpt lat="45.0324383" lon="6.83293"><ele>1079.0</ele><time>2026-05-01T09:45:53.26Z</time></trkpt><trkpt lat="45.0323667" lon="6.8328767"><ele>1079.4</ele><time>2026-05-01T09:45:54.26Z</time></trkpt><trkpt lat="45.0323067" lon="6.8328117"><ele>1079.8000000000002</ele><time>2026-05-01T09:45:55.26Z</time></trkpt><trkpt lat="45.032215" lon="6.832735"><ele>1080.1999999999998</ele><time>2026-05-01T09:45:57.26Z</time></trkpt><trkpt lat="45.0321433" lon="6.8326133"><ele>1080.6</ele><time>2026-05-01T09:45:59.26Z</time></trkpt><trkpt lat="45.0320433" lon="6.832495"><ele>1081.0</ele><time>2026-05-01T09:46:01.259Z</time></trkpt><trkpt lat="45.031975" lon="6.8324067"><ele>1081.0</ele><time>2026-05-01T09:46:02.26Z</time></trkpt><trkpt lat="45.0318917" lon="6.8323117"><ele>1081.0</ele><time>2026-05-01T09:46:03.26Z</time></trkpt><trkpt lat="45.0317817" lon="6.8322117"><ele>1081.0</ele><time>2026-05-01T09:46:04.26Z</time></trkpt><trkpt lat="45.0316883" lon="6.8321167"><ele>1081.0</ele><time>2026-05-01T09:46:05.26Z</time></trkpt><trkpt lat="45.0315933" lon="6.8320317"><ele>1081.5</ele><time>2026-05-01T09:46:06.26Z</time></trkpt><trkpt lat="45.03146" lon="6.8319733"><ele>1082.0</ele><time>2026-05-01T09:46:07.26Z</time></trkpt><trkpt lat="45.03136" lon="6.83191"><ele>1082.5</ele><time>2026-05-01T09:46:08.26Z</time></trkpt><trkpt lat="45.0312633" lon="6.8318417"><ele>1083.0</ele><time>2026-05-01T09:46:09.26Z</time></trkpt><trkpt lat="45.0311767" lon="6.83178"><ele>1083.2</ele><time>2026-05-01T09:46:10.26Z</time></trkpt><trkpt lat="45.0310883" lon="6.8317383"><ele>1083.4</ele><time>2026-05-01T09:46:11.26Z</time></trkpt><trkpt lat="45.0309983" lon="6.8316883"><ele>1083.6000000000001</ele><time>2026-05-01T09:46:12.26Z</time></trkpt><trkpt lat="45.0309117" lon="6.831625"><ele>1083.8</ele><time>2026-05-01T09:46:13.26Z</time></trkpt><trkpt lat="45.0308283" lon="6.8315333"><ele>1084.0</ele><time>2026-05-01T09:46:14.259Z</time></trkpt><trkpt lat="45.0307383" lon="6.8314267"><ele>1086.0</ele><time>2026-05-01T09:46:15.26Z</time></trkpt><trkpt lat="45.0306433" lon="6.8313217"><ele>1088.0</ele><time>2026-05-01T09:46:16.26Z</time></trkpt><trkpt lat="45.0305433" lon="6.8312217"><ele>1090.0</ele><time>2026-05-01T09:46:17.26Z</time></trkpt><trkpt lat="45.0304617" lon="6.8310967"><ele>1092.0</ele><time>2026-05-01T09:46:18.259Z</time></trkpt><trkpt lat="45.0303667" lon="6.8309833"><ele>1090.5</ele><time>2026-05-01T09:46:19.259Z</time></trkpt><trkpt lat="45.030255" lon="6.8308683"><ele>1089.0</ele><time>2026-05-01T09:46:20.26Z</time></trkpt><trkpt lat="45.0301417" lon="6.8307517"><ele>1087.5</ele><time>2026-05-01T09:46:21.26Z</time></trkpt><trkpt lat="45.0300283" lon="6.8306617"><ele>1086.0</ele><time>2026-05-01T09:46:22.26Z</time></trkpt><trkpt lat="45.0299233" lon="6.8305217"><ele>1087.0</ele><time>2026-05-01T09:46:23.26Z</time></trkpt><trkpt lat="45.0297883" lon="6.83038"><ele>1088.0</ele><time>2026-05-01T09:46:24.26Z</time></trkpt><trkpt lat="45.0296367" lon="6.8302333"><ele>1089.0</ele><time>2026-05-01T09:46:25.26Z</time></trkpt><trkpt lat="45.0294967" lon="6.8301083"><ele>1089.0</ele><time>2026-05-01T09:46:26.259Z</time></trkpt><trkpt lat="45.029365" lon="6.8299867"><ele>1089.0</ele><time>2026-05-01T09:46:27.26Z</time></trkpt><trkpt lat="45.0292567" lon="6.829865"><ele>1089.0</ele><time>2026-05-01T09:46:28.26Z</time></trkpt><trkpt lat="45.0291383" lon="6.829775"><ele>1089.0</ele><time>2026-05-01T09:46:29.26Z</time></trkpt><trkpt lat="45.0290217" lon="6.8297133"><ele>1090.5</ele><time>2026-05-01T09:46:30.26Z</time></trkpt><trkpt lat="45.0289033" lon="6.8296717"><ele>1092.0</ele><time>2026-05-01T09:46:31.26Z</time></trkpt><trkpt lat="45.028765" lon="6.8296483"><ele>1093.5</ele><time>2026-05-01T09:46:32.26Z</time></trkpt><trkpt lat="45.0286283" lon="6.829635"><ele>1095.0</ele><time>2026-05-01T09:46:33.259Z</time></trkpt><trkpt lat="45.0284783" lon="6.829635"><ele>1093.3333333333333</ele><time>2026-05-01T09:46:34.26Z</time></trkpt><trkpt lat="45.0283033" lon="6.8296483"><ele>1091.6666666666665</ele><time>2026-05-01T09:46:35.26Z</time></trkpt><trkpt lat="45.0281267" lon="6.8296683"><ele>1090.0</ele><time>2026-05-01T09:46:36.26Z</time></trkpt><trkpt lat="45.0279017" lon="6.8297367"><ele>1090.0</ele><time>2026-05-01T09:46:37.26Z</time></trkpt><trkpt lat="45.0276583" lon="6.8298417"><ele>1090.0</ele><time>2026-05-01T09:46:38.26Z</time></trkpt><trkpt lat="45.0273717" lon="6.8298833"><ele>1089.5</ele><time>2026-05-01T09:46:39.26Z</time></trkpt><trkpt lat="45.027135" lon="6.8299683"><ele>1089.0</ele><time>2026-05-01T09:46:40.259Z</time></trkpt><trkpt lat="45.0268667" lon="6.8300317"><ele>1090.0</ele><time>2026-05-01T09:46:41.26Z</time></trkpt><trkpt lat="45.0266267" lon="6.8300917"><ele>1091.0</ele><time>2026-05-01T09:46:42.26Z</time></trkpt><trkpt lat="45.0263433" lon="6.8301617"><ele>1091.5</ele><time>2026-05-01T09:46:43.259Z</time></trkpt><trkpt lat="45.0260767" lon="6.83024"><ele>1092.0</ele><time>2026-05-01T09:46:44.26Z</time></trkpt><trkpt lat="45.0258017" lon="6.8303133"><ele>1094.0</ele><time>2026-05-01T09:46:45.259Z</time></trkpt><trkpt lat="45.025495" lon="6.8304067"><ele>1096.0</ele><time>2026-05-01T09:46:46.259Z</time></trkpt><trkpt lat="45.02524" lon="6.8304817"><ele>1096.0</ele><time>2026-05-01T09:46:47.259Z</time></trkpt><trkpt lat="45.0250083" lon="6.83055"><ele>1096.0</ele><time>2026-05-01T09:46:48.259Z</time></trkpt><trkpt lat="45.0247217" lon="6.8306"><ele>1097.0</ele><time>2026-05-01T09:46:49.26Z</time></trkpt><trkpt lat="45.0244567" lon="6.8306583"><ele>1098.0</ele><time>2026-05-01T09:46:50.26Z</time></trkpt><trkpt lat="45.0241983" lon="6.8307133"><ele>1098.3333333333333</ele><time>2026-05-01T09:46:51.26Z</time></trkpt><trkpt lat="45.0239533" lon="6.8307633"><ele>1098.6666666666665</ele><time>2026-05-01T09:46:52.259Z</time></trkpt><trkpt lat="45.023755" lon="6.83077"><ele>1099.0</ele><time>2026-05-01T09:46:53.259Z</time></trkpt><trkpt lat="45.0235383" lon="6.8307983"><ele>1099.0</ele><time>2026-05-01T09:46:54.26Z</time></trkpt><trkpt lat="45.023345" lon="6.83082"><ele>1099.0</ele><time>2026-05-01T09:46:55.259Z</time></trkpt><trkpt lat="45.02318" lon="6.8308617"><ele>1099.0</ele><time>2026-05-01T09:46:56.259Z</time></trkpt><trkpt lat="45.023" lon="6.8308667"><ele>1099.25</ele><time>2026-05-01T09:46:57.26Z</time></trkpt><trkpt lat="45.0228467" lon="6.83084"><ele>1099.5</ele><time>2026-05-01T09:46:58.259Z</time></trkpt><trkpt lat="45.022705" lon="6.8307967"><ele>1099.75</ele><time>2026-05-01T09:46:59.259Z</time></trkpt><trkpt lat="45.0225733" lon="6.83075"><ele>1100.0</ele><time>2026-05-01T09:47:00.26Z</time></trkpt><trkpt lat="45.022445" lon="6.8307217"><ele>1101.75</ele><time>2026-05-01T09:47:01.26Z</time></trkpt><trkpt lat="45.0223067" lon="6.8307067"><ele>1103.5</ele><time>2026-05-01T09:47:02.26Z</time></trkpt><trkpt lat="45.0221617" lon="6.83071"><ele>1105.25</ele><time>2026-05-01T09:47:03.26Z</time></trkpt><trkpt lat="45.0220083" lon="6.830735"><ele>1107.0</ele><time>2026-05-01T09:47:04.26Z</time></trkpt><trkpt lat="45.0218533" lon="6.83076"><ele>1107.0</ele><time>2026-05-01T09:47:05.26Z</time></trkpt><trkpt lat="45.0217" lon="6.8307867"><ele>1107.0</ele><time>2026-05-01T09:47:06.259Z</time></trkpt><trkpt lat="45.0215117" lon="6.83085"><ele>1107.0</ele><time>2026-05-01T09:47:07.26Z</time></trkpt><trkpt lat="45.0213017" lon="6.8309183"><ele>1119.0</ele><time>2026-05-01T09:47:08.26Z</time></trkpt><trkpt lat="45.0210683" lon="6.831"><ele>1131.0</ele><time>2026-05-01T09:47:09.26Z</time></trkpt><trkpt lat="45.020825" lon="6.8310767"><ele>1125.5</ele><time>2026-05-01T09:47:10.26Z</time></trkpt><trkpt lat="45.0205717" lon="6.8311733"><ele>1120.0</ele><time>2026-05-01T09:47:11.26Z</time></trkpt><trkpt lat="45.0203133" lon="6.8312767"><ele>1120.0</ele><time>2026-05-01T09:47:12.26Z</time></trkpt><trkpt lat="45.02007" lon="6.8313833"><ele>1120.0</ele><time>2026-05-01T09:47:13.26Z</time></trkpt><trkpt lat="45.01983" lon="6.831455"><ele>1114.5</ele><time>2026-05-01T09:47:14.26Z</time></trkpt><trkpt lat="45.0195817" lon="6.8315267"><ele>1109.0</ele><time>2026-05-01T09:47:15.26Z</time></trkpt><trkpt lat="45.01936" lon="6.8315917"><ele>1109.3333333333335</ele><time>2026-05-01T09:47:16.26Z</time></trkpt><trkpt lat="45.0191483" lon="6.8316583"><ele>1109.6666666666667</ele><time>2026-05-01T09:47:17.26Z</time></trkpt><trkpt lat="45.0189383" lon="6.831725"><ele>1110.0</ele><time>2026-05-01T09:47:18.26Z</time></trkpt><trkpt lat="45.0187383" lon="6.83175"><ele>1110.0</ele><time>2026-05-01T09:47:19.26Z</time></trkpt><trkpt lat="45.018535" lon="6.831735"><ele>1110.0</ele><time>2026-05-01T09:47:20.259Z</time></trkpt><trkpt lat="45.01833" lon="6.8317317"><ele>1110.0</ele><time>2026-05-01T09:47:21.26Z</time></trkpt><trkpt lat="45.01813" lon="6.8316883"><ele>1112.6666666666667</ele><time>2026-05-01T09:47:22.26Z</time></trkpt><trkpt lat="45.017935" lon="6.8316133"><ele>1115.3333333333335</ele><time>2026-05-01T09:47:23.26Z</time></trkpt><trkpt lat="45.0177567" lon="6.8315533"><ele>1118.0</ele><time>2026-05-01T09:47:24.26Z</time></trkpt><trkpt lat="45.017575" lon="6.8314933"><ele>1120.0</ele><time>2026-05-01T09:47:25.26Z</time></trkpt><trkpt lat="45.0173833" lon="6.831415"><ele>1122.0</ele><time>2026-05-01T09:47:26.26Z</time></trkpt><trkpt lat="45.017165" lon="6.8312933"><ele>1124.0</ele><time>2026-05-01T09:47:27.26Z</time></trkpt><trkpt lat="45.01696" lon="6.831165"><ele>1124.0</ele><time>2026-05-01T09:47:28.26Z</time></trkpt><trkpt lat="45.0167417" lon="6.8310183"><ele>1124.0</ele><time>2026-05-01T09:47:29.26Z</time></trkpt><trkpt lat="45.0165283" lon="6.8308867"><ele>1127.0</ele><time>2026-05-01T09:47:30.26Z</time></trkpt><trkpt lat="45.0162967" lon="6.8307633"><ele>1130.0</ele><time>2026-05-01T09:47:31.259Z</time></trkpt><trkpt lat="45.016035" lon="6.8306417"><ele>1145.0</ele><time>2026-05-01T09:47:32.26Z</time></trkpt><trkpt lat="45.0157917" lon="6.8305133"><ele>1160.0</ele><time>2026-05-01T09:47:33.26Z</time></trkpt><trkpt lat="45.0155517" lon="6.830325"><ele>1160.0</ele><time>2026-05-01T09:47:34.26Z</time></trkpt><trkpt lat="45.01534" lon="6.8301517"><ele>1160.0</ele><time>2026-05-01T09:47:35.259Z</time></trkpt><trkpt lat="45.0151367" lon="6.829985"><ele>1156.5</ele><time>2026-05-01T09:47:36.26Z</time></trkpt><trkpt lat="45.0149217" lon="6.8297717"><ele>1153.0</ele><time>2026-05-01T09:47:37.259Z</time></trkpt><trkpt lat="45.0147133" lon="6.82958"><ele>1153.0</ele><time>2026-05-01T09:47:38.26Z</time></trkpt><trkpt lat="45.014505" lon="6.8294"><ele>1153.0</ele><time>2026-05-01T09:47:39.26Z</time></trkpt><trkpt lat="45.0143033" lon="6.8292"><ele>1155.0</ele><time>2026-05-01T09:47:40.259Z</time></trkpt><trkpt lat="45.0140917" lon="6.8290033"><ele>1157.0</ele><time>2026-05-01T09:47:41.259Z</time></trkpt><trkpt lat="45.013895" lon="6.828805"><ele>1157.0</ele><time>2026-05-01T09:47:42.26Z</time></trkpt><trkpt lat="45.0136833" lon="6.8285983"><ele>1157.0</ele><time>2026-05-01T09:47:43.259Z</time></trkpt><trkpt lat="45.01346" lon="6.8283933"><ele>1151.0</ele><time>2026-05-01T09:47:44.259Z</time></trkpt><trkpt lat="45.0132217" lon="6.8282"><ele>1145.0</ele><time>2026-05-01T09:47:45.259Z</time></trkpt><trkpt lat="45.0129733" lon="6.8280467"><ele>1145.0</ele><time>2026-05-01T09:47:46.26Z</time></trkpt><trkpt lat="45.0127267" lon="6.8278867"><ele>1145.0</ele><time>2026-05-01T09:47:47.259Z</time></trkpt><trkpt lat="45.0124717" lon="6.8277217"><ele>1150.5</ele><time>2026-05-01T09:47:48.26Z</time></trkpt><trkpt lat="45.012225" lon="6.8275683"><ele>1156.0</ele><time>2026-05-01T09:47:49.259Z</time></trkpt><trkpt lat="45.011995" lon="6.82741"><ele>1156.0</ele><time>2026-05-01T09:47:50.26Z</time></trkpt><trkpt lat="45.0117683" lon="6.8272733"><ele>1156.0</ele><time>2026-05-01T09:47:51.26Z</time></trkpt><trkpt lat="45.01154" lon="6.827145"><ele>1168.0</ele><time>2026-05-01T09:47:52.26Z</time></trkpt><trkpt lat="45.0113233" lon="6.8270133"><ele>1180.0</ele><time>2026-05-01T09:47:53.26Z</time></trkpt><trkpt lat="45.01112" lon="6.82687"><ele>1180.0</ele><time>2026-05-01T09:47:54.26Z</time></trkpt><trkpt lat="45.0109283" lon="6.8267167"><ele>1180.0</ele><time>2026-05-01T09:47:55.26Z</time></trkpt><trkpt lat="45.0107567" lon="6.8265433"><ele>1180.0</ele><time>2026-05-01T09:47:56.259Z</time></trkpt><trkpt lat="45.0106067" lon="6.8263567"><ele>1180.0</ele><time>2026-05-01T09:47:57.259Z</time></trkpt><trkpt lat="45.0104283" lon="6.826175"><ele>1180.0</ele><time>2026-05-01T09:47:58.259Z</time></trkpt><trkpt lat="45.010235" lon="6.82601"><ele>1180.0</ele><time>2026-05-01T09:47:59.26Z</time></trkpt><trkpt lat="45.010025" lon="6.82585"><ele>1168.0</ele><time>2026-05-01T09:48:00.26Z</time></trkpt><trkpt lat="45.00981" lon="6.8256867"><ele>1156.0</ele><time>2026-05-01T09:48:01.26Z</time></trkpt><trkpt lat="45.0096033" lon="6.8255"><ele>1156.0</ele><time>2026-05-01T09:48:02.26Z</time></trkpt><trkpt lat="45.0094067" lon="6.8253067"><ele>1156.0</ele><time>2026-05-01T09:48:03.26Z</time></trkpt><trkpt lat="45.0091867" lon="6.825115"><ele>1159.0</ele><time>2026-05-01T09:48:04.259Z</time></trkpt><trkpt lat="45.00901" lon="6.8249033"><ele>1162.0</ele><time>2026-05-01T09:48:05.26Z</time></trkpt><trkpt lat="45.0088983" lon="6.8246883"><ele>1165.0</ele><time>2026-05-01T09:48:06.259Z</time></trkpt><trkpt lat="45.008735" lon="6.8245133"><ele>1165.0</ele><time>2026-05-01T09:48:07.259Z</time></trkpt><trkpt lat="45.00856" lon="6.824375"><ele>1165.0</ele><time>2026-05-01T09:48:08.259Z</time></trkpt><trkpt lat="45.0083817" lon="6.824275"><ele>1165.0</ele><time>2026-05-01T09:48:09.26Z</time></trkpt><trkpt lat="45.00816" lon="6.82425"><ele>1163.0</ele><time>2026-05-01T09:48:10.26Z</time></trkpt><trkpt lat="45.0079367" lon="6.824245"><ele>1161.0</ele><time>2026-05-01T09:48:11.26Z</time></trkpt><trkpt lat="45.0077383" lon="6.8242467"><ele>1159.0</ele><time>2026-05-01T09:48:12.26Z</time></trkpt><trkpt lat="45.0075417" lon="6.8242183"><ele>1168.6666666666665</ele><time>2026-05-01T09:48:13.259Z</time></trkpt><trkpt lat="45.007355" lon="6.8241883"><ele>1178.3333333333333</ele><time>2026-05-01T09:48:14.26Z</time></trkpt><trkpt lat="45.00717" lon="6.8241367"><ele>1188.0</ele><time>2026-05-01T09:48:15.26Z</time></trkpt><trkpt lat="45.0070017" lon="6.8240533"><ele>1188.0</ele><time>2026-05-01T09:48:16.26Z</time></trkpt><trkpt lat="45.0068233" lon="6.82393"><ele>1188.0</ele><time>2026-05-01T09:48:17.259Z</time></trkpt><trkpt lat="45.00668" lon="6.8237867"><ele>1188.0</ele><time>2026-05-01T09:48:18.26Z</time></trkpt><trkpt lat="45.0065233" lon="6.8236017"><ele>1193.5</ele><time>2026-05-01T09:48:19.26Z</time></trkpt><trkpt lat="45.0063517" lon="6.82335"><ele>1199.0</ele><time>2026-05-01T09:48:20.259Z</time></trkpt><trkpt lat="45.00618" lon="6.8230883"><ele>1199.0</ele><time>2026-05-01T09:48:21.259Z</time></trkpt><trkpt lat="45.0060067" lon="6.8228183"><ele>1199.0</ele><time>2026-05-01T09:48:22.26Z</time></trkpt><trkpt lat="45.0058233" lon="6.8225667"><ele>1203.0</ele><time>2026-05-01T09:48:23.259Z</time></trkpt><trkpt lat="45.00565" lon="6.82235"><ele>1207.0</ele><time>2026-05-01T09:48:24.26Z</time></trkpt><trkpt lat="45.0054733" lon="6.822125"><ele>1207.0</ele><time>2026-05-01T09:48:25.26Z</time></trkpt><trkpt lat="45.0052983" lon="6.8218967"><ele>1207.0</ele><time>2026-05-01T09:48:26.26Z</time></trkpt><trkpt lat="45.0051233" lon="6.821665"><ele>1209.5</ele><time>2026-05-01T09:48:27.259Z</time></trkpt><trkpt lat="45.0049433" lon="6.82141"><ele>1212.0</ele><time>2026-05-01T09:48:28.26Z</time></trkpt><trkpt lat="45.0046533" lon="6.8209267"><ele>1212.0</ele><time>2026-05-01T09:48:30.257Z</time></trkpt><trkpt lat="45.0045533" lon="6.8206167"><ele>1212.0</ele><time>2026-05-01T09:48:31.257Z</time></trkpt><trkpt lat="45.004585" lon="6.8203433"><ele>1212.0</ele><time>2026-05-01T09:48:32.257Z</time></trkpt><trkpt lat="45.0045417" lon="6.8200383"><ele>1208.6666666666667</ele><time>2026-05-01T09:48:33.256Z</time></trkpt><trkpt lat="45.004475" lon="6.8197517"><ele>1205.3333333333335</ele><time>2026-05-01T09:48:34.257Z</time></trkpt><trkpt lat="45.004385" lon="6.81947"><ele>1202.0</ele><time>2026-05-01T09:48:35.257Z</time></trkpt><trkpt lat="45.0042967" lon="6.8191867"><ele>1198.5</ele><time>2026-05-01T09:48:36.256Z</time></trkpt><trkpt lat="45.004205" lon="6.8188917"><ele>1195.0</ele><time>2026-05-01T09:48:37.257Z</time></trkpt><trkpt lat="45.0040683" lon="6.8186067"><ele>1206.5</ele><time>2026-05-01T09:48:38.257Z</time></trkpt><trkpt lat="45.0039267" lon="6.8183167"><ele>1218.0</ele><time>2026-05-01T09:48:39.256Z</time></trkpt><trkpt lat="45.003805" lon="6.81804"><ele>1218.0</ele><time>2026-05-01T09:48:40.257Z</time></trkpt><trkpt lat="45.0036667" lon="6.8177267"><ele>1218.0</ele><time>2026-05-01T09:48:41.257Z</time></trkpt><trkpt lat="45.003535" lon="6.8174283"><ele>1213.5</ele><time>2026-05-01T09:48:42.256Z</time></trkpt><trkpt lat="45.0033967" lon="6.817135"><ele>1209.0</ele><time>2026-05-01T09:48:43.257Z</time></trkpt><trkpt lat="45.0032683" lon="6.8168533"><ele>1211.0</ele><time>2026-05-01T09:48:44.257Z</time></trkpt><trkpt lat="45.0026217" lon="6.8153967"><ele>1221.6666666666667</ele><time>2026-05-01T09:48:49.258Z</time></trkpt><trkpt lat="45.00245" lon="6.8152467"><ele>1232.3333333333333</ele><time>2026-05-01T09:48:50.258Z</time></trkpt><trkpt lat="45.00227" lon="6.815025"><ele>1243.0</ele><time>2026-05-01T09:48:51.257Z</time></trkpt><trkpt lat="45.0021567" lon="6.8148167"><ele>1243.0</ele><time>2026-05-01T09:48:52.258Z</time></trkpt><trkpt lat="45.0020817" lon="6.8145517"><ele>1243.0</ele><time>2026-05-01T09:48:53.258Z</time></trkpt><trkpt lat="45.001995" lon="6.8142767"><ele>1243.0</ele><time>2026-05-01T09:48:54.257Z</time></trkpt><trkpt lat="45.001905" lon="6.81402"><ele>1242.3333333333333</ele><time>2026-05-01T09:48:55.258Z</time></trkpt><trkpt lat="45.0018167" lon="6.81376"><ele>1241.6666666666667</ele><time>2026-05-01T09:48:56.257Z</time></trkpt><trkpt lat="45.0017267" lon="6.8135283"><ele>1241.0</ele><time>2026-05-01T09:48:57.258Z</time></trkpt><trkpt lat="45.0016433" lon="6.8133083"><ele>1241.0</ele><time>2026-05-01T09:48:58.257Z</time></trkpt><trkpt lat="45.0015383" lon="6.8131317"><ele>1241.0</ele><time>2026-05-01T09:48:59.258Z</time></trkpt><trkpt lat="45.001405" lon="6.8129567"><ele>1241.0</ele><time>2026-05-01T09:49:00.258Z</time></trkpt><trkpt lat="45.0012417" lon="6.8127967"><ele>1237.6666666666667</ele><time>2026-05-01T09:49:01.258Z</time></trkpt><trkpt lat="45.0010683" lon="6.8126383"><ele>1234.3333333333333</ele><time>2026-05-01T09:49:02.257Z</time></trkpt><trkpt lat="45.00087" lon="6.8124967"><ele>1231.0</ele><time>2026-05-01T09:49:03.257Z</time></trkpt><trkpt lat="45.00063" lon="6.8123817"><ele>1231.0</ele><time>2026-05-01T09:49:04.258Z</time></trkpt><trkpt lat="45.0003667" lon="6.812285"><ele>1231.0</ele><time>2026-05-01T09:49:05.258Z</time></trkpt><trkpt lat="45.00011" lon="6.81221"><ele>1231.0</ele><time>2026-05-01T09:49:06.257Z</time></trkpt><trkpt lat="44.99987" lon="6.81213"><ele>1231.0</ele><time>2026-05-01T09:49:07.258Z</time></trkpt><trkpt lat="44.9996367" lon="6.81205"><ele>1231.0</ele><time>2026-05-01T09:49:08.258Z</time></trkpt><trkpt lat="44.9994117" lon="6.8119683"><ele>1231.0</ele><time>2026-05-01T09:49:09.258Z</time></trkpt><trkpt lat="44.9992" lon="6.81193"><ele>1231.0</ele><time>2026-05-01T09:49:10.258Z</time></trkpt><trkpt lat="44.9990067" lon="6.8118883"><ele>1225.6666666666665</ele><time>2026-05-01T09:49:11.258Z</time></trkpt><trkpt lat="44.9988117" lon="6.8118333"><ele>1220.3333333333333</ele><time>2026-05-01T09:49:12.258Z</time></trkpt><trkpt lat="44.9986217" lon="6.8117567"><ele>1215.0</ele><time>2026-05-01T09:49:13.257Z</time></trkpt><trkpt lat="44.99843" lon="6.8116917"><ele>1223.0</ele><time>2026-05-01T09:49:14.257Z</time></trkpt><trkpt lat="44.9982483" lon="6.81161"><ele>1231.0</ele><time>2026-05-01T09:49:15.257Z</time></trkpt><trkpt lat="44.9980683" lon="6.811515"><ele>1239.0</ele><time>2026-05-01T09:49:16.257Z</time></trkpt><trkpt lat="44.9978833" lon="6.8113383"><ele>1239.0</ele><time>2026-05-01T09:49:17.258Z</time></trkpt><trkpt lat="44.9977117" lon="6.8111467"><ele>1239.0</ele><time>2026-05-01T09:49:18.258Z</time></trkpt><trkpt lat="44.997565" lon="6.81092"><ele>1239.0</ele><time>2026-05-01T09:49:19.258Z</time></trkpt><trkpt lat="44.997415" lon="6.810695"><ele>1243.0</ele><time>2026-05-01T09:49:20.257Z</time></trkpt><trkpt lat="44.9972517" lon="6.8104867"><ele>1247.0</ele><time>2026-05-01T09:49:21.258Z</time></trkpt><trkpt lat="44.9970867" lon="6.8102917"><ele>1251.0</ele><time>2026-05-01T09:49:22.257Z</time></trkpt><trkpt lat="44.9969283" lon="6.8101017"><ele>1254.0</ele><time>2026-05-01T09:49:23.257Z</time></trkpt><trkpt lat="44.996765" lon="6.8099333"><ele>1257.0</ele><time>2026-05-01T09:49:24.258Z</time></trkpt><trkpt lat="44.996605" lon="6.80977"><ele>1260.0</ele><time>2026-05-01T09:49:25.257Z</time></trkpt><trkpt lat="44.9964433" lon="6.8095917"><ele>1260.0</ele><time>2026-05-01T09:49:26.257Z</time></trkpt><trkpt lat="44.9962967" lon="6.8094083"><ele>1260.0</ele><time>2026-05-01T09:49:27.258Z</time></trkpt><trkpt lat="44.99617" lon="6.8092067"><ele>1260.0</ele><time>2026-05-01T09:49:28.258Z</time></trkpt><trkpt lat="44.9960167" lon="6.8090283"><ele>1260.6666666666667</ele><time>2026-05-01T09:49:29.258Z</time></trkpt><trkpt lat="44.9958567" lon="6.808855"><ele>1261.3333333333335</ele><time>2026-05-01T09:49:30.258Z</time></trkpt><trkpt lat="44.9956917" lon="6.8087"><ele>1262.0</ele><time>2026-05-01T09:49:31.258Z</time></trkpt><trkpt lat="44.99551" lon="6.8085617"><ele>1256.6666666666667</ele><time>2026-05-01T09:49:32.257Z</time></trkpt><trkpt lat="44.99533" lon="6.80843"><ele>1251.3333333333333</ele><time>2026-05-01T09:49:33.257Z</time></trkpt><trkpt lat="44.9951517" lon="6.808305"><ele>1246.0</ele><time>2026-05-01T09:49:34.258Z</time></trkpt><trkpt lat="44.99494" lon="6.80818"><ele>1246.0</ele><time>2026-05-01T09:49:35.258Z</time></trkpt><trkpt lat="44.9947167" lon="6.8080533"><ele>1246.0</ele><time>2026-05-01T09:49:36.258Z</time></trkpt><trkpt lat="44.9944967" lon="6.8079233"><ele>1246.0</ele><time>2026-05-01T09:49:37.258Z</time></trkpt><trkpt lat="44.9942883" lon="6.8078083"><ele>1246.0</ele><time>2026-05-01T09:49:38.258Z</time></trkpt><trkpt lat="44.994085" lon="6.8077"><ele>1246.0</ele><time>2026-05-01T09:49:39.257Z</time></trkpt><trkpt lat="44.9938817" lon="6.80761"><ele>1240.6666666666665</ele><time>2026-05-01T09:49:40.257Z</time></trkpt><trkpt lat="44.993675" lon="6.80753"><ele>1235.3333333333333</ele><time>2026-05-01T09:49:41.258Z</time></trkpt><trkpt lat="44.9934617" lon="6.807495"><ele>1230.0</ele><time>2026-05-01T09:49:42.258Z</time></trkpt><trkpt lat="44.9932267" lon="6.8075017"><ele>1230.0</ele><time>2026-05-01T09:49:43.258Z</time></trkpt><trkpt lat="44.9929883" lon="6.8075233"><ele>1230.0</ele><time>2026-05-01T09:49:44.258Z</time></trkpt><trkpt lat="44.9927467" lon="6.807565"><ele>1230.0</ele><time>2026-05-01T09:49:45.258Z</time></trkpt><trkpt lat="44.9925133" lon="6.8076217"><ele>1230.0</ele><time>2026-05-01T09:49:46.258Z</time></trkpt><trkpt lat="44.992275" lon="6.807675"><ele>1239.3333333333333</ele><time>2026-05-01T09:49:47.258Z</time></trkpt><trkpt lat="44.992055" lon="6.8077133"><ele>1248.6666666666665</ele><time>2026-05-01T09:49:48.258Z</time></trkpt><trkpt lat="44.9918383" lon="6.80777"><ele>1258.0</ele><time>2026-05-01T09:49:49.258Z</time></trkpt><trkpt lat="44.9916117" lon="6.8078617"><ele>1258.0</ele><time>2026-05-01T09:49:50.257Z</time></trkpt><trkpt lat="44.9914133" lon="6.8079667"><ele>1258.0</ele><time>2026-05-01T09:49:51.258Z</time></trkpt><trkpt lat="44.9912017" lon="6.8080467"><ele>1258.0</ele><time>2026-05-01T09:49:52.258Z</time></trkpt><trkpt lat="44.9909933" lon="6.808165"><ele>1252.0</ele><time>2026-05-01T09:49:53.258Z</time></trkpt><trkpt lat="44.9908067" lon="6.8083117"><ele>1246.0</ele><time>2026-05-01T09:49:54.257Z</time></trkpt><trkpt lat="44.9906233" lon="6.80844"><ele>1240.0</ele><time>2026-05-01T09:49:55.258Z</time></trkpt><trkpt lat="44.99043" lon="6.8085383"><ele>1254.3333333333333</ele><time>2026-05-01T09:49:56.258Z</time></trkpt><trkpt lat="44.9902317" lon="6.80861"><ele>1268.6666666666667</ele><time>2026-05-01T09:49:57.257Z</time></trkpt><trkpt lat="44.99003" lon="6.8086433"><ele>1283.0</ele><time>2026-05-01T09:49:58.258Z</time></trkpt><trkpt lat="44.9898117" lon="6.8086017"><ele>1284.0</ele><time>2026-05-01T09:49:59.257Z</time></trkpt><trkpt lat="44.9895833" lon="6.8085683"><ele>1285.0</ele><time>2026-05-01T09:50:00.258Z</time></trkpt><trkpt lat="44.9893433" lon="6.8085233"><ele>1269.0</ele><time>2026-05-01T09:50:01.257Z</time></trkpt><trkpt lat="44.9890883" lon="6.808445"><ele>1253.0</ele><time>2026-05-01T09:50:02.258Z</time></trkpt><trkpt lat="44.9888233" lon="6.8083333"><ele>1253.0</ele><time>2026-05-01T09:50:03.258Z</time></trkpt><trkpt lat="44.9885733" lon="6.8082333"><ele>1253.0</ele><time>2026-05-01T09:50:04.258Z</time></trkpt><trkpt lat="44.988315" lon="6.8081567"><ele>1258.5</ele><time>2026-05-01T09:50:05.258Z</time></trkpt><trkpt lat="44.9880633" lon="6.80808"><ele>1264.0</ele><time>2026-05-01T09:50:06.258Z</time></trkpt><trkpt lat="44.9878083" lon="6.8080033"><ele>1264.0</ele><time>2026-05-01T09:50:07.258Z</time></trkpt><trkpt lat="44.98755" lon="6.807935"><ele>1264.0</ele><time>2026-05-01T09:50:08.258Z</time></trkpt><trkpt lat="44.9872917" lon="6.8078567"><ele>1265.5</ele><time>2026-05-01T09:50:09.257Z</time></trkpt><trkpt lat="44.9870033" lon="6.8077867"><ele>1267.0</ele><time>2026-05-01T09:50:10.258Z</time></trkpt><trkpt lat="44.98675" lon="6.8077167"><ele>1255.5</ele><time>2026-05-01T09:50:11.257Z</time></trkpt><trkpt lat="44.9865067" lon="6.8076317"><ele>1244.0</ele><time>2026-05-01T09:50:12.257Z</time></trkpt><trkpt lat="44.9862733" lon="6.80751"><ele>1244.0</ele><time>2026-05-01T09:50:13.258Z</time></trkpt><trkpt lat="44.9860367" lon="6.80737"><ele>1244.0</ele><time>2026-05-01T09:50:14.258Z</time></trkpt><trkpt lat="44.98581" lon="6.8072617"><ele>1247.5</ele><time>2026-05-01T09:50:15.258Z</time></trkpt><trkpt lat="44.9855733" lon="6.8071617"><ele>1251.0</ele><time>2026-05-01T09:50:16.257Z</time></trkpt><trkpt lat="44.9853383" lon="6.80708"><ele>1251.0</ele><time>2026-05-01T09:50:17.257Z</time></trkpt><trkpt lat="44.9851067" lon="6.807015"><ele>1251.0</ele><time>2026-05-01T09:50:18.257Z</time></trkpt><trkpt lat="44.9848817" lon="6.8069467"><ele>1254.0</ele><time>2026-05-01T09:50:19.258Z</time></trkpt><trkpt lat="44.9846933" lon="6.806915"><ele>1257.0</ele><time>2026-05-01T09:50:20.258Z</time></trkpt><trkpt lat="44.98451" lon="6.8068783"><ele>1260.0</ele><time>2026-05-01T09:50:21.258Z</time></trkpt><trkpt lat="44.9843617" lon="6.8068583"><ele>1260.0</ele><time>2026-05-01T09:50:22.258Z</time></trkpt><trkpt lat="44.9842083" lon="6.8068517"><ele>1260.0</ele><time>2026-05-01T09:50:23.258Z</time></trkpt><trkpt lat="44.9840783" lon="6.8068533"><ele>1260.0</ele><time>2026-05-01T09:50:24.258Z</time></trkpt><trkpt lat="44.9839883" lon="6.806875"><ele>1260.0</ele><time>2026-05-01T09:50:25.258Z</time></trkpt><trkpt lat="44.9839017" lon="6.806895"><ele>1262.0</ele><time>2026-05-01T09:50:26.257Z</time></trkpt><trkpt lat="44.9838067" lon="6.8068967"><ele>1264.0</ele><time>2026-05-01T09:50:28.258Z</time></trkpt><trkpt lat="44.983895" lon="6.8068867"><ele>1266.0</ele><time>2026-05-01T09:50:30.257Z</time></trkpt><trkpt lat="44.9838517" lon="6.8069583"><ele>1268.0</ele><time>2026-05-01T09:50:47.258Z</time></trkpt><trkpt lat="44.9837317" lon="6.8069183"><ele>1270.0</ele><time>2026-05-01T09:50:49.258Z</time></trkpt><trkpt lat="44.9836483" lon="6.806895"><ele>1270.0</ele><time>2026-05-01T09:50:50.258Z</time></trkpt><trkpt lat="44.98354" lon="6.8068417"><ele>1270.0</ele><time>2026-05-01T09:50:51.258Z</time></trkpt><trkpt lat="44.9834267" lon="6.8067683"><ele>1270.0</ele><time>2026-05-01T09:50:52.257Z</time></trkpt><trkpt lat="44.9833117" lon="6.8067133"><ele>1270.0</ele><time>2026-05-01T09:50:53.257Z</time></trkpt><trkpt lat="44.9831817" lon="6.8066783"><ele>1262.6666666666665</ele><time>2026-05-01T09:50:54.258Z</time></trkpt><trkpt lat="44.9830233" lon="6.8066617"><ele>1255.3333333333333</ele><time>2026-05-01T09:50:55.258Z</time></trkpt><trkpt lat="44.982835" lon="6.806655"><ele>1248.0</ele><time>2026-05-01T09:50:56.258Z</time></trkpt><trkpt lat="44.9826483" lon="6.8066583"><ele>1248.6666666666667</ele><time>2026-05-01T09:50:57.257Z</time></trkpt><trkpt lat="44.982455" lon="6.8066467"><ele>1249.3333333333335</ele><time>2026-05-01T09:50:58.257Z</time></trkpt><trkpt lat="44.98226" lon="6.806605"><ele>1250.0</ele><time>2026-05-01T09:50:59.257Z</time></trkpt><trkpt lat="44.9820683" lon="6.806545"><ele>1250.0</ele><time>2026-05-01T09:51:00.258Z</time></trkpt><trkpt lat="44.98188" lon="6.8064717"><ele>1250.0</ele><time>2026-05-01T09:51:01.258Z</time></trkpt><trkpt lat="44.9817067" lon="6.80638"><ele>1250.0</ele><time>2026-05-01T09:51:02.258Z</time></trkpt><trkpt lat="44.9815483" lon="6.806265"><ele>1248.0</ele><time>2026-05-01T09:51:03.257Z</time></trkpt><trkpt lat="44.9814117" lon="6.80613"><ele>1246.0</ele><time>2026-05-01T09:51:04.257Z</time></trkpt><trkpt lat="44.98125" lon="6.8060167"><ele>1244.0</ele><time>2026-05-01T09:51:05.258Z</time></trkpt><trkpt lat="44.9810917" lon="6.8059217"><ele>1244.0</ele><time>2026-05-01T09:51:06.258Z</time></trkpt><trkpt lat="44.9809067" lon="6.8058333"><ele>1244.0</ele><time>2026-05-01T09:51:07.258Z</time></trkpt><trkpt lat="44.9807033" lon="6.8057733"><ele>1244.0</ele><time>2026-05-01T09:51:08.258Z</time></trkpt><trkpt lat="44.9804933" lon="6.8057417"><ele>1249.3333333333335</ele><time>2026-05-01T09:51:09.258Z</time></trkpt><trkpt lat="44.9802967" lon="6.8057033"><ele>1254.6666666666667</ele><time>2026-05-01T09:51:10.258Z</time></trkpt><trkpt lat="44.9800917" lon="6.805685"><ele>1260.0</ele><time>2026-05-01T09:51:11.258Z</time></trkpt><trkpt lat="44.9798917" lon="6.80565"><ele>1263.0</ele><time>2026-05-01T09:51:12.258Z</time></trkpt><trkpt lat="44.97969" lon="6.8056217"><ele>1266.0</ele><time>2026-05-01T09:51:13.257Z</time></trkpt><trkpt lat="44.97949" lon="6.8055717"><ele>1269.0</ele><time>2026-05-01T09:51:14.258Z</time></trkpt><trkpt lat="44.9793033" lon="6.805505"><ele>1272.6666666666667</ele><time>2026-05-01T09:51:15.257Z</time></trkpt><trkpt lat="44.9791167" lon="6.8054083"><ele>1276.3333333333335</ele><time>2026-05-01T09:51:16.257Z</time></trkpt><trkpt lat="44.9789283" lon="6.8052833"><ele>1280.0</ele><time>2026-05-01T09:51:17.258Z</time></trkpt><trkpt lat="44.9787533" lon="6.805105"><ele>1269.0</ele><time>2026-05-01T09:51:18.258Z</time></trkpt><trkpt lat="44.9785817" lon="6.8049033"><ele>1258.0</ele><time>2026-05-01T09:51:19.257Z</time></trkpt><trkpt lat="44.97841" lon="6.8046733"><ele>1264.0</ele><time>2026-05-01T09:51:20.258Z</time></trkpt><trkpt lat="44.97825" lon="6.80441"><ele>1270.0</ele><time>2026-05-01T09:51:21.258Z</time></trkpt><trkpt lat="44.97808" lon="6.8041533"><ele>1270.0</ele><time>2026-05-01T09:51:22.258Z</time></trkpt><trkpt lat="44.9778983" lon="6.8039167"><ele>1270.0</ele><time>2026-05-01T09:51:23.257Z</time></trkpt><trkpt lat="44.9777267" lon="6.80366"><ele>1276.0</ele><time>2026-05-01T09:51:24.258Z</time></trkpt><trkpt lat="44.9775483" lon="6.8034333"><ele>1282.0</ele><time>2026-05-01T09:51:25.258Z</time></trkpt><trkpt lat="44.9773833" lon="6.8032083"><ele>1282.0</ele><time>2026-05-01T09:51:26.258Z</time></trkpt><trkpt lat="44.9772367" lon="6.8029733"><ele>1282.0</ele><time>2026-05-01T09:51:27.257Z</time></trkpt><trkpt lat="44.9771" lon="6.8027567"><ele>1282.0</ele><time>2026-05-01T09:51:28.258Z</time></trkpt><trkpt lat="44.9769767" lon="6.8025133"><ele>1277.0</ele><time>2026-05-01T09:51:29.257Z</time></trkpt><trkpt lat="44.9768683" lon="6.8022533"><ele>1272.0</ele><time>2026-05-01T09:51:30.258Z</time></trkpt><trkpt lat="44.97678" lon="6.801955"><ele>1267.0</ele><time>2026-05-01T09:51:31.258Z</time></trkpt><trkpt lat="44.976695" lon="6.8016467"><ele>1276.0</ele><time>2026-05-01T09:51:32.258Z</time></trkpt><trkpt lat="44.9766283" lon="6.801325"><ele>1285.0</ele><time>2026-05-01T09:51:33.258Z</time></trkpt><trkpt lat="44.97656" lon="6.801025"><ele>1283.3333333333333</ele><time>2026-05-01T09:51:34.257Z</time></trkpt><trkpt lat="44.976475" lon="6.80074"><ele>1281.6666666666667</ele><time>2026-05-01T09:51:35.257Z</time></trkpt><trkpt lat="44.97638" lon="6.8004967"><ele>1280.0</ele><time>2026-05-01T09:51:36.258Z</time></trkpt><trkpt lat="44.97628" lon="6.80027"><ele>1276.0</ele><time>2026-05-01T09:51:37.258Z</time></trkpt><trkpt lat="44.9761583" lon="6.80005"><ele>1272.0</ele><time>2026-05-01T09:51:38.258Z</time></trkpt><trkpt lat="44.9760233" lon="6.7998567"><ele>1268.0</ele><time>2026-05-01T09:51:39.258Z</time></trkpt><trkpt lat="44.9758583" lon="6.7996917"><ele>1274.0</ele><time>2026-05-01T09:51:40.258Z</time></trkpt><trkpt lat="44.9757067" lon="6.7995517"><ele>1280.0</ele><time>2026-05-01T09:51:41.258Z</time></trkpt><trkpt lat="44.97553" lon="6.7994267"><ele>1286.0</ele><time>2026-05-01T09:51:42.258Z</time></trkpt><trkpt lat="44.9753183" lon="6.7993467"><ele>1280.0</ele><time>2026-05-01T09:51:43.258Z</time></trkpt><trkpt lat="44.975075" lon="6.7992917"><ele>1274.0</ele><time>2026-05-01T09:51:44.258Z</time></trkpt><trkpt lat="44.97479" lon="6.7992583"><ele>1274.0</ele><time>2026-05-01T09:51:45.258Z</time></trkpt><trkpt lat="44.9745633" lon="6.7991783"><ele>1274.0</ele><time>2026-05-01T09:51:46.258Z</time></trkpt><trkpt lat="44.9743283" lon="6.7991067"><ele>1280.5</ele><time>2026-05-01T09:51:47.258Z</time></trkpt><trkpt lat="44.9740833" lon="6.7990417"><ele>1287.0</ele><time>2026-05-01T09:51:48.258Z</time></trkpt><trkpt lat="44.9738333" lon="6.7989833"><ele>1287.0</ele><time>2026-05-01T09:51:49.258Z</time></trkpt><trkpt lat="44.9736067" lon="6.7989467"><ele>1287.0</ele><time>2026-05-01T09:51:50.258Z</time></trkpt><trkpt lat="44.97336" lon="6.798865"><ele>1289.0</ele><time>2026-05-01T09:51:51.257Z</time></trkpt><trkpt lat="44.9731217" lon="6.7987917"><ele>1291.0</ele><time>2026-05-01T09:51:52.257Z</time></trkpt><trkpt lat="44.972845" lon="6.7987283"><ele>1291.0</ele><time>2026-05-01T09:51:53.257Z</time></trkpt><trkpt lat="44.972605" lon="6.79865"><ele>1291.0</ele><time>2026-05-01T09:51:54.258Z</time></trkpt><trkpt lat="44.9723633" lon="6.7985617"><ele>1286.5</ele><time>2026-05-01T09:51:55.258Z</time></trkpt><trkpt lat="44.972125" lon="6.7984717"><ele>1282.0</ele><time>2026-05-01T09:51:56.258Z</time></trkpt><trkpt lat="44.9718683" lon="6.7983833"><ele>1286.3333333333333</ele><time>2026-05-01T09:51:57.258Z</time></trkpt><trkpt lat="44.9716533" lon="6.79828"><ele>1290.6666666666667</ele><time>2026-05-01T09:51:58.257Z</time></trkpt><trkpt lat="44.9714517" lon="6.7981667"><ele>1295.0</ele><time>2026-05-01T09:51:59.257Z</time></trkpt><trkpt lat="44.9712567" lon="6.79807"><ele>1295.0</ele><time>2026-05-01T09:52:00.258Z</time></trkpt><trkpt lat="44.9711017" lon="6.7979933"><ele>1295.0</ele><time>2026-05-01T09:52:01.257Z</time></trkpt><trkpt lat="44.9709233" lon="6.798"><ele>1295.0</ele><time>2026-05-01T09:52:02.258Z</time></trkpt><trkpt lat="44.9707367" lon="6.7979783"><ele>1298.3333333333335</ele><time>2026-05-01T09:52:03.257Z</time></trkpt><trkpt lat="44.9705567" lon="6.7979867"><ele>1301.6666666666667</ele><time>2026-05-01T09:52:04.258Z</time></trkpt><trkpt lat="44.9703817" lon="6.7980317"><ele>1305.0</ele><time>2026-05-01T09:52:05.257Z</time></trkpt><trkpt lat="44.9702" lon="6.79813"><ele>1302.6666666666667</ele><time>2026-05-01T09:52:06.258Z</time></trkpt><trkpt lat="44.9700217" lon="6.7982583"><ele>1300.3333333333335</ele><time>2026-05-01T09:52:07.258Z</time></trkpt><trkpt lat="44.9698533" lon="6.798385"><ele>1298.0</ele><time>2026-05-01T09:52:08.258Z</time></trkpt><trkpt lat="44.9696717" lon="6.7984717"><ele>1306.3333333333335</ele><time>2026-05-01T09:52:09.258Z</time></trkpt><trkpt lat="44.96947" lon="6.7985333"><ele>1314.6666666666667</ele><time>2026-05-01T09:52:10.257Z</time></trkpt><trkpt lat="44.96926" lon="6.798585"><ele>1323.0</ele><time>2026-05-01T09:52:11.257Z</time></trkpt><trkpt lat="44.9690333" lon="6.7986133"><ele>1323.0</ele><time>2026-05-01T09:52:12.258Z</time></trkpt><trkpt lat="44.9687867" lon="6.7986267"><ele>1323.0</ele><time>2026-05-01T09:52:13.258Z</time></trkpt><trkpt lat="44.96854" lon="6.7986017"><ele>1322.0</ele><time>2026-05-01T09:52:14.258Z</time></trkpt><trkpt lat="44.9683117" lon="6.79859"><ele>1321.0</ele><time>2026-05-01T09:52:15.258Z</time></trkpt><trkpt lat="44.9680883" lon="6.7985717"><ele>1321.0</ele><time>2026-05-01T09:52:16.257Z</time></trkpt><trkpt lat="44.9678717" lon="6.798535"><ele>1321.0</ele><time>2026-05-01T09:52:17.257Z</time></trkpt><trkpt lat="44.9676667" lon="6.7984967"><ele>1321.0</ele><time>2026-05-01T09:52:18.257Z</time></trkpt><trkpt lat="44.9674533" lon="6.798415"><ele>1317.3333333333333</ele><time>2026-05-01T09:52:19.257Z</time></trkpt><trkpt lat="44.9672633" lon="6.7982933"><ele>1313.6666666666667</ele><time>2026-05-01T09:52:20.258Z</time></trkpt><trkpt lat="44.9670733" lon="6.7981233"><ele>1310.0</ele><time>2026-05-01T09:52:21.257Z</time></trkpt><trkpt lat="44.9668733" lon="6.7979417"><ele>1310.5</ele><time>2026-05-01T09:52:22.258Z</time></trkpt><trkpt lat="44.966665" lon="6.7977433"><ele>1311.0</ele><time>2026-05-01T09:52:23.258Z</time></trkpt><trkpt lat="44.9664617" lon="6.79758"><ele>1311.0</ele><time>2026-05-01T09:52:24.258Z</time></trkpt><trkpt lat="44.966245" lon="6.79744"><ele>1311.0</ele><time>2026-05-01T09:52:25.258Z</time></trkpt><trkpt lat="44.9660183" lon="6.7972867"><ele>1313.0</ele><time>2026-05-01T09:52:26.258Z</time></trkpt><trkpt lat="44.9657933" lon="6.7971383"><ele>1315.0</ele><time>2026-05-01T09:52:27.258Z</time></trkpt><trkpt lat="44.965575" lon="6.796995"><ele>1315.0</ele><time>2026-05-01T09:52:28.258Z</time></trkpt><trkpt lat="44.9653617" lon="6.7968567"><ele>1315.0</ele><time>2026-05-01T09:52:29.257Z</time></trkpt><trkpt lat="44.965155" lon="6.796725"><ele>1314.6666666666665</ele><time>2026-05-01T09:52:30.258Z</time></trkpt><trkpt lat="44.9649517" lon="6.7965933"><ele>1314.3333333333333</ele><time>2026-05-01T09:52:31.258Z</time></trkpt><trkpt lat="44.9647467" lon="6.79646"><ele>1314.0</ele><time>2026-05-01T09:52:32.257Z</time></trkpt><trkpt lat="44.9645383" lon="6.796325"><ele>1314.0</ele><time>2026-05-01T09:52:33.257Z</time></trkpt><trkpt lat="44.96433" lon="6.79619"><ele>1314.0</ele><time>2026-05-01T09:52:34.258Z</time></trkpt><trkpt lat="44.9641367" lon="6.796065"><ele>1314.0</ele><time>2026-05-01T09:52:35.258Z</time></trkpt><trkpt lat="44.9639433" lon="6.7959583"><ele>1315.0</ele><time>2026-05-01T09:52:36.258Z</time></trkpt><trkpt lat="44.96374" lon="6.795895"><ele>1316.0</ele><time>2026-05-01T09:52:37.258Z</time></trkpt><trkpt lat="44.9635383" lon="6.7958733"><ele>1317.0</ele><time>2026-05-01T09:52:38.258Z</time></trkpt><trkpt lat="44.9633" lon="6.7958633"><ele>1320.5</ele><time>2026-05-01T09:52:39.258Z</time></trkpt><trkpt lat="44.96308" lon="6.7958683"><ele>1324.0</ele><time>2026-05-01T09:52:40.257Z</time></trkpt><trkpt lat="44.9628267" lon="6.79595"><ele>1324.0</ele><time>2026-05-01T09:52:41.257Z</time></trkpt><trkpt lat="44.962585" lon="6.7959633"><ele>1324.0</ele><time>2026-05-01T09:52:42.258Z</time></trkpt><trkpt lat="44.962365" lon="6.7959717"><ele>1332.0</ele><time>2026-05-01T09:52:43.258Z</time></trkpt><trkpt lat="44.9621683" lon="6.7960067"><ele>1340.0</ele><time>2026-05-01T09:52:44.258Z</time></trkpt><trkpt lat="44.961975" lon="6.7960333"><ele>1348.0</ele><time>2026-05-01T09:52:45.258Z</time></trkpt><trkpt lat="44.9618017" lon="6.7960333"><ele>1348.0</ele><time>2026-05-01T09:52:46.257Z</time></trkpt><trkpt lat="44.9616317" lon="6.79597"><ele>1348.0</ele><time>2026-05-01T09:52:47.257Z</time></trkpt><trkpt lat="44.9614617" lon="6.7958367"><ele>1348.0</ele><time>2026-05-01T09:52:48.258Z</time></trkpt><trkpt lat="44.9613167" lon="6.7955983"><ele>1348.0</ele><time>2026-05-01T09:52:49.258Z</time></trkpt><trkpt lat="44.96116" lon="6.7953733"><ele>1348.0</ele><time>2026-05-01T09:52:50.258Z</time></trkpt><trkpt lat="44.961025" lon="6.7952617"><ele>1348.0</ele><time>2026-05-01T09:52:51.257Z</time></trkpt><trkpt lat="44.96082" lon="6.7950983"><ele>1343.3333333333333</ele><time>2026-05-01T09:52:52.258Z</time></trkpt><trkpt lat="44.9606083" lon="6.7950133"><ele>1338.6666666666667</ele><time>2026-05-01T09:52:53.258Z</time></trkpt><trkpt lat="44.9604117" lon="6.7949933"><ele>1334.0</ele><time>2026-05-01T09:52:54.258Z</time></trkpt><trkpt lat="44.9602033" lon="6.7950567"><ele>1335.0</ele><time>2026-05-01T09:52:55.258Z</time></trkpt><trkpt lat="44.9599983" lon="6.7951633"><ele>1336.0</ele><time>2026-05-01T09:52:56.257Z</time></trkpt><trkpt lat="44.9597983" lon="6.7952833"><ele>1337.0</ele><time>2026-05-01T09:52:57.258Z</time></trkpt><trkpt lat="44.959575" lon="6.795305"><ele>1349.0</ele><time>2026-05-01T09:52:58.258Z</time></trkpt><trkpt lat="44.9593467" lon="6.7953033"><ele>1361.0</ele><time>2026-05-01T09:52:59.258Z</time></trkpt><trkpt lat="44.9591017" lon="6.7953067"><ele>1361.0</ele><time>2026-05-01T09:53:00.258Z</time></trkpt><trkpt lat="44.95888" lon="6.795285"><ele>1361.0</ele><time>2026-05-01T09:53:01.258Z</time></trkpt><trkpt lat="44.9586533" lon="6.7952733"><ele>1361.0</ele><time>2026-05-01T09:53:02.258Z</time></trkpt><trkpt lat="44.9584467" lon="6.7951883"><ele>1354.0</ele><time>2026-05-01T09:53:03.258Z</time></trkpt><trkpt lat="44.9582633" lon="6.7950683"><ele>1347.0</ele><time>2026-05-01T09:53:04.258Z</time></trkpt><trkpt lat="44.9581033" lon="6.79493"><ele>1340.0</ele><time>2026-05-01T09:53:05.258Z</time></trkpt><trkpt lat="44.957985" lon="6.7948217"><ele>1340.0</ele><time>2026-05-01T09:53:06.258Z</time></trkpt><trkpt lat="44.9578433" lon="6.7946933"><ele>1340.0</ele><time>2026-05-01T09:53:07.258Z</time></trkpt><trkpt lat="44.9577133" lon="6.7945833"><ele>1340.0</ele><time>2026-05-01T09:53:08.258Z</time></trkpt><trkpt lat="44.957595" lon="6.794485"><ele>1340.5</ele><time>2026-05-01T09:53:09.257Z</time></trkpt><trkpt lat="44.95749" lon="6.7943983"><ele>1341.0</ele><time>2026-05-01T09:53:10.258Z</time></trkpt><trkpt lat="44.9574" lon="6.794325"><ele>1341.5</ele><time>2026-05-01T09:53:11.257Z</time></trkpt><trkpt lat="44.95723" lon="6.7941883"><ele>1342.0</ele><time>2026-05-01T09:53:13.258Z</time></trkpt><trkpt lat="44.9571433" lon="6.7941283"><ele>1342.0</ele><time>2026-05-01T09:53:14.258Z</time></trkpt><trkpt lat="44.9570667" lon="6.794055"><ele>1342.0</ele><time>2026-05-01T09:53:15.257Z</time></trkpt><trkpt lat="44.9569817" lon="6.7939617"><ele>1342.0</ele><time>2026-05-01T09:53:16.257Z</time></trkpt><trkpt lat="44.9569033" lon="6.793855"><ele>1342.0</ele><time>2026-05-01T09:53:17.257Z</time></trkpt><trkpt lat="44.95683" lon="6.793715"><ele>1342.0</ele><time>2026-05-01T09:53:18.258Z</time></trkpt><trkpt lat="44.9567417" lon="6.79355"><ele>1342.6666666666665</ele><time>2026-05-01T09:53:19.258Z</time></trkpt><trkpt lat="44.9566417" lon="6.7933883"><ele>1343.3333333333333</ele><time>2026-05-01T09:53:20.257Z</time></trkpt><trkpt lat="44.9565417" lon="6.7932367"><ele>1344.0</ele><time>2026-05-01T09:53:21.258Z</time></trkpt><trkpt lat="44.9564283" lon="6.793095"><ele>1344.0</ele><time>2026-05-01T09:53:22.257Z</time></trkpt><trkpt lat="44.9563233" lon="6.7929967"><ele>1344.0</ele><time>2026-05-01T09:53:23.258Z</time></trkpt><trkpt lat="44.9562067" lon="6.7929233"><ele>1344.0</ele><time>2026-05-01T09:53:24.258Z</time></trkpt><trkpt lat="44.9560667" lon="6.792895"><ele>1344.0</ele><time>2026-05-01T09:53:25.258Z</time></trkpt><trkpt lat="44.9559267" lon="6.79288"><ele>1345.4</ele><time>2026-05-01T09:53:26.258Z</time></trkpt><trkpt lat="44.9558033" lon="6.7928783"><ele>1346.8000000000002</ele><time>2026-05-01T09:53:27.257Z</time></trkpt><trkpt lat="44.9556983" lon="6.792865"><ele>1348.1999999999998</ele><time>2026-05-01T09:53:28.258Z</time></trkpt><trkpt lat="44.955615" lon="6.792865"><ele>1349.6</ele><time>2026-05-01T09:53:29.258Z</time></trkpt><trkpt lat="44.9554967" lon="6.792835"><ele>1351.0</ele><time>2026-05-01T09:53:31.258Z</time></trkpt><trkpt lat="44.9553867" lon="6.79279"><ele>1351.0</ele><time>2026-05-01T09:53:33.258Z</time></trkpt><trkpt lat="44.9553167" lon="6.7927633"><ele>1351.0</ele><time>2026-05-01T09:53:34.258Z</time></trkpt><trkpt lat="44.9552367" lon="6.792735"><ele>1351.0</ele><time>2026-05-01T09:53:35.257Z</time></trkpt><trkpt lat="44.9551667" lon="6.7926883"><ele>1351.0</ele><time>2026-05-01T09:53:36.258Z</time></trkpt><trkpt lat="44.9550917" lon="6.7926183"><ele>1351.0</ele><time>2026-05-01T09:53:37.258Z</time></trkpt><trkpt lat="44.95501" lon="6.7925083"><ele>1351.0</ele><time>2026-05-01T09:53:38.257Z</time></trkpt><trkpt lat="44.9549183" lon="6.792385"><ele>1348.75</ele><time>2026-05-01T09:53:39.258Z</time></trkpt><trkpt lat="44.95482" lon="6.7922583"><ele>1346.5</ele><time>2026-05-01T09:53:40.257Z</time></trkpt><trkpt lat="44.9547283" lon="6.7921333"><ele>1344.25</ele><time>2026-05-01T09:53:41.258Z</time></trkpt><trkpt lat="44.9546717" lon="6.792035"><ele>1342.0</ele><time>2026-05-01T09:53:42.258Z</time></trkpt><trkpt lat="44.9546" lon="6.791925"><ele>1342.3333333333333</ele><time>2026-05-01T09:53:43.258Z</time></trkpt><trkpt lat="44.9544567" lon="6.7917533"><ele>1342.6666666666667</ele><time>2026-05-01T09:53:44.258Z</time></trkpt><trkpt lat="44.9543667" lon="6.79159"><ele>1343.0</ele><time>2026-05-01T09:53:45.258Z</time></trkpt><trkpt lat="44.9543" lon="6.7914133"><ele>1343.0</ele><time>2026-05-01T09:53:46.258Z</time></trkpt><trkpt lat="44.9542433" lon="6.7912267"><ele>1343.0</ele><time>2026-05-01T09:53:47.258Z</time></trkpt><trkpt lat="44.95422" lon="6.7910183"><ele>1343.0</ele><time>2026-05-01T09:53:48.257Z</time></trkpt><trkpt lat="44.9542183" lon="6.7908617"><ele>1343.0</ele><time>2026-05-01T09:53:49.258Z</time></trkpt><trkpt lat="44.954225" lon="6.790695"><ele>1343.0</ele><time>2026-05-01T09:53:50.257Z</time></trkpt><trkpt lat="44.954225" lon="6.790565"><ele>1343.0</ele><time>2026-05-01T09:53:51.257Z</time></trkpt><trkpt lat="44.9542033" lon="6.7904467"><ele>1343.0</ele><time>2026-05-01T09:53:52.257Z</time></trkpt><trkpt lat="44.9541817" lon="6.79036"><ele>1343.0</ele><time>2026-05-01T09:53:53.258Z</time></trkpt><trkpt lat="44.95414" lon="6.79021"><ele>1343.0</ele><time>2026-05-01T09:53:55.258Z</time></trkpt><trkpt lat="44.9540883" lon="6.79012"><ele>1343.0</ele><time>2026-05-01T09:53:56.257Z</time></trkpt><trkpt lat="44.954025" lon="6.7900383"><ele>1343.5</ele><time>2026-05-01T09:53:57.258Z</time></trkpt><trkpt lat="44.9539433" lon="6.7899683"><ele>1344.0</ele><time>2026-05-01T09:53:58.258Z</time></trkpt><trkpt lat="44.953835" lon="6.7898967"><ele>1344.5</ele><time>2026-05-01T09:53:59.258Z</time></trkpt><trkpt lat="44.95369" lon="6.789805"><ele>1345.0</ele><time>2026-05-01T09:54:00.257Z</time></trkpt><trkpt lat="44.9535233" lon="6.7897283"><ele>1345.0</ele><time>2026-05-01T09:54:01.258Z</time></trkpt><trkpt lat="44.9534" lon="6.7896233"><ele>1345.0</ele><time>2026-05-01T09:54:02.258Z</time></trkpt><trkpt lat="44.9532683" lon="6.7895117"><ele>1345.0</ele><time>2026-05-01T09:54:03.258Z</time></trkpt><trkpt lat="44.9531317" lon="6.78939"><ele>1346.3333333333333</ele><time>2026-05-01T09:54:04.258Z</time></trkpt><trkpt lat="44.9529883" lon="6.789245"><ele>1347.6666666666667</ele><time>2026-05-01T09:54:05.258Z</time></trkpt><trkpt lat="44.95285" lon="6.7890883"><ele>1349.0</ele><time>2026-05-01T09:54:06.258Z</time></trkpt><trkpt lat="44.9527217" lon="6.7888883"><ele>1349.0</ele><time>2026-05-01T09:54:07.258Z</time></trkpt><trkpt lat="44.9525967" lon="6.7886583"><ele>1349.0</ele><time>2026-05-01T09:54:08.257Z</time></trkpt><trkpt lat="44.9524833" lon="6.78837"><ele>1349.0</ele><time>2026-05-01T09:54:09.258Z</time></trkpt><trkpt lat="44.9523367" lon="6.78809"><ele>1351.5</ele><time>2026-05-01T09:54:10.258Z</time></trkpt><trkpt lat="44.9521883" lon="6.7877967"><ele>1354.0</ele><time>2026-05-01T09:54:11.258Z</time></trkpt><trkpt lat="44.9520467" lon="6.7875"><ele>1356.0</ele><time>2026-05-01T09:54:12.257Z</time></trkpt><trkpt lat="44.9519183" lon="6.787205"><ele>1358.0</ele><time>2026-05-01T09:54:13.258Z</time></trkpt><trkpt lat="44.951815" lon="6.78692"><ele>1364.0</ele><time>2026-05-01T09:54:14.257Z</time></trkpt><trkpt lat="44.9517817" lon="6.786645"><ele>1370.0</ele><time>2026-05-01T09:54:15.258Z</time></trkpt><trkpt lat="44.9517383" lon="6.7864017"><ele>1376.0</ele><time>2026-05-01T09:54:16.258Z</time></trkpt><trkpt lat="44.9517233" lon="6.7861683"><ele>1375.0</ele><time>2026-05-01T09:54:17.257Z</time></trkpt><trkpt lat="44.9516817" lon="6.7859433"><ele>1374.0</ele><time>2026-05-01T09:54:18.257Z</time></trkpt><trkpt lat="44.951625" lon="6.78575"><ele>1373.0</ele><time>2026-05-01T09:54:19.257Z</time></trkpt><trkpt lat="44.951555" lon="6.7855817"><ele>1373.0</ele><time>2026-05-01T09:54:20.258Z</time></trkpt><trkpt lat="44.9514583" lon="6.78542"><ele>1373.0</ele><time>2026-05-01T09:54:21.258Z</time></trkpt><trkpt lat="44.9513267" lon="6.78529"><ele>1373.0</ele><time>2026-05-01T09:54:22.258Z</time></trkpt><trkpt lat="44.9511933" lon="6.7851817"><ele>1375.6666666666667</ele><time>2026-05-01T09:54:23.258Z</time></trkpt><trkpt lat="44.9510583" lon="6.7851233"><ele>1378.3333333333333</ele><time>2026-05-01T09:54:24.258Z</time></trkpt><trkpt lat="44.9509033" lon="6.78513"><ele>1381.0</ele><time>2026-05-01T09:54:25.258Z</time></trkpt><trkpt lat="44.9507417" lon="6.7851633"><ele>1377.3333333333333</ele><time>2026-05-01T09:54:26.257Z</time></trkpt><trkpt lat="44.9505833" lon="6.7852433"><ele>1373.6666666666667</ele><time>2026-05-01T09:54:27.258Z</time></trkpt><trkpt lat="44.9504467" lon="6.7853533"><ele>1370.0</ele><time>2026-05-01T09:54:28.258Z</time></trkpt><trkpt lat="44.9503117" lon="6.7854967"><ele>1370.0</ele><time>2026-05-01T09:54:29.258Z</time></trkpt><trkpt lat="44.9502067" lon="6.7856333"><ele>1370.0</ele><time>2026-05-01T09:54:30.258Z</time></trkpt><trkpt lat="44.95012" lon="6.7858033"><ele>1370.0</ele><time>2026-05-01T09:54:31.258Z</time></trkpt><trkpt lat="44.950035" lon="6.786"><ele>1375.3333333333335</ele><time>2026-05-01T09:54:32.257Z</time></trkpt><trkpt lat="44.9499867" lon="6.7862433"><ele>1380.6666666666667</ele><time>2026-05-01T09:54:33.257Z</time></trkpt><trkpt lat="44.949965" lon="6.78652"><ele>1386.0</ele><time>2026-05-01T09:54:34.257Z</time></trkpt><trkpt lat="44.9499817" lon="6.786785"><ele>1387.3333333333333</ele><time>2026-05-01T09:54:35.258Z</time></trkpt><trkpt lat="44.9500317" lon="6.787065"><ele>1388.6666666666665</ele><time>2026-05-01T09:54:36.258Z</time></trkpt><trkpt lat="44.9501233" lon="6.7873483"><ele>1390.0</ele><time>2026-05-01T09:54:37.258Z</time></trkpt><trkpt lat="44.9502383" lon="6.7876167"><ele>1382.3333333333333</ele><time>2026-05-01T09:54:38.257Z</time></trkpt><trkpt lat="44.9503" lon="6.7878517"><ele>1374.6666666666667</ele><time>2026-05-01T09:54:39.258Z</time></trkpt><trkpt lat="44.9503333" lon="6.7880617"><ele>1367.0</ele><time>2026-05-01T09:54:40.258Z</time></trkpt><trkpt lat="44.9503633" lon="6.78827"><ele>1367.0</ele><time>2026-05-01T09:54:41.258Z</time></trkpt><trkpt lat="44.95035" lon="6.7884667"><ele>1367.0</ele><time>2026-05-01T09:54:42.258Z</time></trkpt><trkpt lat="44.9503183" lon="6.7886333"><ele>1367.0</ele><time>2026-05-01T09:54:43.258Z</time></trkpt><trkpt lat="44.95022" lon="6.7887983"><ele>1367.0</ele><time>2026-05-01T09:54:44.258Z</time></trkpt><trkpt lat="44.9501317" lon="6.7889383"><ele>1372.25</ele><time>2026-05-01T09:54:45.258Z</time></trkpt><trkpt lat="44.9500333" lon="6.7890533"><ele>1377.5</ele><time>2026-05-01T09:54:46.258Z</time></trkpt><trkpt lat="44.9499233" lon="6.7891133"><ele>1382.75</ele><time>2026-05-01T09:54:47.257Z</time></trkpt><trkpt lat="44.9498017" lon="6.7891117"><ele>1388.0</ele><time>2026-05-01T09:54:48.257Z</time></trkpt><trkpt lat="44.9496833" lon="6.7890533"><ele>1388.0</ele><time>2026-05-01T09:54:49.258Z</time></trkpt><trkpt lat="44.9496017" lon="6.7889717"><ele>1388.0</ele><time>2026-05-01T09:54:50.257Z</time></trkpt><trkpt lat="44.94953" lon="6.788825"><ele>1388.0</ele><time>2026-05-01T09:54:51.258Z</time></trkpt><trkpt lat="44.9494917" lon="6.7886333"><ele>1388.0</ele><time>2026-05-01T09:54:52.258Z</time></trkpt><trkpt lat="44.94948" lon="6.78842"><ele>1388.6666666666667</ele><time>2026-05-01T09:54:53.258Z</time></trkpt><trkpt lat="44.9495117" lon="6.78817"><ele>1389.3333333333333</ele><time>2026-05-01T09:54:54.258Z</time></trkpt><trkpt lat="44.949565" lon="6.7879183"><ele>1390.0</ele><time>2026-05-01T09:54:55.258Z</time></trkpt><trkpt lat="44.9496133" lon="6.7876267"><ele>1390.0</ele><time>2026-05-01T09:54:56.258Z</time></trkpt><trkpt lat="44.949665" lon="6.7873067"><ele>1390.0</ele><time>2026-05-01T09:54:57.257Z</time></trkpt><trkpt lat="44.9496717" lon="6.78707"><ele>1390.0</ele><time>2026-05-01T09:54:58.257Z</time></trkpt><trkpt lat="44.9496133" lon="6.786835"><ele>1388.6666666666665</ele><time>2026-05-01T09:54:59.258Z</time></trkpt><trkpt lat="44.9495267" lon="6.7866083"><ele>1387.3333333333333</ele><time>2026-05-01T09:55:00.257Z</time></trkpt><trkpt lat="44.9493983" lon="6.7864"><ele>1386.0</ele><time>2026-05-01T09:55:01.258Z</time></trkpt><trkpt lat="44.949265" lon="6.78623"><ele>1394.0</ele><time>2026-05-01T09:55:02.257Z</time></trkpt><trkpt lat="44.94911" lon="6.78607"><ele>1402.0</ele><time>2026-05-01T09:55:03.258Z</time></trkpt><trkpt lat="44.94895" lon="6.7859333"><ele>1410.0</ele><time>2026-05-01T09:55:04.258Z</time></trkpt><trkpt lat="44.948795" lon="6.7858083"><ele>1410.0</ele><time>2026-05-01T09:55:05.258Z</time></trkpt><trkpt lat="44.9486517" lon="6.7856983"><ele>1410.0</ele><time>2026-05-01T09:55:06.258Z</time></trkpt><trkpt lat="44.9485317" lon="6.785595"><ele>1410.0</ele><time>2026-05-01T09:55:07.258Z</time></trkpt><trkpt lat="44.94843" lon="6.7855083"><ele>1410.0</ele><time>2026-05-01T09:55:08.258Z</time></trkpt><trkpt lat="44.94837" lon="6.7854083"><ele>1411.8333333333333</ele><time>2026-05-01T09:55:09.258Z</time></trkpt><trkpt lat="44.9483183" lon="6.7852917"><ele>1413.6666666666667</ele><time>2026-05-01T09:55:10.258Z</time></trkpt><trkpt lat="44.9482967" lon="6.7851717"><ele>1415.5</ele><time>2026-05-01T09:55:11.257Z</time></trkpt><trkpt lat="44.94829" lon="6.7850633"><ele>1417.3333333333335</ele><time>2026-05-01T09:55:12.258Z</time></trkpt><trkpt lat="44.94832" lon="6.7849683"><ele>1419.1666666666667</ele><time>2026-05-01T09:55:13.258Z</time></trkpt><trkpt lat="44.9483483" lon="6.7848767"><ele>1421.0</ele><time>2026-05-01T09:55:14.258Z</time></trkpt><trkpt lat="44.9484133" lon="6.78477"><ele>1421.0</ele><time>2026-05-01T09:55:15.258Z</time></trkpt><trkpt lat="44.94853" lon="6.7846417"><ele>1421.0</ele><time>2026-05-01T09:55:16.257Z</time></trkpt><trkpt lat="44.9486917" lon="6.7844917"><ele>1421.0</ele><time>2026-05-01T09:55:17.258Z</time></trkpt><trkpt lat="44.9489067" lon="6.7843333"><ele>1422.3333333333335</ele><time>2026-05-01T09:55:18.258Z</time></trkpt><trkpt lat="44.9491067" lon="6.7842283"><ele>1423.6666666666667</ele><time>2026-05-01T09:55:19.258Z</time></trkpt><trkpt lat="44.9493083" lon="6.784155"><ele>1425.0</ele><time>2026-05-01T09:55:20.259Z</time></trkpt><trkpt lat="44.94949" lon="6.7840533"><ele>1425.0</ele><time>2026-05-01T09:55:21.259Z</time></trkpt><trkpt lat="44.949645" lon="6.7838867"><ele>1425.0</ele><time>2026-05-01T09:55:22.259Z</time></trkpt><trkpt lat="44.9498033" lon="6.7837117"><ele>1425.0</ele><time>2026-05-01T09:55:23.259Z</time></trkpt><trkpt lat="44.9499367" lon="6.783525"><ele>1427.0</ele><time>2026-05-01T09:55:24.258Z</time></trkpt><trkpt lat="44.9500267" lon="6.783315"><ele>1429.0</ele><time>2026-05-01T09:55:25.259Z</time></trkpt><trkpt lat="44.9500983" lon="6.783125"><ele>1431.0</ele><time>2026-05-01T09:55:26.259Z</time></trkpt><trkpt lat="44.9499033" lon="6.7827333"><ele>1431.0</ele><time>2026-05-01T09:55:27.259Z</time></trkpt><trkpt lat="44.949875" lon="6.7824867"><ele>1431.0</ele><time>2026-05-01T09:55:28.259Z</time></trkpt><trkpt lat="44.94983" lon="6.7822433"><ele>1431.0</ele><time>2026-05-01T09:55:29.259Z</time></trkpt><trkpt lat="44.9497233" lon="6.7820183"><ele>1431.6666666666667</ele><time>2026-05-01T09:55:30.259Z</time></trkpt><trkpt lat="44.94963" lon="6.7818117"><ele>1432.3333333333335</ele><time>2026-05-01T09:55:31.258Z</time></trkpt><trkpt lat="44.9495533" lon="6.781575"><ele>1433.0</ele><time>2026-05-01T09:55:32.259Z</time></trkpt><trkpt lat="44.9494717" lon="6.7813317"><ele>1433.0</ele><time>2026-05-01T09:55:33.259Z</time></trkpt><trkpt lat="44.9493667" lon="6.7810767"><ele>1433.0</ele><time>2026-05-01T09:55:34.258Z</time></trkpt><trkpt lat="44.949245" lon="6.780785"><ele>1433.0</ele><time>2026-05-01T09:55:35.258Z</time></trkpt><trkpt lat="44.94915" lon="6.7804883"><ele>1445.5</ele><time>2026-05-01T09:55:36.259Z</time></trkpt><trkpt lat="44.9490533" lon="6.7802117"><ele>1458.0</ele><time>2026-05-01T09:55:37.259Z</time></trkpt><trkpt lat="44.9489467" lon="6.779905"><ele>1460.0</ele><time>2026-05-01T09:55:38.259Z</time></trkpt><trkpt lat="44.9488317" lon="6.7796"><ele>1462.0</ele><time>2026-05-01T09:55:39.259Z</time></trkpt><trkpt lat="44.9487117" lon="6.7793117"><ele>1468.0</ele><time>2026-05-01T09:55:40.259Z</time></trkpt><trkpt lat="44.9485683" lon="6.779015"><ele>1474.0</ele><time>2026-05-01T09:55:41.259Z</time></trkpt><trkpt lat="44.948425" lon="6.778735"><ele>1476.6666666666665</ele><time>2026-05-01T09:55:42.259Z</time></trkpt><trkpt lat="44.9483" lon="6.7784783"><ele>1479.3333333333333</ele><time>2026-05-01T09:55:43.259Z</time></trkpt><trkpt lat="44.9481667" lon="6.7782317"><ele>1482.0</ele><time>2026-05-01T09:55:44.258Z</time></trkpt><trkpt lat="44.948035" lon="6.778025"><ele>1482.0</ele><time>2026-05-01T09:55:45.259Z</time></trkpt><trkpt lat="44.9479167" lon="6.77783"><ele>1482.0</ele><time>2026-05-01T09:55:46.259Z</time></trkpt><trkpt lat="44.9477733" lon="6.777655"><ele>1482.0</ele><time>2026-05-01T09:55:47.259Z</time></trkpt><trkpt lat="44.9476167" lon="6.7774867"><ele>1485.6666666666667</ele><time>2026-05-01T09:55:48.259Z</time></trkpt><trkpt lat="44.9474567" lon="6.7773467"><ele>1489.3333333333335</ele><time>2026-05-01T09:55:49.258Z</time></trkpt><trkpt lat="44.9473117" lon="6.7772567"><ele>1493.0</ele><time>2026-05-01T09:55:50.259Z</time></trkpt><trkpt lat="44.9471717" lon="6.7771217"><ele>1493.0</ele><time>2026-05-01T09:55:51.259Z</time></trkpt><trkpt lat="44.9470517" lon="6.776985"><ele>1493.0</ele><time>2026-05-01T09:55:52.259Z</time></trkpt><trkpt lat="44.9469633" lon="6.776825"><ele>1493.0</ele><time>2026-05-01T09:55:53.259Z</time></trkpt><trkpt lat="44.9469017" lon="6.7766283"><ele>1496.3333333333335</ele><time>2026-05-01T09:55:54.259Z</time></trkpt><trkpt lat="44.9468717" lon="6.7764083"><ele>1499.6666666666667</ele><time>2026-05-01T09:55:55.259Z</time></trkpt><trkpt lat="44.946855" lon="6.7761733"><ele>1503.0</ele><time>2026-05-01T09:55:56.259Z</time></trkpt><trkpt lat="44.946855" lon="6.7759117"><ele>1503.3333333333333</ele><time>2026-05-01T09:55:57.258Z</time></trkpt><trkpt lat="44.94687" lon="6.77562"><ele>1503.6666666666665</ele><time>2026-05-01T09:55:58.259Z</time></trkpt><trkpt lat="44.9468917" lon="6.7753267"><ele>1504.0</ele><time>2026-05-01T09:55:59.259Z</time></trkpt><trkpt lat="44.94692" lon="6.7750133"><ele>1504.0</ele><time>2026-05-01T09:56:00.259Z</time></trkpt><trkpt lat="44.9469383" lon="6.7746983"><ele>1504.0</ele><time>2026-05-01T09:56:01.258Z</time></trkpt><trkpt lat="44.9470567" lon="6.7742983"><ele>1503.0</ele><time>2026-05-01T09:56:02.259Z</time></trkpt><trkpt lat="44.947085" lon="6.7740017"><ele>1502.0</ele><time>2026-05-01T09:56:03.258Z</time></trkpt><trkpt lat="44.947115" lon="6.7737267"><ele>1501.0</ele><time>2026-05-01T09:56:04.258Z</time></trkpt><trkpt lat="44.9471467" lon="6.77346"><ele>1501.0</ele><time>2026-05-01T09:56:05.258Z</time></trkpt><trkpt lat="44.9471683" lon="6.7732233"><ele>1501.0</ele><time>2026-05-01T09:56:06.258Z</time></trkpt><trkpt lat="44.9471833" lon="6.77302"><ele>1501.0</ele><time>2026-05-01T09:56:07.259Z</time></trkpt><trkpt lat="44.9472017" lon="6.7728483"><ele>1501.0</ele><time>2026-05-01T09:56:08.258Z</time></trkpt><trkpt lat="44.9472117" lon="6.772675"><ele>1502.25</ele><time>2026-05-01T09:56:09.259Z</time></trkpt><trkpt lat="44.9472283" lon="6.77248"><ele>1503.5</ele><time>2026-05-01T09:56:10.259Z</time></trkpt><trkpt lat="44.9472283" lon="6.7723"><ele>1504.75</ele><time>2026-05-01T09:56:11.259Z</time></trkpt><trkpt lat="44.9472383" lon="6.77213"><ele>1506.0</ele><time>2026-05-01T09:56:12.259Z</time></trkpt><trkpt lat="44.9472717" lon="6.7719683"><ele>1507.0</ele><time>2026-05-01T09:56:13.259Z</time></trkpt><trkpt lat="44.9473433" lon="6.771855"><ele>1508.0</ele><time>2026-05-01T09:56:14.259Z</time></trkpt><trkpt lat="44.947405" lon="6.7717417"><ele>1509.0</ele><time>2026-05-01T09:56:15.258Z</time></trkpt><trkpt lat="44.9474833" lon="6.7716617"><ele>1510.0</ele><time>2026-05-01T09:56:16.259Z</time></trkpt><trkpt lat="44.9475867" lon="6.7716217"><ele>1511.0</ele><time>2026-05-01T09:56:17.258Z</time></trkpt><trkpt lat="44.947695" lon="6.7715883"><ele>1518.5</ele><time>2026-05-01T09:56:18.259Z</time></trkpt><trkpt lat="44.9478067" lon="6.771595"><ele>1526.0</ele><time>2026-05-01T09:56:19.259Z</time></trkpt><trkpt lat="44.9479283" lon="6.77165"><ele>1533.5</ele><time>2026-05-01T09:56:20.258Z</time></trkpt><trkpt lat="44.9480483" lon="6.771745"><ele>1541.0</ele><time>2026-05-01T09:56:21.259Z</time></trkpt><trkpt lat="44.94814" lon="6.77181"><ele>1541.0</ele><time>2026-05-01T09:56:22.258Z</time></trkpt><trkpt lat="44.9482283" lon="6.7718383"><ele>1541.0</ele><time>2026-05-01T09:56:23.259Z</time></trkpt><trkpt lat="44.948315" lon="6.7718617"><ele>1541.0</ele><time>2026-05-01T09:56:24.259Z</time></trkpt><trkpt lat="44.9494077" lon="6.7762235"><ele>1544.0</ele><time>2026-05-01T09:56:36.46Z</time></trkpt><trkpt lat="44.9498217" lon="6.777025"><ele>1544.0</ele><time>2026-05-01T09:56:41.261Z</time></trkpt><trkpt lat="44.9499" lon="6.7771767"><ele>1544.0</ele><time>2026-05-01T09:56:42.261Z</time></trkpt><trkpt lat="44.9500467" lon="6.7772917"><ele>1544.0</ele><time>2026-05-01T09:56:43.261Z</time></trkpt><trkpt lat="44.9502017" lon="6.7774"><ele>1552.0</ele><time>2026-05-01T09:56:44.261Z</time></trkpt><trkpt lat="44.9503417" lon="6.7774833"><ele>1560.0</ele><time>2026-05-01T09:56:45.261Z</time></trkpt><trkpt lat="44.9505183" lon="6.777555"><ele>1568.0</ele><time>2026-05-01T09:56:46.261Z</time></trkpt><trkpt lat="44.95071" lon="6.7775967"><ele>1567.6666666666665</ele><time>2026-05-01T09:56:47.26Z</time></trkpt><trkpt lat="44.9509067" lon="6.7776583"><ele>1567.3333333333335</ele><time>2026-05-01T09:56:48.261Z</time></trkpt><trkpt lat="44.9510933" lon="6.777745"><ele>1567.0</ele><time>2026-05-01T09:56:49.26Z</time></trkpt><trkpt lat="44.9512867" lon="6.7778533"><ele>1567.0</ele><time>2026-05-01T09:56:50.26Z</time></trkpt><trkpt lat="44.95146" lon="6.7779983"><ele>1567.0</ele><time>2026-05-01T09:56:51.261Z</time></trkpt><trkpt lat="44.9516067" lon="6.7781867"><ele>1567.0</ele><time>2026-05-01T09:56:52.261Z</time></trkpt><trkpt lat="44.951745" lon="6.7783517"><ele>1576.0</ele><time>2026-05-01T09:56:53.261Z</time></trkpt><trkpt lat="44.9518533" lon="6.7785267"><ele>1585.0</ele><time>2026-05-01T09:56:54.261Z</time></trkpt><trkpt lat="44.9519133" lon="6.778715"><ele>1594.0</ele><time>2026-05-01T09:56:55.26Z</time></trkpt><trkpt lat="44.95195" lon="6.7789233"><ele>1594.0</ele><time>2026-05-01T09:56:56.261Z</time></trkpt><trkpt lat="44.9519767" lon="6.7790817"><ele>1594.0</ele><time>2026-05-01T09:56:57.261Z</time></trkpt><trkpt lat="44.952005" lon="6.779215"><ele>1594.0</ele><time>2026-05-01T09:56:58.261Z</time></trkpt><trkpt lat="44.9520533" lon="6.7793083"><ele>1594.0</ele><time>2026-05-01T09:56:59.261Z</time></trkpt><trkpt lat="44.9521567" lon="6.779315"><ele>1594.0</ele><time>2026-05-01T09:57:01.261Z</time></trkpt><trkpt lat="44.9522" lon="6.77923"><ele>1594.0</ele><time>2026-05-01T09:57:02.261Z</time></trkpt><trkpt lat="44.952215" lon="6.779115"><ele>1594.0</ele><time>2026-05-01T09:57:03.261Z</time></trkpt><trkpt lat="44.9522283" lon="6.7789833"><ele>1594.0</ele><time>2026-05-01T09:57:04.261Z</time></trkpt><trkpt lat="44.9522183" lon="6.7788017"><ele>1594.0</ele><time>2026-05-01T09:57:05.261Z</time></trkpt><trkpt lat="44.9521783" lon="6.7786183"><ele>1594.0</ele><time>2026-05-01T09:57:06.261Z</time></trkpt><trkpt lat="44.9520817" lon="6.77842"><ele>1597.6666666666667</ele><time>2026-05-01T09:57:07.261Z</time></trkpt><trkpt lat="44.9519533" lon="6.7782133"><ele>1601.3333333333335</ele><time>2026-05-01T09:57:08.26Z</time></trkpt><trkpt lat="44.95183" lon="6.7780217"><ele>1605.0</ele><time>2026-05-01T09:57:09.26Z</time></trkpt><trkpt lat="44.9516783" lon="6.7778167"><ele>1601.5</ele><time>2026-05-01T09:57:10.261Z</time></trkpt><trkpt lat="44.9514883" lon="6.777575"><ele>1598.0</ele><time>2026-05-01T09:57:11.26Z</time></trkpt><trkpt lat="44.951325" lon="6.7773517"><ele>1598.0</ele><time>2026-05-01T09:57:12.261Z</time></trkpt><trkpt lat="44.951165" lon="6.7771217"><ele>1598.0</ele><time>2026-05-01T09:57:13.261Z</time></trkpt><trkpt lat="44.9510083" lon="6.77689"><ele>1597.3333333333333</ele><time>2026-05-01T09:57:14.261Z</time></trkpt><trkpt lat="44.9508933" lon="6.7766283"><ele>1596.6666666666665</ele><time>2026-05-01T09:57:15.26Z</time></trkpt><trkpt lat="44.9508033" lon="6.77638"><ele>1596.0</ele><time>2026-05-01T09:57:16.26Z</time></trkpt><trkpt lat="44.9507217" lon="6.7761417"><ele>1599.0</ele><time>2026-05-01T09:57:17.261Z</time></trkpt><trkpt lat="44.9506767" lon="6.7758967"><ele>1602.0</ele><time>2026-05-01T09:57:18.26Z</time></trkpt><trkpt lat="44.9506567" lon="6.7756417"><ele>1605.0</ele><time>2026-05-01T09:57:19.26Z</time></trkpt><trkpt lat="44.950665" lon="6.7753667"><ele>1607.3333333333335</ele><time>2026-05-01T09:57:20.261Z</time></trkpt><trkpt lat="44.95067" lon="6.7751017"><ele>1609.6666666666667</ele><time>2026-05-01T09:57:21.261Z</time></trkpt><trkpt lat="44.95066" lon="6.7748483"><ele>1612.0</ele><time>2026-05-01T09:57:22.261Z</time></trkpt><trkpt lat="44.9506317" lon="6.774605"><ele>1612.0</ele><time>2026-05-01T09:57:23.261Z</time></trkpt><trkpt lat="44.9506067" lon="6.77436"><ele>1612.0</ele><time>2026-05-01T09:57:24.261Z</time></trkpt><trkpt lat="44.9505817" lon="6.774115"><ele>1612.0</ele><time>2026-05-01T09:57:25.261Z</time></trkpt><trkpt lat="44.94229" lon="6.7586317"><ele>1639.3999999999999</ele><time>2026-05-01T09:58:45.258Z</time></trkpt><trkpt lat="44.9422483" lon="6.7584683"><ele>1666.8</ele><time>2026-05-01T09:58:46.257Z</time></trkpt><trkpt lat="44.9421583" lon="6.758425"><ele>1694.2</ele><time>2026-05-01T09:58:47.257Z</time></trkpt><trkpt lat="44.942165" lon="6.7583283"><ele>1721.6</ele><time>2026-05-01T09:58:48.258Z</time></trkpt><trkpt lat="44.9421133" lon="6.7582117"><ele>1749.0</ele><time>2026-05-01T09:58:50.257Z</time></trkpt><trkpt lat="44.9420133" lon="6.7580567"><ele>1749.0</ele><time>2026-05-01T09:58:52.257Z</time></trkpt><trkpt lat="44.9419983" lon="6.7579417"><ele>1749.0</ele><time>2026-05-01T09:58:53.257Z</time></trkpt><trkpt lat="44.9419917" lon="6.75782"><ele>1749.0</ele><time>2026-05-01T09:58:54.258Z</time></trkpt><trkpt lat="44.9419833" lon="6.75769"><ele>1749.0</ele><time>2026-05-01T09:58:55.258Z</time></trkpt><trkpt lat="44.9419767" lon="6.757545"><ele>1749.0</ele><time>2026-05-01T09:58:56.258Z</time></trkpt><trkpt lat="44.9419533" lon="6.75742"><ele>1788.0</ele><time>2026-05-01T09:58:57.258Z</time></trkpt><trkpt lat="44.9357883" lon="6.7446733"><ele>1788.0</ele><time>2026-05-01T09:59:56.256Z</time></trkpt><trkpt lat="44.9356633" lon="6.7444733"><ele>1788.0</ele><time>2026-05-01T09:59:57.256Z</time></trkpt><trkpt lat="44.93558" lon="6.74435"><ele>1788.0</ele><time>2026-05-01T09:59:58.257Z</time></trkpt><trkpt lat="44.9355017" lon="6.7442633"><ele>1788.0</ele><time>2026-05-01T09:59:59.256Z</time></trkpt><trkpt lat="44.9354567" lon="6.74414"><ele>1790.0</ele><time>2026-05-01T10:00:00.257Z</time></trkpt><trkpt lat="44.9354367" lon="6.7439767"><ele>1792.0</ele><time>2026-05-01T10:00:01.257Z</time></trkpt><trkpt lat="44.9353883" lon="6.7438083"><ele>1794.0</ele><time>2026-05-01T10:00:02.257Z</time></trkpt><trkpt lat="44.9353417" lon="6.7436333"><ele>1796.0</ele><time>2026-05-01T10:00:03.256Z</time></trkpt><trkpt lat="44.9353517" lon="6.7434267"><ele>1798.0</ele><time>2026-05-01T10:00:04.257Z</time></trkpt><trkpt lat="44.9353483" lon="6.74321"><ele>1800.0</ele><time>2026-05-01T10:00:05.257Z</time></trkpt><trkpt lat="44.935385" lon="6.74299"><ele>1802.0</ele><time>2026-05-01T10:00:06.257Z</time></trkpt><trkpt lat="44.9353667" lon="6.7427933"><ele>1805.0</ele><time>2026-05-01T10:00:07.257Z</time></trkpt><trkpt lat="44.93534" lon="6.7425967"><ele>1808.0</ele><time>2026-05-01T10:00:08.257Z</time></trkpt><trkpt lat="44.9352983" lon="6.7424417"><ele>1811.0</ele><time>2026-05-01T10:00:09.257Z</time></trkpt><trkpt lat="44.93524" lon="6.74232"><ele>1814.0</ele><time>2026-05-01T10:00:10.257Z</time></trkpt><trkpt lat="44.9351517" lon="6.74221"><ele>1810.75</ele><time>2026-05-01T10:00:11.257Z</time></trkpt><trkpt lat="44.935035" lon="6.7421233"><ele>1807.5</ele><time>2026-05-01T10:00:12.256Z</time></trkpt><trkpt lat="44.9349067" lon="6.742055"><ele>1804.25</ele><time>2026-05-01T10:00:13.257Z</time></trkpt><trkpt lat="44.93473" lon="6.742015"><ele>1801.0</ele><time>2026-05-01T10:00:14.257Z</time></trkpt><trkpt lat="44.9345417" lon="6.7419717"><ele>1801.0</ele><time>2026-05-01T10:00:15.256Z</time></trkpt><trkpt lat="44.9343367" lon="6.7419283"><ele>1801.0</ele><time>2026-05-01T10:00:16.257Z</time></trkpt><trkpt lat="44.9341917" lon="6.7418233"><ele>1801.0</ele><time>2026-05-01T10:00:17.257Z</time></trkpt><trkpt lat="44.934075" lon="6.7416967"><ele>1803.6666666666667</ele><time>2026-05-01T10:00:18.257Z</time></trkpt><trkpt lat="44.9339833" lon="6.7414517"><ele>1806.3333333333335</ele><time>2026-05-01T10:00:19.257Z</time></trkpt><trkpt lat="44.9339367" lon="6.7411817"><ele>1809.0</ele><time>2026-05-01T10:00:20.256Z</time></trkpt><trkpt lat="44.93389" lon="6.7409017"><ele>1812.3333333333335</ele><time>2026-05-01T10:00:21.257Z</time></trkpt><trkpt lat="44.9338167" lon="6.7407033"><ele>1815.6666666666667</ele><time>2026-05-01T10:00:22.257Z</time></trkpt><trkpt lat="44.9337533" lon="6.740495"><ele>1819.0</ele><time>2026-05-01T10:00:23.257Z</time></trkpt><trkpt lat="44.933705" lon="6.7403033"><ele>1821.25</ele><time>2026-05-01T10:00:24.257Z</time></trkpt><trkpt lat="44.93365" lon="6.74012"><ele>1823.5</ele><time>2026-05-01T10:00:25.256Z</time></trkpt><trkpt lat="44.9336067" lon="6.7399433"><ele>1825.75</ele><time>2026-05-01T10:00:26.257Z</time></trkpt><trkpt lat="44.9335717" lon="6.73977"><ele>1828.0</ele><time>2026-05-01T10:00:27.257Z</time></trkpt><trkpt lat="44.9335417" lon="6.739595"><ele>1828.0</ele><time>2026-05-01T10:00:28.256Z</time></trkpt><trkpt lat="44.9335333" lon="6.7394217"><ele>1828.0</ele><time>2026-05-01T10:00:29.256Z</time></trkpt><trkpt lat="44.9335167" lon="6.739255"><ele>1828.0</ele><time>2026-05-01T10:00:30.256Z</time></trkpt><trkpt lat="44.9335083" lon="6.7390867"><ele>1828.0</ele><time>2026-05-01T10:00:31.256Z</time></trkpt><trkpt lat="44.9335017" lon="6.7389"><ele>1829.75</ele><time>2026-05-01T10:00:32.257Z</time></trkpt><trkpt lat="44.9334917" lon="6.7387117"><ele>1831.5</ele><time>2026-05-01T10:00:33.257Z</time></trkpt><trkpt lat="44.933475" lon="6.7385217"><ele>1833.25</ele><time>2026-05-01T10:00:34.257Z</time></trkpt><trkpt lat="44.9334517" lon="6.7383283"><ele>1835.0</ele><time>2026-05-01T10:00:35.256Z</time></trkpt><trkpt lat="44.933415" lon="6.7381367"><ele>1829.3333333333333</ele><time>2026-05-01T10:00:36.257Z</time></trkpt><trkpt lat="44.9333767" lon="6.7379467"><ele>1823.6666666666665</ele><time>2026-05-01T10:00:37.257Z</time></trkpt><trkpt lat="44.9333333" lon="6.73774"><ele>1818.0</ele><time>2026-05-01T10:00:38.257Z</time></trkpt><trkpt lat="44.9255333" lon="6.68909"><ele>1732.5</ele><time>2026-05-01T10:08:57.257Z</time></trkpt><trkpt lat="44.925415" lon="6.6889133"><ele>1647.0</ele><time>2026-05-01T10:08:59.257Z</time></trkpt><trkpt lat="44.9253233" lon="6.6888467"><ele>1561.5</ele><time>2026-05-01T10:09:00.256Z</time></trkpt><trkpt lat="44.92523" lon="6.6887817"><ele>1476.0</ele><time>2026-05-01T10:09:01.257Z</time></trkpt><trkpt lat="44.9251317" lon="6.68872"><ele>1475.6</ele><time>2026-05-01T10:09:02.257Z</time></trkpt><trkpt lat="44.9250283" lon="6.688685"><ele>1475.1999999999998</ele><time>2026-05-01T10:09:03.256Z</time></trkpt><trkpt lat="44.9249267" lon="6.688665"><ele>1474.8000000000002</ele><time>2026-05-01T10:09:04.256Z</time></trkpt><trkpt lat="44.924845" lon="6.688675"><ele>1474.4</ele><time>2026-05-01T10:09:05.257Z</time></trkpt><trkpt lat="44.9247267" lon="6.6887367"><ele>1474.0</ele><time>2026-05-01T10:09:07.257Z</time></trkpt><trkpt lat="44.9246667" lon="6.6887867"><ele>1474.0</ele><time>2026-05-01T10:09:08.256Z</time></trkpt><trkpt lat="44.92461" lon="6.6888567"><ele>1474.0</ele><time>2026-05-01T10:09:09.257Z</time></trkpt><trkpt lat="44.92457" lon="6.68894"><ele>1474.0</ele><time>2026-05-01T10:09:10.257Z</time></trkpt><trkpt lat="44.924535" lon="6.68905"><ele>1474.0</ele><time>2026-05-01T10:09:11.257Z</time></trkpt><trkpt lat="44.9245133" lon="6.68918"><ele>1474.0</ele><time>2026-05-01T10:09:12.257Z</time></trkpt><trkpt lat="44.9245" lon="6.6893267"><ele>1474.0</ele><time>2026-05-01T10:09:13.256Z</time></trkpt><trkpt lat="44.9244883" lon="6.6894617"><ele>1477.75</ele><time>2026-05-01T10:09:14.257Z</time></trkpt><trkpt lat="44.9244783" lon="6.6895683"><ele>1481.5</ele><time>2026-05-01T10:09:15.257Z</time></trkpt><trkpt lat="44.9244833" lon="6.68966"><ele>1485.25</ele><time>2026-05-01T10:09:16.257Z</time></trkpt><trkpt lat="44.9244817" lon="6.6897567"><ele>1489.0</ele><time>2026-05-01T10:09:18.257Z</time></trkpt><trkpt lat="44.9244317" lon="6.6901233"><ele>1489.0</ele><time>2026-05-01T10:11:22.257Z</time></trkpt><trkpt lat="44.924415" lon="6.690235"><ele>1489.0</ele><time>2026-05-01T10:11:23.257Z</time></trkpt><trkpt lat="44.9243933" lon="6.69034"><ele>1489.0</ele><time>2026-05-01T10:11:24.256Z</time></trkpt><trkpt lat="44.9243733" lon="6.6904417"><ele>1489.0</ele><time>2026-05-01T10:11:25.256Z</time></trkpt><trkpt lat="44.9243567" lon="6.6905383"><ele>1489.0</ele><time>2026-05-01T10:11:26.256Z</time></trkpt><trkpt lat="44.9243367" lon="6.69063"><ele>1489.0</ele><time>2026-05-01T10:11:27.257Z</time></trkpt><trkpt lat="44.9243067" lon="6.69072"><ele>1489.0</ele><time>2026-05-01T10:11:28.257Z</time></trkpt><trkpt lat="44.9242767" lon="6.6908133"><ele>1491.1666666666665</ele><time>2026-05-01T10:11:29.257Z</time></trkpt><trkpt lat="44.9242417" lon="6.69089"><ele>1493.3333333333333</ele><time>2026-05-01T10:11:30.257Z</time></trkpt><trkpt lat="44.924205" lon="6.6909717"><ele>1495.5</ele><time>2026-05-01T10:11:31.257Z</time></trkpt><trkpt lat="44.9241517" lon="6.6910217"><ele>1497.6666666666667</ele><time>2026-05-01T10:11:32.257Z</time></trkpt><trkpt lat="44.9240767" lon="6.6910167"><ele>1499.8333333333335</ele><time>2026-05-01T10:11:33.257Z</time></trkpt><trkpt lat="44.9239867" lon="6.6909917"><ele>1502.0</ele><time>2026-05-01T10:11:34.257Z</time></trkpt><trkpt lat="44.923895" lon="6.6909383"><ele>1493.75</ele><time>2026-05-01T10:11:35.257Z</time></trkpt><trkpt lat="44.9238117" lon="6.6908533"><ele>1485.5</ele><time>2026-05-01T10:11:36.257Z</time></trkpt><trkpt lat="44.9237383" lon="6.6908017"><ele>1477.25</ele><time>2026-05-01T10:11:37.257Z</time></trkpt><trkpt lat="44.9236717" lon="6.6904817"><ele>1469.0</ele><time>2026-05-01T10:11:38.256Z</time></trkpt><trkpt lat="44.9235867" lon="6.6902367"><ele>1466.0</ele><time>2026-05-01T10:11:39.256Z</time></trkpt><trkpt lat="44.9235017" lon="6.6900217"><ele>1463.0</ele><time>2026-05-01T10:11:40.257Z</time></trkpt><trkpt lat="44.9232967" lon="6.6895733"><ele>1455.3333333333335</ele><time>2026-05-01T10:11:42.257Z</time></trkpt><trkpt lat="44.9231883" lon="6.6893533"><ele>1447.6666666666667</ele><time>2026-05-01T10:11:43.257Z</time></trkpt><trkpt lat="44.92308" lon="6.6891233"><ele>1440.0</ele><time>2026-05-01T10:11:44.257Z</time></trkpt><trkpt lat="44.9229667" lon="6.6889067"><ele>1440.0</ele><time>2026-05-01T10:11:45.257Z</time></trkpt><trkpt lat="44.9228683" lon="6.6886633"><ele>1440.0</ele><time>2026-05-01T10:11:46.257Z</time></trkpt><trkpt lat="44.922785" lon="6.6884"><ele>1440.0</ele><time>2026-05-01T10:11:47.256Z</time></trkpt><trkpt lat="44.9227067" lon="6.688145"><ele>1440.0</ele><time>2026-05-01T10:11:48.257Z</time></trkpt><trkpt lat="44.9226317" lon="6.6878983"><ele>1440.0</ele><time>2026-05-01T10:11:49.257Z</time></trkpt><trkpt lat="44.9225767" lon="6.6876633"><ele>1440.0</ele><time>2026-05-01T10:11:50.257Z</time></trkpt><trkpt lat="44.9225333" lon="6.687445"><ele>1440.0</ele><time>2026-05-01T10:11:51.257Z</time></trkpt><trkpt lat="44.9224883" lon="6.6872483"><ele>1440.0</ele><time>2026-05-01T10:11:52.256Z</time></trkpt><trkpt lat="44.922415" lon="6.687075"><ele>1440.0</ele><time>2026-05-01T10:11:53.257Z</time></trkpt><trkpt lat="44.9223367" lon="6.6869467"><ele>1440.0</ele><time>2026-05-01T10:11:54.257Z</time></trkpt><trkpt lat="44.9222467" lon="6.68687"><ele>1434.75</ele><time>2026-05-01T10:11:55.257Z</time></trkpt><trkpt lat="44.92215" lon="6.6867867"><ele>1429.5</ele><time>2026-05-01T10:11:56.257Z</time></trkpt><trkpt lat="44.92202" lon="6.6867617"><ele>1424.25</ele><time>2026-05-01T10:11:57.256Z</time></trkpt><trkpt lat="44.921895" lon="6.6867233"><ele>1419.0</ele><time>2026-05-01T10:11:58.257Z</time></trkpt><trkpt lat="44.921785" lon="6.6866483"><ele>1418.0</ele><time>2026-05-01T10:11:59.256Z</time></trkpt><trkpt lat="44.921685" lon="6.6865367"><ele>1417.0</ele><time>2026-05-01T10:12:00.256Z</time></trkpt><trkpt lat="44.9215967" lon="6.6863817"><ele>1416.0</ele><time>2026-05-01T10:12:01.257Z</time></trkpt><trkpt lat="44.9213683" lon="6.6859933"><ele>1416.0</ele><time>2026-05-01T10:12:03.257Z</time></trkpt><trkpt lat="44.92125" lon="6.68581"><ele>1416.0</ele><time>2026-05-01T10:12:04.257Z</time></trkpt><trkpt lat="44.92116" lon="6.68561"><ele>1416.0</ele><time>2026-05-01T10:12:05.256Z</time></trkpt><trkpt lat="44.921075" lon="6.6854067"><ele>1413.3333333333333</ele><time>2026-05-01T10:12:06.257Z</time></trkpt><trkpt lat="44.9210167" lon="6.68518"><ele>1410.6666666666665</ele><time>2026-05-01T10:12:07.257Z</time></trkpt><trkpt lat="44.9209967" lon="6.6849433"><ele>1408.0</ele><time>2026-05-01T10:12:08.256Z</time></trkpt><trkpt lat="44.92098" lon="6.684705"><ele>1408.0</ele><time>2026-05-01T10:12:09.256Z</time></trkpt><trkpt lat="44.92101" lon="6.684465"><ele>1408.0</ele><time>2026-05-01T10:12:10.257Z</time></trkpt><trkpt lat="44.9210467" lon="6.6842283"><ele>1408.0</ele><time>2026-05-01T10:12:11.256Z</time></trkpt><trkpt lat="44.9211367" lon="6.6839817"><ele>1406.6666666666665</ele><time>2026-05-01T10:12:12.256Z</time></trkpt><trkpt lat="44.9211717" lon="6.6837317"><ele>1405.3333333333333</ele><time>2026-05-01T10:12:13.257Z</time></trkpt><trkpt lat="44.9212217" lon="6.6834917"><ele>1404.0</ele><time>2026-05-01T10:12:14.257Z</time></trkpt><trkpt lat="44.9212467" lon="6.68324"><ele>1402.6666666666667</ele><time>2026-05-01T10:12:15.257Z</time></trkpt><trkpt lat="44.9212683" lon="6.683"><ele>1401.3333333333335</ele><time>2026-05-01T10:12:16.257Z</time></trkpt><trkpt lat="44.9212667" lon="6.68275"><ele>1400.0</ele><time>2026-05-01T10:12:17.257Z</time></trkpt><trkpt lat="44.92125" lon="6.68248"><ele>1398.3333333333335</ele><time>2026-05-01T10:12:18.256Z</time></trkpt><trkpt lat="44.9212083" lon="6.682205"><ele>1396.6666666666667</ele><time>2026-05-01T10:12:19.257Z</time></trkpt><trkpt lat="44.9211467" lon="6.6819283"><ele>1395.0</ele><time>2026-05-01T10:12:20.257Z</time></trkpt><trkpt lat="44.9210867" lon="6.6816467"><ele>1395.0</ele><time>2026-05-01T10:12:21.257Z</time></trkpt><trkpt lat="44.9210133" lon="6.6813633"><ele>1395.0</ele><time>2026-05-01T10:12:22.256Z</time></trkpt><trkpt lat="44.920855" lon="6.6807517"><ele>1395.0</ele><time>2026-05-01T10:12:24.256Z</time></trkpt><trkpt lat="44.9207667" lon="6.6804783"><ele>1395.0</ele><time>2026-05-01T10:12:25.256Z</time></trkpt><trkpt lat="44.9206883" lon="6.680225"><ele>1395.0</ele><time>2026-05-01T10:12:26.257Z</time></trkpt><trkpt lat="44.9205983" lon="6.6799883"><ele>1393.0</ele><time>2026-05-01T10:12:27.257Z</time></trkpt><trkpt lat="44.92051" lon="6.6797583"><ele>1391.0</ele><time>2026-05-01T10:12:28.257Z</time></trkpt><trkpt lat="44.9204" lon="6.6795283"><ele>1389.0</ele><time>2026-05-01T10:12:29.257Z</time></trkpt><trkpt lat="44.920275" lon="6.6793183"><ele>1388.0</ele><time>2026-05-01T10:12:30.256Z</time></trkpt><trkpt lat="44.9201383" lon="6.6791017"><ele>1387.0</ele><time>2026-05-01T10:12:31.257Z</time></trkpt><trkpt lat="44.920005" lon="6.67887"><ele>1386.0</ele><time>2026-05-01T10:12:32.257Z</time></trkpt><trkpt lat="44.9198633" lon="6.678645"><ele>1381.5</ele><time>2026-05-01T10:12:33.257Z</time></trkpt><trkpt lat="44.9197033" lon="6.6784283"><ele>1377.0</ele><time>2026-05-01T10:12:34.256Z</time></trkpt><trkpt lat="44.9195183" lon="6.6781983"><ele>1377.0</ele><time>2026-05-01T10:12:35.257Z</time></trkpt><trkpt lat="44.9193333" lon="6.6779883"><ele>1377.0</ele><time>2026-05-01T10:12:36.257Z</time></trkpt><trkpt lat="44.9191317" lon="6.6777933"><ele>1375.5</ele><time>2026-05-01T10:12:37.256Z</time></trkpt><trkpt lat="44.9189267" lon="6.67762"><ele>1374.0</ele><time>2026-05-01T10:12:38.257Z</time></trkpt><trkpt lat="44.918695" lon="6.67747"><ele>1374.0</ele><time>2026-05-01T10:12:39.257Z</time></trkpt><trkpt lat="44.9184533" lon="6.6773117"><ele>1374.0</ele><time>2026-05-01T10:12:40.257Z</time></trkpt><trkpt lat="44.9182133" lon="6.67715"><ele>1376.0</ele><time>2026-05-01T10:12:41.257Z</time></trkpt><trkpt lat="44.9179717" lon="6.6770067"><ele>1378.0</ele><time>2026-05-01T10:12:42.257Z</time></trkpt><trkpt lat="44.9177083" lon="6.67684"><ele>1371.0</ele><time>2026-05-01T10:12:43.257Z</time></trkpt><trkpt lat="44.91721" lon="6.676535"><ele>1371.0</ele><time>2026-05-01T10:12:45.257Z</time></trkpt><trkpt lat="44.9169733" lon="6.6763867"><ele>1371.0</ele><time>2026-05-01T10:12:46.257Z</time></trkpt><trkpt lat="44.916745" lon="6.6762217"><ele>1369.0</ele><time>2026-05-01T10:12:47.257Z</time></trkpt><trkpt lat="44.9165283" lon="6.6760517"><ele>1367.0</ele><time>2026-05-01T10:12:48.257Z</time></trkpt><trkpt lat="44.9163033" lon="6.6758917"><ele>1367.0</ele><time>2026-05-01T10:12:49.256Z</time></trkpt><trkpt lat="44.91609" lon="6.67572"><ele>1367.0</ele><time>2026-05-01T10:12:50.257Z</time></trkpt><trkpt lat="44.915875" lon="6.675555"><ele>1365.0</ele><time>2026-05-01T10:12:51.257Z</time></trkpt><trkpt lat="44.915665" lon="6.6753767"><ele>1363.0</ele><time>2026-05-01T10:12:52.257Z</time></trkpt><trkpt lat="44.9154433" lon="6.6751967"><ele>1363.0</ele><time>2026-05-01T10:12:53.257Z</time></trkpt><trkpt lat="44.91522" lon="6.67501"><ele>1363.0</ele><time>2026-05-01T10:12:54.257Z</time></trkpt><trkpt lat="44.91499" lon="6.6748383"><ele>1364.5</ele><time>2026-05-01T10:12:55.257Z</time></trkpt><trkpt lat="44.91476" lon="6.674665"><ele>1366.0</ele><time>2026-05-01T10:12:56.257Z</time></trkpt><trkpt lat="44.9145283" lon="6.6744883"><ele>1361.5</ele><time>2026-05-01T10:12:57.256Z</time></trkpt><trkpt lat="44.9143" lon="6.674305"><ele>1357.0</ele><time>2026-05-01T10:12:58.257Z</time></trkpt><trkpt lat="44.9140583" lon="6.6741017"><ele>1357.5</ele><time>2026-05-01T10:12:59.257Z</time></trkpt><trkpt lat="44.91386" lon="6.6738467"><ele>1358.0</ele><time>2026-05-01T10:13:00.256Z</time></trkpt><trkpt lat="44.9137" lon="6.6735783"><ele>1358.0</ele><time>2026-05-01T10:13:01.257Z</time></trkpt><trkpt lat="44.9135383" lon="6.6732867"><ele>1358.0</ele><time>2026-05-01T10:13:02.257Z</time></trkpt><trkpt lat="44.9133767" lon="6.673025"><ele>1359.5</ele><time>2026-05-01T10:13:03.257Z</time></trkpt><trkpt lat="44.913225" lon="6.67277"><ele>1361.0</ele><time>2026-05-01T10:13:04.257Z</time></trkpt><trkpt lat="44.9129683" lon="6.672275"><ele>1361.0</ele><time>2026-05-01T10:13:06.256Z</time></trkpt><trkpt lat="44.9128383" lon="6.67206"><ele>1361.0</ele><time>2026-05-01T10:13:07.256Z</time></trkpt><trkpt lat="44.91272" lon="6.671835"><ele>1361.0</ele><time>2026-05-01T10:13:08.256Z</time></trkpt><trkpt lat="44.9126017" lon="6.6716367"><ele>1361.6666666666667</ele><time>2026-05-01T10:13:09.257Z</time></trkpt><trkpt lat="44.91247" lon="6.6714133"><ele>1362.3333333333333</ele><time>2026-05-01T10:13:10.257Z</time></trkpt><trkpt lat="44.9123367" lon="6.671185"><ele>1363.0</ele><time>2026-05-01T10:13:11.257Z</time></trkpt><trkpt lat="44.912185" lon="6.670985"><ele>1365.6666666666665</ele><time>2026-05-01T10:13:12.256Z</time></trkpt><trkpt lat="44.9120317" lon="6.6707683"><ele>1368.3333333333333</ele><time>2026-05-01T10:13:13.256Z</time></trkpt><trkpt lat="44.911905" lon="6.6705317"><ele>1371.0</ele><time>2026-05-01T10:13:14.257Z</time></trkpt><trkpt lat="44.91177" lon="6.6703033"><ele>1368.5</ele><time>2026-05-01T10:13:15.256Z</time></trkpt><trkpt lat="44.9116433" lon="6.670035"><ele>1366.0</ele><time>2026-05-01T10:13:16.257Z</time></trkpt><trkpt lat="44.9115183" lon="6.6697617"><ele>1366.0</ele><time>2026-05-01T10:13:17.257Z</time></trkpt><trkpt lat="44.9113967" lon="6.6694983"><ele>1366.0</ele><time>2026-05-01T10:13:18.257Z</time></trkpt><trkpt lat="44.9112633" lon="6.6692583"><ele>1366.0</ele><time>2026-05-01T10:13:19.256Z</time></trkpt><trkpt lat="44.9111667" lon="6.6690317"><ele>1367.0</ele><time>2026-05-01T10:13:20.257Z</time></trkpt><trkpt lat="44.91107" lon="6.6688017"><ele>1368.0</ele><time>2026-05-01T10:13:21.257Z</time></trkpt><trkpt lat="44.9109717" lon="6.668565"><ele>1369.0</ele><time>2026-05-01T10:13:22.257Z</time></trkpt><trkpt lat="44.9108783" lon="6.668335"><ele>1367.0</ele><time>2026-05-01T10:13:23.257Z</time></trkpt><trkpt lat="44.9107717" lon="6.6680983"><ele>1365.0</ele><time>2026-05-01T10:13:24.256Z</time></trkpt><trkpt lat="44.9106567" lon="6.6678433"><ele>1363.0</ele><time>2026-05-01T10:13:25.256Z</time></trkpt><trkpt lat="44.910425" lon="6.6673517"><ele>1363.0</ele><time>2026-05-01T10:13:27.257Z</time></trkpt><trkpt lat="44.9103117" lon="6.6671167"><ele>1363.0</ele><time>2026-05-01T10:13:28.256Z</time></trkpt><trkpt lat="44.910205" lon="6.6668967"><ele>1363.0</ele><time>2026-05-01T10:13:29.256Z</time></trkpt><trkpt lat="44.9101" lon="6.6666533"><ele>1359.0</ele><time>2026-05-01T10:13:30.257Z</time></trkpt><trkpt lat="44.91" lon="6.6664067"><ele>1355.0</ele><time>2026-05-01T10:13:31.257Z</time></trkpt><trkpt lat="44.9099133" lon="6.6661517"><ele>1351.0</ele><time>2026-05-01T10:13:32.257Z</time></trkpt><trkpt lat="44.9098433" lon="6.665885"><ele>1351.0</ele><time>2026-05-01T10:13:33.257Z</time></trkpt><trkpt lat="44.909805" lon="6.66562"><ele>1351.0</ele><time>2026-05-01T10:13:34.257Z</time></trkpt><trkpt lat="44.9097667" lon="6.6653183"><ele>1351.0</ele><time>2026-05-01T10:13:35.257Z</time></trkpt><trkpt lat="44.9097567" lon="6.6650017"><ele>1349.3333333333333</ele><time>2026-05-01T10:13:36.257Z</time></trkpt><trkpt lat="44.90975" lon="6.6647183"><ele>1347.6666666666667</ele><time>2026-05-01T10:13:37.257Z</time></trkpt><trkpt lat="44.9097483" lon="6.6644183"><ele>1346.0</ele><time>2026-05-01T10:13:38.257Z</time></trkpt><trkpt lat="44.9097517" lon="6.6641383"><ele>1346.0</ele><time>2026-05-01T10:13:39.257Z</time></trkpt><trkpt lat="44.90974" lon="6.6638517"><ele>1346.0</ele><time>2026-05-01T10:13:40.257Z</time></trkpt><trkpt lat="44.9097183" lon="6.6635733"><ele>1346.0</ele><time>2026-05-01T10:13:41.257Z</time></trkpt><trkpt lat="44.9096867" lon="6.6632933"><ele>1346.0</ele><time>2026-05-01T10:13:42.257Z</time></trkpt><trkpt lat="44.9096383" lon="6.66303"><ele>1346.0</ele><time>2026-05-01T10:13:43.256Z</time></trkpt><trkpt lat="44.9095667" lon="6.662805"><ele>1346.0</ele><time>2026-05-01T10:13:44.257Z</time></trkpt><trkpt lat="44.9094817" lon="6.6626167"><ele>1345.0</ele><time>2026-05-01T10:13:45.257Z</time></trkpt><trkpt lat="44.9093683" lon="6.6625033"><ele>1344.0</ele><time>2026-05-01T10:13:46.257Z</time></trkpt><trkpt lat="44.9090817" lon="6.6622867"><ele>1344.0</ele><time>2026-05-01T10:13:48.257Z</time></trkpt><trkpt lat="44.9088983" lon="6.662235"><ele>1344.0</ele><time>2026-05-01T10:13:49.257Z</time></trkpt><trkpt lat="44.9087183" lon="6.662175"><ele>1344.0</ele><time>2026-05-01T10:13:50.256Z</time></trkpt><trkpt lat="44.9085183" lon="6.6621417"><ele>1339.3333333333333</ele><time>2026-05-01T10:13:51.257Z</time></trkpt><trkpt lat="44.908315" lon="6.6621017"><ele>1334.6666666666665</ele><time>2026-05-01T10:13:52.257Z</time></trkpt><trkpt lat="44.9081167" lon="6.6620333"><ele>1330.0</ele><time>2026-05-01T10:13:53.257Z</time></trkpt><trkpt lat="44.9079267" lon="6.661965"><ele>1331.6666666666665</ele><time>2026-05-01T10:13:54.256Z</time></trkpt><trkpt lat="44.9077433" lon="6.6618883"><ele>1333.3333333333333</ele><time>2026-05-01T10:13:55.257Z</time></trkpt><trkpt lat="44.907565" lon="6.661775"><ele>1335.0</ele><time>2026-05-01T10:13:56.257Z</time></trkpt><trkpt lat="44.9074217" lon="6.6616583"><ele>1335.0</ele><time>2026-05-01T10:13:57.257Z</time></trkpt><trkpt lat="44.907285" lon="6.6616317"><ele>1335.0</ele><time>2026-05-01T10:13:58.257Z</time></trkpt><trkpt lat="44.9071633" lon="6.6615067"><ele>1335.0</ele><time>2026-05-01T10:13:59.257Z</time></trkpt><trkpt lat="44.9070867" lon="6.66134"><ele>1335.0</ele><time>2026-05-01T10:14:00.257Z</time></trkpt><trkpt lat="44.9072133" lon="6.6610383"><ele>1338.6666666666667</ele><time>2026-05-01T10:14:01.256Z</time></trkpt><trkpt lat="44.9072317" lon="6.660815"><ele>1342.3333333333335</ele><time>2026-05-01T10:14:02.255Z</time></trkpt><trkpt lat="44.9072467" lon="6.6605833"><ele>1346.0</ele><time>2026-05-01T10:14:03.257Z</time></trkpt><trkpt lat="44.90723" lon="6.66033"><ele>1351.0</ele><time>2026-05-01T10:14:04.257Z</time></trkpt><trkpt lat="44.9072117" lon="6.6601067"><ele>1356.0</ele><time>2026-05-01T10:14:05.257Z</time></trkpt><trkpt lat="44.9071617" lon="6.6599217"><ele>1361.0</ele><time>2026-05-01T10:14:06.257Z</time></trkpt><trkpt lat="44.907055" lon="6.65975"><ele>1362.5</ele><time>2026-05-01T10:14:07.257Z</time></trkpt><trkpt lat="44.9067733" lon="6.6594383"><ele>1364.0</ele><time>2026-05-01T10:14:09.256Z</time></trkpt><trkpt lat="44.9065667" lon="6.65933"><ele>1364.0</ele><time>2026-05-01T10:14:10.257Z</time></trkpt><trkpt lat="44.9063917" lon="6.6592067"><ele>1364.0</ele><time>2026-05-01T10:14:11.257Z</time></trkpt><trkpt lat="44.9061967" lon="6.6590617"><ele>1364.0</ele><time>2026-05-01T10:14:12.257Z</time></trkpt><trkpt lat="44.9060183" lon="6.6589117"><ele>1359.0</ele><time>2026-05-01T10:14:13.256Z</time></trkpt><trkpt lat="44.9058733" lon="6.65872"><ele>1354.0</ele><time>2026-05-01T10:14:14.257Z</time></trkpt><trkpt lat="44.905715" lon="6.65851"><ele>1349.0</ele><time>2026-05-01T10:14:15.257Z</time></trkpt><trkpt lat="44.9055633" lon="6.658285"><ele>1349.0</ele><time>2026-05-01T10:14:16.256Z</time></trkpt><trkpt lat="44.9054017" lon="6.6580717"><ele>1349.0</ele><time>2026-05-01T10:14:17.257Z</time></trkpt><trkpt lat="44.905265" lon="6.6578383"><ele>1349.0</ele><time>2026-05-01T10:14:18.257Z</time></trkpt><trkpt lat="44.9051267" lon="6.6576217"><ele>1344.0</ele><time>2026-05-01T10:14:19.257Z</time></trkpt><trkpt lat="44.905015" lon="6.6574083"><ele>1339.0</ele><time>2026-05-01T10:14:20.257Z</time></trkpt><trkpt lat="44.9049233" lon="6.657195"><ele>1334.0</ele><time>2026-05-01T10:14:21.257Z</time></trkpt><trkpt lat="44.90485" lon="6.6569783"><ele>1335.3333333333335</ele><time>2026-05-01T10:14:22.257Z</time></trkpt><trkpt lat="44.9048233" lon="6.6567417"><ele>1336.6666666666667</ele><time>2026-05-01T10:14:23.256Z</time></trkpt><trkpt lat="44.9048267" lon="6.656495"><ele>1338.0</ele><time>2026-05-01T10:14:24.257Z</time></trkpt><trkpt lat="44.9048217" lon="6.6562433"><ele>1341.3333333333333</ele><time>2026-05-01T10:14:25.257Z</time></trkpt><trkpt lat="44.9047983" lon="6.6559833"><ele>1344.6666666666665</ele><time>2026-05-01T10:14:26.257Z</time></trkpt><trkpt lat="44.9047733" lon="6.6556933"><ele>1348.0</ele><time>2026-05-01T10:14:27.257Z</time></trkpt><trkpt lat="44.9047417" lon="6.6554233"><ele>1352.5</ele><time>2026-05-01T10:14:28.256Z</time></trkpt><trkpt lat="44.9046067" lon="6.654915"><ele>1357.0</ele><time>2026-05-01T10:14:30.257Z</time></trkpt><trkpt lat="44.9045267" lon="6.65464"><ele>1362.3333333333333</ele><time>2026-05-01T10:14:31.257Z</time></trkpt><trkpt lat="44.904445" lon="6.6543717"><ele>1367.6666666666667</ele><time>2026-05-01T10:14:32.257Z</time></trkpt><trkpt lat="44.904365" lon="6.6541033"><ele>1373.0</ele><time>2026-05-01T10:14:33.257Z</time></trkpt><trkpt lat="44.9042783" lon="6.65384"><ele>1363.3333333333335</ele><time>2026-05-01T10:14:34.257Z</time></trkpt><trkpt lat="44.9041917" lon="6.6535733"><ele>1353.6666666666667</ele><time>2026-05-01T10:14:35.257Z</time></trkpt><trkpt lat="44.9040917" lon="6.6533017"><ele>1344.0</ele><time>2026-05-01T10:14:36.256Z</time></trkpt><trkpt lat="44.90397" lon="6.65302"><ele>1356.5</ele><time>2026-05-01T10:14:37.257Z</time></trkpt><trkpt lat="44.9038483" lon="6.652755"><ele>1369.0</ele><time>2026-05-01T10:14:38.256Z</time></trkpt><trkpt lat="44.9037183" lon="6.6524867"><ele>1369.0</ele><time>2026-05-01T10:14:39.257Z</time></trkpt><trkpt lat="44.9035767" lon="6.6522367"><ele>1369.0</ele><time>2026-05-01T10:14:40.256Z</time></trkpt><trkpt lat="44.9034467" lon="6.6519917"><ele>1369.0</ele><time>2026-05-01T10:14:41.257Z</time></trkpt><trkpt lat="44.9033233" lon="6.6517483"><ele>1370.3333333333333</ele><time>2026-05-01T10:14:42.257Z</time></trkpt><trkpt lat="44.9031933" lon="6.6515083"><ele>1371.6666666666667</ele><time>2026-05-01T10:14:43.257Z</time></trkpt><trkpt lat="44.9030783" lon="6.6512783"><ele>1373.0</ele><time>2026-05-01T10:14:44.257Z</time></trkpt><trkpt lat="44.90297" lon="6.651055"><ele>1373.0</ele><time>2026-05-01T10:14:45.257Z</time></trkpt><trkpt lat="44.9028683" lon="6.6508617"><ele>1373.0</ele><time>2026-05-01T10:14:46.257Z</time></trkpt><trkpt lat="44.90279" lon="6.6506733"><ele>1373.0</ele><time>2026-05-01T10:14:47.256Z</time></trkpt><trkpt lat="44.9027517" lon="6.6504983"><ele>1373.0</ele><time>2026-05-01T10:14:48.257Z</time></trkpt><trkpt lat="44.9027367" lon="6.6503367"><ele>1373.0</ele><time>2026-05-01T10:14:49.257Z</time></trkpt><trkpt lat="44.9027733" lon="6.6500117"><ele>1373.0</ele><time>2026-05-01T10:14:51.256Z</time></trkpt><trkpt lat="44.9028617" lon="6.6498483"><ele>1369.5</ele><time>2026-05-01T10:14:52.257Z</time></trkpt><trkpt lat="44.9029517" lon="6.6496733"><ele>1366.0</ele><time>2026-05-01T10:14:53.257Z</time></trkpt><trkpt lat="44.9030167" lon="6.6495217"><ele>1362.5</ele><time>2026-05-01T10:14:54.256Z</time></trkpt><trkpt lat="44.9030717" lon="6.649385"><ele>1359.0</ele><time>2026-05-01T10:14:55.257Z</time></trkpt><trkpt lat="44.9030817" lon="6.64923"><ele>1357.0</ele><time>2026-05-01T10:14:56.257Z</time></trkpt><trkpt lat="44.9030867" lon="6.6490967"><ele>1355.0</ele><time>2026-05-01T10:14:57.257Z</time></trkpt><trkpt lat="44.9030967" lon="6.64897"><ele>1353.0</ele><time>2026-05-01T10:14:58.257Z</time></trkpt><trkpt lat="44.9031033" lon="6.6488433"><ele>1351.0</ele><time>2026-05-01T10:14:59.257Z</time></trkpt><trkpt lat="44.9031" lon="6.648705"><ele>1349.0</ele><time>2026-05-01T10:15:00.257Z</time></trkpt><trkpt lat="44.9030883" lon="6.6485683"><ele>1349.0</ele><time>2026-05-01T10:15:01.257Z</time></trkpt><trkpt lat="44.9030667" lon="6.6484333"><ele>1349.0</ele><time>2026-05-01T10:15:02.257Z</time></trkpt><trkpt lat="44.903035" lon="6.6482967"><ele>1349.0</ele><time>2026-05-01T10:15:03.256Z</time></trkpt><trkpt lat="44.9030117" lon="6.648165"><ele>1349.0</ele><time>2026-05-01T10:15:04.257Z</time></trkpt><trkpt lat="44.9029817" lon="6.64803"><ele>1349.0</ele><time>2026-05-01T10:15:05.257Z</time></trkpt><trkpt lat="44.9029383" lon="6.647865"><ele>1349.25</ele><time>2026-05-01T10:15:06.256Z</time></trkpt><trkpt lat="44.9028583" lon="6.64772"><ele>1349.5</ele><time>2026-05-01T10:15:07.257Z</time></trkpt><trkpt lat="44.9027833" lon="6.6475833"><ele>1349.75</ele><time>2026-05-01T10:15:08.257Z</time></trkpt><trkpt lat="44.9027133" lon="6.6474583"><ele>1350.0</ele><time>2026-05-01T10:15:09.257Z</time></trkpt><trkpt lat="44.9026317" lon="6.6473383"><ele>1347.5</ele><time>2026-05-01T10:15:10.257Z</time></trkpt><trkpt lat="44.90248" lon="6.6471133"><ele>1345.0</ele><time>2026-05-01T10:15:12.256Z</time></trkpt><trkpt lat="44.9024067" lon="6.6469983"><ele>1342.5</ele><time>2026-05-01T10:15:13.257Z</time></trkpt><trkpt lat="44.90232" lon="6.6469117"><ele>1340.0</ele><time>2026-05-01T10:15:14.256Z</time></trkpt><trkpt lat="44.9022517" lon="6.6468033"><ele>1340.0</ele><time>2026-05-01T10:15:15.257Z</time></trkpt><trkpt lat="44.90219" lon="6.6466917"><ele>1340.0</ele><time>2026-05-01T10:15:16.256Z</time></trkpt><trkpt lat="44.9021383" lon="6.6465933"><ele>1340.0</ele><time>2026-05-01T10:15:17.257Z</time></trkpt><trkpt lat="44.90209" lon="6.6465"><ele>1340.0</ele><time>2026-05-01T10:15:18.256Z</time></trkpt><trkpt lat="44.9020483" lon="6.6464083"><ele>1340.0</ele><time>2026-05-01T10:15:19.256Z</time></trkpt><trkpt lat="44.902" lon="6.6463233"><ele>1340.0</ele><time>2026-05-01T10:15:20.256Z</time></trkpt><trkpt lat="44.9019617" lon="6.6462517"><ele>1340.0</ele><time>2026-05-01T10:15:21.257Z</time></trkpt><trkpt lat="44.90192" lon="6.6461283"><ele>1340.0</ele><time>2026-05-01T10:15:23.257Z</time></trkpt><trkpt lat="44.90187" lon="6.6460183"><ele>1340.0</ele><time>2026-05-01T10:15:26.256Z</time></trkpt><trkpt lat="44.9018433" lon="6.645915"><ele>1340.0</ele><time>2026-05-01T10:15:29.256Z</time></trkpt><trkpt lat="44.90182" lon="6.6458233"><ele>1340.0</ele><time>2026-05-01T10:15:32.256Z</time></trkpt><trkpt lat="44.9017517" lon="6.6456217"><ele>1338.3333333333335</ele><time>2026-05-01T10:15:38.257Z</time></trkpt><trkpt lat="44.901685" lon="6.6456767"><ele>1336.6666666666667</ele><time>2026-05-01T10:16:49.257Z</time></trkpt><trkpt lat="44.9017883" lon="6.64586"><ele>1335.0</ele><time>2026-05-01T10:17:28.256Z</time></trkpt><trkpt lat="44.9017067" lon="6.6455283"><ele>1335.0</ele><time>2026-05-01T10:23:06.257Z</time></trkpt><trkpt lat="44.9016833" lon="6.6454417"><ele>1335.0</ele><time>2026-05-01T10:23:07.256Z</time></trkpt><trkpt lat="44.9016583" lon="6.6453583"><ele>1335.0</ele><time>2026-05-01T10:23:08.256Z</time></trkpt><trkpt lat="44.9016367" lon="6.645235"><ele>1335.0</ele><time>2026-05-01T10:23:10.257Z</time></trkpt><trkpt lat="44.9016283" lon="6.645145"><ele>1335.0</ele><time>2026-05-01T10:23:12.256Z</time></trkpt><trkpt lat="44.9016133" lon="6.64505"><ele>1335.0</ele><time>2026-05-01T10:23:15.256Z</time></trkpt><trkpt lat="44.9015983" lon="6.64495"><ele>1335.0</ele><time>2026-05-01T10:23:18.257Z</time></trkpt><trkpt lat="44.90159" lon="6.6448483"><ele>1335.0</ele><time>2026-05-01T10:23:20.257Z</time></trkpt><trkpt lat="44.901595" lon="6.644735"><ele>1335.0</ele><time>2026-05-01T10:23:22.256Z</time></trkpt><trkpt lat="44.9016017" lon="6.64463"><ele>1335.0</ele><time>2026-05-01T10:23:24.257Z</time></trkpt><trkpt lat="44.9015867" lon="6.6445167"><ele>1335.0</ele><time>2026-05-01T10:23:26.257Z</time></trkpt><trkpt lat="44.901575" lon="6.6442967"><ele>1335.0</ele><time>2026-05-01T10:23:30.257Z</time></trkpt><trkpt lat="44.9015783" lon="6.64416"><ele>1335.0</ele><time>2026-05-01T10:23:33.257Z</time></trkpt><trkpt lat="44.901585" lon="6.64406"><ele>1335.0</ele><time>2026-05-01T10:23:35.257Z</time></trkpt><trkpt lat="44.901595" lon="6.6439317"><ele>1335.0</ele><time>2026-05-01T10:23:37.257Z</time></trkpt><trkpt lat="44.90159" lon="6.643805"><ele>1335.0</ele><time>2026-05-01T10:23:39.256Z</time></trkpt><trkpt lat="44.901555" lon="6.643705"><ele>1335.0</ele><time>2026-05-01T10:23:41.256Z</time></trkpt><trkpt lat="44.9014733" lon="6.6437"><ele>1335.0</ele><time>2026-05-01T10:23:43.257Z</time></trkpt><trkpt lat="44.901405" lon="6.64376"><ele>1335.0</ele><time>2026-05-01T10:23:45.257Z</time></trkpt><trkpt lat="44.9013867" lon="6.64385"><ele>1335.0</ele><time>2026-05-01T10:23:47.257Z</time></trkpt><trkpt lat="44.9014683" lon="6.6439983"><ele>1335.0</ele><time>2026-05-01T10:24:42.256Z</time></trkpt><trkpt lat="44.9015917" lon="6.64382"><ele>1335.0</ele><time>2026-05-01T10:24:46.257Z</time></trkpt><trkpt lat="44.9016267" lon="6.6436833"><ele>1335.0</ele><time>2026-05-01T10:24:48.256Z</time></trkpt><trkpt lat="44.9016467" lon="6.6435817"><ele>1335.0</ele><time>2026-05-01T10:24:50.257Z</time></trkpt><trkpt lat="44.90166" lon="6.6434133"><ele>1335.0</ele><time>2026-05-01T10:52:36.254Z</time></trkpt><trkpt lat="44.9015767" lon="6.6437183"><ele>1335.0</ele><time>2026-05-01T11:32:54.249Z</time></trkpt><trkpt lat="44.90157" lon="6.6436017"><ele>1334.0</ele><time>2026-05-01T11:32:57.25Z</time></trkpt><trkpt lat="44.9015783" lon="6.6434617"><ele>1333.0</ele><time>2026-05-01T11:33:28.249Z</time></trkpt><trkpt lat="44.90163" lon="6.6432483"><ele>1332.0</ele><time>2026-05-01T11:33:31.25Z</time></trkpt><trkpt lat="44.9016617" lon="6.6431333"><ele>1331.0</ele><time>2026-05-01T11:33:32.249Z</time></trkpt><trkpt lat="44.9016933" lon="6.643"><ele>1330.0</ele><time>2026-05-01T11:33:33.25Z</time></trkpt><trkpt lat="44.9017233" lon="6.642875"><ele>1331.6</ele><time>2026-05-01T11:33:34.249Z</time></trkpt><trkpt lat="44.9017533" lon="6.6427483"><ele>1333.2</ele><time>2026-05-01T11:33:35.25Z</time></trkpt><trkpt lat="44.9017867" lon="6.6426283"><ele>1334.8000000000002</ele><time>2026-05-01T11:33:36.25Z</time></trkpt><trkpt lat="44.901815" lon="6.642505"><ele>1336.4</ele><time>2026-05-01T11:33:37.249Z</time></trkpt><trkpt lat="44.90184" lon="6.6423767"><ele>1338.0</ele><time>2026-05-01T11:33:38.25Z</time></trkpt><trkpt lat="44.9018633" lon="6.6422417"><ele>1338.0</ele><time>2026-05-01T11:33:39.25Z</time></trkpt><trkpt lat="44.901885" lon="6.6421167"><ele>1338.0</ele><time>2026-05-01T11:33:40.25Z</time></trkpt><trkpt lat="44.9019" lon="6.64199"><ele>1338.0</ele><time>2026-05-01T11:33:41.25Z</time></trkpt><trkpt lat="44.9019167" lon="6.6418617"><ele>1338.0</ele><time>2026-05-01T11:33:42.25Z</time></trkpt><trkpt lat="44.9019233" lon="6.64173"><ele>1338.0</ele><time>2026-05-01T11:33:43.25Z</time></trkpt><trkpt lat="44.9019317" lon="6.6415867"><ele>1337.0</ele><time>2026-05-01T11:33:44.25Z</time></trkpt><trkpt lat="44.901945" lon="6.6414417"><ele>1336.0</ele><time>2026-05-01T11:33:45.25Z</time></trkpt><trkpt lat="44.90196" lon="6.641305"><ele>1335.0</ele><time>2026-05-01T11:33:46.249Z</time></trkpt><trkpt lat="44.90198" lon="6.641165"><ele>1334.0</ele><time>2026-05-01T11:33:47.25Z</time></trkpt><trkpt lat="44.902" lon="6.641025"><ele>1333.0</ele><time>2026-05-01T11:33:48.25Z</time></trkpt><trkpt lat="44.9020183" lon="6.64088"><ele>1331.0</ele><time>2026-05-01T11:33:49.25Z</time></trkpt><trkpt lat="44.9020667" lon="6.640575"><ele>1329.0</ele><time>2026-05-01T11:33:51.249Z</time></trkpt><trkpt lat="44.9020917" lon="6.6404133"><ele>1327.0</ele><time>2026-05-01T11:33:52.25Z</time></trkpt><trkpt lat="44.902115" lon="6.6402583"><ele>1326.6</ele><time>2026-05-01T11:33:53.25Z</time></trkpt><trkpt lat="44.9021417" lon="6.6401167"><ele>1326.1999999999998</ele><time>2026-05-01T11:33:54.25Z</time></trkpt><trkpt lat="44.902165" lon="6.6399783"><ele>1325.8</ele><time>2026-05-01T11:33:55.25Z</time></trkpt><trkpt lat="44.9021867" lon="6.6398367"><ele>1325.4</ele><time>2026-05-01T11:33:56.249Z</time></trkpt><trkpt lat="44.902215" lon="6.6396967"><ele>1325.0</ele><time>2026-05-01T11:33:57.249Z</time></trkpt><trkpt lat="44.9022533" lon="6.6395633"><ele>1323.4</ele><time>2026-05-01T11:33:58.249Z</time></trkpt><trkpt lat="44.9022867" lon="6.6394217"><ele>1321.8</ele><time>2026-05-01T11:33:59.25Z</time></trkpt><trkpt lat="44.90232" lon="6.6392783"><ele>1320.1999999999998</ele><time>2026-05-01T11:34:00.249Z</time></trkpt><trkpt lat="44.90235" lon="6.6391267"><ele>1318.6</ele><time>2026-05-01T11:34:01.25Z</time></trkpt><trkpt lat="44.9023767" lon="6.63897"><ele>1317.0</ele><time>2026-05-01T11:34:02.25Z</time></trkpt><trkpt lat="44.90241" lon="6.6388167"><ele>1317.0</ele><time>2026-05-01T11:34:03.249Z</time></trkpt><trkpt lat="44.90246" lon="6.6386633"><ele>1317.0</ele><time>2026-05-01T11:34:04.25Z</time></trkpt><trkpt lat="44.90252" lon="6.6385083"><ele>1317.0</ele><time>2026-05-01T11:34:05.249Z</time></trkpt><trkpt lat="44.9026" lon="6.6383817"><ele>1317.0</ele><time>2026-05-01T11:34:06.25Z</time></trkpt><trkpt lat="44.9026733" lon="6.6382417"><ele>1315.5</ele><time>2026-05-01T11:34:07.25Z</time></trkpt><trkpt lat="44.9027267" lon="6.6380817"><ele>1314.0</ele><time>2026-05-01T11:34:08.25Z</time></trkpt><trkpt lat="44.9027733" lon="6.637945"><ele>1312.5</ele><time>2026-05-01T11:34:09.25Z</time></trkpt><trkpt lat="44.9028233" lon="6.6378133"><ele>1311.0</ele><time>2026-05-01T11:34:10.25Z</time></trkpt><trkpt lat="44.9029483" lon="6.6375817"><ele>1311.0</ele><time>2026-05-01T11:34:12.249Z</time></trkpt><trkpt lat="44.90303" lon="6.6374533"><ele>1311.0</ele><time>2026-05-01T11:34:13.25Z</time></trkpt><trkpt lat="44.9031033" lon="6.6372867"><ele>1311.0</ele><time>2026-05-01T11:34:14.25Z</time></trkpt><trkpt lat="44.90317" lon="6.6371067"><ele>1311.0</ele><time>2026-05-01T11:34:15.25Z</time></trkpt><trkpt lat="44.9032133" lon="6.63692"><ele>1309.0</ele><time>2026-05-01T11:34:16.25Z</time></trkpt><trkpt lat="44.90326" lon="6.6367333"><ele>1307.0</ele><time>2026-05-01T11:34:17.249Z</time></trkpt><trkpt lat="44.90332" lon="6.636565"><ele>1305.0</ele><time>2026-05-01T11:34:18.25Z</time></trkpt><trkpt lat="44.9033967" lon="6.6364117"><ele>1303.0</ele><time>2026-05-01T11:34:19.25Z</time></trkpt><trkpt lat="44.9034967" lon="6.6362483"><ele>1304.3333333333333</ele><time>2026-05-01T11:34:20.249Z</time></trkpt><trkpt lat="44.903615" lon="6.6360933"><ele>1305.6666666666667</ele><time>2026-05-01T11:34:21.25Z</time></trkpt><trkpt lat="44.903735" lon="6.6359533"><ele>1307.0</ele><time>2026-05-01T11:34:22.25Z</time></trkpt><trkpt lat="44.9038417" lon="6.6358267"><ele>1307.0</ele><time>2026-05-01T11:34:23.25Z</time></trkpt><trkpt lat="44.9039417" lon="6.63571"><ele>1307.0</ele><time>2026-05-01T11:34:24.25Z</time></trkpt><trkpt lat="44.9040417" lon="6.6356117"><ele>1307.0</ele><time>2026-05-01T11:34:25.25Z</time></trkpt><trkpt lat="44.9041283" lon="6.6355283"><ele>1307.0</ele><time>2026-05-01T11:34:26.249Z</time></trkpt><trkpt lat="44.904215" lon="6.63546"><ele>1306.25</ele><time>2026-05-01T11:34:27.249Z</time></trkpt><trkpt lat="44.9043267" lon="6.635385"><ele>1305.5</ele><time>2026-05-01T11:34:28.25Z</time></trkpt><trkpt lat="44.90443" lon="6.635315"><ele>1304.75</ele><time>2026-05-01T11:34:29.25Z</time></trkpt><trkpt lat="44.90453" lon="6.63525"><ele>1304.0</ele><time>2026-05-01T11:34:30.25Z</time></trkpt><trkpt lat="44.9046283" lon="6.6351867"><ele>1304.0</ele><time>2026-05-01T11:34:31.25Z</time></trkpt><trkpt lat="44.9048067" lon="6.635015"><ele>1304.0</ele><time>2026-05-01T11:34:33.249Z</time></trkpt><trkpt lat="44.904875" lon="6.6348733"><ele>1304.0</ele><time>2026-05-01T11:34:34.25Z</time></trkpt><trkpt lat="44.904945" lon="6.6347317"><ele>1304.0</ele><time>2026-05-01T11:34:35.25Z</time></trkpt><trkpt lat="44.9050167" lon="6.6345817"><ele>1304.0</ele><time>2026-05-01T11:34:36.25Z</time></trkpt><trkpt lat="44.905085" lon="6.6344117"><ele>1304.0</ele><time>2026-05-01T11:34:37.249Z</time></trkpt><trkpt lat="44.9051417" lon="6.6342533"><ele>1304.0</ele><time>2026-05-01T11:34:38.25Z</time></trkpt><trkpt lat="44.905175" lon="6.6340917"><ele>1308.6666666666667</ele><time>2026-05-01T11:34:39.25Z</time></trkpt><trkpt lat="44.905145" lon="6.6338867"><ele>1313.3333333333333</ele><time>2026-05-01T11:34:40.25Z</time></trkpt><trkpt lat="44.905085" lon="6.6336867"><ele>1318.0</ele><time>2026-05-01T11:34:41.25Z</time></trkpt><trkpt lat="44.9050333" lon="6.6334883"><ele>1310.75</ele><time>2026-05-01T11:34:42.25Z</time></trkpt><trkpt lat="44.905" lon="6.6333"><ele>1303.5</ele><time>2026-05-01T11:34:43.249Z</time></trkpt><trkpt lat="44.9049733" lon="6.63311"><ele>1296.25</ele><time>2026-05-01T11:34:44.25Z</time></trkpt><trkpt lat="44.9049583" lon="6.6329167"><ele>1289.0</ele><time>2026-05-01T11:34:45.25Z</time></trkpt><trkpt lat="44.9049733" lon="6.63273"><ele>1286.75</ele><time>2026-05-01T11:34:46.25Z</time></trkpt><trkpt lat="44.9049667" lon="6.6325"><ele>1284.5</ele><time>2026-05-01T11:34:47.249Z</time></trkpt><trkpt lat="44.9050417" lon="6.6323267"><ele>1282.25</ele><time>2026-05-01T11:34:48.249Z</time></trkpt><trkpt lat="44.9051183" lon="6.6321667"><ele>1280.0</ele><time>2026-05-01T11:34:49.249Z</time></trkpt><trkpt lat="44.9051867" lon="6.6320233"><ele>1282.3333333333335</ele><time>2026-05-01T11:34:50.249Z</time></trkpt><trkpt lat="44.9052467" lon="6.6318667"><ele>1284.6666666666667</ele><time>2026-05-01T11:34:51.25Z</time></trkpt><trkpt lat="44.9053083" lon="6.631725"><ele>1287.0</ele><time>2026-05-01T11:34:52.249Z</time></trkpt><trkpt lat="44.9053983" lon="6.631405"><ele>1287.0</ele><time>2026-05-01T11:34:54.25Z</time></trkpt><trkpt lat="44.9054183" lon="6.631225"><ele>1287.0</ele><time>2026-05-01T11:34:55.25Z</time></trkpt><trkpt lat="44.9054267" lon="6.6310317"><ele>1287.0</ele><time>2026-05-01T11:34:56.249Z</time></trkpt><trkpt lat="44.9054733" lon="6.6308467"><ele>1287.0</ele><time>2026-05-01T11:34:57.249Z</time></trkpt><trkpt lat="44.9055" lon="6.6306867"><ele>1286.0</ele><time>2026-05-01T11:34:58.249Z</time></trkpt><trkpt lat="44.9055217" lon="6.6305417"><ele>1285.0</ele><time>2026-05-01T11:34:59.25Z</time></trkpt><trkpt lat="44.9055433" lon="6.6304233"><ele>1284.0</ele><time>2026-05-01T11:35:00.249Z</time></trkpt><trkpt lat="44.9055617" lon="6.6303167"><ele>1283.0</ele><time>2026-05-01T11:35:01.25Z</time></trkpt><trkpt lat="44.90558" lon="6.6302117"><ele>1282.0</ele><time>2026-05-01T11:35:02.25Z</time></trkpt><trkpt lat="44.9055983" lon="6.6301083"><ele>1281.0</ele><time>2026-05-01T11:35:03.25Z</time></trkpt><trkpt lat="44.90563" lon="6.6299867"><ele>1279.25</ele><time>2026-05-01T11:35:04.25Z</time></trkpt><trkpt lat="44.9056483" lon="6.62984"><ele>1277.5</ele><time>2026-05-01T11:35:05.25Z</time></trkpt><trkpt lat="44.9056633" lon="6.6296817"><ele>1275.75</ele><time>2026-05-01T11:35:06.249Z</time></trkpt><trkpt lat="44.9056667" lon="6.6294783"><ele>1274.0</ele><time>2026-05-01T11:35:07.249Z</time></trkpt><trkpt lat="44.9056583" lon="6.6293017"><ele>1272.8</ele><time>2026-05-01T11:35:08.25Z</time></trkpt><trkpt lat="44.9056667" lon="6.6291367"><ele>1271.6000000000001</ele><time>2026-05-01T11:35:09.249Z</time></trkpt><trkpt lat="44.9056617" lon="6.6290083"><ele>1270.4</ele><time>2026-05-01T11:35:10.25Z</time></trkpt><trkpt lat="44.9056517" lon="6.62891"><ele>1269.2</ele><time>2026-05-01T11:35:11.249Z</time></trkpt><trkpt lat="44.9056333" lon="6.6287633"><ele>1268.0</ele><time>2026-05-01T11:35:13.25Z</time></trkpt><trkpt lat="44.905675" lon="6.62853"><ele>1267.3333333333335</ele><time>2026-05-01T11:35:17.249Z</time></trkpt><trkpt lat="44.9057" lon="6.6284367"><ele>1266.6666666666667</ele><time>2026-05-01T11:35:18.25Z</time></trkpt><trkpt lat="44.9057433" lon="6.6283383"><ele>1266.0</ele><time>2026-05-01T11:35:19.25Z</time></trkpt><trkpt lat="44.90579" lon="6.6282383"><ele>1265.3333333333333</ele><time>2026-05-01T11:35:20.25Z</time></trkpt><trkpt lat="44.905855" lon="6.62814"><ele>1264.6666666666665</ele><time>2026-05-01T11:35:21.25Z</time></trkpt><trkpt lat="44.9059483" lon="6.6280467"><ele>1264.0</ele><time>2026-05-01T11:35:22.249Z</time></trkpt><trkpt lat="44.906065" lon="6.6279533"><ele>1265.25</ele><time>2026-05-01T11:35:23.25Z</time></trkpt><trkpt lat="44.9061683" lon="6.62787"><ele>1266.5</ele><time>2026-05-01T11:35:24.25Z</time></trkpt><trkpt lat="44.906305" lon="6.6277867"><ele>1267.75</ele><time>2026-05-01T11:35:25.25Z</time></trkpt><trkpt lat="44.9064517" lon="6.6277383"><ele>1269.0</ele><time>2026-05-01T11:35:26.25Z</time></trkpt><trkpt lat="44.9065883" lon="6.62769"><ele>1269.0</ele><time>2026-05-01T11:35:27.25Z</time></trkpt><trkpt lat="44.9067233" lon="6.62767"><ele>1269.0</ele><time>2026-05-01T11:35:28.25Z</time></trkpt><trkpt lat="44.9068817" lon="6.6276583"><ele>1269.0</ele><time>2026-05-01T11:35:29.25Z</time></trkpt><trkpt lat="44.90703" lon="6.6276483"><ele>1269.0</ele><time>2026-05-01T11:35:30.25Z</time></trkpt><trkpt lat="44.9071883" lon="6.6276367"><ele>1272.0</ele><time>2026-05-01T11:35:31.249Z</time></trkpt><trkpt lat="44.9073433" lon="6.62765"><ele>1275.0</ele><time>2026-05-01T11:35:32.25Z</time></trkpt><trkpt lat="44.90749" lon="6.62762"><ele>1278.0</ele><time>2026-05-01T11:35:33.25Z</time></trkpt><trkpt lat="44.9076283" lon="6.6275967"><ele>1281.0</ele><time>2026-05-01T11:35:34.249Z</time></trkpt><trkpt lat="44.907935" lon="6.6275083"><ele>1283.0</ele><time>2026-05-01T11:35:36.25Z</time></trkpt><trkpt lat="44.9080683" lon="6.6274267"><ele>1285.0</ele><time>2026-05-01T11:35:37.25Z</time></trkpt><trkpt lat="44.9081983" lon="6.6273167"><ele>1287.0</ele><time>2026-05-01T11:35:38.25Z</time></trkpt><trkpt lat="44.9083433" lon="6.627195"><ele>1288.5</ele><time>2026-05-01T11:35:39.25Z</time></trkpt><trkpt lat="44.9084583" lon="6.6270967"><ele>1290.0</ele><time>2026-05-01T11:35:40.249Z</time></trkpt><trkpt lat="44.9085783" lon="6.626995"><ele>1291.5</ele><time>2026-05-01T11:35:41.249Z</time></trkpt><trkpt lat="44.9087" lon="6.6268983"><ele>1293.0</ele><time>2026-05-01T11:35:42.25Z</time></trkpt><trkpt lat="44.9088217" lon="6.6267917"><ele>1293.0</ele><time>2026-05-01T11:35:43.249Z</time></trkpt><trkpt lat="44.9089433" lon="6.626705"><ele>1293.0</ele><time>2026-05-01T11:35:44.25Z</time></trkpt><trkpt lat="44.9090583" lon="6.6266217"><ele>1293.0</ele><time>2026-05-01T11:35:45.25Z</time></trkpt><trkpt lat="44.9091783" lon="6.6265367"><ele>1293.0</ele><time>2026-05-01T11:35:46.249Z</time></trkpt><trkpt lat="44.9092967" lon="6.62645"><ele>1293.25</ele><time>2026-05-01T11:35:47.249Z</time></trkpt><trkpt lat="44.9094183" lon="6.6263517"><ele>1293.5</ele><time>2026-05-01T11:35:48.25Z</time></trkpt><trkpt lat="44.909535" lon="6.6262567"><ele>1293.75</ele><time>2026-05-01T11:35:49.25Z</time></trkpt><trkpt lat="44.9096483" lon="6.6261783"><ele>1294.0</ele><time>2026-05-01T11:35:50.25Z</time></trkpt><trkpt lat="44.9097617" lon="6.6260933"><ele>1294.0</ele><time>2026-05-01T11:35:51.249Z</time></trkpt><trkpt lat="44.9098683" lon="6.6260067"><ele>1294.0</ele><time>2026-05-01T11:35:52.25Z</time></trkpt><trkpt lat="44.909975" lon="6.6259133"><ele>1294.0</ele><time>2026-05-01T11:35:53.25Z</time></trkpt><trkpt lat="44.910085" lon="6.62579"><ele>1294.0</ele><time>2026-05-01T11:35:54.25Z</time></trkpt><trkpt lat="44.9101983" lon="6.6256433"><ele>1297.0</ele><time>2026-05-01T11:35:55.249Z</time></trkpt><trkpt lat="44.910415" lon="6.6253383"><ele>1300.0</ele><time>2026-05-01T11:35:57.25Z</time></trkpt><trkpt lat="44.9105167" lon="6.625195"><ele>1300.0</ele><time>2026-05-01T11:35:58.249Z</time></trkpt><trkpt lat="44.9106217" lon="6.6250633"><ele>1300.0</ele><time>2026-05-01T11:35:59.25Z</time></trkpt><trkpt lat="44.9107333" lon="6.62494"><ele>1300.0</ele><time>2026-05-01T11:36:00.249Z</time></trkpt><trkpt lat="44.9108233" lon="6.6248117"><ele>1300.0</ele><time>2026-05-01T11:36:01.25Z</time></trkpt><trkpt lat="44.91092" lon="6.6246767"><ele>1301.25</ele><time>2026-05-01T11:36:02.25Z</time></trkpt><trkpt lat="44.91101" lon="6.6245833"><ele>1302.5</ele><time>2026-05-01T11:36:03.25Z</time></trkpt><trkpt lat="44.9111" lon="6.6244667"><ele>1303.75</ele><time>2026-05-01T11:36:04.25Z</time></trkpt><trkpt lat="44.9111883" lon="6.6243633"><ele>1305.0</ele><time>2026-05-01T11:36:05.25Z</time></trkpt><trkpt lat="44.9112933" lon="6.6242817"><ele>1305.0</ele><time>2026-05-01T11:36:06.249Z</time></trkpt><trkpt lat="44.9114133" lon="6.6242133"><ele>1305.0</ele><time>2026-05-01T11:36:07.25Z</time></trkpt><trkpt lat="44.9115233" lon="6.6241683"><ele>1305.0</ele><time>2026-05-01T11:36:08.25Z</time></trkpt><trkpt lat="44.9116317" lon="6.624135"><ele>1305.0</ele><time>2026-05-01T11:36:09.25Z</time></trkpt><trkpt lat="44.9117367" lon="6.62411"><ele>1306.6</ele><time>2026-05-01T11:36:10.249Z</time></trkpt><trkpt lat="44.9118383" lon="6.6240783"><ele>1308.2</ele><time>2026-05-01T11:36:11.249Z</time></trkpt><trkpt lat="44.9119517" lon="6.6240533"><ele>1309.8000000000002</ele><time>2026-05-01T11:36:12.25Z</time></trkpt><trkpt lat="44.912065" lon="6.6240367"><ele>1311.4</ele><time>2026-05-01T11:36:13.249Z</time></trkpt><trkpt lat="44.9121667" lon="6.624045"><ele>1313.0</ele><time>2026-05-01T11:36:14.25Z</time></trkpt><trkpt lat="44.9122817" lon="6.6240367"><ele>1313.0</ele><time>2026-05-01T11:36:15.249Z</time></trkpt><trkpt lat="44.912405" lon="6.62404"><ele>1313.0</ele><time>2026-05-01T11:36:16.25Z</time></trkpt><trkpt lat="44.91267" lon="6.624035"><ele>1313.0</ele><time>2026-05-01T11:36:18.249Z</time></trkpt><trkpt lat="44.9128183" lon="6.6240167"><ele>1315.3333333333335</ele><time>2026-05-01T11:36:19.25Z</time></trkpt><trkpt lat="44.912965" lon="6.6239533"><ele>1317.6666666666667</ele><time>2026-05-01T11:36:20.249Z</time></trkpt><trkpt lat="44.9131117" lon="6.6238267"><ele>1320.0</ele><time>2026-05-01T11:36:21.249Z</time></trkpt><trkpt lat="44.9132567" lon="6.623675"><ele>1320.0</ele><time>2026-05-01T11:36:22.248Z</time></trkpt><trkpt lat="44.9133917" lon="6.623535"><ele>1320.0</ele><time>2026-05-01T11:36:23.248Z</time></trkpt><trkpt lat="44.913495" lon="6.6234383"><ele>1320.0</ele><time>2026-05-01T11:36:24.248Z</time></trkpt><trkpt lat="44.9135967" lon="6.623355"><ele>1320.0</ele><time>2026-05-01T11:36:25.248Z</time></trkpt><trkpt lat="44.9137083" lon="6.6233"><ele>1320.0</ele><time>2026-05-01T11:36:26.248Z</time></trkpt><trkpt lat="44.9138133" lon="6.6232583"><ele>1320.0</ele><time>2026-05-01T11:36:27.249Z</time></trkpt><trkpt lat="44.9139167" lon="6.6232433"><ele>1320.0</ele><time>2026-05-01T11:36:28.249Z</time></trkpt><trkpt lat="44.9139983" lon="6.62323"><ele>1320.0</ele><time>2026-05-01T11:36:29.249Z</time></trkpt><trkpt lat="44.9140733" lon="6.6232033"><ele>1320.0</ele><time>2026-05-01T11:36:30.249Z</time></trkpt><trkpt lat="44.9141417" lon="6.623185"><ele>1320.0</ele><time>2026-05-01T11:36:31.248Z</time></trkpt><trkpt lat="44.9142467" lon="6.6231533"><ele>1322.5</ele><time>2026-05-01T11:36:33.248Z</time></trkpt><trkpt lat="44.9143217" lon="6.62312"><ele>1325.0</ele><time>2026-05-01T11:36:35.249Z</time></trkpt><trkpt lat="44.9143967" lon="6.6231"><ele>1327.5</ele><time>2026-05-01T11:36:38.249Z</time></trkpt><trkpt lat="44.9145517" lon="6.6230783"><ele>1330.0</ele><time>2026-05-01T11:36:54.248Z</time></trkpt><trkpt lat="44.9146917" lon="6.6230617"><ele>1330.0</ele><time>2026-05-01T11:36:56.249Z</time></trkpt><trkpt lat="44.9147783" lon="6.6230483"><ele>1330.0</ele><time>2026-05-01T11:36:57.249Z</time></trkpt><trkpt lat="44.9148817" lon="6.62303"><ele>1330.0</ele><time>2026-05-01T11:36:58.248Z</time></trkpt><trkpt lat="44.9149683" lon="6.623"><ele>1330.0</ele><time>2026-05-01T11:36:59.249Z</time></trkpt><trkpt lat="44.9151917" lon="6.6229267"><ele>1329.25</ele><time>2026-05-01T11:37:01.249Z</time></trkpt><trkpt lat="44.9153233" lon="6.62288"><ele>1328.5</ele><time>2026-05-01T11:37:02.248Z</time></trkpt><trkpt lat="44.9154717" lon="6.62282"><ele>1327.75</ele><time>2026-05-01T11:37:03.248Z</time></trkpt><trkpt lat="44.915585" lon="6.622785"><ele>1327.0</ele><time>2026-05-01T11:37:04.248Z</time></trkpt><trkpt lat="44.9157017" lon="6.622755"><ele>1327.0</ele><time>2026-05-01T11:37:05.248Z</time></trkpt><trkpt lat="44.9158267" lon="6.622725"><ele>1327.0</ele><time>2026-05-01T11:37:06.248Z</time></trkpt><trkpt lat="44.91596" lon="6.6226867"><ele>1327.0</ele><time>2026-05-01T11:37:07.249Z</time></trkpt><trkpt lat="44.9160933" lon="6.62264"><ele>1327.0</ele><time>2026-05-01T11:37:08.249Z</time></trkpt><trkpt lat="44.9162333" lon="6.6225917"><ele>1329.5</ele><time>2026-05-01T11:37:09.249Z</time></trkpt><trkpt lat="44.9163617" lon="6.62254"><ele>1332.0</ele><time>2026-05-01T11:37:10.248Z</time></trkpt><trkpt lat="44.9164917" lon="6.6224933"><ele>1334.5</ele><time>2026-05-01T11:37:11.249Z</time></trkpt><trkpt lat="44.9166217" lon="6.62243"><ele>1337.0</ele><time>2026-05-01T11:37:12.249Z</time></trkpt><trkpt lat="44.9167683" lon="6.622345"><ele>1341.6666666666667</ele><time>2026-05-01T11:37:13.248Z</time></trkpt><trkpt lat="44.916905" lon="6.62228"><ele>1346.3333333333333</ele><time>2026-05-01T11:37:14.249Z</time></trkpt><trkpt lat="44.9170433" lon="6.6222017"><ele>1351.0</ele><time>2026-05-01T11:37:15.249Z</time></trkpt><trkpt lat="44.9171883" lon="6.6221017"><ele>1351.0</ele><time>2026-05-01T11:37:16.249Z</time></trkpt><trkpt lat="44.9173233" lon="6.6220017"><ele>1351.0</ele><time>2026-05-01T11:37:17.248Z</time></trkpt><trkpt lat="44.9174517" lon="6.6219117"><ele>1351.0</ele><time>2026-05-01T11:37:18.248Z</time></trkpt><trkpt lat="44.9175767" lon="6.621805"><ele>1351.0</ele><time>2026-05-01T11:37:19.249Z</time></trkpt><trkpt lat="44.9177" lon="6.6216367"><ele>1350.5</ele><time>2026-05-01T11:37:20.249Z</time></trkpt><trkpt lat="44.9178983" lon="6.6212683"><ele>1350.0</ele><time>2026-05-01T11:37:22.249Z</time></trkpt><trkpt lat="44.917995" lon="6.6210817"><ele>1346.6666666666667</ele><time>2026-05-01T11:37:23.249Z</time></trkpt><trkpt lat="44.9181033" lon="6.62087"><ele>1343.3333333333335</ele><time>2026-05-01T11:37:24.249Z</time></trkpt><trkpt lat="44.9182133" lon="6.6206633"><ele>1340.0</ele><time>2026-05-01T11:37:25.249Z</time></trkpt><trkpt lat="44.9183217" lon="6.62048"><ele>1341.6666666666667</ele><time>2026-05-01T11:37:26.249Z</time></trkpt><trkpt lat="44.91843" lon="6.62029"><ele>1343.3333333333333</ele><time>2026-05-01T11:37:27.248Z</time></trkpt><trkpt lat="44.918535" lon="6.62011"><ele>1345.0</ele><time>2026-05-01T11:37:28.248Z</time></trkpt><trkpt lat="44.918635" lon="6.6199333"><ele>1345.0</ele><time>2026-05-01T11:37:29.249Z</time></trkpt><trkpt lat="44.9187433" lon="6.619755"><ele>1345.0</ele><time>2026-05-01T11:37:30.249Z</time></trkpt><trkpt lat="44.91884" lon="6.619565"><ele>1345.0</ele><time>2026-05-01T11:37:31.249Z</time></trkpt><trkpt lat="44.91894" lon="6.6193817"><ele>1344.0</ele><time>2026-05-01T11:37:32.248Z</time></trkpt><trkpt lat="44.9190567" lon="6.61923"><ele>1343.0</ele><time>2026-05-01T11:37:33.248Z</time></trkpt><trkpt lat="44.91918" lon="6.6190633"><ele>1342.0</ele><time>2026-05-01T11:37:34.249Z</time></trkpt><trkpt lat="44.91931" lon="6.6188867"><ele>1344.6666666666665</ele><time>2026-05-01T11:37:35.248Z</time></trkpt><trkpt lat="44.9194467" lon="6.618715"><ele>1347.3333333333333</ele><time>2026-05-01T11:37:36.248Z</time></trkpt><trkpt lat="44.9195833" lon="6.6185483"><ele>1350.0</ele><time>2026-05-01T11:37:37.249Z</time></trkpt><trkpt lat="44.9197233" lon="6.6183767"><ele>1350.0</ele><time>2026-05-01T11:37:38.248Z</time></trkpt><trkpt lat="44.9198733" lon="6.6181933"><ele>1350.0</ele><time>2026-05-01T11:37:39.248Z</time></trkpt><trkpt lat="44.92002" lon="6.6180033"><ele>1350.0</ele><time>2026-05-01T11:37:40.249Z</time></trkpt><trkpt lat="44.920165" lon="6.6178033"><ele>1350.5</ele><time>2026-05-01T11:37:41.249Z</time></trkpt><trkpt lat="44.9205033" lon="6.617465"><ele>1351.0</ele><time>2026-05-01T11:37:43.249Z</time></trkpt><trkpt lat="44.9206417" lon="6.6172833"><ele>1351.0</ele><time>2026-05-01T11:37:44.249Z</time></trkpt><trkpt lat="44.9207767" lon="6.6171"><ele>1351.0</ele><time>2026-05-01T11:37:45.248Z</time></trkpt><trkpt lat="44.9209517" lon="6.6169317"><ele>1351.0</ele><time>2026-05-01T11:37:46.249Z</time></trkpt><trkpt lat="44.92111" lon="6.6167517"><ele>1352.6666666666665</ele><time>2026-05-01T11:37:47.249Z</time></trkpt><trkpt lat="44.9212517" lon="6.6165533"><ele>1354.3333333333333</ele><time>2026-05-01T11:37:48.249Z</time></trkpt><trkpt lat="44.9213733" lon="6.6163533"><ele>1356.0</ele><time>2026-05-01T11:37:49.249Z</time></trkpt><trkpt lat="44.9215133" lon="6.6161533"><ele>1356.3333333333333</ele><time>2026-05-01T11:37:50.249Z</time></trkpt><trkpt lat="44.9216533" lon="6.615955"><ele>1356.6666666666665</ele><time>2026-05-01T11:37:51.249Z</time></trkpt><trkpt lat="44.9217983" lon="6.6157633"><ele>1357.0</ele><time>2026-05-01T11:37:52.248Z</time></trkpt><trkpt lat="44.92194" lon="6.6155683"><ele>1357.0</ele><time>2026-05-01T11:37:53.249Z</time></trkpt><trkpt lat="44.9220683" lon="6.615385"><ele>1357.0</ele><time>2026-05-01T11:37:54.248Z</time></trkpt><trkpt lat="44.922095" lon="6.615105"><ele>1357.0</ele><time>2026-05-01T11:37:55.249Z</time></trkpt><trkpt lat="44.92219" lon="6.61486"><ele>1352.0</ele><time>2026-05-01T11:37:56.249Z</time></trkpt><trkpt lat="44.92226" lon="6.6146117"><ele>1347.0</ele><time>2026-05-01T11:37:57.248Z</time></trkpt><trkpt lat="44.9223217" lon="6.6143767"><ele>1342.0</ele><time>2026-05-01T11:37:58.249Z</time></trkpt><trkpt lat="44.9223633" lon="6.6141433"><ele>1340.25</ele><time>2026-05-01T11:37:59.249Z</time></trkpt><trkpt lat="44.9224033" lon="6.6139383"><ele>1338.5</ele><time>2026-05-01T11:38:00.249Z</time></trkpt><trkpt lat="44.9224467" lon="6.6137533"><ele>1336.75</ele><time>2026-05-01T11:38:01.249Z</time></trkpt><trkpt lat="44.9224617" lon="6.613575"><ele>1335.0</ele><time>2026-05-01T11:38:02.248Z</time></trkpt><trkpt lat="44.9224783" lon="6.61327"><ele>1335.1666666666667</ele><time>2026-05-01T11:38:04.249Z</time></trkpt><trkpt lat="44.92248" lon="6.6131367"><ele>1335.3333333333333</ele><time>2026-05-01T11:38:05.249Z</time></trkpt><trkpt lat="44.92248" lon="6.61301"><ele>1335.5</ele><time>2026-05-01T11:38:06.248Z</time></trkpt><trkpt lat="44.922485" lon="6.6128967"><ele>1335.6666666666665</ele><time>2026-05-01T11:38:07.249Z</time></trkpt><trkpt lat="44.9224967" lon="6.61279"><ele>1335.8333333333333</ele><time>2026-05-01T11:38:08.249Z</time></trkpt><trkpt lat="44.9225083" lon="6.6126817"><ele>1336.0</ele><time>2026-05-01T11:38:09.249Z</time></trkpt><trkpt lat="44.9225217" lon="6.6125783"><ele>1336.0</ele><time>2026-05-01T11:38:10.249Z</time></trkpt><trkpt lat="44.922555" lon="6.61247"><ele>1336.0</ele><time>2026-05-01T11:38:11.249Z</time></trkpt><trkpt lat="44.9225967" lon="6.6123683"><ele>1336.0</ele><time>2026-05-01T11:38:12.249Z</time></trkpt><trkpt lat="44.9226417" lon="6.6122583"><ele>1336.0</ele><time>2026-05-01T11:38:13.248Z</time></trkpt><trkpt lat="44.9226667" lon="6.6121533"><ele>1336.0</ele><time>2026-05-01T11:38:14.249Z</time></trkpt><trkpt lat="44.9226767" lon="6.6120317"><ele>1336.0</ele><time>2026-05-01T11:38:15.248Z</time></trkpt><trkpt lat="44.92265" lon="6.6118917"><ele>1338.25</ele><time>2026-05-01T11:38:16.249Z</time></trkpt><trkpt lat="44.922635" lon="6.61175"><ele>1340.5</ele><time>2026-05-01T11:38:17.249Z</time></trkpt><trkpt lat="44.9226433" lon="6.6115967"><ele>1342.75</ele><time>2026-05-01T11:38:18.249Z</time></trkpt><trkpt lat="44.922665" lon="6.6114283"><ele>1345.0</ele><time>2026-05-01T11:38:19.248Z</time></trkpt><trkpt lat="44.9227167" lon="6.6112317"><ele>1343.6666666666665</ele><time>2026-05-01T11:38:20.248Z</time></trkpt><trkpt lat="44.9227733" lon="6.6110317"><ele>1342.3333333333333</ele><time>2026-05-01T11:38:21.249Z</time></trkpt><trkpt lat="44.9228267" lon="6.6108217"><ele>1341.0</ele><time>2026-05-01T11:38:22.248Z</time></trkpt><trkpt lat="44.9229" lon="6.6106067"><ele>1338.5</ele><time>2026-05-01T11:38:23.249Z</time></trkpt><trkpt lat="44.9230367" lon="6.6101867"><ele>1336.0</ele><time>2026-05-01T11:38:25.249Z</time></trkpt><trkpt lat="44.923105" lon="6.6099567"><ele>1336.0</ele><time>2026-05-01T11:38:26.249Z</time></trkpt><trkpt lat="44.9231517" lon="6.60972"><ele>1336.0</ele><time>2026-05-01T11:38:27.249Z</time></trkpt><trkpt lat="44.9232417" lon="6.6094967"><ele>1336.0</ele><time>2026-05-01T11:38:28.248Z</time></trkpt><trkpt lat="44.9233417" lon="6.6092583"><ele>1339.0</ele><time>2026-05-01T11:38:29.249Z</time></trkpt><trkpt lat="44.92346" lon="6.6090183"><ele>1342.0</ele><time>2026-05-01T11:38:30.249Z</time></trkpt><trkpt lat="44.9235767" lon="6.6087633"><ele>1345.0</ele><time>2026-05-01T11:38:31.249Z</time></trkpt><trkpt lat="44.9236833" lon="6.608495"><ele>1345.0</ele><time>2026-05-01T11:38:32.248Z</time></trkpt><trkpt lat="44.9237833" lon="6.6082233"><ele>1345.0</ele><time>2026-05-01T11:38:33.249Z</time></trkpt><trkpt lat="44.9238917" lon="6.6079483"><ele>1345.0</ele><time>2026-05-01T11:38:34.248Z</time></trkpt><trkpt lat="44.924" lon="6.6076583"><ele>1346.0</ele><time>2026-05-01T11:38:35.249Z</time></trkpt><trkpt lat="44.9241217" lon="6.6073733"><ele>1347.0</ele><time>2026-05-01T11:38:36.248Z</time></trkpt><trkpt lat="44.9242417" lon="6.60709"><ele>1344.0</ele><time>2026-05-01T11:38:37.249Z</time></trkpt><trkpt lat="44.92436" lon="6.6068133"><ele>1341.0</ele><time>2026-05-01T11:38:38.248Z</time></trkpt><trkpt lat="44.9244767" lon="6.606535"><ele>1341.0</ele><time>2026-05-01T11:38:39.248Z</time></trkpt><trkpt lat="44.9245933" lon="6.606255"><ele>1341.0</ele><time>2026-05-01T11:38:40.249Z</time></trkpt><trkpt lat="44.9247117" lon="6.6059717"><ele>1340.3333333333333</ele><time>2026-05-01T11:38:41.248Z</time></trkpt><trkpt lat="44.9248317" lon="6.605705"><ele>1339.6666666666665</ele><time>2026-05-01T11:38:42.249Z</time></trkpt><trkpt lat="44.924955" lon="6.6054433"><ele>1339.0</ele><time>2026-05-01T11:38:43.249Z</time></trkpt><trkpt lat="44.9250883" lon="6.605185"><ele>1339.0</ele><time>2026-05-01T11:38:44.249Z</time></trkpt><trkpt lat="44.9253333" lon="6.604615"><ele>1337.5</ele><time>2026-05-01T11:38:46.249Z</time></trkpt><trkpt lat="44.9254433" lon="6.6043383"><ele>1336.0</ele><time>2026-05-01T11:38:47.248Z</time></trkpt><trkpt lat="44.9255617" lon="6.604065"><ele>1336.0</ele><time>2026-05-01T11:38:48.249Z</time></trkpt><trkpt lat="44.9256883" lon="6.60379"><ele>1336.0</ele><time>2026-05-01T11:38:49.249Z</time></trkpt><trkpt lat="44.9258067" lon="6.60351"><ele>1338.6666666666665</ele><time>2026-05-01T11:38:50.249Z</time></trkpt><trkpt lat="44.9259217" lon="6.6032433"><ele>1341.3333333333333</ele><time>2026-05-01T11:38:51.249Z</time></trkpt><trkpt lat="44.9260317" lon="6.6029783"><ele>1344.0</ele><time>2026-05-01T11:38:52.249Z</time></trkpt><trkpt lat="44.9261567" lon="6.602715"><ele>1344.3333333333333</ele><time>2026-05-01T11:38:53.248Z</time></trkpt><trkpt lat="44.9262683" lon="6.6024533"><ele>1344.6666666666665</ele><time>2026-05-01T11:38:54.249Z</time></trkpt><trkpt lat="44.92638" lon="6.6022133"><ele>1345.0</ele><time>2026-05-01T11:38:55.249Z</time></trkpt><trkpt lat="44.9264867" lon="6.6019917"><ele>1343.6666666666665</ele><time>2026-05-01T11:38:56.249Z</time></trkpt><trkpt lat="44.9266017" lon="6.6017533"><ele>1342.3333333333333</ele><time>2026-05-01T11:38:57.249Z</time></trkpt><trkpt lat="44.9267033" lon="6.6015267"><ele>1341.0</ele><time>2026-05-01T11:38:58.249Z</time></trkpt><trkpt lat="44.9268117" lon="6.6012717"><ele>1344.3333333333333</ele><time>2026-05-01T11:38:59.248Z</time></trkpt><trkpt lat="44.926915" lon="6.601055"><ele>1347.6666666666665</ele><time>2026-05-01T11:39:00.248Z</time></trkpt><trkpt lat="44.92701" lon="6.6008417"><ele>1351.0</ele><time>2026-05-01T11:39:01.249Z</time></trkpt><trkpt lat="44.9270983" lon="6.6006433"><ele>1351.0</ele><time>2026-05-01T11:39:02.249Z</time></trkpt><trkpt lat="44.9271917" lon="6.60044"><ele>1351.0</ele><time>2026-05-01T11:39:03.249Z</time></trkpt><trkpt lat="44.9272983" lon="6.6002267"><ele>1351.0</ele><time>2026-05-01T11:39:04.249Z</time></trkpt><trkpt lat="44.9274017" lon="6.6000183"><ele>1355.0</ele><time>2026-05-01T11:39:05.248Z</time></trkpt><trkpt lat="44.9276" lon="6.5995633"><ele>1359.0</ele><time>2026-05-01T11:39:07.248Z</time></trkpt><trkpt lat="44.9277133" lon="6.5993033"><ele>1359.0</ele><time>2026-05-01T11:39:08.249Z</time></trkpt><trkpt lat="44.92782" lon="6.59905"><ele>1359.0</ele><time>2026-05-01T11:39:09.248Z</time></trkpt><trkpt lat="44.9279217" lon="6.5988083"><ele>1359.0</ele><time>2026-05-01T11:39:10.249Z</time></trkpt><trkpt lat="44.9280333" lon="6.598565"><ele>1357.3333333333333</ele><time>2026-05-01T11:39:11.249Z</time></trkpt><trkpt lat="44.9281533" lon="6.59832"><ele>1355.6666666666665</ele><time>2026-05-01T11:39:12.248Z</time></trkpt><trkpt lat="44.9282633" lon="6.59807"><ele>1354.0</ele><time>2026-05-01T11:39:13.249Z</time></trkpt><trkpt lat="44.9283733" lon="6.59782"><ele>1356.6666666666665</ele><time>2026-05-01T11:39:14.248Z</time></trkpt><trkpt lat="44.9284833" lon="6.5975633"><ele>1359.3333333333333</ele><time>2026-05-01T11:39:15.249Z</time></trkpt><trkpt lat="44.9285933" lon="6.5973"><ele>1362.0</ele><time>2026-05-01T11:39:16.249Z</time></trkpt><trkpt lat="44.92871" lon="6.5970267"><ele>1360.6666666666667</ele><time>2026-05-01T11:39:17.249Z</time></trkpt><trkpt lat="44.9288217" lon="6.5967583"><ele>1359.3333333333335</ele><time>2026-05-01T11:39:18.248Z</time></trkpt><trkpt lat="44.9289317" lon="6.5965317"><ele>1358.0</ele><time>2026-05-01T11:39:19.249Z</time></trkpt><trkpt lat="44.92903" lon="6.5963067"><ele>1358.6666666666667</ele><time>2026-05-01T11:39:20.249Z</time></trkpt><trkpt lat="44.9291367" lon="6.59608"><ele>1359.3333333333333</ele><time>2026-05-01T11:39:21.249Z</time></trkpt><trkpt lat="44.9292467" lon="6.5958417"><ele>1360.0</ele><time>2026-05-01T11:39:22.248Z</time></trkpt><trkpt lat="44.9293667" lon="6.59561"><ele>1360.0</ele><time>2026-05-01T11:39:23.248Z</time></trkpt><trkpt lat="44.92949" lon="6.5953733"><ele>1360.0</ele><time>2026-05-01T11:39:24.248Z</time></trkpt><trkpt lat="44.929605" lon="6.5951333"><ele>1360.0</ele><time>2026-05-01T11:39:25.249Z</time></trkpt><trkpt lat="44.92973" lon="6.5948983"><ele>1361.0</ele><time>2026-05-01T11:39:26.249Z</time></trkpt><trkpt lat="44.9299767" lon="6.59444"><ele>1362.0</ele><time>2026-05-01T11:39:28.249Z</time></trkpt><trkpt lat="44.930085" lon="6.5942433"><ele>1362.0</ele><time>2026-05-01T11:39:29.248Z</time></trkpt><trkpt lat="44.9301817" lon="6.594075"><ele>1362.0</ele><time>2026-05-01T11:39:30.249Z</time></trkpt><trkpt lat="44.93027" lon="6.5939383"><ele>1362.0</ele><time>2026-05-01T11:39:31.249Z</time></trkpt><trkpt lat="44.9303317" lon="6.5938417"><ele>1362.0</ele><time>2026-05-01T11:39:32.249Z</time></trkpt><trkpt lat="44.9304067" lon="6.5937283"><ele>1361.8</ele><time>2026-05-01T11:39:33.249Z</time></trkpt><trkpt lat="44.9304917" lon="6.59364"><ele>1361.6</ele><time>2026-05-01T11:39:34.249Z</time></trkpt><trkpt lat="44.9305733" lon="6.5935533"><ele>1361.3999999999999</ele><time>2026-05-01T11:39:35.249Z</time></trkpt><trkpt lat="44.9306583" lon="6.59347"><ele>1361.1999999999998</ele><time>2026-05-01T11:39:36.249Z</time></trkpt><trkpt lat="44.9307333" lon="6.5933517"><ele>1361.0</ele><time>2026-05-01T11:39:37.249Z</time></trkpt><trkpt lat="44.93081" lon="6.5932133"><ele>1361.0</ele><time>2026-05-01T11:39:38.248Z</time></trkpt><trkpt lat="44.9308817" lon="6.5930533"><ele>1361.0</ele><time>2026-05-01T11:39:39.248Z</time></trkpt><trkpt lat="44.9309517" lon="6.5928933"><ele>1361.0</ele><time>2026-05-01T11:39:40.249Z</time></trkpt><trkpt lat="44.9310367" lon="6.5927367"><ele>1361.0</ele><time>2026-05-01T11:39:41.249Z</time></trkpt><trkpt lat="44.931125" lon="6.5926"><ele>1362.5</ele><time>2026-05-01T11:39:42.249Z</time></trkpt><trkpt lat="44.9312083" lon="6.59247"><ele>1364.0</ele><time>2026-05-01T11:39:43.249Z</time></trkpt><trkpt lat="44.9312833" lon="6.59234"><ele>1365.5</ele><time>2026-05-01T11:39:44.249Z</time></trkpt><trkpt lat="44.9313617" lon="6.5921983"><ele>1367.0</ele><time>2026-05-01T11:39:45.248Z</time></trkpt><trkpt lat="44.93144" lon="6.5920633"><ele>1366.6666666666667</ele><time>2026-05-01T11:39:46.249Z</time></trkpt><trkpt lat="44.9315083" lon="6.5919233"><ele>1366.3333333333333</ele><time>2026-05-01T11:39:47.249Z</time></trkpt><trkpt lat="44.93165" lon="6.5916667"><ele>1366.0</ele><time>2026-05-01T11:39:49.249Z</time></trkpt><trkpt lat="44.931725" lon="6.591535"><ele>1367.75</ele><time>2026-05-01T11:39:50.249Z</time></trkpt><trkpt lat="44.9318067" lon="6.5913967"><ele>1369.5</ele><time>2026-05-01T11:39:51.249Z</time></trkpt><trkpt lat="44.9318917" lon="6.5912517"><ele>1371.25</ele><time>2026-05-01T11:39:52.248Z</time></trkpt><trkpt lat="44.9319883" lon="6.59109"><ele>1373.0</ele><time>2026-05-01T11:39:53.249Z</time></trkpt><trkpt lat="44.93209" lon="6.5909233"><ele>1373.0</ele><time>2026-05-01T11:39:54.248Z</time></trkpt><trkpt lat="44.932195" lon="6.5907583"><ele>1373.0</ele><time>2026-05-01T11:39:55.249Z</time></trkpt><trkpt lat="44.9322883" lon="6.59062"><ele>1373.0</ele><time>2026-05-01T11:39:56.249Z</time></trkpt><trkpt lat="44.9323783" lon="6.5904983"><ele>1373.0</ele><time>2026-05-01T11:39:57.249Z</time></trkpt><trkpt lat="44.9324567" lon="6.5904083"><ele>1373.4</ele><time>2026-05-01T11:39:58.249Z</time></trkpt><trkpt lat="44.932525" lon="6.5903"><ele>1373.8000000000002</ele><time>2026-05-01T11:39:59.249Z</time></trkpt><trkpt lat="44.9325983" lon="6.5901933"><ele>1374.2</ele><time>2026-05-01T11:40:00.249Z</time></trkpt><trkpt lat="44.932665" lon="6.59009"><ele>1374.6</ele><time>2026-05-01T11:40:01.249Z</time></trkpt><trkpt lat="44.9327333" lon="6.589975"><ele>1375.0</ele><time>2026-05-01T11:40:02.249Z</time></trkpt><trkpt lat="44.9328067" lon="6.5898667"><ele>1375.0</ele><time>2026-05-01T11:40:03.249Z</time></trkpt><trkpt lat="44.93288" lon="6.5897583"><ele>1375.0</ele><time>2026-05-01T11:40:04.249Z</time></trkpt><trkpt lat="44.9329533" lon="6.5896467"><ele>1375.0</ele><time>2026-05-01T11:40:05.249Z</time></trkpt><trkpt lat="44.93303" lon="6.5895383"><ele>1375.0</ele><time>2026-05-01T11:40:06.249Z</time></trkpt><trkpt lat="44.9330983" lon="6.589425"><ele>1375.0</ele><time>2026-05-01T11:40:07.249Z</time></trkpt><trkpt lat="44.933165" lon="6.58932"><ele>1375.25</ele><time>2026-05-01T11:40:08.249Z</time></trkpt><trkpt lat="44.9333033" lon="6.5891217"><ele>1375.5</ele><time>2026-05-01T11:40:10.249Z</time></trkpt><trkpt lat="44.9333817" lon="6.5890167"><ele>1375.75</ele><time>2026-05-01T11:40:11.249Z</time></trkpt><trkpt lat="44.9334583" lon="6.58891"><ele>1376.0</ele><time>2026-05-01T11:40:12.248Z</time></trkpt><trkpt lat="44.9335433" lon="6.5887983"><ele>1376.0</ele><time>2026-05-01T11:40:13.249Z</time></trkpt><trkpt lat="44.9336283" lon="6.5886867"><ele>1376.0</ele><time>2026-05-01T11:40:14.249Z</time></trkpt><trkpt lat="44.9337117" lon="6.58857"><ele>1376.0</ele><time>2026-05-01T11:40:15.248Z</time></trkpt><trkpt lat="44.93379" lon="6.5884483"><ele>1376.0</ele><time>2026-05-01T11:40:16.249Z</time></trkpt><trkpt lat="44.9338717" lon="6.5883233"><ele>1374.75</ele><time>2026-05-01T11:40:17.249Z</time></trkpt><trkpt lat="44.9339583" lon="6.5881983"><ele>1373.5</ele><time>2026-05-01T11:40:18.249Z</time></trkpt><trkpt lat="44.93406" lon="6.5880533"><ele>1372.25</ele><time>2026-05-01T11:40:19.249Z</time></trkpt><trkpt lat="44.9341367" lon="6.5879083"><ele>1371.0</ele><time>2026-05-01T11:40:20.248Z</time></trkpt><trkpt lat="44.9342183" lon="6.5877433"><ele>1371.25</ele><time>2026-05-01T11:40:21.249Z</time></trkpt><trkpt lat="44.9342967" lon="6.5875817"><ele>1371.5</ele><time>2026-05-01T11:40:22.249Z</time></trkpt><trkpt lat="44.9343783" lon="6.5874167"><ele>1371.75</ele><time>2026-05-01T11:40:23.249Z</time></trkpt><trkpt lat="44.9344817" lon="6.5872367"><ele>1372.0</ele><time>2026-05-01T11:40:24.249Z</time></trkpt><trkpt lat="44.9345883" lon="6.58705"><ele>1369.6666666666665</ele><time>2026-05-01T11:40:25.249Z</time></trkpt><trkpt lat="44.9347033" lon="6.586875"><ele>1367.3333333333333</ele><time>2026-05-01T11:40:26.249Z</time></trkpt><trkpt lat="44.9348133" lon="6.5867067"><ele>1365.0</ele><time>2026-05-01T11:40:27.248Z</time></trkpt><trkpt lat="44.93493" lon="6.586545"><ele>1365.0</ele><time>2026-05-01T11:40:28.249Z</time></trkpt><trkpt lat="44.9350417" lon="6.5863633"><ele>1365.0</ele><time>2026-05-01T11:40:29.249Z</time></trkpt><trkpt lat="44.935245" lon="6.5859583"><ele>1366.0</ele><time>2026-05-01T11:40:31.249Z</time></trkpt><trkpt lat="44.9353433" lon="6.5857733"><ele>1367.0</ele><time>2026-05-01T11:40:32.248Z</time></trkpt><trkpt lat="44.935445" lon="6.5855817"><ele>1368.0</ele><time>2026-05-01T11:40:33.248Z</time></trkpt><trkpt lat="44.9355517" lon="6.5853833"><ele>1365.3333333333333</ele><time>2026-05-01T11:40:34.249Z</time></trkpt><trkpt lat="44.9356633" lon="6.5851917"><ele>1362.6666666666665</ele><time>2026-05-01T11:40:35.249Z</time></trkpt><trkpt lat="44.9357733" lon="6.5849933"><ele>1360.0</ele><time>2026-05-01T11:40:36.249Z</time></trkpt><trkpt lat="44.9358833" lon="6.5847783"><ele>1360.3333333333333</ele><time>2026-05-01T11:40:37.249Z</time></trkpt><trkpt lat="44.9359917" lon="6.5845767"><ele>1360.6666666666667</ele><time>2026-05-01T11:40:38.249Z</time></trkpt><trkpt lat="44.9361033" lon="6.5843783"><ele>1361.0</ele><time>2026-05-01T11:40:39.249Z</time></trkpt><trkpt lat="44.93621" lon="6.5841683"><ele>1361.0</ele><time>2026-05-01T11:40:40.248Z</time></trkpt><trkpt lat="44.9363267" lon="6.58395"><ele>1361.0</ele><time>2026-05-01T11:40:41.249Z</time></trkpt><trkpt lat="44.9364267" lon="6.5837433"><ele>1361.0</ele><time>2026-05-01T11:40:42.249Z</time></trkpt><trkpt lat="44.9365183" lon="6.5835483"><ele>1360.3333333333335</ele><time>2026-05-01T11:40:43.249Z</time></trkpt><trkpt lat="44.9366017" lon="6.5833433"><ele>1359.6666666666667</ele><time>2026-05-01T11:40:44.249Z</time></trkpt><trkpt lat="44.9366883" lon="6.58312"><ele>1359.0</ele><time>2026-05-01T11:40:45.249Z</time></trkpt><trkpt lat="44.9367667" lon="6.582895"><ele>1360.3333333333333</ele><time>2026-05-01T11:40:46.248Z</time></trkpt><trkpt lat="44.93684" lon="6.5826633"><ele>1361.6666666666665</ele><time>2026-05-01T11:40:47.249Z</time></trkpt><trkpt lat="44.9369133" lon="6.5823917"><ele>1363.0</ele><time>2026-05-01T11:40:48.248Z</time></trkpt><trkpt lat="44.936985" lon="6.5820917"><ele>1361.5</ele><time>2026-05-01T11:40:49.249Z</time></trkpt><trkpt lat="44.9370683" lon="6.5817833"><ele>1360.0</ele><time>2026-05-01T11:40:50.248Z</time></trkpt><trkpt lat="44.9372367" lon="6.5811317"><ele>1359.5</ele><time>2026-05-01T11:40:52.249Z</time></trkpt><trkpt lat="44.9373233" lon="6.5807983"><ele>1359.0</ele><time>2026-05-01T11:40:53.248Z</time></trkpt><trkpt lat="44.9374117" lon="6.5804667"><ele>1361.5</ele><time>2026-05-01T11:40:54.249Z</time></trkpt><trkpt lat="44.9375067" lon="6.5801233"><ele>1364.0</ele><time>2026-05-01T11:40:55.249Z</time></trkpt><trkpt lat="44.937605" lon="6.5797683"><ele>1370.0</ele><time>2026-05-01T11:40:56.249Z</time></trkpt><trkpt lat="44.9377017" lon="6.5794083"><ele>1376.0</ele><time>2026-05-01T11:40:57.248Z</time></trkpt><trkpt lat="44.9377983" lon="6.5790733"><ele>1376.0</ele><time>2026-05-01T11:40:58.249Z</time></trkpt><trkpt lat="44.9378783" lon="6.5787317"><ele>1376.0</ele><time>2026-05-01T11:40:59.249Z</time></trkpt><trkpt lat="44.9379517" lon="6.5783933"><ele>1375.3333333333335</ele><time>2026-05-01T11:41:00.248Z</time></trkpt><trkpt lat="44.9380567" lon="6.5780817"><ele>1374.6666666666667</ele><time>2026-05-01T11:41:01.249Z</time></trkpt><trkpt lat="44.93812" lon="6.5778233"><ele>1374.0</ele><time>2026-05-01T11:41:02.249Z</time></trkpt><trkpt lat="44.9381733" lon="6.5776117"><ele>1373.6666666666667</ele><time>2026-05-01T11:41:03.249Z</time></trkpt><trkpt lat="44.9382433" lon="6.5773833"><ele>1373.3333333333335</ele><time>2026-05-01T11:41:04.249Z</time></trkpt><trkpt lat="44.9383167" lon="6.5771483"><ele>1373.0</ele><time>2026-05-01T11:41:05.249Z</time></trkpt><trkpt lat="44.9383917" lon="6.5769417"><ele>1375.6666666666667</ele><time>2026-05-01T11:41:06.248Z</time></trkpt><trkpt lat="44.938455" lon="6.5767483"><ele>1378.3333333333333</ele><time>2026-05-01T11:41:07.249Z</time></trkpt><trkpt lat="44.9385133" lon="6.5765433"><ele>1381.0</ele><time>2026-05-01T11:41:08.249Z</time></trkpt><trkpt lat="44.9385817" lon="6.576325"><ele>1381.0</ele><time>2026-05-01T11:41:09.248Z</time></trkpt><trkpt lat="44.9386483" lon="6.57609"><ele>1381.0</ele><time>2026-05-01T11:41:10.248Z</time></trkpt><trkpt lat="44.9387067" lon="6.5758583"><ele>1381.0</ele><time>2026-05-01T11:41:11.249Z</time></trkpt><trkpt lat="44.938815" lon="6.5754317"><ele>1380.4</ele><time>2026-05-01T11:41:13.248Z</time></trkpt><trkpt lat="44.9388783" lon="6.5752617"><ele>1379.8</ele><time>2026-05-01T11:41:14.248Z</time></trkpt><trkpt lat="44.9389167" lon="6.5751067"><ele>1379.2</ele><time>2026-05-01T11:41:15.249Z</time></trkpt><trkpt lat="44.9389433" lon="6.5749683"><ele>1378.6000000000001</ele><time>2026-05-01T11:41:16.249Z</time></trkpt><trkpt lat="44.9389667" lon="6.574855"><ele>1378.0</ele><time>2026-05-01T11:41:17.248Z</time></trkpt><trkpt lat="44.9389833" lon="6.5747567"><ele>1378.0</ele><time>2026-05-01T11:41:18.248Z</time></trkpt><trkpt lat="44.93898" lon="6.57464"><ele>1378.0</ele><time>2026-05-01T11:41:21.249Z</time></trkpt><trkpt lat="44.938965" lon="6.5745533"><ele>1378.0</ele><time>2026-05-01T11:41:25.249Z</time></trkpt><trkpt lat="44.9388767" lon="6.5745767"><ele>1378.0</ele><time>2026-05-01T11:43:20.248Z</time></trkpt><trkpt lat="44.938845" lon="6.5744833"><ele>1378.0</ele><time>2026-05-01T11:47:28.248Z</time></trkpt><trkpt lat="44.938845" lon="6.5743883"><ele>1378.0</ele><time>2026-05-01T11:52:48.247Z</time></trkpt><trkpt lat="44.938955" lon="6.574315"><ele>1378.0</ele><time>2026-05-01T11:52:54.247Z</time></trkpt><trkpt lat="44.9390367" lon="6.5742817"><ele>1378.0</ele><time>2026-05-01T11:53:13.246Z</time></trkpt><trkpt lat="44.93913" lon="6.5741233"><ele>1378.0</ele><time>2026-05-01T11:53:16.247Z</time></trkpt><trkpt lat="44.939175" lon="6.5740167"><ele>1378.0</ele><time>2026-05-01T11:53:17.247Z</time></trkpt><trkpt lat="44.9392117" lon="6.5738883"><ele>1378.0</ele><time>2026-05-01T11:53:18.247Z</time></trkpt><trkpt lat="44.9392533" lon="6.5737433"><ele>1379.6000000000001</ele><time>2026-05-01T11:53:19.247Z</time></trkpt><trkpt lat="44.93929" lon="6.573595"><ele>1381.2</ele><time>2026-05-01T11:53:20.247Z</time></trkpt><trkpt lat="44.9393283" lon="6.5734567"><ele>1382.8</ele><time>2026-05-01T11:53:21.247Z</time></trkpt><trkpt lat="44.9393667" lon="6.5733183"><ele>1384.4</ele><time>2026-05-01T11:53:22.247Z</time></trkpt><trkpt lat="44.9394" lon="6.5731933"><ele>1386.0</ele><time>2026-05-01T11:53:23.247Z</time></trkpt><trkpt lat="44.9394433" lon="6.5730733"><ele>1386.0</ele><time>2026-05-01T11:53:24.247Z</time></trkpt><trkpt lat="44.9394883" lon="6.57292"><ele>1386.0</ele><time>2026-05-01T11:53:25.247Z</time></trkpt><trkpt lat="44.939545" lon="6.5727533"><ele>1386.0</ele><time>2026-05-01T11:53:26.246Z</time></trkpt><trkpt lat="44.9396167" lon="6.5725883"><ele>1386.0</ele><time>2026-05-01T11:53:27.246Z</time></trkpt><trkpt lat="44.939695" lon="6.5724117"><ele>1385.0</ele><time>2026-05-01T11:53:28.246Z</time></trkpt><trkpt lat="44.939775" lon="6.5722483"><ele>1384.0</ele><time>2026-05-01T11:53:29.247Z</time></trkpt><trkpt lat="44.93984" lon="6.572065"><ele>1383.0</ele><time>2026-05-01T11:53:30.246Z</time></trkpt><trkpt lat="44.9399017" lon="6.57187"><ele>1382.0</ele><time>2026-05-01T11:53:31.247Z</time></trkpt><trkpt lat="44.9399867" lon="6.5716683"><ele>1382.0</ele><time>2026-05-01T11:53:32.247Z</time></trkpt><trkpt lat="44.94007" lon="6.5714617"><ele>1382.0</ele><time>2026-05-01T11:53:33.247Z</time></trkpt><trkpt lat="44.9401583" lon="6.5712667"><ele>1382.0</ele><time>2026-05-01T11:53:34.246Z</time></trkpt><trkpt lat="44.94036" lon="6.5708833"><ele>1382.0</ele><time>2026-05-01T11:53:36.247Z</time></trkpt><trkpt lat="44.9404667" lon="6.5707"><ele>1382.0</ele><time>2026-05-01T11:53:37.247Z</time></trkpt><trkpt lat="44.9405783" lon="6.5705283"><ele>1382.0</ele><time>2026-05-01T11:53:38.246Z</time></trkpt><trkpt lat="44.9406967" lon="6.5703683"><ele>1382.0</ele><time>2026-05-01T11:53:39.247Z</time></trkpt><trkpt lat="44.940815" lon="6.5702"><ele>1382.0</ele><time>2026-05-01T11:53:40.247Z</time></trkpt><trkpt lat="44.9409283" lon="6.570045"><ele>1382.0</ele><time>2026-05-01T11:53:41.247Z</time></trkpt><trkpt lat="44.941045" lon="6.5698983"><ele>1382.0</ele><time>2026-05-01T11:53:42.246Z</time></trkpt><trkpt lat="44.9411633" lon="6.5697683"><ele>1382.0</ele><time>2026-05-01T11:53:43.247Z</time></trkpt><trkpt lat="44.9412867" lon="6.56965"><ele>1382.0</ele><time>2026-05-01T11:53:44.246Z</time></trkpt><trkpt lat="44.9414167" lon="6.5695417"><ele>1382.3333333333335</ele><time>2026-05-01T11:53:45.247Z</time></trkpt><trkpt lat="44.941545" lon="6.5694233"><ele>1382.6666666666667</ele><time>2026-05-01T11:53:46.246Z</time></trkpt><trkpt lat="44.9416817" lon="6.5693067"><ele>1383.0</ele><time>2026-05-01T11:53:47.247Z</time></trkpt><trkpt lat="44.9418133" lon="6.5691983"><ele>1383.0</ele><time>2026-05-01T11:53:48.247Z</time></trkpt><trkpt lat="44.9419367" lon="6.5690917"><ele>1383.0</ele><time>2026-05-01T11:53:49.247Z</time></trkpt><trkpt lat="44.94205" lon="6.5689783"><ele>1383.0</ele><time>2026-05-01T11:53:50.246Z</time></trkpt><trkpt lat="44.9421533" lon="6.5688467"><ele>1383.0</ele><time>2026-05-01T11:53:51.247Z</time></trkpt><trkpt lat="44.94225" lon="6.5687317"><ele>1381.6666666666667</ele><time>2026-05-01T11:53:52.247Z</time></trkpt><trkpt lat="44.9423583" lon="6.5686183"><ele>1380.3333333333335</ele><time>2026-05-01T11:53:53.246Z</time></trkpt><trkpt lat="44.9424733" lon="6.5684733"><ele>1379.0</ele><time>2026-05-01T11:53:54.247Z</time></trkpt><trkpt lat="44.9425867" lon="6.5683117"><ele>1380.3333333333335</ele><time>2026-05-01T11:53:55.247Z</time></trkpt><trkpt lat="44.9427667" lon="6.5679967"><ele>1381.6666666666667</ele><time>2026-05-01T11:53:57.247Z</time></trkpt><trkpt lat="44.942835" lon="6.567855"><ele>1383.0</ele><time>2026-05-01T11:53:58.247Z</time></trkpt><trkpt lat="44.9429067" lon="6.5677133"><ele>1383.0</ele><time>2026-05-01T11:53:59.246Z</time></trkpt><trkpt lat="44.9429817" lon="6.5675617"><ele>1383.0</ele><time>2026-05-01T11:54:00.247Z</time></trkpt><trkpt lat="44.9430417" lon="6.5673817"><ele>1383.0</ele><time>2026-05-01T11:54:01.246Z</time></trkpt><trkpt lat="44.943115" lon="6.5672083"><ele>1383.0</ele><time>2026-05-01T11:54:02.247Z</time></trkpt><trkpt lat="44.9432" lon="6.56701"><ele>1383.0</ele><time>2026-05-01T11:54:03.247Z</time></trkpt><trkpt lat="44.94326" lon="6.566825"><ele>1383.0</ele><time>2026-05-01T11:54:04.247Z</time></trkpt><trkpt lat="44.9433267" lon="6.5666517"><ele>1383.0</ele><time>2026-05-01T11:54:05.247Z</time></trkpt><trkpt lat="44.9434" lon="6.5664767"><ele>1383.0</ele><time>2026-05-01T11:54:06.247Z</time></trkpt><trkpt lat="44.94348" lon="6.5662917"><ele>1383.25</ele><time>2026-05-01T11:54:07.246Z</time></trkpt><trkpt lat="44.9435467" lon="6.5661033"><ele>1383.5</ele><time>2026-05-01T11:54:08.247Z</time></trkpt><trkpt lat="44.94361" lon="6.565925"><ele>1383.75</ele><time>2026-05-01T11:54:09.247Z</time></trkpt><trkpt lat="44.9436567" lon="6.5657483"><ele>1384.0</ele><time>2026-05-01T11:54:10.246Z</time></trkpt><trkpt lat="44.9437083" lon="6.5655817"><ele>1384.0</ele><time>2026-05-01T11:54:11.247Z</time></trkpt><trkpt lat="44.9437517" lon="6.5654083"><ele>1384.0</ele><time>2026-05-01T11:54:12.247Z</time></trkpt><trkpt lat="44.943805" lon="6.565245"><ele>1384.0</ele><time>2026-05-01T11:54:13.246Z</time></trkpt><trkpt lat="44.943865" lon="6.5650533"><ele>1384.0</ele><time>2026-05-01T11:54:14.247Z</time></trkpt><trkpt lat="44.94393" lon="6.564855"><ele>1384.5</ele><time>2026-05-01T11:54:15.247Z</time></trkpt><trkpt lat="44.9440067" lon="6.5646383"><ele>1385.0</ele><time>2026-05-01T11:54:16.246Z</time></trkpt><trkpt lat="44.9441667" lon="6.5642383"><ele>1384.75</ele><time>2026-05-01T11:54:18.247Z</time></trkpt><trkpt lat="44.9442517" lon="6.564065"><ele>1384.5</ele><time>2026-05-01T11:54:19.247Z</time></trkpt><trkpt lat="44.9443267" lon="6.5639"><ele>1384.25</ele><time>2026-05-01T11:54:20.247Z</time></trkpt><trkpt lat="44.9444033" lon="6.5637383"><ele>1384.0</ele><time>2026-05-01T11:54:21.247Z</time></trkpt><trkpt lat="44.94448" lon="6.5635817"><ele>1383.75</ele><time>2026-05-01T11:54:22.247Z</time></trkpt><trkpt lat="44.9445567" lon="6.5634317"><ele>1383.5</ele><time>2026-05-01T11:54:23.247Z</time></trkpt><trkpt lat="44.9446333" lon="6.5632783"><ele>1383.25</ele><time>2026-05-01T11:54:24.247Z</time></trkpt><trkpt lat="44.9447017" lon="6.56312"><ele>1383.0</ele><time>2026-05-01T11:54:25.247Z</time></trkpt><trkpt lat="44.9447717" lon="6.562955"><ele>1383.2</ele><time>2026-05-01T11:54:26.247Z</time></trkpt><trkpt lat="44.9448267" lon="6.5628"><ele>1383.4</ele><time>2026-05-01T11:54:27.246Z</time></trkpt><trkpt lat="44.9448733" lon="6.562655"><ele>1383.6000000000001</ele><time>2026-05-01T11:54:28.247Z</time></trkpt><trkpt lat="44.9449083" lon="6.5625217"><ele>1383.8000000000002</ele><time>2026-05-01T11:54:29.247Z</time></trkpt><trkpt lat="44.9449267" lon="6.562405"><ele>1384.0</ele><time>2026-05-01T11:54:30.247Z</time></trkpt><trkpt lat="44.94496" lon="6.5622833"><ele>1384.0</ele><time>2026-05-01T11:54:31.247Z</time></trkpt><trkpt lat="44.9450033" lon="6.5621617"><ele>1384.0</ele><time>2026-05-01T11:54:32.247Z</time></trkpt><trkpt lat="44.9450467" lon="6.5620433"><ele>1384.0</ele><time>2026-05-01T11:54:33.246Z</time></trkpt><trkpt lat="44.9450967" lon="6.5619183"><ele>1384.0</ele><time>2026-05-01T11:54:34.247Z</time></trkpt><trkpt lat="44.945145" lon="6.561785"><ele>1384.0</ele><time>2026-05-01T11:54:35.247Z</time></trkpt><trkpt lat="44.9451917" lon="6.561665"><ele>1384.4</ele><time>2026-05-01T11:54:36.247Z</time></trkpt><trkpt lat="44.94525" lon="6.561565"><ele>1384.8000000000002</ele><time>2026-05-01T11:54:37.247Z</time></trkpt><trkpt lat="44.945355" lon="6.5613983"><ele>1385.1999999999998</ele><time>2026-05-01T11:54:39.247Z</time></trkpt><trkpt lat="44.9454017" lon="6.5613233"><ele>1385.6</ele><time>2026-05-01T11:54:40.246Z</time></trkpt><trkpt lat="44.9454517" lon="6.5612583"><ele>1386.0</ele><time>2026-05-01T11:54:41.246Z</time></trkpt><trkpt lat="44.9455083" lon="6.561205"><ele>1386.0</ele><time>2026-05-01T11:54:42.247Z</time></trkpt><trkpt lat="44.9455717" lon="6.5611533"><ele>1386.0</ele><time>2026-05-01T11:54:43.247Z</time></trkpt><trkpt lat="44.9456333" lon="6.5611117"><ele>1386.0</ele><time>2026-05-01T11:54:44.247Z</time></trkpt><trkpt lat="44.945695" lon="6.5610483"><ele>1386.0</ele><time>2026-05-01T11:54:45.247Z</time></trkpt><trkpt lat="44.945755" lon="6.5609583"><ele>1386.0</ele><time>2026-05-01T11:54:46.247Z</time></trkpt><trkpt lat="44.94581" lon="6.5608383"><ele>1386.0</ele><time>2026-05-01T11:54:47.247Z</time></trkpt><trkpt lat="44.9458467" lon="6.5606833"><ele>1385.75</ele><time>2026-05-01T11:54:48.247Z</time></trkpt><trkpt lat="44.9458983" lon="6.5605183"><ele>1385.5</ele><time>2026-05-01T11:54:49.247Z</time></trkpt><trkpt lat="44.9459883" lon="6.56037"><ele>1385.25</ele><time>2026-05-01T11:54:50.247Z</time></trkpt><trkpt lat="44.946075" lon="6.5602283"><ele>1385.0</ele><time>2026-05-01T11:54:51.246Z</time></trkpt><trkpt lat="44.94617" lon="6.5600917"><ele>1385.0</ele><time>2026-05-01T11:54:52.247Z</time></trkpt><trkpt lat="44.9462617" lon="6.5599533"><ele>1385.0</ele><time>2026-05-01T11:54:53.247Z</time></trkpt><trkpt lat="44.9463433" lon="6.55984"><ele>1385.0</ele><time>2026-05-01T11:54:54.247Z</time></trkpt><trkpt lat="44.9464283" lon="6.55974"><ele>1385.0</ele><time>2026-05-01T11:54:55.247Z</time></trkpt><trkpt lat="44.94651" lon="6.55964"><ele>1385.0</ele><time>2026-05-01T11:54:56.246Z</time></trkpt><trkpt lat="44.9466083" lon="6.55955"><ele>1385.0</ele><time>2026-05-01T11:54:57.247Z</time></trkpt><trkpt lat="44.9467183" lon="6.55946"><ele>1385.0</ele><time>2026-05-01T11:54:58.247Z</time></trkpt><trkpt lat="44.9469533" lon="6.5593067"><ele>1386.25</ele><time>2026-05-01T11:55:00.247Z</time></trkpt><trkpt lat="44.9470667" lon="6.5592383"><ele>1387.5</ele><time>2026-05-01T11:55:01.247Z</time></trkpt><trkpt lat="44.947185" lon="6.5591733"><ele>1388.75</ele><time>2026-05-01T11:55:02.246Z</time></trkpt><trkpt lat="44.9473233" lon="6.5590883"><ele>1390.0</ele><time>2026-05-01T11:55:03.247Z</time></trkpt><trkpt lat="44.947485" lon="6.5589917"><ele>1390.3333333333333</ele><time>2026-05-01T11:55:04.246Z</time></trkpt><trkpt lat="44.9476533" lon="6.5588783"><ele>1390.6666666666667</ele><time>2026-05-01T11:55:05.247Z</time></trkpt><trkpt lat="44.9478217" lon="6.5587617"><ele>1391.0</ele><time>2026-05-01T11:55:06.247Z</time></trkpt><trkpt lat="44.9479833" lon="6.5586433"><ele>1391.0</ele><time>2026-05-01T11:55:07.247Z</time></trkpt><trkpt lat="44.9481333" lon="6.5585083"><ele>1391.0</ele><time>2026-05-01T11:55:08.246Z</time></trkpt><trkpt lat="44.94826" lon="6.55836"><ele>1391.0</ele><time>2026-05-01T11:55:09.246Z</time></trkpt><trkpt lat="44.9483917" lon="6.5581833"><ele>1392.3333333333335</ele><time>2026-05-01T11:55:10.247Z</time></trkpt><trkpt lat="44.9485083" lon="6.558015"><ele>1393.6666666666667</ele><time>2026-05-01T11:55:11.247Z</time></trkpt><trkpt lat="44.9486233" lon="6.5578367"><ele>1395.0</ele><time>2026-05-01T11:55:12.247Z</time></trkpt><trkpt lat="44.9487533" lon="6.5576567"><ele>1395.0</ele><time>2026-05-01T11:55:13.247Z</time></trkpt><trkpt lat="44.948885" lon="6.5574633"><ele>1395.0</ele><time>2026-05-01T11:55:14.247Z</time></trkpt><trkpt lat="44.9490117" lon="6.55727"><ele>1395.0</ele><time>2026-05-01T11:55:15.247Z</time></trkpt><trkpt lat="44.94914" lon="6.5570867"><ele>1397.0</ele><time>2026-05-01T11:55:16.247Z</time></trkpt><trkpt lat="44.9492683" lon="6.5569117"><ele>1399.0</ele><time>2026-05-01T11:55:17.246Z</time></trkpt><trkpt lat="44.9493883" lon="6.5567467"><ele>1401.0</ele><time>2026-05-01T11:55:18.247Z</time></trkpt><trkpt lat="44.9495083" lon="6.5565783"><ele>1401.0</ele><time>2026-05-01T11:55:19.246Z</time></trkpt><trkpt lat="44.94975" lon="6.55625"><ele>1401.0</ele><time>2026-05-01T11:55:21.247Z</time></trkpt><trkpt lat="44.9498833" lon="6.5560917"><ele>1402.6666666666667</ele><time>2026-05-01T11:55:22.247Z</time></trkpt><trkpt lat="44.9499983" lon="6.5559033"><ele>1404.3333333333335</ele><time>2026-05-01T11:55:23.247Z</time></trkpt><trkpt lat="44.95013" lon="6.555725"><ele>1406.0</ele><time>2026-05-01T11:55:24.246Z</time></trkpt><trkpt lat="44.95027" lon="6.5555383"><ele>1403.0</ele><time>2026-05-01T11:55:25.247Z</time></trkpt><trkpt lat="44.9504167" lon="6.5553467"><ele>1400.0</ele><time>2026-05-01T11:55:26.247Z</time></trkpt><trkpt lat="44.95056" lon="6.5551433"><ele>1397.0</ele><time>2026-05-01T11:55:27.246Z</time></trkpt><trkpt lat="44.9507033" lon="6.5549583"><ele>1397.0</ele><time>2026-05-01T11:55:28.247Z</time></trkpt><trkpt lat="44.95085" lon="6.5547583"><ele>1397.0</ele><time>2026-05-01T11:55:29.246Z</time></trkpt><trkpt lat="44.9509983" lon="6.5545583"><ele>1397.0</ele><time>2026-05-01T11:55:30.246Z</time></trkpt><trkpt lat="44.9511483" lon="6.55435"><ele>1397.6666666666667</ele><time>2026-05-01T11:55:31.247Z</time></trkpt><trkpt lat="44.9512933" lon="6.5541633"><ele>1398.3333333333333</ele><time>2026-05-01T11:55:32.247Z</time></trkpt><trkpt lat="44.9514383" lon="6.5539817"><ele>1399.0</ele><time>2026-05-01T11:55:33.246Z</time></trkpt><trkpt lat="44.9515633" lon="6.5537917"><ele>1399.0</ele><time>2026-05-01T11:55:34.247Z</time></trkpt><trkpt lat="44.9516917" lon="6.553605"><ele>1399.0</ele><time>2026-05-01T11:55:35.246Z</time></trkpt><trkpt lat="44.9518217" lon="6.55342"><ele>1399.0</ele><time>2026-05-01T11:55:36.246Z</time></trkpt><trkpt lat="44.9519517" lon="6.553235"><ele>1399.0</ele><time>2026-05-01T11:55:37.246Z</time></trkpt><trkpt lat="44.9520933" lon="6.55306"><ele>1399.0</ele><time>2026-05-01T11:55:38.247Z</time></trkpt><trkpt lat="44.952235" lon="6.5528733"><ele>1399.0</ele><time>2026-05-01T11:55:39.246Z</time></trkpt><trkpt lat="44.9523817" lon="6.5526817"><ele>1401.5</ele><time>2026-05-01T11:55:40.245Z</time></trkpt><trkpt lat="44.9526617" lon="6.5522867"><ele>1404.0</ele><time>2026-05-01T11:55:42.246Z</time></trkpt><trkpt lat="44.9527933" lon="6.5520817"><ele>1403.0</ele><time>2026-05-01T11:55:43.246Z</time></trkpt><trkpt lat="44.9529317" lon="6.5518717"><ele>1402.0</ele><time>2026-05-01T11:55:44.246Z</time></trkpt><trkpt lat="44.9530767" lon="6.5516517"><ele>1401.0</ele><time>2026-05-01T11:55:45.246Z</time></trkpt><trkpt lat="44.9532117" lon="6.551415"><ele>1401.6666666666667</ele><time>2026-05-01T11:55:46.246Z</time></trkpt><trkpt lat="44.9533617" lon="6.5511933"><ele>1402.3333333333335</ele><time>2026-05-01T11:55:47.246Z</time></trkpt><trkpt lat="44.9535183" lon="6.550955"><ele>1403.0</ele><time>2026-05-01T11:55:48.245Z</time></trkpt><trkpt lat="44.9536767" lon="6.5507183"><ele>1403.0</ele><time>2026-05-01T11:55:49.245Z</time></trkpt><trkpt lat="44.9538267" lon="6.5504817"><ele>1403.0</ele><time>2026-05-01T11:55:50.246Z</time></trkpt><trkpt lat="44.95397" lon="6.5502433"><ele>1403.0</ele><time>2026-05-01T11:55:51.246Z</time></trkpt><trkpt lat="44.9541217" lon="6.5500133"><ele>1402.0</ele><time>2026-05-01T11:55:52.245Z</time></trkpt><trkpt lat="44.9542767" lon="6.549785"><ele>1401.0</ele><time>2026-05-01T11:55:53.245Z</time></trkpt><trkpt lat="44.9544517" lon="6.54959"><ele>1400.0</ele><time>2026-05-01T11:55:54.245Z</time></trkpt><trkpt lat="44.9546517" lon="6.5494217"><ele>1400.0</ele><time>2026-05-01T11:55:55.245Z</time></trkpt><trkpt lat="44.9548667" lon="6.549265"><ele>1400.0</ele><time>2026-05-01T11:55:56.246Z</time></trkpt><trkpt lat="44.9550817" lon="6.5491167"><ele>1400.0</ele><time>2026-05-01T11:55:57.245Z</time></trkpt><trkpt lat="44.9552833" lon="6.548945"><ele>1400.0</ele><time>2026-05-01T11:55:58.246Z</time></trkpt><trkpt lat="44.95548" lon="6.5487733"><ele>1400.0</ele><time>2026-05-01T11:55:59.246Z</time></trkpt><trkpt lat="44.95567" lon="6.5486033"><ele>1400.0</ele><time>2026-05-01T11:56:00.246Z</time></trkpt><trkpt lat="44.95585" lon="6.5484083"><ele>1407.0</ele><time>2026-05-01T11:56:01.245Z</time></trkpt><trkpt lat="44.956185" lon="6.547945"><ele>1406.0</ele><time>2026-05-01T11:56:03.246Z</time></trkpt><trkpt lat="44.9563383" lon="6.5476817"><ele>1405.0</ele><time>2026-05-01T11:56:04.246Z</time></trkpt><trkpt lat="44.9564883" lon="6.54742"><ele>1405.0</ele><time>2026-05-01T11:56:05.246Z</time></trkpt><trkpt lat="44.95664" lon="6.547175"><ele>1405.0</ele><time>2026-05-01T11:56:06.246Z</time></trkpt><trkpt lat="44.9567967" lon="6.54694"><ele>1411.0</ele><time>2026-05-01T11:56:07.246Z</time></trkpt><trkpt lat="44.956945" lon="6.5467"><ele>1417.0</ele><time>2026-05-01T11:56:08.245Z</time></trkpt><trkpt lat="44.9570933" lon="6.5464567"><ele>1414.0</ele><time>2026-05-01T11:56:09.246Z</time></trkpt><trkpt lat="44.9572517" lon="6.5462067"><ele>1411.0</ele><time>2026-05-01T11:56:10.246Z</time></trkpt><trkpt lat="44.9574167" lon="6.5459533"><ele>1421.0</ele><time>2026-05-01T11:56:11.246Z</time></trkpt><trkpt lat="44.9575533" lon="6.5456883"><ele>1431.0</ele><time>2026-05-01T11:56:12.246Z</time></trkpt><trkpt lat="44.95766" lon="6.5453967"><ele>1423.5</ele><time>2026-05-01T11:56:13.245Z</time></trkpt><trkpt lat="44.9577367" lon="6.5450967"><ele>1416.0</ele><time>2026-05-01T11:56:14.246Z</time></trkpt><trkpt lat="44.9577983" lon="6.544765"><ele>1414.5</ele><time>2026-05-01T11:56:15.246Z</time></trkpt><trkpt lat="44.95784" lon="6.5444167"><ele>1413.0</ele><time>2026-05-01T11:56:16.246Z</time></trkpt><trkpt lat="44.9578917" lon="6.544055"><ele>1412.0</ele><time>2026-05-01T11:56:17.245Z</time></trkpt><trkpt lat="44.9579617" lon="6.5436967"><ele>1411.0</ele><time>2026-05-01T11:56:18.246Z</time></trkpt><trkpt lat="44.958025" lon="6.5433617"><ele>1411.0</ele><time>2026-05-01T11:56:19.246Z</time></trkpt><trkpt lat="44.9580833" lon="6.54305"><ele>1411.0</ele><time>2026-05-01T11:56:20.246Z</time></trkpt><trkpt lat="44.95814" lon="6.5427633"><ele>1411.0</ele><time>2026-05-01T11:56:21.245Z</time></trkpt><trkpt lat="44.9582017" lon="6.5424933"><ele>1411.0</ele><time>2026-05-01T11:56:22.245Z</time></trkpt><trkpt lat="44.9583633" lon="6.5420267"><ele>1411.0</ele><time>2026-05-01T11:56:24.245Z</time></trkpt><trkpt lat="44.958485" lon="6.54181"><ele>1411.0</ele><time>2026-05-01T11:56:25.245Z</time></trkpt><trkpt lat="44.95864" lon="6.5415967"><ele>1411.0</ele><time>2026-05-01T11:56:26.246Z</time></trkpt><trkpt lat="44.958825" lon="6.5413867"><ele>1411.0</ele><time>2026-05-01T11:56:27.246Z</time></trkpt><trkpt lat="44.9589983" lon="6.5411917"><ele>1411.0</ele><time>2026-05-01T11:56:28.245Z</time></trkpt><trkpt lat="44.959175" lon="6.54098"><ele>1414.5</ele><time>2026-05-01T11:56:29.246Z</time></trkpt><trkpt lat="44.9593633" lon="6.5407617"><ele>1418.0</ele><time>2026-05-01T11:56:30.246Z</time></trkpt><trkpt lat="44.9595467" lon="6.5405283"><ele>1416.0</ele><time>2026-05-01T11:56:31.246Z</time></trkpt><trkpt lat="44.959725" lon="6.540315"><ele>1414.0</ele><time>2026-05-01T11:56:32.246Z</time></trkpt><trkpt lat="44.9599183" lon="6.5400983"><ele>1415.5</ele><time>2026-05-01T11:56:33.246Z</time></trkpt><trkpt lat="44.96011" lon="6.5398683"><ele>1417.0</ele><time>2026-05-01T11:56:34.246Z</time></trkpt><trkpt lat="44.9603117" lon="6.5396433"><ele>1415.0</ele><time>2026-05-01T11:56:35.246Z</time></trkpt><trkpt lat="44.9605133" lon="6.5394067"><ele>1413.0</ele><time>2026-05-01T11:56:36.246Z</time></trkpt><trkpt lat="44.96072" lon="6.5391717"><ele>1414.5</ele><time>2026-05-01T11:56:37.246Z</time></trkpt><trkpt lat="44.9609317" lon="6.53894"><ele>1416.0</ele><time>2026-05-01T11:56:38.246Z</time></trkpt><trkpt lat="44.961145" lon="6.5387133"><ele>1416.5</ele><time>2026-05-01T11:56:39.245Z</time></trkpt><trkpt lat="44.961365" lon="6.5384983"><ele>1417.0</ele><time>2026-05-01T11:56:40.246Z</time></trkpt><trkpt lat="44.9615817" lon="6.538295"><ele>1419.5</ele><time>2026-05-01T11:56:41.246Z</time></trkpt><trkpt lat="44.9618033" lon="6.5380917"><ele>1422.0</ele><time>2026-05-01T11:56:42.246Z</time></trkpt><trkpt lat="44.9620183" lon="6.5379033"><ele>1419.0</ele><time>2026-05-01T11:56:43.245Z</time></trkpt><trkpt lat="44.9624583" lon="6.5375133"><ele>1422.5</ele><time>2026-05-01T11:56:45.245Z</time></trkpt><trkpt lat="44.9626867" lon="6.5373417"><ele>1426.0</ele><time>2026-05-01T11:56:46.245Z</time></trkpt><trkpt lat="44.9629117" lon="6.5371683"><ele>1424.0</ele><time>2026-05-01T11:56:47.246Z</time></trkpt><trkpt lat="44.963135" lon="6.537"><ele>1422.0</ele><time>2026-05-01T11:56:48.245Z</time></trkpt><trkpt lat="44.9633583" lon="6.536845"><ele>1424.5</ele><time>2026-05-01T11:56:49.246Z</time></trkpt><trkpt lat="44.9635767" lon="6.5366983"><ele>1427.0</ele><time>2026-05-01T11:56:50.246Z</time></trkpt><trkpt lat="44.9637867" lon="6.5365417"><ele>1427.0</ele><time>2026-05-01T11:56:51.245Z</time></trkpt><trkpt lat="44.963995" lon="6.5363833"><ele>1427.0</ele><time>2026-05-01T11:56:52.245Z</time></trkpt><trkpt lat="44.9642017" lon="6.5362283"><ele>1426.5</ele><time>2026-05-01T11:56:53.246Z</time></trkpt><trkpt lat="44.9643917" lon="6.5360333"><ele>1426.0</ele><time>2026-05-01T11:56:54.246Z</time></trkpt><trkpt lat="44.9645817" lon="6.5358067"><ele>1426.0</ele><time>2026-05-01T11:56:55.245Z</time></trkpt><trkpt lat="44.9647433" lon="6.5355617"><ele>1426.0</ele><time>2026-05-01T11:56:56.246Z</time></trkpt><trkpt lat="44.9648983" lon="6.535275"><ele>1428.5</ele><time>2026-05-01T11:56:57.246Z</time></trkpt><trkpt lat="44.96505" lon="6.534985"><ele>1431.0</ele><time>2026-05-01T11:56:58.246Z</time></trkpt><trkpt lat="44.965215" lon="6.5346833"><ele>1431.0</ele><time>2026-05-01T11:56:59.246Z</time></trkpt><trkpt lat="44.9653717" lon="6.5343867"><ele>1431.0</ele><time>2026-05-01T11:57:00.246Z</time></trkpt><trkpt lat="44.9655283" lon="6.5341133"><ele>1431.0</ele><time>2026-05-01T11:57:01.246Z</time></trkpt><trkpt lat="44.9656783" lon="6.53389"><ele>1431.0</ele><time>2026-05-01T11:57:02.246Z</time></trkpt><trkpt lat="44.9658133" lon="6.533665"><ele>1431.0</ele><time>2026-05-01T11:57:03.246Z</time></trkpt><trkpt lat="44.965965" lon="6.5334183"><ele>1443.0</ele><time>2026-05-01T11:57:04.246Z</time></trkpt><trkpt lat="44.9662767" lon="6.5329283"><ele>1439.0</ele><time>2026-05-01T11:57:06.245Z</time></trkpt><trkpt lat="44.9664283" lon="6.5326817"><ele>1435.0</ele><time>2026-05-01T11:57:07.246Z</time></trkpt><trkpt lat="44.9665967" lon="6.5324433"><ele>1436.5</ele><time>2026-05-01T11:57:08.246Z</time></trkpt><trkpt lat="44.9667717" lon="6.5322083"><ele>1438.0</ele><time>2026-05-01T11:57:09.246Z</time></trkpt><trkpt lat="44.9669433" lon="6.5320033"><ele>1438.0</ele><time>2026-05-01T11:57:10.246Z</time></trkpt><trkpt lat="44.967115" lon="6.5317967"><ele>1438.0</ele><time>2026-05-01T11:57:11.246Z</time></trkpt><trkpt lat="44.9672883" lon="6.5315983"><ele>1438.0</ele><time>2026-05-01T11:57:12.246Z</time></trkpt><trkpt lat="44.96745" lon="6.5313967"><ele>1440.6666666666665</ele><time>2026-05-01T11:57:13.246Z</time></trkpt><trkpt lat="44.967595" lon="6.5311833"><ele>1443.3333333333333</ele><time>2026-05-01T11:57:14.246Z</time></trkpt><trkpt lat="44.9677" lon="6.5309367"><ele>1446.0</ele><time>2026-05-01T11:57:15.245Z</time></trkpt><trkpt lat="44.9677967" lon="6.5306767"><ele>1443.5</ele><time>2026-05-01T11:57:16.246Z</time></trkpt><trkpt lat="44.9678433" lon="6.53035"><ele>1441.0</ele><time>2026-05-01T11:57:17.245Z</time></trkpt><trkpt lat="44.96786" lon="6.5300217"><ele>1441.0</ele><time>2026-05-01T11:57:18.245Z</time></trkpt><trkpt lat="44.9678517" lon="6.52969"><ele>1441.0</ele><time>2026-05-01T11:57:19.246Z</time></trkpt><trkpt lat="44.9678083" lon="6.5293567"><ele>1442.3333333333333</ele><time>2026-05-01T11:57:20.245Z</time></trkpt><trkpt lat="44.9677633" lon="6.52905"><ele>1443.6666666666667</ele><time>2026-05-01T11:57:21.246Z</time></trkpt><trkpt lat="44.9677567" lon="6.5287483"><ele>1445.0</ele><time>2026-05-01T11:57:22.246Z</time></trkpt><trkpt lat="44.9677767" lon="6.52845"><ele>1445.0</ele><time>2026-05-01T11:57:23.245Z</time></trkpt><trkpt lat="44.9678267" lon="6.528145"><ele>1445.0</ele><time>2026-05-01T11:57:24.246Z</time></trkpt><trkpt lat="44.9679017" lon="6.5278483"><ele>1445.0</ele><time>2026-05-01T11:57:25.246Z</time></trkpt><trkpt lat="44.9680817" lon="6.5272367"><ele>1444.0</ele><time>2026-05-01T11:57:27.246Z</time></trkpt><trkpt lat="44.9681717" lon="6.52692"><ele>1443.0</ele><time>2026-05-01T11:57:28.246Z</time></trkpt><trkpt lat="44.9682567" lon="6.5266067"><ele>1443.0</ele><time>2026-05-01T11:57:29.246Z</time></trkpt><trkpt lat="44.9683233" lon="6.52628"><ele>1443.0</ele><time>2026-05-01T11:57:30.245Z</time></trkpt><trkpt lat="44.968385" lon="6.52595"><ele>1445.5</ele><time>2026-05-01T11:57:31.245Z</time></trkpt><trkpt lat="44.968435" lon="6.525605"><ele>1448.0</ele><time>2026-05-01T11:57:32.245Z</time></trkpt><trkpt lat="44.9685217" lon="6.5253133"><ele>1448.0</ele><time>2026-05-01T11:57:33.246Z</time></trkpt><trkpt lat="44.9686133" lon="6.5250033"><ele>1448.0</ele><time>2026-05-01T11:57:34.246Z</time></trkpt><trkpt lat="44.9687017" lon="6.5247067"><ele>1447.0</ele><time>2026-05-01T11:57:35.245Z</time></trkpt><trkpt lat="44.9688" lon="6.5244233"><ele>1446.0</ele><time>2026-05-01T11:57:36.246Z</time></trkpt><trkpt lat="44.968905" lon="6.524175"><ele>1445.0</ele><time>2026-05-01T11:57:37.246Z</time></trkpt><trkpt lat="44.9690383" lon="6.523945"><ele>1445.0</ele><time>2026-05-01T11:57:38.246Z</time></trkpt><trkpt lat="44.9692" lon="6.52375"><ele>1445.0</ele><time>2026-05-01T11:57:39.246Z</time></trkpt><trkpt lat="44.9694067" lon="6.5236"><ele>1445.0</ele><time>2026-05-01T11:57:40.245Z</time></trkpt><trkpt lat="44.9696217" lon="6.5234817"><ele>1445.0</ele><time>2026-05-01T11:57:41.246Z</time></trkpt><trkpt lat="44.9698267" lon="6.523385"><ele>1445.0</ele><time>2026-05-01T11:57:42.245Z</time></trkpt><trkpt lat="44.9700183" lon="6.5233033"><ele>1445.0</ele><time>2026-05-01T11:57:43.246Z</time></trkpt><trkpt lat="44.9702117" lon="6.5232133"><ele>1445.6666666666667</ele><time>2026-05-01T11:57:44.245Z</time></trkpt><trkpt lat="44.9704117" lon="6.5231217"><ele>1446.3333333333333</ele><time>2026-05-01T11:57:45.245Z</time></trkpt><trkpt lat="44.9706017" lon="6.5230133"><ele>1447.0</ele><time>2026-05-01T11:57:46.246Z</time></trkpt><trkpt lat="44.97099" lon="6.5227017"><ele>1447.0</ele><time>2026-05-01T11:57:48.246Z</time></trkpt><trkpt lat="44.971135" lon="6.5225133"><ele>1447.0</ele><time>2026-05-01T11:57:49.246Z</time></trkpt><trkpt lat="44.9712717" lon="6.5222667"><ele>1447.0</ele><time>2026-05-01T11:57:50.246Z</time></trkpt><trkpt lat="44.9713933" lon="6.5219883"><ele>1446.5</ele><time>2026-05-01T11:57:51.246Z</time></trkpt><trkpt lat="44.9714883" lon="6.5216867"><ele>1446.0</ele><time>2026-05-01T11:57:52.246Z</time></trkpt><trkpt lat="44.9715883" lon="6.5213767"><ele>1447.0</ele><time>2026-05-01T11:57:53.246Z</time></trkpt><trkpt lat="44.9716867" lon="6.521075"><ele>1448.0</ele><time>2026-05-01T11:57:54.245Z</time></trkpt><trkpt lat="44.9717883" lon="6.5207817"><ele>1449.6666666666667</ele><time>2026-05-01T11:57:55.246Z</time></trkpt><trkpt lat="44.97189" lon="6.5205017"><ele>1451.3333333333333</ele><time>2026-05-01T11:57:56.246Z</time></trkpt><trkpt lat="44.9719867" lon="6.520235"><ele>1453.0</ele><time>2026-05-01T11:57:57.246Z</time></trkpt><trkpt lat="44.9720767" lon="6.5199967"><ele>1453.0</ele><time>2026-05-01T11:57:58.246Z</time></trkpt><trkpt lat="44.97216" lon="6.51976"><ele>1453.0</ele><time>2026-05-01T11:57:59.246Z</time></trkpt><trkpt lat="44.9722417" lon="6.5195717"><ele>1453.0</ele><time>2026-05-01T11:58:00.245Z</time></trkpt><trkpt lat="44.9723283" lon="6.5194"><ele>1453.0</ele><time>2026-05-01T11:58:01.246Z</time></trkpt><trkpt lat="44.9724233" lon="6.5192483"><ele>1453.0</ele><time>2026-05-01T11:58:02.245Z</time></trkpt><trkpt lat="44.97252" lon="6.519135"><ele>1453.0</ele><time>2026-05-01T11:58:03.246Z</time></trkpt><trkpt lat="44.972605" lon="6.5190333"><ele>1453.0</ele><time>2026-05-01T11:58:04.246Z</time></trkpt><trkpt lat="44.9727067" lon="6.518945"><ele>1454.6666666666665</ele><time>2026-05-01T11:58:05.246Z</time></trkpt><trkpt lat="44.9728217" lon="6.5188433"><ele>1456.3333333333333</ele><time>2026-05-01T11:58:06.246Z</time></trkpt><trkpt lat="44.9729183" lon="6.51871"><ele>1458.0</ele><time>2026-05-01T11:58:07.245Z</time></trkpt><trkpt lat="44.9731283" lon="6.5184167"><ele>1458.0</ele><time>2026-05-01T11:58:09.246Z</time></trkpt><trkpt lat="44.9732433" lon="6.5182783"><ele>1458.0</ele><time>2026-05-01T11:58:10.245Z</time></trkpt><trkpt lat="44.97335" lon="6.5181283"><ele>1458.0</ele><time>2026-05-01T11:58:11.246Z</time></trkpt><trkpt lat="44.9734533" lon="6.517975"><ele>1459.0</ele><time>2026-05-01T11:58:12.245Z</time></trkpt><trkpt lat="44.9735533" lon="6.5178367"><ele>1460.0</ele><time>2026-05-01T11:58:13.246Z</time></trkpt><trkpt lat="44.97365" lon="6.5176983"><ele>1461.0</ele><time>2026-05-01T11:58:14.245Z</time></trkpt><trkpt lat="44.973755" lon="6.51754"><ele>1462.0</ele><time>2026-05-01T11:58:15.245Z</time></trkpt><trkpt lat="44.9738617" lon="6.5174083"><ele>1462.0</ele><time>2026-05-01T11:58:16.246Z</time></trkpt><trkpt lat="44.9739933" lon="6.5172833"><ele>1462.0</ele><time>2026-05-01T11:58:17.246Z</time></trkpt><trkpt lat="44.9741333" lon="6.517205"><ele>1462.0</ele><time>2026-05-01T11:58:18.245Z</time></trkpt><trkpt lat="44.974285" lon="6.5171217"><ele>1462.6666666666665</ele><time>2026-05-01T11:58:19.246Z</time></trkpt><trkpt lat="44.9744333" lon="6.5170533"><ele>1463.3333333333333</ele><time>2026-05-01T11:58:20.246Z</time></trkpt><trkpt lat="44.9745983" lon="6.5169917"><ele>1464.0</ele><time>2026-05-01T11:58:21.246Z</time></trkpt><trkpt lat="44.9747783" lon="6.5169117"><ele>1464.0</ele><time>2026-05-01T11:58:22.246Z</time></trkpt><trkpt lat="44.97495" lon="6.5168217"><ele>1464.0</ele><time>2026-05-01T11:58:23.245Z</time></trkpt><trkpt lat="44.9751083" lon="6.5167017"><ele>1464.0</ele><time>2026-05-01T11:58:24.245Z</time></trkpt><trkpt lat="44.975255" lon="6.516555"><ele>1467.6666666666667</ele><time>2026-05-01T11:58:25.246Z</time></trkpt><trkpt lat="44.9753733" lon="6.5163883"><ele>1471.3333333333335</ele><time>2026-05-01T11:58:26.246Z</time></trkpt><trkpt lat="44.9754867" lon="6.51622"><ele>1475.0</ele><time>2026-05-01T11:58:27.245Z</time></trkpt><trkpt lat="44.975595" lon="6.5160283"><ele>1475.0</ele><time>2026-05-01T11:58:28.246Z</time></trkpt><trkpt lat="44.9757467" lon="6.5155533"><ele>1475.0</ele><time>2026-05-01T11:58:30.246Z</time></trkpt><trkpt lat="44.9758267" lon="6.5152667"><ele>1478.3333333333335</ele><time>2026-05-01T11:58:31.246Z</time></trkpt><trkpt lat="44.9759133" lon="6.5150017"><ele>1481.6666666666667</ele><time>2026-05-01T11:58:32.245Z</time></trkpt><trkpt lat="44.9760033" lon="6.5147333"><ele>1485.0</ele><time>2026-05-01T11:58:33.246Z</time></trkpt><trkpt lat="44.976085" lon="6.5144783"><ele>1485.0</ele><time>2026-05-01T11:58:34.245Z</time></trkpt><trkpt lat="44.9761683" lon="6.5142567"><ele>1485.0</ele><time>2026-05-01T11:58:35.246Z</time></trkpt><trkpt lat="44.9762067" lon="6.5139983"><ele>1485.0</ele><time>2026-05-01T11:58:36.245Z</time></trkpt><trkpt lat="44.9762517" lon="6.5137817"><ele>1484.3333333333333</ele><time>2026-05-01T11:58:37.246Z</time></trkpt><trkpt lat="44.9762683" lon="6.513535"><ele>1483.6666666666665</ele><time>2026-05-01T11:58:38.246Z</time></trkpt><trkpt lat="44.9762567" lon="6.5132917"><ele>1483.0</ele><time>2026-05-01T11:58:39.246Z</time></trkpt><trkpt lat="44.9762083" lon="6.5130383"><ele>1482.6666666666665</ele><time>2026-05-01T11:58:40.245Z</time></trkpt><trkpt lat="44.9761317" lon="6.5127883"><ele>1482.3333333333333</ele><time>2026-05-01T11:58:41.245Z</time></trkpt><trkpt lat="44.976025" lon="6.51256"><ele>1482.0</ele><time>2026-05-01T11:58:42.246Z</time></trkpt><trkpt lat="44.97593" lon="6.512375"><ele>1482.25</ele><time>2026-05-01T11:58:43.246Z</time></trkpt><trkpt lat="44.9758467" lon="6.5121933"><ele>1482.5</ele><time>2026-05-01T11:58:44.245Z</time></trkpt><trkpt lat="44.9757583" lon="6.51201"><ele>1482.75</ele><time>2026-05-01T11:58:45.245Z</time></trkpt><trkpt lat="44.975745" lon="6.51183"><ele>1483.0</ele><time>2026-05-01T11:58:46.245Z</time></trkpt><trkpt lat="44.97576" lon="6.51169"><ele>1483.0</ele><time>2026-05-01T11:58:47.245Z</time></trkpt><trkpt lat="44.9757667" lon="6.5115583"><ele>1483.0</ele><time>2026-05-01T11:58:48.245Z</time></trkpt><trkpt lat="44.97578" lon="6.5114283"><ele>1483.0</ele><time>2026-05-01T11:58:49.246Z</time></trkpt><trkpt lat="44.97581" lon="6.5111817"><ele>1483.0</ele><time>2026-05-01T11:58:51.246Z</time></trkpt><trkpt lat="44.97582" lon="6.51107"><ele>1483.0</ele><time>2026-05-01T11:58:52.246Z</time></trkpt><trkpt lat="44.9758367" lon="6.5109417"><ele>1483.4</ele><time>2026-05-01T11:58:53.246Z</time></trkpt><trkpt lat="44.975855" lon="6.5108283"><ele>1483.8000000000002</ele><time>2026-05-01T11:58:54.245Z</time></trkpt><trkpt lat="44.9758917" lon="6.5106917"><ele>1484.2</ele><time>2026-05-01T11:58:55.245Z</time></trkpt><trkpt lat="44.97593" lon="6.5105467"><ele>1484.6</ele><time>2026-05-01T11:58:56.245Z</time></trkpt><trkpt lat="44.9759717" lon="6.51039"><ele>1485.0</ele><time>2026-05-01T11:58:57.246Z</time></trkpt><trkpt lat="44.9760033" lon="6.5102333"><ele>1485.4</ele><time>2026-05-01T11:58:58.245Z</time></trkpt><trkpt lat="44.9760267" lon="6.5100783"><ele>1485.8</ele><time>2026-05-01T11:58:59.246Z</time></trkpt><trkpt lat="44.9760533" lon="6.5099267"><ele>1486.1999999999998</ele><time>2026-05-01T11:59:00.246Z</time></trkpt><trkpt lat="44.9760667" lon="6.5097867"><ele>1486.6</ele><time>2026-05-01T11:59:01.246Z</time></trkpt><trkpt lat="44.976085" lon="6.5096483"><ele>1487.0</ele><time>2026-05-01T11:59:02.246Z</time></trkpt><trkpt lat="44.9761" lon="6.5095217"><ele>1487.6</ele><time>2026-05-01T11:59:03.245Z</time></trkpt><trkpt lat="44.9761133" lon="6.5093817"><ele>1488.1999999999998</ele><time>2026-05-01T11:59:04.246Z</time></trkpt><trkpt lat="44.9761067" lon="6.50924"><ele>1488.8</ele><time>2026-05-01T11:59:05.246Z</time></trkpt><trkpt lat="44.9760917" lon="6.5091"><ele>1489.4</ele><time>2026-05-01T11:59:06.246Z</time></trkpt><trkpt lat="44.97606" lon="6.5089567"><ele>1490.0</ele><time>2026-05-01T11:59:07.245Z</time></trkpt><trkpt lat="44.97604" lon="6.508815"><ele>1491.0</ele><time>2026-05-01T11:59:08.246Z</time></trkpt><trkpt lat="44.9760233" lon="6.5086767"><ele>1492.0</ele><time>2026-05-01T11:59:09.246Z</time></trkpt><trkpt lat="44.97601" lon="6.5085383"><ele>1493.0</ele><time>2026-05-01T11:59:10.246Z</time></trkpt><trkpt lat="44.9759933" lon="6.5082717"><ele>1494.0</ele><time>2026-05-01T11:59:12.246Z</time></trkpt><trkpt lat="44.9760067" lon="6.5081517"><ele>1494.0</ele><time>2026-05-01T11:59:13.245Z</time></trkpt><trkpt lat="44.9760283" lon="6.5080633"><ele>1494.0</ele><time>2026-05-01T11:59:14.246Z</time></trkpt><trkpt lat="44.9760617" lon="6.5079767"><ele>1494.0</ele><time>2026-05-01T11:59:15.246Z</time></trkpt><trkpt lat="44.9760967" lon="6.5078767"><ele>1494.0</ele><time>2026-05-01T11:59:16.246Z</time></trkpt><trkpt lat="44.9761333" lon="6.507785"><ele>1494.0</ele><time>2026-05-01T11:59:17.246Z</time></trkpt><trkpt lat="44.9761767" lon="6.5076867"><ele>1494.0</ele><time>2026-05-01T11:59:18.246Z</time></trkpt><trkpt lat="44.9762617" lon="6.5075833"><ele>1494.6</ele><time>2026-05-01T11:59:19.245Z</time></trkpt><trkpt lat="44.9763" lon="6.507465"><ele>1495.2</ele><time>2026-05-01T11:59:20.246Z</time></trkpt><trkpt lat="44.9763383" lon="6.507345"><ele>1495.8</ele><time>2026-05-01T11:59:21.246Z</time></trkpt><trkpt lat="44.9763717" lon="6.5072217"><ele>1496.3999999999999</ele><time>2026-05-01T11:59:22.246Z</time></trkpt><trkpt lat="44.9764167" lon="6.507105"><ele>1497.0</ele><time>2026-05-01T11:59:23.245Z</time></trkpt><trkpt lat="44.9764767" lon="6.507005"><ele>1497.0</ele><time>2026-05-01T11:59:24.246Z</time></trkpt><trkpt lat="44.976545" lon="6.5068717"><ele>1497.0</ele><time>2026-05-01T11:59:25.246Z</time></trkpt><trkpt lat="44.9766017" lon="6.5067483"><ele>1497.0</ele><time>2026-05-01T11:59:26.245Z</time></trkpt><trkpt lat="44.9766567" lon="6.5066383"><ele>1497.0</ele><time>2026-05-01T11:59:27.246Z</time></trkpt><trkpt lat="44.9767083" lon="6.5065183"><ele>1497.0</ele><time>2026-05-01T11:59:28.245Z</time></trkpt><trkpt lat="44.9767583" lon="6.5064083"><ele>1497.3999999999999</ele><time>2026-05-01T11:59:29.246Z</time></trkpt><trkpt lat="44.97681" lon="6.506315"><ele>1497.8</ele><time>2026-05-01T11:59:30.245Z</time></trkpt><trkpt lat="44.9768617" lon="6.50619"><ele>1498.2</ele><time>2026-05-01T11:59:32.246Z</time></trkpt><trkpt lat="44.9769467" lon="6.5059817"><ele>1498.6</ele><time>2026-05-01T11:59:35.246Z</time></trkpt><trkpt lat="44.9769867" lon="6.5058867"><ele>1499.0</ele><time>2026-05-01T11:59:36.246Z</time></trkpt><trkpt lat="44.977035" lon="6.5057833"><ele>1499.0</ele><time>2026-05-01T11:59:37.246Z</time></trkpt><trkpt lat="44.9770983" lon="6.5056667"><ele>1499.0</ele><time>2026-05-01T11:59:38.245Z</time></trkpt><trkpt lat="44.9771583" lon="6.50554"><ele>1499.0</ele><time>2026-05-01T11:59:39.246Z</time></trkpt><trkpt lat="44.9772117" lon="6.505425"><ele>1499.0</ele><time>2026-05-01T11:59:40.245Z</time></trkpt><trkpt lat="44.9772717" lon="6.5053067"><ele>1499.0</ele><time>2026-05-01T11:59:41.245Z</time></trkpt><trkpt lat="44.97733" lon="6.5051917"><ele>1499.2</ele><time>2026-05-01T11:59:42.246Z</time></trkpt><trkpt lat="44.9773833" lon="6.5051"><ele>1499.4</ele><time>2026-05-01T11:59:43.246Z</time></trkpt><trkpt lat="44.977425" lon="6.50502"><ele>1499.6</ele><time>2026-05-01T11:59:44.245Z</time></trkpt><trkpt lat="44.9774683" lon="6.5048933"><ele>1499.8</ele><time>2026-05-01T11:59:46.246Z</time></trkpt><trkpt lat="44.9775017" lon="6.5047317"><ele>1500.0</ele><time>2026-05-01T11:59:48.245Z</time></trkpt><trkpt lat="44.9775467" lon="6.504625"><ele>1501.75</ele><time>2026-05-01T11:59:49.246Z</time></trkpt><trkpt lat="44.9776067" lon="6.5044933"><ele>1503.5</ele><time>2026-05-01T11:59:50.245Z</time></trkpt><trkpt lat="44.9776833" lon="6.5043417"><ele>1505.25</ele><time>2026-05-01T11:59:51.246Z</time></trkpt><trkpt lat="44.9777683" lon="6.504165"><ele>1507.0</ele><time>2026-05-01T11:59:52.245Z</time></trkpt><trkpt lat="44.9778683" lon="6.5039583"><ele>1507.5</ele><time>2026-05-01T11:59:53.246Z</time></trkpt><trkpt lat="44.97806" lon="6.503485"><ele>1508.0</ele><time>2026-05-01T11:59:55.246Z</time></trkpt><trkpt lat="44.9781483" lon="6.5032117"><ele>1508.0</ele><time>2026-05-01T11:59:56.246Z</time></trkpt><trkpt lat="44.9782333" lon="6.50293"><ele>1508.0</ele><time>2026-05-01T11:59:57.246Z</time></trkpt><trkpt lat="44.97831" lon="6.5026517"><ele>1508.0</ele><time>2026-05-01T11:59:58.245Z</time></trkpt><trkpt lat="44.9783867" lon="6.5023833"><ele>1510.0</ele><time>2026-05-01T11:59:59.246Z</time></trkpt><trkpt lat="44.9784633" lon="6.5021333"><ele>1512.0</ele><time>2026-05-01T12:00:00.246Z</time></trkpt><trkpt lat="44.978525" lon="6.5019067"><ele>1514.0</ele><time>2026-05-01T12:00:01.246Z</time></trkpt><trkpt lat="44.9785967" lon="6.50169"><ele>1514.3333333333335</ele><time>2026-05-01T12:00:02.245Z</time></trkpt><trkpt lat="44.97867" lon="6.501465"><ele>1514.6666666666667</ele><time>2026-05-01T12:00:03.246Z</time></trkpt><trkpt lat="44.9787283" lon="6.5012467"><ele>1515.0</ele><time>2026-05-01T12:00:04.246Z</time></trkpt><trkpt lat="44.9788033" lon="6.5010167"><ele>1515.0</ele><time>2026-05-01T12:00:05.246Z</time></trkpt><trkpt lat="44.9788833" lon="6.5007983"><ele>1515.0</ele><time>2026-05-01T12:00:06.246Z</time></trkpt><trkpt lat="44.9789683" lon="6.5005683"><ele>1515.0</ele><time>2026-05-01T12:00:07.246Z</time></trkpt><trkpt lat="44.9790717" lon="6.5003433"><ele>1515.0</ele><time>2026-05-01T12:00:08.246Z</time></trkpt><trkpt lat="44.97919" lon="6.50013"><ele>1515.0</ele><time>2026-05-01T12:00:09.245Z</time></trkpt><trkpt lat="44.9793167" lon="6.499925"><ele>1515.0</ele><time>2026-05-01T12:00:10.246Z</time></trkpt><trkpt lat="44.9794633" lon="6.4997483"><ele>1515.0</ele><time>2026-05-01T12:00:11.245Z</time></trkpt><trkpt lat="44.9796117" lon="6.4996"><ele>1515.0</ele><time>2026-05-01T12:00:12.245Z</time></trkpt><trkpt lat="44.9797683" lon="6.499455"><ele>1515.0</ele><time>2026-05-01T12:00:13.246Z</time></trkpt><trkpt lat="44.9799267" lon="6.4993033"><ele>1514.0</ele><time>2026-05-01T12:00:14.246Z</time></trkpt><trkpt lat="44.98028" lon="6.4991333"><ele>1513.0</ele><time>2026-05-01T12:00:16.246Z</time></trkpt><trkpt lat="44.9804333" lon="6.4991267"><ele>1513.0</ele><time>2026-05-01T12:00:17.246Z</time></trkpt><trkpt lat="44.9806067" lon="6.4991383"><ele>1513.0</ele><time>2026-05-01T12:00:18.246Z</time></trkpt><trkpt lat="44.98079" lon="6.4991817"><ele>1513.0</ele><time>2026-05-01T12:00:19.246Z</time></trkpt><trkpt lat="44.9809767" lon="6.49925"><ele>1512.6666666666665</ele><time>2026-05-01T12:00:20.246Z</time></trkpt><trkpt lat="44.9811633" lon="6.499325"><ele>1512.3333333333333</ele><time>2026-05-01T12:00:21.246Z</time></trkpt><trkpt lat="44.9813433" lon="6.4993783"><ele>1512.0</ele><time>2026-05-01T12:00:22.246Z</time></trkpt><trkpt lat="44.9815267" lon="6.4994117"><ele>1515.0</ele><time>2026-05-01T12:00:23.246Z</time></trkpt><trkpt lat="44.9817133" lon="6.49941"><ele>1518.0</ele><time>2026-05-01T12:00:24.246Z</time></trkpt><trkpt lat="44.9819067" lon="6.4993983"><ele>1521.0</ele><time>2026-05-01T12:00:25.246Z</time></trkpt><trkpt lat="44.9821067" lon="6.49936"><ele>1521.0</ele><time>2026-05-01T12:00:26.246Z</time></trkpt><trkpt lat="44.9823367" lon="6.499285"><ele>1521.0</ele><time>2026-05-01T12:00:27.246Z</time></trkpt><trkpt lat="44.9825633" lon="6.4991717"><ele>1522.3333333333333</ele><time>2026-05-01T12:00:28.246Z</time></trkpt><trkpt lat="44.98276" lon="6.499005"><ele>1523.6666666666665</ele><time>2026-05-01T12:00:29.246Z</time></trkpt><trkpt lat="44.9829383" lon="6.498835"><ele>1525.0</ele><time>2026-05-01T12:00:30.246Z</time></trkpt><trkpt lat="44.9831267" lon="6.49867"><ele>1525.0</ele><time>2026-05-01T12:00:31.245Z</time></trkpt><trkpt lat="44.9833133" lon="6.498515"><ele>1525.0</ele><time>2026-05-01T12:00:32.245Z</time></trkpt><trkpt lat="44.98346" lon="6.4983567"><ele>1525.0</ele><time>2026-05-01T12:00:33.246Z</time></trkpt><trkpt lat="44.9836233" lon="6.4981367"><ele>1532.0</ele><time>2026-05-01T12:00:34.246Z</time></trkpt><trkpt lat="44.9837783" lon="6.497885"><ele>1539.0</ele><time>2026-05-01T12:00:35.246Z</time></trkpt><trkpt lat="44.9840417" lon="6.4973767"><ele>1539.0</ele><time>2026-05-01T12:00:37.245Z</time></trkpt><trkpt lat="44.9841683" lon="6.4971133"><ele>1539.0</ele><time>2026-05-01T12:00:38.246Z</time></trkpt><trkpt lat="44.9843" lon="6.4968517"><ele>1547.5</ele><time>2026-05-01T12:00:39.246Z</time></trkpt><trkpt lat="44.9844417" lon="6.4965867"><ele>1556.0</ele><time>2026-05-01T12:00:40.246Z</time></trkpt><trkpt lat="44.9845833" lon="6.49632"><ele>1545.5</ele><time>2026-05-01T12:00:41.246Z</time></trkpt><trkpt lat="44.984715" lon="6.4960317"><ele>1535.0</ele><time>2026-05-01T12:00:42.246Z</time></trkpt><trkpt lat="44.9848567" lon="6.4957817"><ele>1535.0</ele><time>2026-05-01T12:00:43.245Z</time></trkpt><trkpt lat="44.9850033" lon="6.495565"><ele>1535.0</ele><time>2026-05-01T12:00:44.246Z</time></trkpt><trkpt lat="44.9851617" lon="6.4953317"><ele>1535.0</ele><time>2026-05-01T12:00:45.246Z</time></trkpt><trkpt lat="44.9853167" lon="6.4951433"><ele>1538.6666666666667</ele><time>2026-05-01T12:00:46.246Z</time></trkpt><trkpt lat="44.9854817" lon="6.4950017"><ele>1542.3333333333335</ele><time>2026-05-01T12:00:47.246Z</time></trkpt><trkpt lat="44.9856383" lon="6.494885"><ele>1546.0</ele><time>2026-05-01T12:00:48.246Z</time></trkpt><trkpt lat="44.9857833" lon="6.4947783"><ele>1548.3333333333335</ele><time>2026-05-01T12:00:49.245Z</time></trkpt><trkpt lat="44.98592" lon="6.4946317"><ele>1550.6666666666665</ele><time>2026-05-01T12:00:50.246Z</time></trkpt><trkpt lat="44.9860567" lon="6.494445"><ele>1553.0</ele><time>2026-05-01T12:00:51.245Z</time></trkpt><trkpt lat="44.9861983" lon="6.4942533"><ele>1553.0</ele><time>2026-05-01T12:00:52.246Z</time></trkpt><trkpt lat="44.9863367" lon="6.4940567"><ele>1553.0</ele><time>2026-05-01T12:00:53.245Z</time></trkpt><trkpt lat="44.9864717" lon="6.4938483"><ele>1553.0</ele><time>2026-05-01T12:00:54.245Z</time></trkpt><trkpt lat="44.9866033" lon="6.49359"><ele>1555.5</ele><time>2026-05-01T12:00:55.246Z</time></trkpt><trkpt lat="44.9867267" lon="6.493305"><ele>1558.0</ele><time>2026-05-01T12:00:56.245Z</time></trkpt><trkpt lat="44.9869083" lon="6.4927133"><ele>1558.0</ele><time>2026-05-01T12:00:58.246Z</time></trkpt><trkpt lat="44.9869783" lon="6.492445"><ele>1558.0</ele><time>2026-05-01T12:00:59.246Z</time></trkpt><trkpt lat="44.98705" lon="6.4921917"><ele>1558.0</ele><time>2026-05-01T12:01:00.246Z</time></trkpt><trkpt lat="44.98714" lon="6.4919533"><ele>1553.0</ele><time>2026-05-01T12:01:01.246Z</time></trkpt><trkpt lat="44.98729" lon="6.491725"><ele>1548.0</ele><time>2026-05-01T12:01:02.246Z</time></trkpt><trkpt lat="44.9874517" lon="6.4915133"><ele>1543.0</ele><time>2026-05-01T12:01:03.245Z</time></trkpt><trkpt lat="44.9876233" lon="6.491295"><ele>1546.6666666666667</ele><time>2026-05-01T12:01:04.246Z</time></trkpt><trkpt lat="44.9877817" lon="6.4910967"><ele>1550.3333333333335</ele><time>2026-05-01T12:01:05.246Z</time></trkpt><trkpt lat="44.987935" lon="6.4908867"><ele>1554.0</ele><time>2026-05-01T12:01:06.246Z</time></trkpt><trkpt lat="44.9880933" lon="6.4906867"><ele>1554.0</ele><time>2026-05-01T12:01:07.246Z</time></trkpt><trkpt lat="44.9882567" lon="6.490525"><ele>1554.0</ele><time>2026-05-01T12:01:08.246Z</time></trkpt><trkpt lat="44.9884083" lon="6.4903717"><ele>1554.0</ele><time>2026-05-01T12:01:09.246Z</time></trkpt><trkpt lat="44.9885483" lon="6.4901983"><ele>1553.3333333333335</ele><time>2026-05-01T12:01:10.246Z</time></trkpt><trkpt lat="44.9886733" lon="6.4900017"><ele>1552.6666666666667</ele><time>2026-05-01T12:01:11.245Z</time></trkpt><trkpt lat="44.98876" lon="6.4897883"><ele>1552.0</ele><time>2026-05-01T12:01:12.245Z</time></trkpt><trkpt lat="44.9888333" lon="6.489545"><ele>1552.0</ele><time>2026-05-01T12:01:13.245Z</time></trkpt><trkpt lat="44.9888917" lon="6.4892617"><ele>1552.0</ele><time>2026-05-01T12:01:14.245Z</time></trkpt><trkpt lat="44.9889667" lon="6.4889983"><ele>1552.0</ele><time>2026-05-01T12:01:15.246Z</time></trkpt><trkpt lat="44.9890667" lon="6.4887383"><ele>1564.0</ele><time>2026-05-01T12:01:16.246Z</time></trkpt><trkpt lat="44.9891833" lon="6.4884717"><ele>1576.0</ele><time>2026-05-01T12:01:17.246Z</time></trkpt><trkpt lat="44.9894633" lon="6.4879283"><ele>1570.5</ele><time>2026-05-01T12:01:19.246Z</time></trkpt><trkpt lat="44.9896183" lon="6.4876333"><ele>1565.0</ele><time>2026-05-01T12:01:20.246Z</time></trkpt><trkpt lat="44.9897633" lon="6.487345"><ele>1558.0</ele><time>2026-05-01T12:01:21.246Z</time></trkpt><trkpt lat="44.989905" lon="6.4870617"><ele>1551.0</ele><time>2026-05-01T12:01:22.246Z</time></trkpt><trkpt lat="44.9900417" lon="6.4867733"><ele>1559.5</ele><time>2026-05-01T12:01:23.246Z</time></trkpt><trkpt lat="44.99019" lon="6.4864883"><ele>1568.0</ele><time>2026-05-01T12:01:24.246Z</time></trkpt><trkpt lat="44.9903383" lon="6.48619"><ele>1568.0</ele><time>2026-05-01T12:01:25.245Z</time></trkpt><trkpt lat="44.9904967" lon="6.4859217"><ele>1568.0</ele><time>2026-05-01T12:01:26.246Z</time></trkpt><trkpt lat="44.9906617" lon="6.4856667"><ele>1573.5</ele><time>2026-05-01T12:01:27.246Z</time></trkpt><trkpt lat="44.9908667" lon="6.4854533"><ele>1579.0</ele><time>2026-05-01T12:01:28.245Z</time></trkpt><trkpt lat="44.9910333" lon="6.485205"><ele>1579.0</ele><time>2026-05-01T12:01:29.246Z</time></trkpt><trkpt lat="44.9911967" lon="6.4849617"><ele>1579.0</ele><time>2026-05-01T12:01:30.246Z</time></trkpt><trkpt lat="44.991385" lon="6.4847533"><ele>1572.3333333333335</ele><time>2026-05-01T12:01:31.246Z</time></trkpt><trkpt lat="44.991545" lon="6.48455"><ele>1565.6666666666665</ele><time>2026-05-01T12:01:32.246Z</time></trkpt><trkpt lat="44.991675" lon="6.4843017"><ele>1559.0</ele><time>2026-05-01T12:01:33.246Z</time></trkpt><trkpt lat="44.9917967" lon="6.4840333"><ele>1571.5</ele><time>2026-05-01T12:01:34.246Z</time></trkpt><trkpt lat="44.9919433" lon="6.483765"><ele>1584.0</ele><time>2026-05-01T12:01:35.246Z</time></trkpt><trkpt lat="44.9920617" lon="6.4835"><ele>1584.0</ele><time>2026-05-01T12:01:36.246Z</time></trkpt><trkpt lat="44.9921833" lon="6.4832267"><ele>1584.0</ele><time>2026-05-01T12:01:37.246Z</time></trkpt><trkpt lat="44.9922817" lon="6.4829383"><ele>1574.5</ele><time>2026-05-01T12:01:38.245Z</time></trkpt><trkpt lat="44.9924933" lon="6.4824183"><ele>1565.0</ele><time>2026-05-01T12:01:40.245Z</time></trkpt><trkpt lat="44.9926067" lon="6.4822"><ele>1569.3333333333333</ele><time>2026-05-01T12:01:41.245Z</time></trkpt><trkpt lat="44.9927767" lon="6.4820117"><ele>1573.6666666666665</ele><time>2026-05-01T12:01:42.245Z</time></trkpt><trkpt lat="44.992965" lon="6.481845"><ele>1578.0</ele><time>2026-05-01T12:01:43.245Z</time></trkpt><trkpt lat="44.9931183" lon="6.4816433"><ele>1578.0</ele><time>2026-05-01T12:01:44.245Z</time></trkpt><trkpt lat="44.9932533" lon="6.4814333"><ele>1578.0</ele><time>2026-05-01T12:01:45.245Z</time></trkpt><trkpt lat="44.9933983" lon="6.481265"><ele>1578.0</ele><time>2026-05-01T12:01:46.245Z</time></trkpt><trkpt lat="44.9935483" lon="6.4811167"><ele>1578.0</ele><time>2026-05-01T12:01:47.245Z</time></trkpt><trkpt lat="44.99373" lon="6.48097"><ele>1578.0</ele><time>2026-05-01T12:01:48.245Z</time></trkpt><trkpt lat="44.9939317" lon="6.4808417"><ele>1578.0</ele><time>2026-05-01T12:01:49.245Z</time></trkpt><trkpt lat="44.9941267" lon="6.4806967"><ele>1575.6666666666665</ele><time>2026-05-01T12:01:50.245Z</time></trkpt><trkpt lat="44.99431" lon="6.480525"><ele>1573.3333333333333</ele><time>2026-05-01T12:01:51.245Z</time></trkpt><trkpt lat="44.9944883" lon="6.4803783"><ele>1571.0</ele><time>2026-05-01T12:01:52.244Z</time></trkpt><trkpt lat="44.994685" lon="6.4802633"><ele>1571.0</ele><time>2026-05-01T12:01:53.245Z</time></trkpt><trkpt lat="44.9948733" lon="6.4801417"><ele>1571.0</ele><time>2026-05-01T12:01:54.244Z</time></trkpt><trkpt lat="44.9950733" lon="6.4800267"><ele>1571.0</ele><time>2026-05-01T12:01:55.245Z</time></trkpt><trkpt lat="44.9952667" lon="6.4799033"><ele>1571.0</ele><time>2026-05-01T12:01:56.245Z</time></trkpt><trkpt lat="44.9954467" lon="6.47977"><ele>1571.0</ele><time>2026-05-01T12:01:57.245Z</time></trkpt><trkpt lat="44.9956017" lon="6.4796133"><ele>1571.0</ele><time>2026-05-01T12:01:58.245Z</time></trkpt><trkpt lat="44.9957667" lon="6.479475"><ele>1578.5</ele><time>2026-05-01T12:01:59.245Z</time></trkpt><trkpt lat="44.9960517" lon="6.4791117"><ele>1586.0</ele><time>2026-05-01T12:02:01.245Z</time></trkpt><trkpt lat="44.99617" lon="6.4789517"><ele>1586.0</ele><time>2026-05-01T12:02:02.245Z</time></trkpt><trkpt lat="44.9962867" lon="6.478815"><ele>1586.0</ele><time>2026-05-01T12:02:03.244Z</time></trkpt><trkpt lat="44.9964083" lon="6.478715"><ele>1586.0</ele><time>2026-05-01T12:02:04.244Z</time></trkpt><trkpt lat="44.9965383" lon="6.4786283"><ele>1586.0</ele><time>2026-05-01T12:02:05.244Z</time></trkpt><trkpt lat="44.9966983" lon="6.4786133"><ele>1585.0</ele><time>2026-05-01T12:02:06.245Z</time></trkpt><trkpt lat="44.9968583" lon="6.4785833"><ele>1584.0</ele><time>2026-05-01T12:02:07.245Z</time></trkpt><trkpt lat="44.9970367" lon="6.47856"><ele>1583.0</ele><time>2026-05-01T12:02:08.245Z</time></trkpt><trkpt lat="44.9972083" lon="6.4785033"><ele>1583.0</ele><time>2026-05-01T12:02:09.244Z</time></trkpt><trkpt lat="44.9973817" lon="6.478415"><ele>1583.0</ele><time>2026-05-01T12:02:10.245Z</time></trkpt><trkpt lat="44.9975417" lon="6.4782833"><ele>1583.0</ele><time>2026-05-01T12:02:11.244Z</time></trkpt><trkpt lat="44.9977" lon="6.47814"><ele>1581.3333333333333</ele><time>2026-05-01T12:02:12.245Z</time></trkpt><trkpt lat="44.9978583" lon="6.4779983"><ele>1579.6666666666665</ele><time>2026-05-01T12:02:13.245Z</time></trkpt><trkpt lat="44.998025" lon="6.4778917"><ele>1578.0</ele><time>2026-05-01T12:02:14.245Z</time></trkpt><trkpt lat="44.998185" lon="6.4778283"><ele>1584.6666666666665</ele><time>2026-05-01T12:02:15.245Z</time></trkpt><trkpt lat="44.9983567" lon="6.4778167"><ele>1591.3333333333333</ele><time>2026-05-01T12:02:16.244Z</time></trkpt><trkpt lat="44.998525" lon="6.4777433"><ele>1598.0</ele><time>2026-05-01T12:02:17.245Z</time></trkpt><trkpt lat="44.9986917" lon="6.477655"><ele>1598.0</ele><time>2026-05-01T12:02:18.245Z</time></trkpt><trkpt lat="44.998865" lon="6.4775267"><ele>1598.0</ele><time>2026-05-01T12:02:19.244Z</time></trkpt><trkpt lat="44.9990333" lon="6.4773817"><ele>1598.0</ele><time>2026-05-01T12:02:20.245Z</time></trkpt><trkpt lat="44.9993833" lon="6.47715"><ele>1595.0</ele><time>2026-05-01T12:02:22.245Z</time></trkpt><trkpt lat="44.9995617" lon="6.47705"><ele>1592.0</ele><time>2026-05-01T12:02:23.245Z</time></trkpt><trkpt lat="44.9997317" lon="6.4769767"><ele>1589.0</ele><time>2026-05-01T12:02:24.245Z</time></trkpt><trkpt lat="44.999915" lon="6.476925"><ele>1589.0</ele><time>2026-05-01T12:02:25.245Z</time></trkpt><trkpt lat="45.00009" lon="6.4769"><ele>1589.0</ele><time>2026-05-01T12:02:26.245Z</time></trkpt><trkpt lat="45.000275" lon="6.4769067"><ele>1589.0</ele><time>2026-05-01T12:02:27.245Z</time></trkpt><trkpt lat="45.0004517" lon="6.4768983"><ele>1589.0</ele><time>2026-05-01T12:02:28.245Z</time></trkpt><trkpt lat="45.0006117" lon="6.4769067"><ele>1589.0</ele><time>2026-05-01T12:02:29.245Z</time></trkpt><trkpt lat="45.0007883" lon="6.4768817"><ele>1589.0</ele><time>2026-05-01T12:02:30.245Z</time></trkpt><trkpt lat="45.000965" lon="6.4768217"><ele>1593.6666666666665</ele><time>2026-05-01T12:02:31.245Z</time></trkpt><trkpt lat="45.00113" lon="6.4767383"><ele>1598.3333333333335</ele><time>2026-05-01T12:02:32.245Z</time></trkpt><trkpt lat="45.0013017" lon="6.476605"><ele>1603.0</ele><time>2026-05-01T12:02:33.244Z</time></trkpt><trkpt lat="45.0014617" lon="6.4764517"><ele>1603.0</ele><time>2026-05-01T12:02:34.245Z</time></trkpt><trkpt lat="45.0016283" lon="6.4762767"><ele>1603.0</ele><time>2026-05-01T12:02:35.245Z</time></trkpt><trkpt lat="45.0018017" lon="6.476115"><ele>1603.0</ele><time>2026-05-01T12:02:36.245Z</time></trkpt><trkpt lat="45.0019833" lon="6.4759833"><ele>1599.3333333333335</ele><time>2026-05-01T12:02:37.245Z</time></trkpt><trkpt lat="45.0021683" lon="6.4758433"><ele>1595.6666666666665</ele><time>2026-05-01T12:02:38.245Z</time></trkpt><trkpt lat="45.0023333" lon="6.47573"><ele>1592.0</ele><time>2026-05-01T12:02:39.245Z</time></trkpt><trkpt lat="45.0025067" lon="6.4756217"><ele>1595.0</ele><time>2026-05-01T12:02:40.245Z</time></trkpt><trkpt lat="45.0026733" lon="6.4754817"><ele>1598.0</ele><time>2026-05-01T12:02:41.245Z</time></trkpt><trkpt lat="45.0029833" lon="6.4751383"><ele>1598.0</ele><time>2026-05-01T12:02:43.245Z</time></trkpt><trkpt lat="45.0031383" lon="6.47495"><ele>1598.0</ele><time>2026-05-01T12:02:44.245Z</time></trkpt><trkpt lat="45.0032967" lon="6.4747567"><ele>1598.0</ele><time>2026-05-01T12:02:45.245Z</time></trkpt><trkpt lat="45.00345" lon="6.474555"><ele>1602.0</ele><time>2026-05-01T12:02:46.245Z</time></trkpt><trkpt lat="45.0036067" lon="6.4743683"><ele>1606.0</ele><time>2026-05-01T12:02:47.244Z</time></trkpt><trkpt lat="45.0037617" lon="6.4741917"><ele>1610.0</ele><time>2026-05-01T12:02:48.245Z</time></trkpt><trkpt lat="45.003905" lon="6.473985"><ele>1610.0</ele><time>2026-05-01T12:02:49.245Z</time></trkpt><trkpt lat="45.0040667" lon="6.4738367"><ele>1610.0</ele><time>2026-05-01T12:02:50.245Z</time></trkpt><trkpt lat="45.0042467" lon="6.47372"><ele>1610.0</ele><time>2026-05-01T12:02:51.245Z</time></trkpt><trkpt lat="45.004425" lon="6.473585"><ele>1612.0</ele><time>2026-05-01T12:02:52.245Z</time></trkpt><trkpt lat="45.004605" lon="6.4734383"><ele>1614.0</ele><time>2026-05-01T12:02:53.244Z</time></trkpt><trkpt lat="45.0047733" lon="6.473285"><ele>1616.0</ele><time>2026-05-01T12:02:54.244Z</time></trkpt><trkpt lat="45.0049117" lon="6.473135"><ele>1617.75</ele><time>2026-05-01T12:02:55.245Z</time></trkpt><trkpt lat="45.0050283" lon="6.472975"><ele>1619.5</ele><time>2026-05-01T12:02:56.245Z</time></trkpt><trkpt lat="45.0051417" lon="6.4728467"><ele>1621.25</ele><time>2026-05-01T12:02:57.245Z</time></trkpt><trkpt lat="45.005255" lon="6.4727433"><ele>1623.0</ele><time>2026-05-01T12:02:58.245Z</time></trkpt><trkpt lat="45.0053867" lon="6.4726733"><ele>1623.0</ele><time>2026-05-01T12:02:59.245Z</time></trkpt><trkpt lat="45.0055367" lon="6.47263"><ele>1623.0</ele><time>2026-05-01T12:03:00.245Z</time></trkpt><trkpt lat="45.0057067" lon="6.4726317"><ele>1623.0</ele><time>2026-05-01T12:03:01.245Z</time></trkpt><trkpt lat="45.0059067" lon="6.4726767"><ele>1625.0</ele><time>2026-05-01T12:03:02.244Z</time></trkpt><trkpt lat="45.00627" lon="6.47274"><ele>1627.0</ele><time>2026-05-01T12:03:04.245Z</time></trkpt><trkpt lat="45.00645" lon="6.4727317"><ele>1627.0</ele><time>2026-05-01T12:03:05.244Z</time></trkpt><trkpt lat="45.00663" lon="6.4726867"><ele>1627.0</ele><time>2026-05-01T12:03:06.245Z</time></trkpt><trkpt lat="45.0068083" lon="6.4726233"><ele>1627.0</ele><time>2026-05-01T12:03:07.244Z</time></trkpt><trkpt lat="45.0069867" lon="6.4725517"><ele>1628.6666666666667</ele><time>2026-05-01T12:03:08.244Z</time></trkpt><trkpt lat="45.007165" lon="6.4724717"><ele>1630.3333333333335</ele><time>2026-05-01T12:03:09.245Z</time></trkpt><trkpt lat="45.0073367" lon="6.472395"><ele>1632.0</ele><time>2026-05-01T12:03:10.245Z</time></trkpt><trkpt lat="45.00749" lon="6.47231"><ele>1636.6666666666665</ele><time>2026-05-01T12:03:11.245Z</time></trkpt><trkpt lat="45.0076517" lon="6.4722417"><ele>1641.3333333333333</ele><time>2026-05-01T12:03:12.244Z</time></trkpt><trkpt lat="45.0078133" lon="6.4721883"><ele>1646.0</ele><time>2026-05-01T12:03:13.245Z</time></trkpt><trkpt lat="45.007955" lon="6.4721217"><ele>1644.6666666666665</ele><time>2026-05-01T12:03:14.245Z</time></trkpt><trkpt lat="45.0081333" lon="6.4720667"><ele>1643.3333333333335</ele><time>2026-05-01T12:03:15.244Z</time></trkpt><trkpt lat="45.0082867" lon="6.4719833"><ele>1642.0</ele><time>2026-05-01T12:03:16.245Z</time></trkpt><trkpt lat="45.0084083" lon="6.4718617"><ele>1642.0</ele><time>2026-05-01T12:03:17.245Z</time></trkpt><trkpt lat="45.0085217" lon="6.4717033"><ele>1642.0</ele><time>2026-05-01T12:03:18.245Z</time></trkpt><trkpt lat="45.0086383" lon="6.4715217"><ele>1642.0</ele><time>2026-05-01T12:03:19.244Z</time></trkpt><trkpt lat="45.0087633" lon="6.4713533"><ele>1642.6666666666667</ele><time>2026-05-01T12:03:20.245Z</time></trkpt><trkpt lat="45.0089017" lon="6.47122"><ele>1643.3333333333335</ele><time>2026-05-01T12:03:21.244Z</time></trkpt><trkpt lat="45.0090583" lon="6.4711217"><ele>1644.0</ele><time>2026-05-01T12:03:22.245Z</time></trkpt><trkpt lat="45.009215" lon="6.4710183"><ele>1644.0</ele><time>2026-05-01T12:03:23.245Z</time></trkpt><trkpt lat="45.0095417" lon="6.4707983"><ele>1644.0</ele><time>2026-05-01T12:03:25.245Z</time></trkpt><trkpt lat="45.0096983" lon="6.4706767"><ele>1644.0</ele><time>2026-05-01T12:03:26.245Z</time></trkpt><trkpt lat="45.00989" lon="6.470565"><ele>1644.0</ele><time>2026-05-01T12:03:27.245Z</time></trkpt><trkpt lat="45.0100933" lon="6.470465"><ele>1644.0</ele><time>2026-05-01T12:03:28.245Z</time></trkpt><trkpt lat="45.0103" lon="6.4703633"><ele>1643.6666666666665</ele><time>2026-05-01T12:03:29.245Z</time></trkpt><trkpt lat="45.0105133" lon="6.4702417"><ele>1643.3333333333333</ele><time>2026-05-01T12:03:30.245Z</time></trkpt><trkpt lat="45.010705" lon="6.4700933"><ele>1643.0</ele><time>2026-05-01T12:03:31.245Z</time></trkpt><trkpt lat="45.0109367" lon="6.4699517"><ele>1652.0</ele><time>2026-05-01T12:03:32.244Z</time></trkpt><trkpt lat="45.011155" lon="6.469795"><ele>1661.0</ele><time>2026-05-01T12:03:33.245Z</time></trkpt><trkpt lat="45.0113633" lon="6.469635"><ele>1662.5</ele><time>2026-05-01T12:03:34.245Z</time></trkpt><trkpt lat="45.0115667" lon="6.4694517"><ele>1664.0</ele><time>2026-05-01T12:03:35.244Z</time></trkpt><trkpt lat="45.0117767" lon="6.4692683"><ele>1664.0</ele><time>2026-05-01T12:03:36.245Z</time></trkpt><trkpt lat="45.0119733" lon="6.4690833"><ele>1664.0</ele><time>2026-05-01T12:03:37.245Z</time></trkpt><trkpt lat="45.0121567" lon="6.4689067"><ele>1666.6666666666665</ele><time>2026-05-01T12:03:38.244Z</time></trkpt><trkpt lat="45.0123267" lon="6.46873"><ele>1669.3333333333335</ele><time>2026-05-01T12:03:39.245Z</time></trkpt><trkpt lat="45.0124817" lon="6.4685617"><ele>1672.0</ele><time>2026-05-01T12:03:40.244Z</time></trkpt><trkpt lat="45.01261" lon="6.4683833"><ele>1672.0</ele><time>2026-05-01T12:03:41.245Z</time></trkpt><trkpt lat="45.0127167" lon="6.4682217"><ele>1672.0</ele><time>2026-05-01T12:03:42.244Z</time></trkpt><trkpt lat="45.0128267" lon="6.468085"><ele>1672.0</ele><time>2026-05-01T12:03:43.244Z</time></trkpt><trkpt lat="45.012955" lon="6.4679283"><ele>1669.5</ele><time>2026-05-01T12:03:44.245Z</time></trkpt><trkpt lat="45.0132567" lon="6.4676967"><ele>1667.0</ele><time>2026-05-01T12:03:46.244Z</time></trkpt><trkpt lat="45.0134233" lon="6.467585"><ele>1671.3333333333333</ele><time>2026-05-01T12:03:47.245Z</time></trkpt><trkpt lat="45.01359" lon="6.467515"><ele>1675.6666666666665</ele><time>2026-05-01T12:03:48.245Z</time></trkpt><trkpt lat="45.0137583" lon="6.4674567"><ele>1680.0</ele><time>2026-05-01T12:03:49.244Z</time></trkpt><trkpt lat="45.0139167" lon="6.4674417"><ele>1680.0</ele><time>2026-05-01T12:03:50.244Z</time></trkpt><trkpt lat="45.0140717" lon="6.4674233"><ele>1680.0</ele><time>2026-05-01T12:03:51.244Z</time></trkpt><trkpt lat="45.0142383" lon="6.4673467"><ele>1680.0</ele><time>2026-05-01T12:03:52.245Z</time></trkpt><trkpt lat="45.0143983" lon="6.4672533"><ele>1678.3333333333335</ele><time>2026-05-01T12:03:53.245Z</time></trkpt><trkpt lat="45.0145567" lon="6.4671417"><ele>1676.6666666666667</ele><time>2026-05-01T12:03:54.245Z</time></trkpt><trkpt lat="45.0147233" lon="6.4669717"><ele>1675.0</ele><time>2026-05-01T12:03:55.244Z</time></trkpt><trkpt lat="45.0148783" lon="6.4667733"><ele>1677.0</ele><time>2026-05-01T12:03:56.245Z</time></trkpt><trkpt lat="45.0150133" lon="6.4665817"><ele>1679.0</ele><time>2026-05-01T12:03:57.245Z</time></trkpt><trkpt lat="45.0151333" lon="6.4664"><ele>1681.0</ele><time>2026-05-01T12:03:58.245Z</time></trkpt><trkpt lat="45.015225" lon="6.466185"><ele>1681.0</ele><time>2026-05-01T12:03:59.245Z</time></trkpt><trkpt lat="45.0153433" lon="6.4660183"><ele>1681.0</ele><time>2026-05-01T12:04:00.244Z</time></trkpt><trkpt lat="45.01546" lon="6.4658333"><ele>1681.0</ele><time>2026-05-01T12:04:01.245Z</time></trkpt><trkpt lat="45.0155783" lon="6.4656583"><ele>1681.0</ele><time>2026-05-01T12:04:02.245Z</time></trkpt><trkpt lat="45.0157067" lon="6.4655083"><ele>1681.0</ele><time>2026-05-01T12:04:03.245Z</time></trkpt><trkpt lat="45.0158467" lon="6.4654067"><ele>1681.0</ele><time>2026-05-01T12:04:04.245Z</time></trkpt><trkpt lat="45.0159983" lon="6.4653533"><ele>1682.0</ele><time>2026-05-01T12:04:05.245Z</time></trkpt><trkpt lat="45.016295" lon="6.4652633"><ele>1683.0</ele><time>2026-05-01T12:04:07.245Z</time></trkpt><trkpt lat="45.0164583" lon="6.4652683"><ele>1683.0</ele><time>2026-05-01T12:04:08.245Z</time></trkpt><trkpt lat="45.0166467" lon="6.465355"><ele>1683.0</ele><time>2026-05-01T12:04:09.245Z</time></trkpt><trkpt lat="45.016835" lon="6.4654933"><ele>1683.0</ele><time>2026-05-01T12:04:10.245Z</time></trkpt><trkpt lat="45.017015" lon="6.4655767"><ele>1690.6666666666665</ele><time>2026-05-01T12:04:11.245Z</time></trkpt><trkpt lat="45.017195" lon="6.4656217"><ele>1698.3333333333333</ele><time>2026-05-01T12:04:12.244Z</time></trkpt><trkpt lat="45.0173633" lon="6.4657017"><ele>1706.0</ele><time>2026-05-01T12:04:13.244Z</time></trkpt><trkpt lat="45.01752" lon="6.4658033"><ele>1706.0</ele><time>2026-05-01T12:04:14.244Z</time></trkpt><trkpt lat="45.0176483" lon="6.4659083"><ele>1706.0</ele><time>2026-05-01T12:04:15.244Z</time></trkpt><trkpt lat="45.0177583" lon="6.465995"><ele>1706.0</ele><time>2026-05-01T12:04:16.245Z</time></trkpt><trkpt lat="45.017855" lon="6.4660667"><ele>1706.0</ele><time>2026-05-01T12:04:17.245Z</time></trkpt><trkpt lat="45.0179433" lon="6.4660933"><ele>1706.0</ele><time>2026-05-01T12:04:18.245Z</time></trkpt><trkpt lat="45.0180267" lon="6.4660883"><ele>1706.0</ele><time>2026-05-01T12:04:19.245Z</time></trkpt><trkpt lat="45.0181283" lon="6.466065"><ele>1706.0</ele><time>2026-05-01T12:04:20.244Z</time></trkpt><trkpt lat="45.01825" lon="6.4660067"><ele>1706.0</ele><time>2026-05-01T12:04:21.244Z</time></trkpt><trkpt lat="45.018375" lon="6.4658683"><ele>1707.0</ele><time>2026-05-01T12:04:22.245Z</time></trkpt><trkpt lat="45.0184917" lon="6.4657067"><ele>1708.0</ele><time>2026-05-01T12:04:23.245Z</time></trkpt><trkpt lat="45.018585" lon="6.4655483"><ele>1709.0</ele><time>2026-05-01T12:04:24.244Z</time></trkpt><trkpt lat="45.0186417" lon="6.4653433"><ele>1709.0</ele><time>2026-05-01T12:04:25.245Z</time></trkpt><trkpt lat="45.0186717" lon="6.4651317"><ele>1709.0</ele><time>2026-05-01T12:04:26.245Z</time></trkpt><trkpt lat="45.0187117" lon="6.464665"><ele>1708.0</ele><time>2026-05-01T12:04:28.245Z</time></trkpt><trkpt lat="45.0187483" lon="6.4644333"><ele>1707.0</ele><time>2026-05-01T12:04:29.245Z</time></trkpt><trkpt lat="45.018825" lon="6.4641867"><ele>1706.0</ele><time>2026-05-01T12:04:30.244Z</time></trkpt><trkpt lat="45.0189367" lon="6.4639567"><ele>1704.0</ele><time>2026-05-01T12:04:31.245Z</time></trkpt><trkpt lat="45.019085" lon="6.463775"><ele>1702.0</ele><time>2026-05-01T12:04:32.245Z</time></trkpt><trkpt lat="45.019255" lon="6.4636083"><ele>1700.0</ele><time>2026-05-01T12:04:33.244Z</time></trkpt><trkpt lat="45.0194417" lon="6.46344"><ele>1703.0</ele><time>2026-05-01T12:04:34.245Z</time></trkpt><trkpt lat="45.0196267" lon="6.463275"><ele>1706.0</ele><time>2026-05-01T12:04:35.245Z</time></trkpt><trkpt lat="45.0197967" lon="6.4630833"><ele>1709.0</ele><time>2026-05-01T12:04:36.244Z</time></trkpt><trkpt lat="45.0199433" lon="6.4628833"><ele>1714.6666666666665</ele><time>2026-05-01T12:04:37.244Z</time></trkpt><trkpt lat="45.02008" lon="6.462625"><ele>1720.3333333333335</ele><time>2026-05-01T12:04:38.245Z</time></trkpt><trkpt lat="45.02018" lon="6.462355"><ele>1726.0</ele><time>2026-05-01T12:04:39.245Z</time></trkpt><trkpt lat="45.0202633" lon="6.4620667"><ele>1726.0</ele><time>2026-05-01T12:04:40.245Z</time></trkpt><trkpt lat="45.0203533" lon="6.461825"><ele>1726.0</ele><time>2026-05-01T12:04:41.245Z</time></trkpt><trkpt lat="45.0204083" lon="6.4615867"><ele>1726.0</ele><time>2026-05-01T12:04:42.244Z</time></trkpt><trkpt lat="45.0204667" lon="6.4613317"><ele>1725.3333333333335</ele><time>2026-05-01T12:04:43.245Z</time></trkpt><trkpt lat="45.0205383" lon="6.461065"><ele>1724.6666666666665</ele><time>2026-05-01T12:04:44.245Z</time></trkpt><trkpt lat="45.0206283" lon="6.4607967"><ele>1724.0</ele><time>2026-05-01T12:04:45.245Z</time></trkpt><trkpt lat="45.0207217" lon="6.4605283"><ele>1731.5</ele><time>2026-05-01T12:04:46.244Z</time></trkpt><trkpt lat="45.0208167" lon="6.4602533"><ele>1739.0</ele><time>2026-05-01T12:04:47.245Z</time></trkpt><trkpt lat="45.0209933" lon="6.459725"><ele>1736.3333333333333</ele><time>2026-05-01T12:04:49.245Z</time></trkpt><trkpt lat="45.0210883" lon="6.4594833"><ele>1733.6666666666665</ele><time>2026-05-01T12:04:50.244Z</time></trkpt><trkpt lat="45.021195" lon="6.4592233"><ele>1731.0</ele><time>2026-05-01T12:04:51.245Z</time></trkpt><trkpt lat="45.0213283" lon="6.4589783"><ele>1726.6666666666665</ele><time>2026-05-01T12:04:52.245Z</time></trkpt><trkpt lat="45.0214633" lon="6.4587417"><ele>1722.3333333333333</ele><time>2026-05-01T12:04:53.245Z</time></trkpt><trkpt lat="45.02159" lon="6.4584983"><ele>1718.0</ele><time>2026-05-01T12:04:54.244Z</time></trkpt><trkpt lat="45.0217083" lon="6.4582467"><ele>1725.0</ele><time>2026-05-01T12:04:55.245Z</time></trkpt><trkpt lat="45.0218217" lon="6.457985"><ele>1732.0</ele><time>2026-05-01T12:04:56.245Z</time></trkpt><trkpt lat="45.0219217" lon="6.4577133"><ele>1739.0</ele><time>2026-05-01T12:04:57.245Z</time></trkpt><trkpt lat="45.0220367" lon="6.4574667"><ele>1739.0</ele><time>2026-05-01T12:04:58.245Z</time></trkpt><trkpt lat="45.022155" lon="6.4572233"><ele>1739.0</ele><time>2026-05-01T12:04:59.245Z</time></trkpt><trkpt lat="45.0222867" lon="6.457"><ele>1739.0</ele><time>2026-05-01T12:05:00.244Z</time></trkpt><trkpt lat="45.02244" lon="6.4567867"><ele>1743.0</ele><time>2026-05-01T12:05:01.245Z</time></trkpt><trkpt lat="45.0226033" lon="6.45661"><ele>1747.0</ele><time>2026-05-01T12:05:02.244Z</time></trkpt><trkpt lat="45.0227717" lon="6.4564433"><ele>1751.0</ele><time>2026-05-01T12:05:03.245Z</time></trkpt><trkpt lat="45.0229517" lon="6.4562933"><ele>1753.6666666666665</ele><time>2026-05-01T12:05:04.245Z</time></trkpt><trkpt lat="45.0231267" lon="6.456125"><ele>1756.3333333333335</ele><time>2026-05-01T12:05:05.245Z</time></trkpt><trkpt lat="45.0232983" lon="6.4559333"><ele>1759.0</ele><time>2026-05-01T12:05:06.245Z</time></trkpt><trkpt lat="45.0234517" lon="6.4557267"><ele>1759.0</ele><time>2026-05-01T12:05:07.245Z</time></trkpt><trkpt lat="45.0235983" lon="6.455495"><ele>1759.0</ele><time>2026-05-01T12:05:08.244Z</time></trkpt><trkpt lat="45.0238983" lon="6.4550467"><ele>1759.6666666666667</ele><time>2026-05-01T12:05:10.244Z</time></trkpt><trkpt lat="45.0240483" lon="6.4548333"><ele>1760.3333333333335</ele><time>2026-05-01T12:05:11.245Z</time></trkpt><trkpt lat="45.0241933" lon="6.4546133"><ele>1761.0</ele><time>2026-05-01T12:05:12.244Z</time></trkpt><trkpt lat="45.024325" lon="6.4543883"><ele>1761.0</ele><time>2026-05-01T12:05:13.245Z</time></trkpt><trkpt lat="45.02446" lon="6.4541417"><ele>1761.0</ele><time>2026-05-01T12:05:14.244Z</time></trkpt><trkpt lat="45.0245717" lon="6.4538717"><ele>1761.0</ele><time>2026-05-01T12:05:15.244Z</time></trkpt><trkpt lat="45.0246667" lon="6.4536067"><ele>1765.6666666666665</ele><time>2026-05-01T12:05:16.244Z</time></trkpt><trkpt lat="45.0247783" lon="6.4533483"><ele>1770.3333333333333</ele><time>2026-05-01T12:05:17.245Z</time></trkpt><trkpt lat="45.024895" lon="6.45308"><ele>1775.0</ele><time>2026-05-01T12:05:18.244Z</time></trkpt><trkpt lat="45.0249967" lon="6.4528283"><ele>1775.0</ele><time>2026-05-01T12:05:19.245Z</time></trkpt><trkpt lat="45.0250733" lon="6.45257"><ele>1775.0</ele><time>2026-05-01T12:05:20.244Z</time></trkpt><trkpt lat="45.02514" lon="6.4523083"><ele>1775.0</ele><time>2026-05-01T12:05:21.245Z</time></trkpt><trkpt lat="45.0252267" lon="6.4520417"><ele>1771.0</ele><time>2026-05-01T12:05:22.244Z</time></trkpt><trkpt lat="45.0253433" lon="6.45175"><ele>1767.0</ele><time>2026-05-01T12:05:23.244Z</time></trkpt><trkpt lat="45.0254633" lon="6.4514833"><ele>1763.0</ele><time>2026-05-01T12:05:24.244Z</time></trkpt><trkpt lat="45.0255933" lon="6.4512133"><ele>1759.0</ele><time>2026-05-01T12:05:25.245Z</time></trkpt><trkpt lat="45.0257183" lon="6.450945"><ele>1764.3333333333335</ele><time>2026-05-01T12:05:26.245Z</time></trkpt><trkpt lat="45.02584" lon="6.4506967"><ele>1769.6666666666665</ele><time>2026-05-01T12:05:27.244Z</time></trkpt><trkpt lat="45.0259767" lon="6.450455"><ele>1775.0</ele><time>2026-05-01T12:05:28.245Z</time></trkpt><trkpt lat="45.026115" lon="6.4502133"><ele>1775.0</ele><time>2026-05-01T12:05:29.245Z</time></trkpt><trkpt lat="45.0264017" lon="6.4497617"><ele>1775.0</ele><time>2026-05-01T12:05:31.245Z</time></trkpt><trkpt lat="45.026545" lon="6.4495533"><ele>1779.6666666666665</ele><time>2026-05-01T12:05:32.245Z</time></trkpt><trkpt lat="45.0266917" lon="6.4493667"><ele>1784.3333333333335</ele><time>2026-05-01T12:05:33.245Z</time></trkpt><trkpt lat="45.02684" lon="6.4491767"><ele>1789.0</ele><time>2026-05-01T12:05:34.244Z</time></trkpt><trkpt lat="45.0269917" lon="6.44899"><ele>1789.0</ele><time>2026-05-01T12:05:35.244Z</time></trkpt><trkpt lat="45.0271317" lon="6.44881"><ele>1789.0</ele><time>2026-05-01T12:05:36.245Z</time></trkpt><trkpt lat="45.0272617" lon="6.4486067"><ele>1789.0</ele><time>2026-05-01T12:05:37.245Z</time></trkpt><trkpt lat="45.02738" lon="6.448405"><ele>1787.3333333333335</ele><time>2026-05-01T12:05:38.245Z</time></trkpt><trkpt lat="45.027515" lon="6.44822"><ele>1785.6666666666665</ele><time>2026-05-01T12:05:39.245Z</time></trkpt><trkpt lat="45.0276583" lon="6.4480567"><ele>1784.0</ele><time>2026-05-01T12:05:40.245Z</time></trkpt><trkpt lat="45.027815" lon="6.447905"><ele>1784.0</ele><time>2026-05-01T12:05:41.245Z</time></trkpt><trkpt lat="45.0279767" lon="6.4477717"><ele>1784.0</ele><time>2026-05-01T12:05:42.245Z</time></trkpt><trkpt lat="45.0281567" lon="6.447625"><ele>1784.0</ele><time>2026-05-01T12:05:43.245Z</time></trkpt><trkpt lat="45.0283283" lon="6.4474533"><ele>1788.0</ele><time>2026-05-01T12:05:44.244Z</time></trkpt><trkpt lat="45.0284917" lon="6.4472933"><ele>1792.0</ele><time>2026-05-01T12:05:45.244Z</time></trkpt><trkpt lat="45.0286567" lon="6.4470667"><ele>1796.0</ele><time>2026-05-01T12:05:46.245Z</time></trkpt><trkpt lat="45.0288" lon="6.4468767"><ele>1796.0</ele><time>2026-05-01T12:05:47.245Z</time></trkpt><trkpt lat="45.0289367" lon="6.446665"><ele>1796.0</ele><time>2026-05-01T12:05:48.245Z</time></trkpt><trkpt lat="45.0290417" lon="6.4464117"><ele>1796.0</ele><time>2026-05-01T12:05:49.245Z</time></trkpt><trkpt lat="45.02914" lon="6.4461383"><ele>1799.0</ele><time>2026-05-01T12:05:50.245Z</time></trkpt><trkpt lat="45.0293767" lon="6.4456133"><ele>1802.0</ele><time>2026-05-01T12:05:52.245Z</time></trkpt><trkpt lat="45.029535" lon="6.4453683"><ele>1802.0</ele><time>2026-05-01T12:05:53.245Z</time></trkpt><trkpt lat="45.0297117" lon="6.4451383"><ele>1802.0</ele><time>2026-05-01T12:05:54.245Z</time></trkpt><trkpt lat="45.0298833" lon="6.4449217"><ele>1806.5</ele><time>2026-05-01T12:05:55.245Z</time></trkpt><trkpt lat="45.03005" lon="6.4446883"><ele>1811.0</ele><time>2026-05-01T12:05:56.245Z</time></trkpt><trkpt lat="45.0302083" lon="6.4444533"><ele>1811.0</ele><time>2026-05-01T12:05:57.244Z</time></trkpt><trkpt lat="45.0303417" lon="6.4441867"><ele>1811.0</ele><time>2026-05-01T12:05:58.245Z</time></trkpt><trkpt lat="45.0304667" lon="6.4439283"><ele>1807.3333333333333</ele><time>2026-05-01T12:05:59.245Z</time></trkpt><trkpt lat="45.0305667" lon="6.4436433"><ele>1803.6666666666665</ele><time>2026-05-01T12:06:00.245Z</time></trkpt><trkpt lat="45.03066" lon="6.443355"><ele>1800.0</ele><time>2026-05-01T12:06:01.244Z</time></trkpt><trkpt lat="45.0307583" lon="6.4430683"><ele>1808.3333333333335</ele><time>2026-05-01T12:06:02.245Z</time></trkpt><trkpt lat="45.0308533" lon="6.4427817"><ele>1816.6666666666667</ele><time>2026-05-01T12:06:03.245Z</time></trkpt><trkpt lat="45.030965" lon="6.4425067"><ele>1825.0</ele><time>2026-05-01T12:06:04.244Z</time></trkpt><trkpt lat="45.0310833" lon="6.442235"><ele>1822.5</ele><time>2026-05-01T12:06:05.245Z</time></trkpt><trkpt lat="45.031215" lon="6.4419767"><ele>1820.0</ele><time>2026-05-01T12:06:06.245Z</time></trkpt><trkpt lat="45.0313633" lon="6.44172"><ele>1820.0</ele><time>2026-05-01T12:06:07.245Z</time></trkpt><trkpt lat="45.0315183" lon="6.4414833"><ele>1820.0</ele><time>2026-05-01T12:06:08.244Z</time></trkpt><trkpt lat="45.031675" lon="6.4412583"><ele>1826.5</ele><time>2026-05-01T12:06:09.245Z</time></trkpt><trkpt lat="45.031835" lon="6.4410317"><ele>1833.0</ele><time>2026-05-01T12:06:10.245Z</time></trkpt><trkpt lat="45.03201" lon="6.4408083"><ele>1813.0</ele><time>2026-05-01T12:06:11.245Z</time></trkpt><trkpt lat="45.03237" lon="6.4403483"><ele>1825.0</ele><time>2026-05-01T12:06:13.245Z</time></trkpt><trkpt lat="45.0325767" lon="6.440115"><ele>1837.0</ele><time>2026-05-01T12:06:14.245Z</time></trkpt><trkpt lat="45.03277" lon="6.43989"><ele>1837.0</ele><time>2026-05-01T12:06:15.244Z</time></trkpt><trkpt lat="45.03296" lon="6.43968"><ele>1837.0</ele><time>2026-05-01T12:06:16.245Z</time></trkpt><trkpt lat="45.033135" lon="6.4394983"><ele>1839.6666666666667</ele><time>2026-05-01T12:06:17.244Z</time></trkpt><trkpt lat="45.0333017" lon="6.4393217"><ele>1842.3333333333335</ele><time>2026-05-01T12:06:18.245Z</time></trkpt><trkpt lat="45.033465" lon="6.43914"><ele>1845.0</ele><time>2026-05-01T12:06:19.244Z</time></trkpt><trkpt lat="45.0336333" lon="6.4389633"><ele>1847.3333333333335</ele><time>2026-05-01T12:06:20.244Z</time></trkpt><trkpt lat="45.0338067" lon="6.4387833"><ele>1849.6666666666667</ele><time>2026-05-01T12:06:21.244Z</time></trkpt><trkpt lat="45.0339817" lon="6.4386117"><ele>1852.0</ele><time>2026-05-01T12:06:22.244Z</time></trkpt><trkpt lat="45.0341467" lon="6.4384417"><ele>1852.0</ele><time>2026-05-01T12:06:23.245Z</time></trkpt><trkpt lat="45.0343317" lon="6.4382633"><ele>1852.0</ele><time>2026-05-01T12:06:24.245Z</time></trkpt><trkpt lat="45.0345317" lon="6.4380817"><ele>1837.0</ele><time>2026-05-01T12:06:25.244Z</time></trkpt><trkpt lat="45.0347267" lon="6.4379"><ele>1822.0</ele><time>2026-05-01T12:06:26.245Z</time></trkpt><trkpt lat="45.03493" lon="6.4377133"><ele>1839.0</ele><time>2026-05-01T12:06:27.245Z</time></trkpt><trkpt lat="45.0351367" lon="6.43753"><ele>1856.0</ele><time>2026-05-01T12:06:28.244Z</time></trkpt><trkpt lat="45.0353267" lon="6.43736"><ele>1856.0</ele><time>2026-05-01T12:06:29.244Z</time></trkpt><trkpt lat="45.0355183" lon="6.4371783"><ele>1856.0</ele><time>2026-05-01T12:06:30.244Z</time></trkpt><trkpt lat="45.0356933" lon="6.4369917"><ele>1860.0</ele><time>2026-05-01T12:06:31.244Z</time></trkpt><trkpt lat="45.0358617" lon="6.4367817"><ele>1864.0</ele><time>2026-05-01T12:06:32.245Z</time></trkpt><trkpt lat="45.0361533" lon="6.436275"><ele>1856.0</ele><time>2026-05-01T12:06:34.245Z</time></trkpt><trkpt lat="45.0362767" lon="6.4359967"><ele>1848.0</ele><time>2026-05-01T12:06:35.245Z</time></trkpt><trkpt lat="45.036425" lon="6.435715"><ele>1844.0</ele><time>2026-05-01T12:06:36.244Z</time></trkpt><trkpt lat="45.0365733" lon="6.4354533"><ele>1840.0</ele><time>2026-05-01T12:06:37.245Z</time></trkpt><trkpt lat="45.036745" lon="6.4351917"><ele>1853.0</ele><time>2026-05-01T12:06:38.245Z</time></trkpt><trkpt lat="45.0369233" lon="6.4349333"><ele>1866.0</ele><time>2026-05-01T12:06:39.244Z</time></trkpt><trkpt lat="45.0371" lon="6.4346917"><ele>1858.5</ele><time>2026-05-01T12:06:40.244Z</time></trkpt><trkpt lat="45.0372833" lon="6.434475"><ele>1851.0</ele><time>2026-05-01T12:06:41.245Z</time></trkpt><trkpt lat="45.037465" lon="6.434275"><ele>1862.5</ele><time>2026-05-01T12:06:42.245Z</time></trkpt><trkpt lat="45.0376517" lon="6.434085"><ele>1874.0</ele><time>2026-05-01T12:06:43.245Z</time></trkpt><trkpt lat="45.0378283" lon="6.4338917"><ele>1870.3333333333333</ele><time>2026-05-01T12:06:44.245Z</time></trkpt><trkpt lat="45.0379917" lon="6.4336933"><ele>1866.6666666666665</ele><time>2026-05-01T12:06:45.245Z</time></trkpt><trkpt lat="45.038155" lon="6.4334983"><ele>1863.0</ele><time>2026-05-01T12:06:46.245Z</time></trkpt><trkpt lat="45.0383217" lon="6.4333117"><ele>1869.0</ele><time>2026-05-01T12:06:47.244Z</time></trkpt><trkpt lat="45.03849" lon="6.43313"><ele>1875.0</ele><time>2026-05-01T12:06:48.245Z</time></trkpt><trkpt lat="45.038645" lon="6.43295"><ele>1881.0</ele><time>2026-05-01T12:06:49.245Z</time></trkpt><trkpt lat="45.0388117" lon="6.4327767"><ele>1881.0</ele><time>2026-05-01T12:06:50.245Z</time></trkpt><trkpt lat="45.0389767" lon="6.4325933"><ele>1881.0</ele><time>2026-05-01T12:06:51.245Z</time></trkpt><trkpt lat="45.0391283" lon="6.4324117"><ele>1881.0</ele><time>2026-05-01T12:06:52.245Z</time></trkpt><trkpt lat="45.0392717" lon="6.4322333"><ele>1885.5</ele><time>2026-05-01T12:06:53.245Z</time></trkpt><trkpt lat="45.0395233" lon="6.43181"><ele>1890.0</ele><time>2026-05-01T12:06:55.245Z</time></trkpt><trkpt lat="45.0396267" lon="6.4315633"><ele>1886.3333333333335</ele><time>2026-05-01T12:06:56.245Z</time></trkpt><trkpt lat="45.0397067" lon="6.4312833"><ele>1882.6666666666667</ele><time>2026-05-01T12:06:57.245Z</time></trkpt><trkpt lat="45.039785" lon="6.43099"><ele>1879.0</ele><time>2026-05-01T12:06:58.245Z</time></trkpt><trkpt lat="45.03984" lon="6.4306883"><ele>1875.5</ele><time>2026-05-01T12:06:59.244Z</time></trkpt><trkpt lat="45.03988" lon="6.4303617"><ele>1872.0</ele><time>2026-05-01T12:07:00.244Z</time></trkpt><trkpt lat="45.0399233" lon="6.4300267"><ele>1886.0</ele><time>2026-05-01T12:07:01.245Z</time></trkpt><trkpt lat="45.039975" lon="6.4296933"><ele>1900.0</ele><time>2026-05-01T12:07:02.244Z</time></trkpt><trkpt lat="45.04006" lon="6.4293883"><ele>1900.0</ele><time>2026-05-01T12:07:03.245Z</time></trkpt><trkpt lat="45.0401483" lon="6.42908"><ele>1900.0</ele><time>2026-05-01T12:07:04.245Z</time></trkpt><trkpt lat="45.04028" lon="6.4287617"><ele>1894.0</ele><time>2026-05-01T12:07:05.245Z</time></trkpt><trkpt lat="45.0404283" lon="6.4284683"><ele>1888.0</ele><time>2026-05-01T12:07:06.244Z</time></trkpt><trkpt lat="45.0405567" lon="6.4281917"><ele>1883.6666666666667</ele><time>2026-05-01T12:07:07.244Z</time></trkpt><trkpt lat="45.040695" lon="6.4279433"><ele>1879.3333333333335</ele><time>2026-05-01T12:07:08.245Z</time></trkpt><trkpt lat="45.0408367" lon="6.427725"><ele>1875.0</ele><time>2026-05-01T12:07:09.245Z</time></trkpt><trkpt lat="45.041" lon="6.427535"><ele>1884.3333333333335</ele><time>2026-05-01T12:07:10.245Z</time></trkpt><trkpt lat="45.0411767" lon="6.427385"><ele>1893.6666666666667</ele><time>2026-05-01T12:07:11.244Z</time></trkpt><trkpt lat="45.0413583" lon="6.427265"><ele>1903.0</ele><time>2026-05-01T12:07:12.244Z</time></trkpt><trkpt lat="45.0415367" lon="6.4271717"><ele>1905.0</ele><time>2026-05-01T12:07:13.245Z</time></trkpt><trkpt lat="45.0416633" lon="6.4270283"><ele>1907.0</ele><time>2026-05-01T12:07:14.244Z</time></trkpt><trkpt lat="45.0419817" lon="6.4268117"><ele>1907.0</ele><time>2026-05-01T12:07:16.244Z</time></trkpt><trkpt lat="45.0421533" lon="6.426705"><ele>1907.0</ele><time>2026-05-01T12:07:17.245Z</time></trkpt><trkpt lat="45.0423117" lon="6.426575"><ele>1907.0</ele><time>2026-05-01T12:07:18.245Z</time></trkpt><trkpt lat="45.0424617" lon="6.4264583"><ele>1911.6666666666665</ele><time>2026-05-01T12:07:19.245Z</time></trkpt><trkpt lat="45.042595" lon="6.42629"><ele>1916.3333333333335</ele><time>2026-05-01T12:07:20.245Z</time></trkpt><trkpt lat="45.0427" lon="6.42607"><ele>1921.0</ele><time>2026-05-01T12:07:21.245Z</time></trkpt><trkpt lat="45.0427483" lon="6.4258667"><ele>1921.0</ele><time>2026-05-01T12:07:22.245Z</time></trkpt><trkpt lat="45.0428183" lon="6.42564"><ele>1921.0</ele><time>2026-05-01T12:07:23.245Z</time></trkpt><trkpt lat="45.0428417" lon="6.4253617"><ele>1921.0</ele><time>2026-05-01T12:07:24.244Z</time></trkpt><trkpt lat="45.0429083" lon="6.42509"><ele>1919.0</ele><time>2026-05-01T12:07:25.244Z</time></trkpt><trkpt lat="45.042955" lon="6.4247817"><ele>1917.0</ele><time>2026-05-01T12:07:26.245Z</time></trkpt><trkpt lat="45.0430017" lon="6.42448"><ele>1915.0</ele><time>2026-05-01T12:07:27.244Z</time></trkpt><trkpt lat="45.043065" lon="6.4242017"><ele>1914.3333333333335</ele><time>2026-05-01T12:07:28.245Z</time></trkpt><trkpt lat="45.043115" lon="6.4239383"><ele>1913.6666666666665</ele><time>2026-05-01T12:07:29.244Z</time></trkpt><trkpt lat="45.0431033" lon="6.42366"><ele>1913.0</ele><time>2026-05-01T12:07:30.245Z</time></trkpt><trkpt lat="45.043115" lon="6.42338"><ele>1915.3333333333333</ele><time>2026-05-01T12:07:31.245Z</time></trkpt><trkpt lat="45.0431167" lon="6.423095"><ele>1917.6666666666665</ele><time>2026-05-01T12:07:32.245Z</time></trkpt><trkpt lat="45.0431033" lon="6.4228233"><ele>1920.0</ele><time>2026-05-01T12:07:33.244Z</time></trkpt><trkpt lat="45.0431" lon="6.4225667"><ele>1926.5</ele><time>2026-05-01T12:07:34.244Z</time></trkpt><trkpt lat="45.0430917" lon="6.4223233"><ele>1933.0</ele><time>2026-05-01T12:07:35.244Z</time></trkpt><trkpt lat="45.0430783" lon="6.4219283"><ele>1936.8000000000002</ele><time>2026-05-01T12:07:37.244Z</time></trkpt><trkpt lat="45.0430533" lon="6.421755"><ele>1940.6000000000001</ele><time>2026-05-01T12:07:38.245Z</time></trkpt><trkpt lat="45.0430067" lon="6.421625"><ele>1944.3999999999999</ele><time>2026-05-01T12:07:39.245Z</time></trkpt><trkpt lat="45.0429617" lon="6.4215"><ele>1948.1999999999998</ele><time>2026-05-01T12:07:40.245Z</time></trkpt><trkpt lat="45.0428867" lon="6.4214083"><ele>1952.0</ele><time>2026-05-01T12:07:41.245Z</time></trkpt><trkpt lat="45.0427667" lon="6.4213683"><ele>1952.0</ele><time>2026-05-01T12:07:42.244Z</time></trkpt><trkpt lat="45.0426283" lon="6.42139"><ele>1952.0</ele><time>2026-05-01T12:07:43.245Z</time></trkpt><trkpt lat="45.04247" lon="6.4214867"><ele>1952.0</ele><time>2026-05-01T12:07:44.244Z</time></trkpt><trkpt lat="45.0423167" lon="6.4216233"><ele>1951.0</ele><time>2026-05-01T12:07:45.244Z</time></trkpt><trkpt lat="45.042165" lon="6.4217633"><ele>1950.0</ele><time>2026-05-01T12:07:46.244Z</time></trkpt><trkpt lat="45.0420383" lon="6.42185"><ele>1949.0</ele><time>2026-05-01T12:07:47.245Z</time></trkpt><trkpt lat="45.0419083" lon="6.421905"><ele>1949.0</ele><time>2026-05-01T12:07:48.244Z</time></trkpt><trkpt lat="45.0417917" lon="6.421915"><ele>1949.0</ele><time>2026-05-01T12:07:49.245Z</time></trkpt><trkpt lat="45.0416867" lon="6.4218967"><ele>1949.0</ele><time>2026-05-01T12:07:50.244Z</time></trkpt><trkpt lat="45.0415967" lon="6.4216867"><ele>1949.0</ele><time>2026-05-01T12:07:51.245Z</time></trkpt><trkpt lat="45.041505" lon="6.4215233"><ele>1945.3333333333333</ele><time>2026-05-01T12:07:52.245Z</time></trkpt><trkpt lat="45.0414417" lon="6.42131"><ele>1941.6666666666665</ele><time>2026-05-01T12:07:53.245Z</time></trkpt><trkpt lat="45.0414133" lon="6.421035"><ele>1938.0</ele><time>2026-05-01T12:07:54.245Z</time></trkpt><trkpt lat="45.0413933" lon="6.4207583"><ele>1942.5</ele><time>2026-05-01T12:07:55.244Z</time></trkpt><trkpt lat="45.041395" lon="6.420475"><ele>1947.0</ele><time>2026-05-01T12:07:56.245Z</time></trkpt><trkpt lat="45.0414633" lon="6.4199133"><ele>1947.0</ele><time>2026-05-01T12:07:58.244Z</time></trkpt><trkpt lat="45.0414817" lon="6.4196533"><ele>1947.0</ele><time>2026-05-01T12:07:59.245Z</time></trkpt><trkpt lat="45.041495" lon="6.4193883"><ele>1947.0</ele><time>2026-05-01T12:08:00.244Z</time></trkpt><trkpt lat="45.0415183" lon="6.419135"><ele>1947.3333333333335</ele><time>2026-05-01T12:08:01.244Z</time></trkpt><trkpt lat="45.0416267" lon="6.418915"><ele>1947.6666666666667</ele><time>2026-05-01T12:08:02.245Z</time></trkpt><trkpt lat="45.0416967" lon="6.418675"><ele>1948.0</ele><time>2026-05-01T12:08:03.244Z</time></trkpt><trkpt lat="45.0417917" lon="6.4184483"><ele>1949.3333333333335</ele><time>2026-05-01T12:08:04.244Z</time></trkpt><trkpt lat="45.0418833" lon="6.418225"><ele>1950.6666666666665</ele><time>2026-05-01T12:08:05.245Z</time></trkpt><trkpt lat="45.0419967" lon="6.4180333"><ele>1952.0</ele><time>2026-05-01T12:08:06.245Z</time></trkpt><trkpt lat="45.04212" lon="6.4178833"><ele>1952.0</ele><time>2026-05-01T12:08:07.245Z</time></trkpt><trkpt lat="45.042255" lon="6.4177467"><ele>1952.0</ele><time>2026-05-01T12:08:08.245Z</time></trkpt><trkpt lat="45.042395" lon="6.4176233"><ele>1952.0</ele><time>2026-05-01T12:08:09.245Z</time></trkpt><trkpt lat="45.0425283" lon="6.4174933"><ele>1955.75</ele><time>2026-05-01T12:08:10.245Z</time></trkpt><trkpt lat="45.04264" lon="6.4173633"><ele>1959.5</ele><time>2026-05-01T12:08:11.244Z</time></trkpt><trkpt lat="45.0427383" lon="6.41723"><ele>1963.25</ele><time>2026-05-01T12:08:12.245Z</time></trkpt><trkpt lat="45.0428183" lon="6.41708"><ele>1967.0</ele><time>2026-05-01T12:08:13.244Z</time></trkpt><trkpt lat="45.0428617" lon="6.41693"><ele>1967.0</ele><time>2026-05-01T12:08:14.245Z</time></trkpt><trkpt lat="45.04287" lon="6.4167683"><ele>1967.0</ele><time>2026-05-01T12:08:15.244Z</time></trkpt><trkpt lat="45.042845" lon="6.4165733"><ele>1967.0</ele><time>2026-05-01T12:08:16.245Z</time></trkpt><trkpt lat="45.0427933" lon="6.41636"><ele>1967.0</ele><time>2026-05-01T12:08:17.244Z</time></trkpt><trkpt lat="45.0426533" lon="6.4159417"><ele>1968.0</ele><time>2026-05-01T12:08:19.245Z</time></trkpt><trkpt lat="45.04256" lon="6.4157517"><ele>1969.0</ele><time>2026-05-01T12:08:20.245Z</time></trkpt><trkpt lat="45.042465" lon="6.41557"><ele>1970.0</ele><time>2026-05-01T12:08:21.245Z</time></trkpt><trkpt lat="45.042375" lon="6.4153967"><ele>1971.75</ele><time>2026-05-01T12:08:22.245Z</time></trkpt><trkpt lat="45.0422633" lon="6.4152367"><ele>1973.5</ele><time>2026-05-01T12:08:23.245Z</time></trkpt><trkpt lat="45.042165" lon="6.4150917"><ele>1975.25</ele><time>2026-05-01T12:08:24.245Z</time></trkpt><trkpt lat="45.0420833" lon="6.4149667"><ele>1977.0</ele><time>2026-05-01T12:08:25.245Z</time></trkpt><trkpt lat="45.0420017" lon="6.414855"><ele>1977.0</ele><time>2026-05-01T12:08:26.245Z</time></trkpt><trkpt lat="45.0419017" lon="6.41475"><ele>1977.0</ele><time>2026-05-01T12:08:27.245Z</time></trkpt><trkpt lat="45.0417867" lon="6.4146467"><ele>1977.0</ele><time>2026-05-01T12:08:28.245Z</time></trkpt><trkpt lat="45.041665" lon="6.41454"><ele>1977.0</ele><time>2026-05-01T12:08:29.245Z</time></trkpt><trkpt lat="45.0415567" lon="6.4144283"><ele>1979.0</ele><time>2026-05-01T12:08:30.245Z</time></trkpt><trkpt lat="45.0414567" lon="6.4143133"><ele>1981.0</ele><time>2026-05-01T12:08:31.244Z</time></trkpt><trkpt lat="45.0413483" lon="6.4141983"><ele>1983.0</ele><time>2026-05-01T12:08:32.245Z</time></trkpt><trkpt lat="45.0387967" lon="6.4095"><ele>1993.0</ele><time>2026-05-01T12:08:59.257Z</time></trkpt><trkpt lat="45.038785" lon="6.4090967"><ele>2003.0</ele><time>2026-05-01T12:09:01.258Z</time></trkpt><trkpt lat="45.0388133" lon="6.4088983"><ele>2013.0</ele><time>2026-05-01T12:09:02.258Z</time></trkpt><trkpt lat="45.03884" lon="6.4086967"><ele>2014.0</ele><time>2026-05-01T12:09:03.258Z</time></trkpt><trkpt lat="45.0388783" lon="6.4084883"><ele>2015.0</ele><time>2026-05-01T12:09:04.258Z</time></trkpt><trkpt lat="45.0389433" lon="6.4082683"><ele>2016.0</ele><time>2026-05-01T12:09:05.258Z</time></trkpt><trkpt lat="45.03902" lon="6.4080417"><ele>2016.0</ele><time>2026-05-01T12:09:06.258Z</time></trkpt><trkpt lat="45.0391217" lon="6.407825"><ele>2016.0</ele><time>2026-05-01T12:09:07.258Z</time></trkpt><trkpt lat="45.03921" lon="6.40762"><ele>2016.0</ele><time>2026-05-01T12:09:08.257Z</time></trkpt><trkpt lat="45.0392967" lon="6.4074083"><ele>2017.0</ele><time>2026-05-01T12:09:09.257Z</time></trkpt><trkpt lat="45.0393783" lon="6.4072"><ele>2018.0</ele><time>2026-05-01T12:09:10.257Z</time></trkpt><trkpt lat="45.0394633" lon="6.4069933"><ele>2019.0</ele><time>2026-05-01T12:09:11.257Z</time></trkpt><trkpt lat="45.0395383" lon="6.4067817"><ele>2019.3333333333335</ele><time>2026-05-01T12:09:12.258Z</time></trkpt><trkpt lat="45.03961" lon="6.4065733"><ele>2019.6666666666667</ele><time>2026-05-01T12:09:13.257Z</time></trkpt><trkpt lat="45.0396683" lon="6.4063583"><ele>2020.0</ele><time>2026-05-01T12:09:14.258Z</time></trkpt><trkpt lat="45.0396667" lon="6.4061367"><ele>2020.6666666666667</ele><time>2026-05-01T12:09:15.258Z</time></trkpt><trkpt lat="45.039655" lon="6.4059283"><ele>2021.3333333333335</ele><time>2026-05-01T12:09:16.258Z</time></trkpt><trkpt lat="45.0396233" lon="6.405685"><ele>2022.0</ele><time>2026-05-01T12:09:17.258Z</time></trkpt><trkpt lat="45.03956" lon="6.405445"><ele>2024.3333333333335</ele><time>2026-05-01T12:09:18.257Z</time></trkpt><trkpt lat="45.0394733" lon="6.4052433"><ele>2026.6666666666667</ele><time>2026-05-01T12:09:19.258Z</time></trkpt><trkpt lat="45.0393683" lon="6.4050567"><ele>2029.0</ele><time>2026-05-01T12:09:20.258Z</time></trkpt><trkpt lat="45.039035" lon="6.40475"><ele>2032.6666666666667</ele><time>2026-05-01T12:09:22.258Z</time></trkpt><trkpt lat="45.0388517" lon="6.4046017"><ele>2036.3333333333335</ele><time>2026-05-01T12:09:23.258Z</time></trkpt><trkpt lat="45.03867" lon="6.404465"><ele>2040.0</ele><time>2026-05-01T12:09:24.258Z</time></trkpt><trkpt lat="45.0385" lon="6.4043517"><ele>2040.0</ele><time>2026-05-01T12:09:25.257Z</time></trkpt><trkpt lat="45.03834" lon="6.404265"><ele>2040.0</ele><time>2026-05-01T12:09:26.257Z</time></trkpt><trkpt lat="45.038175" lon="6.404225"><ele>2040.0</ele><time>2026-05-01T12:09:27.258Z</time></trkpt><trkpt lat="45.038" lon="6.4042217"><ele>2042.0</ele><time>2026-05-01T12:09:28.257Z</time></trkpt><trkpt lat="45.0378283" lon="6.40426"><ele>2044.0</ele><time>2026-05-01T12:09:29.258Z</time></trkpt><trkpt lat="45.0376667" lon="6.4043267"><ele>2046.0</ele><time>2026-05-01T12:09:30.258Z</time></trkpt><trkpt lat="45.0375117" lon="6.4044467"><ele>2047.0</ele><time>2026-05-01T12:09:31.258Z</time></trkpt><trkpt lat="45.03737" lon="6.404625"><ele>2048.0</ele><time>2026-05-01T12:09:32.258Z</time></trkpt><trkpt lat="45.037235" lon="6.4048483"><ele>2049.0</ele><time>2026-05-01T12:09:33.258Z</time></trkpt><trkpt lat="45.037145" lon="6.405075"><ele>2049.0</ele><time>2026-05-01T12:09:34.258Z</time></trkpt><trkpt lat="45.0371" lon="6.4053133"><ele>2049.0</ele><time>2026-05-01T12:09:35.258Z</time></trkpt><trkpt lat="45.0370467" lon="6.4055233"><ele>2049.0</ele><time>2026-05-01T12:09:36.258Z</time></trkpt><trkpt lat="45.03697" lon="6.405705"><ele>2048.25</ele><time>2026-05-01T12:09:37.258Z</time></trkpt><trkpt lat="45.0368833" lon="6.4058733"><ele>2047.5</ele><time>2026-05-01T12:09:38.257Z</time></trkpt><trkpt lat="45.036765" lon="6.4060117"><ele>2046.75</ele><time>2026-05-01T12:09:39.258Z</time></trkpt><trkpt lat="45.036645" lon="6.40612"><ele>2046.0</ele><time>2026-05-01T12:09:40.257Z</time></trkpt><trkpt lat="45.03652" lon="6.4061883"><ele>2052.0</ele><time>2026-05-01T12:09:41.258Z</time></trkpt><trkpt lat="45.03623" lon="6.4062683"><ele>2058.0</ele><time>2026-05-01T12:09:43.258Z</time></trkpt><trkpt lat="45.0360867" lon="6.406095"><ele>2058.0</ele><time>2026-05-01T12:09:44.258Z</time></trkpt><trkpt lat="45.0359633" lon="6.4059217"><ele>2058.0</ele><time>2026-05-01T12:09:45.257Z</time></trkpt><trkpt lat="45.0358817" lon="6.4058133"><ele>2058.0</ele><time>2026-05-01T12:09:46.258Z</time></trkpt><trkpt lat="45.0358283" lon="6.405715"><ele>2058.0</ele><time>2026-05-01T12:09:47.258Z</time></trkpt><trkpt lat="45.03578" lon="6.405625"><ele>2058.5</ele><time>2026-05-01T12:09:48.258Z</time></trkpt><trkpt lat="45.0357267" lon="6.405545"><ele>2059.0</ele><time>2026-05-01T12:09:49.258Z</time></trkpt><trkpt lat="45.035675" lon="6.4054783"><ele>2059.5</ele><time>2026-05-01T12:09:50.258Z</time></trkpt><trkpt lat="45.0356283" lon="6.4054167"><ele>2060.0</ele><time>2026-05-01T12:09:51.258Z</time></trkpt><trkpt lat="45.0355467" lon="6.4053317"><ele>2060.5</ele><time>2026-05-01T12:09:53.258Z</time></trkpt><trkpt lat="45.035485" lon="6.40527"><ele>2061.0</ele><time>2026-05-01T12:09:55.258Z</time></trkpt><trkpt lat="45.0354383" lon="6.40521"><ele>2061.0</ele><time>2026-05-01T12:09:59.257Z</time></trkpt><trkpt lat="45.0354033" lon="6.4051267"><ele>2061.0</ele><time>2026-05-01T12:14:55.257Z</time></trkpt><trkpt lat="45.035155" lon="6.40505"><ele>2061.0</ele><time>2026-05-01T12:15:25.257Z</time></trkpt><trkpt lat="45.0350767" lon="6.405035"><ele>2061.0</ele><time>2026-05-01T12:15:26.257Z</time></trkpt><trkpt lat="45.0350033" lon="6.4050233"><ele>2059.3333333333335</ele><time>2026-05-01T12:15:27.256Z</time></trkpt><trkpt lat="45.03493" lon="6.40501"><ele>2057.6666666666665</ele><time>2026-05-01T12:15:28.257Z</time></trkpt><trkpt lat="45.034855" lon="6.4050033"><ele>2056.0</ele><time>2026-05-01T12:15:29.257Z</time></trkpt><trkpt lat="45.0347817" lon="6.4049983"><ele>2054.333333333333</ele><time>2026-05-01T12:15:30.256Z</time></trkpt><trkpt lat="45.0347167" lon="6.4050033"><ele>2052.6666666666665</ele><time>2026-05-01T12:15:31.257Z</time></trkpt><trkpt lat="45.034595" lon="6.4050333"><ele>2051.0</ele><time>2026-05-01T12:15:33.257Z</time></trkpt><trkpt lat="45.0345283" lon="6.4050667"><ele>2051.0</ele><time>2026-05-01T12:15:34.256Z</time></trkpt><trkpt lat="45.0344517" lon="6.4051067"><ele>2051.0</ele><time>2026-05-01T12:15:35.257Z</time></trkpt><trkpt lat="45.03438" lon="6.405155"><ele>2051.0</ele><time>2026-05-01T12:15:36.256Z</time></trkpt><trkpt lat="45.0342983" lon="6.4052083"><ele>2051.0</ele><time>2026-05-01T12:15:37.257Z</time></trkpt><trkpt lat="45.0342167" lon="6.4052633"><ele>2051.0</ele><time>2026-05-01T12:15:38.257Z</time></trkpt><trkpt lat="45.03412" lon="6.4052933"><ele>2051.0</ele><time>2026-05-01T12:15:39.257Z</time></trkpt><trkpt lat="45.0340117" lon="6.405295"><ele>2049.75</ele><time>2026-05-01T12:15:40.256Z</time></trkpt><trkpt lat="45.033905" lon="6.4052833"><ele>2048.5</ele><time>2026-05-01T12:15:41.256Z</time></trkpt><trkpt lat="45.0337967" lon="6.4052417"><ele>2047.25</ele><time>2026-05-01T12:15:42.256Z</time></trkpt><trkpt lat="45.0336917" lon="6.4051533"><ele>2046.0</ele><time>2026-05-01T12:15:43.256Z</time></trkpt><trkpt lat="45.0335933" lon="6.40504"><ele>2046.0</ele><time>2026-05-01T12:15:44.256Z</time></trkpt><trkpt lat="45.0334267" lon="6.4047467"><ele>2046.0</ele><time>2026-05-01T12:15:46.257Z</time></trkpt><trkpt lat="45.0333683" lon="6.4045583"><ele>2046.0</ele><time>2026-05-01T12:15:47.257Z</time></trkpt><trkpt lat="45.0333433" lon="6.4043533"><ele>2044.3333333333335</ele><time>2026-05-01T12:15:48.256Z</time></trkpt><trkpt lat="45.03335" lon="6.4041317"><ele>2042.6666666666667</ele><time>2026-05-01T12:15:49.257Z</time></trkpt><trkpt lat="45.0333783" lon="6.4038883"><ele>2041.0</ele><time>2026-05-01T12:15:50.257Z</time></trkpt><trkpt lat="45.0334217" lon="6.4036517"><ele>2039.3333333333335</ele><time>2026-05-01T12:15:51.256Z</time></trkpt><trkpt lat="45.03349" lon="6.4034183"><ele>2037.6666666666665</ele><time>2026-05-01T12:15:52.257Z</time></trkpt><trkpt lat="45.0335483" lon="6.40319"><ele>2036.0</ele><time>2026-05-01T12:15:53.257Z</time></trkpt><trkpt lat="45.03361" lon="6.402965"><ele>2033.6666666666665</ele><time>2026-05-01T12:15:54.257Z</time></trkpt><trkpt lat="45.0336617" lon="6.40274"><ele>2031.3333333333335</ele><time>2026-05-01T12:15:55.257Z</time></trkpt><trkpt lat="45.0337117" lon="6.4025133"><ele>2029.0</ele><time>2026-05-01T12:15:56.257Z</time></trkpt><trkpt lat="45.0337633" lon="6.4022683"><ele>2026.0</ele><time>2026-05-01T12:15:57.256Z</time></trkpt><trkpt lat="45.0338017" lon="6.40201"><ele>2023.0</ele><time>2026-05-01T12:15:58.257Z</time></trkpt><trkpt lat="45.033845" lon="6.401745"><ele>2020.0</ele><time>2026-05-01T12:15:59.257Z</time></trkpt><trkpt lat="45.0338633" lon="6.4014567"><ele>2019.0</ele><time>2026-05-01T12:16:00.256Z</time></trkpt><trkpt lat="45.03388" lon="6.401165"><ele>2018.0</ele><time>2026-05-01T12:16:01.257Z</time></trkpt><trkpt lat="45.0338783" lon="6.4008683"><ele>2017.0</ele><time>2026-05-01T12:16:02.256Z</time></trkpt><trkpt lat="45.0338617" lon="6.4005733"><ele>2016.3333333333335</ele><time>2026-05-01T12:16:03.257Z</time></trkpt><trkpt lat="45.0338417" lon="6.4002783"><ele>2015.6666666666665</ele><time>2026-05-01T12:16:04.256Z</time></trkpt><trkpt lat="45.0337733" lon="6.39997"><ele>2015.0</ele><time>2026-05-01T12:16:05.257Z</time></trkpt><trkpt lat="45.0336683" lon="6.3993883"><ele>2015.0</ele><time>2026-05-01T12:16:07.257Z</time></trkpt><trkpt lat="45.0336067" lon="6.399095"><ele>2015.0</ele><time>2026-05-01T12:16:08.256Z</time></trkpt><trkpt lat="45.033535" lon="6.3988083"><ele>2015.0</ele><time>2026-05-01T12:16:09.256Z</time></trkpt><trkpt lat="45.03346" lon="6.39853"><ele>2015.3333333333333</ele><time>2026-05-01T12:16:10.257Z</time></trkpt><trkpt lat="45.0333867" lon="6.3982567"><ele>2015.6666666666665</ele><time>2026-05-01T12:16:11.256Z</time></trkpt><trkpt lat="45.0333033" lon="6.3979933"><ele>2016.0</ele><time>2026-05-01T12:16:12.257Z</time></trkpt><trkpt lat="45.0332367" lon="6.397745"><ele>2013.3333333333335</ele><time>2026-05-01T12:16:13.257Z</time></trkpt><trkpt lat="45.033185" lon="6.3974933"><ele>2010.6666666666667</ele><time>2026-05-01T12:16:14.256Z</time></trkpt><trkpt lat="45.0331383" lon="6.3972433"><ele>2008.0</ele><time>2026-05-01T12:16:15.256Z</time></trkpt><trkpt lat="45.0330883" lon="6.3969733"><ele>2007.6666666666667</ele><time>2026-05-01T12:16:16.257Z</time></trkpt><trkpt lat="45.033045" lon="6.3966983"><ele>2007.3333333333335</ele><time>2026-05-01T12:16:17.257Z</time></trkpt><trkpt lat="45.0330033" lon="6.39641"><ele>2007.0</ele><time>2026-05-01T12:16:18.257Z</time></trkpt><trkpt lat="45.0329783" lon="6.39612"><ele>2006.6666666666665</ele><time>2026-05-01T12:16:19.256Z</time></trkpt><trkpt lat="45.032945" lon="6.3958417"><ele>2006.3333333333333</ele><time>2026-05-01T12:16:20.257Z</time></trkpt><trkpt lat="45.0329117" lon="6.3955633"><ele>2006.0</ele><time>2026-05-01T12:16:21.257Z</time></trkpt><trkpt lat="45.03288" lon="6.3952867"><ele>2006.0</ele><time>2026-05-01T12:16:22.257Z</time></trkpt><trkpt lat="45.0328667" lon="6.39501"><ele>2006.0</ele><time>2026-05-01T12:16:23.257Z</time></trkpt><trkpt lat="45.0328767" lon="6.394725"><ele>2006.0</ele><time>2026-05-01T12:16:24.256Z</time></trkpt><trkpt lat="45.0329083" lon="6.3944533"><ele>2005.5</ele><time>2026-05-01T12:16:25.257Z</time></trkpt><trkpt lat="45.03293" lon="6.3941667"><ele>2005.0</ele><time>2026-05-01T12:16:26.257Z</time></trkpt><trkpt lat="45.03298" lon="6.3936033"><ele>2005.0</ele><time>2026-05-01T12:16:28.257Z</time></trkpt><trkpt lat="45.0329967" lon="6.3933317"><ele>2005.0</ele><time>2026-05-01T12:16:29.257Z</time></trkpt><trkpt lat="45.0330033" lon="6.393045"><ele>2005.0</ele><time>2026-05-01T12:16:30.257Z</time></trkpt><trkpt lat="45.0329683" lon="6.3927567"><ele>2005.6666666666667</ele><time>2026-05-01T12:16:31.257Z</time></trkpt><trkpt lat="45.032915" lon="6.3924517"><ele>2006.3333333333335</ele><time>2026-05-01T12:16:32.257Z</time></trkpt><trkpt lat="45.0328467" lon="6.3921517"><ele>2007.0</ele><time>2026-05-01T12:16:33.257Z</time></trkpt><trkpt lat="45.0327733" lon="6.3918517"><ele>2007.0</ele><time>2026-05-01T12:16:34.256Z</time></trkpt><trkpt lat="45.03271" lon="6.3915633"><ele>2007.0</ele><time>2026-05-01T12:16:35.257Z</time></trkpt><trkpt lat="45.03264" lon="6.3912883"><ele>2007.0</ele><time>2026-05-01T12:16:36.257Z</time></trkpt><trkpt lat="45.03262" lon="6.3910083"><ele>2006.6666666666665</ele><time>2026-05-01T12:16:37.257Z</time></trkpt><trkpt lat="45.0325883" lon="6.3907333"><ele>2006.3333333333333</ele><time>2026-05-01T12:16:38.257Z</time></trkpt><trkpt lat="45.0325683" lon="6.39044"><ele>2006.0</ele><time>2026-05-01T12:16:39.257Z</time></trkpt><trkpt lat="45.0325767" lon="6.390155"><ele>2004.0</ele><time>2026-05-01T12:16:40.256Z</time></trkpt><trkpt lat="45.0326067" lon="6.38987"><ele>2002.0</ele><time>2026-05-01T12:16:41.256Z</time></trkpt><trkpt lat="45.0326333" lon="6.3895717"><ele>2000.0</ele><time>2026-05-01T12:16:42.257Z</time></trkpt><trkpt lat="45.0326767" lon="6.3892617"><ele>1999.0</ele><time>2026-05-01T12:16:43.256Z</time></trkpt><trkpt lat="45.032715" lon="6.388955"><ele>1998.0</ele><time>2026-05-01T12:16:44.257Z</time></trkpt><trkpt lat="45.03277" lon="6.3886533"><ele>1997.0</ele><time>2026-05-01T12:16:45.256Z</time></trkpt><trkpt lat="45.03282" lon="6.3883233"><ele>1989.5</ele><time>2026-05-01T12:16:46.256Z</time></trkpt><trkpt lat="45.0328767" lon="6.388"><ele>1982.0</ele><time>2026-05-01T12:16:47.257Z</time></trkpt><trkpt lat="45.0330067" lon="6.3873983"><ele>1979.3333333333333</ele><time>2026-05-01T12:16:49.257Z</time></trkpt><trkpt lat="45.0330767" lon="6.387115"><ele>1976.6666666666665</ele><time>2026-05-01T12:16:50.257Z</time></trkpt><trkpt lat="45.033155" lon="6.38682"><ele>1974.0</ele><time>2026-05-01T12:16:51.257Z</time></trkpt><trkpt lat="45.0332233" lon="6.386535"><ele>1971.6666666666665</ele><time>2026-05-01T12:16:52.257Z</time></trkpt><trkpt lat="45.0332967" lon="6.3862633"><ele>1969.3333333333333</ele><time>2026-05-01T12:16:53.257Z</time></trkpt><trkpt lat="45.0333667" lon="6.3860117"><ele>1967.0</ele><time>2026-05-01T12:16:54.257Z</time></trkpt><trkpt lat="45.03343" lon="6.3857717"><ele>1972.3333333333333</ele><time>2026-05-01T12:16:55.257Z</time></trkpt><trkpt lat="45.0334683" lon="6.3855267"><ele>1977.6666666666665</ele><time>2026-05-01T12:16:56.257Z</time></trkpt><trkpt lat="45.0335" lon="6.3852983"><ele>1983.0</ele><time>2026-05-01T12:16:57.256Z</time></trkpt><trkpt lat="45.0334983" lon="6.38505"><ele>1983.0</ele><time>2026-05-01T12:16:58.257Z</time></trkpt><trkpt lat="45.0334783" lon="6.3847883"><ele>1983.0</ele><time>2026-05-01T12:16:59.256Z</time></trkpt><trkpt lat="45.03342" lon="6.38453"><ele>1983.0</ele><time>2026-05-01T12:17:00.257Z</time></trkpt><trkpt lat="45.03336" lon="6.3842983"><ele>1979.6666666666665</ele><time>2026-05-01T12:17:01.257Z</time></trkpt><trkpt lat="45.0332883" lon="6.384085"><ele>1976.3333333333333</ele><time>2026-05-01T12:17:02.257Z</time></trkpt><trkpt lat="45.0331933" lon="6.3838883"><ele>1973.0</ele><time>2026-05-01T12:17:03.257Z</time></trkpt><trkpt lat="45.03308" lon="6.3837283"><ele>1973.0</ele><time>2026-05-01T12:17:04.257Z</time></trkpt><trkpt lat="45.0329583" lon="6.3836117"><ele>1973.0</ele><time>2026-05-01T12:17:05.256Z</time></trkpt><trkpt lat="45.032795" lon="6.3835167"><ele>1973.0</ele><time>2026-05-01T12:17:06.257Z</time></trkpt><trkpt lat="45.0326167" lon="6.3834583"><ele>1960.0</ele><time>2026-05-01T12:17:07.257Z</time></trkpt><trkpt lat="45.0324533" lon="6.383395"><ele>1947.0</ele><time>2026-05-01T12:17:08.257Z</time></trkpt><trkpt lat="45.0321833" lon="6.383145"><ele>1947.3333333333335</ele><time>2026-05-01T12:17:10.257Z</time></trkpt><trkpt lat="45.0320883" lon="6.38296"><ele>1947.6666666666667</ele><time>2026-05-01T12:17:11.257Z</time></trkpt><trkpt lat="45.032025" lon="6.3827517"><ele>1948.0</ele><time>2026-05-01T12:17:12.256Z</time></trkpt><trkpt lat="45.0319983" lon="6.382515"><ele>1948.0</ele><time>2026-05-01T12:17:13.257Z</time></trkpt><trkpt lat="45.0319967" lon="6.3822667"><ele>1948.0</ele><time>2026-05-01T12:17:14.257Z</time></trkpt><trkpt lat="45.0320233" lon="6.3820067"><ele>1948.0</ele><time>2026-05-01T12:17:15.256Z</time></trkpt><trkpt lat="45.032105" lon="6.3817333"><ele>1946.0</ele><time>2026-05-01T12:17:16.257Z</time></trkpt><trkpt lat="45.0321617" lon="6.3814517"><ele>1944.0</ele><time>2026-05-01T12:17:17.257Z</time></trkpt><trkpt lat="45.0322317" lon="6.3811617"><ele>1942.0</ele><time>2026-05-01T12:17:18.256Z</time></trkpt><trkpt lat="45.0322583" lon="6.380835"><ele>1933.0</ele><time>2026-05-01T12:17:19.257Z</time></trkpt><trkpt lat="45.0323117" lon="6.3805033"><ele>1924.0</ele><time>2026-05-01T12:17:20.257Z</time></trkpt><trkpt lat="45.0323817" lon="6.3801633"><ele>1936.5</ele><time>2026-05-01T12:17:21.257Z</time></trkpt><trkpt lat="45.0324883" lon="6.379815"><ele>1949.0</ele><time>2026-05-01T12:17:22.257Z</time></trkpt><trkpt lat="45.0325983" lon="6.3794717"><ele>1949.0</ele><time>2026-05-01T12:17:23.257Z</time></trkpt><trkpt lat="45.032705" lon="6.3791283"><ele>1949.0</ele><time>2026-05-01T12:17:24.257Z</time></trkpt><trkpt lat="45.03282" lon="6.37877"><ele>1942.5</ele><time>2026-05-01T12:17:25.256Z</time></trkpt><trkpt lat="45.0329383" lon="6.3784317"><ele>1936.0</ele><time>2026-05-01T12:17:26.257Z</time></trkpt><trkpt lat="45.0330517" lon="6.3780767"><ele>1928.0</ele><time>2026-05-01T12:17:27.257Z</time></trkpt><trkpt lat="45.0331733" lon="6.3777283"><ele>1920.0</ele><time>2026-05-01T12:17:28.257Z</time></trkpt><trkpt lat="45.0333017" lon="6.3773783"><ele>1927.0</ele><time>2026-05-01T12:17:29.256Z</time></trkpt><trkpt lat="45.0335367" lon="6.3766933"><ele>1927.0</ele><time>2026-05-01T12:17:31.257Z</time></trkpt><trkpt lat="45.0336333" lon="6.3763583"><ele>1927.0</ele><time>2026-05-01T12:17:32.257Z</time></trkpt><trkpt lat="45.03373" lon="6.3760233"><ele>1916.5</ele><time>2026-05-01T12:17:33.257Z</time></trkpt><trkpt lat="45.0338467" lon="6.37574"><ele>1906.0</ele><time>2026-05-01T12:17:34.256Z</time></trkpt><trkpt lat="45.0339883" lon="6.3754883"><ele>1909.6666666666667</ele><time>2026-05-01T12:17:35.257Z</time></trkpt><trkpt lat="45.0341317" lon="6.3752583"><ele>1913.3333333333335</ele><time>2026-05-01T12:17:36.257Z</time></trkpt><trkpt lat="45.034265" lon="6.37504"><ele>1917.0</ele><time>2026-05-01T12:17:37.257Z</time></trkpt><trkpt lat="45.034385" lon="6.3748367"><ele>1913.6666666666665</ele><time>2026-05-01T12:17:38.257Z</time></trkpt><trkpt lat="45.0344733" lon="6.3746133"><ele>1910.3333333333333</ele><time>2026-05-01T12:17:39.257Z</time></trkpt><trkpt lat="45.0345433" lon="6.3744"><ele>1907.0</ele><time>2026-05-01T12:17:40.257Z</time></trkpt><trkpt lat="45.0345683" lon="6.3741583"><ele>1907.0</ele><time>2026-05-01T12:17:41.256Z</time></trkpt><trkpt lat="45.0345617" lon="6.3739183"><ele>1907.0</ele><time>2026-05-01T12:17:42.257Z</time></trkpt><trkpt lat="45.0345733" lon="6.3736683"><ele>1907.0</ele><time>2026-05-01T12:17:43.257Z</time></trkpt><trkpt lat="45.034585" lon="6.3734133"><ele>1904.3333333333333</ele><time>2026-05-01T12:17:44.256Z</time></trkpt><trkpt lat="45.03461" lon="6.37316"><ele>1901.6666666666665</ele><time>2026-05-01T12:17:45.257Z</time></trkpt><trkpt lat="45.0346467" lon="6.3728667"><ele>1899.0</ele><time>2026-05-01T12:17:46.257Z</time></trkpt><trkpt lat="45.0347067" lon="6.3725717"><ele>1898.0</ele><time>2026-05-01T12:17:47.257Z</time></trkpt><trkpt lat="45.0347767" lon="6.3722917"><ele>1897.0</ele><time>2026-05-01T12:17:48.256Z</time></trkpt><trkpt lat="45.0348817" lon="6.3720417"><ele>1896.0</ele><time>2026-05-01T12:17:49.257Z</time></trkpt><trkpt lat="45.035025" lon="6.3718167"><ele>1896.0</ele><time>2026-05-01T12:17:50.257Z</time></trkpt><trkpt lat="45.03538" lon="6.3714067"><ele>1884.0</ele><time>2026-05-01T12:17:52.257Z</time></trkpt><trkpt lat="45.0355667" lon="6.3712067"><ele>1872.0</ele><time>2026-05-01T12:17:53.256Z</time></trkpt><trkpt lat="45.0357417" lon="6.37101"><ele>1874.0</ele><time>2026-05-01T12:17:54.257Z</time></trkpt><trkpt lat="45.0359217" lon="6.3708117"><ele>1876.0</ele><time>2026-05-01T12:17:55.256Z</time></trkpt><trkpt lat="45.036075" lon="6.3706133"><ele>1878.0</ele><time>2026-05-01T12:17:56.257Z</time></trkpt><trkpt lat="45.0362167" lon="6.370425"><ele>1878.0</ele><time>2026-05-01T12:17:57.257Z</time></trkpt><trkpt lat="45.0363483" lon="6.3702267"><ele>1878.0</ele><time>2026-05-01T12:17:58.256Z</time></trkpt><trkpt lat="45.0364683" lon="6.3700067"><ele>1878.0</ele><time>2026-05-01T12:17:59.256Z</time></trkpt><trkpt lat="45.03658" lon="6.36977"><ele>1881.3333333333335</ele><time>2026-05-01T12:18:00.257Z</time></trkpt><trkpt lat="45.0366867" lon="6.36952"><ele>1884.6666666666667</ele><time>2026-05-01T12:18:01.256Z</time></trkpt><trkpt lat="45.0367883" lon="6.369285"><ele>1888.0</ele><time>2026-05-01T12:18:02.257Z</time></trkpt><trkpt lat="45.0368867" lon="6.36905"><ele>1881.0</ele><time>2026-05-01T12:18:03.257Z</time></trkpt><trkpt lat="45.0369983" lon="6.3688167"><ele>1874.0</ele><time>2026-05-01T12:18:04.257Z</time></trkpt><trkpt lat="45.037115" lon="6.3686017"><ele>1867.0</ele><time>2026-05-01T12:18:05.257Z</time></trkpt><trkpt lat="45.0372433" lon="6.3684083"><ele>1867.0</ele><time>2026-05-01T12:18:06.257Z</time></trkpt><trkpt lat="45.0373533" lon="6.3681983"><ele>1867.0</ele><time>2026-05-01T12:18:07.257Z</time></trkpt><trkpt lat="45.0374183" lon="6.367945"><ele>1867.0</ele><time>2026-05-01T12:18:08.257Z</time></trkpt><trkpt lat="45.0374883" lon="6.3677033"><ele>1866.0</ele><time>2026-05-01T12:18:09.256Z</time></trkpt><trkpt lat="45.03757" lon="6.367455"><ele>1865.0</ele><time>2026-05-01T12:18:10.257Z</time></trkpt><trkpt lat="45.03767" lon="6.36722"><ele>1864.0</ele><time>2026-05-01T12:18:11.256Z</time></trkpt><trkpt lat="45.03786" lon="6.3667317"><ele>1864.0</ele><time>2026-05-01T12:18:13.257Z</time></trkpt><trkpt lat="45.0379883" lon="6.36652"><ele>1864.0</ele><time>2026-05-01T12:18:14.257Z</time></trkpt><trkpt lat="45.0381233" lon="6.366335"><ele>1864.0</ele><time>2026-05-01T12:18:15.257Z</time></trkpt><trkpt lat="45.0382417" lon="6.366155"><ele>1864.75</ele><time>2026-05-01T12:18:16.256Z</time></trkpt><trkpt lat="45.0383633" lon="6.3660017"><ele>1865.5</ele><time>2026-05-01T12:18:17.257Z</time></trkpt><trkpt lat="45.0384567" lon="6.3658567"><ele>1866.25</ele><time>2026-05-01T12:18:18.257Z</time></trkpt><trkpt lat="45.0385383" lon="6.365725"><ele>1867.0</ele><time>2026-05-01T12:18:19.256Z</time></trkpt><trkpt lat="45.0385967" lon="6.365625"><ele>1864.6666666666667</ele><time>2026-05-01T12:18:20.257Z</time></trkpt><trkpt lat="45.0386183" lon="6.3654833"><ele>1862.3333333333335</ele><time>2026-05-01T12:18:21.257Z</time></trkpt><trkpt lat="45.03861" lon="6.3653533"><ele>1860.0</ele><time>2026-05-01T12:18:22.256Z</time></trkpt><trkpt lat="45.0385767" lon="6.3652417"><ele>1857.6666666666665</ele><time>2026-05-01T12:18:23.256Z</time></trkpt><trkpt lat="45.0385267" lon="6.3651667"><ele>1855.3333333333333</ele><time>2026-05-01T12:18:24.257Z</time></trkpt><trkpt lat="45.038465" lon="6.3651133"><ele>1853.0</ele><time>2026-05-01T12:18:25.257Z</time></trkpt><trkpt lat="45.0383833" lon="6.3651233"><ele>1852.25</ele><time>2026-05-01T12:18:26.257Z</time></trkpt><trkpt lat="45.0382817" lon="6.3652117"><ele>1851.5</ele><time>2026-05-01T12:18:27.257Z</time></trkpt><trkpt lat="45.0381833" lon="6.3653467"><ele>1850.75</ele><time>2026-05-01T12:18:28.257Z</time></trkpt><trkpt lat="45.0380917" lon="6.3655383"><ele>1850.0</ele><time>2026-05-01T12:18:29.257Z</time></trkpt><trkpt lat="45.037985" lon="6.3657483"><ele>1850.0</ele><time>2026-05-01T12:18:30.257Z</time></trkpt><trkpt lat="45.0378667" lon="6.365975"><ele>1850.0</ele><time>2026-05-01T12:18:31.256Z</time></trkpt><trkpt lat="45.0377467" lon="6.366165"><ele>1850.0</ele><time>2026-05-01T12:18:32.257Z</time></trkpt><trkpt lat="45.037465" lon="6.366525"><ele>1846.6666666666665</ele><time>2026-05-01T12:18:34.257Z</time></trkpt><trkpt lat="45.0373167" lon="6.3667017"><ele>1843.3333333333335</ele><time>2026-05-01T12:18:35.257Z</time></trkpt><trkpt lat="45.03717" lon="6.3668783"><ele>1840.0</ele><time>2026-05-01T12:18:36.257Z</time></trkpt><trkpt lat="45.0370267" lon="6.3670567"><ele>1844.3333333333335</ele><time>2026-05-01T12:18:37.257Z</time></trkpt><trkpt lat="45.0368933" lon="6.367255"><ele>1848.6666666666665</ele><time>2026-05-01T12:18:38.257Z</time></trkpt><trkpt lat="45.03677" lon="6.3674517"><ele>1853.0</ele><time>2026-05-01T12:18:39.257Z</time></trkpt><trkpt lat="45.0366783" lon="6.3676217"><ele>1850.3333333333333</ele><time>2026-05-01T12:18:40.257Z</time></trkpt><trkpt lat="45.03656" lon="6.36778"><ele>1847.6666666666665</ele><time>2026-05-01T12:18:41.257Z</time></trkpt><trkpt lat="45.0364567" lon="6.3679383"><ele>1845.0</ele><time>2026-05-01T12:18:42.257Z</time></trkpt><trkpt lat="45.03634" lon="6.3680733"><ele>1845.0</ele><time>2026-05-01T12:18:43.256Z</time></trkpt><trkpt lat="45.03623" lon="6.368175"><ele>1845.0</ele><time>2026-05-01T12:18:44.257Z</time></trkpt><trkpt lat="45.0361367" lon="6.3682717"><ele>1845.0</ele><time>2026-05-01T12:18:45.257Z</time></trkpt><trkpt lat="45.036075" lon="6.368365"><ele>1845.0</ele><time>2026-05-01T12:18:46.256Z</time></trkpt><trkpt lat="45.0359883" lon="6.3683467"><ele>1845.0</ele><time>2026-05-01T12:18:47.257Z</time></trkpt><trkpt lat="45.0359133" lon="6.3682933"><ele>1845.0</ele><time>2026-05-01T12:18:48.257Z</time></trkpt><trkpt lat="45.0358767" lon="6.3681867"><ele>1845.0</ele><time>2026-05-01T12:18:49.256Z</time></trkpt><trkpt lat="45.0358533" lon="6.368065"><ele>1845.0</ele><time>2026-05-01T12:18:50.257Z</time></trkpt><trkpt lat="45.0358717" lon="6.3679267"><ele>1845.0</ele><time>2026-05-01T12:18:51.257Z</time></trkpt><trkpt lat="45.03591" lon="6.3678"><ele>1845.0</ele><time>2026-05-01T12:18:52.257Z</time></trkpt><trkpt lat="45.03597" lon="6.36768"><ele>1841.0</ele><time>2026-05-01T12:18:53.257Z</time></trkpt><trkpt lat="45.0362083" lon="6.3673333"><ele>1837.0</ele><time>2026-05-01T12:18:55.257Z</time></trkpt><trkpt lat="45.0364283" lon="6.367095"><ele>1838.5</ele><time>2026-05-01T12:18:56.257Z</time></trkpt><trkpt lat="45.0366183" lon="6.3668483"><ele>1840.0</ele><time>2026-05-01T12:18:57.256Z</time></trkpt><trkpt lat="45.0367983" lon="6.36658"><ele>1834.0</ele><time>2026-05-01T12:18:58.256Z</time></trkpt><trkpt lat="45.0369083" lon="6.3662633"><ele>1828.0</ele><time>2026-05-01T12:18:59.257Z</time></trkpt><trkpt lat="45.037" lon="6.36595"><ele>1828.0</ele><time>2026-05-01T12:19:00.257Z</time></trkpt><trkpt lat="45.037085" lon="6.36563"><ele>1828.0</ele><time>2026-05-01T12:19:01.257Z</time></trkpt><trkpt lat="45.037165" lon="6.3653083"><ele>1824.3333333333335</ele><time>2026-05-01T12:19:02.257Z</time></trkpt><trkpt lat="45.0372533" lon="6.36501"><ele>1820.6666666666665</ele><time>2026-05-01T12:19:03.257Z</time></trkpt><trkpt lat="45.0373467" lon="6.3647567"><ele>1817.0</ele><time>2026-05-01T12:19:04.256Z</time></trkpt><trkpt lat="45.03743" lon="6.36454"><ele>1818.6666666666665</ele><time>2026-05-01T12:19:05.257Z</time></trkpt><trkpt lat="45.037535" lon="6.3643417"><ele>1820.3333333333335</ele><time>2026-05-01T12:19:06.257Z</time></trkpt><trkpt lat="45.03766" lon="6.3641933"><ele>1822.0</ele><time>2026-05-01T12:19:07.257Z</time></trkpt><trkpt lat="45.0378133" lon="6.3640683"><ele>1822.0</ele><time>2026-05-01T12:19:08.257Z</time></trkpt><trkpt lat="45.0379817" lon="6.363975"><ele>1822.0</ele><time>2026-05-01T12:19:09.256Z</time></trkpt><trkpt lat="45.0381467" lon="6.3638883"><ele>1822.0</ele><time>2026-05-01T12:19:10.256Z</time></trkpt><trkpt lat="45.03829" lon="6.363805"><ele>1819.3333333333335</ele><time>2026-05-01T12:19:11.257Z</time></trkpt><trkpt lat="45.0384567" lon="6.3637133"><ele>1816.6666666666665</ele><time>2026-05-01T12:19:12.257Z</time></trkpt><trkpt lat="45.0386217" lon="6.3636217"><ele>1814.0</ele><time>2026-05-01T12:19:13.257Z</time></trkpt><trkpt lat="45.0387517" lon="6.3635233"><ele>1814.0</ele><time>2026-05-01T12:19:14.256Z</time></trkpt><trkpt lat="45.038895" lon="6.3633067"><ele>1814.0</ele><time>2026-05-01T12:19:16.257Z</time></trkpt><trkpt lat="45.03896" lon="6.3631783"><ele>1814.0</ele><time>2026-05-01T12:19:17.257Z</time></trkpt><trkpt lat="45.038975" lon="6.3630117"><ele>1814.0</ele><time>2026-05-01T12:19:18.256Z</time></trkpt><trkpt lat="45.038965" lon="6.3628533"><ele>1809.0</ele><time>2026-05-01T12:19:19.257Z</time></trkpt><trkpt lat="45.0388833" lon="6.36266"><ele>1804.0</ele><time>2026-05-01T12:19:20.256Z</time></trkpt><trkpt lat="45.0387883" lon="6.3624867"><ele>1799.0</ele><time>2026-05-01T12:19:21.257Z</time></trkpt><trkpt lat="45.0386867" lon="6.36232"><ele>1798.0</ele><time>2026-05-01T12:19:22.257Z</time></trkpt><trkpt lat="45.0386217" lon="6.3621283"><ele>1797.0</ele><time>2026-05-01T12:19:23.256Z</time></trkpt><trkpt lat="45.03861" lon="6.361915"><ele>1796.0</ele><time>2026-05-01T12:19:24.257Z</time></trkpt><trkpt lat="45.038635" lon="6.3616517"><ele>1796.0</ele><time>2026-05-01T12:19:25.256Z</time></trkpt><trkpt lat="45.038665" lon="6.3613933"><ele>1796.0</ele><time>2026-05-01T12:19:26.256Z</time></trkpt><trkpt lat="45.0386933" lon="6.3611533"><ele>1796.0</ele><time>2026-05-01T12:19:27.257Z</time></trkpt><trkpt lat="45.0387483" lon="6.3609583"><ele>1793.6666666666665</ele><time>2026-05-01T12:19:28.256Z</time></trkpt><trkpt lat="45.0388333" lon="6.3607683"><ele>1791.3333333333335</ele><time>2026-05-01T12:19:29.257Z</time></trkpt><trkpt lat="45.0389417" lon="6.3605867"><ele>1789.0</ele><time>2026-05-01T12:19:30.256Z</time></trkpt><trkpt lat="45.0390767" lon="6.3604267"><ele>1790.0</ele><time>2026-05-01T12:19:31.256Z</time></trkpt><trkpt lat="45.03924" lon="6.3603217"><ele>1791.0</ele><time>2026-05-01T12:19:32.256Z</time></trkpt><trkpt lat="45.03939" lon="6.3601917"><ele>1792.0</ele><time>2026-05-01T12:19:33.257Z</time></trkpt><trkpt lat="45.03954" lon="6.3600467"><ele>1792.0</ele><time>2026-05-01T12:19:34.257Z</time></trkpt><trkpt lat="45.039675" lon="6.3598867"><ele>1792.0</ele><time>2026-05-01T12:19:35.257Z</time></trkpt><trkpt lat="45.039845" lon="6.35946"><ele>1790.3333333333335</ele><time>2026-05-01T12:19:37.257Z</time></trkpt><trkpt lat="45.0399083" lon="6.3592017"><ele>1788.6666666666665</ele><time>2026-05-01T12:19:38.256Z</time></trkpt><trkpt lat="45.0399617" lon="6.3589383"><ele>1787.0</ele><time>2026-05-01T12:19:39.256Z</time></trkpt><trkpt lat="45.0400067" lon="6.35868"><ele>1787.0</ele><time>2026-05-01T12:19:40.257Z</time></trkpt><trkpt lat="45.0400433" lon="6.3584433"><ele>1787.0</ele><time>2026-05-01T12:19:41.257Z</time></trkpt><trkpt lat="45.040075" lon="6.358215"><ele>1787.0</ele><time>2026-05-01T12:19:42.257Z</time></trkpt><trkpt lat="45.0401233" lon="6.3580033"><ele>1781.3333333333333</ele><time>2026-05-01T12:19:43.257Z</time></trkpt><trkpt lat="45.04021" lon="6.3578567"><ele>1775.6666666666665</ele><time>2026-05-01T12:19:44.257Z</time></trkpt><trkpt lat="45.04034" lon="6.357715"><ele>1770.0</ele><time>2026-05-01T12:19:45.257Z</time></trkpt><trkpt lat="45.0404867" lon="6.357565"><ele>1770.0</ele><time>2026-05-01T12:19:46.257Z</time></trkpt><trkpt lat="45.040625" lon="6.3574"><ele>1770.0</ele><time>2026-05-01T12:19:47.257Z</time></trkpt><trkpt lat="45.0407533" lon="6.3572417"><ele>1770.0</ele><time>2026-05-01T12:19:48.257Z</time></trkpt><trkpt lat="45.0408783" lon="6.3570883"><ele>1769.25</ele><time>2026-05-01T12:19:49.256Z</time></trkpt><trkpt lat="45.0409933" lon="6.3569583"><ele>1768.5</ele><time>2026-05-01T12:19:50.256Z</time></trkpt><trkpt lat="45.0410917" lon="6.3568"><ele>1767.75</ele><time>2026-05-01T12:19:51.257Z</time></trkpt><trkpt lat="45.041175" lon="6.3566333"><ele>1767.0</ele><time>2026-05-01T12:19:52.257Z</time></trkpt><trkpt lat="45.0412567" lon="6.3564733"><ele>1764.0</ele><time>2026-05-01T12:19:53.257Z</time></trkpt><trkpt lat="45.041365" lon="6.3563483"><ele>1761.0</ele><time>2026-05-01T12:19:54.257Z</time></trkpt><trkpt lat="45.0414817" lon="6.356285"><ele>1758.0</ele><time>2026-05-01T12:19:55.257Z</time></trkpt><trkpt lat="45.04161" lon="6.3562183"><ele>1755.0</ele><time>2026-05-01T12:19:56.257Z</time></trkpt><trkpt lat="45.0418817" lon="6.3560933"><ele>1755.0</ele><time>2026-05-01T12:19:58.257Z</time></trkpt><trkpt lat="45.0420267" lon="6.3560083"><ele>1755.0</ele><time>2026-05-01T12:19:59.256Z</time></trkpt><trkpt lat="45.04216" lon="6.3559133"><ele>1755.0</ele><time>2026-05-01T12:20:00.257Z</time></trkpt><trkpt lat="45.0422583" lon="6.3557733"><ele>1755.0</ele><time>2026-05-01T12:20:01.256Z</time></trkpt><trkpt lat="45.0423467" lon="6.3556233"><ele>1756.75</ele><time>2026-05-01T12:20:02.256Z</time></trkpt><trkpt lat="45.042445" lon="6.3555017"><ele>1758.5</ele><time>2026-05-01T12:20:03.257Z</time></trkpt><trkpt lat="45.04252" lon="6.355365"><ele>1760.25</ele><time>2026-05-01T12:20:04.256Z</time></trkpt><trkpt lat="45.0425533" lon="6.355195"><ele>1762.0</ele><time>2026-05-01T12:20:05.257Z</time></trkpt><trkpt lat="45.0425283" lon="6.3550283"><ele>1759.0</ele><time>2026-05-01T12:20:06.257Z</time></trkpt><trkpt lat="45.0424433" lon="6.3548517"><ele>1756.0</ele><time>2026-05-01T12:20:07.256Z</time></trkpt><trkpt lat="45.0423267" lon="6.3546817"><ele>1753.0</ele><time>2026-05-01T12:20:08.257Z</time></trkpt><trkpt lat="45.0421883" lon="6.354535"><ele>1753.0</ele><time>2026-05-01T12:20:09.257Z</time></trkpt><trkpt lat="45.0420433" lon="6.3544217"><ele>1753.0</ele><time>2026-05-01T12:20:10.257Z</time></trkpt><trkpt lat="45.0419267" lon="6.3542683"><ele>1753.0</ele><time>2026-05-01T12:20:11.256Z</time></trkpt><trkpt lat="45.0418267" lon="6.3540483"><ele>1754.3333333333335</ele><time>2026-05-01T12:20:12.256Z</time></trkpt><trkpt lat="45.0416883" lon="6.3538333"><ele>1755.6666666666665</ele><time>2026-05-01T12:20:13.256Z</time></trkpt><trkpt lat="45.0415933" lon="6.3536117"><ele>1757.0</ele><time>2026-05-01T12:20:14.257Z</time></trkpt><trkpt lat="45.0415317" lon="6.353335"><ele>1749.0</ele><time>2026-05-01T12:20:15.257Z</time></trkpt><trkpt lat="45.041465" lon="6.353055"><ele>1741.0</ele><time>2026-05-01T12:20:16.256Z</time></trkpt><trkpt lat="45.0414133" lon="6.3527733"><ele>1733.0</ele><time>2026-05-01T12:20:17.257Z</time></trkpt><trkpt lat="45.0413067" lon="6.3522517"><ele>1732.6666666666665</ele><time>2026-05-01T12:20:19.256Z</time></trkpt><trkpt lat="45.0412517" lon="6.3520217"><ele>1732.3333333333335</ele><time>2026-05-01T12:20:20.256Z</time></trkpt><trkpt lat="45.0411933" lon="6.3517917"><ele>1732.0</ele><time>2026-05-01T12:20:21.257Z</time></trkpt><trkpt lat="45.0411533" lon="6.3515717"><ele>1731.6666666666667</ele><time>2026-05-01T12:20:22.257Z</time></trkpt><trkpt lat="45.0411317" lon="6.3513667"><ele>1731.3333333333335</ele><time>2026-05-01T12:20:23.257Z</time></trkpt><trkpt lat="45.0411533" lon="6.351155"><ele>1731.0</ele><time>2026-05-01T12:20:24.257Z</time></trkpt><trkpt lat="45.0411983" lon="6.3509367"><ele>1731.0</ele><time>2026-05-01T12:20:25.256Z</time></trkpt><trkpt lat="45.0412517" lon="6.3507317"><ele>1731.0</ele><time>2026-05-01T12:20:26.256Z</time></trkpt><trkpt lat="45.0413033" lon="6.3505383"><ele>1731.0</ele><time>2026-05-01T12:20:27.257Z</time></trkpt><trkpt lat="45.041325" lon="6.3502783"><ele>1729.0</ele><time>2026-05-01T12:20:28.257Z</time></trkpt><trkpt lat="45.04134" lon="6.3499917"><ele>1727.0</ele><time>2026-05-01T12:20:29.257Z</time></trkpt><trkpt lat="45.0412983" lon="6.3496917"><ele>1725.0</ele><time>2026-05-01T12:20:30.257Z</time></trkpt><trkpt lat="45.0412767" lon="6.3493833"><ele>1722.6666666666665</ele><time>2026-05-01T12:20:31.256Z</time></trkpt><trkpt lat="45.0412767" lon="6.3490833"><ele>1720.3333333333333</ele><time>2026-05-01T12:20:32.257Z</time></trkpt><trkpt lat="45.0412833" lon="6.3488117"><ele>1718.0</ele><time>2026-05-01T12:20:33.257Z</time></trkpt><trkpt lat="45.0412667" lon="6.3485417"><ele>1717.3333333333333</ele><time>2026-05-01T12:20:34.256Z</time></trkpt><trkpt lat="45.0412667" lon="6.348305"><ele>1716.6666666666665</ele><time>2026-05-01T12:20:35.257Z</time></trkpt><trkpt lat="45.04128" lon="6.3480967"><ele>1716.0</ele><time>2026-05-01T12:20:36.257Z</time></trkpt><trkpt lat="45.0413233" lon="6.3478817"><ele>1712.5</ele><time>2026-05-01T12:20:37.256Z</time></trkpt><trkpt lat="45.0413883" lon="6.34768"><ele>1709.0</ele><time>2026-05-01T12:20:38.256Z</time></trkpt><trkpt lat="45.041525" lon="6.3472683"><ele>1709.0</ele><time>2026-05-01T12:20:40.257Z</time></trkpt><trkpt lat="45.041565" lon="6.3470483"><ele>1709.0</ele><time>2026-05-01T12:20:41.257Z</time></trkpt><trkpt lat="45.0415567" lon="6.3468383"><ele>1709.0</ele><time>2026-05-01T12:20:42.257Z</time></trkpt><trkpt lat="45.04152" lon="6.346625"><ele>1709.0</ele><time>2026-05-01T12:20:43.257Z</time></trkpt><trkpt lat="45.0414567" lon="6.3464233"><ele>1709.0</ele><time>2026-05-01T12:20:44.257Z</time></trkpt><trkpt lat="45.0413567" lon="6.3462417"><ele>1709.0</ele><time>2026-05-01T12:20:45.257Z</time></trkpt><trkpt lat="45.0412683" lon="6.3460617"><ele>1708.6666666666665</ele><time>2026-05-01T12:20:46.257Z</time></trkpt><trkpt lat="45.0411783" lon="6.3458683"><ele>1708.3333333333335</ele><time>2026-05-01T12:20:47.257Z</time></trkpt><trkpt lat="45.0411167" lon="6.3456583"><ele>1708.0</ele><time>2026-05-01T12:20:48.257Z</time></trkpt><trkpt lat="45.04109" lon="6.3454233"><ele>1705.3333333333335</ele><time>2026-05-01T12:20:49.257Z</time></trkpt><trkpt lat="45.0410967" lon="6.3451733"><ele>1702.6666666666665</ele><time>2026-05-01T12:20:50.257Z</time></trkpt><trkpt lat="45.0411433" lon="6.3448983"><ele>1700.0</ele><time>2026-05-01T12:20:51.257Z</time></trkpt><trkpt lat="45.0411983" lon="6.3446217"><ele>1697.0</ele><time>2026-05-01T12:20:52.257Z</time></trkpt><trkpt lat="45.0412567" lon="6.3443633"><ele>1694.0</ele><time>2026-05-01T12:20:53.257Z</time></trkpt><trkpt lat="45.0413217" lon="6.3441067"><ele>1691.0</ele><time>2026-05-01T12:20:54.256Z</time></trkpt><trkpt lat="45.041385" lon="6.3438433"><ele>1689.0</ele><time>2026-05-01T12:20:55.257Z</time></trkpt><trkpt lat="45.0414283" lon="6.3435833"><ele>1687.0</ele><time>2026-05-01T12:20:56.257Z</time></trkpt><trkpt lat="45.0414617" lon="6.34333"><ele>1685.0</ele><time>2026-05-01T12:20:57.256Z</time></trkpt><trkpt lat="45.0414983" lon="6.3430633"><ele>1683.5</ele><time>2026-05-01T12:20:58.257Z</time></trkpt><trkpt lat="45.04149" lon="6.3427833"><ele>1682.0</ele><time>2026-05-01T12:20:59.257Z</time></trkpt><trkpt lat="45.041415" lon="6.3422133"><ele>1682.0</ele><time>2026-05-01T12:21:01.257Z</time></trkpt><trkpt lat="45.041375" lon="6.3419583"><ele>1682.0</ele><time>2026-05-01T12:21:02.257Z</time></trkpt><trkpt lat="45.0413433" lon="6.3417183"><ele>1682.0</ele><time>2026-05-01T12:21:03.256Z</time></trkpt><trkpt lat="45.0413383" lon="6.3415067"><ele>1678.0</ele><time>2026-05-01T12:21:04.256Z</time></trkpt><trkpt lat="45.0413583" lon="6.3412967"><ele>1674.0</ele><time>2026-05-01T12:21:05.257Z</time></trkpt><trkpt lat="45.04139" lon="6.3410633"><ele>1670.0</ele><time>2026-05-01T12:21:06.256Z</time></trkpt><trkpt lat="45.041495" lon="6.3408617"><ele>1670.0</ele><time>2026-05-01T12:21:07.256Z</time></trkpt><trkpt lat="45.0416233" lon="6.34065"><ele>1670.0</ele><time>2026-05-01T12:21:08.256Z</time></trkpt><trkpt lat="45.04176" lon="6.34046"><ele>1670.0</ele><time>2026-05-01T12:21:09.256Z</time></trkpt><trkpt lat="45.0418583" lon="6.34027"><ele>1670.75</ele><time>2026-05-01T12:21:10.257Z</time></trkpt><trkpt lat="45.041945" lon="6.340095"><ele>1671.5</ele><time>2026-05-01T12:21:11.257Z</time></trkpt><trkpt lat="45.042045" lon="6.3399583"><ele>1672.25</ele><time>2026-05-01T12:21:12.257Z</time></trkpt><trkpt lat="45.0421767" lon="6.3398517"><ele>1673.0</ele><time>2026-05-01T12:21:13.256Z</time></trkpt><trkpt lat="45.04231" lon="6.3397633"><ele>1671.3333333333333</ele><time>2026-05-01T12:21:14.256Z</time></trkpt><trkpt lat="45.0424417" lon="6.3396417"><ele>1669.6666666666665</ele><time>2026-05-01T12:21:15.256Z</time></trkpt><trkpt lat="45.04255" lon="6.3394683"><ele>1668.0</ele><time>2026-05-01T12:21:16.257Z</time></trkpt><trkpt lat="45.0426317" lon="6.3392917"><ele>1668.0</ele><time>2026-05-01T12:21:17.257Z</time></trkpt><trkpt lat="45.0427067" lon="6.339115"><ele>1668.0</ele><time>2026-05-01T12:21:18.256Z</time></trkpt><trkpt lat="45.04277" lon="6.33895"><ele>1668.0</ele><time>2026-05-01T12:21:19.257Z</time></trkpt><trkpt lat="45.042845" lon="6.3388017"><ele>1668.0</ele><time>2026-05-01T12:21:20.257Z</time></trkpt><trkpt lat="45.043045" lon="6.3385283"><ele>1667.0</ele><time>2026-05-01T12:21:22.257Z</time></trkpt><trkpt lat="45.0431717" lon="6.3383933"><ele>1666.0</ele><time>2026-05-01T12:21:23.257Z</time></trkpt><trkpt lat="45.0432933" lon="6.338265"><ele>1665.0</ele><time>2026-05-01T12:21:24.257Z</time></trkpt><trkpt lat="45.043425" lon="6.3381333"><ele>1661.6666666666665</ele><time>2026-05-01T12:21:25.256Z</time></trkpt><trkpt lat="45.04355" lon="6.337995"><ele>1658.3333333333333</ele><time>2026-05-01T12:21:26.257Z</time></trkpt><trkpt lat="45.0436867" lon="6.3378683"><ele>1655.0</ele><time>2026-05-01T12:21:27.256Z</time></trkpt><trkpt lat="45.0438017" lon="6.3377333"><ele>1655.0</ele><time>2026-05-01T12:21:28.257Z</time></trkpt><trkpt lat="45.0439283" lon="6.3375717"><ele>1655.0</ele><time>2026-05-01T12:21:29.257Z</time></trkpt><trkpt lat="45.0440367" lon="6.3374"><ele>1655.0</ele><time>2026-05-01T12:21:30.257Z</time></trkpt><trkpt lat="45.0441167" lon="6.33721"><ele>1655.6666666666665</ele><time>2026-05-01T12:21:31.257Z</time></trkpt><trkpt lat="45.0441933" lon="6.3370083"><ele>1656.3333333333335</ele><time>2026-05-01T12:21:32.257Z</time></trkpt><trkpt lat="45.0442533" lon="6.3368017"><ele>1657.0</ele><time>2026-05-01T12:21:33.257Z</time></trkpt><trkpt lat="45.04428" lon="6.33654"><ele>1655.0</ele><time>2026-05-01T12:21:34.257Z</time></trkpt><trkpt lat="45.0443" lon="6.33631"><ele>1653.0</ele><time>2026-05-01T12:21:35.256Z</time></trkpt><trkpt lat="45.0443067" lon="6.3360883"><ele>1651.0</ele><time>2026-05-01T12:21:36.257Z</time></trkpt><trkpt lat="45.0443133" lon="6.3358667"><ele>1651.0</ele><time>2026-05-01T12:21:37.257Z</time></trkpt><trkpt lat="45.044315" lon="6.3356333"><ele>1651.0</ele><time>2026-05-01T12:21:38.257Z</time></trkpt><trkpt lat="45.0443283" lon="6.3354067"><ele>1651.0</ele><time>2026-05-01T12:21:39.257Z</time></trkpt><trkpt lat="45.04436" lon="6.3351717"><ele>1648.0</ele><time>2026-05-01T12:21:40.257Z</time></trkpt><trkpt lat="45.0444" lon="6.3349383"><ele>1645.0</ele><time>2026-05-01T12:21:41.257Z</time></trkpt><trkpt lat="45.044545" lon="6.334525"><ele>1641.3333333333335</ele><time>2026-05-01T12:21:43.257Z</time></trkpt><trkpt lat="45.0446783" lon="6.3343333"><ele>1637.6666666666665</ele><time>2026-05-01T12:21:44.257Z</time></trkpt><trkpt lat="45.0448167" lon="6.3341583"><ele>1634.0</ele><time>2026-05-01T12:21:45.257Z</time></trkpt><trkpt lat="45.0449583" lon="6.3339833"><ele>1631.3333333333333</ele><time>2026-05-01T12:21:46.257Z</time></trkpt><trkpt lat="45.0451117" lon="6.333865"><ele>1628.6666666666665</ele><time>2026-05-01T12:21:47.257Z</time></trkpt><trkpt lat="45.04525" lon="6.3338067"><ele>1626.0</ele><time>2026-05-01T12:21:48.257Z</time></trkpt><trkpt lat="45.0453883" lon="6.3337617"><ele>1626.0</ele><time>2026-05-01T12:21:49.256Z</time></trkpt><trkpt lat="45.045505" lon="6.3337367"><ele>1626.0</ele><time>2026-05-01T12:21:50.257Z</time></trkpt><trkpt lat="45.0456233" lon="6.33375"><ele>1626.0</ele><time>2026-05-01T12:21:51.257Z</time></trkpt><trkpt lat="45.0457283" lon="6.3337667"><ele>1626.0</ele><time>2026-05-01T12:21:52.256Z</time></trkpt><trkpt lat="45.04582" lon="6.33375"><ele>1626.0</ele><time>2026-05-01T12:21:53.257Z</time></trkpt><trkpt lat="45.0459033" lon="6.33371"><ele>1626.3333333333333</ele><time>2026-05-01T12:21:54.256Z</time></trkpt><trkpt lat="45.0459733" lon="6.3336583"><ele>1626.6666666666665</ele><time>2026-05-01T12:21:55.257Z</time></trkpt><trkpt lat="45.0460067" lon="6.3335633"><ele>1627.0</ele><time>2026-05-01T12:21:56.257Z</time></trkpt><trkpt lat="45.0460217" lon="6.333465"><ele>1627.3333333333333</ele><time>2026-05-01T12:21:57.257Z</time></trkpt><trkpt lat="45.0460183" lon="6.33337"><ele>1627.6666666666665</ele><time>2026-05-01T12:21:58.257Z</time></trkpt><trkpt lat="45.04597" lon="6.3332933"><ele>1628.0</ele><time>2026-05-01T12:21:59.256Z</time></trkpt><trkpt lat="45.04589" lon="6.3332467"><ele>1627.3333333333333</ele><time>2026-05-01T12:22:00.255Z</time></trkpt><trkpt lat="45.0457583" lon="6.3332483"><ele>1626.6666666666665</ele><time>2026-05-01T12:22:01.256Z</time></trkpt><trkpt lat="45.045575" lon="6.333265"><ele>1626.0</ele><time>2026-05-01T12:22:02.256Z</time></trkpt><trkpt lat="45.0451533" lon="6.3333217"><ele>1624.5</ele><time>2026-05-01T12:22:04.255Z</time></trkpt><trkpt lat="45.04493" lon="6.3333283"><ele>1623.0</ele><time>2026-05-01T12:22:05.255Z</time></trkpt><trkpt lat="45.0446783" lon="6.3333433"><ele>1623.0</ele><time>2026-05-01T12:22:06.256Z</time></trkpt><trkpt lat="45.044495" lon="6.3333767"><ele>1623.0</ele><time>2026-05-01T12:22:07.256Z</time></trkpt><trkpt lat="45.0443267" lon="6.3333883"><ele>1623.0</ele><time>2026-05-01T12:22:08.255Z</time></trkpt><trkpt lat="45.0441817" lon="6.3333617"><ele>1623.5</ele><time>2026-05-01T12:22:09.255Z</time></trkpt><trkpt lat="45.0440383" lon="6.33331"><ele>1624.0</ele><time>2026-05-01T12:22:10.255Z</time></trkpt><trkpt lat="45.0439267" lon="6.3332267"><ele>1624.5</ele><time>2026-05-01T12:22:11.256Z</time></trkpt><trkpt lat="45.0438017" lon="6.3331133"><ele>1625.0</ele><time>2026-05-01T12:22:12.255Z</time></trkpt><trkpt lat="45.0436667" lon="6.3329483"><ele>1621.6666666666665</ele><time>2026-05-01T12:22:13.256Z</time></trkpt><trkpt lat="45.043545" lon="6.3327683"><ele>1618.3333333333335</ele><time>2026-05-01T12:22:14.256Z</time></trkpt><trkpt lat="45.043435" lon="6.33259"><ele>1615.0</ele><time>2026-05-01T12:22:15.255Z</time></trkpt><trkpt lat="45.0433533" lon="6.3324417"><ele>1612.75</ele><time>2026-05-01T12:22:16.255Z</time></trkpt><trkpt lat="45.0432667" lon="6.33231"><ele>1610.5</ele><time>2026-05-01T12:22:17.256Z</time></trkpt><trkpt lat="45.043235" lon="6.3321633"><ele>1608.25</ele><time>2026-05-01T12:22:18.256Z</time></trkpt><trkpt lat="45.0432283" lon="6.332005"><ele>1606.0</ele><time>2026-05-01T12:22:19.255Z</time></trkpt><trkpt lat="45.0432917" lon="6.3318383"><ele>1605.3333333333335</ele><time>2026-05-01T12:22:20.256Z</time></trkpt><trkpt lat="45.0433783" lon="6.331645"><ele>1604.6666666666665</ele><time>2026-05-01T12:22:21.256Z</time></trkpt><trkpt lat="45.043495" lon="6.3314983"><ele>1604.0</ele><time>2026-05-01T12:22:22.256Z</time></trkpt><trkpt lat="45.04359" lon="6.3313517"><ele>1599.0</ele><time>2026-05-01T12:22:23.256Z</time></trkpt><trkpt lat="45.043815" lon="6.331205"><ele>1594.0</ele><time>2026-05-01T12:22:25.256Z</time></trkpt><trkpt lat="45.04393" lon="6.3312133"><ele>1589.0</ele><time>2026-05-01T12:22:26.256Z</time></trkpt><trkpt lat="45.044055" lon="6.3312567"><ele>1589.3333333333333</ele><time>2026-05-01T12:22:27.256Z</time></trkpt><trkpt lat="45.0442017" lon="6.3313733"><ele>1589.6666666666665</ele><time>2026-05-01T12:22:28.255Z</time></trkpt><trkpt lat="45.0443567" lon="6.331515"><ele>1590.0</ele><time>2026-05-01T12:22:29.256Z</time></trkpt><trkpt lat="45.0445117" lon="6.3316417"><ele>1592.0</ele><time>2026-05-01T12:22:30.256Z</time></trkpt><trkpt lat="45.044675" lon="6.331765"><ele>1594.0</ele><time>2026-05-01T12:22:31.256Z</time></trkpt><trkpt lat="45.044845" lon="6.331875"><ele>1596.0</ele><time>2026-05-01T12:22:32.256Z</time></trkpt><trkpt lat="45.04502" lon="6.331945"><ele>1596.0</ele><time>2026-05-01T12:22:33.255Z</time></trkpt><trkpt lat="45.0452083" lon="6.3319717"><ele>1596.0</ele><time>2026-05-01T12:22:34.255Z</time></trkpt><trkpt lat="45.045405" lon="6.3319983"><ele>1596.0</ele><time>2026-05-01T12:22:35.256Z</time></trkpt><trkpt lat="45.0456033" lon="6.3319567"><ele>1596.0</ele><time>2026-05-01T12:22:36.256Z</time></trkpt><trkpt lat="45.045765" lon="6.331905"><ele>1596.0</ele><time>2026-05-01T12:22:37.256Z</time></trkpt><trkpt lat="45.045915" lon="6.3318117"><ele>1596.0</ele><time>2026-05-01T12:22:38.256Z</time></trkpt><trkpt lat="45.0460467" lon="6.3317083"><ele>1594.6666666666665</ele><time>2026-05-01T12:22:39.256Z</time></trkpt><trkpt lat="45.04615" lon="6.3315767"><ele>1593.3333333333333</ele><time>2026-05-01T12:22:40.255Z</time></trkpt><trkpt lat="45.0462233" lon="6.3313667"><ele>1592.0</ele><time>2026-05-01T12:22:41.256Z</time></trkpt><trkpt lat="45.0462717" lon="6.3311217"><ele>1589.6666666666665</ele><time>2026-05-01T12:22:42.256Z</time></trkpt><trkpt lat="45.0462933" lon="6.330835"><ele>1587.3333333333335</ele><time>2026-05-01T12:22:43.256Z</time></trkpt><trkpt lat="45.0463167" lon="6.3305383"><ele>1585.0</ele><time>2026-05-01T12:22:44.255Z</time></trkpt><trkpt lat="45.04633" lon="6.32997"><ele>1582.6666666666667</ele><time>2026-05-01T12:22:46.256Z</time></trkpt><trkpt lat="45.0463317" lon="6.3297117"><ele>1580.3333333333335</ele><time>2026-05-01T12:22:47.256Z</time></trkpt><trkpt lat="45.0463367" lon="6.329475"><ele>1578.0</ele><time>2026-05-01T12:22:48.256Z</time></trkpt><trkpt lat="45.0463517" lon="6.32927"><ele>1578.0</ele><time>2026-05-01T12:22:49.256Z</time></trkpt><trkpt lat="45.0463483" lon="6.3290883"><ele>1578.0</ele><time>2026-05-01T12:22:50.255Z</time></trkpt><trkpt lat="45.0463417" lon="6.3289217"><ele>1578.0</ele><time>2026-05-01T12:22:51.256Z</time></trkpt><trkpt lat="45.0462933" lon="6.3288033"><ele>1578.0</ele><time>2026-05-01T12:22:52.256Z</time></trkpt><trkpt lat="45.0462367" lon="6.3287033"><ele>1578.0</ele><time>2026-05-01T12:22:53.255Z</time></trkpt><trkpt lat="45.04617" lon="6.3286383"><ele>1578.0</ele><time>2026-05-01T12:22:54.255Z</time></trkpt><trkpt lat="45.0460933" lon="6.32861"><ele>1578.0</ele><time>2026-05-01T12:22:55.256Z</time></trkpt><trkpt lat="45.0460067" lon="6.3286433"><ele>1578.0</ele><time>2026-05-01T12:22:56.256Z</time></trkpt><trkpt lat="45.0459217" lon="6.328755"><ele>1578.0</ele><time>2026-05-01T12:22:57.256Z</time></trkpt><trkpt lat="45.0458633" lon="6.3289017"><ele>1578.0</ele><time>2026-05-01T12:22:58.256Z</time></trkpt><trkpt lat="45.0458067" lon="6.329065"><ele>1575.8333333333333</ele><time>2026-05-01T12:22:59.256Z</time></trkpt><trkpt lat="45.045755" lon="6.3292017"><ele>1573.6666666666665</ele><time>2026-05-01T12:23:00.255Z</time></trkpt><trkpt lat="45.0456983" lon="6.32929"><ele>1571.5</ele><time>2026-05-01T12:23:01.256Z</time></trkpt><trkpt lat="45.045625" lon="6.3293117"><ele>1569.3333333333333</ele><time>2026-05-01T12:23:02.256Z</time></trkpt><trkpt lat="45.04555" lon="6.3293133"><ele>1567.1666666666665</ele><time>2026-05-01T12:23:03.256Z</time></trkpt><trkpt lat="45.045515" lon="6.3292383"><ele>1565.0</ele><time>2026-05-01T12:23:04.256Z</time></trkpt><trkpt lat="45.0455217" lon="6.3291"><ele>1562.0</ele><time>2026-05-01T12:23:05.256Z</time></trkpt><trkpt lat="45.04562" lon="6.32875"><ele>1559.0</ele><time>2026-05-01T12:23:07.256Z</time></trkpt><trkpt lat="45.0456217" lon="6.3286367"><ele>1556.0</ele><time>2026-05-01T12:23:08.255Z</time></trkpt><trkpt lat="45.0456567" lon="6.32841"><ele>1556.0</ele><time>2026-05-01T12:23:09.256Z</time></trkpt><trkpt lat="45.0457" lon="6.3282267"><ele>1556.0</ele><time>2026-05-01T12:23:10.255Z</time></trkpt><trkpt lat="45.0457267" lon="6.3280583"><ele>1556.0</ele><time>2026-05-01T12:23:11.256Z</time></trkpt><trkpt lat="45.0457567" lon="6.327895"><ele>1556.0</ele><time>2026-05-01T12:23:12.256Z</time></trkpt><trkpt lat="45.0457867" lon="6.3277283"><ele>1503.0</ele><time>2026-05-01T12:23:13.256Z</time></trkpt><trkpt lat="45.0481667" lon="6.3212033"><ele>1496.5</ele><time>2026-05-01T12:23:45.255Z</time></trkpt><trkpt lat="45.0483017" lon="6.3207333"><ele>1490.0</ele><time>2026-05-01T12:23:47.256Z</time></trkpt><trkpt lat="45.0482667" lon="6.3204733"><ele>1490.0</ele><time>2026-05-01T12:23:48.256Z</time></trkpt><trkpt lat="45.0482883" lon="6.3202417"><ele>1490.0</ele><time>2026-05-01T12:23:49.255Z</time></trkpt><trkpt lat="45.0483017" lon="6.3199917"><ele>1490.0</ele><time>2026-05-01T12:23:50.255Z</time></trkpt><trkpt lat="45.04834" lon="6.3197833"><ele>1504.3333333333335</ele><time>2026-05-01T12:23:51.256Z</time></trkpt><trkpt lat="45.0483633" lon="6.31958"><ele>1518.6666666666667</ele><time>2026-05-01T12:23:52.256Z</time></trkpt><trkpt lat="45.0483783" lon="6.3193517"><ele>1533.0</ele><time>2026-05-01T12:23:53.256Z</time></trkpt><trkpt lat="45.0483733" lon="6.3191117"><ele>1533.6666666666667</ele><time>2026-05-01T12:23:54.256Z</time></trkpt><trkpt lat="45.0483633" lon="6.3188867"><ele>1534.3333333333335</ele><time>2026-05-01T12:23:55.255Z</time></trkpt><trkpt lat="45.04833" lon="6.3186533"><ele>1535.0</ele><time>2026-05-01T12:23:56.256Z</time></trkpt><trkpt lat="45.0482683" lon="6.31844"><ele>1525.25</ele><time>2026-05-01T12:23:57.256Z</time></trkpt><trkpt lat="45.0482067" lon="6.3182417"><ele>1515.5</ele><time>2026-05-01T12:23:58.256Z</time></trkpt><trkpt lat="45.04815" lon="6.3180583"><ele>1505.75</ele><time>2026-05-01T12:23:59.255Z</time></trkpt><trkpt lat="45.048075" lon="6.3179"><ele>1496.0</ele><time>2026-05-01T12:24:00.256Z</time></trkpt><trkpt lat="45.04801" lon="6.31776"><ele>1496.0</ele><time>2026-05-01T12:24:01.256Z</time></trkpt><trkpt lat="45.0478817" lon="6.317685"><ele>1496.0</ele><time>2026-05-01T12:24:02.256Z</time></trkpt><trkpt lat="45.04782" lon="6.317545"><ele>1496.0</ele><time>2026-05-01T12:24:03.256Z</time></trkpt><trkpt lat="45.0477833" lon="6.3173967"><ele>1496.0</ele><time>2026-05-01T12:24:04.256Z</time></trkpt><trkpt lat="45.0477733" lon="6.3172217"><ele>1493.3333333333335</ele><time>2026-05-01T12:24:05.256Z</time></trkpt><trkpt lat="45.0477967" lon="6.3170333"><ele>1490.6666666666667</ele><time>2026-05-01T12:24:06.255Z</time></trkpt><trkpt lat="45.0479233" lon="6.3166633"><ele>1488.0</ele><time>2026-05-01T12:24:08.256Z</time></trkpt><trkpt lat="45.048045" lon="6.31648"><ele>1487.3333333333333</ele><time>2026-05-01T12:24:09.255Z</time></trkpt><trkpt lat="45.04818" lon="6.3162767"><ele>1486.6666666666665</ele><time>2026-05-01T12:24:10.256Z</time></trkpt><trkpt lat="45.0482733" lon="6.3160883"><ele>1486.0</ele><time>2026-05-01T12:24:11.256Z</time></trkpt><trkpt lat="45.0484133" lon="6.3158933"><ele>1487.6666666666665</ele><time>2026-05-01T12:24:12.256Z</time></trkpt><trkpt lat="45.0485817" lon="6.3157533"><ele>1489.3333333333333</ele><time>2026-05-01T12:24:13.256Z</time></trkpt><trkpt lat="45.048755" lon="6.3156533"><ele>1491.0</ele><time>2026-05-01T12:24:14.256Z</time></trkpt><trkpt lat="45.0489167" lon="6.3155567"><ele>1491.75</ele><time>2026-05-01T12:24:15.256Z</time></trkpt><trkpt lat="45.0490283" lon="6.3154483"><ele>1492.5</ele><time>2026-05-01T12:24:16.256Z</time></trkpt><trkpt lat="45.0491267" lon="6.3153433"><ele>1493.25</ele><time>2026-05-01T12:24:17.256Z</time></trkpt><trkpt lat="45.0491983" lon="6.3151867"><ele>1494.0</ele><time>2026-05-01T12:24:18.256Z</time></trkpt><trkpt lat="45.049235" lon="6.3150183"><ele>1495.6</ele><time>2026-05-01T12:24:19.256Z</time></trkpt><trkpt lat="45.0492367" lon="6.3148467"><ele>1497.2</ele><time>2026-05-01T12:24:20.255Z</time></trkpt><trkpt lat="45.0492417" lon="6.3146883"><ele>1498.8</ele><time>2026-05-01T12:24:21.255Z</time></trkpt><trkpt lat="45.049215" lon="6.3145433"><ele>1500.3999999999999</ele><time>2026-05-01T12:24:22.256Z</time></trkpt><trkpt lat="45.0491633" lon="6.3144067"><ele>1502.0</ele><time>2026-05-01T12:24:23.256Z</time></trkpt><trkpt lat="45.04907" lon="6.3142917"><ele>1505.5</ele><time>2026-05-01T12:24:24.255Z</time></trkpt><trkpt lat="45.048975" lon="6.3141783"><ele>1509.0</ele><time>2026-05-01T12:24:25.256Z</time></trkpt><trkpt lat="45.048835" lon="6.3140717"><ele>1512.5</ele><time>2026-05-01T12:24:26.255Z</time></trkpt><trkpt lat="45.04872" lon="6.3139633"><ele>1516.0</ele><time>2026-05-01T12:24:27.256Z</time></trkpt><trkpt lat="45.0486017" lon="6.3137"><ele>1503.0</ele><time>2026-05-01T12:24:29.256Z</time></trkpt><trkpt lat="45.0485533" lon="6.3135683"><ele>1490.0</ele><time>2026-05-01T12:24:30.256Z</time></trkpt><trkpt lat="45.0471417" lon="6.3113067"><ele>1490.0</ele><time>2026-05-01T12:24:48.26Z</time></trkpt><trkpt lat="45.0468317" lon="6.3106217"><ele>1487.3333333333335</ele><time>2026-05-01T12:24:50.261Z</time></trkpt><trkpt lat="45.046785" lon="6.3103933"><ele>1484.6666666666667</ele><time>2026-05-01T12:24:51.261Z</time></trkpt><trkpt lat="45.0467567" lon="6.3101633"><ele>1482.0</ele><time>2026-05-01T12:24:52.261Z</time></trkpt><trkpt lat="45.0467633" lon="6.3099583"><ele>1482.0</ele><time>2026-05-01T12:24:53.261Z</time></trkpt><trkpt lat="45.046745" lon="6.3097567"><ele>1482.0</ele><time>2026-05-01T12:24:54.261Z</time></trkpt><trkpt lat="45.0467133" lon="6.3095467"><ele>1482.0</ele><time>2026-05-01T12:24:55.261Z</time></trkpt><trkpt lat="45.0466767" lon="6.3093333"><ele>1484.0</ele><time>2026-05-01T12:24:56.261Z</time></trkpt><trkpt lat="45.0466483" lon="6.30912"><ele>1486.0</ele><time>2026-05-01T12:24:57.26Z</time></trkpt><trkpt lat="45.0466217" lon="6.30891"><ele>1488.0</ele><time>2026-05-01T12:24:58.261Z</time></trkpt><trkpt lat="45.0465833" lon="6.3086983"><ele>1485.0</ele><time>2026-05-01T12:24:59.26Z</time></trkpt><trkpt lat="45.046545" lon="6.30849"><ele>1482.0</ele><time>2026-05-01T12:25:00.261Z</time></trkpt><trkpt lat="45.046505" lon="6.3082783"><ele>1479.0</ele><time>2026-05-01T12:25:01.26Z</time></trkpt><trkpt lat="45.0464733" lon="6.3080917"><ele>1476.0</ele><time>2026-05-01T12:25:02.261Z</time></trkpt><trkpt lat="45.046435" lon="6.307905"><ele>1476.0</ele><time>2026-05-01T12:25:03.261Z</time></trkpt><trkpt lat="45.0464117" lon="6.307735"><ele>1476.0</ele><time>2026-05-01T12:25:04.261Z</time></trkpt><trkpt lat="45.0463733" lon="6.3075633"><ele>1476.0</ele><time>2026-05-01T12:25:05.261Z</time></trkpt><trkpt lat="45.0463133" lon="6.3074333"><ele>1476.0</ele><time>2026-05-01T12:25:06.261Z</time></trkpt><trkpt lat="45.04626" lon="6.3073033"><ele>1481.0</ele><time>2026-05-01T12:25:07.261Z</time></trkpt><trkpt lat="45.0461733" lon="6.3072133"><ele>1486.0</ele><time>2026-05-01T12:25:08.261Z</time></trkpt><trkpt lat="45.0460817" lon="6.307115"><ele>1491.0</ele><time>2026-05-01T12:25:09.261Z</time></trkpt><trkpt lat="45.0458583" lon="6.30698"><ele>1487.8333333333333</ele><time>2026-05-01T12:25:11.261Z</time></trkpt><trkpt lat="45.045775" lon="6.3068767"><ele>1484.6666666666667</ele><time>2026-05-01T12:25:12.261Z</time></trkpt><trkpt lat="45.0456983" lon="6.3068017"><ele>1481.5</ele><time>2026-05-01T12:25:13.26Z</time></trkpt><trkpt lat="45.0456283" lon="6.30674"><ele>1478.3333333333335</ele><time>2026-05-01T12:25:14.261Z</time></trkpt><trkpt lat="45.0455583" lon="6.3066933"><ele>1475.1666666666667</ele><time>2026-05-01T12:25:15.261Z</time></trkpt><trkpt lat="45.0454833" lon="6.306655"><ele>1472.0</ele><time>2026-05-01T12:25:16.261Z</time></trkpt><trkpt lat="45.04541" lon="6.306605"><ele>1472.0</ele><time>2026-05-01T12:25:17.26Z</time></trkpt><trkpt lat="45.0453367" lon="6.3065483"><ele>1472.0</ele><time>2026-05-01T12:25:18.261Z</time></trkpt><trkpt lat="45.0452717" lon="6.3064617"><ele>1472.0</ele><time>2026-05-01T12:25:19.261Z</time></trkpt><trkpt lat="45.0452183" lon="6.3063917"><ele>1472.0</ele><time>2026-05-01T12:25:20.261Z</time></trkpt><trkpt lat="45.0451633" lon="6.3063317"><ele>1472.0</ele><time>2026-05-01T12:25:21.261Z</time></trkpt><trkpt lat="45.045115" lon="6.3062283"><ele>1472.0</ele><time>2026-05-01T12:25:22.261Z</time></trkpt><trkpt lat="45.04506" lon="6.3061717"><ele>1473.3333333333335</ele><time>2026-05-01T12:25:23.261Z</time></trkpt><trkpt lat="45.0450117" lon="6.3060933"><ele>1474.6666666666667</ele><time>2026-05-01T12:25:24.261Z</time></trkpt><trkpt lat="45.044975" lon="6.3060017"><ele>1476.0</ele><time>2026-05-01T12:25:25.261Z</time></trkpt><trkpt lat="45.0449267" lon="6.3059233"><ele>1477.3333333333333</ele><time>2026-05-01T12:25:26.261Z</time></trkpt><trkpt lat="45.0449017" lon="6.30581"><ele>1478.6666666666665</ele><time>2026-05-01T12:25:27.26Z</time></trkpt><trkpt lat="45.044895" lon="6.3056783"><ele>1480.0</ele><time>2026-05-01T12:25:28.26Z</time></trkpt><trkpt lat="45.044935" lon="6.3054917"><ele>1478.6666666666665</ele><time>2026-05-01T12:25:29.261Z</time></trkpt><trkpt lat="45.0449833" lon="6.3053033"><ele>1477.3333333333333</ele><time>2026-05-01T12:25:30.261Z</time></trkpt><trkpt lat="45.0450167" lon="6.3049083"><ele>1476.0</ele><time>2026-05-01T12:25:32.26Z</time></trkpt><trkpt lat="45.0450117" lon="6.3047283"><ele>1474.75</ele><time>2026-05-01T12:25:33.261Z</time></trkpt><trkpt lat="45.04502" lon="6.3045567"><ele>1473.5</ele><time>2026-05-01T12:25:34.26Z</time></trkpt><trkpt lat="45.0450367" lon="6.304385"><ele>1472.25</ele><time>2026-05-01T12:25:35.261Z</time></trkpt><trkpt lat="45.0450717" lon="6.3042267"><ele>1471.0</ele><time>2026-05-01T12:25:36.261Z</time></trkpt><trkpt lat="45.04509" lon="6.30407"><ele>1471.0</ele><time>2026-05-01T12:25:37.261Z</time></trkpt><trkpt lat="45.0451333" lon="6.3039233"><ele>1471.0</ele><time>2026-05-01T12:25:38.26Z</time></trkpt><trkpt lat="45.04524" lon="6.3038117"><ele>1471.0</ele><time>2026-05-01T12:25:39.261Z</time></trkpt><trkpt lat="45.0452617" lon="6.30367"><ele>1471.0</ele><time>2026-05-01T12:25:40.261Z</time></trkpt><trkpt lat="45.0453167" lon="6.303545"><ele>1470.8</ele><time>2026-05-01T12:25:41.261Z</time></trkpt><trkpt lat="45.04535" lon="6.3034133"><ele>1470.6</ele><time>2026-05-01T12:25:42.261Z</time></trkpt><trkpt lat="45.0453567" lon="6.3032833"><ele>1470.4</ele><time>2026-05-01T12:25:43.261Z</time></trkpt><trkpt lat="45.0453417" lon="6.30317"><ele>1470.2</ele><time>2026-05-01T12:25:44.261Z</time></trkpt><trkpt lat="45.0452833" lon="6.3030433"><ele>1470.0</ele><time>2026-05-01T12:25:45.26Z</time></trkpt><trkpt lat="45.0451983" lon="6.3029217"><ele>1471.5</ele><time>2026-05-01T12:25:46.261Z</time></trkpt><trkpt lat="45.045115" lon="6.3027933"><ele>1473.0</ele><time>2026-05-01T12:25:47.261Z</time></trkpt><trkpt lat="45.0449983" lon="6.3026733"><ele>1474.5</ele><time>2026-05-01T12:25:48.261Z</time></trkpt><trkpt lat="45.0448817" lon="6.3025283"><ele>1476.0</ele><time>2026-05-01T12:25:49.261Z</time></trkpt><trkpt lat="45.0447783" lon="6.3023867"><ele>1469.6666666666667</ele><time>2026-05-01T12:25:50.261Z</time></trkpt><trkpt lat="45.044685" lon="6.3022367"><ele>1463.3333333333335</ele><time>2026-05-01T12:25:51.26Z</time></trkpt><trkpt lat="45.0445017" lon="6.3019067"><ele>1457.0</ele><time>2026-05-01T12:25:53.261Z</time></trkpt><trkpt lat="45.0444617" lon="6.3017083"><ele>1457.0</ele><time>2026-05-01T12:25:54.261Z</time></trkpt><trkpt lat="45.0444317" lon="6.3015033"><ele>1457.0</ele><time>2026-05-01T12:25:55.26Z</time></trkpt><trkpt lat="45.0444383" lon="6.3012983"><ele>1457.0</ele><time>2026-05-01T12:25:56.26Z</time></trkpt><trkpt lat="45.044445" lon="6.3010883"><ele>1457.0</ele><time>2026-05-01T12:25:57.261Z</time></trkpt><trkpt lat="45.0444383" lon="6.3008833"><ele>1456.3333333333335</ele><time>2026-05-01T12:25:58.261Z</time></trkpt><trkpt lat="45.0444433" lon="6.30067"><ele>1455.6666666666667</ele><time>2026-05-01T12:25:59.26Z</time></trkpt><trkpt lat="45.044455" lon="6.300445"><ele>1455.0</ele><time>2026-05-01T12:26:00.261Z</time></trkpt><trkpt lat="45.044475" lon="6.3002067"><ele>1453.3333333333333</ele><time>2026-05-01T12:26:01.26Z</time></trkpt><trkpt lat="45.0444933" lon="6.2999717"><ele>1451.6666666666665</ele><time>2026-05-01T12:26:02.261Z</time></trkpt><trkpt lat="45.0445183" lon="6.2997317"><ele>1450.0</ele><time>2026-05-01T12:26:03.261Z</time></trkpt><trkpt lat="45.04454" lon="6.2995067"><ele>1447.3333333333333</ele><time>2026-05-01T12:26:04.261Z</time></trkpt><trkpt lat="45.0445917" lon="6.299275"><ele>1444.6666666666667</ele><time>2026-05-01T12:26:05.261Z</time></trkpt><trkpt lat="45.0446033" lon="6.2990217"><ele>1442.0</ele><time>2026-05-01T12:26:06.261Z</time></trkpt><trkpt lat="45.0446233" lon="6.2987633"><ele>1439.0</ele><time>2026-05-01T12:26:07.261Z</time></trkpt><trkpt lat="45.0446517" lon="6.29848"><ele>1436.0</ele><time>2026-05-01T12:26:08.26Z</time></trkpt><trkpt lat="45.0446933" lon="6.2982083"><ele>1433.0</ele><time>2026-05-01T12:26:09.261Z</time></trkpt><trkpt lat="45.0447133" lon="6.2979283"><ele>1432.3333333333335</ele><time>2026-05-01T12:26:10.261Z</time></trkpt><trkpt lat="45.0447233" lon="6.2976683"><ele>1431.6666666666667</ele><time>2026-05-01T12:26:11.261Z</time></trkpt><trkpt lat="45.04471" lon="6.2974067"><ele>1431.0</ele><time>2026-05-01T12:26:12.26Z</time></trkpt><trkpt lat="45.0446717" lon="6.2968883"><ele>1431.0</ele><time>2026-05-01T12:26:14.261Z</time></trkpt><trkpt lat="45.0446083" lon="6.2966467"><ele>1431.0</ele><time>2026-05-01T12:26:15.261Z</time></trkpt><trkpt lat="45.0445433" lon="6.2964017"><ele>1431.0</ele><time>2026-05-01T12:26:16.26Z</time></trkpt><trkpt lat="45.044465" lon="6.29616"><ele>1432.6666666666667</ele><time>2026-05-01T12:26:17.26Z</time></trkpt><trkpt lat="45.044375" lon="6.2959367"><ele>1434.3333333333335</ele><time>2026-05-01T12:26:18.261Z</time></trkpt><trkpt lat="45.0442967" lon="6.2957017"><ele>1436.0</ele><time>2026-05-01T12:26:19.261Z</time></trkpt><trkpt lat="45.0442333" lon="6.2954683"><ele>1437.3333333333335</ele><time>2026-05-01T12:26:20.261Z</time></trkpt><trkpt lat="45.044165" lon="6.2951933"><ele>1438.6666666666667</ele><time>2026-05-01T12:26:21.261Z</time></trkpt><trkpt lat="45.0441117" lon="6.294925"><ele>1440.0</ele><time>2026-05-01T12:26:22.26Z</time></trkpt><trkpt lat="45.044055" lon="6.2946617"><ele>1432.6666666666667</ele><time>2026-05-01T12:26:23.26Z</time></trkpt><trkpt lat="45.04401" lon="6.2943917"><ele>1425.3333333333335</ele><time>2026-05-01T12:26:24.261Z</time></trkpt><trkpt lat="45.043925" lon="6.29411"><ele>1418.0</ele><time>2026-05-01T12:26:25.261Z</time></trkpt><trkpt lat="45.0438167" lon="6.2938283"><ele>1418.0</ele><time>2026-05-01T12:26:26.261Z</time></trkpt><trkpt lat="45.0437217" lon="6.2935617"><ele>1418.0</ele><time>2026-05-01T12:26:27.261Z</time></trkpt><trkpt lat="45.043615" lon="6.2933033"><ele>1418.0</ele><time>2026-05-01T12:26:28.261Z</time></trkpt><trkpt lat="45.0435233" lon="6.2930617"><ele>1417.6666666666667</ele><time>2026-05-01T12:26:29.261Z</time></trkpt><trkpt lat="45.0434517" lon="6.2928083"><ele>1417.3333333333333</ele><time>2026-05-01T12:26:30.26Z</time></trkpt><trkpt lat="45.043405" lon="6.2925583"><ele>1417.0</ele><time>2026-05-01T12:26:31.261Z</time></trkpt><trkpt lat="45.0433717" lon="6.2922617"><ele>1415.5</ele><time>2026-05-01T12:26:32.261Z</time></trkpt><trkpt lat="45.0433567" lon="6.2919733"><ele>1414.0</ele><time>2026-05-01T12:26:33.261Z</time></trkpt><trkpt lat="45.0433117" lon="6.2913617"><ele>1413.6666666666665</ele><time>2026-05-01T12:26:35.261Z</time></trkpt><trkpt lat="45.0433017" lon="6.2910783"><ele>1413.3333333333333</ele><time>2026-05-01T12:26:36.261Z</time></trkpt><trkpt lat="45.043295" lon="6.2907717"><ele>1413.0</ele><time>2026-05-01T12:26:37.261Z</time></trkpt><trkpt lat="45.04332" lon="6.2904717"><ele>1411.6666666666667</ele><time>2026-05-01T12:26:38.261Z</time></trkpt><trkpt lat="45.0433567" lon="6.290175"><ele>1410.3333333333335</ele><time>2026-05-01T12:26:39.261Z</time></trkpt><trkpt lat="45.0433733" lon="6.2898817"><ele>1409.0</ele><time>2026-05-01T12:26:40.26Z</time></trkpt><trkpt lat="45.0434" lon="6.289585"><ele>1407.6666666666667</ele><time>2026-05-01T12:26:41.26Z</time></trkpt><trkpt lat="45.0434117" lon="6.2892933"><ele>1406.3333333333333</ele><time>2026-05-01T12:26:42.26Z</time></trkpt><trkpt lat="45.0434533" lon="6.2890083"><ele>1405.0</ele><time>2026-05-01T12:26:43.261Z</time></trkpt><trkpt lat="45.0435133" lon="6.2887383"><ele>1403.0</ele><time>2026-05-01T12:26:44.261Z</time></trkpt><trkpt lat="45.0435567" lon="6.2884433"><ele>1401.0</ele><time>2026-05-01T12:26:45.261Z</time></trkpt><trkpt lat="45.0435917" lon="6.2881383"><ele>1399.0</ele><time>2026-05-01T12:26:46.26Z</time></trkpt><trkpt lat="45.0436083" lon="6.2878217"><ele>1397.3333333333333</ele><time>2026-05-01T12:26:47.26Z</time></trkpt><trkpt lat="45.0436233" lon="6.287505"><ele>1395.6666666666667</ele><time>2026-05-01T12:26:48.261Z</time></trkpt><trkpt lat="45.043625" lon="6.287225"><ele>1394.0</ele><time>2026-05-01T12:26:49.26Z</time></trkpt><trkpt lat="45.04365" lon="6.2869733"><ele>1391.3333333333335</ele><time>2026-05-01T12:26:50.26Z</time></trkpt><trkpt lat="45.0436983" lon="6.28674"><ele>1388.6666666666667</ele><time>2026-05-01T12:26:51.261Z</time></trkpt><trkpt lat="45.0437317" lon="6.28651"><ele>1386.0</ele><time>2026-05-01T12:26:52.261Z</time></trkpt><trkpt lat="45.0437883" lon="6.2862733"><ele>1385.0</ele><time>2026-05-01T12:26:53.26Z</time></trkpt><trkpt lat="45.0438683" lon="6.2860383"><ele>1384.0</ele><time>2026-05-01T12:26:54.261Z</time></trkpt><trkpt lat="45.0440417" lon="6.2855617"><ele>1383.0</ele><time>2026-05-01T12:26:56.26Z</time></trkpt><trkpt lat="45.04412" lon="6.2853183"><ele>1382.0</ele><time>2026-05-01T12:26:57.261Z</time></trkpt><trkpt lat="45.0441867" lon="6.28507"><ele>1381.0</ele><time>2026-05-01T12:26:58.261Z</time></trkpt><trkpt lat="45.0442083" lon="6.2848367"><ele>1383.0</ele><time>2026-05-01T12:26:59.26Z</time></trkpt><trkpt lat="45.0442417" lon="6.2845867"><ele>1385.0</ele><time>2026-05-01T12:27:00.26Z</time></trkpt><trkpt lat="45.0442633" lon="6.2843467"><ele>1387.0</ele><time>2026-05-01T12:27:01.26Z</time></trkpt><trkpt lat="45.0442833" lon="6.284105"><ele>1391.6666666666665</ele><time>2026-05-01T12:27:02.261Z</time></trkpt><trkpt lat="45.0442433" lon="6.283865"><ele>1396.3333333333333</ele><time>2026-05-01T12:27:03.261Z</time></trkpt><trkpt lat="45.04421" lon="6.2836283"><ele>1401.0</ele><time>2026-05-01T12:27:04.261Z</time></trkpt><trkpt lat="45.0441517" lon="6.2834083"><ele>1397.25</ele><time>2026-05-01T12:27:05.261Z</time></trkpt><trkpt lat="45.044095" lon="6.28322"><ele>1393.5</ele><time>2026-05-01T12:27:06.261Z</time></trkpt><trkpt lat="45.0440067" lon="6.2830567"><ele>1389.75</ele><time>2026-05-01T12:27:07.26Z</time></trkpt><trkpt lat="45.0439367" lon="6.282905"><ele>1386.0</ele><time>2026-05-01T12:27:08.261Z</time></trkpt><trkpt lat="45.0438717" lon="6.2828033"><ele>1386.0</ele><time>2026-05-01T12:27:09.26Z</time></trkpt><trkpt lat="45.04381" lon="6.2827283"><ele>1386.0</ele><time>2026-05-01T12:27:10.261Z</time></trkpt><trkpt lat="45.0437617" lon="6.282665"><ele>1386.0</ele><time>2026-05-01T12:27:11.261Z</time></trkpt><trkpt lat="45.0437" lon="6.282525"><ele>1386.0</ele><time>2026-05-01T12:27:13.26Z</time></trkpt><trkpt lat="45.0436683" lon="6.28244"><ele>1386.0</ele><time>2026-05-01T12:27:14.261Z</time></trkpt><trkpt lat="45.0436367" lon="6.2823367"><ele>1386.0</ele><time>2026-05-01T12:27:15.261Z</time></trkpt><trkpt lat="45.0435767" lon="6.2820633"><ele>1385.75</ele><time>2026-05-01T12:27:17.261Z</time></trkpt><trkpt lat="45.0435333" lon="6.28189"><ele>1385.5</ele><time>2026-05-01T12:27:18.261Z</time></trkpt><trkpt lat="45.0435" lon="6.28169"><ele>1385.25</ele><time>2026-05-01T12:27:19.261Z</time></trkpt><trkpt lat="45.04346" lon="6.2814617"><ele>1385.0</ele><time>2026-05-01T12:27:20.261Z</time></trkpt><trkpt lat="45.043425" lon="6.281195"><ele>1385.6666666666667</ele><time>2026-05-01T12:27:21.26Z</time></trkpt><trkpt lat="45.0433583" lon="6.2809117"><ele>1386.3333333333333</ele><time>2026-05-01T12:27:22.261Z</time></trkpt><trkpt lat="45.0432817" lon="6.2806033"><ele>1387.0</ele><time>2026-05-01T12:27:23.261Z</time></trkpt><trkpt lat="45.043225" lon="6.2802833"><ele>1377.5</ele><time>2026-05-01T12:27:24.261Z</time></trkpt><trkpt lat="45.0431833" lon="6.2799483"><ele>1368.0</ele><time>2026-05-01T12:27:25.26Z</time></trkpt><trkpt lat="45.0431483" lon="6.2796517"><ele>1367.6666666666667</ele><time>2026-05-01T12:27:26.26Z</time></trkpt><trkpt lat="45.0431233" lon="6.2793933"><ele>1367.3333333333335</ele><time>2026-05-01T12:27:27.26Z</time></trkpt><trkpt lat="45.0431117" lon="6.2791717"><ele>1367.0</ele><time>2026-05-01T12:27:28.261Z</time></trkpt><trkpt lat="45.04311" lon="6.27894"><ele>1368.6666666666667</ele><time>2026-05-01T12:27:29.261Z</time></trkpt><trkpt lat="45.0431467" lon="6.2787117"><ele>1370.3333333333333</ele><time>2026-05-01T12:27:30.261Z</time></trkpt><trkpt lat="45.0432133" lon="6.2785033"><ele>1372.0</ele><time>2026-05-01T12:27:31.26Z</time></trkpt><trkpt lat="45.043245" lon="6.2782817"><ele>1372.0</ele><time>2026-05-01T12:27:32.261Z</time></trkpt><trkpt lat="45.0432533" lon="6.2780467"><ele>1372.0</ele><time>2026-05-01T12:27:33.261Z</time></trkpt><trkpt lat="45.0432533" lon="6.2777883"><ele>1372.0</ele><time>2026-05-01T12:27:34.26Z</time></trkpt><trkpt lat="45.0432583" lon="6.277495"><ele>1371.5</ele><time>2026-05-01T12:27:35.261Z</time></trkpt><trkpt lat="45.04318" lon="6.2772283"><ele>1371.0</ele><time>2026-05-01T12:27:36.261Z</time></trkpt><trkpt lat="45.0430083" lon="6.276745"><ele>1371.0</ele><time>2026-05-01T12:27:38.261Z</time></trkpt><trkpt lat="45.0429583" lon="6.2764433"><ele>1371.0</ele><time>2026-05-01T12:27:39.261Z</time></trkpt><trkpt lat="45.042915" lon="6.2761367"><ele>1371.0</ele><time>2026-05-01T12:27:40.261Z</time></trkpt><trkpt lat="45.0428967" lon="6.275795"><ele>1365.5</ele><time>2026-05-01T12:27:41.261Z</time></trkpt><trkpt lat="45.04287" lon="6.27544"><ele>1360.0</ele><time>2026-05-01T12:27:42.26Z</time></trkpt><trkpt lat="45.0428483" lon="6.27508"><ele>1359.0</ele><time>2026-05-01T12:27:43.26Z</time></trkpt><trkpt lat="45.04279" lon="6.2747083"><ele>1358.0</ele><time>2026-05-01T12:27:44.26Z</time></trkpt><trkpt lat="45.0427317" lon="6.2743667"><ele>1358.0</ele><time>2026-05-01T12:27:45.261Z</time></trkpt><trkpt lat="45.0426433" lon="6.2740167"><ele>1358.0</ele><time>2026-05-01T12:27:46.261Z</time></trkpt><trkpt lat="45.04258" lon="6.273695"><ele>1357.3333333333335</ele><time>2026-05-01T12:27:47.26Z</time></trkpt><trkpt lat="45.0425217" lon="6.2733967"><ele>1356.6666666666667</ele><time>2026-05-01T12:27:48.261Z</time></trkpt><trkpt lat="45.0424817" lon="6.2731217"><ele>1356.0</ele><time>2026-05-01T12:27:49.261Z</time></trkpt><trkpt lat="45.0424583" lon="6.2728583"><ele>1356.0</ele><time>2026-05-01T12:27:50.261Z</time></trkpt><trkpt lat="45.04245" lon="6.272595"><ele>1356.0</ele><time>2026-05-01T12:27:51.261Z</time></trkpt><trkpt lat="45.0424467" lon="6.2723267"><ele>1356.0</ele><time>2026-05-01T12:27:52.261Z</time></trkpt><trkpt lat="45.0424467" lon="6.27205"><ele>1356.0</ele><time>2026-05-01T12:27:53.26Z</time></trkpt><trkpt lat="45.042455" lon="6.2717833"><ele>1356.0</ele><time>2026-05-01T12:27:54.261Z</time></trkpt><trkpt lat="45.042485" lon="6.2715467"><ele>1356.0</ele><time>2026-05-01T12:27:55.261Z</time></trkpt><trkpt lat="45.0425133" lon="6.27132"><ele>1350.5</ele><time>2026-05-01T12:27:56.261Z</time></trkpt><trkpt lat="45.0425467" lon="6.2710833"><ele>1345.0</ele><time>2026-05-01T12:27:57.261Z</time></trkpt><trkpt lat="45.04256" lon="6.27056"><ele>1344.6666666666665</ele><time>2026-05-01T12:27:59.261Z</time></trkpt><trkpt lat="45.0425717" lon="6.270285"><ele>1344.3333333333333</ele><time>2026-05-01T12:28:00.26Z</time></trkpt><trkpt lat="45.0426083" lon="6.2700083"><ele>1344.0</ele><time>2026-05-01T12:28:01.261Z</time></trkpt><trkpt lat="45.0426733" lon="6.26975"><ele>1342.0</ele><time>2026-05-01T12:28:02.261Z</time></trkpt><trkpt lat="45.042745" lon="6.2694967"><ele>1340.0</ele><time>2026-05-01T12:28:03.261Z</time></trkpt><trkpt lat="45.0427983" lon="6.2692317"><ele>1338.0</ele><time>2026-05-01T12:28:04.261Z</time></trkpt><trkpt lat="45.0428433" lon="6.268975"><ele>1337.6666666666667</ele><time>2026-05-01T12:28:05.26Z</time></trkpt><trkpt lat="45.04288" lon="6.2687083"><ele>1337.3333333333335</ele><time>2026-05-01T12:28:06.26Z</time></trkpt><trkpt lat="45.0429083" lon="6.2684533"><ele>1337.0</ele><time>2026-05-01T12:28:07.261Z</time></trkpt><trkpt lat="45.0429" lon="6.2681617"><ele>1337.0</ele><time>2026-05-01T12:28:08.26Z</time></trkpt><trkpt lat="45.0428833" lon="6.2678783"><ele>1337.0</ele><time>2026-05-01T12:28:09.261Z</time></trkpt><trkpt lat="45.0428567" lon="6.2675933"><ele>1337.0</ele><time>2026-05-01T12:28:10.261Z</time></trkpt><trkpt lat="45.042865" lon="6.2673133"><ele>1336.3333333333335</ele><time>2026-05-01T12:28:11.26Z</time></trkpt><trkpt lat="45.0428433" lon="6.2670067"><ele>1335.6666666666667</ele><time>2026-05-01T12:28:12.261Z</time></trkpt><trkpt lat="45.04281" lon="6.26672"><ele>1335.0</ele><time>2026-05-01T12:28:13.261Z</time></trkpt><trkpt lat="45.04276" lon="6.2664317"><ele>1333.6666666666667</ele><time>2026-05-01T12:28:14.261Z</time></trkpt><trkpt lat="45.042705" lon="6.2661517"><ele>1332.3333333333335</ele><time>2026-05-01T12:28:15.261Z</time></trkpt><trkpt lat="45.0426533" lon="6.2658717"><ele>1331.0</ele><time>2026-05-01T12:28:16.261Z</time></trkpt><trkpt lat="45.04259" lon="6.26561"><ele>1331.0</ele><time>2026-05-01T12:28:17.26Z</time></trkpt><trkpt lat="45.042525" lon="6.2653533"><ele>1331.0</ele><time>2026-05-01T12:28:18.261Z</time></trkpt><trkpt lat="45.042405" lon="6.264865"><ele>1338.3333333333335</ele><time>2026-05-01T12:28:20.261Z</time></trkpt><trkpt lat="45.042345" lon="6.2646283"><ele>1345.6666666666667</ele><time>2026-05-01T12:28:21.261Z</time></trkpt><trkpt lat="45.04229" lon="6.2643883"><ele>1353.0</ele><time>2026-05-01T12:28:22.26Z</time></trkpt><trkpt lat="45.042235" lon="6.2641383"><ele>1349.6666666666667</ele><time>2026-05-01T12:28:23.26Z</time></trkpt><trkpt lat="45.0421733" lon="6.2638917"><ele>1346.3333333333335</ele><time>2026-05-01T12:28:24.261Z</time></trkpt><trkpt lat="45.0421133" lon="6.2636433"><ele>1343.0</ele><time>2026-05-01T12:28:25.261Z</time></trkpt><trkpt lat="45.0420567" lon="6.2633933"><ele>1343.0</ele><time>2026-05-01T12:28:26.26Z</time></trkpt><trkpt lat="45.0419967" lon="6.263145"><ele>1343.0</ele><time>2026-05-01T12:28:27.26Z</time></trkpt><trkpt lat="45.0419433" lon="6.2629017"><ele>1343.0</ele><time>2026-05-01T12:28:28.261Z</time></trkpt><trkpt lat="45.04189" lon="6.262675"><ele>1342.3333333333335</ele><time>2026-05-01T12:28:29.261Z</time></trkpt><trkpt lat="45.0418317" lon="6.2624517"><ele>1341.6666666666667</ele><time>2026-05-01T12:28:30.261Z</time></trkpt><trkpt lat="45.04178" lon="6.2622267"><ele>1341.0</ele><time>2026-05-01T12:28:31.261Z</time></trkpt><trkpt lat="45.04172" lon="6.26202"><ele>1340.6666666666667</ele><time>2026-05-01T12:28:32.26Z</time></trkpt><trkpt lat="45.0416633" lon="6.26181"><ele>1340.3333333333335</ele><time>2026-05-01T12:28:33.261Z</time></trkpt><trkpt lat="45.041615" lon="6.2616067"><ele>1340.0</ele><time>2026-05-01T12:28:34.261Z</time></trkpt><trkpt lat="45.0415717" lon="6.261415"><ele>1338.3333333333335</ele><time>2026-05-01T12:28:35.261Z</time></trkpt><trkpt lat="45.0415217" lon="6.2612183"><ele>1336.6666666666667</ele><time>2026-05-01T12:28:36.26Z</time></trkpt><trkpt lat="45.0414467" lon="6.2610267"><ele>1335.0</ele><time>2026-05-01T12:28:37.261Z</time></trkpt><trkpt lat="45.0413833" lon="6.2608267"><ele>1335.0</ele><time>2026-05-01T12:28:38.261Z</time></trkpt><trkpt lat="45.0412783" lon="6.26063"><ele>1335.0</ele><time>2026-05-01T12:28:39.26Z</time></trkpt><trkpt lat="45.041045" lon="6.260265"><ele>1335.0</ele><time>2026-05-01T12:28:41.26Z</time></trkpt><trkpt lat="45.0409083" lon="6.2600967"><ele>1335.0</ele><time>2026-05-01T12:28:42.26Z</time></trkpt><trkpt lat="45.0407717" lon="6.2599333"><ele>1335.0</ele><time>2026-05-01T12:28:43.261Z</time></trkpt><trkpt lat="45.0406283" lon="6.2597983"><ele>1332.6666666666667</ele><time>2026-05-01T12:28:44.261Z</time></trkpt><trkpt lat="45.040455" lon="6.2597017"><ele>1330.3333333333335</ele><time>2026-05-01T12:28:45.26Z</time></trkpt><trkpt lat="45.0403083" lon="6.2595917"><ele>1328.0</ele><time>2026-05-01T12:28:46.261Z</time></trkpt><trkpt lat="45.0401617" lon="6.2594667"><ele>1328.0</ele><time>2026-05-01T12:28:47.261Z</time></trkpt><trkpt lat="45.0400233" lon="6.259305"><ele>1328.0</ele><time>2026-05-01T12:28:48.26Z</time></trkpt><trkpt lat="45.0398967" lon="6.2591017"><ele>1328.0</ele><time>2026-05-01T12:28:49.26Z</time></trkpt><trkpt lat="45.0397783" lon="6.2588483"><ele>1329.0</ele><time>2026-05-01T12:28:50.26Z</time></trkpt><trkpt lat="45.0396717" lon="6.25853"><ele>1330.0</ele><time>2026-05-01T12:28:51.261Z</time></trkpt><trkpt lat="45.0395833" lon="6.258195"><ele>1328.3333333333333</ele><time>2026-05-01T12:28:52.261Z</time></trkpt><trkpt lat="45.0395383" lon="6.2578683"><ele>1326.6666666666667</ele><time>2026-05-01T12:28:53.26Z</time></trkpt><trkpt lat="45.0394917" lon="6.2575783"><ele>1325.0</ele><time>2026-05-01T12:28:54.261Z</time></trkpt><trkpt lat="45.0394317" lon="6.25732"><ele>1324.3333333333335</ele><time>2026-05-01T12:28:55.26Z</time></trkpt><trkpt lat="45.0393633" lon="6.2571183"><ele>1323.6666666666667</ele><time>2026-05-01T12:28:56.26Z</time></trkpt><trkpt lat="45.039325" lon="6.256895"><ele>1323.0</ele><time>2026-05-01T12:28:57.261Z</time></trkpt><trkpt lat="45.0393067" lon="6.2566833"><ele>1323.0</ele><time>2026-05-01T12:28:58.261Z</time></trkpt><trkpt lat="45.039305" lon="6.2564617"><ele>1323.0</ele><time>2026-05-01T12:28:59.261Z</time></trkpt><trkpt lat="45.0393117" lon="6.2562383"><ele>1323.0</ele><time>2026-05-01T12:29:00.261Z</time></trkpt><trkpt lat="45.039355" lon="6.2557783"><ele>1323.0</ele><time>2026-05-01T12:29:02.26Z</time></trkpt><trkpt lat="45.039365" lon="6.2555483"><ele>1323.0</ele><time>2026-05-01T12:29:03.261Z</time></trkpt><trkpt lat="45.0393633" lon="6.2552533"><ele>1323.0</ele><time>2026-05-01T12:29:04.261Z</time></trkpt><trkpt lat="45.03935" lon="6.2549367"><ele>1322.3333333333333</ele><time>2026-05-01T12:29:05.261Z</time></trkpt><trkpt lat="45.0393367" lon="6.2546367"><ele>1321.6666666666665</ele><time>2026-05-01T12:29:06.261Z</time></trkpt><trkpt lat="45.0393167" lon="6.2543367"><ele>1321.0</ele><time>2026-05-01T12:29:07.261Z</time></trkpt><trkpt lat="45.0392717" lon="6.2540433"><ele>1320.6666666666665</ele><time>2026-05-01T12:29:08.26Z</time></trkpt><trkpt lat="45.0392383" lon="6.253745"><ele>1320.3333333333333</ele><time>2026-05-01T12:29:09.261Z</time></trkpt><trkpt lat="45.03921" lon="6.2534583"><ele>1320.0</ele><time>2026-05-01T12:29:10.261Z</time></trkpt><trkpt lat="45.03918" lon="6.2531633"><ele>1320.0</ele><time>2026-05-01T12:29:11.26Z</time></trkpt><trkpt lat="45.0391583" lon="6.2528883"><ele>1320.0</ele><time>2026-05-01T12:29:12.261Z</time></trkpt><trkpt lat="45.03912" lon="6.2526233"><ele>1320.0</ele><time>2026-05-01T12:29:13.261Z</time></trkpt><trkpt lat="45.0390933" lon="6.2523617"><ele>1324.3333333333333</ele><time>2026-05-01T12:29:14.26Z</time></trkpt><trkpt lat="45.039075" lon="6.25209"><ele>1328.6666666666665</ele><time>2026-05-01T12:29:15.261Z</time></trkpt><trkpt lat="45.03906" lon="6.2518133"><ele>1333.0</ele><time>2026-05-01T12:29:16.261Z</time></trkpt><trkpt lat="45.0390317" lon="6.2515417"><ele>1273.0</ele><time>2026-05-01T12:29:17.261Z</time></trkpt><trkpt lat="45.038435" lon="6.24332"><ele>1271.5</ele><time>2026-05-01T12:29:53.257Z</time></trkpt><trkpt lat="45.0382433" lon="6.2428467"><ele>1270.0</ele><time>2026-05-01T12:29:55.256Z</time></trkpt><trkpt lat="45.0381533" lon="6.2426233"><ele>1270.0</ele><time>2026-05-01T12:29:56.256Z</time></trkpt><trkpt lat="45.038075" lon="6.242395"><ele>1270.0</ele><time>2026-05-01T12:29:57.257Z</time></trkpt><trkpt lat="45.0379983" lon="6.2421383"><ele>1270.0</ele><time>2026-05-01T12:29:58.257Z</time></trkpt><trkpt lat="45.0379133" lon="6.241885"><ele>1268.6666666666665</ele><time>2026-05-01T12:29:59.256Z</time></trkpt><trkpt lat="45.0378467" lon="6.241605"><ele>1267.3333333333333</ele><time>2026-05-01T12:30:00.257Z</time></trkpt><trkpt lat="45.0377917" lon="6.24132"><ele>1266.0</ele><time>2026-05-01T12:30:01.257Z</time></trkpt><trkpt lat="45.0377483" lon="6.2410317"><ele>1265.3333333333333</ele><time>2026-05-01T12:30:02.256Z</time></trkpt><trkpt lat="45.0377117" lon="6.2407467"><ele>1264.6666666666665</ele><time>2026-05-01T12:30:03.257Z</time></trkpt><trkpt lat="45.0376783" lon="6.2404417"><ele>1264.0</ele><time>2026-05-01T12:30:04.257Z</time></trkpt><trkpt lat="45.0376367" lon="6.2401367"><ele>1264.0</ele><time>2026-05-01T12:30:05.257Z</time></trkpt><trkpt lat="45.0376017" lon="6.2398267"><ele>1264.0</ele><time>2026-05-01T12:30:06.257Z</time></trkpt><trkpt lat="45.0375717" lon="6.2395283"><ele>1264.0</ele><time>2026-05-01T12:30:07.257Z</time></trkpt><trkpt lat="45.0375433" lon="6.2392233"><ele>1263.0</ele><time>2026-05-01T12:30:08.256Z</time></trkpt><trkpt lat="45.037525" lon="6.2389433"><ele>1262.0</ele><time>2026-05-01T12:30:09.256Z</time></trkpt><trkpt lat="45.03751" lon="6.23866"><ele>1261.0</ele><time>2026-05-01T12:30:10.257Z</time></trkpt><trkpt lat="45.0375017" lon="6.2383917"><ele>1259.3333333333333</ele><time>2026-05-01T12:30:11.257Z</time></trkpt><trkpt lat="45.0374783" lon="6.2381183"><ele>1257.6666666666667</ele><time>2026-05-01T12:30:12.257Z</time></trkpt><trkpt lat="45.0375133" lon="6.2379083"><ele>1256.0</ele><time>2026-05-01T12:30:13.256Z</time></trkpt><trkpt lat="45.03756" lon="6.23767"><ele>1254.0</ele><time>2026-05-01T12:30:14.257Z</time></trkpt><trkpt lat="45.0376683" lon="6.2372133"><ele>1252.0</ele><time>2026-05-01T12:30:16.257Z</time></trkpt><trkpt lat="45.037705" lon="6.2369617"><ele>1252.0</ele><time>2026-05-01T12:30:17.257Z</time></trkpt><trkpt lat="45.037745" lon="6.236685"><ele>1252.0</ele><time>2026-05-01T12:30:18.256Z</time></trkpt><trkpt lat="45.03777" lon="6.2364"><ele>1252.0</ele><time>2026-05-01T12:30:19.257Z</time></trkpt><trkpt lat="45.03778" lon="6.2360983"><ele>1250.6666666666665</ele><time>2026-05-01T12:30:20.257Z</time></trkpt><trkpt lat="45.0377817" lon="6.2357783"><ele>1249.3333333333333</ele><time>2026-05-01T12:30:21.257Z</time></trkpt><trkpt lat="45.0377833" lon="6.235465"><ele>1248.0</ele><time>2026-05-01T12:30:22.257Z</time></trkpt><trkpt lat="45.0377983" lon="6.2351767"><ele>1247.6666666666667</ele><time>2026-05-01T12:30:23.256Z</time></trkpt><trkpt lat="45.0377833" lon="6.23487"><ele>1247.3333333333335</ele><time>2026-05-01T12:30:24.257Z</time></trkpt><trkpt lat="45.0377883" lon="6.2346317"><ele>1247.0</ele><time>2026-05-01T12:30:25.257Z</time></trkpt><trkpt lat="45.0377767" lon="6.234375"><ele>1247.0</ele><time>2026-05-01T12:30:26.257Z</time></trkpt><trkpt lat="45.0377467" lon="6.2341083"><ele>1247.0</ele><time>2026-05-01T12:30:27.256Z</time></trkpt><trkpt lat="45.0376733" lon="6.2338683"><ele>1247.0</ele><time>2026-05-01T12:30:28.256Z</time></trkpt><trkpt lat="45.0375933" lon="6.233635"><ele>1247.3333333333335</ele><time>2026-05-01T12:30:29.257Z</time></trkpt><trkpt lat="45.0374917" lon="6.2334033"><ele>1247.6666666666667</ele><time>2026-05-01T12:30:30.257Z</time></trkpt><trkpt lat="45.0373567" lon="6.2332"><ele>1248.0</ele><time>2026-05-01T12:30:31.257Z</time></trkpt><trkpt lat="45.03722" lon="6.2329867"><ele>1246.6666666666667</ele><time>2026-05-01T12:30:32.257Z</time></trkpt><trkpt lat="45.03707" lon="6.232775"><ele>1245.3333333333335</ele><time>2026-05-01T12:30:33.257Z</time></trkpt><trkpt lat="45.036965" lon="6.23252"><ele>1244.0</ele><time>2026-05-01T12:30:34.257Z</time></trkpt><trkpt lat="45.0368817" lon="6.23222"><ele>1240.0</ele><time>2026-05-01T12:30:35.256Z</time></trkpt><trkpt lat="45.0367933" lon="6.2315967"><ele>1236.0</ele><time>2026-05-01T12:30:37.257Z</time></trkpt><trkpt lat="45.0367417" lon="6.2312983"><ele>1234.3333333333333</ele><time>2026-05-01T12:30:38.257Z</time></trkpt><trkpt lat="45.0366883" lon="6.2310567"><ele>1232.6666666666665</ele><time>2026-05-01T12:30:39.256Z</time></trkpt><trkpt lat="45.0366517" lon="6.2307333"><ele>1231.0</ele><time>2026-05-01T12:30:40.257Z</time></trkpt><trkpt lat="45.0366083" lon="6.2304133"><ele>1230.0</ele><time>2026-05-01T12:30:41.256Z</time></trkpt><trkpt lat="45.0366" lon="6.2301083"><ele>1229.0</ele><time>2026-05-01T12:30:42.257Z</time></trkpt><trkpt lat="45.0366017" lon="6.2298"><ele>1228.0</ele><time>2026-05-01T12:30:43.256Z</time></trkpt><trkpt lat="45.0366167" lon="6.229495"><ele>1227.3333333333333</ele><time>2026-05-01T12:30:44.256Z</time></trkpt><trkpt lat="45.0366333" lon="6.2291917"><ele>1226.6666666666667</ele><time>2026-05-01T12:30:45.257Z</time></trkpt><trkpt lat="45.0366367" lon="6.2288933"><ele>1226.0</ele><time>2026-05-01T12:30:46.257Z</time></trkpt><trkpt lat="45.0366267" lon="6.228605"><ele>1221.3333333333335</ele><time>2026-05-01T12:30:47.257Z</time></trkpt><trkpt lat="45.036595" lon="6.228325"><ele>1216.6666666666667</ele><time>2026-05-01T12:30:48.256Z</time></trkpt><trkpt lat="45.03654" lon="6.22806"><ele>1212.0</ele><time>2026-05-01T12:30:49.257Z</time></trkpt><trkpt lat="45.0364883" lon="6.2277883"><ele>1210.0</ele><time>2026-05-01T12:30:50.256Z</time></trkpt><trkpt lat="45.0364367" lon="6.2275083"><ele>1208.0</ele><time>2026-05-01T12:30:51.257Z</time></trkpt><trkpt lat="45.036375" lon="6.2272233"><ele>1206.0</ele><time>2026-05-01T12:30:52.257Z</time></trkpt><trkpt lat="45.0363317" lon="6.2269567"><ele>1205.6666666666667</ele><time>2026-05-01T12:30:53.257Z</time></trkpt><trkpt lat="45.0362633" lon="6.2266683"><ele>1205.3333333333335</ele><time>2026-05-01T12:30:54.257Z</time></trkpt><trkpt lat="45.0362067" lon="6.2263817"><ele>1205.0</ele><time>2026-05-01T12:30:55.257Z</time></trkpt><trkpt lat="45.036145" lon="6.2260917"><ele>1202.5</ele><time>2026-05-01T12:30:56.257Z</time></trkpt><trkpt lat="45.0360517" lon="6.225575"><ele>1200.0</ele><time>2026-05-01T12:30:58.257Z</time></trkpt><trkpt lat="45.03602" lon="6.225335"><ele>1200.0</ele><time>2026-05-01T12:30:59.257Z</time></trkpt><trkpt lat="45.0360083" lon="6.2250817"><ele>1200.0</ele><time>2026-05-01T12:31:00.256Z</time></trkpt><trkpt lat="45.03601" lon="6.2248167"><ele>1200.0</ele><time>2026-05-01T12:31:01.257Z</time></trkpt><trkpt lat="45.0360333" lon="6.2245567"><ele>1195.6666666666667</ele><time>2026-05-01T12:31:02.256Z</time></trkpt><trkpt lat="45.036055" lon="6.2242917"><ele>1191.3333333333335</ele><time>2026-05-01T12:31:03.256Z</time></trkpt><trkpt lat="45.03608" lon="6.224035"><ele>1187.0</ele><time>2026-05-01T12:31:04.257Z</time></trkpt><trkpt lat="45.0361017" lon="6.2237783"><ele>1185.0</ele><time>2026-05-01T12:31:05.257Z</time></trkpt><trkpt lat="45.0360883" lon="6.2235317"><ele>1183.0</ele><time>2026-05-01T12:31:06.257Z</time></trkpt><trkpt lat="45.0360583" lon="6.22328"><ele>1181.0</ele><time>2026-05-01T12:31:07.256Z</time></trkpt><trkpt lat="45.0360467" lon="6.2230267"><ele>1176.3333333333335</ele><time>2026-05-01T12:31:08.257Z</time></trkpt><trkpt lat="45.036065" lon="6.2227567"><ele>1171.6666666666667</ele><time>2026-05-01T12:31:09.257Z</time></trkpt><trkpt lat="45.036095" lon="6.22249"><ele>1167.0</ele><time>2026-05-01T12:31:10.256Z</time></trkpt><trkpt lat="45.0361367" lon="6.2222283"><ele>1167.0</ele><time>2026-05-01T12:31:11.257Z</time></trkpt><trkpt lat="45.03617" lon="6.2219783"><ele>1167.0</ele><time>2026-05-01T12:31:12.257Z</time></trkpt><trkpt lat="45.0362233" lon="6.221735"><ele>1167.0</ele><time>2026-05-01T12:31:13.256Z</time></trkpt><trkpt lat="45.0362817" lon="6.2215033"><ele>1168.0</ele><time>2026-05-01T12:31:14.257Z</time></trkpt><trkpt lat="45.0363367" lon="6.221285"><ele>1169.0</ele><time>2026-05-01T12:31:15.257Z</time></trkpt><trkpt lat="45.036385" lon="6.2210833"><ele>1170.0</ele><time>2026-05-01T12:31:16.257Z</time></trkpt><trkpt lat="45.0364283" lon="6.2208917"><ele>1170.0</ele><time>2026-05-01T12:31:17.257Z</time></trkpt><trkpt lat="45.0364117" lon="6.220475"><ele>1170.0</ele><time>2026-05-01T12:31:19.256Z</time></trkpt><trkpt lat="45.03637" lon="6.2202917"><ele>1170.0</ele><time>2026-05-01T12:31:20.257Z</time></trkpt><trkpt lat="45.03628" lon="6.2200983"><ele>1170.0</ele><time>2026-05-01T12:31:21.257Z</time></trkpt><trkpt lat="45.03617" lon="6.21993"><ele>1170.0</ele><time>2026-05-01T12:31:22.257Z</time></trkpt><trkpt lat="45.03607" lon="6.2197483"><ele>1170.0</ele><time>2026-05-01T12:31:23.257Z</time></trkpt><trkpt lat="45.0359983" lon="6.2195433"><ele>1169.0</ele><time>2026-05-01T12:31:24.256Z</time></trkpt><trkpt lat="45.0359383" lon="6.2193067"><ele>1168.0</ele><time>2026-05-01T12:31:25.257Z</time></trkpt><trkpt lat="45.03589" lon="6.219065"><ele>1167.0</ele><time>2026-05-01T12:31:26.257Z</time></trkpt><trkpt lat="45.0358483" lon="6.2188417"><ele>1167.0</ele><time>2026-05-01T12:31:27.257Z</time></trkpt><trkpt lat="45.0358083" lon="6.2186183"><ele>1167.0</ele><time>2026-05-01T12:31:28.256Z</time></trkpt><trkpt lat="45.035785" lon="6.2183933"><ele>1167.0</ele><time>2026-05-01T12:31:29.257Z</time></trkpt><trkpt lat="45.0357733" lon="6.2181333"><ele>1165.0</ele><time>2026-05-01T12:31:30.256Z</time></trkpt><trkpt lat="45.0357867" lon="6.217855"><ele>1163.0</ele><time>2026-05-01T12:31:31.257Z</time></trkpt><trkpt lat="45.03583" lon="6.2175683"><ele>1161.0</ele><time>2026-05-01T12:31:32.257Z</time></trkpt><trkpt lat="45.03589" lon="6.21729"><ele>1159.0</ele><time>2026-05-01T12:31:33.257Z</time></trkpt><trkpt lat="45.03593" lon="6.21704"><ele>1157.0</ele><time>2026-05-01T12:31:34.257Z</time></trkpt><trkpt lat="45.0359867" lon="6.2168067"><ele>1155.0</ele><time>2026-05-01T12:31:35.256Z</time></trkpt><trkpt lat="45.0360467" lon="6.2165833"><ele>1154.6666666666667</ele><time>2026-05-01T12:31:36.257Z</time></trkpt><trkpt lat="45.0361117" lon="6.216375"><ele>1154.3333333333335</ele><time>2026-05-01T12:31:37.256Z</time></trkpt><trkpt lat="45.0362033" lon="6.216225"><ele>1154.0</ele><time>2026-05-01T12:31:38.257Z</time></trkpt><trkpt lat="45.0363933" lon="6.2159283"><ele>1154.0</ele><time>2026-05-01T12:31:40.257Z</time></trkpt><trkpt lat="45.0364883" lon="6.21576"><ele>1154.0</ele><time>2026-05-01T12:31:41.257Z</time></trkpt><trkpt lat="45.0366183" lon="6.2156283"><ele>1154.0</ele><time>2026-05-01T12:31:42.257Z</time></trkpt><trkpt lat="45.0367533" lon="6.215485"><ele>1153.3333333333335</ele><time>2026-05-01T12:31:43.256Z</time></trkpt><trkpt lat="45.0369117" lon="6.2153133"><ele>1152.6666666666667</ele><time>2026-05-01T12:31:44.257Z</time></trkpt><trkpt lat="45.0370467" lon="6.215105"><ele>1152.0</ele><time>2026-05-01T12:31:45.257Z</time></trkpt><trkpt lat="45.0371633" lon="6.2148817"><ele>1147.5</ele><time>2026-05-01T12:31:46.256Z</time></trkpt><trkpt lat="45.0372817" lon="6.2146267"><ele>1143.0</ele><time>2026-05-01T12:31:47.257Z</time></trkpt><trkpt lat="45.0373783" lon="6.2143167"><ele>1144.0</ele><time>2026-05-01T12:31:48.257Z</time></trkpt><trkpt lat="45.0374617" lon="6.21396"><ele>1145.0</ele><time>2026-05-01T12:31:49.257Z</time></trkpt><trkpt lat="45.03755" lon="6.2136517"><ele>1146.0</ele><time>2026-05-01T12:31:50.257Z</time></trkpt><trkpt lat="45.037655" lon="6.2133717"><ele>1147.0</ele><time>2026-05-01T12:31:51.256Z</time></trkpt><trkpt lat="45.0377633" lon="6.2130933"><ele>1148.0</ele><time>2026-05-01T12:31:52.257Z</time></trkpt><trkpt lat="45.0378667" lon="6.2128217"><ele>1145.3333333333335</ele><time>2026-05-01T12:31:53.257Z</time></trkpt><trkpt lat="45.037965" lon="6.2125633"><ele>1142.6666666666667</ele><time>2026-05-01T12:31:54.257Z</time></trkpt><trkpt lat="45.038065" lon="6.2123033"><ele>1140.0</ele><time>2026-05-01T12:31:55.257Z</time></trkpt><trkpt lat="45.0381533" lon="6.2120567"><ele>1140.0</ele><time>2026-05-01T12:31:56.257Z</time></trkpt><trkpt lat="45.0382183" lon="6.2117883"><ele>1140.0</ele><time>2026-05-01T12:31:57.257Z</time></trkpt><trkpt lat="45.0382667" lon="6.2115233"><ele>1140.0</ele><time>2026-05-01T12:31:58.257Z</time></trkpt><trkpt lat="45.0383183" lon="6.211255"><ele>1139.0</ele><time>2026-05-01T12:31:59.256Z</time></trkpt><trkpt lat="45.0383817" lon="6.2106883"><ele>1138.0</ele><time>2026-05-01T12:32:01.257Z</time></trkpt><trkpt lat="45.0384167" lon="6.2104117"><ele>1137.3333333333333</ele><time>2026-05-01T12:32:02.257Z</time></trkpt><trkpt lat="45.03845" lon="6.21014"><ele>1136.6666666666667</ele><time>2026-05-01T12:32:03.257Z</time></trkpt><trkpt lat="45.0384733" lon="6.2098817"><ele>1136.0</ele><time>2026-05-01T12:32:04.257Z</time></trkpt><trkpt lat="45.038495" lon="6.2096383"><ele>1136.0</ele><time>2026-05-01T12:32:05.257Z</time></trkpt><trkpt lat="45.0385017" lon="6.20941"><ele>1136.0</ele><time>2026-05-01T12:32:06.257Z</time></trkpt><trkpt lat="45.0384967" lon="6.20917"><ele>1136.0</ele><time>2026-05-01T12:32:07.256Z</time></trkpt><trkpt lat="45.0384867" lon="6.20891"><ele>1136.0</ele><time>2026-05-01T12:32:08.256Z</time></trkpt><trkpt lat="45.0384467" lon="6.2086117"><ele>1136.0</ele><time>2026-05-01T12:32:09.257Z</time></trkpt><trkpt lat="45.0384" lon="6.2082883"><ele>1136.0</ele><time>2026-05-01T12:32:10.256Z</time></trkpt><trkpt lat="45.0383433" lon="6.2079433"><ele>1135.5</ele><time>2026-05-01T12:32:11.257Z</time></trkpt><trkpt lat="45.0382917" lon="6.20759"><ele>1135.0</ele><time>2026-05-01T12:32:12.257Z</time></trkpt><trkpt lat="45.03824" lon="6.2072617"><ele>1134.3333333333333</ele><time>2026-05-01T12:32:13.257Z</time></trkpt><trkpt lat="45.038195" lon="6.2069417"><ele>1133.6666666666667</ele><time>2026-05-01T12:32:14.257Z</time></trkpt><trkpt lat="45.0381433" lon="6.2066433"><ele>1133.0</ele><time>2026-05-01T12:32:15.256Z</time></trkpt><trkpt lat="45.0380917" lon="6.206365"><ele>1133.0</ele><time>2026-05-01T12:32:16.257Z</time></trkpt><trkpt lat="45.0380383" lon="6.206095"><ele>1133.0</ele><time>2026-05-01T12:32:17.257Z</time></trkpt><trkpt lat="45.0379917" lon="6.205825"><ele>1133.0</ele><time>2026-05-01T12:32:18.257Z</time></trkpt><trkpt lat="45.0379417" lon="6.2055583"><ele>1132.5</ele><time>2026-05-01T12:32:19.256Z</time></trkpt><trkpt lat="45.0378983" lon="6.205295"><ele>1132.0</ele><time>2026-05-01T12:32:20.257Z</time></trkpt><trkpt lat="45.0377983" lon="6.204785"><ele>1132.0</ele><time>2026-05-01T12:32:22.257Z</time></trkpt><trkpt lat="45.037755" lon="6.2045367"><ele>1132.0</ele><time>2026-05-01T12:32:23.256Z</time></trkpt><trkpt lat="45.0377217" lon="6.20428"><ele>1132.0</ele><time>2026-05-01T12:32:24.256Z</time></trkpt><trkpt lat="45.0376983" lon="6.20401"><ele>1131.3333333333333</ele><time>2026-05-01T12:32:25.257Z</time></trkpt><trkpt lat="45.0376833" lon="6.20374"><ele>1130.6666666666667</ele><time>2026-05-01T12:32:26.257Z</time></trkpt><trkpt lat="45.03769" lon="6.20345"><ele>1130.0</ele><time>2026-05-01T12:32:27.257Z</time></trkpt><trkpt lat="45.0377017" lon="6.2031517"><ele>1129.3333333333335</ele><time>2026-05-01T12:32:28.257Z</time></trkpt><trkpt lat="45.0377317" lon="6.2028517"><ele>1128.6666666666667</ele><time>2026-05-01T12:32:29.257Z</time></trkpt><trkpt lat="45.0377533" lon="6.2025433"><ele>1128.0</ele><time>2026-05-01T12:32:30.257Z</time></trkpt><trkpt lat="45.03776" lon="6.20223"><ele>1126.5</ele><time>2026-05-01T12:32:31.256Z</time></trkpt><trkpt lat="45.037765" lon="6.2019117"><ele>1125.0</ele><time>2026-05-01T12:32:32.256Z</time></trkpt><trkpt lat="45.0377767" lon="6.20159"><ele>1124.0</ele><time>2026-05-01T12:32:33.257Z</time></trkpt><trkpt lat="45.0377917" lon="6.201285"><ele>1123.0</ele><time>2026-05-01T12:32:34.257Z</time></trkpt><trkpt lat="45.037805" lon="6.2009567"><ele>1122.0</ele><time>2026-05-01T12:32:35.257Z</time></trkpt><trkpt lat="45.0377967" lon="6.200625"><ele>1121.5</ele><time>2026-05-01T12:32:36.257Z</time></trkpt><trkpt lat="45.0377867" lon="6.200285"><ele>1121.0</ele><time>2026-05-01T12:32:37.256Z</time></trkpt><trkpt lat="45.0377667" lon="6.1999517"><ele>1122.0</ele><time>2026-05-01T12:32:38.257Z</time></trkpt><trkpt lat="45.03774" lon="6.1996067"><ele>1123.0</ele><time>2026-05-01T12:32:39.256Z</time></trkpt><trkpt lat="45.03771" lon="6.1992633"><ele>1123.5</ele><time>2026-05-01T12:32:40.257Z</time></trkpt><trkpt lat="45.0376783" lon="6.198925"><ele>1124.0</ele><time>2026-05-01T12:32:41.257Z</time></trkpt><trkpt lat="45.037615" lon="6.1982117"><ele>1122.5</ele><time>2026-05-01T12:32:43.257Z</time></trkpt><trkpt lat="45.0375783" lon="6.197845"><ele>1121.0</ele><time>2026-05-01T12:32:44.256Z</time></trkpt><trkpt lat="45.0375383" lon="6.1974667"><ele>1122.0</ele><time>2026-05-01T12:32:45.257Z</time></trkpt><trkpt lat="45.0374983" lon="6.19709"><ele>1123.0</ele><time>2026-05-01T12:32:46.256Z</time></trkpt><trkpt lat="45.03746" lon="6.196725"><ele>1126.0</ele><time>2026-05-01T12:32:47.256Z</time></trkpt><trkpt lat="45.0374267" lon="6.196355"><ele>1129.0</ele><time>2026-05-01T12:32:48.256Z</time></trkpt><trkpt lat="45.0373917" lon="6.1960217"><ele>1129.0</ele><time>2026-05-01T12:32:49.256Z</time></trkpt><trkpt lat="45.0373383" lon="6.19571"><ele>1129.0</ele><time>2026-05-01T12:32:50.257Z</time></trkpt><trkpt lat="45.0373267" lon="6.1954133"><ele>1129.0</ele><time>2026-05-01T12:32:51.257Z</time></trkpt><trkpt lat="45.03732" lon="6.1951633"><ele>1132.3333333333333</ele><time>2026-05-01T12:32:52.256Z</time></trkpt><trkpt lat="45.037355" lon="6.1949433"><ele>1135.6666666666667</ele><time>2026-05-01T12:32:53.256Z</time></trkpt><trkpt lat="45.037405" lon="6.1947133"><ele>1139.0</ele><time>2026-05-01T12:32:54.257Z</time></trkpt><trkpt lat="45.037495" lon="6.19449"><ele>1130.3333333333335</ele><time>2026-05-01T12:32:55.257Z</time></trkpt><trkpt lat="45.0376067" lon="6.1942617"><ele>1121.6666666666667</ele><time>2026-05-01T12:32:56.256Z</time></trkpt><trkpt lat="45.0377283" lon="6.19404"><ele>1113.0</ele><time>2026-05-01T12:32:57.257Z</time></trkpt><trkpt lat="45.0378367" lon="6.19381"><ele>1112.6666666666667</ele><time>2026-05-01T12:32:58.257Z</time></trkpt><trkpt lat="45.0379433" lon="6.193595"><ele>1112.3333333333335</ele><time>2026-05-01T12:32:59.256Z</time></trkpt><trkpt lat="45.038045" lon="6.1933783"><ele>1112.0</ele><time>2026-05-01T12:33:00.257Z</time></trkpt><trkpt lat="45.0381133" lon="6.1931"><ele>1112.0</ele><time>2026-05-01T12:33:01.257Z</time></trkpt><trkpt lat="45.0381917" lon="6.1928017"><ele>1112.0</ele><time>2026-05-01T12:33:02.256Z</time></trkpt><trkpt lat="45.03827" lon="6.1921767"><ele>1111.0</ele><time>2026-05-01T12:33:04.256Z</time></trkpt><trkpt lat="45.0383067" lon="6.1918633"><ele>1110.0</ele><time>2026-05-01T12:33:05.257Z</time></trkpt><trkpt lat="45.03834" lon="6.191555"><ele>1109.0</ele><time>2026-05-01T12:33:06.257Z</time></trkpt><trkpt lat="45.0383667" lon="6.1912683"><ele>1107.3333333333335</ele><time>2026-05-01T12:33:07.257Z</time></trkpt><trkpt lat="45.0383917" lon="6.191"><ele>1105.6666666666667</ele><time>2026-05-01T12:33:08.257Z</time></trkpt><trkpt lat="45.0384217" lon="6.1907633"><ele>1104.0</ele><time>2026-05-01T12:33:09.256Z</time></trkpt><trkpt lat="45.0384583" lon="6.19054"><ele>1103.3333333333333</ele><time>2026-05-01T12:33:10.257Z</time></trkpt><trkpt lat="45.0384867" lon="6.1903167"><ele>1102.6666666666665</ele><time>2026-05-01T12:33:11.257Z</time></trkpt><trkpt lat="45.0385433" lon="6.190115"><ele>1102.0</ele><time>2026-05-01T12:33:12.257Z</time></trkpt><trkpt lat="45.038605" lon="6.189895"><ele>1101.0</ele><time>2026-05-01T12:33:13.257Z</time></trkpt><trkpt lat="45.0386883" lon="6.1896933"><ele>1100.0</ele><time>2026-05-01T12:33:14.257Z</time></trkpt><trkpt lat="45.0387817" lon="6.1894917"><ele>1099.0</ele><time>2026-05-01T12:33:15.256Z</time></trkpt><trkpt lat="45.0388833" lon="6.18931"><ele>1099.0</ele><time>2026-05-01T12:33:16.257Z</time></trkpt><trkpt lat="45.03898" lon="6.1891283"><ele>1099.0</ele><time>2026-05-01T12:33:17.256Z</time></trkpt><trkpt lat="45.03906" lon="6.1889367"><ele>1099.0</ele><time>2026-05-01T12:33:18.257Z</time></trkpt><trkpt lat="45.03914" lon="6.1887533"><ele>1099.0</ele><time>2026-05-01T12:33:19.257Z</time></trkpt><trkpt lat="45.039215" lon="6.1885767"><ele>1099.0</ele><time>2026-05-01T12:33:20.257Z</time></trkpt><trkpt lat="45.03926" lon="6.18839"><ele>1099.0</ele><time>2026-05-01T12:33:21.256Z</time></trkpt><trkpt lat="45.0392883" lon="6.1881983"><ele>1099.0</ele><time>2026-05-01T12:33:22.257Z</time></trkpt><trkpt lat="45.039305" lon="6.1879933"><ele>1099.0</ele><time>2026-05-01T12:33:23.257Z</time></trkpt><trkpt lat="45.0393317" lon="6.18757"><ele>1099.0</ele><time>2026-05-01T12:33:25.256Z</time></trkpt><trkpt lat="45.0393517" lon="6.1873617"><ele>1099.0</ele><time>2026-05-01T12:33:26.256Z</time></trkpt><trkpt lat="45.03935" lon="6.1871583"><ele>1099.0</ele><time>2026-05-01T12:33:27.257Z</time></trkpt><trkpt lat="45.039325" lon="6.1869467"><ele>1099.0</ele><time>2026-05-01T12:33:28.257Z</time></trkpt><trkpt lat="45.03929" lon="6.186735"><ele>1099.0</ele><time>2026-05-01T12:33:29.257Z</time></trkpt><trkpt lat="45.039235" lon="6.1865433"><ele>1101.0</ele><time>2026-05-01T12:33:30.257Z</time></trkpt><trkpt lat="45.039165" lon="6.186345"><ele>1103.0</ele><time>2026-05-01T12:33:31.256Z</time></trkpt><trkpt lat="45.03911" lon="6.1861117"><ele>1105.0</ele><time>2026-05-01T12:33:32.257Z</time></trkpt><trkpt lat="45.0390633" lon="6.1858283"><ele>1092.5</ele><time>2026-05-01T12:33:33.256Z</time></trkpt><trkpt lat="45.0390333" lon="6.1855"><ele>1080.0</ele><time>2026-05-01T12:33:34.257Z</time></trkpt><trkpt lat="45.0390317" lon="6.18517"><ele>1080.0</ele><time>2026-05-01T12:33:35.257Z</time></trkpt><trkpt lat="45.0390133" lon="6.1848533"><ele>1080.0</ele><time>2026-05-01T12:33:36.256Z</time></trkpt><trkpt lat="45.0390067" lon="6.1845667"><ele>1080.0</ele><time>2026-05-01T12:33:37.256Z</time></trkpt><trkpt lat="45.0389983" lon="6.1843033"><ele>1080.6666666666667</ele><time>2026-05-01T12:33:38.256Z</time></trkpt><trkpt lat="45.038995" lon="6.184045"><ele>1081.3333333333335</ele><time>2026-05-01T12:33:39.256Z</time></trkpt><trkpt lat="45.0390233" lon="6.1838033"><ele>1082.0</ele><time>2026-05-01T12:33:40.256Z</time></trkpt><trkpt lat="45.0390617" lon="6.18357"><ele>1083.3333333333335</ele><time>2026-05-01T12:33:41.257Z</time></trkpt><trkpt lat="45.0390867" lon="6.18331"><ele>1084.6666666666667</ele><time>2026-05-01T12:33:42.257Z</time></trkpt><trkpt lat="45.039135" lon="6.1830583"><ele>1086.0</ele><time>2026-05-01T12:33:43.257Z</time></trkpt><trkpt lat="45.039175" lon="6.1828383"><ele>1086.0</ele><time>2026-05-01T12:33:44.257Z</time></trkpt><trkpt lat="45.0392633" lon="6.1824367"><ele>1086.0</ele><time>2026-05-01T12:33:46.257Z</time></trkpt><trkpt lat="45.039285" lon="6.1822233"><ele>1084.3333333333333</ele><time>2026-05-01T12:33:47.256Z</time></trkpt><trkpt lat="45.0392917" lon="6.1819917"><ele>1082.6666666666665</ele><time>2026-05-01T12:33:48.257Z</time></trkpt><trkpt lat="45.039255" lon="6.1817233"><ele>1081.0</ele><time>2026-05-01T12:33:49.257Z</time></trkpt><trkpt lat="45.0392367" lon="6.181455"><ele>1076.0</ele><time>2026-05-01T12:33:50.257Z</time></trkpt><trkpt lat="45.0392033" lon="6.181195"><ele>1071.0</ele><time>2026-05-01T12:33:51.256Z</time></trkpt><trkpt lat="45.0391983" lon="6.180965"><ele>1066.0</ele><time>2026-05-01T12:33:52.257Z</time></trkpt><trkpt lat="45.03921" lon="6.1807233"><ele>1065.3333333333333</ele><time>2026-05-01T12:33:53.257Z</time></trkpt><trkpt lat="45.0392567" lon="6.1804933"><ele>1064.6666666666667</ele><time>2026-05-01T12:33:54.257Z</time></trkpt><trkpt lat="45.0393" lon="6.1802317"><ele>1064.0</ele><time>2026-05-01T12:33:55.257Z</time></trkpt><trkpt lat="45.0393217" lon="6.1799517"><ele>1063.0</ele><time>2026-05-01T12:33:56.256Z</time></trkpt><trkpt lat="45.0393167" lon="6.1796567"><ele>1062.0</ele><time>2026-05-01T12:33:57.257Z</time></trkpt><trkpt lat="45.0393217" lon="6.1793883"><ele>1061.0</ele><time>2026-05-01T12:33:58.256Z</time></trkpt><trkpt lat="45.03933" lon="6.17913"><ele>1063.6666666666667</ele><time>2026-05-01T12:33:59.257Z</time></trkpt><trkpt lat="45.0393433" lon="6.178885"><ele>1066.3333333333333</ele><time>2026-05-01T12:34:00.256Z</time></trkpt><trkpt lat="45.03935" lon="6.1786683"><ele>1069.0</ele><time>2026-05-01T12:34:01.256Z</time></trkpt><trkpt lat="45.0393333" lon="6.178445"><ele>1069.0</ele><time>2026-05-01T12:34:02.256Z</time></trkpt><trkpt lat="45.039295" lon="6.1782333"><ele>1069.0</ele><time>2026-05-01T12:34:03.257Z</time></trkpt><trkpt lat="45.0392533" lon="6.17801"><ele>1069.0</ele><time>2026-05-01T12:34:04.256Z</time></trkpt><trkpt lat="45.03923" lon="6.1777933"><ele>1053.5</ele><time>2026-05-01T12:34:05.257Z</time></trkpt><trkpt lat="45.039235" lon="6.1773517"><ele>1038.0</ele><time>2026-05-01T12:34:07.257Z</time></trkpt><trkpt lat="45.0392867" lon="6.1771567"><ele>1038.0</ele><time>2026-05-01T12:34:08.257Z</time></trkpt><trkpt lat="45.0393667" lon="6.1769583"><ele>1038.0</ele><time>2026-05-01T12:34:09.256Z</time></trkpt><trkpt lat="45.0394483" lon="6.17678"><ele>1038.0</ele><time>2026-05-01T12:34:10.256Z</time></trkpt><trkpt lat="45.0395267" lon="6.1765967"><ele>1036.75</ele><time>2026-05-01T12:34:11.257Z</time></trkpt><trkpt lat="45.0396033" lon="6.176415"><ele>1035.5</ele><time>2026-05-01T12:34:12.257Z</time></trkpt><trkpt lat="45.0396733" lon="6.1762417"><ele>1034.25</ele><time>2026-05-01T12:34:13.257Z</time></trkpt><trkpt lat="45.0397483" lon="6.1760733"><ele>1033.0</ele><time>2026-05-01T12:34:14.257Z</time></trkpt><trkpt lat="45.0398317" lon="6.1759183"><ele>1033.0</ele><time>2026-05-01T12:34:15.256Z</time></trkpt><trkpt lat="45.0399083" lon="6.17575"><ele>1033.0</ele><time>2026-05-01T12:34:16.257Z</time></trkpt><trkpt lat="45.0399867" lon="6.1755833"><ele>1033.0</ele><time>2026-05-01T12:34:17.257Z</time></trkpt><trkpt lat="45.040055" lon="6.1754083"><ele>1033.0</ele><time>2026-05-01T12:34:18.257Z</time></trkpt><trkpt lat="45.040115" lon="6.1752217"><ele>1034.25</ele><time>2026-05-01T12:34:19.256Z</time></trkpt><trkpt lat="45.04019" lon="6.1750433"><ele>1035.5</ele><time>2026-05-01T12:34:20.256Z</time></trkpt><trkpt lat="45.0402317" lon="6.17486"><ele>1036.75</ele><time>2026-05-01T12:34:21.257Z</time></trkpt><trkpt lat="45.0402817" lon="6.1746817"><ele>1038.0</ele><time>2026-05-01T12:34:22.257Z</time></trkpt><trkpt lat="45.0403333" lon="6.174495"><ele>1038.0</ele><time>2026-05-01T12:34:23.256Z</time></trkpt><trkpt lat="45.04039" lon="6.174305"><ele>1038.0</ele><time>2026-05-01T12:34:24.256Z</time></trkpt><trkpt lat="45.0405417" lon="6.1738617"><ele>1030.5</ele><time>2026-05-01T12:34:26.258Z</time></trkpt><trkpt lat="45.0407733" lon="6.17349"><ele>1023.0</ele><time>2026-05-01T12:34:28.259Z</time></trkpt><trkpt lat="45.0409333" lon="6.17333"><ele>1029.3333333333333</ele><time>2026-05-01T12:34:29.259Z</time></trkpt><trkpt lat="45.0411033" lon="6.173155"><ele>1035.6666666666665</ele><time>2026-05-01T12:34:30.259Z</time></trkpt><trkpt lat="45.041205" lon="6.1729667"><ele>1042.0</ele><time>2026-05-01T12:34:31.258Z</time></trkpt><trkpt lat="45.0413033" lon="6.1727733"><ele>1042.0</ele><time>2026-05-01T12:34:32.259Z</time></trkpt><trkpt lat="45.04139" lon="6.1725767"><ele>1042.0</ele><time>2026-05-01T12:34:33.259Z</time></trkpt><trkpt lat="45.0414817" lon="6.1723783"><ele>1042.0</ele><time>2026-05-01T12:34:34.258Z</time></trkpt><trkpt lat="45.0415783" lon="6.1721783"><ele>1040.6666666666665</ele><time>2026-05-01T12:34:35.259Z</time></trkpt><trkpt lat="45.0416317" lon="6.1719467"><ele>1039.3333333333333</ele><time>2026-05-01T12:34:36.259Z</time></trkpt><trkpt lat="45.041695" lon="6.171705"><ele>1038.0</ele><time>2026-05-01T12:34:37.259Z</time></trkpt><trkpt lat="45.0417333" lon="6.1714483"><ele>1044.6666666666667</ele><time>2026-05-01T12:34:38.259Z</time></trkpt><trkpt lat="45.041735" lon="6.1711733"><ele>1051.3333333333335</ele><time>2026-05-01T12:34:39.259Z</time></trkpt><trkpt lat="45.0417483" lon="6.1709067"><ele>1058.0</ele><time>2026-05-01T12:34:40.258Z</time></trkpt><trkpt lat="45.0417783" lon="6.170665"><ele>1058.0</ele><time>2026-05-01T12:34:41.259Z</time></trkpt><trkpt lat="45.0418233" lon="6.1704467"><ele>1058.0</ele><time>2026-05-01T12:34:42.258Z</time></trkpt><trkpt lat="45.0419" lon="6.1702683"><ele>1058.0</ele><time>2026-05-01T12:34:43.258Z</time></trkpt><trkpt lat="45.0420267" lon="6.17012"><ele>1058.0</ele><time>2026-05-01T12:34:44.258Z</time></trkpt><trkpt lat="45.0421333" lon="6.1699467"><ele>1058.0</ele><time>2026-05-01T12:34:45.259Z</time></trkpt><trkpt lat="45.0422483" lon="6.1697917"><ele>1058.0</ele><time>2026-05-01T12:34:46.259Z</time></trkpt><trkpt lat="45.042365" lon="6.1696367"><ele>1059.3333333333335</ele><time>2026-05-01T12:34:47.258Z</time></trkpt><trkpt lat="45.0425567" lon="6.1693183"><ele>1060.6666666666667</ele><time>2026-05-01T12:34:49.259Z</time></trkpt><trkpt lat="45.0426817" lon="6.169205"><ele>1062.0</ele><time>2026-05-01T12:34:50.259Z</time></trkpt><trkpt lat="45.0427883" lon="6.169085"><ele>1060.75</ele><time>2026-05-01T12:34:51.259Z</time></trkpt><trkpt lat="45.0428617" lon="6.1689717"><ele>1059.5</ele><time>2026-05-01T12:34:52.259Z</time></trkpt><trkpt lat="45.04292" lon="6.1688533"><ele>1058.25</ele><time>2026-05-01T12:34:53.259Z</time></trkpt><trkpt lat="45.0428933" lon="6.1686783"><ele>1057.0</ele><time>2026-05-01T12:34:54.258Z</time></trkpt><trkpt lat="45.0428583" lon="6.1684933"><ele>1057.0</ele><time>2026-05-01T12:34:55.259Z</time></trkpt><trkpt lat="45.0428267" lon="6.1682883"><ele>1057.0</ele><time>2026-05-01T12:34:56.258Z</time></trkpt><trkpt lat="45.042815" lon="6.1680733"><ele>1057.0</ele><time>2026-05-01T12:34:57.259Z</time></trkpt><trkpt lat="45.0427583" lon="6.167825"><ele>1056.3333333333333</ele><time>2026-05-01T12:34:58.258Z</time></trkpt><trkpt lat="45.0427183" lon="6.1675917"><ele>1055.6666666666667</ele><time>2026-05-01T12:34:59.259Z</time></trkpt><trkpt lat="45.0427183" lon="6.16738"><ele>1055.0</ele><time>2026-05-01T12:35:00.258Z</time></trkpt><trkpt lat="45.0427483" lon="6.1671733"><ele>1053.3333333333335</ele><time>2026-05-01T12:35:01.259Z</time></trkpt><trkpt lat="45.04279" lon="6.1669633"><ele>1051.6666666666667</ele><time>2026-05-01T12:35:02.259Z</time></trkpt><trkpt lat="45.0428667" lon="6.1667433"><ele>1050.0</ele><time>2026-05-01T12:35:03.259Z</time></trkpt><trkpt lat="45.04295" lon="6.16652"><ele>1045.3333333333333</ele><time>2026-05-01T12:35:04.258Z</time></trkpt><trkpt lat="45.0430267" lon="6.16628"><ele>1040.6666666666665</ele><time>2026-05-01T12:35:05.259Z</time></trkpt><trkpt lat="45.0430917" lon="6.1660283"><ele>1036.0</ele><time>2026-05-01T12:35:06.259Z</time></trkpt><trkpt lat="45.043145" lon="6.1657483"><ele>1028.5</ele><time>2026-05-01T12:35:07.258Z</time></trkpt><trkpt lat="45.0432033" lon="6.1655183"><ele>1021.0</ele><time>2026-05-01T12:35:08.259Z</time></trkpt><trkpt lat="45.0433617" lon="6.1650683"><ele>1030.3333333333333</ele><time>2026-05-01T12:35:10.259Z</time></trkpt><trkpt lat="45.0434467" lon="6.16481"><ele>1039.6666666666667</ele><time>2026-05-01T12:35:11.258Z</time></trkpt><trkpt lat="45.04356" lon="6.1645767"><ele>1049.0</ele><time>2026-05-01T12:35:12.259Z</time></trkpt><trkpt lat="45.043625" lon="6.1642767"><ele>1041.6666666666667</ele><time>2026-05-01T12:35:13.259Z</time></trkpt><trkpt lat="45.0437167" lon="6.16399"><ele>1034.3333333333333</ele><time>2026-05-01T12:35:14.259Z</time></trkpt><trkpt lat="45.04379" lon="6.1637117"><ele>1027.0</ele><time>2026-05-01T12:35:15.259Z</time></trkpt><trkpt lat="45.04383" lon="6.163405"><ele>1022.6666666666666</ele><time>2026-05-01T12:35:16.259Z</time></trkpt><trkpt lat="45.0438633" lon="6.16313"><ele>1018.3333333333333</ele><time>2026-05-01T12:35:17.259Z</time></trkpt><trkpt lat="45.0439117" lon="6.1629067"><ele>1014.0</ele><time>2026-05-01T12:35:18.259Z</time></trkpt><trkpt lat="45.04396" lon="6.162705"><ele>1014.0</ele><time>2026-05-01T12:35:19.259Z</time></trkpt><trkpt lat="45.044005" lon="6.1625283"><ele>1014.0</ele><time>2026-05-01T12:35:20.259Z</time></trkpt><trkpt lat="45.0440567" lon="6.1623967"><ele>1014.0</ele><time>2026-05-01T12:35:21.259Z</time></trkpt><trkpt lat="45.04412" lon="6.1622667"><ele>1014.0</ele><time>2026-05-01T12:35:22.259Z</time></trkpt><trkpt lat="45.0441683" lon="6.1621"><ele>1028.4</ele><time>2026-05-01T12:35:23.259Z</time></trkpt><trkpt lat="45.0442067" lon="6.1619733"><ele>1042.8000000000002</ele><time>2026-05-01T12:35:24.259Z</time></trkpt><trkpt lat="45.0442467" lon="6.1618617"><ele>1057.1999999999998</ele><time>2026-05-01T12:35:25.258Z</time></trkpt><trkpt lat="45.04424" lon="6.1617067"><ele>1071.6</ele><time>2026-05-01T12:35:26.259Z</time></trkpt><trkpt lat="45.0442033" lon="6.161555"><ele>1086.0</ele><time>2026-05-01T12:35:27.259Z</time></trkpt><trkpt lat="45.0441467" lon="6.1614117"><ele>1066.0</ele><time>2026-05-01T12:35:28.259Z</time></trkpt><trkpt lat="45.0440667" lon="6.1612667"><ele>1046.0</ele><time>2026-05-01T12:35:29.259Z</time></trkpt><trkpt lat="45.0439" lon="6.1609733"><ele>1026.0</ele><time>2026-05-01T12:35:31.259Z</time></trkpt><trkpt lat="45.043835" lon="6.1608083"><ele>1029.3333333333333</ele><time>2026-05-01T12:35:32.259Z</time></trkpt><trkpt lat="45.043795" lon="6.1606"><ele>1032.6666666666665</ele><time>2026-05-01T12:35:33.259Z</time></trkpt><trkpt lat="45.0437683" lon="6.16039"><ele>1036.0</ele><time>2026-05-01T12:35:34.259Z</time></trkpt><trkpt lat="45.04377" lon="6.16015"><ele>1036.0</ele><time>2026-05-01T12:35:35.259Z</time></trkpt><trkpt lat="45.0437817" lon="6.1599"><ele>1036.0</ele><time>2026-05-01T12:35:36.259Z</time></trkpt><trkpt lat="45.0437783" lon="6.1596533"><ele>1036.0</ele><time>2026-05-01T12:35:37.259Z</time></trkpt><trkpt lat="45.0437883" lon="6.15941"><ele>1035.0</ele><time>2026-05-01T12:35:38.259Z</time></trkpt><trkpt lat="45.0437867" lon="6.159165"><ele>1034.0</ele><time>2026-05-01T12:35:39.259Z</time></trkpt><trkpt lat="45.0437917" lon="6.15889"><ele>1033.0</ele><time>2026-05-01T12:35:40.258Z</time></trkpt><trkpt lat="45.04382" lon="6.1586433"><ele>1033.0</ele><time>2026-05-01T12:35:41.259Z</time></trkpt><trkpt lat="45.0438967" lon="6.1584"><ele>1033.0</ele><time>2026-05-01T12:35:42.259Z</time></trkpt><trkpt lat="45.0439567" lon="6.158135"><ele>1033.0</ele><time>2026-05-01T12:35:43.259Z</time></trkpt><trkpt lat="45.0440083" lon="6.1578933"><ele>1026.6666666666665</ele><time>2026-05-01T12:35:44.259Z</time></trkpt><trkpt lat="45.044045" lon="6.1576633"><ele>1020.3333333333333</ele><time>2026-05-01T12:35:45.259Z</time></trkpt><trkpt lat="45.044115" lon="6.157465"><ele>1014.0</ele><time>2026-05-01T12:35:46.259Z</time></trkpt><trkpt lat="45.0441617" lon="6.157275"><ele>1020.0</ele><time>2026-05-01T12:35:47.258Z</time></trkpt><trkpt lat="45.0442283" lon="6.1571267"><ele>1026.0</ele><time>2026-05-01T12:35:48.259Z</time></trkpt><trkpt lat="45.0442683" lon="6.1569417"><ele>1032.0</ele><time>2026-05-01T12:35:49.258Z</time></trkpt><trkpt lat="45.0443183" lon="6.156775"><ele>1038.0</ele><time>2026-05-01T12:35:50.259Z</time></trkpt><trkpt lat="45.0443917" lon="6.1565083"><ele>1038.0</ele><time>2026-05-01T12:35:52.259Z</time></trkpt><trkpt lat="45.044445" lon="6.156405"><ele>1038.0</ele><time>2026-05-01T12:35:53.259Z</time></trkpt><trkpt lat="45.0445133" lon="6.15633"><ele>1038.0</ele><time>2026-05-01T12:35:54.259Z</time></trkpt><trkpt lat="45.0445917" lon="6.156285"><ele>1038.0</ele><time>2026-05-01T12:35:55.259Z</time></trkpt><trkpt lat="45.0446867" lon="6.1562867"><ele>1038.0</ele><time>2026-05-01T12:35:56.259Z</time></trkpt><trkpt lat="45.0447967" lon="6.1563017"><ele>1038.0</ele><time>2026-05-01T12:35:57.259Z</time></trkpt><trkpt lat="45.0449" lon="6.15629"><ele>1038.0</ele><time>2026-05-01T12:35:58.259Z</time></trkpt><trkpt lat="45.0449983" lon="6.1562167"><ele>1038.0</ele><time>2026-05-01T12:35:59.259Z</time></trkpt><trkpt lat="45.0451" lon="6.1561317"><ele>1038.0</ele><time>2026-05-01T12:36:00.259Z</time></trkpt><trkpt lat="45.0452067" lon="6.1560183"><ele>1050.5</ele><time>2026-05-01T12:36:01.259Z</time></trkpt><trkpt lat="45.0452967" lon="6.1558817"><ele>1063.0</ele><time>2026-05-01T12:36:02.258Z</time></trkpt><trkpt lat="45.0453733" lon="6.15571"><ele>1075.5</ele><time>2026-05-01T12:36:03.258Z</time></trkpt><trkpt lat="45.0454417" lon="6.1555183"><ele>1088.0</ele><time>2026-05-01T12:36:04.258Z</time></trkpt><trkpt lat="45.045485" lon="6.1553117"><ele>1088.0</ele><time>2026-05-01T12:36:05.259Z</time></trkpt><trkpt lat="45.04553" lon="6.1551067"><ele>1088.0</ele><time>2026-05-01T12:36:06.259Z</time></trkpt><trkpt lat="45.0455983" lon="6.1549417"><ele>1088.0</ele><time>2026-05-01T12:36:07.259Z</time></trkpt><trkpt lat="45.0456683" lon="6.154775"><ele>1088.0</ele><time>2026-05-01T12:36:08.259Z</time></trkpt><trkpt lat="45.0457367" lon="6.1546083"><ele>1042.0</ele><time>2026-05-01T12:36:09.259Z</time></trkpt><trkpt lat="45.0480033" lon="6.1427967"><ele>1043.0</ele><time>2026-05-01T12:37:01.258Z</time></trkpt><trkpt lat="45.04782" lon="6.1423067"><ele>1044.0</ele><time>2026-05-01T12:37:03.258Z</time></trkpt><trkpt lat="45.0477683" lon="6.1420717"><ele>1044.0</ele><time>2026-05-01T12:37:04.259Z</time></trkpt><trkpt lat="45.0477633" lon="6.1419117"><ele>1044.0</ele><time>2026-05-01T12:37:05.259Z</time></trkpt><trkpt lat="45.0477333" lon="6.1417617"><ele>1044.0</ele><time>2026-05-01T12:37:06.259Z</time></trkpt><trkpt lat="45.0477083" lon="6.1415817"><ele>1044.0</ele><time>2026-05-01T12:37:07.259Z</time></trkpt><trkpt lat="45.047675" lon="6.141405"><ele>1044.75</ele><time>2026-05-01T12:37:08.259Z</time></trkpt><trkpt lat="45.047645" lon="6.14123"><ele>1045.5</ele><time>2026-05-01T12:37:09.259Z</time></trkpt><trkpt lat="45.0476083" lon="6.1410783"><ele>1046.25</ele><time>2026-05-01T12:37:10.259Z</time></trkpt><trkpt lat="45.0475767" lon="6.14091"><ele>1047.0</ele><time>2026-05-01T12:37:11.259Z</time></trkpt><trkpt lat="45.0475667" lon="6.1407333"><ele>1050.0</ele><time>2026-05-01T12:37:12.258Z</time></trkpt><trkpt lat="45.0475567" lon="6.1405517"><ele>1053.0</ele><time>2026-05-01T12:37:13.258Z</time></trkpt><trkpt lat="45.047545" lon="6.14038"><ele>1056.0</ele><time>2026-05-01T12:37:14.259Z</time></trkpt><trkpt lat="45.0475367" lon="6.1402017"><ele>1059.0</ele><time>2026-05-01T12:37:15.259Z</time></trkpt><trkpt lat="45.0475267" lon="6.140015"><ele>1059.75</ele><time>2026-05-01T12:37:16.259Z</time></trkpt><trkpt lat="45.0475167" lon="6.1398317"><ele>1060.5</ele><time>2026-05-01T12:37:17.259Z</time></trkpt><trkpt lat="45.0475" lon="6.1396483"><ele>1061.25</ele><time>2026-05-01T12:37:18.258Z</time></trkpt><trkpt lat="45.0474533" lon="6.1394667"><ele>1062.0</ele><time>2026-05-01T12:37:19.259Z</time></trkpt><trkpt lat="45.0473967" lon="6.1392783"><ele>1044.0</ele><time>2026-05-01T12:37:20.258Z</time></trkpt><trkpt lat="45.0473433" lon="6.1391067"><ele>1026.0</ele><time>2026-05-01T12:37:21.259Z</time></trkpt><trkpt lat="45.04728" lon="6.138955"><ele>1008.0</ele><time>2026-05-01T12:37:22.259Z</time></trkpt><trkpt lat="45.047165" lon="6.1386633"><ele>1007.5999999999999</ele><time>2026-05-01T12:37:24.259Z</time></trkpt><trkpt lat="45.0471433" lon="6.13852"><ele>1007.1999999999999</ele><time>2026-05-01T12:37:25.259Z</time></trkpt><trkpt lat="45.0471183" lon="6.1383683"><ele>1006.8</ele><time>2026-05-01T12:37:26.259Z</time></trkpt><trkpt lat="45.0470983" lon="6.138245"><ele>1006.4</ele><time>2026-05-01T12:37:27.259Z</time></trkpt><trkpt lat="45.0470733" lon="6.1381483"><ele>1006.0</ele><time>2026-05-01T12:37:28.259Z</time></trkpt><trkpt lat="45.0470033" lon="6.13801"><ele>1006.0</ele><time>2026-05-01T12:37:30.258Z</time></trkpt><trkpt lat="45.046945" lon="6.13796"><ele>1005.9999999999999</ele><time>2026-05-01T12:37:31.259Z</time></trkpt><trkpt lat="45.0468617" lon="6.1379367"><ele>1005.9999999999999</ele><time>2026-05-01T12:37:32.259Z</time></trkpt><trkpt lat="45.046765" lon="6.1379233"><ele>1006.0</ele><time>2026-05-01T12:37:33.258Z</time></trkpt><trkpt lat="45.0466583" lon="6.1379167"><ele>1006.0</ele><time>2026-05-01T12:37:34.259Z</time></trkpt><trkpt lat="45.0465517" lon="6.137905"><ele>1004.4</ele><time>2026-05-01T12:37:35.259Z</time></trkpt><trkpt lat="45.0464583" lon="6.137905"><ele>1002.8</ele><time>2026-05-01T12:37:36.259Z</time></trkpt><trkpt lat="45.046365" lon="6.137905"><ele>1001.1999999999999</ele><time>2026-05-01T12:37:37.258Z</time></trkpt><trkpt lat="45.0462767" lon="6.137895"><ele>999.5999999999999</ele><time>2026-05-01T12:37:38.259Z</time></trkpt><trkpt lat="45.046185" lon="6.137875"><ele>998.0</ele><time>2026-05-01T12:37:39.259Z</time></trkpt><trkpt lat="45.0460933" lon="6.1378567"><ele>998.0</ele><time>2026-05-01T12:37:40.259Z</time></trkpt><trkpt lat="45.0459983" lon="6.13784"><ele>998.0</ele><time>2026-05-01T12:37:41.258Z</time></trkpt><trkpt lat="45.0458983" lon="6.1378267"><ele>998.0</ele><time>2026-05-01T12:37:42.259Z</time></trkpt><trkpt lat="45.04581" lon="6.137795"><ele>998.0</ele><time>2026-05-01T12:37:43.258Z</time></trkpt><trkpt lat="45.0456183" lon="6.137705"><ele>1002.75</ele><time>2026-05-01T12:37:45.259Z</time></trkpt><trkpt lat="45.045505" lon="6.1376417"><ele>1007.5</ele><time>2026-05-01T12:37:46.258Z</time></trkpt><trkpt lat="45.0454017" lon="6.1375383"><ele>1012.25</ele><time>2026-05-01T12:37:47.259Z</time></trkpt><trkpt lat="45.0453" lon="6.1374033"><ele>1017.0</ele><time>2026-05-01T12:37:48.258Z</time></trkpt><trkpt lat="45.0452183" lon="6.1372433"><ele>1020.0</ele><time>2026-05-01T12:37:49.258Z</time></trkpt><trkpt lat="45.0451583" lon="6.13708"><ele>1023.0</ele><time>2026-05-01T12:37:50.258Z</time></trkpt><trkpt lat="45.0451283" lon="6.1369217"><ele>1026.0</ele><time>2026-05-01T12:37:51.259Z</time></trkpt><trkpt lat="45.0451" lon="6.1367533"><ele>1029.0</ele><time>2026-05-01T12:37:52.259Z</time></trkpt><trkpt lat="45.0450933" lon="6.1365767"><ele>1034.75</ele><time>2026-05-01T12:37:53.259Z</time></trkpt><trkpt lat="45.0450933" lon="6.1363733"><ele>1040.5</ele><time>2026-05-01T12:37:54.259Z</time></trkpt><trkpt lat="45.0451067" lon="6.1361833"><ele>1046.25</ele><time>2026-05-01T12:37:55.259Z</time></trkpt><trkpt lat="45.045125" lon="6.1359933"><ele>1052.0</ele><time>2026-05-01T12:37:56.259Z</time></trkpt><trkpt lat="45.0451517" lon="6.135795"><ele>1060.0</ele><time>2026-05-01T12:37:57.259Z</time></trkpt><trkpt lat="45.0451983" lon="6.1356333"><ele>1068.0</ele><time>2026-05-01T12:37:58.258Z</time></trkpt><trkpt lat="45.0452433" lon="6.135485"><ele>1076.0</ele><time>2026-05-01T12:37:59.259Z</time></trkpt><trkpt lat="45.045325" lon="6.13536"><ele>1084.0</ele><time>2026-05-01T12:38:00.259Z</time></trkpt><trkpt lat="45.04544" lon="6.1352633"><ele>1084.0</ele><time>2026-05-01T12:38:01.259Z</time></trkpt><trkpt lat="45.04556" lon="6.1351717"><ele>1084.0</ele><time>2026-05-01T12:38:02.259Z</time></trkpt><trkpt lat="45.0456783" lon="6.135065"><ele>1084.0</ele><time>2026-05-01T12:38:03.258Z</time></trkpt><trkpt lat="45.0457917" lon="6.1349483"><ele>1084.0</ele><time>2026-05-01T12:38:04.259Z</time></trkpt><trkpt lat="45.046005" lon="6.13472"><ele>1080.0</ele><time>2026-05-01T12:38:06.259Z</time></trkpt><trkpt lat="45.04611" lon="6.13464"><ele>1076.0</ele><time>2026-05-01T12:38:07.259Z</time></trkpt><trkpt lat="45.0462117" lon="6.1345733"><ele>1072.0</ele><time>2026-05-01T12:38:08.259Z</time></trkpt><trkpt lat="45.0463067" lon="6.1345167"><ele>1068.0</ele><time>2026-05-01T12:38:09.258Z</time></trkpt><trkpt lat="45.046405" lon="6.1344283"><ele>1068.0</ele><time>2026-05-01T12:38:10.259Z</time></trkpt><trkpt lat="45.0465117" lon="6.1343083"><ele>1068.0</ele><time>2026-05-01T12:38:11.259Z</time></trkpt><trkpt lat="45.0465933" lon="6.13416"><ele>1068.0</ele><time>2026-05-01T12:38:12.259Z</time></trkpt><trkpt lat="45.0466617" lon="6.1339733"><ele>1068.0</ele><time>2026-05-01T12:38:13.258Z</time></trkpt><trkpt lat="45.0467417" lon="6.13379"><ele>1062.5</ele><time>2026-05-01T12:38:14.259Z</time></trkpt><trkpt lat="45.0468033" lon="6.133605"><ele>1057.0</ele><time>2026-05-01T12:38:15.259Z</time></trkpt><trkpt lat="45.0468533" lon="6.1334317"><ele>1051.5</ele><time>2026-05-01T12:38:16.259Z</time></trkpt><trkpt lat="45.0469067" lon="6.1332517"><ele>1046.0</ele><time>2026-05-01T12:38:17.259Z</time></trkpt><trkpt lat="45.0469533" lon="6.1330783"><ele>1043.5</ele><time>2026-05-01T12:38:18.259Z</time></trkpt><trkpt lat="45.0470083" lon="6.1328917"><ele>1041.0</ele><time>2026-05-01T12:38:19.258Z</time></trkpt><trkpt lat="45.0470567" lon="6.1326883"><ele>1038.5</ele><time>2026-05-01T12:38:20.259Z</time></trkpt><trkpt lat="45.0470617" lon="6.1324783"><ele>1036.0</ele><time>2026-05-01T12:38:21.258Z</time></trkpt><trkpt lat="45.047" lon="6.1323083"><ele>1034.75</ele><time>2026-05-01T12:38:22.259Z</time></trkpt><trkpt lat="45.046955" lon="6.1322217"><ele>1033.5</ele><time>2026-05-01T12:38:23.259Z</time></trkpt><trkpt lat="45.0468783" lon="6.132135"><ele>1032.25</ele><time>2026-05-01T12:38:24.259Z</time></trkpt><trkpt lat="45.0467983" lon="6.132085"><ele>1031.0</ele><time>2026-05-01T12:38:25.259Z</time></trkpt><trkpt lat="45.0465967" lon="6.1320333"><ele>1031.0</ele><time>2026-05-01T12:38:27.259Z</time></trkpt><trkpt lat="45.046465" lon="6.13201"><ele>1031.0</ele><time>2026-05-01T12:38:28.259Z</time></trkpt><trkpt lat="45.0463317" lon="6.1319617"><ele>1031.0</ele><time>2026-05-01T12:38:29.259Z</time></trkpt><trkpt lat="45.0462233" lon="6.13184"><ele>1031.0</ele><time>2026-05-01T12:38:30.259Z</time></trkpt><trkpt lat="45.0460983" lon="6.1317417"><ele>1031.0</ele><time>2026-05-01T12:38:31.259Z</time></trkpt><trkpt lat="45.0459767" lon="6.1316067"><ele>1031.0</ele><time>2026-05-01T12:38:32.258Z</time></trkpt><trkpt lat="45.045855" lon="6.1314733"><ele>1031.0</ele><time>2026-05-01T12:38:33.259Z</time></trkpt><trkpt lat="45.0457483" lon="6.1313233"><ele>1032.0</ele><time>2026-05-01T12:38:34.259Z</time></trkpt><trkpt lat="45.0456617" lon="6.1310717"><ele>1033.0</ele><time>2026-05-01T12:38:35.259Z</time></trkpt><trkpt lat="45.045565" lon="6.1308833"><ele>1034.0</ele><time>2026-05-01T12:38:36.258Z</time></trkpt><trkpt lat="45.045455" lon="6.130715"><ele>1025.6666666666667</ele><time>2026-05-01T12:38:37.258Z</time></trkpt><trkpt lat="45.0453217" lon="6.1305567"><ele>1017.3333333333333</ele><time>2026-05-01T12:38:38.258Z</time></trkpt><trkpt lat="45.0451817" lon="6.1303983"><ele>1009.0</ele><time>2026-05-01T12:38:39.259Z</time></trkpt><trkpt lat="45.0449983" lon="6.13026"><ele>1005.3333333333333</ele><time>2026-05-01T12:38:40.258Z</time></trkpt><trkpt lat="45.044825" lon="6.1301133"><ele>1001.6666666666667</ele><time>2026-05-01T12:38:41.258Z</time></trkpt><trkpt lat="45.0446433" lon="6.12995"><ele>998.0</ele><time>2026-05-01T12:38:42.259Z</time></trkpt><trkpt lat="45.0444517" lon="6.129795"><ele>998.0</ele><time>2026-05-01T12:38:43.259Z</time></trkpt><trkpt lat="45.044235" lon="6.1296233"><ele>998.0</ele><time>2026-05-01T12:38:44.259Z</time></trkpt><trkpt lat="45.0440233" lon="6.1294633"><ele>1005.0</ele><time>2026-05-01T12:38:45.258Z</time></trkpt><trkpt lat="45.04381" lon="6.129325"><ele>1012.0</ele><time>2026-05-01T12:38:46.258Z</time></trkpt><trkpt lat="45.0434633" lon="6.1289783"><ele>1010.3333333333333</ele><time>2026-05-01T12:38:48.259Z</time></trkpt><trkpt lat="45.043315" lon="6.128805"><ele>1008.6666666666667</ele><time>2026-05-01T12:38:49.258Z</time></trkpt><trkpt lat="45.0431683" lon="6.12865"><ele>1007.0</ele><time>2026-05-01T12:38:50.259Z</time></trkpt><trkpt lat="45.0430067" lon="6.128505"><ele>1007.0</ele><time>2026-05-01T12:38:51.258Z</time></trkpt><trkpt lat="45.0428333" lon="6.12839"><ele>1007.0</ele><time>2026-05-01T12:38:52.259Z</time></trkpt><trkpt lat="45.0426733" lon="6.1282617"><ele>1007.0</ele><time>2026-05-01T12:38:53.259Z</time></trkpt><trkpt lat="45.0424683" lon="6.12814"><ele>1005.6666666666667</ele><time>2026-05-01T12:38:54.259Z</time></trkpt><trkpt lat="45.0423067" lon="6.1279983"><ele>1004.3333333333333</ele><time>2026-05-01T12:38:55.259Z</time></trkpt><trkpt lat="45.0421567" lon="6.1278433"><ele>1003.0</ele><time>2026-05-01T12:38:56.259Z</time></trkpt><trkpt lat="45.0419983" lon="6.127665"><ele>1003.0</ele><time>2026-05-01T12:38:57.259Z</time></trkpt><trkpt lat="45.0418117" lon="6.12748"><ele>1003.0</ele><time>2026-05-01T12:38:58.259Z</time></trkpt><trkpt lat="45.04165" lon="6.1273083"><ele>1003.0</ele><time>2026-05-01T12:38:59.259Z</time></trkpt><trkpt lat="45.0414683" lon="6.1271433"><ele>1003.6666666666666</ele><time>2026-05-01T12:39:00.259Z</time></trkpt><trkpt lat="45.0412933" lon="6.126995"><ele>1004.3333333333333</ele><time>2026-05-01T12:39:01.259Z</time></trkpt><trkpt lat="45.0411483" lon="6.1268517"><ele>1005.0</ele><time>2026-05-01T12:39:02.259Z</time></trkpt><trkpt lat="45.0410067" lon="6.1267033"><ele>1010.0</ele><time>2026-05-01T12:39:03.259Z</time></trkpt><trkpt lat="45.0408817" lon="6.1265383"><ele>1015.0</ele><time>2026-05-01T12:39:04.259Z</time></trkpt><trkpt lat="45.0407867" lon="6.1263467"><ele>1020.0</ele><time>2026-05-01T12:39:05.258Z</time></trkpt><trkpt lat="45.04068" lon="6.1261583"><ele>1020.0</ele><time>2026-05-01T12:39:06.258Z</time></trkpt><trkpt lat="45.040585" lon="6.1259617"><ele>1020.0</ele><time>2026-05-01T12:39:07.259Z</time></trkpt><trkpt lat="45.0404683" lon="6.1255367"><ele>1014.25</ele><time>2026-05-01T12:39:09.259Z</time></trkpt><trkpt lat="45.0404367" lon="6.1253183"><ele>1008.5</ele><time>2026-05-01T12:39:10.259Z</time></trkpt><trkpt lat="45.0404083" lon="6.1251283"><ele>1002.75</ele><time>2026-05-01T12:39:11.259Z</time></trkpt><trkpt lat="45.0403883" lon="6.124975"><ele>997.0</ele><time>2026-05-01T12:39:12.259Z</time></trkpt><trkpt lat="45.0404117" lon="6.1248333"><ele>996.4999999999999</ele><time>2026-05-01T12:39:13.258Z</time></trkpt><trkpt lat="45.0404283" lon="6.12469"><ele>996.0</ele><time>2026-05-01T12:39:14.259Z</time></trkpt><trkpt lat="45.0404467" lon="6.1245567"><ele>995.5</ele><time>2026-05-01T12:39:15.259Z</time></trkpt><trkpt lat="45.0404917" lon="6.1244467"><ele>995.0</ele><time>2026-05-01T12:39:16.259Z</time></trkpt><trkpt lat="45.0405333" lon="6.1243583"><ele>994.4999999999999</ele><time>2026-05-01T12:39:17.259Z</time></trkpt><trkpt lat="45.04059" lon="6.1243017"><ele>994.0</ele><time>2026-05-01T12:39:18.259Z</time></trkpt><trkpt lat="45.0406967" lon="6.1243433"><ele>994.0</ele><time>2026-05-01T12:39:20.259Z</time></trkpt><trkpt lat="45.0407617" lon="6.12457"><ele>994.0</ele><time>2026-05-01T12:39:22.258Z</time></trkpt><trkpt lat="45.0408167" lon="6.1247817"><ele>994.0</ele><time>2026-05-01T12:39:23.259Z</time></trkpt><trkpt lat="45.0408333" lon="6.1250017"><ele>990.5</ele><time>2026-05-01T12:39:24.259Z</time></trkpt><trkpt lat="45.0408517" lon="6.1251967"><ele>987.0</ele><time>2026-05-01T12:39:25.259Z</time></trkpt><trkpt lat="45.040865" lon="6.1253667"><ele>983.5</ele><time>2026-05-01T12:39:26.259Z</time></trkpt><trkpt lat="45.0409033" lon="6.1255483"><ele>980.0</ele><time>2026-05-01T12:39:27.259Z</time></trkpt><trkpt lat="45.0409933" lon="6.1257817"><ele>980.0</ele><time>2026-05-01T12:39:28.258Z</time></trkpt><trkpt lat="45.0412833" lon="6.1262617"><ele>980.0</ele><time>2026-05-01T12:39:30.258Z</time></trkpt><trkpt lat="45.0414183" lon="6.1264033"><ele>980.0</ele><time>2026-05-01T12:39:31.259Z</time></trkpt><trkpt lat="45.04158" lon="6.1265183"><ele>980.0</ele><time>2026-05-01T12:39:32.258Z</time></trkpt><trkpt lat="45.041745" lon="6.126625"><ele>980.0</ele><time>2026-05-01T12:39:33.259Z</time></trkpt><trkpt lat="45.04192" lon="6.1267183"><ele>977.0</ele><time>2026-05-01T12:39:34.259Z</time></trkpt><trkpt lat="45.042125" lon="6.1267983"><ele>974.0</ele><time>2026-05-01T12:39:35.259Z</time></trkpt><trkpt lat="45.0422867" lon="6.1268733"><ele>971.0</ele><time>2026-05-01T12:39:36.259Z</time></trkpt><trkpt lat="45.0424333" lon="6.126965"><ele>967.0</ele><time>2026-05-01T12:39:37.259Z</time></trkpt><trkpt lat="45.0425683" lon="6.1270667"><ele>963.0</ele><time>2026-05-01T12:39:38.259Z</time></trkpt><trkpt lat="45.042695" lon="6.127155"><ele>959.0</ele><time>2026-05-01T12:39:39.259Z</time></trkpt><trkpt lat="45.0428083" lon="6.1272533"><ele>955.0</ele><time>2026-05-01T12:39:40.258Z</time></trkpt><trkpt lat="45.0428567" lon="6.1273383"><ele>955.25</ele><time>2026-05-01T12:39:41.259Z</time></trkpt><trkpt lat="45.0429617" lon="6.1273983"><ele>955.5</ele><time>2026-05-01T12:39:42.259Z</time></trkpt><trkpt lat="45.0430833" lon="6.1274317"><ele>955.75</ele><time>2026-05-01T12:39:43.259Z</time></trkpt><trkpt lat="45.0432367" lon="6.12744"><ele>956.0</ele><time>2026-05-01T12:39:44.258Z</time></trkpt><trkpt lat="45.0433833" lon="6.1274633"><ele>956.0</ele><time>2026-05-01T12:39:45.258Z</time></trkpt><trkpt lat="45.0435317" lon="6.1274867"><ele>956.0</ele><time>2026-05-01T12:39:46.258Z</time></trkpt><trkpt lat="45.04369" lon="6.1275067"><ele>956.0</ele><time>2026-05-01T12:39:47.259Z</time></trkpt><trkpt lat="45.0438367" lon="6.1275267"><ele>956.0</ele><time>2026-05-01T12:39:48.259Z</time></trkpt><trkpt lat="45.0439617" lon="6.1275417"><ele>956.0</ele><time>2026-05-01T12:39:49.259Z</time></trkpt><trkpt lat="45.0441883" lon="6.1275567"><ele>956.0</ele><time>2026-05-01T12:39:51.258Z</time></trkpt><trkpt lat="45.0442917" lon="6.1275533"><ele>956.0</ele><time>2026-05-01T12:39:52.259Z</time></trkpt><trkpt lat="45.0443967" lon="6.1275567"><ele>955.9999999999999</ele><time>2026-05-01T12:39:53.259Z</time></trkpt><trkpt lat="45.0444917" lon="6.127545"><ele>955.9999999999999</ele><time>2026-05-01T12:39:54.259Z</time></trkpt><trkpt lat="45.0445867" lon="6.1275333"><ele>956.0</ele><time>2026-05-01T12:39:55.259Z</time></trkpt><trkpt lat="45.0446817" lon="6.1275233"><ele>956.0</ele><time>2026-05-01T12:39:56.259Z</time></trkpt><trkpt lat="45.0447883" lon="6.1275133"><ele>956.0</ele><time>2026-05-01T12:39:57.259Z</time></trkpt><trkpt lat="45.0448967" lon="6.1275017"><ele>955.9999999999999</ele><time>2026-05-01T12:39:58.259Z</time></trkpt><trkpt lat="45.0449983" lon="6.1274967"><ele>955.9999999999999</ele><time>2026-05-01T12:39:59.259Z</time></trkpt><trkpt lat="45.0451067" lon="6.1274917"><ele>956.0</ele><time>2026-05-01T12:40:00.258Z</time></trkpt><trkpt lat="45.0452133" lon="6.1274867"><ele>956.0</ele><time>2026-05-01T12:40:01.259Z</time></trkpt><trkpt lat="45.045315" lon="6.12747"><ele>954.1999999999999</ele><time>2026-05-01T12:40:02.259Z</time></trkpt><trkpt lat="45.0454083" lon="6.1274417"><ele>952.3999999999999</ele><time>2026-05-01T12:40:03.259Z</time></trkpt><trkpt lat="45.0454983" lon="6.1273983"><ele>950.6</ele><time>2026-05-01T12:40:04.259Z</time></trkpt><trkpt lat="45.0455767" lon="6.12733"><ele>948.8</ele><time>2026-05-01T12:40:05.259Z</time></trkpt><trkpt lat="45.04566" lon="6.1272433"><ele>947.0</ele><time>2026-05-01T12:40:06.258Z</time></trkpt><trkpt lat="45.0457333" lon="6.1271233"><ele>943.5</ele><time>2026-05-01T12:40:07.259Z</time></trkpt><trkpt lat="45.0457617" lon="6.1269633"><ele>940.0</ele><time>2026-05-01T12:40:08.259Z</time></trkpt><trkpt lat="45.04576" lon="6.12678"><ele>936.5</ele><time>2026-05-01T12:40:09.259Z</time></trkpt><trkpt lat="45.0457467" lon="6.1266283"><ele>933.0</ele><time>2026-05-01T12:40:10.259Z</time></trkpt><trkpt lat="45.045635" lon="6.1263183"><ele>932.5</ele><time>2026-05-01T12:40:12.259Z</time></trkpt><trkpt lat="45.0455233" lon="6.1261567"><ele>932.0</ele><time>2026-05-01T12:40:13.258Z</time></trkpt><trkpt lat="45.0454233" lon="6.1260017"><ele>931.5</ele><time>2026-05-01T12:40:14.259Z</time></trkpt><trkpt lat="45.0453517" lon="6.1258583"><ele>931.0</ele><time>2026-05-01T12:40:15.258Z</time></trkpt><trkpt lat="45.0452933" lon="6.1257267"><ele>930.1999999999999</ele><time>2026-05-01T12:40:16.259Z</time></trkpt><trkpt lat="45.0452417" lon="6.1255983"><ele>929.3999999999999</ele><time>2026-05-01T12:40:17.259Z</time></trkpt><trkpt lat="45.0451717" lon="6.1254533"><ele>928.6</ele><time>2026-05-01T12:40:18.259Z</time></trkpt><trkpt lat="45.04512" lon="6.1253383"><ele>927.8</ele><time>2026-05-01T12:40:19.259Z</time></trkpt><trkpt lat="45.0450533" lon="6.1252533"><ele>927.0</ele><time>2026-05-01T12:40:20.259Z</time></trkpt><trkpt lat="45.044965" lon="6.1251617"><ele>928.0</ele><time>2026-05-01T12:40:21.259Z</time></trkpt><trkpt lat="45.04486" lon="6.1250933"><ele>929.0</ele><time>2026-05-01T12:40:22.259Z</time></trkpt><trkpt lat="45.044745" lon="6.1250483"><ele>930.0</ele><time>2026-05-01T12:40:23.259Z</time></trkpt><trkpt lat="45.0446367" lon="6.125015"><ele>931.0</ele><time>2026-05-01T12:40:24.258Z</time></trkpt><trkpt lat="45.0445367" lon="6.124975"><ele>931.0</ele><time>2026-05-01T12:40:25.259Z</time></trkpt><trkpt lat="45.044445" lon="6.1249333"><ele>930.9999999999999</ele><time>2026-05-01T12:40:26.259Z</time></trkpt><trkpt lat="45.0443617" lon="6.1248933"><ele>930.9999999999999</ele><time>2026-05-01T12:40:27.259Z</time></trkpt><trkpt lat="45.0442767" lon="6.124865"><ele>931.0</ele><time>2026-05-01T12:40:28.258Z</time></trkpt><trkpt lat="45.0441883" lon="6.1248283"><ele>931.0</ele><time>2026-05-01T12:40:29.258Z</time></trkpt><trkpt lat="45.0440983" lon="6.1248017"><ele>929.25</ele><time>2026-05-01T12:40:30.259Z</time></trkpt><trkpt lat="45.0440067" lon="6.1247667"><ele>927.5</ele><time>2026-05-01T12:40:31.259Z</time></trkpt><trkpt lat="45.043815" lon="6.1246767"><ele>925.75</ele><time>2026-05-01T12:40:33.259Z</time></trkpt><trkpt lat="45.0437333" lon="6.1246117"><ele>924.0</ele><time>2026-05-01T12:40:34.259Z</time></trkpt><trkpt lat="45.0436283" lon="6.1245433"><ele>924.0</ele><time>2026-05-01T12:40:35.259Z</time></trkpt><trkpt lat="45.0435083" lon="6.12448"><ele>924.0</ele><time>2026-05-01T12:40:36.259Z</time></trkpt><trkpt lat="45.04338" lon="6.1244217"><ele>924.0</ele><time>2026-05-01T12:40:37.259Z</time></trkpt><trkpt lat="45.0432533" lon="6.12437"><ele>924.0</ele><time>2026-05-01T12:40:38.258Z</time></trkpt><trkpt lat="45.04312" lon="6.1243283"><ele>925.5</ele><time>2026-05-01T12:40:39.259Z</time></trkpt><trkpt lat="45.0429883" lon="6.1242883"><ele>927.0</ele><time>2026-05-01T12:40:40.259Z</time></trkpt><trkpt lat="45.0428667" lon="6.1242383"><ele>928.5</ele><time>2026-05-01T12:40:41.259Z</time></trkpt><trkpt lat="45.042755" lon="6.1241517"><ele>930.0</ele><time>2026-05-01T12:40:42.259Z</time></trkpt><trkpt lat="45.042655" lon="6.12405"><ele>930.0</ele><time>2026-05-01T12:40:43.259Z</time></trkpt><trkpt lat="45.0425683" lon="6.1239283"><ele>930.0</ele><time>2026-05-01T12:40:44.258Z</time></trkpt><trkpt lat="45.0424967" lon="6.1237533"><ele>930.0</ele><time>2026-05-01T12:40:45.259Z</time></trkpt><trkpt lat="45.0424433" lon="6.1235567"><ele>930.0</ele><time>2026-05-01T12:40:46.259Z</time></trkpt><trkpt lat="45.0423983" lon="6.1233517"><ele>931.25</ele><time>2026-05-01T12:40:47.259Z</time></trkpt><trkpt lat="45.0423867" lon="6.1231417"><ele>932.5</ele><time>2026-05-01T12:40:48.258Z</time></trkpt><trkpt lat="45.0424017" lon="6.122945"><ele>933.75</ele><time>2026-05-01T12:40:49.259Z</time></trkpt><trkpt lat="45.04244" lon="6.1227417"><ele>935.0</ele><time>2026-05-01T12:40:50.259Z</time></trkpt><trkpt lat="45.04249" lon="6.12254"><ele>938.6666666666667</ele><time>2026-05-01T12:40:51.258Z</time></trkpt><trkpt lat="45.0425567" lon="6.1223617"><ele>942.3333333333333</ele><time>2026-05-01T12:40:52.259Z</time></trkpt><trkpt lat="45.04266" lon="6.1220267"><ele>946.0</ele><time>2026-05-01T12:40:54.258Z</time></trkpt><trkpt lat="45.0426767" lon="6.12186"><ele>946.0</ele><time>2026-05-01T12:40:55.259Z</time></trkpt><trkpt lat="45.04266" lon="6.1216633"><ele>946.0</ele><time>2026-05-01T12:40:56.258Z</time></trkpt><trkpt lat="45.04264" lon="6.1214667"><ele>946.0</ele><time>2026-05-01T12:40:57.259Z</time></trkpt><trkpt lat="45.0426033" lon="6.1212667"><ele>946.0</ele><time>2026-05-01T12:40:58.259Z</time></trkpt><trkpt lat="45.04256" lon="6.1210783"><ele>942.5</ele><time>2026-05-01T12:40:59.259Z</time></trkpt><trkpt lat="45.0425067" lon="6.1209033"><ele>939.0</ele><time>2026-05-01T12:41:00.259Z</time></trkpt><trkpt lat="45.0424233" lon="6.1207433"><ele>935.5</ele><time>2026-05-01T12:41:01.259Z</time></trkpt><trkpt lat="45.0423517" lon="6.1206"><ele>932.0</ele><time>2026-05-01T12:41:02.259Z</time></trkpt><trkpt lat="45.04227" lon="6.12048"><ele>931.75</ele><time>2026-05-01T12:41:03.259Z</time></trkpt><trkpt lat="45.0421633" lon="6.1203933"><ele>931.5</ele><time>2026-05-01T12:41:04.259Z</time></trkpt><trkpt lat="45.0420433" lon="6.1203317"><ele>931.25</ele><time>2026-05-01T12:41:05.259Z</time></trkpt><trkpt lat="45.0419283" lon="6.120285"><ele>931.0</ele><time>2026-05-01T12:41:06.259Z</time></trkpt><trkpt lat="45.04182" lon="6.1202333"><ele>931.0</ele><time>2026-05-01T12:41:07.258Z</time></trkpt><trkpt lat="45.0417117" lon="6.120165"><ele>931.0</ele><time>2026-05-01T12:41:08.259Z</time></trkpt><trkpt lat="45.0416017" lon="6.120075"><ele>931.0</ele><time>2026-05-01T12:41:09.259Z</time></trkpt><trkpt lat="45.041505" lon="6.11996"><ele>931.0</ele><time>2026-05-01T12:41:10.259Z</time></trkpt><trkpt lat="45.0414083" lon="6.1198067"><ele>938.0</ele><time>2026-05-01T12:41:11.258Z</time></trkpt><trkpt lat="45.04133" lon="6.1196483"><ele>945.0</ele><time>2026-05-01T12:41:12.259Z</time></trkpt><trkpt lat="45.0412283" lon="6.119495"><ele>952.0</ele><time>2026-05-01T12:41:13.259Z</time></trkpt><trkpt lat="45.040975" lon="6.1192517"><ele>952.0</ele><time>2026-05-01T12:41:15.259Z</time></trkpt><trkpt lat="45.0408483" lon="6.1191083"><ele>952.0</ele><time>2026-05-01T12:41:16.258Z</time></trkpt><trkpt lat="45.0407283" lon="6.1189783"><ele>952.0</ele><time>2026-05-01T12:41:17.259Z</time></trkpt><trkpt lat="45.0406083" lon="6.1188583"><ele>958.3333333333333</ele><time>2026-05-01T12:41:18.259Z</time></trkpt><trkpt lat="45.0404883" lon="6.1187433"><ele>964.6666666666667</ele><time>2026-05-01T12:41:19.259Z</time></trkpt><trkpt lat="45.040375" lon="6.1186"><ele>971.0</ele><time>2026-05-01T12:41:20.259Z</time></trkpt><trkpt lat="45.0402417" lon="6.1184617"><ele>971.0</ele><time>2026-05-01T12:41:21.259Z</time></trkpt><trkpt lat="45.04013" lon="6.11829"><ele>971.0</ele><time>2026-05-01T12:41:22.259Z</time></trkpt><trkpt lat="45.0399933" lon="6.1180883"><ele>971.0</ele><time>2026-05-01T12:41:23.258Z</time></trkpt><trkpt lat="45.0399" lon="6.1178183"><ele>1019.6666666666667</ele><time>2026-05-01T12:41:24.259Z</time></trkpt><trkpt lat="45.0398283" lon="6.1175467"><ele>1068.3333333333333</ele><time>2026-05-01T12:41:25.259Z</time></trkpt><trkpt lat="45.0397933" lon="6.1172633"><ele>1117.0</ele><time>2026-05-01T12:41:26.258Z</time></trkpt><trkpt lat="45.039795" lon="6.1169717"><ele>1117.0</ele><time>2026-05-01T12:41:27.259Z</time></trkpt><trkpt lat="45.0398" lon="6.116705"><ele>1117.0</ele><time>2026-05-01T12:41:28.259Z</time></trkpt><trkpt lat="45.039795" lon="6.116455"><ele>1117.0</ele><time>2026-05-01T12:41:29.259Z</time></trkpt><trkpt lat="45.0397983" lon="6.11621"><ele>1121.6666666666665</ele><time>2026-05-01T12:41:30.259Z</time></trkpt><trkpt lat="45.039825" lon="6.1159717"><ele>1126.3333333333333</ele><time>2026-05-01T12:41:31.259Z</time></trkpt><trkpt lat="45.0398367" lon="6.1157483"><ele>1131.0</ele><time>2026-05-01T12:41:32.259Z</time></trkpt><trkpt lat="45.0398483" lon="6.11552"><ele>1131.0</ele><time>2026-05-01T12:41:33.259Z</time></trkpt><trkpt lat="45.0398333" lon="6.1152917"><ele>1131.0</ele><time>2026-05-01T12:41:34.259Z</time></trkpt><trkpt lat="45.0397967" lon="6.1148633"><ele>1131.0</ele><time>2026-05-01T12:41:36.258Z</time></trkpt><trkpt lat="45.039775" lon="6.1146683"><ele>1131.0</ele><time>2026-05-01T12:41:37.259Z</time></trkpt><trkpt lat="45.0397633" lon="6.1144817"><ele>1131.0</ele><time>2026-05-01T12:41:38.259Z</time></trkpt><trkpt lat="45.03974" lon="6.1142933"><ele>1131.0</ele><time>2026-05-01T12:41:39.258Z</time></trkpt><trkpt lat="45.0397333" lon="6.1141"><ele>1131.0</ele><time>2026-05-01T12:41:40.258Z</time></trkpt><trkpt lat="45.0397033" lon="6.1139333"><ele>1131.0</ele><time>2026-05-01T12:41:41.259Z</time></trkpt><trkpt lat="45.039665" lon="6.1137683"><ele>1131.0</ele><time>2026-05-01T12:41:42.259Z</time></trkpt><trkpt lat="45.0396167" lon="6.113605"><ele>1131.0</ele><time>2026-05-01T12:41:43.259Z</time></trkpt><trkpt lat="45.0395733" lon="6.11343"><ele>1131.0</ele><time>2026-05-01T12:41:44.258Z</time></trkpt><trkpt lat="45.0395333" lon="6.11324"><ele>1131.0</ele><time>2026-05-01T12:41:45.259Z</time></trkpt><trkpt lat="45.03949" lon="6.1130533"><ele>1131.0</ele><time>2026-05-01T12:41:46.259Z</time></trkpt><trkpt lat="45.0394483" lon="6.1128617"><ele>1131.0</ele><time>2026-05-01T12:41:47.259Z</time></trkpt><trkpt lat="45.0394117" lon="6.1126633"><ele>1090.0</ele><time>2026-05-01T12:41:48.259Z</time></trkpt><trkpt lat="45.03937" lon="6.11247"><ele>1049.0</ele><time>2026-05-01T12:41:49.259Z</time></trkpt><trkpt lat="45.038905" lon="6.109555"><ele>1040.5</ele><time>2026-05-01T12:42:04.257Z</time></trkpt><trkpt lat="45.0390317" lon="6.1090233"><ele>1032.0</ele><time>2026-05-01T12:42:06.257Z</time></trkpt><trkpt lat="45.0390167" lon="6.1088683"><ele>1032.0</ele><time>2026-05-01T12:42:07.257Z</time></trkpt><trkpt lat="45.03906" lon="6.1087383"><ele>1032.0</ele><time>2026-05-01T12:42:08.257Z</time></trkpt><trkpt lat="45.039095" lon="6.10859"><ele>1032.0</ele><time>2026-05-01T12:42:09.257Z</time></trkpt><trkpt lat="45.0391017" lon="6.1084517"><ele>1032.0</ele><time>2026-05-01T12:42:10.256Z</time></trkpt><trkpt lat="45.0391267" lon="6.1082983"><ele>1032.0</ele><time>2026-05-01T12:42:11.257Z</time></trkpt><trkpt lat="45.0390883" lon="6.1081583"><ele>1026.75</ele><time>2026-05-01T12:42:12.256Z</time></trkpt><trkpt lat="45.0390517" lon="6.1080317"><ele>1021.5</ele><time>2026-05-01T12:42:13.256Z</time></trkpt><trkpt lat="45.0389933" lon="6.1078833"><ele>1016.25</ele><time>2026-05-01T12:42:14.256Z</time></trkpt><trkpt lat="45.0388967" lon="6.107735"><ele>1011.0</ele><time>2026-05-01T12:42:15.257Z</time></trkpt><trkpt lat="45.0388217" lon="6.107565"><ele>1003.6666666666667</ele><time>2026-05-01T12:42:16.256Z</time></trkpt><trkpt lat="45.038745" lon="6.1073633"><ele>996.3333333333334</ele><time>2026-05-01T12:42:17.257Z</time></trkpt><trkpt lat="45.0386783" lon="6.1071533"><ele>989.0</ele><time>2026-05-01T12:42:18.257Z</time></trkpt><trkpt lat="45.03861" lon="6.10689"><ele>989.0</ele><time>2026-05-01T12:42:19.257Z</time></trkpt><trkpt lat="45.0385433" lon="6.1066133"><ele>989.0</ele><time>2026-05-01T12:42:20.257Z</time></trkpt><trkpt lat="45.038465" lon="6.106325"><ele>989.0</ele><time>2026-05-01T12:42:21.257Z</time></trkpt><trkpt lat="45.038385" lon="6.106035"><ele>983.6666666666667</ele><time>2026-05-01T12:42:22.256Z</time></trkpt><trkpt lat="45.0383067" lon="6.1057817"><ele>978.3333333333333</ele><time>2026-05-01T12:42:23.257Z</time></trkpt><trkpt lat="45.03823" lon="6.1055467"><ele>973.0</ele><time>2026-05-01T12:42:24.257Z</time></trkpt><trkpt lat="45.03816" lon="6.105305"><ele>1010.0</ele><time>2026-05-01T12:42:25.256Z</time></trkpt><trkpt lat="45.0380833" lon="6.1048117"><ele>1047.0</ele><time>2026-05-01T12:42:27.256Z</time></trkpt><trkpt lat="45.0380783" lon="6.1045717"><ele>1047.0</ele><time>2026-05-01T12:42:28.256Z</time></trkpt><trkpt lat="45.0380583" lon="6.104345"><ele>1047.0</ele><time>2026-05-01T12:42:29.257Z</time></trkpt><trkpt lat="45.03803" lon="6.104145"><ele>1047.0</ele><time>2026-05-01T12:42:30.257Z</time></trkpt><trkpt lat="45.0380083" lon="6.103965"><ele>1047.0</ele><time>2026-05-01T12:42:31.257Z</time></trkpt><trkpt lat="45.0380017" lon="6.1037717"><ele>1048.75</ele><time>2026-05-01T12:42:32.257Z</time></trkpt><trkpt lat="45.0380083" lon="6.10358"><ele>1050.5</ele><time>2026-05-01T12:42:33.256Z</time></trkpt><trkpt lat="45.0380383" lon="6.1033933"><ele>1052.25</ele><time>2026-05-01T12:42:34.257Z</time></trkpt><trkpt lat="45.0381033" lon="6.1032267"><ele>1054.0</ele><time>2026-05-01T12:42:35.257Z</time></trkpt><trkpt lat="45.0381783" lon="6.10305"><ele>1058.6666666666665</ele><time>2026-05-01T12:42:36.256Z</time></trkpt><trkpt lat="45.03829" lon="6.1028983"><ele>1063.3333333333333</ele><time>2026-05-01T12:42:37.257Z</time></trkpt><trkpt lat="45.0384283" lon="6.1028017"><ele>1068.0</ele><time>2026-05-01T12:42:38.257Z</time></trkpt><trkpt lat="45.0385617" lon="6.10273"><ele>1059.25</ele><time>2026-05-01T12:42:39.257Z</time></trkpt><trkpt lat="45.0386833" lon="6.1026633"><ele>1050.5</ele><time>2026-05-01T12:42:40.256Z</time></trkpt><trkpt lat="45.0388383" lon="6.1025583"><ele>1041.75</ele><time>2026-05-01T12:42:41.257Z</time></trkpt><trkpt lat="45.0388983" lon="6.1024333"><ele>1033.0</ele><time>2026-05-01T12:42:42.257Z</time></trkpt><trkpt lat="45.03893" lon="6.1022733"><ele>1033.0</ele><time>2026-05-01T12:42:43.257Z</time></trkpt><trkpt lat="45.03891" lon="6.1020917"><ele>1033.0</ele><time>2026-05-01T12:42:44.257Z</time></trkpt><trkpt lat="45.0388967" lon="6.101915"><ele>1033.0</ele><time>2026-05-01T12:42:45.256Z</time></trkpt><trkpt lat="45.03889" lon="6.1017517"><ele>1033.0</ele><time>2026-05-01T12:42:46.257Z</time></trkpt><trkpt lat="45.0389633" lon="6.10143"><ele>1030.0</ele><time>2026-05-01T12:42:48.256Z</time></trkpt><trkpt lat="45.0390433" lon="6.1012917"><ele>1027.0</ele><time>2026-05-01T12:42:49.257Z</time></trkpt><trkpt lat="45.0391533" lon="6.1011733"><ele>1024.0</ele><time>2026-05-01T12:42:50.257Z</time></trkpt><trkpt lat="45.0392683" lon="6.1010383"><ele>1021.0</ele><time>2026-05-01T12:42:51.256Z</time></trkpt><trkpt lat="45.03938" lon="6.1008983"><ele>1021.0</ele><time>2026-05-01T12:42:52.257Z</time></trkpt><trkpt lat="45.0394967" lon="6.10077"><ele>1021.0</ele><time>2026-05-01T12:42:53.256Z</time></trkpt><trkpt lat="45.039605" lon="6.1006217"><ele>1021.0</ele><time>2026-05-01T12:42:54.257Z</time></trkpt><trkpt lat="45.0397133" lon="6.1004767"><ele>1021.0</ele><time>2026-05-01T12:42:55.257Z</time></trkpt><trkpt lat="45.0398217" lon="6.1003433"><ele>1019.25</ele><time>2026-05-01T12:42:56.257Z</time></trkpt><trkpt lat="45.0399367" lon="6.10023"><ele>1017.5</ele><time>2026-05-01T12:42:57.257Z</time></trkpt><trkpt lat="45.0400617" lon="6.1001617"><ele>1015.75</ele><time>2026-05-01T12:42:58.256Z</time></trkpt><trkpt lat="45.0401767" lon="6.1000867"><ele>1014.0</ele><time>2026-05-01T12:42:59.256Z</time></trkpt><trkpt lat="45.0403033" lon="6.1000383"><ele>1014.0</ele><time>2026-05-01T12:43:00.257Z</time></trkpt><trkpt lat="45.04043" lon="6.099975"><ele>1014.0</ele><time>2026-05-01T12:43:01.257Z</time></trkpt><trkpt lat="45.0405617" lon="6.0999017"><ele>1014.0</ele><time>2026-05-01T12:43:02.256Z</time></trkpt><trkpt lat="45.0407" lon="6.0998083"><ele>1014.0</ele><time>2026-05-01T12:43:03.257Z</time></trkpt><trkpt lat="45.040815" lon="6.0997033"><ele>1009.25</ele><time>2026-05-01T12:43:04.257Z</time></trkpt><trkpt lat="45.0409183" lon="6.0996"><ele>1004.5</ele><time>2026-05-01T12:43:05.257Z</time></trkpt><trkpt lat="45.041" lon="6.0994683"><ele>999.75</ele><time>2026-05-01T12:43:06.256Z</time></trkpt><trkpt lat="45.0410517" lon="6.0993767"><ele>995.0</ele><time>2026-05-01T12:43:07.257Z</time></trkpt><trkpt lat="45.0410617" lon="6.0991167"><ele>992.75</ele><time>2026-05-01T12:43:09.257Z</time></trkpt><trkpt lat="45.041" lon="6.0989817"><ele>990.5</ele><time>2026-05-01T12:43:10.257Z</time></trkpt><trkpt lat="45.04091" lon="6.0988417"><ele>988.25</ele><time>2026-05-01T12:43:11.257Z</time></trkpt><trkpt lat="45.0408267" lon="6.0987267"><ele>986.0</ele><time>2026-05-01T12:43:12.257Z</time></trkpt><trkpt lat="45.040745" lon="6.09862"><ele>987.5</ele><time>2026-05-01T12:43:13.257Z</time></trkpt><trkpt lat="45.0406333" lon="6.098525"><ele>989.0</ele><time>2026-05-01T12:43:14.257Z</time></trkpt><trkpt lat="45.0405433" lon="6.0984417"><ele>990.5</ele><time>2026-05-01T12:43:15.257Z</time></trkpt><trkpt lat="45.0404517" lon="6.0983417"><ele>992.0</ele><time>2026-05-01T12:43:16.257Z</time></trkpt><trkpt lat="45.0403517" lon="6.0982217"><ele>992.0</ele><time>2026-05-01T12:43:17.257Z</time></trkpt><trkpt lat="45.0402633" lon="6.0980767"><ele>992.0</ele><time>2026-05-01T12:43:18.256Z</time></trkpt><trkpt lat="45.0401983" lon="6.0979067"><ele>992.0</ele><time>2026-05-01T12:43:19.257Z</time></trkpt><trkpt lat="45.0401517" lon="6.0977117"><ele>992.0</ele><time>2026-05-01T12:43:20.256Z</time></trkpt><trkpt lat="45.0401283" lon="6.0975117"><ele>992.0</ele><time>2026-05-01T12:43:21.256Z</time></trkpt><trkpt lat="45.04017" lon="6.09726"><ele>992.0</ele><time>2026-05-01T12:43:22.257Z</time></trkpt><trkpt lat="45.0402633" lon="6.096995"><ele>992.0</ele><time>2026-05-01T12:43:23.256Z</time></trkpt><trkpt lat="45.0403317" lon="6.096735"><ele>992.0</ele><time>2026-05-01T12:43:24.256Z</time></trkpt><trkpt lat="45.0403883" lon="6.0964917"><ele>992.0</ele><time>2026-05-01T12:43:25.257Z</time></trkpt><trkpt lat="45.0403717" lon="6.0962783"><ele>992.0</ele><time>2026-05-01T12:43:26.257Z</time></trkpt><trkpt lat="45.0403217" lon="6.0960567"><ele>992.0</ele><time>2026-05-01T12:43:27.257Z</time></trkpt><trkpt lat="45.0402283" lon="6.0958417"><ele>992.0</ele><time>2026-05-01T12:43:28.257Z</time></trkpt><trkpt lat="45.039975" lon="6.0953917"><ele>992.6666666666667</ele><time>2026-05-01T12:43:30.257Z</time></trkpt><trkpt lat="45.03987" lon="6.0951367"><ele>993.3333333333333</ele><time>2026-05-01T12:43:31.257Z</time></trkpt><trkpt lat="45.03977" lon="6.0948817"><ele>994.0</ele><time>2026-05-01T12:43:32.257Z</time></trkpt><trkpt lat="45.039665" lon="6.0946317"><ele>989.6666666666666</ele><time>2026-05-01T12:43:33.257Z</time></trkpt><trkpt lat="45.0394883" lon="6.0943933"><ele>985.3333333333333</ele><time>2026-05-01T12:43:34.257Z</time></trkpt><trkpt lat="45.039355" lon="6.0941733"><ele>981.0</ele><time>2026-05-01T12:43:35.257Z</time></trkpt><trkpt lat="45.0392117" lon="6.0939567"><ele>981.0</ele><time>2026-05-01T12:43:36.257Z</time></trkpt><trkpt lat="45.0390867" lon="6.09377"><ele>981.0</ele><time>2026-05-01T12:43:37.257Z</time></trkpt><trkpt lat="45.038905" lon="6.09358"><ele>981.0</ele><time>2026-05-01T12:43:38.256Z</time></trkpt><trkpt lat="45.0388533" lon="6.093295"><ele>977.3333333333333</ele><time>2026-05-01T12:43:39.257Z</time></trkpt><trkpt lat="45.0387483" lon="6.09302"><ele>973.6666666666666</ele><time>2026-05-01T12:43:40.257Z</time></trkpt><trkpt lat="45.03863" lon="6.09275"><ele>970.0</ele><time>2026-05-01T12:43:41.256Z</time></trkpt><trkpt lat="45.0385" lon="6.0924983"><ele>966.6666666666666</ele><time>2026-05-01T12:43:42.257Z</time></trkpt><trkpt lat="45.03838" lon="6.0922483"><ele>963.3333333333333</ele><time>2026-05-01T12:43:43.256Z</time></trkpt><trkpt lat="45.0382433" lon="6.0920283"><ele>960.0</ele><time>2026-05-01T12:43:44.257Z</time></trkpt><trkpt lat="45.038125" lon="6.0918317"><ele>960.0</ele><time>2026-05-01T12:43:45.257Z</time></trkpt><trkpt lat="45.03802" lon="6.0916883"><ele>960.0</ele><time>2026-05-01T12:43:46.257Z</time></trkpt><trkpt lat="45.03792" lon="6.0915683"><ele>960.0</ele><time>2026-05-01T12:43:47.256Z</time></trkpt><trkpt lat="45.03782" lon="6.0914783"><ele>960.0</ele><time>2026-05-01T12:43:48.257Z</time></trkpt><trkpt lat="45.0377033" lon="6.09141"><ele>949.5</ele><time>2026-05-01T12:43:49.256Z</time></trkpt><trkpt lat="45.0374667" lon="6.091395"><ele>939.0</ele><time>2026-05-01T12:43:51.257Z</time></trkpt><trkpt lat="45.0373017" lon="6.0916017"><ele>939.0</ele><time>2026-05-01T12:43:52.257Z</time></trkpt><trkpt lat="45.0371533" lon="6.0917317"><ele>939.0</ele><time>2026-05-01T12:43:53.257Z</time></trkpt><trkpt lat="45.0370217" lon="6.09188"><ele>939.0</ele><time>2026-05-01T12:43:54.257Z</time></trkpt><trkpt lat="45.0369033" lon="6.09205"><ele>939.0</ele><time>2026-05-01T12:43:55.257Z</time></trkpt><trkpt lat="45.03682" lon="6.09227"><ele>939.0</ele><time>2026-05-01T12:43:56.257Z</time></trkpt><trkpt lat="45.0367383" lon="6.0924617"><ele>939.0</ele><time>2026-05-01T12:43:57.256Z</time></trkpt><trkpt lat="45.0366583" lon="6.0926517"><ele>939.4000000000001</ele><time>2026-05-01T12:43:58.256Z</time></trkpt><trkpt lat="45.0365883" lon="6.09282"><ele>939.8000000000001</ele><time>2026-05-01T12:43:59.256Z</time></trkpt><trkpt lat="45.03652" lon="6.0929783"><ele>940.1999999999999</ele><time>2026-05-01T12:44:00.257Z</time></trkpt><trkpt lat="45.036495" lon="6.0930967"><ele>940.5999999999999</ele><time>2026-05-01T12:44:01.257Z</time></trkpt><trkpt lat="45.0364533" lon="6.0931733"><ele>941.0</ele><time>2026-05-01T12:44:02.257Z</time></trkpt><trkpt lat="45.0363817" lon="6.0932283"><ele>941.0</ele><time>2026-05-01T12:44:03.256Z</time></trkpt><trkpt lat="45.0362933" lon="6.0932717"><ele>941.0</ele><time>2026-05-01T12:44:04.257Z</time></trkpt><trkpt lat="45.0361733" lon="6.093265"><ele>941.0</ele><time>2026-05-01T12:44:05.257Z</time></trkpt><trkpt lat="45.036055" lon="6.0932217"><ele>941.0</ele><time>2026-05-01T12:44:06.257Z</time></trkpt><trkpt lat="45.035925" lon="6.0931417"><ele>941.0</ele><time>2026-05-01T12:44:07.257Z</time></trkpt><trkpt lat="45.0358833" lon="6.0929367"><ele>941.0</ele><time>2026-05-01T12:44:08.257Z</time></trkpt><trkpt lat="45.035755" lon="6.09278"><ele>941.0</ele><time>2026-05-01T12:44:09.257Z</time></trkpt><trkpt lat="45.03562" lon="6.0925917"><ele>930.0</ele><time>2026-05-01T12:44:10.257Z</time></trkpt><trkpt lat="45.0352667" lon="6.0923"><ele>919.0</ele><time>2026-05-01T12:44:12.256Z</time></trkpt><trkpt lat="45.0350933" lon="6.0921767"><ele>923.0</ele><time>2026-05-01T12:44:13.257Z</time></trkpt><trkpt lat="45.03492" lon="6.0920917"><ele>927.0</ele><time>2026-05-01T12:44:14.257Z</time></trkpt><trkpt lat="45.034725" lon="6.09205"><ele>931.0</ele><time>2026-05-01T12:44:15.257Z</time></trkpt><trkpt lat="45.0345583" lon="6.091995"><ele>931.0</ele><time>2026-05-01T12:44:16.257Z</time></trkpt><trkpt lat="45.0344267" lon="6.0919617"><ele>931.0</ele><time>2026-05-01T12:44:17.257Z</time></trkpt><trkpt lat="45.0342883" lon="6.0919183"><ele>931.0</ele><time>2026-05-01T12:44:18.257Z</time></trkpt><trkpt lat="45.0341517" lon="6.09187"><ele>931.0</ele><time>2026-05-01T12:44:19.256Z</time></trkpt><trkpt lat="45.03404" lon="6.0918117"><ele>930.0</ele><time>2026-05-01T12:44:20.257Z</time></trkpt><trkpt lat="45.033925" lon="6.0917333"><ele>929.0</ele><time>2026-05-01T12:44:21.257Z</time></trkpt><trkpt lat="45.033875" lon="6.0915983"><ele>928.0</ele><time>2026-05-01T12:44:22.257Z</time></trkpt><trkpt lat="45.0338117" lon="6.0914467"><ele>927.0</ele><time>2026-05-01T12:44:23.257Z</time></trkpt><trkpt lat="45.0338067" lon="6.09126"><ele>927.0</ele><time>2026-05-01T12:44:24.257Z</time></trkpt><trkpt lat="45.0338083" lon="6.0910967"><ele>927.0</ele><time>2026-05-01T12:44:25.257Z</time></trkpt><trkpt lat="45.0338317" lon="6.0909367"><ele>927.0</ele><time>2026-05-01T12:44:26.257Z</time></trkpt><trkpt lat="45.0338233" lon="6.0908067"><ele>927.0</ele><time>2026-05-01T12:44:27.257Z</time></trkpt><trkpt lat="45.0337833" lon="6.09069"><ele>927.0</ele><time>2026-05-01T12:44:28.257Z</time></trkpt><trkpt lat="45.0337233" lon="6.0905883"><ele>923.5</ele><time>2026-05-01T12:44:29.257Z</time></trkpt><trkpt lat="45.0336517" lon="6.090505"><ele>920.0</ele><time>2026-05-01T12:44:30.257Z</time></trkpt><trkpt lat="45.033575" lon="6.0904433"><ele>916.5</ele><time>2026-05-01T12:44:31.256Z</time></trkpt><trkpt lat="45.0333533" lon="6.090415"><ele>913.0</ele><time>2026-05-01T12:44:33.257Z</time></trkpt><trkpt lat="45.033215" lon="6.0904317"><ele>913.0</ele><time>2026-05-01T12:44:34.257Z</time></trkpt><trkpt lat="45.0330717" lon="6.0904317"><ele>913.0</ele><time>2026-05-01T12:44:35.256Z</time></trkpt><trkpt lat="45.0329383" lon="6.0903967"><ele>913.0</ele><time>2026-05-01T12:44:36.256Z</time></trkpt><trkpt lat="45.0328" lon="6.090325"><ele>913.0</ele><time>2026-05-01T12:44:37.257Z</time></trkpt><trkpt lat="45.0326783" lon="6.0902433"><ele>913.0</ele><time>2026-05-01T12:44:38.257Z</time></trkpt><trkpt lat="45.0325683" lon="6.0901483"><ele>913.0</ele><time>2026-05-01T12:44:39.257Z</time></trkpt><trkpt lat="45.0324783" lon="6.0900233"><ele>913.0</ele><time>2026-05-01T12:44:40.257Z</time></trkpt><trkpt lat="45.0324033" lon="6.0898833"><ele>913.0</ele><time>2026-05-01T12:44:41.257Z</time></trkpt><trkpt lat="45.0323733" lon="6.0896883"><ele>916.5</ele><time>2026-05-01T12:44:42.256Z</time></trkpt><trkpt lat="45.0323567" lon="6.0894933"><ele>920.0</ele><time>2026-05-01T12:44:43.257Z</time></trkpt><trkpt lat="45.03235" lon="6.0893033"><ele>923.5</ele><time>2026-05-01T12:44:44.257Z</time></trkpt><trkpt lat="45.0323717" lon="6.0890933"><ele>927.0</ele><time>2026-05-01T12:44:45.256Z</time></trkpt><trkpt lat="45.032385" lon="6.088895"><ele>927.0</ele><time>2026-05-01T12:44:46.256Z</time></trkpt><trkpt lat="45.0323867" lon="6.0887233"><ele>927.0</ele><time>2026-05-01T12:44:47.257Z</time></trkpt><trkpt lat="45.0323967" lon="6.088555"><ele>927.0</ele><time>2026-05-01T12:44:48.256Z</time></trkpt><trkpt lat="45.0324067" lon="6.0883833"><ele>927.0</ele><time>2026-05-01T12:44:49.257Z</time></trkpt><trkpt lat="45.03242" lon="6.0882183"><ele>923.5</ele><time>2026-05-01T12:44:50.256Z</time></trkpt><trkpt lat="45.0324517" lon="6.08805"><ele>920.0</ele><time>2026-05-01T12:44:51.256Z</time></trkpt><trkpt lat="45.0324717" lon="6.0878933"><ele>916.5</ele><time>2026-05-01T12:44:52.256Z</time></trkpt><trkpt lat="45.0325133" lon="6.0875967"><ele>913.0</ele><time>2026-05-01T12:44:54.256Z</time></trkpt><trkpt lat="45.0324817" lon="6.0874233"><ele>908.5</ele><time>2026-05-01T12:44:55.257Z</time></trkpt><trkpt lat="45.0324383" lon="6.087275"><ele>904.0</ele><time>2026-05-01T12:44:56.257Z</time></trkpt><trkpt lat="45.0323817" lon="6.0871283"><ele>899.5</ele><time>2026-05-01T12:44:57.256Z</time></trkpt><trkpt lat="45.03231" lon="6.087005"><ele>895.0</ele><time>2026-05-01T12:44:58.257Z</time></trkpt><trkpt lat="45.032205" lon="6.0869083"><ele>895.0</ele><time>2026-05-01T12:44:59.257Z</time></trkpt><trkpt lat="45.0320983" lon="6.0868183"><ele>895.0</ele><time>2026-05-01T12:45:00.256Z</time></trkpt><trkpt lat="45.0319883" lon="6.0867283"><ele>895.0</ele><time>2026-05-01T12:45:01.256Z</time></trkpt><trkpt lat="45.0318867" lon="6.086625"><ele>895.0</ele><time>2026-05-01T12:45:02.257Z</time></trkpt><trkpt lat="45.0317817" lon="6.0865017"><ele>895.25</ele><time>2026-05-01T12:45:03.257Z</time></trkpt><trkpt lat="45.0316933" lon="6.0863517"><ele>895.5</ele><time>2026-05-01T12:45:04.256Z</time></trkpt><trkpt lat="45.0315983" lon="6.0861833"><ele>895.75</ele><time>2026-05-01T12:45:05.257Z</time></trkpt><trkpt lat="45.03151" lon="6.086015"><ele>896.0</ele><time>2026-05-01T12:45:06.256Z</time></trkpt><trkpt lat="45.03141" lon="6.0858533"><ele>880.3333333333334</ele><time>2026-05-01T12:45:07.257Z</time></trkpt><trkpt lat="45.0313083" lon="6.0856917"><ele>864.6666666666667</ele><time>2026-05-01T12:45:08.257Z</time></trkpt><trkpt lat="45.031175" lon="6.08554"><ele>849.0</ele><time>2026-05-01T12:45:09.257Z</time></trkpt><trkpt lat="45.0310267" lon="6.0853883"><ele>849.0</ele><time>2026-05-01T12:45:10.257Z</time></trkpt><trkpt lat="45.030865" lon="6.085255"><ele>849.0</ele><time>2026-05-01T12:45:11.256Z</time></trkpt><trkpt lat="45.03068" lon="6.08513"><ele>849.0</ele><time>2026-05-01T12:45:12.257Z</time></trkpt><trkpt lat="45.0304833" lon="6.0850033"><ele>841.0</ele><time>2026-05-01T12:45:13.257Z</time></trkpt><trkpt lat="45.0301367" lon="6.0847167"><ele>833.0</ele><time>2026-05-01T12:45:15.256Z</time></trkpt><trkpt lat="45.0299783" lon="6.0845783"><ele>854.3333333333334</ele><time>2026-05-01T12:45:16.257Z</time></trkpt><trkpt lat="45.02982" lon="6.0844433"><ele>875.6666666666667</ele><time>2026-05-01T12:45:17.256Z</time></trkpt><trkpt lat="45.0296783" lon="6.0842983"><ele>897.0</ele><time>2026-05-01T12:45:18.257Z</time></trkpt><trkpt lat="45.029545" lon="6.0841367"><ele>876.0</ele><time>2026-05-01T12:45:19.257Z</time></trkpt><trkpt lat="45.02941" lon="6.0839633"><ele>855.0</ele><time>2026-05-01T12:45:20.257Z</time></trkpt><trkpt lat="45.02928" lon="6.08379"><ele>834.0</ele><time>2026-05-01T12:45:21.257Z</time></trkpt><trkpt lat="45.0291517" lon="6.0836133"><ele>843.0</ele><time>2026-05-01T12:45:22.257Z</time></trkpt><trkpt lat="45.0290383" lon="6.08342"><ele>852.0</ele><time>2026-05-01T12:45:23.257Z</time></trkpt><trkpt lat="45.028925" lon="6.08323"><ele>861.0</ele><time>2026-05-01T12:45:24.256Z</time></trkpt><trkpt lat="45.0288233" lon="6.083025"><ele>861.0</ele><time>2026-05-01T12:45:25.257Z</time></trkpt><trkpt lat="45.0287283" lon="6.0828317"><ele>861.0</ele><time>2026-05-01T12:45:26.256Z</time></trkpt><trkpt lat="45.02863" lon="6.0826383"><ele>861.0</ele><time>2026-05-01T12:45:27.257Z</time></trkpt><trkpt lat="45.02854" lon="6.0824633"><ele>870.25</ele><time>2026-05-01T12:45:28.256Z</time></trkpt><trkpt lat="45.02845" lon="6.0823033"><ele>879.5</ele><time>2026-05-01T12:45:29.257Z</time></trkpt><trkpt lat="45.0283467" lon="6.08216"><ele>888.75</ele><time>2026-05-01T12:45:30.257Z</time></trkpt><trkpt lat="45.02823" lon="6.08203"><ele>898.0</ele><time>2026-05-01T12:45:31.257Z</time></trkpt><trkpt lat="45.0281017" lon="6.0819017"><ele>898.0</ele><time>2026-05-01T12:45:32.257Z</time></trkpt><trkpt lat="45.0279617" lon="6.08177"><ele>898.0</ele><time>2026-05-01T12:45:33.257Z</time></trkpt><trkpt lat="45.02782" lon="6.08163"><ele>898.0</ele><time>2026-05-01T12:45:34.257Z</time></trkpt><trkpt lat="45.027575" lon="6.0813283"><ele>898.0</ele><time>2026-05-01T12:45:36.257Z</time></trkpt><trkpt lat="45.0274567" lon="6.0812083"><ele>898.0</ele><time>2026-05-01T12:45:37.257Z</time></trkpt><trkpt lat="45.027345" lon="6.0810683"><ele>898.0</ele><time>2026-05-01T12:45:38.257Z</time></trkpt><trkpt lat="45.0272283" lon="6.0809183"><ele>898.0</ele><time>2026-05-01T12:45:39.257Z</time></trkpt><trkpt lat="45.0271367" lon="6.0807517"><ele>898.0</ele><time>2026-05-01T12:45:40.257Z</time></trkpt><trkpt lat="45.0270867" lon="6.0805467"><ele>898.0</ele><time>2026-05-01T12:45:41.257Z</time></trkpt><trkpt lat="45.0270267" lon="6.0803367"><ele>898.0</ele><time>2026-05-01T12:45:42.256Z</time></trkpt><trkpt lat="45.02699" lon="6.0801217"><ele>898.0</ele><time>2026-05-01T12:45:43.257Z</time></trkpt><trkpt lat="45.0269667" lon="6.079905"><ele>898.0</ele><time>2026-05-01T12:45:44.257Z</time></trkpt><trkpt lat="45.0269633" lon="6.07967"><ele>920.3333333333333</ele><time>2026-05-01T12:45:45.257Z</time></trkpt><trkpt lat="45.02698" lon="6.0794417"><ele>942.6666666666667</ele><time>2026-05-01T12:45:46.256Z</time></trkpt><trkpt lat="45.0269917" lon="6.0792283"><ele>965.0</ele><time>2026-05-01T12:45:47.257Z</time></trkpt><trkpt lat="45.0269883" lon="6.0790233"><ele>965.0</ele><time>2026-05-01T12:45:48.256Z</time></trkpt><trkpt lat="45.0269783" lon="6.0788183"><ele>965.0</ele><time>2026-05-01T12:45:49.257Z</time></trkpt><trkpt lat="45.0269583" lon="6.0786183"><ele>965.0</ele><time>2026-05-01T12:45:50.256Z</time></trkpt><trkpt lat="45.0302117" lon="6.0772283"><ele>917.0</ele><time>2026-05-01T12:46:15.257Z</time></trkpt><trkpt lat="45.030475" lon="6.0772733"><ele>869.0</ele><time>2026-05-01T12:46:17.257Z</time></trkpt><trkpt lat="45.0305917" lon="6.0772183"><ele>821.0</ele><time>2026-05-01T12:46:18.257Z</time></trkpt><trkpt lat="45.0306933" lon="6.077145"><ele>821.0</ele><time>2026-05-01T12:46:19.256Z</time></trkpt><trkpt lat="45.0307783" lon="6.077075"><ele>821.0</ele><time>2026-05-01T12:46:20.257Z</time></trkpt><trkpt lat="45.0308433" lon="6.0769617"><ele>821.0</ele><time>2026-05-01T12:46:21.256Z</time></trkpt><trkpt lat="45.0309133" lon="6.0767633"><ele>821.0</ele><time>2026-05-01T12:46:22.257Z</time></trkpt><trkpt lat="45.0309567" lon="6.0765883"><ele>813.5</ele><time>2026-05-01T12:46:23.257Z</time></trkpt><trkpt lat="45.0310017" lon="6.076445"><ele>806.0</ele><time>2026-05-01T12:46:24.257Z</time></trkpt><trkpt lat="45.0309867" lon="6.0762433"><ele>798.5</ele><time>2026-05-01T12:46:25.257Z</time></trkpt><trkpt lat="45.03095" lon="6.076015"><ele>791.0</ele><time>2026-05-01T12:46:26.257Z</time></trkpt><trkpt lat="45.0309267" lon="6.0758167"><ele>789.25</ele><time>2026-05-01T12:46:27.257Z</time></trkpt><trkpt lat="45.0309" lon="6.075625"><ele>787.5</ele><time>2026-05-01T12:46:28.257Z</time></trkpt><trkpt lat="45.03088" lon="6.0754533"><ele>785.75</ele><time>2026-05-01T12:46:29.257Z</time></trkpt><trkpt lat="45.0308533" lon="6.0752867"><ele>784.0</ele><time>2026-05-01T12:46:30.257Z</time></trkpt><trkpt lat="45.0308383" lon="6.0751433"><ele>784.0</ele><time>2026-05-01T12:46:31.256Z</time></trkpt><trkpt lat="45.0308183" lon="6.075015"><ele>784.0</ele><time>2026-05-01T12:46:32.256Z</time></trkpt><trkpt lat="45.0308" lon="6.0749233"><ele>784.0</ele><time>2026-05-01T12:46:33.256Z</time></trkpt><trkpt lat="45.0307833" lon="6.0747783"><ele>784.0</ele><time>2026-05-01T12:46:35.257Z</time></trkpt><trkpt lat="45.03075" lon="6.0746367"><ele>784.0</ele><time>2026-05-01T12:46:37.257Z</time></trkpt><trkpt lat="45.0306383" lon="6.0744267"><ele>788.75</ele><time>2026-05-01T12:46:41.257Z</time></trkpt><trkpt lat="45.0305933" lon="6.074355"><ele>793.5</ele><time>2026-05-01T12:46:44.257Z</time></trkpt><trkpt lat="45.0305633" lon="6.07427"><ele>798.25</ele><time>2026-05-01T12:48:06.256Z</time></trkpt><trkpt lat="45.0304267" lon="6.07399"><ele>803.0</ele><time>2026-05-01T12:48:09.255Z</time></trkpt><trkpt lat="45.0303567" lon="6.0738567"><ele>793.5</ele><time>2026-05-01T12:48:10.256Z</time></trkpt><trkpt lat="45.030275" lon="6.07372"><ele>784.0</ele><time>2026-05-01T12:48:11.256Z</time></trkpt><trkpt lat="45.0302067" lon="6.0735983"><ele>774.5</ele><time>2026-05-01T12:48:12.255Z</time></trkpt><trkpt lat="45.0301167" lon="6.0734633"><ele>765.0</ele><time>2026-05-01T12:48:13.255Z</time></trkpt><trkpt lat="45.0300017" lon="6.0733167"><ele>763.6666666666666</ele><time>2026-05-01T12:48:14.256Z</time></trkpt><trkpt lat="45.0298867" lon="6.0731717"><ele>762.3333333333333</ele><time>2026-05-01T12:48:15.256Z</time></trkpt><trkpt lat="45.02977" lon="6.073035"><ele>761.0</ele><time>2026-05-01T12:48:16.256Z</time></trkpt><trkpt lat="45.029635" lon="6.07291"><ele>761.0</ele><time>2026-05-01T12:48:17.256Z</time></trkpt><trkpt lat="45.0295267" lon="6.0727917"><ele>761.0</ele><time>2026-05-01T12:48:18.255Z</time></trkpt><trkpt lat="45.0294233" lon="6.0726833"><ele>761.0</ele><time>2026-05-01T12:48:19.255Z</time></trkpt><trkpt lat="45.0293283" lon="6.0725933"><ele>761.0</ele><time>2026-05-01T12:48:20.256Z</time></trkpt><trkpt lat="45.0292317" lon="6.0725083"><ele>762.75</ele><time>2026-05-01T12:48:21.256Z</time></trkpt><trkpt lat="45.0291283" lon="6.07244"><ele>764.5</ele><time>2026-05-01T12:48:22.256Z</time></trkpt><trkpt lat="45.0290083" lon="6.072385"><ele>766.25</ele><time>2026-05-01T12:48:23.256Z</time></trkpt><trkpt lat="45.0288883" lon="6.07234"><ele>768.0</ele><time>2026-05-01T12:48:24.256Z</time></trkpt><trkpt lat="45.0287733" lon="6.0722933"><ele>763.8</ele><time>2026-05-01T12:48:25.255Z</time></trkpt><trkpt lat="45.02868" lon="6.0722517"><ele>759.5999999999999</ele><time>2026-05-01T12:48:26.255Z</time></trkpt><trkpt lat="45.02859" lon="6.0722133"><ele>755.4000000000001</ele><time>2026-05-01T12:48:27.255Z</time></trkpt><trkpt lat="45.0284417" lon="6.0720817"><ele>751.2</ele><time>2026-05-01T12:48:29.255Z</time></trkpt><trkpt lat="45.0283833" lon="6.072"><ele>747.0</ele><time>2026-05-01T12:48:30.255Z</time></trkpt><trkpt lat="45.0283433" lon="6.07191"><ele>747.0</ele><time>2026-05-01T12:48:31.255Z</time></trkpt><trkpt lat="45.0283367" lon="6.07179"><ele>747.0</ele><time>2026-05-01T12:48:32.255Z</time></trkpt><trkpt lat="45.0283567" lon="6.071675"><ele>747.0</ele><time>2026-05-01T12:48:33.255Z</time></trkpt><trkpt lat="45.0283867" lon="6.0715383"><ele>747.0</ele><time>2026-05-01T12:48:34.256Z</time></trkpt><trkpt lat="45.0284667" lon="6.071425"><ele>747.0</ele><time>2026-05-01T12:48:35.256Z</time></trkpt><trkpt lat="45.0285367" lon="6.0713267"><ele>744.3333333333334</ele><time>2026-05-01T12:48:36.256Z</time></trkpt><trkpt lat="45.028645" lon="6.0712167"><ele>741.6666666666667</ele><time>2026-05-01T12:48:37.255Z</time></trkpt><trkpt lat="45.0287983" lon="6.0711117"><ele>739.0</ele><time>2026-05-01T12:48:38.256Z</time></trkpt><trkpt lat="45.02896" lon="6.0710017"><ele>740.0</ele><time>2026-05-01T12:48:39.255Z</time></trkpt><trkpt lat="45.0291467" lon="6.0708733"><ele>741.0</ele><time>2026-05-01T12:48:40.256Z</time></trkpt><trkpt lat="45.0293217" lon="6.0707267"><ele>742.0</ele><time>2026-05-01T12:48:41.256Z</time></trkpt><trkpt lat="45.02951" lon="6.070585"><ele>742.0</ele><time>2026-05-01T12:48:42.256Z</time></trkpt><trkpt lat="45.0296833" lon="6.0704533"><ele>742.0</ele><time>2026-05-01T12:48:43.256Z</time></trkpt><trkpt lat="45.0298617" lon="6.0703183"><ele>742.0</ele><time>2026-05-01T12:48:44.255Z</time></trkpt><trkpt lat="45.0300383" lon="6.07018"><ele>742.6666666666667</ele><time>2026-05-01T12:48:45.255Z</time></trkpt><trkpt lat="45.030215" lon="6.0700417"><ele>743.3333333333334</ele><time>2026-05-01T12:48:46.256Z</time></trkpt><trkpt lat="45.0303917" lon="6.0699"><ele>744.0</ele><time>2026-05-01T12:48:47.256Z</time></trkpt><trkpt lat="45.03057" lon="6.0697683"><ele>739.0</ele><time>2026-05-01T12:48:48.256Z</time></trkpt><trkpt lat="45.0309" lon="6.0694817"><ele>734.0</ele><time>2026-05-01T12:48:50.256Z</time></trkpt><trkpt lat="45.03106" lon="6.06933"><ele>734.0</ele><time>2026-05-01T12:48:51.256Z</time></trkpt><trkpt lat="45.0311967" lon="6.0691783"><ele>734.0</ele><time>2026-05-01T12:48:52.256Z</time></trkpt><trkpt lat="45.03134" lon="6.0690383"><ele>734.0</ele><time>2026-05-01T12:48:53.255Z</time></trkpt><trkpt lat="45.0314933" lon="6.0689133"><ele>733.0</ele><time>2026-05-01T12:48:54.255Z</time></trkpt><trkpt lat="45.0316617" lon="6.0687733"><ele>732.0</ele><time>2026-05-01T12:48:55.256Z</time></trkpt><trkpt lat="45.0318267" lon="6.06862"><ele>731.0</ele><time>2026-05-01T12:48:56.256Z</time></trkpt><trkpt lat="45.031995" lon="6.068465"><ele>731.0</ele><time>2026-05-01T12:48:57.255Z</time></trkpt><trkpt lat="45.032165" lon="6.0683017"><ele>731.0</ele><time>2026-05-01T12:48:58.256Z</time></trkpt><trkpt lat="45.03233" lon="6.0681433"><ele>731.0</ele><time>2026-05-01T12:48:59.256Z</time></trkpt><trkpt lat="45.0325033" lon="6.0679817"><ele>730.3333333333333</ele><time>2026-05-01T12:49:00.256Z</time></trkpt><trkpt lat="45.0326783" lon="6.0678133"><ele>729.6666666666666</ele><time>2026-05-01T12:49:01.255Z</time></trkpt><trkpt lat="45.0328617" lon="6.0676433"><ele>729.0</ele><time>2026-05-01T12:49:02.256Z</time></trkpt><trkpt lat="45.033055" lon="6.0674783"><ele>729.3333333333334</ele><time>2026-05-01T12:49:03.256Z</time></trkpt><trkpt lat="45.0332467" lon="6.0673117"><ele>729.6666666666667</ele><time>2026-05-01T12:49:04.256Z</time></trkpt><trkpt lat="45.0334367" lon="6.067145"><ele>730.0</ele><time>2026-05-01T12:49:05.255Z</time></trkpt><trkpt lat="45.0336333" lon="6.066975"><ele>731.5</ele><time>2026-05-01T12:49:06.256Z</time></trkpt><trkpt lat="45.03383" lon="6.0668017"><ele>733.0</ele><time>2026-05-01T12:49:07.256Z</time></trkpt><trkpt lat="45.0340267" lon="6.0666233"><ele>732.5</ele><time>2026-05-01T12:49:08.256Z</time></trkpt><trkpt lat="45.03423" lon="6.066435"><ele>732.0</ele><time>2026-05-01T12:49:09.255Z</time></trkpt><trkpt lat="45.0346667" lon="6.06607"><ele>732.0</ele><time>2026-05-01T12:49:11.255Z</time></trkpt><trkpt lat="45.034895" lon="6.0658833"><ele>732.0</ele><time>2026-05-01T12:49:12.256Z</time></trkpt><trkpt lat="45.0351167" lon="6.0656933"><ele>731.0</ele><time>2026-05-01T12:49:13.255Z</time></trkpt><trkpt lat="45.0353317" lon="6.0655067"><ele>730.0</ele><time>2026-05-01T12:49:14.255Z</time></trkpt><trkpt lat="45.035545" lon="6.0653333"><ele>730.0</ele><time>2026-05-01T12:49:15.255Z</time></trkpt><trkpt lat="45.0357767" lon="6.065165"><ele>730.0</ele><time>2026-05-01T12:49:16.256Z</time></trkpt><trkpt lat="45.0360033" lon="6.06498"><ele>729.0</ele><time>2026-05-01T12:49:17.256Z</time></trkpt><trkpt lat="45.0362383" lon="6.06478"><ele>728.0</ele><time>2026-05-01T12:49:18.256Z</time></trkpt><trkpt lat="45.03647" lon="6.0645617"><ele>726.5</ele><time>2026-05-01T12:49:19.255Z</time></trkpt><trkpt lat="45.036705" lon="6.06434"><ele>725.0</ele><time>2026-05-01T12:49:20.256Z</time></trkpt><trkpt lat="45.0369483" lon="6.0641117"><ele>725.0</ele><time>2026-05-01T12:49:21.256Z</time></trkpt><trkpt lat="45.0371883" lon="6.0638917"><ele>725.0</ele><time>2026-05-01T12:49:22.256Z</time></trkpt><trkpt lat="45.0374233" lon="6.0636833"><ele>727.0</ele><time>2026-05-01T12:49:23.256Z</time></trkpt><trkpt lat="45.0376533" lon="6.0634833"><ele>729.0</ele><time>2026-05-01T12:49:24.256Z</time></trkpt><trkpt lat="45.037885" lon="6.06329"><ele>729.5</ele><time>2026-05-01T12:49:25.256Z</time></trkpt><trkpt lat="45.0380983" lon="6.0630767"><ele>730.0</ele><time>2026-05-01T12:49:26.256Z</time></trkpt><trkpt lat="45.0383167" lon="6.062865"><ele>729.0</ele><time>2026-05-01T12:49:27.256Z</time></trkpt><trkpt lat="45.03854" lon="6.0626617"><ele>728.0</ele><time>2026-05-01T12:49:28.256Z</time></trkpt><trkpt lat="45.0387633" lon="6.0624683"><ele>728.5</ele><time>2026-05-01T12:49:29.256Z</time></trkpt><trkpt lat="45.0389967" lon="6.0622717"><ele>729.0</ele><time>2026-05-01T12:49:30.256Z</time></trkpt><trkpt lat="45.0394767" lon="6.06187"><ele>729.0</ele><time>2026-05-01T12:49:32.256Z</time></trkpt><trkpt lat="45.0397117" lon="6.0616617"><ele>729.0</ele><time>2026-05-01T12:49:33.256Z</time></trkpt><trkpt lat="45.0399383" lon="6.0614483"><ele>730.0</ele><time>2026-05-01T12:49:34.256Z</time></trkpt><trkpt lat="45.0401583" lon="6.0612317"><ele>731.0</ele><time>2026-05-01T12:49:35.255Z</time></trkpt><trkpt lat="45.0403717" lon="6.0610133"><ele>731.0</ele><time>2026-05-01T12:49:36.256Z</time></trkpt><trkpt lat="45.0405717" lon="6.060805"><ele>731.0</ele><time>2026-05-01T12:49:37.256Z</time></trkpt><trkpt lat="45.04077" lon="6.06061"><ele>731.5</ele><time>2026-05-01T12:49:38.256Z</time></trkpt><trkpt lat="45.0409617" lon="6.060415"><ele>732.0</ele><time>2026-05-01T12:49:39.256Z</time></trkpt><trkpt lat="45.0411567" lon="6.0602217"><ele>732.0</ele><time>2026-05-01T12:49:40.256Z</time></trkpt><trkpt lat="45.0413417" lon="6.0599933"><ele>732.0</ele><time>2026-05-01T12:49:41.256Z</time></trkpt><trkpt lat="45.0415517" lon="6.0598167"><ele>731.5</ele><time>2026-05-01T12:49:42.255Z</time></trkpt><trkpt lat="45.0417583" lon="6.05964"><ele>731.0</ele><time>2026-05-01T12:49:43.256Z</time></trkpt><trkpt lat="45.04197" lon="6.0594633"><ele>731.0</ele><time>2026-05-01T12:49:44.255Z</time></trkpt><trkpt lat="45.0421783" lon="6.0592867"><ele>731.0</ele><time>2026-05-01T12:49:45.255Z</time></trkpt><trkpt lat="45.0423817" lon="6.0591017"><ele>731.5</ele><time>2026-05-01T12:49:46.256Z</time></trkpt><trkpt lat="45.042595" lon="6.0589267"><ele>732.0</ele><time>2026-05-01T12:49:47.256Z</time></trkpt><trkpt lat="45.0428133" lon="6.05876"><ele>732.0</ele><time>2026-05-01T12:49:48.256Z</time></trkpt><trkpt lat="45.043025" lon="6.0585833"><ele>732.0</ele><time>2026-05-01T12:49:49.256Z</time></trkpt><trkpt lat="45.043235" lon="6.0584067"><ele>732.0</ele><time>2026-05-01T12:49:50.255Z</time></trkpt><trkpt lat="45.0434583" lon="6.0582333"><ele>732.0</ele><time>2026-05-01T12:49:51.256Z</time></trkpt><trkpt lat="45.043905" lon="6.0578683"><ele>729.5</ele><time>2026-05-01T12:49:53.255Z</time></trkpt><trkpt lat="45.044135" lon="6.05768"><ele>727.0</ele><time>2026-05-01T12:49:54.255Z</time></trkpt><trkpt lat="45.04435" lon="6.057495"><ele>727.0</ele><time>2026-05-01T12:49:55.256Z</time></trkpt><trkpt lat="45.044565" lon="6.057325"><ele>727.0</ele><time>2026-05-01T12:49:56.255Z</time></trkpt><trkpt lat="45.0447933" lon="6.0571667"><ele>727.3333333333334</ele><time>2026-05-01T12:49:57.255Z</time></trkpt><trkpt lat="45.0449933" lon="6.057015"><ele>727.6666666666666</ele><time>2026-05-01T12:49:58.255Z</time></trkpt><trkpt lat="45.0451617" lon="6.0568833"><ele>728.0</ele><time>2026-05-01T12:49:59.255Z</time></trkpt><trkpt lat="45.045315" lon="6.0567533"><ele>728.0</ele><time>2026-05-01T12:50:00.256Z</time></trkpt><trkpt lat="45.045445" lon="6.05665"><ele>728.0</ele><time>2026-05-01T12:50:01.256Z</time></trkpt><trkpt lat="45.0455617" lon="6.056575"><ele>728.0</ele><time>2026-05-01T12:50:02.256Z</time></trkpt><trkpt lat="45.0456417" lon="6.05652"><ele>728.0</ele><time>2026-05-01T12:50:03.256Z</time></trkpt><trkpt lat="45.045725" lon="6.0564583"><ele>727.5999999999999</ele><time>2026-05-01T12:50:04.255Z</time></trkpt><trkpt lat="45.045835" lon="6.05639"><ele>727.1999999999999</ele><time>2026-05-01T12:50:06.255Z</time></trkpt><trkpt lat="45.045905" lon="6.0563733"><ele>726.8</ele><time>2026-05-01T12:50:08.256Z</time></trkpt><trkpt lat="45.0459667" lon="6.0563283"><ele>726.4</ele><time>2026-05-01T12:50:11.256Z</time></trkpt><trkpt lat="45.04593" lon="6.05625"><ele>726.0</ele><time>2026-05-01T12:50:32.256Z</time></trkpt><trkpt lat="45.04618" lon="6.05603"><ele>726.0</ele><time>2026-05-01T12:58:44.255Z</time></trkpt><trkpt lat="45.04621" lon="6.0559333"><ele>726.0</ele><time>2026-05-01T12:58:45.255Z</time></trkpt><trkpt lat="45.0462517" lon="6.0558183"><ele>726.0</ele><time>2026-05-01T12:58:46.255Z</time></trkpt><trkpt lat="45.0463067" lon="6.055695"><ele>726.0</ele><time>2026-05-01T12:58:47.255Z</time></trkpt><trkpt lat="45.0463767" lon="6.055565"><ele>726.0</ele><time>2026-05-01T12:58:48.255Z</time></trkpt><trkpt lat="45.0464483" lon="6.055415"><ele>726.0</ele><time>2026-05-01T12:58:49.254Z</time></trkpt><trkpt lat="45.046535" lon="6.0552167"><ele>726.0</ele><time>2026-05-01T12:58:50.255Z</time></trkpt><trkpt lat="45.0466367" lon="6.0550467"><ele>726.0</ele><time>2026-05-01T12:58:51.255Z</time></trkpt><trkpt lat="45.0467483" lon="6.0548617"><ele>725.6666666666666</ele><time>2026-05-01T12:58:52.255Z</time></trkpt><trkpt lat="45.0468617" lon="6.0546683"><ele>725.3333333333333</ele><time>2026-05-01T12:58:53.255Z</time></trkpt><trkpt lat="45.0469883" lon="6.054455"><ele>725.0</ele><time>2026-05-01T12:58:54.254Z</time></trkpt><trkpt lat="45.047115" lon="6.054245"><ele>725.0</ele><time>2026-05-01T12:58:55.255Z</time></trkpt><trkpt lat="45.0472467" lon="6.054025"><ele>725.0</ele><time>2026-05-01T12:58:56.255Z</time></trkpt><trkpt lat="45.0473617" lon="6.0537767"><ele>725.0</ele><time>2026-05-01T12:58:57.255Z</time></trkpt><trkpt lat="45.04749" lon="6.0535483"><ele>725.0</ele><time>2026-05-01T12:58:58.255Z</time></trkpt><trkpt lat="45.0476217" lon="6.0532983"><ele>725.0</ele><time>2026-05-01T12:58:59.255Z</time></trkpt><trkpt lat="45.0477633" lon="6.0530667"><ele>725.0</ele><time>2026-05-01T12:59:00.255Z</time></trkpt><trkpt lat="45.0479117" lon="6.0528267"><ele>725.0</ele><time>2026-05-01T12:59:01.255Z</time></trkpt><trkpt lat="45.0482117" lon="6.052315"><ele>724.5</ele><time>2026-05-01T12:59:03.254Z</time></trkpt><trkpt lat="45.04836" lon="6.052065"><ele>724.0</ele><time>2026-05-01T12:59:04.255Z</time></trkpt><trkpt lat="45.0485117" lon="6.051805"><ele>723.5</ele><time>2026-05-01T12:59:05.255Z</time></trkpt><trkpt lat="45.0486667" lon="6.0515333"><ele>723.0</ele><time>2026-05-01T12:59:06.254Z</time></trkpt><trkpt lat="45.0488283" lon="6.0512467"><ele>723.0</ele><time>2026-05-01T12:59:07.255Z</time></trkpt><trkpt lat="45.04898" lon="6.05099"><ele>723.0</ele><time>2026-05-01T12:59:08.254Z</time></trkpt><trkpt lat="45.0491417" lon="6.0507467"><ele>724.0</ele><time>2026-05-01T12:59:09.254Z</time></trkpt><trkpt lat="45.0492933" lon="6.0504683"><ele>725.0</ele><time>2026-05-01T12:59:10.255Z</time></trkpt><trkpt lat="45.0494517" lon="6.0502217"><ele>725.5</ele><time>2026-05-01T12:59:11.254Z</time></trkpt><trkpt lat="45.0496" lon="6.0499567"><ele>726.0</ele><time>2026-05-01T12:59:12.255Z</time></trkpt><trkpt lat="45.0497483" lon="6.0497017"><ele>726.0</ele><time>2026-05-01T12:59:13.255Z</time></trkpt><trkpt lat="45.0498917" lon="6.0494483"><ele>726.0</ele><time>2026-05-01T12:59:14.255Z</time></trkpt><trkpt lat="45.0500383" lon="6.049195"><ele>725.5</ele><time>2026-05-01T12:59:15.254Z</time></trkpt><trkpt lat="45.0501883" lon="6.04895"><ele>725.0</ele><time>2026-05-01T12:59:16.255Z</time></trkpt><trkpt lat="45.0503267" lon="6.0487017"><ele>725.0</ele><time>2026-05-01T12:59:17.254Z</time></trkpt><trkpt lat="45.0504717" lon="6.048455"><ele>725.0</ele><time>2026-05-01T12:59:18.254Z</time></trkpt><trkpt lat="45.0506317" lon="6.04821"><ele>725.0</ele><time>2026-05-01T12:59:19.255Z</time></trkpt><trkpt lat="45.0507717" lon="6.04794"><ele>725.0</ele><time>2026-05-01T12:59:20.254Z</time></trkpt><trkpt lat="45.0509233" lon="6.04766"><ele>725.0</ele><time>2026-05-01T12:59:21.254Z</time></trkpt><trkpt lat="45.0510917" lon="6.0473767"><ele>725.0</ele><time>2026-05-01T12:59:22.255Z</time></trkpt><trkpt lat="45.051465" lon="6.0468067"><ele>726.5</ele><time>2026-05-01T12:59:24.255Z</time></trkpt><trkpt lat="45.05167" lon="6.046525"><ele>728.0</ele><time>2026-05-01T12:59:25.255Z</time></trkpt><trkpt lat="45.0518917" lon="6.046265"><ele>728.0</ele><time>2026-05-01T12:59:26.255Z</time></trkpt><trkpt lat="45.0521033" lon="6.045985"><ele>728.0</ele><time>2026-05-01T12:59:27.255Z</time></trkpt><trkpt lat="45.052325" lon="6.0457217"><ele>726.0</ele><time>2026-05-01T12:59:28.254Z</time></trkpt><trkpt lat="45.05253" lon="6.0454567"><ele>724.0</ele><time>2026-05-01T12:59:29.255Z</time></trkpt><trkpt lat="45.0527367" lon="6.0451933"><ele>723.5</ele><time>2026-05-01T12:59:30.254Z</time></trkpt><trkpt lat="45.0529417" lon="6.0449417"><ele>723.0</ele><time>2026-05-01T12:59:31.255Z</time></trkpt><trkpt lat="45.0531417" lon="6.0446867"><ele>722.5</ele><time>2026-05-01T12:59:32.255Z</time></trkpt><trkpt lat="45.0533417" lon="6.0444333"><ele>722.0</ele><time>2026-05-01T12:59:33.254Z</time></trkpt><trkpt lat="45.05354" lon="6.04418"><ele>722.0</ele><time>2026-05-01T12:59:34.255Z</time></trkpt><trkpt lat="45.05375" lon="6.043955"><ele>722.0</ele><time>2026-05-01T12:59:35.255Z</time></trkpt><trkpt lat="45.0539567" lon="6.04374"><ele>723.0</ele><time>2026-05-01T12:59:36.255Z</time></trkpt><trkpt lat="45.0541383" lon="6.0435067"><ele>724.0</ele><time>2026-05-01T12:59:37.255Z</time></trkpt><trkpt lat="45.0543233" lon="6.0432767"><ele>724.0</ele><time>2026-05-01T12:59:38.255Z</time></trkpt><trkpt lat="45.0545067" lon="6.043035"><ele>724.0</ele><time>2026-05-01T12:59:39.255Z</time></trkpt><trkpt lat="45.0546933" lon="6.0427983"><ele>724.0</ele><time>2026-05-01T12:59:40.254Z</time></trkpt><trkpt lat="45.05488" lon="6.0425517"><ele>724.0</ele><time>2026-05-01T12:59:41.255Z</time></trkpt><trkpt lat="45.0550767" lon="6.0423167"><ele>724.0</ele><time>2026-05-01T12:59:42.255Z</time></trkpt><trkpt lat="45.0552817" lon="6.0420783"><ele>724.0</ele><time>2026-05-01T12:59:43.255Z</time></trkpt><trkpt lat="45.0556617" lon="6.0415867"><ele>723.0</ele><time>2026-05-01T12:59:45.255Z</time></trkpt><trkpt lat="45.0558433" lon="6.041345"><ele>722.0</ele><time>2026-05-01T12:59:46.255Z</time></trkpt><trkpt lat="45.0560383" lon="6.04111"><ele>722.0</ele><time>2026-05-01T12:59:47.255Z</time></trkpt><trkpt lat="45.0562267" lon="6.0408867"><ele>722.0</ele><time>2026-05-01T12:59:48.255Z</time></trkpt><trkpt lat="45.0564383" lon="6.0406867"><ele>723.5</ele><time>2026-05-01T12:59:49.255Z</time></trkpt><trkpt lat="45.056645" lon="6.0404883"><ele>725.0</ele><time>2026-05-01T12:59:50.254Z</time></trkpt><trkpt lat="45.0568783" lon="6.0403433"><ele>725.0</ele><time>2026-05-01T12:59:51.253Z</time></trkpt><trkpt lat="45.0571117" lon="6.040185"><ele>725.0</ele><time>2026-05-01T12:59:52.254Z</time></trkpt><trkpt lat="45.0573417" lon="6.040035"><ele>724.6666666666666</ele><time>2026-05-01T12:59:53.253Z</time></trkpt><trkpt lat="45.057535" lon="6.0399133"><ele>724.3333333333334</ele><time>2026-05-01T12:59:54.254Z</time></trkpt><trkpt lat="45.05771" lon="6.0398167"><ele>724.0</ele><time>2026-05-01T12:59:55.254Z</time></trkpt><trkpt lat="45.05788" lon="6.0397317"><ele>724.0</ele><time>2026-05-01T12:59:56.254Z</time></trkpt><trkpt lat="45.0580467" lon="6.03964"><ele>724.0</ele><time>2026-05-01T12:59:57.253Z</time></trkpt><trkpt lat="45.0582117" lon="6.0395367"><ele>724.0</ele><time>2026-05-01T12:59:58.253Z</time></trkpt><trkpt lat="45.058385" lon="6.0394383"><ele>723.3333333333334</ele><time>2026-05-01T12:59:59.254Z</time></trkpt><trkpt lat="45.0585317" lon="6.0393517"><ele>722.6666666666666</ele><time>2026-05-01T13:00:00.254Z</time></trkpt><trkpt lat="45.05866" lon="6.0392433"><ele>722.0</ele><time>2026-05-01T13:00:01.254Z</time></trkpt><trkpt lat="45.058785" lon="6.0391233"><ele>722.0</ele><time>2026-05-01T13:00:02.253Z</time></trkpt><trkpt lat="45.0589" lon="6.0389717"><ele>722.0</ele><time>2026-05-01T13:00:03.254Z</time></trkpt><trkpt lat="45.0590083" lon="6.0387933"><ele>722.0</ele><time>2026-05-01T13:00:04.254Z</time></trkpt><trkpt lat="45.0591583" lon="6.0384517"><ele>721.8</ele><time>2026-05-01T13:00:06.253Z</time></trkpt><trkpt lat="45.0592167" lon="6.038315"><ele>721.6</ele><time>2026-05-01T13:00:07.254Z</time></trkpt><trkpt lat="45.0592617" lon="6.0381833"><ele>721.4</ele><time>2026-05-01T13:00:08.254Z</time></trkpt><trkpt lat="45.059305" lon="6.0380533"><ele>721.1999999999999</ele><time>2026-05-01T13:00:09.254Z</time></trkpt><trkpt lat="45.0593617" lon="6.0379167"><ele>721.0</ele><time>2026-05-01T13:00:10.253Z</time></trkpt><trkpt lat="45.0594133" lon="6.037795"><ele>721.3333333333334</ele><time>2026-05-01T13:00:11.254Z</time></trkpt><trkpt lat="45.05944" lon="6.03769"><ele>721.6666666666667</ele><time>2026-05-01T13:00:12.254Z</time></trkpt><trkpt lat="45.0594483" lon="6.037595"><ele>722.0</ele><time>2026-05-01T13:00:13.254Z</time></trkpt><trkpt lat="45.059455" lon="6.0375017"><ele>722.3333333333334</ele><time>2026-05-01T13:00:14.254Z</time></trkpt><trkpt lat="45.05945" lon="6.0373917"><ele>722.6666666666666</ele><time>2026-05-01T13:00:15.254Z</time></trkpt><trkpt lat="45.059455" lon="6.0372567"><ele>723.0</ele><time>2026-05-01T13:00:16.254Z</time></trkpt><trkpt lat="45.059485" lon="6.0371067"><ele>723.0</ele><time>2026-05-01T13:00:17.254Z</time></trkpt><trkpt lat="45.0595283" lon="6.0369283"><ele>723.0</ele><time>2026-05-01T13:00:18.254Z</time></trkpt><trkpt lat="45.0595817" lon="6.0367233"><ele>723.0</ele><time>2026-05-01T13:00:19.254Z</time></trkpt><trkpt lat="45.0596567" lon="6.03649"><ele>722.6666666666666</ele><time>2026-05-01T13:00:20.254Z</time></trkpt><trkpt lat="45.0597517" lon="6.0362533"><ele>722.3333333333333</ele><time>2026-05-01T13:00:21.254Z</time></trkpt><trkpt lat="45.0598717" lon="6.0360183"><ele>722.0</ele><time>2026-05-01T13:00:22.253Z</time></trkpt><trkpt lat="45.0600117" lon="6.03579"><ele>721.6666666666666</ele><time>2026-05-01T13:00:23.254Z</time></trkpt><trkpt lat="45.0601633" lon="6.0356083"><ele>721.3333333333334</ele><time>2026-05-01T13:00:24.253Z</time></trkpt><trkpt lat="45.06032" lon="6.0354067"><ele>721.0</ele><time>2026-05-01T13:00:25.254Z</time></trkpt><trkpt lat="45.0606467" lon="6.034985"><ele>721.3333333333334</ele><time>2026-05-01T13:00:27.254Z</time></trkpt><trkpt lat="45.0608067" lon="6.0347833"><ele>721.6666666666666</ele><time>2026-05-01T13:00:28.254Z</time></trkpt><trkpt lat="45.0609733" lon="6.0345933"><ele>722.0</ele><time>2026-05-01T13:00:29.254Z</time></trkpt><trkpt lat="45.0611333" lon="6.0344067"><ele>722.0</ele><time>2026-05-01T13:00:30.253Z</time></trkpt><trkpt lat="45.0613017" lon="6.0341983"><ele>722.0</ele><time>2026-05-01T13:00:31.254Z</time></trkpt><trkpt lat="45.0614667" lon="6.0339617"><ele>723.0</ele><time>2026-05-01T13:00:32.254Z</time></trkpt><trkpt lat="45.0616417" lon="6.0337517"><ele>724.0</ele><time>2026-05-01T13:00:33.253Z</time></trkpt><trkpt lat="45.06182" lon="6.0335533"><ele>724.0</ele><time>2026-05-01T13:00:34.253Z</time></trkpt><trkpt lat="45.06201" lon="6.0333717"><ele>724.0</ele><time>2026-05-01T13:00:35.254Z</time></trkpt><trkpt lat="45.0622283" lon="6.0331983"><ele>723.0</ele><time>2026-05-01T13:00:36.254Z</time></trkpt><trkpt lat="45.0624433" lon="6.0330117"><ele>722.0</ele><time>2026-05-01T13:00:37.253Z</time></trkpt><trkpt lat="45.062655" lon="6.0328233"><ele>721.0</ele><time>2026-05-01T13:00:38.254Z</time></trkpt><trkpt lat="45.0628783" lon="6.0326467"><ele>720.0</ele><time>2026-05-01T13:00:39.254Z</time></trkpt><trkpt lat="45.0631" lon="6.0324817"><ele>720.0</ele><time>2026-05-01T13:00:40.254Z</time></trkpt><trkpt lat="45.0633117" lon="6.0323283"><ele>720.0</ele><time>2026-05-01T13:00:41.254Z</time></trkpt><trkpt lat="45.06353" lon="6.03217"><ele>720.0</ele><time>2026-05-01T13:00:42.254Z</time></trkpt><trkpt lat="45.0637517" lon="6.0319967"><ele>720.0</ele><time>2026-05-01T13:00:43.254Z</time></trkpt><trkpt lat="45.0639633" lon="6.0318183"><ele>719.0</ele><time>2026-05-01T13:00:44.254Z</time></trkpt><trkpt lat="45.0641667" lon="6.0316583"><ele>718.0</ele><time>2026-05-01T13:00:45.254Z</time></trkpt><trkpt lat="45.0643567" lon="6.031485"><ele>718.0</ele><time>2026-05-01T13:00:46.254Z</time></trkpt><trkpt lat="45.0646683" lon="6.0310317"><ele>718.0</ele><time>2026-05-01T13:00:48.254Z</time></trkpt><trkpt lat="45.0648067" lon="6.030785"><ele>718.5</ele><time>2026-05-01T13:00:49.254Z</time></trkpt><trkpt lat="45.0649067" lon="6.0304917"><ele>719.0</ele><time>2026-05-01T13:00:50.254Z</time></trkpt><trkpt lat="45.064985" lon="6.0301783"><ele>720.5</ele><time>2026-05-01T13:00:51.253Z</time></trkpt><trkpt lat="45.0650483" lon="6.02987"><ele>722.0</ele><time>2026-05-01T13:00:52.254Z</time></trkpt><trkpt lat="45.0650883" lon="6.029555"><ele>722.0</ele><time>2026-05-01T13:00:53.254Z</time></trkpt><trkpt lat="45.065115" lon="6.0292617"><ele>722.0</ele><time>2026-05-01T13:00:54.254Z</time></trkpt><trkpt lat="45.065105" lon="6.0289483"><ele>722.0</ele><time>2026-05-01T13:00:55.253Z</time></trkpt><trkpt lat="45.0650733" lon="6.02863"><ele>722.3333333333333</ele><time>2026-05-01T13:00:56.254Z</time></trkpt><trkpt lat="45.06503" lon="6.0283367"><ele>722.6666666666666</ele><time>2026-05-01T13:00:57.253Z</time></trkpt><trkpt lat="45.064955" lon="6.0280367"><ele>723.0</ele><time>2026-05-01T13:00:58.253Z</time></trkpt><trkpt lat="45.0648733" lon="6.0277633"><ele>722.5</ele><time>2026-05-01T13:00:59.253Z</time></trkpt><trkpt lat="45.0647617" lon="6.0274767"><ele>722.0</ele><time>2026-05-01T13:01:00.254Z</time></trkpt><trkpt lat="45.0646483" lon="6.0271817"><ele>722.0</ele><time>2026-05-01T13:01:01.254Z</time></trkpt><trkpt lat="45.0645383" lon="6.0269083"><ele>722.0</ele><time>2026-05-01T13:01:02.254Z</time></trkpt><trkpt lat="45.064445" lon="6.0266383"><ele>722.0</ele><time>2026-05-01T13:01:03.254Z</time></trkpt><trkpt lat="45.0643567" lon="6.0264083"><ele>722.0</ele><time>2026-05-01T13:01:04.253Z</time></trkpt><trkpt lat="45.064275" lon="6.026205"><ele>722.0</ele><time>2026-05-01T13:01:05.254Z</time></trkpt><trkpt lat="45.0642117" lon="6.0260367"><ele>722.0</ele><time>2026-05-01T13:01:06.254Z</time></trkpt><trkpt lat="45.06416" lon="6.0258683"><ele>722.0</ele><time>2026-05-01T13:01:07.253Z</time></trkpt><trkpt lat="45.0640483" lon="6.0255267"><ele>721.25</ele><time>2026-05-01T13:01:09.253Z</time></trkpt><trkpt lat="45.063995" lon="6.0253667"><ele>720.5</ele><time>2026-05-01T13:01:10.254Z</time></trkpt><trkpt lat="45.0639517" lon="6.0252217"><ele>719.75</ele><time>2026-05-01T13:01:11.254Z</time></trkpt><trkpt lat="45.0639133" lon="6.0250467"><ele>719.0</ele><time>2026-05-01T13:01:12.254Z</time></trkpt><trkpt lat="45.0639033" lon="6.024855"><ele>719.0</ele><time>2026-05-01T13:01:13.254Z</time></trkpt><trkpt lat="45.0639133" lon="6.024695"><ele>719.0</ele><time>2026-05-01T13:01:14.254Z</time></trkpt><trkpt lat="45.0639367" lon="6.0245233"><ele>719.0</ele><time>2026-05-01T13:01:15.254Z</time></trkpt><trkpt lat="45.0640217" lon="6.0243783"><ele>719.0</ele><time>2026-05-01T13:01:16.254Z</time></trkpt><trkpt lat="45.06412" lon="6.02424"><ele>718.6666666666666</ele><time>2026-05-01T13:01:17.254Z</time></trkpt><trkpt lat="45.0642333" lon="6.0241133"><ele>718.3333333333334</ele><time>2026-05-01T13:01:18.254Z</time></trkpt><trkpt lat="45.06439" lon="6.0240183"><ele>718.0</ele><time>2026-05-01T13:01:19.253Z</time></trkpt><trkpt lat="45.0645383" lon="6.0238967"><ele>718.0</ele><time>2026-05-01T13:01:20.254Z</time></trkpt><trkpt lat="45.0646833" lon="6.0237833"><ele>718.0</ele><time>2026-05-01T13:01:21.253Z</time></trkpt><trkpt lat="45.064835" lon="6.023655"><ele>718.0</ele><time>2026-05-01T13:01:22.254Z</time></trkpt><trkpt lat="45.0649867" lon="6.023525"><ele>718.0</ele><time>2026-05-01T13:01:23.254Z</time></trkpt><trkpt lat="45.0651317" lon="6.02338"><ele>718.0</ele><time>2026-05-01T13:01:24.254Z</time></trkpt><trkpt lat="45.0652967" lon="6.0232367"><ele>718.0</ele><time>2026-05-01T13:01:25.254Z</time></trkpt><trkpt lat="45.06547" lon="6.0230983"><ele>719.3333333333334</ele><time>2026-05-01T13:01:26.254Z</time></trkpt><trkpt lat="45.065655" lon="6.0229667"><ele>720.6666666666666</ele><time>2026-05-01T13:01:27.254Z</time></trkpt><trkpt lat="45.0658167" lon="6.022845"><ele>722.0</ele><time>2026-05-01T13:01:28.254Z</time></trkpt><trkpt lat="45.0661533" lon="6.022635"><ele>722.0</ele><time>2026-05-01T13:01:30.253Z</time></trkpt><trkpt lat="45.0662983" lon="6.022525"><ele>722.0</ele><time>2026-05-01T13:01:31.254Z</time></trkpt><trkpt lat="45.066445" lon="6.0224333"><ele>722.0</ele><time>2026-05-01T13:01:32.254Z</time></trkpt><trkpt lat="45.066585" lon="6.0223233"><ele>719.6666666666666</ele><time>2026-05-01T13:01:33.254Z</time></trkpt><trkpt lat="45.0667167" lon="6.0221917"><ele>717.3333333333334</ele><time>2026-05-01T13:01:34.253Z</time></trkpt><trkpt lat="45.0668533" lon="6.0220817"><ele>715.0</ele><time>2026-05-01T13:01:35.254Z</time></trkpt><trkpt lat="45.0669967" lon="6.02196"><ele>715.0</ele><time>2026-05-01T13:01:36.253Z</time></trkpt><trkpt lat="45.0671467" lon="6.0218467"><ele>715.0</ele><time>2026-05-01T13:01:37.254Z</time></trkpt><trkpt lat="45.0672967" lon="6.021745"><ele>715.0</ele><time>2026-05-01T13:01:38.254Z</time></trkpt><trkpt lat="45.067445" lon="6.021625"><ele>715.0</ele><time>2026-05-01T13:01:39.253Z</time></trkpt><trkpt lat="45.0676017" lon="6.0214817"><ele>715.0</ele><time>2026-05-01T13:01:40.254Z</time></trkpt><trkpt lat="45.06776" lon="6.0213433"><ele>715.0</ele><time>2026-05-01T13:01:41.254Z</time></trkpt><trkpt lat="45.0679267" lon="6.021205"><ele>715.0</ele><time>2026-05-01T13:01:42.254Z</time></trkpt><trkpt lat="45.0681017" lon="6.0210683"><ele>715.0</ele><time>2026-05-01T13:01:43.253Z</time></trkpt><trkpt lat="45.06829" lon="6.0209267"><ele>715.0</ele><time>2026-05-01T13:01:44.254Z</time></trkpt><trkpt lat="45.068475" lon="6.020775"><ele>716.0</ele><time>2026-05-01T13:01:45.254Z</time></trkpt><trkpt lat="45.0686633" lon="6.0206267"><ele>717.0</ele><time>2026-05-01T13:01:46.254Z</time></trkpt><trkpt lat="45.068825" lon="6.0204983"><ele>718.0</ele><time>2026-05-01T13:01:47.254Z</time></trkpt><trkpt lat="45.0690067" lon="6.0203633"><ele>718.5</ele><time>2026-05-01T13:01:48.253Z</time></trkpt><trkpt lat="45.0691917" lon="6.0202217"><ele>719.0</ele><time>2026-05-01T13:01:49.254Z</time></trkpt><trkpt lat="45.0695717" lon="6.0199467"><ele>724.6666666666666</ele><time>2026-05-01T13:01:51.253Z</time></trkpt><trkpt lat="45.0697417" lon="6.0198233"><ele>730.3333333333334</ele><time>2026-05-01T13:01:52.254Z</time></trkpt><trkpt lat="45.069915" lon="6.0197033"><ele>736.0</ele><time>2026-05-01T13:01:53.254Z</time></trkpt><trkpt lat="45.07009" lon="6.0195983"><ele>736.0</ele><time>2026-05-01T13:01:54.253Z</time></trkpt><trkpt lat="45.0702633" lon="6.0194767"><ele>736.0</ele><time>2026-05-01T13:01:55.254Z</time></trkpt><trkpt lat="45.070435" lon="6.01936"><ele>736.0</ele><time>2026-05-01T13:01:56.254Z</time></trkpt><trkpt lat="45.070605" lon="6.0192433"><ele>756.3333333333334</ele><time>2026-05-01T13:01:57.254Z</time></trkpt><trkpt lat="45.0707817" lon="6.019115"><ele>776.6666666666667</ele><time>2026-05-01T13:01:58.254Z</time></trkpt><trkpt lat="45.070945" lon="6.0190033"><ele>797.0</ele><time>2026-05-01T13:01:59.253Z</time></trkpt><trkpt lat="45.071105" lon="6.0188733"><ele>797.0</ele><time>2026-05-01T13:02:00.254Z</time></trkpt><trkpt lat="45.0712617" lon="6.0187517"><ele>797.0</ele><time>2026-05-01T13:02:01.254Z</time></trkpt><trkpt lat="45.071415" lon="6.0186417"><ele>797.0</ele><time>2026-05-01T13:02:02.253Z</time></trkpt><trkpt lat="45.0715733" lon="6.0185267"><ele>777.6666666666667</ele><time>2026-05-01T13:02:03.254Z</time></trkpt><trkpt lat="45.0717117" lon="6.0184267"><ele>758.3333333333334</ele><time>2026-05-01T13:02:04.254Z</time></trkpt><trkpt lat="45.0718383" lon="6.0183267"><ele>739.0</ele><time>2026-05-01T13:02:05.254Z</time></trkpt><trkpt lat="45.0719867" lon="6.018205"><ele>739.0</ele><time>2026-05-01T13:02:06.253Z</time></trkpt><trkpt lat="45.0721133" lon="6.018085"><ele>739.0</ele><time>2026-05-01T13:02:07.253Z</time></trkpt><trkpt lat="45.0722517" lon="6.0179717"><ele>739.0</ele><time>2026-05-01T13:02:08.254Z</time></trkpt><trkpt lat="45.07241" lon="6.0178617"><ele>732.0</ele><time>2026-05-01T13:02:09.254Z</time></trkpt><trkpt lat="45.072565" lon="6.01775"><ele>725.0</ele><time>2026-05-01T13:02:10.254Z</time></trkpt><trkpt lat="45.0728517" lon="6.017535"><ele>725.6666666666666</ele><time>2026-05-01T13:02:12.254Z</time></trkpt><trkpt lat="45.0730033" lon="6.0174167"><ele>726.3333333333334</ele><time>2026-05-01T13:02:13.253Z</time></trkpt><trkpt lat="45.0731583" lon="6.0173"><ele>727.0</ele><time>2026-05-01T13:02:14.254Z</time></trkpt><trkpt lat="45.0733067" lon="6.01715"><ele>727.0</ele><time>2026-05-01T13:02:15.253Z</time></trkpt><trkpt lat="45.07344" lon="6.0170267"><ele>727.0</ele><time>2026-05-01T13:02:16.253Z</time></trkpt><trkpt lat="45.0735817" lon="6.0168833"><ele>727.0</ele><time>2026-05-01T13:02:17.253Z</time></trkpt><trkpt lat="45.073725" lon="6.01676"><ele>727.0</ele><time>2026-05-01T13:02:18.254Z</time></trkpt><trkpt lat="45.0738683" lon="6.0166667"><ele>727.0</ele><time>2026-05-01T13:02:19.254Z</time></trkpt><trkpt lat="45.0739883" lon="6.01656"><ele>727.0</ele><time>2026-05-01T13:02:20.253Z</time></trkpt><trkpt lat="45.0741183" lon="6.01645"><ele>727.3333333333334</ele><time>2026-05-01T13:02:21.253Z</time></trkpt><trkpt lat="45.0742483" lon="6.01635"><ele>727.6666666666666</ele><time>2026-05-01T13:02:22.253Z</time></trkpt><trkpt lat="45.074395" lon="6.0162383"><ele>728.0</ele><time>2026-05-01T13:02:23.253Z</time></trkpt><trkpt lat="45.0745583" lon="6.0161067"><ele>728.0</ele><time>2026-05-01T13:02:24.254Z</time></trkpt><trkpt lat="45.0747267" lon="6.0159667"><ele>728.0</ele><time>2026-05-01T13:02:25.254Z</time></trkpt><trkpt lat="45.0749017" lon="6.01584"><ele>728.0</ele><time>2026-05-01T13:02:26.254Z</time></trkpt><trkpt lat="45.0750717" lon="6.0157083"><ele>727.3333333333333</ele><time>2026-05-01T13:02:27.254Z</time></trkpt><trkpt lat="45.0752383" lon="6.0155733"><ele>726.6666666666666</ele><time>2026-05-01T13:02:28.253Z</time></trkpt><trkpt lat="45.07542" lon="6.015445"><ele>726.0</ele><time>2026-05-01T13:02:29.254Z</time></trkpt><trkpt lat="45.07558" lon="6.0153167"><ele>726.0</ele><time>2026-05-01T13:02:30.254Z</time></trkpt><trkpt lat="45.0757483" lon="6.0152017"><ele>726.0</ele><time>2026-05-01T13:02:31.254Z</time></trkpt><trkpt lat="45.07609" lon="6.0149833"><ele>724.6666666666666</ele><time>2026-05-01T13:02:33.253Z</time></trkpt><trkpt lat="45.076255" lon="6.0148683"><ele>723.3333333333333</ele><time>2026-05-01T13:02:34.254Z</time></trkpt><trkpt lat="45.0764217" lon="6.0147817"><ele>722.0</ele><time>2026-05-01T13:02:35.254Z</time></trkpt><trkpt lat="45.0766" lon="6.0147383"><ele>722.0</ele><time>2026-05-01T13:02:36.254Z</time></trkpt><trkpt lat="45.076775" lon="6.01469"><ele>722.0</ele><time>2026-05-01T13:02:37.254Z</time></trkpt><trkpt lat="45.0769567" lon="6.0146267"><ele>722.0</ele><time>2026-05-01T13:02:38.253Z</time></trkpt><trkpt lat="45.0771667" lon="6.0145533"><ele>722.0</ele><time>2026-05-01T13:02:39.253Z</time></trkpt><trkpt lat="45.0773867" lon="6.0145233"><ele>722.0</ele><time>2026-05-01T13:02:40.254Z</time></trkpt><trkpt lat="45.0776217" lon="6.0144833"><ele>721.0</ele><time>2026-05-01T13:02:41.254Z</time></trkpt><trkpt lat="45.0778633" lon="6.0144233"><ele>720.0</ele><time>2026-05-01T13:02:42.253Z</time></trkpt><trkpt lat="45.0781017" lon="6.0143583"><ele>718.5</ele><time>2026-05-01T13:02:43.254Z</time></trkpt><trkpt lat="45.0783317" lon="6.0142917"><ele>717.0</ele><time>2026-05-01T13:02:44.254Z</time></trkpt><trkpt lat="45.0785517" lon="6.0142367"><ele>717.0</ele><time>2026-05-01T13:02:45.253Z</time></trkpt><trkpt lat="45.0787767" lon="6.01418"><ele>717.0</ele><time>2026-05-01T13:02:46.253Z</time></trkpt><trkpt lat="45.0789983" lon="6.0141233"><ele>716.0</ele><time>2026-05-01T13:02:47.254Z</time></trkpt><trkpt lat="45.07923" lon="6.0140683"><ele>715.0</ele><time>2026-05-01T13:02:48.254Z</time></trkpt><trkpt lat="45.0794533" lon="6.01402"><ele>715.0</ele><time>2026-05-01T13:02:49.253Z</time></trkpt><trkpt lat="45.0796767" lon="6.01398"><ele>715.0</ele><time>2026-05-01T13:02:50.254Z</time></trkpt><trkpt lat="45.0799017" lon="6.0139233"><ele>714.0</ele><time>2026-05-01T13:02:51.253Z</time></trkpt><trkpt lat="45.08013" lon="6.0138717"><ele>713.0</ele><time>2026-05-01T13:02:52.254Z</time></trkpt><trkpt lat="45.0805883" lon="6.013765"><ele>714.0</ele><time>2026-05-01T13:02:54.254Z</time></trkpt><trkpt lat="45.0808217" lon="6.0137233"><ele>715.0</ele><time>2026-05-01T13:02:55.254Z</time></trkpt><trkpt lat="45.08105" lon="6.0136683"><ele>715.0</ele><time>2026-05-01T13:02:56.254Z</time></trkpt><trkpt lat="45.0812883" lon="6.013615"><ele>715.0</ele><time>2026-05-01T13:02:57.253Z</time></trkpt><trkpt lat="45.08153" lon="6.01356"><ele>716.0</ele><time>2026-05-01T13:02:58.254Z</time></trkpt><trkpt lat="45.0817633" lon="6.01351"><ele>717.0</ele><time>2026-05-01T13:02:59.254Z</time></trkpt><trkpt lat="45.0820017" lon="6.013465"><ele>717.0</ele><time>2026-05-01T13:03:00.253Z</time></trkpt><trkpt lat="45.082235" lon="6.01341"><ele>717.0</ele><time>2026-05-01T13:03:01.254Z</time></trkpt><trkpt lat="45.08247" lon="6.01336"><ele>716.0</ele><time>2026-05-01T13:03:02.254Z</time></trkpt><trkpt lat="45.0827067" lon="6.0133067"><ele>715.0</ele><time>2026-05-01T13:03:03.254Z</time></trkpt><trkpt lat="45.082925" lon="6.0132517"><ele>715.0</ele><time>2026-05-01T13:03:04.254Z</time></trkpt><trkpt lat="45.08316" lon="6.0131933"><ele>715.0</ele><time>2026-05-01T13:03:05.253Z</time></trkpt><trkpt lat="45.0833867" lon="6.0131333"><ele>715.0</ele><time>2026-05-01T13:03:06.254Z</time></trkpt><trkpt lat="45.0836117" lon="6.0130683"><ele>715.0</ele><time>2026-05-01T13:03:07.254Z</time></trkpt><trkpt lat="45.0838617" lon="6.0130083"><ele>715.0</ele><time>2026-05-01T13:03:08.254Z</time></trkpt><trkpt lat="45.084095" lon="6.0129467"><ele>715.0</ele><time>2026-05-01T13:03:09.254Z</time></trkpt><trkpt lat="45.0843267" lon="6.0128817"><ele>714.5</ele><time>2026-05-01T13:03:10.254Z</time></trkpt><trkpt lat="45.08458" lon="6.0128233"><ele>714.0</ele><time>2026-05-01T13:03:11.253Z</time></trkpt><trkpt lat="45.0848333" lon="6.0127667"><ele>714.0</ele><time>2026-05-01T13:03:12.254Z</time></trkpt><trkpt lat="45.0850733" lon="6.012705"><ele>714.0</ele><time>2026-05-01T13:03:13.254Z</time></trkpt><trkpt lat="45.08555" lon="6.0125983"><ele>714.5</ele><time>2026-05-01T13:03:15.253Z</time></trkpt><trkpt lat="45.0857933" lon="6.01254"><ele>715.0</ele><time>2026-05-01T13:03:16.253Z</time></trkpt><trkpt lat="45.0860317" lon="6.0124883"><ele>715.0</ele><time>2026-05-01T13:03:17.254Z</time></trkpt><trkpt lat="45.0862683" lon="6.0124283"><ele>715.0</ele><time>2026-05-01T13:03:18.253Z</time></trkpt><trkpt lat="45.0865083" lon="6.01237"><ele>715.5</ele><time>2026-05-01T13:03:19.254Z</time></trkpt><trkpt lat="45.086745" lon="6.0123067"><ele>716.0</ele><time>2026-05-01T13:03:20.253Z</time></trkpt><trkpt lat="45.08699" lon="6.0122583"><ele>716.0</ele><time>2026-05-01T13:03:21.254Z</time></trkpt><trkpt lat="45.0872317" lon="6.0121717"><ele>716.0</ele><time>2026-05-01T13:03:22.254Z</time></trkpt><trkpt lat="45.087465" lon="6.0121433"><ele>715.0</ele><time>2026-05-01T13:03:23.254Z</time></trkpt><trkpt lat="45.0877017" lon="6.012115"><ele>714.0</ele><time>2026-05-01T13:03:24.254Z</time></trkpt><trkpt lat="45.08791" lon="6.0120567"><ele>714.0</ele><time>2026-05-01T13:03:25.254Z</time></trkpt><trkpt lat="45.0881033" lon="6.0120067"><ele>714.0</ele><time>2026-05-01T13:03:26.254Z</time></trkpt><trkpt lat="45.08829" lon="6.0119483"><ele>714.0</ele><time>2026-05-01T13:03:27.254Z</time></trkpt><trkpt lat="45.0884733" lon="6.0118883"><ele>714.0</ele><time>2026-05-01T13:03:28.254Z</time></trkpt><trkpt lat="45.0886533" lon="6.011835"><ele>714.0</ele><time>2026-05-01T13:03:29.253Z</time></trkpt><trkpt lat="45.0888417" lon="6.0117867"><ele>714.0</ele><time>2026-05-01T13:03:30.254Z</time></trkpt><trkpt lat="45.08902" lon="6.0117433"><ele>714.0</ele><time>2026-05-01T13:03:31.253Z</time></trkpt><trkpt lat="45.0891983" lon="6.0117167"><ele>714.0</ele><time>2026-05-01T13:03:32.253Z</time></trkpt><trkpt lat="45.089375" lon="6.0116883"><ele>714.0</ele><time>2026-05-01T13:03:33.253Z</time></trkpt><trkpt lat="45.08954" lon="6.0116567"><ele>714.5</ele><time>2026-05-01T13:03:34.254Z</time></trkpt><trkpt lat="45.0898733" lon="6.0116233"><ele>715.0</ele><time>2026-05-01T13:03:36.254Z</time></trkpt><trkpt lat="45.0900333" lon="6.0116183"><ele>715.0</ele><time>2026-05-01T13:03:37.254Z</time></trkpt><trkpt lat="45.090195" lon="6.0116183"><ele>715.0</ele><time>2026-05-01T13:03:38.254Z</time></trkpt><trkpt lat="45.090345" lon="6.0116233"><ele>715.0</ele><time>2026-05-01T13:03:39.254Z</time></trkpt><trkpt lat="45.0905117" lon="6.0115967"><ele>715.0</ele><time>2026-05-01T13:03:40.254Z</time></trkpt><trkpt lat="45.090665" lon="6.01152"><ele>715.0</ele><time>2026-05-01T13:03:41.254Z</time></trkpt><trkpt lat="45.090825" lon="6.0114267"><ele>715.0</ele><time>2026-05-01T13:03:42.254Z</time></trkpt><trkpt lat="45.091" lon="6.01134"><ele>714.3333333333334</ele><time>2026-05-01T13:03:43.253Z</time></trkpt><trkpt lat="45.0911783" lon="6.0112833"><ele>713.6666666666666</ele><time>2026-05-01T13:03:44.254Z</time></trkpt><trkpt lat="45.091355" lon="6.0112417"><ele>713.0</ele><time>2026-05-01T13:03:45.254Z</time></trkpt><trkpt lat="45.091535" lon="6.0112083"><ele>713.3333333333333</ele><time>2026-05-01T13:03:46.254Z</time></trkpt><trkpt lat="45.0916967" lon="6.0111917"><ele>713.6666666666666</ele><time>2026-05-01T13:03:47.253Z</time></trkpt><trkpt lat="45.0918467" lon="6.01114"><ele>714.0</ele><time>2026-05-01T13:03:48.254Z</time></trkpt><trkpt lat="45.0920033" lon="6.0110917"><ele>714.0</ele><time>2026-05-01T13:03:49.254Z</time></trkpt><trkpt lat="45.09217" lon="6.011045"><ele>714.0</ele><time>2026-05-01T13:03:50.254Z</time></trkpt><trkpt lat="45.0923417" lon="6.0109967"><ele>714.0</ele><time>2026-05-01T13:03:51.254Z</time></trkpt><trkpt lat="45.0925183" lon="6.0109567"><ele>714.0</ele><time>2026-05-01T13:03:52.253Z</time></trkpt><trkpt lat="45.0927017" lon="6.010915"><ele>714.0</ele><time>2026-05-01T13:03:53.253Z</time></trkpt><trkpt lat="45.0928783" lon="6.0108683"><ele>714.0</ele><time>2026-05-01T13:03:54.254Z</time></trkpt><trkpt lat="45.0930617" lon="6.0108233"><ele>713.0</ele><time>2026-05-01T13:03:55.254Z</time></trkpt><trkpt lat="45.0934417" lon="6.0107283"><ele>712.0</ele><time>2026-05-01T13:03:57.253Z</time></trkpt><trkpt lat="45.0936383" lon="6.010685"><ele>712.0</ele><time>2026-05-01T13:03:58.254Z</time></trkpt><trkpt lat="45.0938317" lon="6.0106333"><ele>712.0</ele><time>2026-05-01T13:03:59.253Z</time></trkpt><trkpt lat="45.0940283" lon="6.0105883"><ele>712.0</ele><time>2026-05-01T13:04:00.254Z</time></trkpt><trkpt lat="45.0942267" lon="6.0105267"><ele>712.0</ele><time>2026-05-01T13:04:01.254Z</time></trkpt><trkpt lat="45.09442" lon="6.0104683"><ele>712.0</ele><time>2026-05-01T13:04:02.254Z</time></trkpt><trkpt lat="45.094605" lon="6.0104283"><ele>712.0</ele><time>2026-05-01T13:04:03.254Z</time></trkpt><trkpt lat="45.0947783" lon="6.0103883"><ele>712.3333333333334</ele><time>2026-05-01T13:04:04.254Z</time></trkpt><trkpt lat="45.09495" lon="6.0103633"><ele>712.6666666666666</ele><time>2026-05-01T13:04:05.253Z</time></trkpt><trkpt lat="45.0951167" lon="6.0103267"><ele>713.0</ele><time>2026-05-01T13:04:06.253Z</time></trkpt><trkpt lat="45.0952817" lon="6.010295"><ele>713.0</ele><time>2026-05-01T13:04:07.254Z</time></trkpt><trkpt lat="45.095455" lon="6.01025"><ele>713.0</ele><time>2026-05-01T13:04:08.254Z</time></trkpt><trkpt lat="45.0956267" lon="6.0102083"><ele>713.0</ele><time>2026-05-01T13:04:09.254Z</time></trkpt><trkpt lat="45.0957983" lon="6.0101683"><ele>712.6666666666666</ele><time>2026-05-01T13:04:10.254Z</time></trkpt><trkpt lat="45.0959733" lon="6.0101267"><ele>712.3333333333334</ele><time>2026-05-01T13:04:11.254Z</time></trkpt><trkpt lat="45.09615" lon="6.0100767"><ele>712.0</ele><time>2026-05-01T13:04:12.254Z</time></trkpt><trkpt lat="45.096325" lon="6.0100433"><ele>712.0</ele><time>2026-05-01T13:04:13.253Z</time></trkpt><trkpt lat="45.0964867" lon="6.010005"><ele>712.0</ele><time>2026-05-01T13:04:14.254Z</time></trkpt><trkpt lat="45.0966433" lon="6.0099683"><ele>712.0</ele><time>2026-05-01T13:04:15.254Z</time></trkpt><trkpt lat="45.0967917" lon="6.0099433"><ele>711.6666666666667</ele><time>2026-05-01T13:04:16.254Z</time></trkpt><trkpt lat="45.0970767" lon="6.0098817"><ele>711.3333333333334</ele><time>2026-05-01T13:04:18.253Z</time></trkpt><trkpt lat="45.0972317" lon="6.009865"><ele>711.0</ele><time>2026-05-01T13:04:19.254Z</time></trkpt><trkpt lat="45.097365" lon="6.00982"><ele>712.0</ele><time>2026-05-01T13:04:20.254Z</time></trkpt><trkpt lat="45.0974767" lon="6.0097533"><ele>713.0</ele><time>2026-05-01T13:04:21.254Z</time></trkpt><trkpt lat="45.097575" lon="6.0096833"><ele>714.0</ele><time>2026-05-01T13:04:22.254Z</time></trkpt><trkpt lat="45.097685" lon="6.0096217"><ele>715.0</ele><time>2026-05-01T13:04:23.254Z</time></trkpt><trkpt lat="45.0978017" lon="6.0095767"><ele>715.0</ele><time>2026-05-01T13:04:24.254Z</time></trkpt><trkpt lat="45.0979283" lon="6.0095633"><ele>715.0</ele><time>2026-05-01T13:04:25.254Z</time></trkpt><trkpt lat="45.098075" lon="6.0095617"><ele>715.0</ele><time>2026-05-01T13:04:26.254Z</time></trkpt><trkpt lat="45.0982183" lon="6.0095533"><ele>715.0</ele><time>2026-05-01T13:04:27.254Z</time></trkpt><trkpt lat="45.0983683" lon="6.0095383"><ele>715.0</ele><time>2026-05-01T13:04:28.254Z</time></trkpt><trkpt lat="45.0985383" lon="6.0094983"><ele>715.0</ele><time>2026-05-01T13:04:29.254Z</time></trkpt><trkpt lat="45.0987067" lon="6.0094517"><ele>715.0</ele><time>2026-05-01T13:04:30.253Z</time></trkpt><trkpt lat="45.098885" lon="6.0094133"><ele>715.0</ele><time>2026-05-01T13:04:31.254Z</time></trkpt><trkpt lat="45.0990717" lon="6.0093767"><ele>715.0</ele><time>2026-05-01T13:04:32.254Z</time></trkpt><trkpt lat="45.0992717" lon="6.0093317"><ele>715.0</ele><time>2026-05-01T13:04:33.253Z</time></trkpt><trkpt lat="45.0995067" lon="6.0093133"><ele>714.6666666666667</ele><time>2026-05-01T13:04:34.253Z</time></trkpt><trkpt lat="45.0997117" lon="6.0092633"><ele>714.3333333333334</ele><time>2026-05-01T13:04:35.253Z</time></trkpt><trkpt lat="45.09992" lon="6.0092133"><ele>714.0</ele><time>2026-05-01T13:04:36.254Z</time></trkpt><trkpt lat="45.1001117" lon="6.0091783"><ele>713.5</ele><time>2026-05-01T13:04:37.254Z</time></trkpt><trkpt lat="45.1004783" lon="6.0091083"><ele>713.0</ele><time>2026-05-01T13:04:39.253Z</time></trkpt><trkpt lat="45.10066" lon="6.0090567"><ele>712.3333333333333</ele><time>2026-05-01T13:04:40.254Z</time></trkpt><trkpt lat="45.100845" lon="6.0090083"><ele>711.6666666666666</ele><time>2026-05-01T13:04:41.254Z</time></trkpt><trkpt lat="45.1010217" lon="6.0089633"><ele>711.0</ele><time>2026-05-01T13:04:42.253Z</time></trkpt><trkpt lat="45.1011883" lon="6.008915"><ele>711.0</ele><time>2026-05-01T13:04:43.254Z</time></trkpt><trkpt lat="45.10135" lon="6.0088767"><ele>711.0</ele><time>2026-05-01T13:04:44.254Z</time></trkpt><trkpt lat="45.1015233" lon="6.008835"><ele>711.0</ele><time>2026-05-01T13:04:45.254Z</time></trkpt><trkpt lat="45.101725" lon="6.0088067"><ele>711.0</ele><time>2026-05-01T13:04:46.254Z</time></trkpt><trkpt lat="45.1019417" lon="6.0087683"><ele>711.0</ele><time>2026-05-01T13:04:47.253Z</time></trkpt><trkpt lat="45.10214" lon="6.0087017"><ele>711.0</ele><time>2026-05-01T13:04:48.254Z</time></trkpt><trkpt lat="45.102345" lon="6.0086467"><ele>710.5</ele><time>2026-05-01T13:04:49.254Z</time></trkpt><trkpt lat="45.1025667" lon="6.0085917"><ele>710.0</ele><time>2026-05-01T13:04:50.254Z</time></trkpt><trkpt lat="45.1027917" lon="6.0085417"><ele>710.0</ele><time>2026-05-01T13:04:51.254Z</time></trkpt><trkpt lat="45.1030133" lon="6.0084817"><ele>710.0</ele><time>2026-05-01T13:04:52.253Z</time></trkpt><trkpt lat="45.1032333" lon="6.0084333"><ele>710.0</ele><time>2026-05-01T13:04:53.253Z</time></trkpt><trkpt lat="45.103455" lon="6.0083983"><ele>710.6666666666666</ele><time>2026-05-01T13:04:54.253Z</time></trkpt><trkpt lat="45.10366" lon="6.0083467"><ele>711.3333333333334</ele><time>2026-05-01T13:04:55.254Z</time></trkpt><trkpt lat="45.103855" lon="6.008315"><ele>712.0</ele><time>2026-05-01T13:04:56.254Z</time></trkpt><trkpt lat="45.1040483" lon="6.00827"><ele>712.0</ele><time>2026-05-01T13:04:57.254Z</time></trkpt><trkpt lat="45.1042533" lon="6.0082167"><ele>712.0</ele><time>2026-05-01T13:04:58.254Z</time></trkpt><trkpt lat="45.1046467" lon="6.0081233"><ele>712.0</ele><time>2026-05-01T13:05:00.254Z</time></trkpt><trkpt lat="45.10483" lon="6.0080767"><ele>712.0</ele><time>2026-05-01T13:05:01.254Z</time></trkpt><trkpt lat="45.1050117" lon="6.0080317"><ele>712.0</ele><time>2026-05-01T13:05:02.254Z</time></trkpt><trkpt lat="45.105205" lon="6.00799"><ele>712.0</ele><time>2026-05-01T13:05:03.254Z</time></trkpt><trkpt lat="45.1054067" lon="6.0079333"><ele>712.0</ele><time>2026-05-01T13:05:04.254Z</time></trkpt><trkpt lat="45.1056183" lon="6.007875"><ele>712.0</ele><time>2026-05-01T13:05:05.254Z</time></trkpt><trkpt lat="45.10582" lon="6.0078233"><ele>712.0</ele><time>2026-05-01T13:05:06.253Z</time></trkpt><trkpt lat="45.1060117" lon="6.0077717"><ele>712.0</ele><time>2026-05-01T13:05:07.254Z</time></trkpt><trkpt lat="45.106195" lon="6.0077283"><ele>712.0</ele><time>2026-05-01T13:05:08.254Z</time></trkpt><trkpt lat="45.1063467" lon="6.007715"><ele>712.0</ele><time>2026-05-01T13:05:09.254Z</time></trkpt><trkpt lat="45.106495" lon="6.00768"><ele>712.0</ele><time>2026-05-01T13:05:10.254Z</time></trkpt><trkpt lat="45.10663" lon="6.007645"><ele>712.0</ele><time>2026-05-01T13:05:11.254Z</time></trkpt><trkpt lat="45.10677" lon="6.0076117"><ele>712.0</ele><time>2026-05-01T13:05:12.254Z</time></trkpt><trkpt lat="45.10692" lon="6.007585"><ele>711.6666666666667</ele><time>2026-05-01T13:05:13.254Z</time></trkpt><trkpt lat="45.1070583" lon="6.0075433"><ele>711.3333333333334</ele><time>2026-05-01T13:05:14.254Z</time></trkpt><trkpt lat="45.1072183" lon="6.00752"><ele>711.0</ele><time>2026-05-01T13:05:15.254Z</time></trkpt><trkpt lat="45.1073667" lon="6.0074783"><ele>710.0</ele><time>2026-05-01T13:05:16.253Z</time></trkpt><trkpt lat="45.10752" lon="6.0074433"><ele>709.0</ele><time>2026-05-01T13:05:17.253Z</time></trkpt><trkpt lat="45.1076917" lon="6.007395"><ele>708.0</ele><time>2026-05-01T13:05:18.253Z</time></trkpt><trkpt lat="45.1078783" lon="6.0073433"><ele>709.0</ele><time>2026-05-01T13:05:19.254Z</time></trkpt><trkpt lat="45.1082967" lon="6.0072233"><ele>710.0</ele><time>2026-05-01T13:05:21.253Z</time></trkpt><trkpt lat="45.10853" lon="6.007155"><ele>710.0</ele><time>2026-05-01T13:05:22.253Z</time></trkpt><trkpt lat="45.10878" lon="6.007095"><ele>710.0</ele><time>2026-05-01T13:05:23.253Z</time></trkpt><trkpt lat="45.1090317" lon="6.0070333"><ele>711.0</ele><time>2026-05-01T13:05:24.252Z</time></trkpt><trkpt lat="45.1092683" lon="6.0069717"><ele>712.0</ele><time>2026-05-01T13:05:25.253Z</time></trkpt><trkpt lat="45.109505" lon="6.00691"><ele>712.0</ele><time>2026-05-01T13:05:26.253Z</time></trkpt><trkpt lat="45.1097383" lon="6.0068483"><ele>712.0</ele><time>2026-05-01T13:05:27.253Z</time></trkpt><trkpt lat="45.10997" lon="6.0067933"><ele>712.0</ele><time>2026-05-01T13:05:28.252Z</time></trkpt><trkpt lat="45.1101767" lon="6.006745"><ele>712.0</ele><time>2026-05-01T13:05:29.252Z</time></trkpt><trkpt lat="45.11036" lon="6.0066983"><ele>712.0</ele><time>2026-05-01T13:05:30.253Z</time></trkpt><trkpt lat="45.1105283" lon="6.0066633"><ele>712.0</ele><time>2026-05-01T13:05:31.253Z</time></trkpt><trkpt lat="45.1106983" lon="6.00663"><ele>712.0</ele><time>2026-05-01T13:05:32.253Z</time></trkpt><trkpt lat="45.1108817" lon="6.0065883"><ele>712.0</ele><time>2026-05-01T13:05:33.253Z</time></trkpt><trkpt lat="45.1110567" lon="6.00655"><ele>712.3333333333334</ele><time>2026-05-01T13:05:34.253Z</time></trkpt><trkpt lat="45.1112283" lon="6.0065167"><ele>712.6666666666666</ele><time>2026-05-01T13:05:35.253Z</time></trkpt><trkpt lat="45.1113767" lon="6.0064867"><ele>713.0</ele><time>2026-05-01T13:05:36.252Z</time></trkpt><trkpt lat="45.1115167" lon="6.0064483"><ele>714.3333333333333</ele><time>2026-05-01T13:05:37.253Z</time></trkpt><trkpt lat="45.1116583" lon="6.006415"><ele>715.6666666666666</ele><time>2026-05-01T13:05:38.252Z</time></trkpt><trkpt lat="45.1118033" lon="6.0063683"><ele>717.0</ele><time>2026-05-01T13:05:39.253Z</time></trkpt><trkpt lat="45.111965" lon="6.006315"><ele>717.0</ele><time>2026-05-01T13:05:40.253Z</time></trkpt><trkpt lat="45.11232" lon="6.0062217"><ele>717.0</ele><time>2026-05-01T13:05:42.253Z</time></trkpt><trkpt lat="45.1125183" lon="6.0061967"><ele>716.3333333333334</ele><time>2026-05-01T13:05:43.253Z</time></trkpt><trkpt lat="45.1127033" lon="6.0061717"><ele>715.6666666666667</ele><time>2026-05-01T13:05:44.253Z</time></trkpt><trkpt lat="45.1128917" lon="6.0061483"><ele>715.0</ele><time>2026-05-01T13:05:45.253Z</time></trkpt><trkpt lat="45.113055" lon="6.006115"><ele>715.0</ele><time>2026-05-01T13:05:46.253Z</time></trkpt><trkpt lat="45.1132167" lon="6.00606"><ele>715.0</ele><time>2026-05-01T13:05:47.253Z</time></trkpt><trkpt lat="45.1133783" lon="6.006035"><ele>715.0</ele><time>2026-05-01T13:05:48.253Z</time></trkpt><trkpt lat="45.113555" lon="6.0060033"><ele>718.0</ele><time>2026-05-01T13:05:49.252Z</time></trkpt><trkpt lat="45.1137217" lon="6.0059733"><ele>721.0</ele><time>2026-05-01T13:05:50.253Z</time></trkpt><trkpt lat="45.1138783" lon="6.0059083"><ele>724.0</ele><time>2026-05-01T13:05:51.253Z</time></trkpt><trkpt lat="45.114035" lon="6.005825"><ele>722.3333333333334</ele><time>2026-05-01T13:05:52.252Z</time></trkpt><trkpt lat="45.11417" lon="6.00573"><ele>720.6666666666666</ele><time>2026-05-01T13:05:53.253Z</time></trkpt><trkpt lat="45.11429" lon="6.005625"><ele>719.0</ele><time>2026-05-01T13:05:54.253Z</time></trkpt><trkpt lat="45.11442" lon="6.0054633"><ele>719.0</ele><time>2026-05-01T13:05:55.252Z</time></trkpt><trkpt lat="45.1145233" lon="6.0052967"><ele>719.0</ele><time>2026-05-01T13:05:56.252Z</time></trkpt><trkpt lat="45.114605" lon="6.0051083"><ele>719.0</ele><time>2026-05-01T13:05:57.253Z</time></trkpt><trkpt lat="45.1146633" lon="6.0048883"><ele>722.3333333333333</ele><time>2026-05-01T13:05:58.253Z</time></trkpt><trkpt lat="45.1147017" lon="6.00465"><ele>725.6666666666666</ele><time>2026-05-01T13:05:59.253Z</time></trkpt><trkpt lat="45.1147233" lon="6.0043983"><ele>729.0</ele><time>2026-05-01T13:06:00.253Z</time></trkpt><trkpt lat="45.1147233" lon="6.00413"><ele>736.0</ele><time>2026-05-01T13:06:01.253Z</time></trkpt><trkpt lat="45.1147117" lon="6.0035533"><ele>743.0</ele><time>2026-05-01T13:06:03.253Z</time></trkpt><trkpt lat="45.1147083" lon="6.0032617"><ele>750.5</ele><time>2026-05-01T13:06:04.253Z</time></trkpt><trkpt lat="45.114725" lon="6.002945"><ele>758.0</ele><time>2026-05-01T13:06:05.252Z</time></trkpt><trkpt lat="45.1147433" lon="6.0025883"><ele>765.5</ele><time>2026-05-01T13:06:06.253Z</time></trkpt><trkpt lat="45.1147967" lon="6.0021867"><ele>773.0</ele><time>2026-05-01T13:06:07.253Z</time></trkpt><trkpt lat="45.11482" lon="6.0017683"><ele>772.5</ele><time>2026-05-01T13:06:08.252Z</time></trkpt><trkpt lat="45.1148517" lon="6.00134"><ele>772.0</ele><time>2026-05-01T13:06:09.252Z</time></trkpt><trkpt lat="45.1149133" lon="6.0009183"><ele>746.5</ele><time>2026-05-01T13:06:10.252Z</time></trkpt><trkpt lat="45.1149783" lon="6.0005283"><ele>721.0</ele><time>2026-05-01T13:06:11.253Z</time></trkpt><trkpt lat="45.1150267" lon="6.0001817"><ele>721.0</ele><time>2026-05-01T13:06:12.252Z</time></trkpt><trkpt lat="45.1150783" lon="5.9998667"><ele>721.0</ele><time>2026-05-01T13:06:13.253Z</time></trkpt><trkpt lat="45.1151217" lon="5.9995583"><ele>721.0</ele><time>2026-05-01T13:06:14.253Z</time></trkpt><trkpt lat="45.11516" lon="5.99925"><ele>721.0</ele><time>2026-05-01T13:06:15.253Z</time></trkpt><trkpt lat="45.1151967" lon="5.9989383"><ele>721.0</ele><time>2026-05-01T13:06:16.252Z</time></trkpt><trkpt lat="45.1152367" lon="5.9986117"><ele>722.0</ele><time>2026-05-01T13:06:17.252Z</time></trkpt><trkpt lat="45.1152883" lon="5.99828"><ele>723.0</ele><time>2026-05-01T13:06:18.252Z</time></trkpt><trkpt lat="45.11532" lon="5.997925"><ele>723.0</ele><time>2026-05-01T13:06:19.253Z</time></trkpt><trkpt lat="45.11535" lon="5.9975633"><ele>723.0</ele><time>2026-05-01T13:06:20.253Z</time></trkpt><trkpt lat="45.115395" lon="5.997215"><ele>723.5</ele><time>2026-05-01T13:06:21.252Z</time></trkpt><trkpt lat="45.1154383" lon="5.9968683"><ele>724.0</ele><time>2026-05-01T13:06:22.253Z</time></trkpt><trkpt lat="45.1154917" lon="5.9961983"><ele>724.0</ele><time>2026-05-01T13:06:24.253Z</time></trkpt><trkpt lat="45.1155317" lon="5.9958533"><ele>724.0</ele><time>2026-05-01T13:06:25.253Z</time></trkpt><trkpt lat="45.1155717" lon="5.9955067"><ele>724.5</ele><time>2026-05-01T13:06:26.253Z</time></trkpt><trkpt lat="45.1156083" lon="5.995155"><ele>725.0</ele><time>2026-05-01T13:06:27.253Z</time></trkpt><trkpt lat="45.1156517" lon="5.994795"><ele>723.5</ele><time>2026-05-01T13:06:28.252Z</time></trkpt><trkpt lat="45.1156967" lon="5.9944383"><ele>722.0</ele><time>2026-05-01T13:06:29.253Z</time></trkpt><trkpt lat="45.1157533" lon="5.99408"><ele>719.5</ele><time>2026-05-01T13:06:30.253Z</time></trkpt><trkpt lat="45.11579" lon="5.99371"><ele>717.0</ele><time>2026-05-01T13:06:31.253Z</time></trkpt><trkpt lat="45.1158317" lon="5.9933483"><ele>717.5</ele><time>2026-05-01T13:06:32.253Z</time></trkpt><trkpt lat="45.11587" lon="5.9929867"><ele>718.0</ele><time>2026-05-01T13:06:33.253Z</time></trkpt><trkpt lat="45.11591" lon="5.992625"><ele>717.5</ele><time>2026-05-01T13:06:34.253Z</time></trkpt><trkpt lat="45.1159483" lon="5.99226"><ele>717.0</ele><time>2026-05-01T13:06:35.253Z</time></trkpt><trkpt lat="45.1159867" lon="5.99189"><ele>717.5</ele><time>2026-05-01T13:06:36.253Z</time></trkpt><trkpt lat="45.1160367" lon="5.9915267"><ele>718.0</ele><time>2026-05-01T13:06:37.253Z</time></trkpt><trkpt lat="45.1160917" lon="5.9911617"><ele>716.5</ele><time>2026-05-01T13:06:38.252Z</time></trkpt><trkpt lat="45.11614" lon="5.9907933"><ele>715.0</ele><time>2026-05-01T13:06:39.252Z</time></trkpt><trkpt lat="45.1161817" lon="5.9904217"><ele>715.0</ele><time>2026-05-01T13:06:40.253Z</time></trkpt><trkpt lat="45.1162267" lon="5.99004"><ele>715.0</ele><time>2026-05-01T13:06:41.253Z</time></trkpt><trkpt lat="45.1162833" lon="5.9896617"><ele>715.0</ele><time>2026-05-01T13:06:42.252Z</time></trkpt><trkpt lat="45.1163417" lon="5.9892967"><ele>715.0</ele><time>2026-05-01T13:06:43.252Z</time></trkpt><trkpt lat="45.116425" lon="5.988595"><ele>714.0</ele><time>2026-05-01T13:06:45.253Z</time></trkpt><trkpt lat="45.116445" lon="5.9882233"><ele>713.0</ele><time>2026-05-01T13:06:46.252Z</time></trkpt><trkpt lat="45.11648" lon="5.98786"><ele>715.0</ele><time>2026-05-01T13:06:47.253Z</time></trkpt><trkpt lat="45.11652" lon="5.987505"><ele>717.0</ele><time>2026-05-01T13:06:48.253Z</time></trkpt><trkpt lat="45.11655" lon="5.9871567"><ele>717.5</ele><time>2026-05-01T13:06:49.253Z</time></trkpt><trkpt lat="45.1165817" lon="5.98681"><ele>718.0</ele><time>2026-05-01T13:06:50.253Z</time></trkpt><trkpt lat="45.11661" lon="5.98647"><ele>718.0</ele><time>2026-05-01T13:06:51.252Z</time></trkpt><trkpt lat="45.1166533" lon="5.9861417"><ele>718.0</ele><time>2026-05-01T13:06:52.252Z</time></trkpt><trkpt lat="45.116685" lon="5.9858067"><ele>719.5</ele><time>2026-05-01T13:06:53.253Z</time></trkpt><trkpt lat="45.1167233" lon="5.9854733"><ele>721.0</ele><time>2026-05-01T13:06:54.253Z</time></trkpt><trkpt lat="45.11677" lon="5.9851367"><ele>724.5</ele><time>2026-05-01T13:06:55.252Z</time></trkpt><trkpt lat="45.1168167" lon="5.9847917"><ele>728.0</ele><time>2026-05-01T13:06:56.252Z</time></trkpt><trkpt lat="45.116855" lon="5.98444"><ele>727.5</ele><time>2026-05-01T13:06:57.253Z</time></trkpt><trkpt lat="45.1168817" lon="5.9840833"><ele>727.0</ele><time>2026-05-01T13:06:58.253Z</time></trkpt><trkpt lat="45.1169167" lon="5.9837283"><ele>727.0</ele><time>2026-05-01T13:06:59.252Z</time></trkpt><trkpt lat="45.1169517" lon="5.98337"><ele>727.0</ele><time>2026-05-01T13:07:00.253Z</time></trkpt><trkpt lat="45.117015" lon="5.9830133"><ele>726.5</ele><time>2026-05-01T13:07:01.253Z</time></trkpt><trkpt lat="45.1170717" lon="5.9826467"><ele>726.0</ele><time>2026-05-01T13:07:02.253Z</time></trkpt><trkpt lat="45.11715" lon="5.98228"><ele>726.0</ele><time>2026-05-01T13:07:03.253Z</time></trkpt><trkpt lat="45.1172183" lon="5.98191"><ele>726.0</ele><time>2026-05-01T13:07:04.253Z</time></trkpt><trkpt lat="45.11734" lon="5.9811667"><ele>726.5</ele><time>2026-05-01T13:07:06.253Z</time></trkpt><trkpt lat="45.1173917" lon="5.9807917"><ele>727.0</ele><time>2026-05-01T13:07:07.252Z</time></trkpt><trkpt lat="45.1174383" lon="5.9804167"><ele>720.5</ele><time>2026-05-01T13:07:08.253Z</time></trkpt><trkpt lat="45.11747" lon="5.9800233"><ele>714.0</ele><time>2026-05-01T13:07:09.252Z</time></trkpt><trkpt lat="45.11749" lon="5.9796367"><ele>713.0</ele><time>2026-05-01T13:07:10.252Z</time></trkpt><trkpt lat="45.1175217" lon="5.9792583"><ele>712.0</ele><time>2026-05-01T13:07:11.253Z</time></trkpt><trkpt lat="45.117555" lon="5.9788867"><ele>712.0</ele><time>2026-05-01T13:07:12.253Z</time></trkpt><trkpt lat="45.1175917" lon="5.9785067"><ele>712.0</ele><time>2026-05-01T13:07:13.253Z</time></trkpt><trkpt lat="45.1176283" lon="5.9781267"><ele>715.0</ele><time>2026-05-01T13:07:14.253Z</time></trkpt><trkpt lat="45.1176633" lon="5.9777467"><ele>718.0</ele><time>2026-05-01T13:07:15.252Z</time></trkpt><trkpt lat="45.117705" lon="5.9773767"><ele>719.5</ele><time>2026-05-01T13:07:16.253Z</time></trkpt><trkpt lat="45.1177367" lon="5.976995"><ele>721.0</ele><time>2026-05-01T13:07:17.252Z</time></trkpt><trkpt lat="45.1177717" lon="5.97662"><ele>723.0</ele><time>2026-05-01T13:07:18.253Z</time></trkpt><trkpt lat="45.1178067" lon="5.9762483"><ele>725.0</ele><time>2026-05-01T13:07:19.253Z</time></trkpt><trkpt lat="45.1178433" lon="5.9758817"><ele>726.5</ele><time>2026-05-01T13:07:20.252Z</time></trkpt><trkpt lat="45.11789" lon="5.975535"><ele>728.0</ele><time>2026-05-01T13:07:21.253Z</time></trkpt><trkpt lat="45.1179267" lon="5.975195"><ele>727.6666666666666</ele><time>2026-05-01T13:07:22.252Z</time></trkpt><trkpt lat="45.1179633" lon="5.9748783"><ele>727.3333333333334</ele><time>2026-05-01T13:07:23.253Z</time></trkpt><trkpt lat="45.1179983" lon="5.974575"><ele>727.0</ele><time>2026-05-01T13:07:24.253Z</time></trkpt><trkpt lat="45.1180367" lon="5.9742817"><ele>729.5</ele><time>2026-05-01T13:07:25.253Z</time></trkpt><trkpt lat="45.118105" lon="5.9737517"><ele>732.0</ele><time>2026-05-01T13:07:27.253Z</time></trkpt><trkpt lat="45.1181367" lon="5.9734883"><ele>736.3333333333334</ele><time>2026-05-01T13:07:28.253Z</time></trkpt><trkpt lat="45.1181667" lon="5.9732133"><ele>740.6666666666667</ele><time>2026-05-01T13:07:29.253Z</time></trkpt><trkpt lat="45.11819" lon="5.97294"><ele>745.0</ele><time>2026-05-01T13:07:30.253Z</time></trkpt><trkpt lat="45.11821" lon="5.9726617"><ele>745.3333333333334</ele><time>2026-05-01T13:07:31.253Z</time></trkpt><trkpt lat="45.118205" lon="5.9723733"><ele>745.6666666666666</ele><time>2026-05-01T13:07:32.253Z</time></trkpt><trkpt lat="45.1181883" lon="5.9720783"><ele>746.0</ele><time>2026-05-01T13:07:33.253Z</time></trkpt><trkpt lat="45.11816" lon="5.971805"><ele>741.0</ele><time>2026-05-01T13:07:34.253Z</time></trkpt><trkpt lat="45.118105" lon="5.97153"><ele>736.0</ele><time>2026-05-01T13:07:35.253Z</time></trkpt><trkpt lat="45.118045" lon="5.971265"><ele>731.0</ele><time>2026-05-01T13:07:36.252Z</time></trkpt><trkpt lat="45.1179717" lon="5.9710133"><ele>728.6666666666666</ele><time>2026-05-01T13:07:37.253Z</time></trkpt><trkpt lat="45.1178533" lon="5.970765"><ele>726.3333333333334</ele><time>2026-05-01T13:07:38.252Z</time></trkpt><trkpt lat="45.1177317" lon="5.9705133"><ele>724.0</ele><time>2026-05-01T13:07:39.253Z</time></trkpt><trkpt lat="45.1176" lon="5.970255"><ele>724.5</ele><time>2026-05-01T13:07:40.253Z</time></trkpt><trkpt lat="45.117465" lon="5.969975"><ele>725.0</ele><time>2026-05-01T13:07:41.252Z</time></trkpt><trkpt lat="45.11731" lon="5.9696817"><ele>725.0</ele><time>2026-05-01T13:07:42.253Z</time></trkpt><trkpt lat="45.117155" lon="5.969385"><ele>725.0</ele><time>2026-05-01T13:07:43.253Z</time></trkpt><trkpt lat="45.117" lon="5.9691"><ele>722.0</ele><time>2026-05-01T13:07:44.253Z</time></trkpt><trkpt lat="45.11685" lon="5.9688217"><ele>719.0</ele><time>2026-05-01T13:07:45.253Z</time></trkpt><trkpt lat="45.1167183" lon="5.9685783"><ele>737.0</ele><time>2026-05-01T13:07:46.253Z</time></trkpt><trkpt lat="45.1164867" lon="5.968065"><ele>755.0</ele><time>2026-05-01T13:07:48.253Z</time></trkpt><trkpt lat="45.1164083" lon="5.967805"><ele>767.0</ele><time>2026-05-01T13:07:49.253Z</time></trkpt><trkpt lat="45.1163217" lon="5.9671367"><ele>767.0</ele><time>2026-05-01T13:07:51.252Z</time></trkpt><trkpt lat="45.1163167" lon="5.9668183"><ele>767.0</ele><time>2026-05-01T13:07:52.252Z</time></trkpt><trkpt lat="45.1163267" lon="5.966465"><ele>763.0</ele><time>2026-05-01T13:07:53.253Z</time></trkpt><trkpt lat="45.1163483" lon="5.9660917"><ele>759.0</ele><time>2026-05-01T13:07:54.253Z</time></trkpt><trkpt lat="45.116375" lon="5.9657133"><ele>755.5</ele><time>2026-05-01T13:07:55.253Z</time></trkpt><trkpt lat="45.116395" lon="5.96532"><ele>752.0</ele><time>2026-05-01T13:07:56.253Z</time></trkpt><trkpt lat="45.116425" lon="5.964955"><ele>744.0</ele><time>2026-05-01T13:07:57.253Z</time></trkpt><trkpt lat="45.1164383" lon="5.9645933"><ele>736.0</ele><time>2026-05-01T13:07:58.252Z</time></trkpt><trkpt lat="45.11645" lon="5.9642567"><ele>735.0</ele><time>2026-05-01T13:07:59.253Z</time></trkpt><trkpt lat="45.1164567" lon="5.96395"><ele>734.0</ele><time>2026-05-01T13:08:00.253Z</time></trkpt><trkpt lat="45.11648" lon="5.9636583"><ele>733.0</ele><time>2026-05-01T13:08:01.253Z</time></trkpt><trkpt lat="45.1164917" lon="5.9633717"><ele>732.3333333333334</ele><time>2026-05-01T13:08:02.252Z</time></trkpt><trkpt lat="45.11648" lon="5.963095"><ele>731.6666666666666</ele><time>2026-05-01T13:08:03.253Z</time></trkpt><trkpt lat="45.1164433" lon="5.9628267"><ele>731.0</ele><time>2026-05-01T13:08:04.253Z</time></trkpt><trkpt lat="45.1163983" lon="5.9625667"><ele>728.6666666666666</ele><time>2026-05-01T13:08:05.253Z</time></trkpt><trkpt lat="45.1163217" lon="5.9623217"><ele>726.3333333333334</ele><time>2026-05-01T13:08:06.252Z</time></trkpt><trkpt lat="45.116205" lon="5.9620767"><ele>724.0</ele><time>2026-05-01T13:08:07.253Z</time></trkpt><trkpt lat="45.1157017" lon="5.9615467"><ele>723.0</ele><time>2026-05-01T13:08:09.253Z</time></trkpt><trkpt lat="45.1155017" lon="5.9612867"><ele>722.0</ele><time>2026-05-01T13:08:10.253Z</time></trkpt><trkpt lat="45.1152983" lon="5.9610133"><ele>715.5</ele><time>2026-05-01T13:08:11.253Z</time></trkpt><trkpt lat="45.1151083" lon="5.9607533"><ele>709.0</ele><time>2026-05-01T13:08:12.253Z</time></trkpt><trkpt lat="45.1149283" lon="5.9605017"><ele>718.0</ele><time>2026-05-01T13:08:13.252Z</time></trkpt><trkpt lat="45.1147467" lon="5.9602817"><ele>727.0</ele><time>2026-05-01T13:08:14.253Z</time></trkpt><trkpt lat="45.1145817" lon="5.9600733"><ele>723.0</ele><time>2026-05-01T13:08:15.253Z</time></trkpt><trkpt lat="45.1144133" lon="5.9598667"><ele>719.0</ele><time>2026-05-01T13:08:16.253Z</time></trkpt><trkpt lat="45.1142483" lon="5.9596517"><ele>715.0</ele><time>2026-05-01T13:08:17.253Z</time></trkpt><trkpt lat="45.114095" lon="5.95944"><ele>718.0</ele><time>2026-05-01T13:08:18.253Z</time></trkpt><trkpt lat="45.11392" lon="5.95923"><ele>721.0</ele><time>2026-05-01T13:08:19.253Z</time></trkpt><trkpt lat="45.11379" lon="5.9590183"><ele>724.0</ele><time>2026-05-01T13:08:20.253Z</time></trkpt><trkpt lat="45.1136717" lon="5.9587883"><ele>724.0</ele><time>2026-05-01T13:08:21.253Z</time></trkpt><trkpt lat="45.1135933" lon="5.9585333"><ele>724.0</ele><time>2026-05-01T13:08:22.253Z</time></trkpt><trkpt lat="45.1135367" lon="5.9582467"><ele>724.0</ele><time>2026-05-01T13:08:23.253Z</time></trkpt><trkpt lat="45.1135433" lon="5.9579317"><ele>721.5</ele><time>2026-05-01T13:08:24.253Z</time></trkpt><trkpt lat="45.113555" lon="5.957615"><ele>719.0</ele><time>2026-05-01T13:08:25.253Z</time></trkpt><trkpt lat="45.1135883" lon="5.9572817"><ele>715.0</ele><time>2026-05-01T13:08:26.252Z</time></trkpt><trkpt lat="45.1136133" lon="5.9569483"><ele>711.0</ele><time>2026-05-01T13:08:27.253Z</time></trkpt><trkpt lat="45.1136217" lon="5.9566133"><ele>711.0</ele><time>2026-05-01T13:08:28.252Z</time></trkpt><trkpt lat="45.1136067" lon="5.9559433"><ele>710.5</ele><time>2026-05-01T13:08:30.252Z</time></trkpt><trkpt lat="45.1135817" lon="5.955605"><ele>710.0</ele><time>2026-05-01T13:08:31.253Z</time></trkpt><trkpt lat="45.11354" lon="5.9552733"><ele>709.5</ele><time>2026-05-01T13:08:32.252Z</time></trkpt><trkpt lat="45.1135033" lon="5.9549333"><ele>709.0</ele><time>2026-05-01T13:08:33.253Z</time></trkpt><trkpt lat="45.1134833" lon="5.9546"><ele>709.0</ele><time>2026-05-01T13:08:34.253Z</time></trkpt><trkpt lat="45.1134667" lon="5.95427"><ele>709.0</ele><time>2026-05-01T13:08:35.253Z</time></trkpt><trkpt lat="45.1134583" lon="5.9539383"><ele>708.5</ele><time>2026-05-01T13:08:36.253Z</time></trkpt><trkpt lat="45.113475" lon="5.9536133"><ele>708.0</ele><time>2026-05-01T13:08:37.252Z</time></trkpt><trkpt lat="45.1134817" lon="5.953275"><ele>707.5</ele><time>2026-05-01T13:08:38.253Z</time></trkpt><trkpt lat="45.1134617" lon="5.95291"><ele>707.0</ele><time>2026-05-01T13:08:39.253Z</time></trkpt><trkpt lat="45.1134533" lon="5.95256"><ele>706.5</ele><time>2026-05-01T13:08:40.252Z</time></trkpt><trkpt lat="45.1134183" lon="5.9521917"><ele>706.0</ele><time>2026-05-01T13:08:41.253Z</time></trkpt><trkpt lat="45.1133933" lon="5.9518417"><ele>707.5</ele><time>2026-05-01T13:08:42.252Z</time></trkpt><trkpt lat="45.113355" lon="5.9514883"><ele>709.0</ele><time>2026-05-01T13:08:43.253Z</time></trkpt><trkpt lat="45.11331" lon="5.9511333"><ele>706.5</ele><time>2026-05-01T13:08:44.253Z</time></trkpt><trkpt lat="45.11325" lon="5.9507833"><ele>704.0</ele><time>2026-05-01T13:08:45.252Z</time></trkpt><trkpt lat="45.113215" lon="5.95044"><ele>699.0</ele><time>2026-05-01T13:08:46.252Z</time></trkpt><trkpt lat="45.113175" lon="5.9500933"><ele>694.0</ele><time>2026-05-01T13:08:47.253Z</time></trkpt><trkpt lat="45.1131183" lon="5.949735"><ele>694.0</ele><time>2026-05-01T13:08:48.252Z</time></trkpt><trkpt lat="45.1130383" lon="5.949385"><ele>694.0</ele><time>2026-05-01T13:08:49.253Z</time></trkpt><trkpt lat="45.1128467" lon="5.9486933"><ele>693.0</ele><time>2026-05-01T13:08:51.253Z</time></trkpt><trkpt lat="45.1127233" lon="5.9483533"><ele>692.0</ele><time>2026-05-01T13:08:52.253Z</time></trkpt><trkpt lat="45.1126083" lon="5.948035"><ele>692.0</ele><time>2026-05-01T13:08:53.252Z</time></trkpt><trkpt lat="45.11246" lon="5.94772"><ele>692.0</ele><time>2026-05-01T13:08:54.253Z</time></trkpt><trkpt lat="45.112285" lon="5.9474167"><ele>686.5</ele><time>2026-05-01T13:08:55.252Z</time></trkpt><trkpt lat="45.1121067" lon="5.9471133"><ele>681.0</ele><time>2026-05-01T13:08:56.253Z</time></trkpt><trkpt lat="45.1119217" lon="5.9468217"><ele>682.5</ele><time>2026-05-01T13:08:57.253Z</time></trkpt><trkpt lat="45.111735" lon="5.946535"><ele>684.0</ele><time>2026-05-01T13:08:58.253Z</time></trkpt><trkpt lat="45.1115567" lon="5.9462333"><ele>684.0</ele><time>2026-05-01T13:08:59.253Z</time></trkpt><trkpt lat="45.11137" lon="5.9459467"><ele>684.0</ele><time>2026-05-01T13:09:00.252Z</time></trkpt><trkpt lat="45.1111933" lon="5.9456567"><ele>684.5</ele><time>2026-05-01T13:09:01.253Z</time></trkpt><trkpt lat="45.111015" lon="5.9453817"><ele>685.0</ele><time>2026-05-01T13:09:02.253Z</time></trkpt><trkpt lat="45.1108517" lon="5.945105"><ele>677.5</ele><time>2026-05-01T13:09:03.253Z</time></trkpt><trkpt lat="45.11069" lon="5.9448133"><ele>670.0</ele><time>2026-05-01T13:09:04.253Z</time></trkpt><trkpt lat="45.1105317" lon="5.9445183"><ele>673.0</ele><time>2026-05-01T13:09:05.252Z</time></trkpt><trkpt lat="45.1103817" lon="5.9442033"><ele>676.0</ele><time>2026-05-01T13:09:06.253Z</time></trkpt><trkpt lat="45.1102467" lon="5.9438833"><ele>676.0</ele><time>2026-05-01T13:09:07.253Z</time></trkpt><trkpt lat="45.110125" lon="5.943555"><ele>676.0</ele><time>2026-05-01T13:09:08.253Z</time></trkpt><trkpt lat="45.1100133" lon="5.94321"><ele>680.5</ele><time>2026-05-01T13:09:09.252Z</time></trkpt><trkpt lat="45.1099117" lon="5.9428567"><ele>685.0</ele><time>2026-05-01T13:09:10.253Z</time></trkpt><trkpt lat="45.1097033" lon="5.9421867"><ele>676.0</ele><time>2026-05-01T13:09:12.253Z</time></trkpt><trkpt lat="45.1096067" lon="5.9418833"><ele>667.0</ele><time>2026-05-01T13:09:13.253Z</time></trkpt><trkpt lat="45.1095167" lon="5.9416"><ele>667.0</ele><time>2026-05-01T13:09:14.253Z</time></trkpt><trkpt lat="45.1094133" lon="5.9413"><ele>667.0</ele><time>2026-05-01T13:09:15.253Z</time></trkpt><trkpt lat="45.1093217" lon="5.9409917"><ele>667.5</ele><time>2026-05-01T13:09:16.253Z</time></trkpt><trkpt lat="45.10923" lon="5.9406867"><ele>668.0</ele><time>2026-05-01T13:09:17.253Z</time></trkpt><trkpt lat="45.1091417" lon="5.940385"><ele>668.0</ele><time>2026-05-01T13:09:18.252Z</time></trkpt><trkpt lat="45.1090367" lon="5.9400833"><ele>668.0</ele><time>2026-05-01T13:09:19.253Z</time></trkpt><trkpt lat="45.1089417" lon="5.939805"><ele>666.6666666666666</ele><time>2026-05-01T13:09:20.253Z</time></trkpt><trkpt lat="45.1088533" lon="5.93955"><ele>665.3333333333334</ele><time>2026-05-01T13:09:21.253Z</time></trkpt><trkpt lat="45.10877" lon="5.9393067"><ele>664.0</ele><time>2026-05-01T13:09:22.253Z</time></trkpt><trkpt lat="45.1086767" lon="5.9390717"><ele>664.0</ele><time>2026-05-01T13:09:23.253Z</time></trkpt><trkpt lat="45.108585" lon="5.9388333"><ele>664.0</ele><time>2026-05-01T13:09:24.253Z</time></trkpt><trkpt lat="45.1084917" lon="5.9385883"><ele>664.0</ele><time>2026-05-01T13:09:25.253Z</time></trkpt><trkpt lat="45.1083967" lon="5.938335"><ele>664.0</ele><time>2026-05-01T13:09:26.253Z</time></trkpt><trkpt lat="45.1082933" lon="5.9380767"><ele>664.0</ele><time>2026-05-01T13:09:27.253Z</time></trkpt><trkpt lat="45.1081917" lon="5.9377767"><ele>664.0</ele><time>2026-05-01T13:09:28.253Z</time></trkpt><trkpt lat="45.10809" lon="5.9374783"><ele>658.5</ele><time>2026-05-01T13:09:29.252Z</time></trkpt><trkpt lat="45.107995" lon="5.9371767"><ele>653.0</ele><time>2026-05-01T13:09:30.253Z</time></trkpt><trkpt lat="45.1078833" lon="5.93686"><ele>653.0</ele><time>2026-05-01T13:09:31.252Z</time></trkpt><trkpt lat="45.1076517" lon="5.9362233"><ele>653.0</ele><time>2026-05-01T13:09:33.253Z</time></trkpt><trkpt lat="45.1075117" lon="5.93591"><ele>653.0</ele><time>2026-05-01T13:09:34.253Z</time></trkpt><trkpt lat="45.1073667" lon="5.9356183"><ele>660.0</ele><time>2026-05-01T13:09:35.253Z</time></trkpt><trkpt lat="45.10721" lon="5.935325"><ele>667.0</ele><time>2026-05-01T13:09:36.253Z</time></trkpt><trkpt lat="45.1070483" lon="5.935055"><ele>665.5</ele><time>2026-05-01T13:09:37.253Z</time></trkpt><trkpt lat="45.1069017" lon="5.9348"><ele>664.0</ele><time>2026-05-01T13:09:38.252Z</time></trkpt><trkpt lat="45.1067617" lon="5.9345567"><ele>664.0</ele><time>2026-05-01T13:09:39.252Z</time></trkpt><trkpt lat="45.10665" lon="5.934275"><ele>664.0</ele><time>2026-05-01T13:09:40.252Z</time></trkpt><trkpt lat="45.1065633" lon="5.93397"><ele>689.5</ele><time>2026-05-01T13:09:41.252Z</time></trkpt><trkpt lat="45.1064817" lon="5.933655"><ele>715.0</ele><time>2026-05-01T13:09:42.252Z</time></trkpt><trkpt lat="45.1064283" lon="5.9333383"><ele>715.0</ele><time>2026-05-01T13:09:43.253Z</time></trkpt><trkpt lat="45.1063983" lon="5.9330317"><ele>715.0</ele><time>2026-05-01T13:09:44.253Z</time></trkpt><trkpt lat="45.106415" lon="5.93271"><ele>715.0</ele><time>2026-05-01T13:09:45.253Z</time></trkpt><trkpt lat="45.106415" lon="5.9324033"><ele>712.0</ele><time>2026-05-01T13:09:46.253Z</time></trkpt><trkpt lat="45.1064133" lon="5.932095"><ele>709.0</ele><time>2026-05-01T13:09:47.253Z</time></trkpt><trkpt lat="45.1063983" lon="5.9317833"><ele>706.0</ele><time>2026-05-01T13:09:48.252Z</time></trkpt><trkpt lat="45.1063683" lon="5.93149"><ele>701.0</ele><time>2026-05-01T13:09:49.253Z</time></trkpt><trkpt lat="45.1063167" lon="5.9312067"><ele>696.0</ele><time>2026-05-01T13:09:50.252Z</time></trkpt><trkpt lat="45.1062533" lon="5.9309383"><ele>691.0</ele><time>2026-05-01T13:09:51.252Z</time></trkpt><trkpt lat="45.1061567" lon="5.9306883"><ele>668.0</ele><time>2026-05-01T13:09:52.253Z</time></trkpt><trkpt lat="45.1058867" lon="5.93012"><ele>683.0</ele><time>2026-05-01T13:09:54.253Z</time></trkpt><trkpt lat="45.1057417" lon="5.92983"><ele>698.0</ele><time>2026-05-01T13:09:55.253Z</time></trkpt><trkpt lat="45.105575" lon="5.929525"><ele>685.0</ele><time>2026-05-01T13:09:56.253Z</time></trkpt><trkpt lat="45.105425" lon="5.9292033"><ele>672.0</ele><time>2026-05-01T13:09:57.253Z</time></trkpt><trkpt lat="45.1052767" lon="5.9288983"><ele>672.0</ele><time>2026-05-01T13:09:58.253Z</time></trkpt><trkpt lat="45.1051367" lon="5.9286217"><ele>672.0</ele><time>2026-05-01T13:09:59.253Z</time></trkpt><trkpt lat="45.105015" lon="5.9283483"><ele>683.3333333333334</ele><time>2026-05-01T13:10:00.253Z</time></trkpt><trkpt lat="45.1048983" lon="5.9280917"><ele>694.6666666666667</ele><time>2026-05-01T13:10:01.252Z</time></trkpt><trkpt lat="45.1048" lon="5.927845"><ele>706.0</ele><time>2026-05-01T13:10:02.253Z</time></trkpt><trkpt lat="45.10471" lon="5.92761"><ele>697.0</ele><time>2026-05-01T13:10:03.253Z</time></trkpt><trkpt lat="45.10465" lon="5.9274"><ele>688.0</ele><time>2026-05-01T13:10:04.253Z</time></trkpt><trkpt lat="45.104615" lon="5.927175"><ele>679.0</ele><time>2026-05-01T13:10:05.253Z</time></trkpt><trkpt lat="45.104585" lon="5.926945"><ele>672.0</ele><time>2026-05-01T13:10:06.253Z</time></trkpt><trkpt lat="45.1045583" lon="5.9266917"><ele>665.0</ele><time>2026-05-01T13:10:07.253Z</time></trkpt><trkpt lat="45.1045483" lon="5.9264433"><ele>658.0</ele><time>2026-05-01T13:10:08.253Z</time></trkpt><trkpt lat="45.104525" lon="5.92619"><ele>658.0</ele><time>2026-05-01T13:10:09.253Z</time></trkpt><trkpt lat="45.10451" lon="5.9259333"><ele>658.0</ele><time>2026-05-01T13:10:10.253Z</time></trkpt><trkpt lat="45.1045067" lon="5.92568"><ele>658.0</ele><time>2026-05-01T13:10:11.253Z</time></trkpt><trkpt lat="45.1045" lon="5.9254367"><ele>653.5</ele><time>2026-05-01T13:10:12.253Z</time></trkpt><trkpt lat="45.1044933" lon="5.9251983"><ele>649.0</ele><time>2026-05-01T13:10:13.253Z</time></trkpt><trkpt lat="45.1044583" lon="5.9247183"><ele>647.0</ele><time>2026-05-01T13:10:15.253Z</time></trkpt><trkpt lat="45.1044367" lon="5.9244817"><ele>645.0</ele><time>2026-05-01T13:10:16.252Z</time></trkpt><trkpt lat="45.1043983" lon="5.924235"><ele>643.0</ele><time>2026-05-01T13:10:17.253Z</time></trkpt><trkpt lat="45.104355" lon="5.9239683"><ele>643.0</ele><time>2026-05-01T13:10:18.253Z</time></trkpt><trkpt lat="45.1043017" lon="5.9236967"><ele>643.0</ele><time>2026-05-01T13:10:19.253Z</time></trkpt><trkpt lat="45.104235" lon="5.9234233"><ele>643.0</ele><time>2026-05-01T13:10:20.253Z</time></trkpt><trkpt lat="45.1041483" lon="5.9231517"><ele>642.3333333333334</ele><time>2026-05-01T13:10:21.252Z</time></trkpt><trkpt lat="45.1040567" lon="5.9228717"><ele>641.6666666666666</ele><time>2026-05-01T13:10:22.253Z</time></trkpt><trkpt lat="45.103965" lon="5.9226"><ele>641.0</ele><time>2026-05-01T13:10:23.252Z</time></trkpt><trkpt lat="45.1038783" lon="5.9223283"><ele>641.0</ele><time>2026-05-01T13:10:24.253Z</time></trkpt><trkpt lat="45.1038" lon="5.9220733"><ele>641.0</ele><time>2026-05-01T13:10:25.253Z</time></trkpt><trkpt lat="45.10373" lon="5.9218267"><ele>641.0</ele><time>2026-05-01T13:10:26.253Z</time></trkpt><trkpt lat="45.1036517" lon="5.9215817"><ele>636.6666666666666</ele><time>2026-05-01T13:10:27.253Z</time></trkpt><trkpt lat="45.1035783" lon="5.9213367"><ele>632.3333333333334</ele><time>2026-05-01T13:10:28.253Z</time></trkpt><trkpt lat="45.1035" lon="5.9210917"><ele>628.0</ele><time>2026-05-01T13:10:29.252Z</time></trkpt><trkpt lat="45.1034183" lon="5.9208483"><ele>627.0</ele><time>2026-05-01T13:10:30.252Z</time></trkpt><trkpt lat="45.1033317" lon="5.9205983"><ele>626.0</ele><time>2026-05-01T13:10:31.253Z</time></trkpt><trkpt lat="45.1032633" lon="5.9203433"><ele>625.0</ele><time>2026-05-01T13:10:32.252Z</time></trkpt><trkpt lat="45.1031733" lon="5.9200967"><ele>620.0</ele><time>2026-05-01T13:10:33.253Z</time></trkpt><trkpt lat="45.1030683" lon="5.9198717"><ele>615.0</ele><time>2026-05-01T13:10:34.253Z</time></trkpt><trkpt lat="45.102785" lon="5.9194833"><ele>615.0</ele><time>2026-05-01T13:10:36.253Z</time></trkpt><trkpt lat="45.1026083" lon="5.9192817"><ele>615.0</ele><time>2026-05-01T13:10:37.252Z</time></trkpt><trkpt lat="45.1023667" lon="5.9190817"><ele>614.0</ele><time>2026-05-01T13:10:38.253Z</time></trkpt><trkpt lat="45.1021417" lon="5.9188667"><ele>613.0</ele><time>2026-05-01T13:10:39.253Z</time></trkpt><trkpt lat="45.1019217" lon="5.9186667"><ele>613.0</ele><time>2026-05-01T13:10:40.253Z</time></trkpt><trkpt lat="45.10169" lon="5.9184833"><ele>613.0</ele><time>2026-05-01T13:10:41.253Z</time></trkpt><trkpt lat="45.1014533" lon="5.9182833"><ele>610.5</ele><time>2026-05-01T13:10:42.253Z</time></trkpt><trkpt lat="45.10122" lon="5.9180833"><ele>608.0</ele><time>2026-05-01T13:10:43.253Z</time></trkpt><trkpt lat="45.1009817" lon="5.9178883"><ele>610.0</ele><time>2026-05-01T13:10:44.252Z</time></trkpt><trkpt lat="45.10073" lon="5.9177233"><ele>612.0</ele><time>2026-05-01T13:10:45.253Z</time></trkpt><trkpt lat="45.1004933" lon="5.9175217"><ele>607.5</ele><time>2026-05-01T13:10:46.252Z</time></trkpt><trkpt lat="45.1002683" lon="5.917325"><ele>603.0</ele><time>2026-05-01T13:10:47.253Z</time></trkpt><trkpt lat="45.100045" lon="5.9171333"><ele>607.0</ele><time>2026-05-01T13:10:48.252Z</time></trkpt><trkpt lat="45.09982" lon="5.9169583"><ele>611.0</ele><time>2026-05-01T13:10:49.253Z</time></trkpt><trkpt lat="45.0996017" lon="5.9167867"><ele>607.0</ele><time>2026-05-01T13:10:50.253Z</time></trkpt><trkpt lat="45.0993717" lon="5.9166183"><ele>603.0</ele><time>2026-05-01T13:10:51.253Z</time></trkpt><trkpt lat="45.099175" lon="5.916465"><ele>609.0</ele><time>2026-05-01T13:10:52.252Z</time></trkpt><trkpt lat="45.0989717" lon="5.9163033"><ele>615.0</ele><time>2026-05-01T13:10:53.253Z</time></trkpt><trkpt lat="45.0987733" lon="5.91614"><ele>615.0</ele><time>2026-05-01T13:10:54.252Z</time></trkpt><trkpt lat="45.0985817" lon="5.9159767"><ele>615.0</ele><time>2026-05-01T13:10:55.252Z</time></trkpt><trkpt lat="45.098235" lon="5.915635"><ele>631.0</ele><time>2026-05-01T13:10:57.253Z</time></trkpt><trkpt lat="45.0980667" lon="5.9154233"><ele>647.0</ele><time>2026-05-01T13:10:58.253Z</time></trkpt><trkpt lat="45.0979317" lon="5.9151683"><ele>636.5</ele><time>2026-05-01T13:10:59.253Z</time></trkpt><trkpt lat="45.0977983" lon="5.9148833"><ele>626.0</ele><time>2026-05-01T13:11:00.252Z</time></trkpt><trkpt lat="45.09769" lon="5.9145483"><ele>626.0</ele><time>2026-05-01T13:11:01.253Z</time></trkpt><trkpt lat="45.0975783" lon="5.9142483"><ele>626.0</ele><time>2026-05-01T13:11:02.253Z</time></trkpt><trkpt lat="45.0974667" lon="5.9139633"><ele>628.6666666666666</ele><time>2026-05-01T13:11:03.252Z</time></trkpt><trkpt lat="45.097355" lon="5.9136967"><ele>631.3333333333334</ele><time>2026-05-01T13:11:04.253Z</time></trkpt><trkpt lat="45.0972467" lon="5.9134283"><ele>634.0</ele><time>2026-05-01T13:11:05.253Z</time></trkpt><trkpt lat="45.097135" lon="5.91316"><ele>634.0</ele><time>2026-05-01T13:11:06.253Z</time></trkpt><trkpt lat="45.097005" lon="5.9128967"><ele>634.0</ele><time>2026-05-01T13:11:07.253Z</time></trkpt><trkpt lat="45.0968983" lon="5.9126083"><ele>625.0</ele><time>2026-05-01T13:11:08.253Z</time></trkpt><trkpt lat="45.096805" lon="5.912305"><ele>616.0</ele><time>2026-05-01T13:11:09.252Z</time></trkpt><trkpt lat="45.0967483" lon="5.9119717"><ele>607.0</ele><time>2026-05-01T13:11:10.253Z</time></trkpt><trkpt lat="45.096695" lon="5.9116367"><ele>598.0</ele><time>2026-05-01T13:11:11.253Z</time></trkpt><trkpt lat="45.0966467" lon="5.91128"><ele>598.0</ele><time>2026-05-01T13:11:12.253Z</time></trkpt><trkpt lat="45.0966117" lon="5.9109283"><ele>598.0</ele><time>2026-05-01T13:11:13.252Z</time></trkpt><trkpt lat="45.09657" lon="5.9105933"><ele>619.5</ele><time>2026-05-01T13:11:14.253Z</time></trkpt><trkpt lat="45.0965267" lon="5.91027"><ele>641.0</ele><time>2026-05-01T13:11:15.253Z</time></trkpt><trkpt lat="45.096485" lon="5.9099617"><ele>641.0</ele><time>2026-05-01T13:11:16.253Z</time></trkpt><trkpt lat="45.0964267" lon="5.90938"><ele>641.0</ele><time>2026-05-01T13:11:18.253Z</time></trkpt><trkpt lat="45.0963783" lon="5.9090767"><ele>626.0</ele><time>2026-05-01T13:11:19.253Z</time></trkpt><trkpt lat="45.0963017" lon="5.9087817"><ele>611.0</ele><time>2026-05-01T13:11:20.253Z</time></trkpt><trkpt lat="45.0962033" lon="5.9084867"><ele>601.0</ele><time>2026-05-01T13:11:21.253Z</time></trkpt><trkpt lat="45.0960883" lon="5.908205"><ele>591.0</ele><time>2026-05-01T13:11:22.253Z</time></trkpt><trkpt lat="45.095975" lon="5.9079167"><ele>591.0</ele><time>2026-05-01T13:11:23.252Z</time></trkpt><trkpt lat="45.0958633" lon="5.9076383"><ele>591.0</ele><time>2026-05-01T13:11:24.253Z</time></trkpt><trkpt lat="45.0957333" lon="5.907355"><ele>598.5</ele><time>2026-05-01T13:11:25.253Z</time></trkpt><trkpt lat="45.0956083" lon="5.907065"><ele>606.0</ele><time>2026-05-01T13:11:26.252Z</time></trkpt><trkpt lat="45.0954933" lon="5.9067917"><ele>599.3333333333334</ele><time>2026-05-01T13:11:27.252Z</time></trkpt><trkpt lat="45.0954067" lon="5.9065533"><ele>592.6666666666667</ele><time>2026-05-01T13:11:28.252Z</time></trkpt><trkpt lat="45.0953167" lon="5.9063317"><ele>586.0</ele><time>2026-05-01T13:11:29.253Z</time></trkpt><trkpt lat="45.0952083" lon="5.9061183"><ele>586.0</ele><time>2026-05-01T13:11:30.252Z</time></trkpt><trkpt lat="45.095095" lon="5.90593"><ele>586.0</ele><time>2026-05-01T13:11:31.253Z</time></trkpt><trkpt lat="45.094955" lon="5.9057617"><ele>586.0</ele><time>2026-05-01T13:11:32.253Z</time></trkpt><trkpt lat="45.0947917" lon="5.905605"><ele>586.6666666666667</ele><time>2026-05-01T13:11:33.253Z</time></trkpt><trkpt lat="45.0946233" lon="5.90546"><ele>587.3333333333334</ele><time>2026-05-01T13:11:34.253Z</time></trkpt><trkpt lat="45.0944533" lon="5.905335"><ele>588.0</ele><time>2026-05-01T13:11:35.253Z</time></trkpt><trkpt lat="45.0942917" lon="5.905215"><ele>588.0</ele><time>2026-05-01T13:11:36.253Z</time></trkpt><trkpt lat="45.09414" lon="5.9051017"><ele>588.0</ele><time>2026-05-01T13:11:37.252Z</time></trkpt><trkpt lat="45.0938467" lon="5.9048783"><ele>584.0</ele><time>2026-05-01T13:11:39.252Z</time></trkpt><trkpt lat="45.09372" lon="5.904765"><ele>580.0</ele><time>2026-05-01T13:11:40.253Z</time></trkpt><trkpt lat="45.0935733" lon="5.9046533"><ele>576.0</ele><time>2026-05-01T13:11:41.253Z</time></trkpt><trkpt lat="45.093435" lon="5.90455"><ele>576.0</ele><time>2026-05-01T13:11:42.253Z</time></trkpt><trkpt lat="45.0932967" lon="5.9044417"><ele>576.0</ele><time>2026-05-01T13:11:43.253Z</time></trkpt><trkpt lat="45.0931567" lon="5.9043167"><ele>576.0</ele><time>2026-05-01T13:11:44.253Z</time></trkpt><trkpt lat="45.093005" lon="5.9041967"><ele>574.6666666666666</ele><time>2026-05-01T13:11:45.253Z</time></trkpt><trkpt lat="45.09285" lon="5.90408"><ele>573.3333333333333</ele><time>2026-05-01T13:11:46.253Z</time></trkpt><trkpt lat="45.0926967" lon="5.9039533"><ele>572.0</ele><time>2026-05-01T13:11:47.252Z</time></trkpt><trkpt lat="45.0925533" lon="5.9038333"><ele>573.3333333333333</ele><time>2026-05-01T13:11:48.253Z</time></trkpt><trkpt lat="45.0924033" lon="5.9037233"><ele>574.6666666666666</ele><time>2026-05-01T13:11:49.252Z</time></trkpt><trkpt lat="45.09226" lon="5.9036083"><ele>576.0</ele><time>2026-05-01T13:11:50.253Z</time></trkpt><trkpt lat="45.0921167" lon="5.9034983"><ele>571.6666666666666</ele><time>2026-05-01T13:11:51.252Z</time></trkpt><trkpt lat="45.0919717" lon="5.903375"><ele>567.3333333333333</ele><time>2026-05-01T13:11:52.253Z</time></trkpt><trkpt lat="45.0918217" lon="5.9032617"><ele>563.0</ele><time>2026-05-01T13:11:53.253Z</time></trkpt><trkpt lat="45.091675" lon="5.9031233"><ele>563.6666666666666</ele><time>2026-05-01T13:11:54.253Z</time></trkpt><trkpt lat="45.0915233" lon="5.9030017"><ele>564.3333333333334</ele><time>2026-05-01T13:11:55.253Z</time></trkpt><trkpt lat="45.0913817" lon="5.9028667"><ele>565.0</ele><time>2026-05-01T13:11:56.252Z</time></trkpt><trkpt lat="45.0912417" lon="5.902745"><ele>565.0</ele><time>2026-05-01T13:11:57.253Z</time></trkpt><trkpt lat="45.091115" lon="5.9026283"><ele>565.0</ele><time>2026-05-01T13:11:58.253Z</time></trkpt><trkpt lat="45.09087" lon="5.9024167"><ele>565.0</ele><time>2026-05-01T13:12:00.253Z</time></trkpt><trkpt lat="45.090745" lon="5.9023233"><ele>564.0</ele><time>2026-05-01T13:12:01.253Z</time></trkpt><trkpt lat="45.0906267" lon="5.9022117"><ele>563.0</ele><time>2026-05-01T13:12:02.253Z</time></trkpt><trkpt lat="45.0905133" lon="5.9021033"><ele>562.0</ele><time>2026-05-01T13:12:03.253Z</time></trkpt><trkpt lat="45.090375" lon="5.9020117"><ele>561.0</ele><time>2026-05-01T13:12:04.252Z</time></trkpt><trkpt lat="45.0902283" lon="5.9019233"><ele>561.0</ele><time>2026-05-01T13:12:05.252Z</time></trkpt><trkpt lat="45.09005" lon="5.9018983"><ele>561.0</ele><time>2026-05-01T13:12:06.253Z</time></trkpt><trkpt lat="45.0898767" lon="5.9018517"><ele>561.0</ele><time>2026-05-01T13:12:07.253Z</time></trkpt><trkpt lat="45.0897" lon="5.9018083"><ele>564.6666666666666</ele><time>2026-05-01T13:12:08.253Z</time></trkpt><trkpt lat="45.0895183" lon="5.9017783"><ele>568.3333333333333</ele><time>2026-05-01T13:12:09.252Z</time></trkpt><trkpt lat="45.0893083" lon="5.9017483"><ele>572.0</ele><time>2026-05-01T13:12:10.252Z</time></trkpt><trkpt lat="45.0891083" lon="5.9017117"><ele>565.0</ele><time>2026-05-01T13:12:11.253Z</time></trkpt><trkpt lat="45.088905" lon="5.901665"><ele>558.0</ele><time>2026-05-01T13:12:12.253Z</time></trkpt><trkpt lat="45.088695" lon="5.901625"><ele>551.0</ele><time>2026-05-01T13:12:13.252Z</time></trkpt><trkpt lat="45.0884667" lon="5.9015833"><ele>557.5</ele><time>2026-05-01T13:12:14.252Z</time></trkpt><trkpt lat="45.0882383" lon="5.9015483"><ele>564.0</ele><time>2026-05-01T13:12:15.253Z</time></trkpt><trkpt lat="45.0879917" lon="5.90148"><ele>564.0</ele><time>2026-05-01T13:12:16.253Z</time></trkpt><trkpt lat="45.0877283" lon="5.9014633"><ele>564.0</ele><time>2026-05-01T13:12:17.252Z</time></trkpt><trkpt lat="45.087485" lon="5.901375"><ele>568.5</ele><time>2026-05-01T13:12:18.252Z</time></trkpt><trkpt lat="45.08725" lon="5.901285"><ele>573.0</ele><time>2026-05-01T13:12:19.251Z</time></trkpt><trkpt lat="45.08683" lon="5.901085"><ele>573.0</ele><time>2026-05-01T13:12:21.252Z</time></trkpt><trkpt lat="45.086635" lon="5.9009867"><ele>573.0</ele><time>2026-05-01T13:12:22.252Z</time></trkpt><trkpt lat="45.0864483" lon="5.9008917"><ele>573.0</ele><time>2026-05-01T13:12:23.251Z</time></trkpt><trkpt lat="45.08626" lon="5.9007967"><ele>567.3333333333334</ele><time>2026-05-01T13:12:24.252Z</time></trkpt><trkpt lat="45.0860867" lon="5.9007233"><ele>561.6666666666667</ele><time>2026-05-01T13:12:25.251Z</time></trkpt><trkpt lat="45.0859067" lon="5.9006417"><ele>556.0</ele><time>2026-05-01T13:12:26.251Z</time></trkpt><trkpt lat="45.08574" lon="5.9005617"><ele>556.0</ele><time>2026-05-01T13:12:27.251Z</time></trkpt><trkpt lat="45.085565" lon="5.9004867"><ele>556.0</ele><time>2026-05-01T13:12:28.252Z</time></trkpt><trkpt lat="45.0853867" lon="5.900415"><ele>556.0</ele><time>2026-05-01T13:12:29.252Z</time></trkpt><trkpt lat="45.0852133" lon="5.9003167"><ele>556.0</ele><time>2026-05-01T13:12:30.252Z</time></trkpt><trkpt lat="45.085035" lon="5.90019"><ele>556.0</ele><time>2026-05-01T13:12:31.252Z</time></trkpt><trkpt lat="45.0848467" lon="5.9000333"><ele>556.0</ele><time>2026-05-01T13:12:32.251Z</time></trkpt><trkpt lat="45.084645" lon="5.8998617"><ele>559.0</ele><time>2026-05-01T13:12:33.251Z</time></trkpt><trkpt lat="45.0844483" lon="5.8996833"><ele>562.0</ele><time>2026-05-01T13:12:34.252Z</time></trkpt><trkpt lat="45.0842333" lon="5.899515"><ele>561.5</ele><time>2026-05-01T13:12:35.251Z</time></trkpt><trkpt lat="45.0840267" lon="5.8993283"><ele>561.0</ele><time>2026-05-01T13:12:36.251Z</time></trkpt><trkpt lat="45.0838317" lon="5.8991267"><ele>561.0</ele><time>2026-05-01T13:12:37.252Z</time></trkpt><trkpt lat="45.08365" lon="5.8989117"><ele>561.0</ele><time>2026-05-01T13:12:38.251Z</time></trkpt><trkpt lat="45.083475" lon="5.89871"><ele>561.0</ele><time>2026-05-01T13:12:39.252Z</time></trkpt><trkpt lat="45.0833083" lon="5.8985217"><ele>561.0</ele><time>2026-05-01T13:12:40.252Z</time></trkpt><trkpt lat="45.0830117" lon="5.8981633"><ele>560.3333333333334</ele><time>2026-05-01T13:12:42.252Z</time></trkpt><trkpt lat="45.08288" lon="5.8979533"><ele>559.6666666666667</ele><time>2026-05-01T13:12:43.252Z</time></trkpt><trkpt lat="45.08275" lon="5.8977367"><ele>559.0</ele><time>2026-05-01T13:12:44.251Z</time></trkpt><trkpt lat="45.0826483" lon="5.8975017"><ele>564.6666666666667</ele><time>2026-05-01T13:12:45.252Z</time></trkpt><trkpt lat="45.08256" lon="5.8972883"><ele>570.3333333333334</ele><time>2026-05-01T13:12:46.252Z</time></trkpt><trkpt lat="45.0824733" lon="5.8970917"><ele>576.0</ele><time>2026-05-01T13:12:47.252Z</time></trkpt><trkpt lat="45.0824017" lon="5.896885"><ele>573.3333333333334</ele><time>2026-05-01T13:12:48.251Z</time></trkpt><trkpt lat="45.08234" lon="5.8966833"><ele>570.6666666666667</ele><time>2026-05-01T13:12:49.251Z</time></trkpt><trkpt lat="45.0822967" lon="5.8964783"><ele>568.0</ele><time>2026-05-01T13:12:50.252Z</time></trkpt><trkpt lat="45.0822617" lon="5.89628"><ele>568.0</ele><time>2026-05-01T13:12:51.252Z</time></trkpt><trkpt lat="45.082235" lon="5.8960933"><ele>568.0</ele><time>2026-05-01T13:12:52.252Z</time></trkpt><trkpt lat="45.0822217" lon="5.895905"><ele>568.0</ele><time>2026-05-01T13:12:53.252Z</time></trkpt><trkpt lat="45.0822683" lon="5.8956883"><ele>568.0</ele><time>2026-05-01T13:12:54.252Z</time></trkpt><trkpt lat="45.0822733" lon="5.895465"><ele>567.0</ele><time>2026-05-01T13:12:55.252Z</time></trkpt><trkpt lat="45.082275" lon="5.8952583"><ele>566.0</ele><time>2026-05-01T13:12:56.252Z</time></trkpt><trkpt lat="45.08225" lon="5.8950417"><ele>565.0</ele><time>2026-05-01T13:12:57.252Z</time></trkpt><trkpt lat="45.082205" lon="5.89483"><ele>562.0</ele><time>2026-05-01T13:12:58.252Z</time></trkpt><trkpt lat="45.0821367" lon="5.8946183"><ele>559.0</ele><time>2026-05-01T13:12:59.251Z</time></trkpt><trkpt lat="45.082055" lon="5.8944067"><ele>556.0</ele><time>2026-05-01T13:13:00.252Z</time></trkpt><trkpt lat="45.081945" lon="5.8941917"><ele>560.0</ele><time>2026-05-01T13:13:01.252Z</time></trkpt><trkpt lat="45.081655" lon="5.89378"><ele>564.0</ele><time>2026-05-01T13:13:03.252Z</time></trkpt><trkpt lat="45.0814983" lon="5.89359"><ele>564.0</ele><time>2026-05-01T13:13:04.252Z</time></trkpt><trkpt lat="45.08134" lon="5.8934233"><ele>564.0</ele><time>2026-05-01T13:13:05.252Z</time></trkpt><trkpt lat="45.0811917" lon="5.8932517"><ele>564.0</ele><time>2026-05-01T13:13:06.252Z</time></trkpt><trkpt lat="45.0810367" lon="5.8930733"><ele>563.0</ele><time>2026-05-01T13:13:07.252Z</time></trkpt><trkpt lat="45.080885" lon="5.8928783"><ele>562.0</ele><time>2026-05-01T13:13:08.252Z</time></trkpt><trkpt lat="45.0807383" lon="5.892665"><ele>561.0</ele><time>2026-05-01T13:13:09.251Z</time></trkpt><trkpt lat="45.080585" lon="5.8924217"><ele>547.0</ele><time>2026-05-01T13:13:10.252Z</time></trkpt><trkpt lat="45.0804533" lon="5.8921467"><ele>533.0</ele><time>2026-05-01T13:13:11.252Z</time></trkpt><trkpt lat="45.0802867" lon="5.891845"><ele>525.5</ele><time>2026-05-01T13:13:12.252Z</time></trkpt><trkpt lat="45.0801217" lon="5.8915567"><ele>518.0</ele><time>2026-05-01T13:13:13.251Z</time></trkpt><trkpt lat="45.0799633" lon="5.891285"><ele>528.0</ele><time>2026-05-01T13:13:14.252Z</time></trkpt><trkpt lat="45.0798117" lon="5.8910167"><ele>538.0</ele><time>2026-05-01T13:13:15.252Z</time></trkpt><trkpt lat="45.0796533" lon="5.8907433"><ele>538.0</ele><time>2026-05-01T13:13:16.252Z</time></trkpt><trkpt lat="45.0794733" lon="5.8904817"><ele>538.0</ele><time>2026-05-01T13:13:17.251Z</time></trkpt><trkpt lat="45.079335" lon="5.8902183"><ele>524.5</ele><time>2026-05-01T13:13:18.251Z</time></trkpt><trkpt lat="45.0791767" lon="5.88995"><ele>511.0</ele><time>2026-05-01T13:13:19.252Z</time></trkpt><trkpt lat="45.0790667" lon="5.8896883"><ele>523.3333333333334</ele><time>2026-05-01T13:13:20.252Z</time></trkpt><trkpt lat="45.07896" lon="5.8894383"><ele>535.6666666666666</ele><time>2026-05-01T13:13:21.252Z</time></trkpt><trkpt lat="45.0788717" lon="5.8891683"><ele>548.0</ele><time>2026-05-01T13:13:22.252Z</time></trkpt><trkpt lat="45.0786733" lon="5.8886267"><ele>540.3333333333333</ele><time>2026-05-01T13:13:24.252Z</time></trkpt><trkpt lat="45.078565" lon="5.888345"><ele>532.6666666666666</ele><time>2026-05-01T13:13:25.252Z</time></trkpt><trkpt lat="45.078455" lon="5.8880817"><ele>525.0</ele><time>2026-05-01T13:13:26.252Z</time></trkpt><trkpt lat="45.0783467" lon="5.8878267"><ele>529.3333333333334</ele><time>2026-05-01T13:13:27.252Z</time></trkpt><trkpt lat="45.078235" lon="5.8875617"><ele>533.6666666666667</ele><time>2026-05-01T13:13:28.252Z</time></trkpt><trkpt lat="45.0781017" lon="5.88731"><ele>538.0</ele><time>2026-05-01T13:13:29.252Z</time></trkpt><trkpt lat="45.0779667" lon="5.8870533"><ele>538.0</ele><time>2026-05-01T13:13:30.252Z</time></trkpt><trkpt lat="45.07782" lon="5.8867933"><ele>538.0</ele><time>2026-05-01T13:13:31.251Z</time></trkpt><trkpt lat="45.077685" lon="5.88656"><ele>538.0</ele><time>2026-05-01T13:13:32.252Z</time></trkpt><trkpt lat="45.0775533" lon="5.8863033"><ele>536.0</ele><time>2026-05-01T13:13:33.251Z</time></trkpt><trkpt lat="45.0774233" lon="5.8860667"><ele>534.0</ele><time>2026-05-01T13:13:34.252Z</time></trkpt><trkpt lat="45.0772917" lon="5.8858433"><ele>532.0</ele><time>2026-05-01T13:13:35.251Z</time></trkpt><trkpt lat="45.0771583" lon="5.8856267"><ele>532.0</ele><time>2026-05-01T13:13:36.252Z</time></trkpt><trkpt lat="45.07703" lon="5.885405"><ele>532.0</ele><time>2026-05-01T13:13:37.252Z</time></trkpt><trkpt lat="45.0768917" lon="5.8852"><ele>532.0</ele><time>2026-05-01T13:13:38.252Z</time></trkpt><trkpt lat="45.07676" lon="5.8849917"><ele>534.6666666666667</ele><time>2026-05-01T13:13:39.251Z</time></trkpt><trkpt lat="45.0766217" lon="5.8847767"><ele>537.3333333333334</ele><time>2026-05-01T13:13:40.252Z</time></trkpt><trkpt lat="45.0764883" lon="5.8846033"><ele>540.0</ele><time>2026-05-01T13:13:41.251Z</time></trkpt><trkpt lat="45.076385" lon="5.88442"><ele>523.5</ele><time>2026-05-01T13:13:42.252Z</time></trkpt><trkpt lat="45.07629" lon="5.884235"><ele>507.0</ele><time>2026-05-01T13:13:43.252Z</time></trkpt><trkpt lat="45.0761333" lon="5.8837817"><ele>507.0</ele><time>2026-05-01T13:13:45.252Z</time></trkpt><trkpt lat="45.0760633" lon="5.8835317"><ele>507.0</ele><time>2026-05-01T13:13:46.252Z</time></trkpt><trkpt lat="45.0759983" lon="5.8832667"><ele>507.0</ele><time>2026-05-01T13:13:47.252Z</time></trkpt><trkpt lat="45.0759433" lon="5.88298"><ele>503.0</ele><time>2026-05-01T13:13:48.252Z</time></trkpt><trkpt lat="45.0759067" lon="5.8826867"><ele>499.0</ele><time>2026-05-01T13:13:49.252Z</time></trkpt><trkpt lat="45.075875" lon="5.8823967"><ele>495.0</ele><time>2026-05-01T13:13:50.251Z</time></trkpt><trkpt lat="45.075875" lon="5.8820933"><ele>494.33333333333337</ele><time>2026-05-01T13:13:51.251Z</time></trkpt><trkpt lat="45.07585" lon="5.8817917"><ele>493.6666666666667</ele><time>2026-05-01T13:13:52.252Z</time></trkpt><trkpt lat="45.075835" lon="5.8814967"><ele>493.0</ele><time>2026-05-01T13:13:53.252Z</time></trkpt><trkpt lat="45.0758283" lon="5.8812083"><ele>489.0</ele><time>2026-05-01T13:13:54.251Z</time></trkpt><trkpt lat="45.075805" lon="5.88091"><ele>485.0</ele><time>2026-05-01T13:13:55.251Z</time></trkpt><trkpt lat="45.0757533" lon="5.8805967"><ele>481.0</ele><time>2026-05-01T13:13:56.252Z</time></trkpt><trkpt lat="45.0756967" lon="5.8802917"><ele>491.0</ele><time>2026-05-01T13:13:57.251Z</time></trkpt><trkpt lat="45.07564" lon="5.879985"><ele>501.0</ele><time>2026-05-01T13:13:58.251Z</time></trkpt><trkpt lat="45.0755833" lon="5.8796817"><ele>511.0</ele><time>2026-05-01T13:13:59.252Z</time></trkpt><trkpt lat="45.0755217" lon="5.8794"><ele>506.0</ele><time>2026-05-01T13:14:00.252Z</time></trkpt><trkpt lat="45.0754633" lon="5.8791233"><ele>501.0</ele><time>2026-05-01T13:14:01.252Z</time></trkpt><trkpt lat="45.0754133" lon="5.878865"><ele>496.0</ele><time>2026-05-01T13:14:02.252Z</time></trkpt><trkpt lat="45.0754033" lon="5.878645"><ele>496.0</ele><time>2026-05-01T13:14:03.252Z</time></trkpt><trkpt lat="45.0753133" lon="5.8784383"><ele>496.0</ele><time>2026-05-01T13:14:04.252Z</time></trkpt><trkpt lat="45.0750967" lon="5.87808"><ele>497.25</ele><time>2026-05-01T13:14:06.252Z</time></trkpt><trkpt lat="45.0749983" lon="5.877915"><ele>498.5</ele><time>2026-05-01T13:14:07.251Z</time></trkpt><trkpt lat="45.0748983" lon="5.87778"><ele>499.75</ele><time>2026-05-01T13:14:08.252Z</time></trkpt><trkpt lat="45.0748067" lon="5.87765"><ele>501.0</ele><time>2026-05-01T13:14:09.252Z</time></trkpt><trkpt lat="45.074705" lon="5.8775267"><ele>495.75</ele><time>2026-05-01T13:14:10.252Z</time></trkpt><trkpt lat="45.0745967" lon="5.877415"><ele>490.5</ele><time>2026-05-01T13:14:11.252Z</time></trkpt><trkpt lat="45.0744767" lon="5.87732"><ele>485.25</ele><time>2026-05-01T13:14:12.251Z</time></trkpt><trkpt lat="45.0743633" lon="5.8772217"><ele>480.0</ele><time>2026-05-01T13:14:13.252Z</time></trkpt><trkpt lat="45.0742483" lon="5.8771483"><ele>480.0</ele><time>2026-05-01T13:14:14.251Z</time></trkpt><trkpt lat="45.074135" lon="5.8770433"><ele>480.0</ele><time>2026-05-01T13:14:15.252Z</time></trkpt><trkpt lat="45.0740317" lon="5.8769367"><ele>480.0</ele><time>2026-05-01T13:14:16.251Z</time></trkpt><trkpt lat="45.07391" lon="5.8768333"><ele>480.0</ele><time>2026-05-01T13:14:17.252Z</time></trkpt><trkpt lat="45.073805" lon="5.8767283"><ele>477.5</ele><time>2026-05-01T13:14:18.251Z</time></trkpt><trkpt lat="45.0737017" lon="5.8766233"><ele>475.0</ele><time>2026-05-01T13:14:19.252Z</time></trkpt><trkpt lat="45.073595" lon="5.8765167"><ele>472.5</ele><time>2026-05-01T13:14:20.251Z</time></trkpt><trkpt lat="45.073485" lon="5.87643"><ele>470.0</ele><time>2026-05-01T13:14:21.252Z</time></trkpt><trkpt lat="45.073385" lon="5.8763383"><ele>470.0</ele><time>2026-05-01T13:14:22.252Z</time></trkpt><trkpt lat="45.0732967" lon="5.8762367"><ele>470.0</ele><time>2026-05-01T13:14:23.251Z</time></trkpt><trkpt lat="45.0731983" lon="5.876165"><ele>470.0</ele><time>2026-05-01T13:14:24.252Z</time></trkpt><trkpt lat="45.0731017" lon="5.876085"><ele>470.0</ele><time>2026-05-01T13:14:25.251Z</time></trkpt><trkpt lat="45.0729133" lon="5.8759183"><ele>470.25</ele><time>2026-05-01T13:14:27.251Z</time></trkpt><trkpt lat="45.0728083" lon="5.87583"><ele>470.5</ele><time>2026-05-01T13:14:28.252Z</time></trkpt><trkpt lat="45.0726983" lon="5.8757433"><ele>470.75</ele><time>2026-05-01T13:14:29.251Z</time></trkpt><trkpt lat="45.0726" lon="5.8756633"><ele>471.0</ele><time>2026-05-01T13:14:30.251Z</time></trkpt><trkpt lat="45.0724983" lon="5.87558"><ele>472.4</ele><time>2026-05-01T13:14:31.251Z</time></trkpt><trkpt lat="45.0723983" lon="5.875535"><ele>473.8</ele><time>2026-05-01T13:14:32.252Z</time></trkpt><trkpt lat="45.072295" lon="5.8754933"><ele>475.19999999999993</ele><time>2026-05-01T13:14:33.252Z</time></trkpt><trkpt lat="45.0721967" lon="5.8754517"><ele>476.59999999999997</ele><time>2026-05-01T13:14:34.251Z</time></trkpt><trkpt lat="45.0720967" lon="5.8754167"><ele>478.0</ele><time>2026-05-01T13:14:35.252Z</time></trkpt><trkpt lat="45.0720067" lon="5.87536"><ele>478.0</ele><time>2026-05-01T13:14:36.251Z</time></trkpt><trkpt lat="45.07194" lon="5.87527"><ele>477.99999999999994</ele><time>2026-05-01T13:14:37.252Z</time></trkpt><trkpt lat="45.0718833" lon="5.8751583"><ele>477.99999999999994</ele><time>2026-05-01T13:14:38.251Z</time></trkpt><trkpt lat="45.071835" lon="5.8750183"><ele>478.0</ele><time>2026-05-01T13:14:39.252Z</time></trkpt><trkpt lat="45.0718017" lon="5.8748317"><ele>478.0</ele><time>2026-05-01T13:14:40.252Z</time></trkpt><trkpt lat="45.0717733" lon="5.8746417"><ele>472.6666666666667</ele><time>2026-05-01T13:14:41.252Z</time></trkpt><trkpt lat="45.071775" lon="5.8744283"><ele>467.33333333333337</ele><time>2026-05-01T13:14:42.251Z</time></trkpt><trkpt lat="45.0717917" lon="5.8741467"><ele>462.0</ele><time>2026-05-01T13:14:43.251Z</time></trkpt><trkpt lat="45.0717983" lon="5.8738767"><ele>462.0</ele><time>2026-05-01T13:14:44.251Z</time></trkpt><trkpt lat="45.071785" lon="5.8735983"><ele>462.0</ele><time>2026-05-01T13:14:45.252Z</time></trkpt><trkpt lat="45.0717467" lon="5.87331"><ele>462.0</ele><time>2026-05-01T13:14:46.252Z</time></trkpt><trkpt lat="45.0715883" lon="5.872745"><ele>457.66666666666663</ele><time>2026-05-01T13:14:48.252Z</time></trkpt><trkpt lat="45.0714833" lon="5.872495"><ele>453.3333333333333</ele><time>2026-05-01T13:14:49.252Z</time></trkpt><trkpt lat="45.0713567" lon="5.8722517"><ele>449.0</ele><time>2026-05-01T13:14:50.251Z</time></trkpt><trkpt lat="45.0711933" lon="5.87202"><ele>449.0</ele><time>2026-05-01T13:14:51.252Z</time></trkpt><trkpt lat="45.07102" lon="5.8717983"><ele>449.0</ele><time>2026-05-01T13:14:52.252Z</time></trkpt><trkpt lat="45.07084" lon="5.871575"><ele>445.5</ele><time>2026-05-01T13:14:53.252Z</time></trkpt><trkpt lat="45.0706517" lon="5.87136"><ele>442.0</ele><time>2026-05-01T13:14:54.252Z</time></trkpt><trkpt lat="45.0704617" lon="5.8711433"><ele>439.5</ele><time>2026-05-01T13:14:55.252Z</time></trkpt><trkpt lat="45.0702633" lon="5.87092"><ele>437.0</ele><time>2026-05-01T13:14:56.252Z</time></trkpt><trkpt lat="45.0700433" lon="5.8706917"><ele>437.5</ele><time>2026-05-01T13:14:57.252Z</time></trkpt><trkpt lat="45.06983" lon="5.8704817"><ele>438.0</ele><time>2026-05-01T13:14:58.251Z</time></trkpt><trkpt lat="45.069625" lon="5.870275"><ele>434.5</ele><time>2026-05-01T13:14:59.252Z</time></trkpt><trkpt lat="45.0694017" lon="5.87007"><ele>431.0</ele><time>2026-05-01T13:15:00.252Z</time></trkpt><trkpt lat="45.0691717" lon="5.8698817"><ele>431.5</ele><time>2026-05-01T13:15:01.251Z</time></trkpt><trkpt lat="45.068935" lon="5.8697067"><ele>432.0</ele><time>2026-05-01T13:15:02.251Z</time></trkpt><trkpt lat="45.0686967" lon="5.8695483"><ele>432.0</ele><time>2026-05-01T13:15:03.252Z</time></trkpt><trkpt lat="45.0684533" lon="5.869395"><ele>432.0</ele><time>2026-05-01T13:15:04.251Z</time></trkpt><trkpt lat="45.0682183" lon="5.86924"><ele>432.5</ele><time>2026-05-01T13:15:05.252Z</time></trkpt><trkpt lat="45.0680067" lon="5.8691"><ele>433.0</ele><time>2026-05-01T13:15:06.251Z</time></trkpt><trkpt lat="45.0678017" lon="5.8689817"><ele>436.0</ele><time>2026-05-01T13:15:07.251Z</time></trkpt><trkpt lat="45.06741" lon="5.8687483"><ele>439.0</ele><time>2026-05-01T13:15:09.251Z</time></trkpt><trkpt lat="45.0671967" lon="5.8686683"><ele>439.0</ele><time>2026-05-01T13:15:10.252Z</time></trkpt><trkpt lat="45.066955" lon="5.8685867"><ele>439.0</ele><time>2026-05-01T13:15:11.251Z</time></trkpt><trkpt lat="45.066695" lon="5.86851"><ele>435.0</ele><time>2026-05-01T13:15:12.251Z</time></trkpt><trkpt lat="45.066415" lon="5.8684417"><ele>431.0</ele><time>2026-05-01T13:15:13.251Z</time></trkpt><trkpt lat="45.066135" lon="5.8683717"><ele>431.0</ele><time>2026-05-01T13:15:14.252Z</time></trkpt><trkpt lat="45.0658683" lon="5.8683133"><ele>431.0</ele><time>2026-05-01T13:15:15.251Z</time></trkpt><trkpt lat="45.0656083" lon="5.8682183"><ele>431.0</ele><time>2026-05-01T13:15:16.252Z</time></trkpt><trkpt lat="45.0653667" lon="5.8681067"><ele>431.0</ele><time>2026-05-01T13:15:17.252Z</time></trkpt><trkpt lat="45.0651283" lon="5.8679617"><ele>433.0</ele><time>2026-05-01T13:15:18.252Z</time></trkpt><trkpt lat="45.0649033" lon="5.8677933"><ele>435.0</ele><time>2026-05-01T13:15:19.252Z</time></trkpt><trkpt lat="45.06468" lon="5.867595"><ele>435.0</ele><time>2026-05-01T13:15:20.252Z</time></trkpt><trkpt lat="45.06445" lon="5.8674083"><ele>435.0</ele><time>2026-05-01T13:15:21.251Z</time></trkpt><trkpt lat="45.06422" lon="5.86721"><ele>434.0</ele><time>2026-05-01T13:15:22.252Z</time></trkpt><trkpt lat="45.0639933" lon="5.8670217"><ele>433.0</ele><time>2026-05-01T13:15:23.252Z</time></trkpt><trkpt lat="45.06377" lon="5.8668383"><ele>433.5</ele><time>2026-05-01T13:15:24.251Z</time></trkpt><trkpt lat="45.063535" lon="5.86665"><ele>434.0</ele><time>2026-05-01T13:15:25.252Z</time></trkpt><trkpt lat="45.06331" lon="5.86646"><ele>432.0</ele><time>2026-05-01T13:15:26.251Z</time></trkpt><trkpt lat="45.0630733" lon="5.8662567"><ele>430.0</ele><time>2026-05-01T13:15:27.252Z</time></trkpt><trkpt lat="45.0628433" lon="5.86605"><ele>425.0</ele><time>2026-05-01T13:15:28.252Z</time></trkpt><trkpt lat="45.06236" lon="5.86564"><ele>425.0</ele><time>2026-05-01T13:15:30.251Z</time></trkpt><trkpt lat="45.06213" lon="5.8654367"><ele>425.0</ele><time>2026-05-01T13:15:31.251Z</time></trkpt><trkpt lat="45.061905" lon="5.8652317"><ele>424.0</ele><time>2026-05-01T13:15:32.252Z</time></trkpt><trkpt lat="45.0616733" lon="5.8650233"><ele>423.0</ele><time>2026-05-01T13:15:33.252Z</time></trkpt><trkpt lat="45.0614483" lon="5.8648167"><ele>423.0</ele><time>2026-05-01T13:15:34.252Z</time></trkpt><trkpt lat="45.0612283" lon="5.8645867"><ele>423.0</ele><time>2026-05-01T13:15:35.252Z</time></trkpt><trkpt lat="45.0610083" lon="5.8643633"><ele>422.0</ele><time>2026-05-01T13:15:36.252Z</time></trkpt><trkpt lat="45.0607933" lon="5.86414"><ele>421.0</ele><time>2026-05-01T13:15:37.252Z</time></trkpt><trkpt lat="45.060575" lon="5.8639183"><ele>423.5</ele><time>2026-05-01T13:15:38.252Z</time></trkpt><trkpt lat="45.06035" lon="5.8636883"><ele>426.0</ele><time>2026-05-01T13:15:39.252Z</time></trkpt><trkpt lat="45.060145" lon="5.8634667"><ele>423.5</ele><time>2026-05-01T13:15:40.252Z</time></trkpt><trkpt lat="45.05993" lon="5.8632383"><ele>421.0</ele><time>2026-05-01T13:15:41.252Z</time></trkpt><trkpt lat="45.0597033" lon="5.8630133"><ele>421.0</ele><time>2026-05-01T13:15:42.252Z</time></trkpt><trkpt lat="45.0594867" lon="5.86278"><ele>421.0</ele><time>2026-05-01T13:15:43.251Z</time></trkpt><trkpt lat="45.0592533" lon="5.8625417"><ele>419.5</ele><time>2026-05-01T13:15:44.252Z</time></trkpt><trkpt lat="45.0590183" lon="5.8623017"><ele>418.0</ele><time>2026-05-01T13:15:45.252Z</time></trkpt><trkpt lat="45.05878" lon="5.8620633"><ele>418.0</ele><time>2026-05-01T13:15:46.252Z</time></trkpt><trkpt lat="45.0585467" lon="5.8618283"><ele>418.0</ele><time>2026-05-01T13:15:47.252Z</time></trkpt><trkpt lat="45.0583183" lon="5.8615983"><ele>416.5</ele><time>2026-05-01T13:15:48.252Z</time></trkpt><trkpt lat="45.0580917" lon="5.8613583"><ele>415.0</ele><time>2026-05-01T13:15:49.252Z</time></trkpt><trkpt lat="45.057645" lon="5.8608933"><ele>413.5</ele><time>2026-05-01T13:15:51.252Z</time></trkpt><trkpt lat="45.0574267" lon="5.8606583"><ele>412.0</ele><time>2026-05-01T13:15:52.252Z</time></trkpt><trkpt lat="45.0572033" lon="5.86042"><ele>412.0</ele><time>2026-05-01T13:15:53.251Z</time></trkpt><trkpt lat="45.05699" lon="5.8601867"><ele>412.0</ele><time>2026-05-01T13:15:54.251Z</time></trkpt><trkpt lat="45.056765" lon="5.85995"><ele>411.5</ele><time>2026-05-01T13:15:55.251Z</time></trkpt><trkpt lat="45.0565417" lon="5.85972"><ele>411.0</ele><time>2026-05-01T13:15:56.252Z</time></trkpt><trkpt lat="45.056325" lon="5.8595083"><ele>411.0</ele><time>2026-05-01T13:15:57.251Z</time></trkpt><trkpt lat="45.0561017" lon="5.859285"><ele>411.0</ele><time>2026-05-01T13:15:58.252Z</time></trkpt><trkpt lat="45.055885" lon="5.8590583"><ele>408.0</ele><time>2026-05-01T13:15:59.251Z</time></trkpt><trkpt lat="45.05567" lon="5.8588367"><ele>405.0</ele><time>2026-05-01T13:16:00.252Z</time></trkpt><trkpt lat="45.0554717" lon="5.8586283"><ele>403.5</ele><time>2026-05-01T13:16:01.251Z</time></trkpt><trkpt lat="45.0552767" lon="5.85842"><ele>402.0</ele><time>2026-05-01T13:16:02.252Z</time></trkpt><trkpt lat="45.0551117" lon="5.858215"><ele>407.0</ele><time>2026-05-01T13:16:03.252Z</time></trkpt><trkpt lat="45.0549417" lon="5.8580017"><ele>412.0</ele><time>2026-05-01T13:16:04.252Z</time></trkpt><trkpt lat="45.054775" lon="5.8577667"><ele>410.0</ele><time>2026-05-01T13:16:05.252Z</time></trkpt><trkpt lat="45.05463" lon="5.8575067"><ele>408.0</ele><time>2026-05-01T13:16:06.252Z</time></trkpt><trkpt lat="45.0545083" lon="5.8572017"><ele>408.0</ele><time>2026-05-01T13:16:07.251Z</time></trkpt><trkpt lat="45.0544083" lon="5.8568483"><ele>408.0</ele><time>2026-05-01T13:16:08.252Z</time></trkpt><trkpt lat="45.0543317" lon="5.85649"><ele>405.0</ele><time>2026-05-01T13:16:09.252Z</time></trkpt><trkpt lat="45.05428" lon="5.8561183"><ele>402.0</ele><time>2026-05-01T13:16:10.251Z</time></trkpt><trkpt lat="45.0541567" lon="5.855445"><ele>403.0</ele><time>2026-05-01T13:16:12.251Z</time></trkpt><trkpt lat="45.054085" lon="5.8551217"><ele>404.0</ele><time>2026-05-01T13:16:13.252Z</time></trkpt><trkpt lat="45.0540083" lon="5.8548083"><ele>401.5</ele><time>2026-05-01T13:16:14.252Z</time></trkpt><trkpt lat="45.0539367" lon="5.854495"><ele>399.0</ele><time>2026-05-01T13:16:15.252Z</time></trkpt><trkpt lat="45.053865" lon="5.8541783"><ele>398.0</ele><time>2026-05-01T13:16:16.252Z</time></trkpt><trkpt lat="45.0537983" lon="5.8538583"><ele>397.0</ele><time>2026-05-01T13:16:17.252Z</time></trkpt><trkpt lat="45.0537317" lon="5.8535417"><ele>396.5</ele><time>2026-05-01T13:16:18.251Z</time></trkpt><trkpt lat="45.0536567" lon="5.85323"><ele>396.0</ele><time>2026-05-01T13:16:19.252Z</time></trkpt><trkpt lat="45.0535917" lon="5.85291"><ele>396.0</ele><time>2026-05-01T13:16:20.252Z</time></trkpt><trkpt lat="45.0535117" lon="5.8526"><ele>396.0</ele><time>2026-05-01T13:16:21.252Z</time></trkpt><trkpt lat="45.05344" lon="5.85231"><ele>396.0</ele><time>2026-05-01T13:16:22.252Z</time></trkpt><trkpt lat="45.0533817" lon="5.8520267"><ele>396.0</ele><time>2026-05-01T13:16:23.252Z</time></trkpt><trkpt lat="45.05334" lon="5.851755"><ele>396.0</ele><time>2026-05-01T13:16:24.252Z</time></trkpt><trkpt lat="45.053315" lon="5.85149"><ele>395.0</ele><time>2026-05-01T13:16:25.252Z</time></trkpt><trkpt lat="45.053325" lon="5.8512233"><ele>394.0</ele><time>2026-05-01T13:16:26.252Z</time></trkpt><trkpt lat="45.053385" lon="5.850975"><ele>393.0</ele><time>2026-05-01T13:16:27.251Z</time></trkpt><trkpt lat="45.0534183" lon="5.850715"><ele>392.0</ele><time>2026-05-01T13:16:28.251Z</time></trkpt><trkpt lat="45.0535283" lon="5.8505117"><ele>391.0</ele><time>2026-05-01T13:16:29.252Z</time></trkpt><trkpt lat="45.0537333" lon="5.85038"><ele>390.0</ele><time>2026-05-01T13:16:30.252Z</time></trkpt><trkpt lat="45.053925" lon="5.85024"><ele>387.5</ele><time>2026-05-01T13:16:31.252Z</time></trkpt><trkpt lat="45.054265" lon="5.8500517"><ele>385.0</ele><time>2026-05-01T13:16:33.251Z</time></trkpt><trkpt lat="45.0543983" lon="5.8499167"><ele>385.0</ele><time>2026-05-01T13:16:34.252Z</time></trkpt><trkpt lat="45.05447" lon="5.8497433"><ele>385.0</ele><time>2026-05-01T13:16:35.251Z</time></trkpt><trkpt lat="45.0545317" lon="5.8495317"><ele>385.0</ele><time>2026-05-01T13:16:36.252Z</time></trkpt><trkpt lat="45.0545833" lon="5.8493067"><ele>384.0</ele><time>2026-05-01T13:16:37.251Z</time></trkpt><trkpt lat="45.0546133" lon="5.8490417"><ele>383.0</ele><time>2026-05-01T13:16:38.252Z</time></trkpt><trkpt lat="45.0546533" lon="5.8487733"><ele>382.0</ele><time>2026-05-01T13:16:39.251Z</time></trkpt><trkpt lat="45.0546767" lon="5.8484867"><ele>383.0</ele><time>2026-05-01T13:16:40.252Z</time></trkpt><trkpt lat="45.05472" lon="5.848205"><ele>384.0</ele><time>2026-05-01T13:16:41.252Z</time></trkpt><trkpt lat="45.05474" lon="5.847905"><ele>385.0</ele><time>2026-05-01T13:16:42.252Z</time></trkpt><trkpt lat="45.054745" lon="5.847595"><ele>387.0</ele><time>2026-05-01T13:16:43.251Z</time></trkpt><trkpt lat="45.0547467" lon="5.8472667"><ele>389.0</ele><time>2026-05-01T13:16:44.252Z</time></trkpt><trkpt lat="45.0547567" lon="5.846935"><ele>385.0</ele><time>2026-05-01T13:16:45.252Z</time></trkpt><trkpt lat="45.0547667" lon="5.8465883"><ele>381.0</ele><time>2026-05-01T13:16:46.252Z</time></trkpt><trkpt lat="45.0547633" lon="5.84623"><ele>381.0</ele><time>2026-05-01T13:16:47.252Z</time></trkpt><trkpt lat="45.05476" lon="5.8458767"><ele>381.0</ele><time>2026-05-01T13:16:48.251Z</time></trkpt><trkpt lat="45.0547567" lon="5.8455183"><ele>381.0</ele><time>2026-05-01T13:16:49.252Z</time></trkpt><trkpt lat="45.054755" lon="5.8451683"><ele>381.0</ele><time>2026-05-01T13:16:50.251Z</time></trkpt><trkpt lat="45.0547567" lon="5.8448267"><ele>381.0</ele><time>2026-05-01T13:16:51.252Z</time></trkpt><trkpt lat="45.0547633" lon="5.8444833"><ele>381.0</ele><time>2026-05-01T13:16:52.252Z</time></trkpt><trkpt lat="45.0546933" lon="5.843765"><ele>379.5</ele><time>2026-05-01T13:16:54.252Z</time></trkpt><trkpt lat="45.0546433" lon="5.8433917"><ele>378.0</ele><time>2026-05-01T13:16:55.252Z</time></trkpt><trkpt lat="45.0546" lon="5.8430317"><ele>378.0</ele><time>2026-05-01T13:16:56.252Z</time></trkpt><trkpt lat="45.05454" lon="5.8426833"><ele>378.0</ele><time>2026-05-01T13:16:57.252Z</time></trkpt><trkpt lat="45.0544633" lon="5.842365"><ele>380.66666666666663</ele><time>2026-05-01T13:16:58.251Z</time></trkpt><trkpt lat="45.0543917" lon="5.8420583"><ele>383.3333333333333</ele><time>2026-05-01T13:16:59.252Z</time></trkpt><trkpt lat="45.0543367" lon="5.8417633"><ele>386.0</ele><time>2026-05-01T13:17:00.251Z</time></trkpt><trkpt lat="45.0542567" lon="5.84144"><ele>386.0</ele><time>2026-05-01T13:17:01.251Z</time></trkpt><trkpt lat="45.05418" lon="5.8411283"><ele>386.0</ele><time>2026-05-01T13:17:02.252Z</time></trkpt><trkpt lat="45.054105" lon="5.8408517"><ele>386.0</ele><time>2026-05-01T13:17:03.252Z</time></trkpt><trkpt lat="45.0540267" lon="5.8405667"><ele>380.3333333333333</ele><time>2026-05-01T13:17:04.252Z</time></trkpt><trkpt lat="45.0539583" lon="5.8402833"><ele>374.66666666666663</ele><time>2026-05-01T13:17:05.252Z</time></trkpt><trkpt lat="45.053915" lon="5.839995"><ele>369.0</ele><time>2026-05-01T13:17:06.252Z</time></trkpt><trkpt lat="45.0538667" lon="5.83971"><ele>368.0</ele><time>2026-05-01T13:17:07.252Z</time></trkpt><trkpt lat="45.0538417" lon="5.83943"><ele>367.0</ele><time>2026-05-01T13:17:08.252Z</time></trkpt><trkpt lat="45.05381" lon="5.8391533"><ele>366.0</ele><time>2026-05-01T13:17:09.252Z</time></trkpt><trkpt lat="45.053775" lon="5.838905"><ele>366.0</ele><time>2026-05-01T13:17:10.252Z</time></trkpt><trkpt lat="45.053725" lon="5.8386667"><ele>366.0</ele><time>2026-05-01T13:17:11.252Z</time></trkpt><trkpt lat="45.0536683" lon="5.8384533"><ele>366.0</ele><time>2026-05-01T13:17:12.252Z</time></trkpt><trkpt lat="45.0535567" lon="5.838235"><ele>367.0</ele><time>2026-05-01T13:17:13.252Z</time></trkpt><trkpt lat="45.0532983" lon="5.83779"><ele>368.0</ele><time>2026-05-01T13:17:15.251Z</time></trkpt><trkpt lat="45.0530783" lon="5.83756"><ele>368.0</ele><time>2026-05-01T13:17:16.252Z</time></trkpt><trkpt lat="45.0528917" lon="5.8373417"><ele>368.0</ele><time>2026-05-01T13:17:17.252Z</time></trkpt><trkpt lat="45.0526967" lon="5.837105"><ele>368.0</ele><time>2026-05-01T13:17:18.252Z</time></trkpt><trkpt lat="45.0525217" lon="5.8368667"><ele>368.0</ele><time>2026-05-01T13:17:19.252Z</time></trkpt><trkpt lat="45.05231" lon="5.8365933"><ele>365.5</ele><time>2026-05-01T13:17:20.252Z</time></trkpt><trkpt lat="45.0521267" lon="5.8363233"><ele>363.0</ele><time>2026-05-01T13:17:21.251Z</time></trkpt><trkpt lat="45.051975" lon="5.8360333"><ele>363.0</ele><time>2026-05-01T13:17:22.252Z</time></trkpt><trkpt lat="45.051855" lon="5.8357267"><ele>363.0</ele><time>2026-05-01T13:17:23.252Z</time></trkpt><trkpt lat="45.0517483" lon="5.835385"><ele>363.0</ele><time>2026-05-01T13:17:24.252Z</time></trkpt><trkpt lat="45.051665" lon="5.83503"><ele>363.0</ele><time>2026-05-01T13:17:25.252Z</time></trkpt><trkpt lat="45.0515783" lon="5.8346917"><ele>362.5</ele><time>2026-05-01T13:17:26.251Z</time></trkpt><trkpt lat="45.0515217" lon="5.8343467"><ele>362.0</ele><time>2026-05-01T13:17:27.252Z</time></trkpt><trkpt lat="45.0514983" lon="5.8339833"><ele>362.0</ele><time>2026-05-01T13:17:28.252Z</time></trkpt><trkpt lat="45.0515317" lon="5.8336217"><ele>362.0</ele><time>2026-05-01T13:17:29.252Z</time></trkpt><trkpt lat="45.0516567" lon="5.833305"><ele>361.5</ele><time>2026-05-01T13:17:30.252Z</time></trkpt><trkpt lat="45.0516617" lon="5.8329533"><ele>361.0</ele><time>2026-05-01T13:17:31.251Z</time></trkpt><trkpt lat="45.0517333" lon="5.8326133"><ele>359.5</ele><time>2026-05-01T13:17:32.252Z</time></trkpt><trkpt lat="45.051865" lon="5.8322933"><ele>358.0</ele><time>2026-05-01T13:17:33.251Z</time></trkpt><trkpt lat="45.0519783" lon="5.831975"><ele>361.0</ele><time>2026-05-01T13:17:34.252Z</time></trkpt><trkpt lat="45.0522033" lon="5.831385"><ele>361.0</ele><time>2026-05-01T13:17:36.252Z</time></trkpt><trkpt lat="45.0523117" lon="5.8311133"><ele>361.0</ele><time>2026-05-01T13:17:37.252Z</time></trkpt><trkpt lat="45.05241" lon="5.8308367"><ele>361.0</ele><time>2026-05-01T13:17:38.252Z</time></trkpt><trkpt lat="45.0524833" lon="5.8305417"><ele>360.66666666666663</ele><time>2026-05-01T13:17:39.252Z</time></trkpt><trkpt lat="45.05254" lon="5.830245"><ele>360.3333333333333</ele><time>2026-05-01T13:17:40.252Z</time></trkpt><trkpt lat="45.0525883" lon="5.8299333"><ele>360.0</ele><time>2026-05-01T13:17:41.252Z</time></trkpt><trkpt lat="45.052645" lon="5.8296117"><ele>355.5</ele><time>2026-05-01T13:17:42.251Z</time></trkpt><trkpt lat="45.0526883" lon="5.8292617"><ele>351.0</ele><time>2026-05-01T13:17:43.252Z</time></trkpt><trkpt lat="45.0527233" lon="5.8288917"><ele>351.0</ele><time>2026-05-01T13:17:44.252Z</time></trkpt><trkpt lat="45.0527617" lon="5.8285117"><ele>351.0</ele><time>2026-05-01T13:17:45.252Z</time></trkpt><trkpt lat="45.05281" lon="5.82812"><ele>351.0</ele><time>2026-05-01T13:17:46.252Z</time></trkpt><trkpt lat="45.0528567" lon="5.8277267"><ele>351.0</ele><time>2026-05-01T13:17:47.252Z</time></trkpt><trkpt lat="45.052905" lon="5.82733"><ele>351.0</ele><time>2026-05-01T13:17:48.251Z</time></trkpt><trkpt lat="45.0529467" lon="5.8269283"><ele>351.0</ele><time>2026-05-01T13:17:49.252Z</time></trkpt><trkpt lat="45.052995" lon="5.82653"><ele>350.0</ele><time>2026-05-01T13:17:50.252Z</time></trkpt><trkpt lat="45.053045" lon="5.8261383"><ele>349.0</ele><time>2026-05-01T13:17:51.251Z</time></trkpt><trkpt lat="45.0530933" lon="5.8257483"><ele>349.0</ele><time>2026-05-01T13:17:52.252Z</time></trkpt><trkpt lat="45.0531333" lon="5.8253433"><ele>349.0</ele><time>2026-05-01T13:17:53.252Z</time></trkpt><trkpt lat="45.0531717" lon="5.8249783"><ele>349.0</ele><time>2026-05-01T13:17:54.251Z</time></trkpt><trkpt lat="45.0532067" lon="5.8246367"><ele>349.0</ele><time>2026-05-01T13:17:55.252Z</time></trkpt><trkpt lat="45.05326" lon="5.823925"><ele>348.0</ele><time>2026-05-01T13:17:57.252Z</time></trkpt><trkpt lat="45.0532933" lon="5.8235617"><ele>347.0</ele><time>2026-05-01T13:17:58.252Z</time></trkpt><trkpt lat="45.05333" lon="5.823205"><ele>347.0</ele><time>2026-05-01T13:17:59.252Z</time></trkpt><trkpt lat="45.05337" lon="5.82285"><ele>347.0</ele><time>2026-05-01T13:18:00.252Z</time></trkpt><trkpt lat="45.05342" lon="5.822505"><ele>346.5</ele><time>2026-05-01T13:18:01.252Z</time></trkpt><trkpt lat="45.0534683" lon="5.8221533"><ele>346.0</ele><time>2026-05-01T13:18:02.252Z</time></trkpt><trkpt lat="45.05351" lon="5.8217933"><ele>345.5</ele><time>2026-05-01T13:18:03.251Z</time></trkpt><trkpt lat="45.0535383" lon="5.8214267"><ele>345.0</ele><time>2026-05-01T13:18:04.251Z</time></trkpt><trkpt lat="45.0535733" lon="5.8210433"><ele>344.5</ele><time>2026-05-01T13:18:05.251Z</time></trkpt><trkpt lat="45.0536183" lon="5.82068"><ele>344.0</ele><time>2026-05-01T13:18:06.252Z</time></trkpt><trkpt lat="45.0536667" lon="5.820305"><ele>343.0</ele><time>2026-05-01T13:18:07.252Z</time></trkpt><trkpt lat="45.0537117" lon="5.81993"><ele>342.0</ele><time>2026-05-01T13:18:08.252Z</time></trkpt><trkpt lat="45.0537567" lon="5.81955"><ele>343.0</ele><time>2026-05-01T13:18:09.252Z</time></trkpt><trkpt lat="45.0538067" lon="5.8191683"><ele>344.0</ele><time>2026-05-01T13:18:10.252Z</time></trkpt><trkpt lat="45.053855" lon="5.8187683"><ele>344.0</ele><time>2026-05-01T13:18:11.252Z</time></trkpt><trkpt lat="45.0538983" lon="5.818365"><ele>344.0</ele><time>2026-05-01T13:18:12.252Z</time></trkpt><trkpt lat="45.0539467" lon="5.817965"><ele>342.0</ele><time>2026-05-01T13:18:13.252Z</time></trkpt><trkpt lat="45.0539817" lon="5.81756"><ele>340.0</ele><time>2026-05-01T13:18:14.252Z</time></trkpt><trkpt lat="45.0540117" lon="5.81716"><ele>341.0</ele><time>2026-05-01T13:18:15.251Z</time></trkpt><trkpt lat="45.0540517" lon="5.8167683"><ele>342.0</ele><time>2026-05-01T13:18:16.252Z</time></trkpt><trkpt lat="45.05413" lon="5.8159667"><ele>339.0</ele><time>2026-05-01T13:18:18.251Z</time></trkpt><trkpt lat="45.0541717" lon="5.8155767"><ele>336.0</ele><time>2026-05-01T13:18:19.252Z</time></trkpt><trkpt lat="45.05421" lon="5.8151967"><ele>339.0</ele><time>2026-05-01T13:18:20.251Z</time></trkpt><trkpt lat="45.0542467" lon="5.8148183"><ele>342.0</ele><time>2026-05-01T13:18:21.252Z</time></trkpt><trkpt lat="45.054265" lon="5.81443"><ele>345.5</ele><time>2026-05-01T13:18:22.252Z</time></trkpt><trkpt lat="45.0542833" lon="5.814065"><ele>349.0</ele><time>2026-05-01T13:18:23.252Z</time></trkpt><trkpt lat="45.0542833" lon="5.8136917"><ele>353.5</ele><time>2026-05-01T13:18:24.251Z</time></trkpt><trkpt lat="45.0542817" lon="5.813315"><ele>358.0</ele><time>2026-05-01T13:18:25.251Z</time></trkpt><trkpt lat="45.0543067" lon="5.8129533"><ele>367.5</ele><time>2026-05-01T13:18:26.251Z</time></trkpt><trkpt lat="45.05435" lon="5.8126017"><ele>377.0</ele><time>2026-05-01T13:18:27.252Z</time></trkpt><trkpt lat="45.0543983" lon="5.812245"><ele>377.0</ele><time>2026-05-01T13:18:28.251Z</time></trkpt><trkpt lat="45.0544583" lon="5.8118967"><ele>377.0</ele><time>2026-05-01T13:18:29.252Z</time></trkpt><trkpt lat="45.0545217" lon="5.8115417"><ele>387.5</ele><time>2026-05-01T13:18:30.252Z</time></trkpt><trkpt lat="45.0545817" lon="5.8111983"><ele>398.0</ele><time>2026-05-01T13:18:31.252Z</time></trkpt><trkpt lat="45.0546317" lon="5.8108567"><ele>403.5</ele><time>2026-05-01T13:18:32.252Z</time></trkpt><trkpt lat="45.05467" lon="5.8105333"><ele>409.0</ele><time>2026-05-01T13:18:33.252Z</time></trkpt><trkpt lat="45.0546783" lon="5.8102083"><ele>406.5</ele><time>2026-05-01T13:18:34.252Z</time></trkpt><trkpt lat="45.054665" lon="5.80986"><ele>404.0</ele><time>2026-05-01T13:18:35.252Z</time></trkpt><trkpt lat="45.054605" lon="5.80949"><ele>399.5</ele><time>2026-05-01T13:18:36.251Z</time></trkpt><trkpt lat="45.0545283" lon="5.8091133"><ele>395.0</ele><time>2026-05-01T13:18:37.252Z</time></trkpt><trkpt lat="45.05435" lon="5.8083917"><ele>388.5</ele><time>2026-05-01T13:18:39.252Z</time></trkpt><trkpt lat="45.0542583" lon="5.8080067"><ele>382.0</ele><time>2026-05-01T13:18:40.252Z</time></trkpt><trkpt lat="45.0541667" lon="5.8076317"><ele>393.0</ele><time>2026-05-01T13:18:41.252Z</time></trkpt><trkpt lat="45.054075" lon="5.8072567"><ele>404.0</ele><time>2026-05-01T13:18:42.252Z</time></trkpt><trkpt lat="45.053985" lon="5.806885"><ele>392.0</ele><time>2026-05-01T13:18:43.251Z</time></trkpt><trkpt lat="45.0538933" lon="5.8065167"><ele>380.0</ele><time>2026-05-01T13:18:44.251Z</time></trkpt><trkpt lat="45.0537833" lon="5.806115"><ele>365.0</ele><time>2026-05-01T13:18:45.252Z</time></trkpt><trkpt lat="45.0536467" lon="5.8057383"><ele>350.0</ele><time>2026-05-01T13:18:46.252Z</time></trkpt><trkpt lat="45.0535533" lon="5.8053767"><ele>339.5</ele><time>2026-05-01T13:18:47.252Z</time></trkpt><trkpt lat="45.053475" lon="5.8050283"><ele>329.0</ele><time>2026-05-01T13:18:48.252Z</time></trkpt><trkpt lat="45.0534217" lon="5.80469"><ele>329.0</ele><time>2026-05-01T13:18:49.252Z</time></trkpt><trkpt lat="45.0533883" lon="5.8043383"><ele>329.0</ele><time>2026-05-01T13:18:50.252Z</time></trkpt><trkpt lat="45.05337" lon="5.8039933"><ele>327.5</ele><time>2026-05-01T13:18:51.252Z</time></trkpt><trkpt lat="45.0533833" lon="5.8036483"><ele>326.0</ele><time>2026-05-01T13:18:52.252Z</time></trkpt><trkpt lat="45.0534267" lon="5.803305"><ele>326.0</ele><time>2026-05-01T13:18:53.251Z</time></trkpt><trkpt lat="45.053475" lon="5.802935"><ele>326.0</ele><time>2026-05-01T13:18:54.252Z</time></trkpt><trkpt lat="45.053545" lon="5.80253"><ele>325.5</ele><time>2026-05-01T13:18:55.251Z</time></trkpt><trkpt lat="45.0536233" lon="5.8021567"><ele>325.0</ele><time>2026-05-01T13:18:56.251Z</time></trkpt><trkpt lat="45.053705" lon="5.80178"><ele>325.0</ele><time>2026-05-01T13:18:57.251Z</time></trkpt><trkpt lat="45.0537917" lon="5.8013917"><ele>325.0</ele><time>2026-05-01T13:18:58.251Z</time></trkpt><trkpt lat="45.0539517" lon="5.8006117"><ele>326.0</ele><time>2026-05-01T13:19:00.251Z</time></trkpt><trkpt lat="45.0540233" lon="5.8002367"><ele>327.0</ele><time>2026-05-01T13:19:01.252Z</time></trkpt><trkpt lat="45.0540767" lon="5.7998817"><ele>327.0</ele><time>2026-05-01T13:19:02.252Z</time></trkpt><trkpt lat="45.0541417" lon="5.7995767"><ele>327.0</ele><time>2026-05-01T13:19:03.252Z</time></trkpt><trkpt lat="45.054205" lon="5.7993167"><ele>327.0</ele><time>2026-05-01T13:19:04.252Z</time></trkpt><trkpt lat="45.0542633" lon="5.799085"><ele>327.0</ele><time>2026-05-01T13:19:05.252Z</time></trkpt><trkpt lat="45.0543067" lon="5.798855"><ele>327.0</ele><time>2026-05-01T13:19:06.252Z</time></trkpt><trkpt lat="45.05435" lon="5.7986583"><ele>327.0</ele><time>2026-05-01T13:19:07.252Z</time></trkpt><trkpt lat="45.05439" lon="5.798465"><ele>329.3333333333333</ele><time>2026-05-01T13:19:08.251Z</time></trkpt><trkpt lat="45.0543983" lon="5.7982667"><ele>331.66666666666663</ele><time>2026-05-01T13:19:09.252Z</time></trkpt><trkpt lat="45.0543833" lon="5.79805"><ele>334.0</ele><time>2026-05-01T13:19:10.252Z</time></trkpt><trkpt lat="45.0543267" lon="5.7978067"><ele>330.0</ele><time>2026-05-01T13:19:11.252Z</time></trkpt><trkpt lat="45.0542517" lon="5.7975467"><ele>326.0</ele><time>2026-05-01T13:19:12.252Z</time></trkpt><trkpt lat="45.0541833" lon="5.7972683"><ele>322.0</ele><time>2026-05-01T13:19:13.251Z</time></trkpt><trkpt lat="45.0540933" lon="5.7969783"><ele>323.5</ele><time>2026-05-01T13:19:14.252Z</time></trkpt><trkpt lat="45.0539583" lon="5.7966633"><ele>325.0</ele><time>2026-05-01T13:19:15.252Z</time></trkpt><trkpt lat="45.05382" lon="5.7963367"><ele>325.0</ele><time>2026-05-01T13:19:16.251Z</time></trkpt><trkpt lat="45.0536383" lon="5.796025"><ele>325.0</ele><time>2026-05-01T13:19:17.252Z</time></trkpt><trkpt lat="45.0534933" lon="5.7957233"><ele>323.5</ele><time>2026-05-01T13:19:18.251Z</time></trkpt><trkpt lat="45.05335" lon="5.7954233"><ele>322.0</ele><time>2026-05-01T13:19:19.252Z</time></trkpt><trkpt lat="45.053045" lon="5.7948633"><ele>322.0</ele><time>2026-05-01T13:19:21.251Z</time></trkpt><trkpt lat="45.0528767" lon="5.79459"><ele>322.0</ele><time>2026-05-01T13:19:22.252Z</time></trkpt><trkpt lat="45.0527283" lon="5.794325"><ele>319.0</ele><time>2026-05-01T13:19:23.251Z</time></trkpt><trkpt lat="45.0525767" lon="5.7940733"><ele>316.0</ele><time>2026-05-01T13:19:24.252Z</time></trkpt><trkpt lat="45.0524217" lon="5.7938117"><ele>316.0</ele><time>2026-05-01T13:19:25.252Z</time></trkpt><trkpt lat="45.05227" lon="5.7935483"><ele>316.0</ele><time>2026-05-01T13:19:26.252Z</time></trkpt><trkpt lat="45.0521283" lon="5.7932817"><ele>317.0</ele><time>2026-05-01T13:19:27.252Z</time></trkpt><trkpt lat="45.052" lon="5.7930033"><ele>318.0</ele><time>2026-05-01T13:19:28.251Z</time></trkpt><trkpt lat="45.051855" lon="5.7927267"><ele>317.5</ele><time>2026-05-01T13:19:29.252Z</time></trkpt><trkpt lat="45.0517333" lon="5.7924317"><ele>317.0</ele><time>2026-05-01T13:19:30.251Z</time></trkpt><trkpt lat="45.0515933" lon="5.79219"><ele>317.0</ele><time>2026-05-01T13:19:31.252Z</time></trkpt><trkpt lat="45.05146" lon="5.7919417"><ele>317.0</ele><time>2026-05-01T13:19:32.252Z</time></trkpt><trkpt lat="45.051325" lon="5.7916833"><ele>317.0</ele><time>2026-05-01T13:19:33.252Z</time></trkpt><trkpt lat="45.051185" lon="5.791425"><ele>320.5</ele><time>2026-05-01T13:19:34.252Z</time></trkpt><trkpt lat="45.0510467" lon="5.7911683"><ele>324.0</ele><time>2026-05-01T13:19:35.252Z</time></trkpt><trkpt lat="45.0509167" lon="5.7909067"><ele>328.5</ele><time>2026-05-01T13:19:36.251Z</time></trkpt><trkpt lat="45.0507983" lon="5.7906383"><ele>333.0</ele><time>2026-05-01T13:19:37.252Z</time></trkpt><trkpt lat="45.0506833" lon="5.7903483"><ele>325.0</ele><time>2026-05-01T13:19:38.252Z</time></trkpt><trkpt lat="45.0505683" lon="5.7900717"><ele>317.0</ele><time>2026-05-01T13:19:39.252Z</time></trkpt><trkpt lat="45.05045" lon="5.7897967"><ele>317.5</ele><time>2026-05-01T13:19:40.252Z</time></trkpt><trkpt lat="45.05023" lon="5.7893267"><ele>318.0</ele><time>2026-05-01T13:19:42.251Z</time></trkpt><trkpt lat="45.0501217" lon="5.7890883"><ele>318.0</ele><time>2026-05-01T13:19:43.252Z</time></trkpt><trkpt lat="45.0500467" lon="5.788795"><ele>318.0</ele><time>2026-05-01T13:19:44.252Z</time></trkpt><trkpt lat="45.05" lon="5.7885317"><ele>318.0</ele><time>2026-05-01T13:19:45.252Z</time></trkpt><trkpt lat="45.0499467" lon="5.7882217"><ele>315.0</ele><time>2026-05-01T13:19:46.252Z</time></trkpt><trkpt lat="45.0499517" lon="5.7878983"><ele>312.0</ele><time>2026-05-01T13:19:47.252Z</time></trkpt><trkpt lat="45.0499367" lon="5.787575"><ele>311.5</ele><time>2026-05-01T13:19:48.252Z</time></trkpt><trkpt lat="45.0498967" lon="5.7872567"><ele>311.0</ele><time>2026-05-01T13:19:49.252Z</time></trkpt><trkpt lat="45.049865" lon="5.786915"><ele>311.0</ele><time>2026-05-01T13:19:50.252Z</time></trkpt><trkpt lat="45.04984" lon="5.78657"><ele>311.0</ele><time>2026-05-01T13:19:51.252Z</time></trkpt><trkpt lat="45.0498317" lon="5.7862367"><ele>310.5</ele><time>2026-05-01T13:19:52.252Z</time></trkpt><trkpt lat="45.0498333" lon="5.7858783"><ele>310.0</ele><time>2026-05-01T13:19:53.252Z</time></trkpt><trkpt lat="45.04983" lon="5.7855217"><ele>308.5</ele><time>2026-05-01T13:19:54.252Z</time></trkpt><trkpt lat="45.049845" lon="5.7851417"><ele>307.0</ele><time>2026-05-01T13:19:55.252Z</time></trkpt><trkpt lat="45.049885" lon="5.7847833"><ele>307.0</ele><time>2026-05-01T13:19:56.252Z</time></trkpt><trkpt lat="45.049945" lon="5.7844167"><ele>307.0</ele><time>2026-05-01T13:19:57.251Z</time></trkpt><trkpt lat="45.050005" lon="5.7840517"><ele>306.5</ele><time>2026-05-01T13:19:58.251Z</time></trkpt><trkpt lat="45.050075" lon="5.7836967"><ele>306.0</ele><time>2026-05-01T13:19:59.252Z</time></trkpt><trkpt lat="45.0501467" lon="5.7833767"><ele>307.0</ele><time>2026-05-01T13:20:00.251Z</time></trkpt><trkpt lat="45.0502317" lon="5.783075"><ele>308.0</ele><time>2026-05-01T13:20:01.252Z</time></trkpt><trkpt lat="45.050455" lon="5.78251"><ele>308.0</ele><time>2026-05-01T13:20:03.252Z</time></trkpt><trkpt lat="45.0505967" lon="5.7822317"><ele>308.0</ele><time>2026-05-01T13:20:04.252Z</time></trkpt><trkpt lat="45.0507467" lon="5.78196"><ele>309.5</ele><time>2026-05-01T13:20:05.251Z</time></trkpt><trkpt lat="45.050905" lon="5.7817267"><ele>311.0</ele><time>2026-05-01T13:20:06.252Z</time></trkpt><trkpt lat="45.0510667" lon="5.7814683"><ele>311.0</ele><time>2026-05-01T13:20:07.252Z</time></trkpt><trkpt lat="45.0512283" lon="5.7812083"><ele>311.0</ele><time>2026-05-01T13:20:08.252Z</time></trkpt><trkpt lat="45.051385" lon="5.780965"><ele>311.0</ele><time>2026-05-01T13:20:09.251Z</time></trkpt><trkpt lat="45.0515233" lon="5.7807683"><ele>311.0</ele><time>2026-05-01T13:20:10.252Z</time></trkpt><trkpt lat="45.051655" lon="5.7805817"><ele>311.0</ele><time>2026-05-01T13:20:11.252Z</time></trkpt><trkpt lat="45.051775" lon="5.7804017"><ele>309.6666666666667</ele><time>2026-05-01T13:20:12.251Z</time></trkpt><trkpt lat="45.05188" lon="5.7802233"><ele>308.3333333333333</ele><time>2026-05-01T13:20:13.252Z</time></trkpt><trkpt lat="45.0519833" lon="5.78004"><ele>307.0</ele><time>2026-05-01T13:20:14.251Z</time></trkpt><trkpt lat="45.05208" lon="5.7798817"><ele>307.0</ele><time>2026-05-01T13:20:15.252Z</time></trkpt><trkpt lat="45.0521767" lon="5.7797333"><ele>307.0</ele><time>2026-05-01T13:20:16.251Z</time></trkpt><trkpt lat="45.0522783" lon="5.779545"><ele>307.0</ele><time>2026-05-01T13:20:17.251Z</time></trkpt><trkpt lat="45.05239" lon="5.7793333"><ele>307.3333333333333</ele><time>2026-05-01T13:20:18.251Z</time></trkpt><trkpt lat="45.0525183" lon="5.7791033"><ele>307.6666666666667</ele><time>2026-05-01T13:20:19.251Z</time></trkpt><trkpt lat="45.05265" lon="5.778855"><ele>308.0</ele><time>2026-05-01T13:20:20.25Z</time></trkpt><trkpt lat="45.05276" lon="5.7786117"><ele>307.0</ele><time>2026-05-01T13:20:21.251Z</time></trkpt><trkpt lat="45.0528967" lon="5.7783983"><ele>306.0</ele><time>2026-05-01T13:20:22.251Z</time></trkpt><trkpt lat="45.053195" lon="5.77797"><ele>305.6666666666667</ele><time>2026-05-01T13:20:24.251Z</time></trkpt><trkpt lat="45.0533517" lon="5.77774"><ele>305.33333333333337</ele><time>2026-05-01T13:20:25.25Z</time></trkpt><trkpt lat="45.0535" lon="5.777505"><ele>305.0</ele><time>2026-05-01T13:20:26.251Z</time></trkpt><trkpt lat="45.0536517" lon="5.7772633"><ele>304.5</ele><time>2026-05-01T13:20:27.251Z</time></trkpt><trkpt lat="45.0538017" lon="5.77701"><ele>304.0</ele><time>2026-05-01T13:20:28.251Z</time></trkpt><trkpt lat="45.0539417" lon="5.77677"><ele>304.0</ele><time>2026-05-01T13:20:29.251Z</time></trkpt><trkpt lat="45.0540783" lon="5.7765433"><ele>304.0</ele><time>2026-05-01T13:20:30.251Z</time></trkpt><trkpt lat="45.0542017" lon="5.776305"><ele>304.0</ele><time>2026-05-01T13:20:31.251Z</time></trkpt><trkpt lat="45.0543117" lon="5.7761"><ele>304.3333333333333</ele><time>2026-05-01T13:20:32.251Z</time></trkpt><trkpt lat="45.0544233" lon="5.7759067"><ele>304.6666666666667</ele><time>2026-05-01T13:20:33.251Z</time></trkpt><trkpt lat="45.0545383" lon="5.77568"><ele>305.0</ele><time>2026-05-01T13:20:34.25Z</time></trkpt><trkpt lat="45.0546617" lon="5.7754733"><ele>305.0</ele><time>2026-05-01T13:20:35.251Z</time></trkpt><trkpt lat="45.0548" lon="5.775315"><ele>305.0</ele><time>2026-05-01T13:20:36.251Z</time></trkpt><trkpt lat="45.0549217" lon="5.7751183"><ele>305.0</ele><time>2026-05-01T13:20:37.251Z</time></trkpt><trkpt lat="45.05505" lon="5.774905"><ele>304.33333333333337</ele><time>2026-05-01T13:20:38.25Z</time></trkpt><trkpt lat="45.0551717" lon="5.7746633"><ele>303.6666666666667</ele><time>2026-05-01T13:20:39.25Z</time></trkpt><trkpt lat="45.0552933" lon="5.77448"><ele>303.0</ele><time>2026-05-01T13:20:40.251Z</time></trkpt><trkpt lat="45.0554283" lon="5.7742917"><ele>302.6666666666667</ele><time>2026-05-01T13:20:41.25Z</time></trkpt><trkpt lat="45.05555" lon="5.77407"><ele>302.33333333333337</ele><time>2026-05-01T13:20:42.251Z</time></trkpt><trkpt lat="45.055675" lon="5.77387"><ele>302.0</ele><time>2026-05-01T13:20:43.251Z</time></trkpt><trkpt lat="45.0559183" lon="5.7734717"><ele>302.6666666666667</ele><time>2026-05-01T13:20:45.251Z</time></trkpt><trkpt lat="45.056035" lon="5.773275"><ele>303.3333333333333</ele><time>2026-05-01T13:20:46.251Z</time></trkpt><trkpt lat="45.0561617" lon="5.7730817"><ele>304.0</ele><time>2026-05-01T13:20:47.251Z</time></trkpt><trkpt lat="45.0562933" lon="5.77289"><ele>302.66666666666663</ele><time>2026-05-01T13:20:48.25Z</time></trkpt><trkpt lat="45.056415" lon="5.7726883"><ele>301.3333333333333</ele><time>2026-05-01T13:20:49.25Z</time></trkpt><trkpt lat="45.0565317" lon="5.7724817"><ele>300.0</ele><time>2026-05-01T13:20:50.251Z</time></trkpt><trkpt lat="45.05666" lon="5.7722733"><ele>300.0</ele><time>2026-05-01T13:20:51.251Z</time></trkpt><trkpt lat="45.0567733" lon="5.7720533"><ele>300.0</ele><time>2026-05-01T13:20:52.251Z</time></trkpt><trkpt lat="45.0568933" lon="5.7718417"><ele>300.0</ele><time>2026-05-01T13:20:53.251Z</time></trkpt><trkpt lat="45.0570083" lon="5.77164"><ele>299.3333333333333</ele><time>2026-05-01T13:20:54.251Z</time></trkpt><trkpt lat="45.0571217" lon="5.7714683"><ele>298.66666666666663</ele><time>2026-05-01T13:20:55.25Z</time></trkpt><trkpt lat="45.0572233" lon="5.7713"><ele>298.0</ele><time>2026-05-01T13:20:56.251Z</time></trkpt><trkpt lat="45.0573183" lon="5.7711567"><ele>298.0</ele><time>2026-05-01T13:20:57.25Z</time></trkpt><trkpt lat="45.0574117" lon="5.7710233"><ele>298.0</ele><time>2026-05-01T13:20:58.251Z</time></trkpt><trkpt lat="45.0575083" lon="5.770885"><ele>298.0</ele><time>2026-05-01T13:20:59.251Z</time></trkpt><trkpt lat="45.0576" lon="5.77074"><ele>298.0</ele><time>2026-05-01T13:21:00.251Z</time></trkpt><trkpt lat="45.0576917" lon="5.7705933"><ele>298.0</ele><time>2026-05-01T13:21:01.251Z</time></trkpt><trkpt lat="45.0577833" lon="5.7704383"><ele>298.0</ele><time>2026-05-01T13:21:02.251Z</time></trkpt><trkpt lat="45.0578767" lon="5.7702817"><ele>298.0</ele><time>2026-05-01T13:21:03.251Z</time></trkpt><trkpt lat="45.057975" lon="5.7701"><ele>298.0</ele><time>2026-05-01T13:21:04.25Z</time></trkpt><trkpt lat="45.05818" lon="5.7697483"><ele>298.0</ele><time>2026-05-01T13:21:06.25Z</time></trkpt><trkpt lat="45.0582833" lon="5.7695733"><ele>298.0</ele><time>2026-05-01T13:21:07.251Z</time></trkpt><trkpt lat="45.0583917" lon="5.7693883"><ele>298.0</ele><time>2026-05-01T13:21:08.251Z</time></trkpt><trkpt lat="45.0585" lon="5.7692167"><ele>297.3333333333333</ele><time>2026-05-01T13:21:09.251Z</time></trkpt><trkpt lat="45.0585967" lon="5.7690617"><ele>296.6666666666667</ele><time>2026-05-01T13:21:10.251Z</time></trkpt><trkpt lat="45.0587067" lon="5.7688933"><ele>296.0</ele><time>2026-05-01T13:21:11.251Z</time></trkpt><trkpt lat="45.058815" lon="5.7687217"><ele>296.0</ele><time>2026-05-01T13:21:12.251Z</time></trkpt><trkpt lat="45.0589183" lon="5.7685483"><ele>296.0</ele><time>2026-05-01T13:21:13.251Z</time></trkpt><trkpt lat="45.0590267" lon="5.7684017"><ele>296.0</ele><time>2026-05-01T13:21:14.251Z</time></trkpt><trkpt lat="45.0591383" lon="5.7682333"><ele>296.0</ele><time>2026-05-01T13:21:15.251Z</time></trkpt><trkpt lat="45.0592633" lon="5.7680483"><ele>296.0</ele><time>2026-05-01T13:21:16.25Z</time></trkpt><trkpt lat="45.0593717" lon="5.767855"><ele>296.0</ele><time>2026-05-01T13:21:17.251Z</time></trkpt><trkpt lat="45.059475" lon="5.76765"><ele>296.0</ele><time>2026-05-01T13:21:18.251Z</time></trkpt><trkpt lat="45.0595783" lon="5.76747"><ele>296.0</ele><time>2026-05-01T13:21:19.251Z</time></trkpt><trkpt lat="45.059695" lon="5.7672817"><ele>296.0</ele><time>2026-05-01T13:21:20.251Z</time></trkpt><trkpt lat="45.05982" lon="5.7671167"><ele>296.0</ele><time>2026-05-01T13:21:21.251Z</time></trkpt><trkpt lat="45.059935" lon="5.7669133"><ele>296.0</ele><time>2026-05-01T13:21:22.251Z</time></trkpt><trkpt lat="45.0600533" lon="5.7666883"><ele>296.0</ele><time>2026-05-01T13:21:23.25Z</time></trkpt><trkpt lat="45.0601883" lon="5.7664667"><ele>295.0</ele><time>2026-05-01T13:21:24.251Z</time></trkpt><trkpt lat="45.0603283" lon="5.7662367"><ele>294.0</ele><time>2026-05-01T13:21:25.251Z</time></trkpt><trkpt lat="45.0606433" lon="5.7657883"><ele>291.5</ele><time>2026-05-01T13:21:27.251Z</time></trkpt><trkpt lat="45.0608117" lon="5.7655317"><ele>289.0</ele><time>2026-05-01T13:21:28.251Z</time></trkpt><trkpt lat="45.06098" lon="5.765265"><ele>290.5</ele><time>2026-05-01T13:21:29.251Z</time></trkpt><trkpt lat="45.06115" lon="5.7650117"><ele>292.0</ele><time>2026-05-01T13:21:30.251Z</time></trkpt><trkpt lat="45.06133" lon="5.7647817"><ele>292.0</ele><time>2026-05-01T13:21:31.25Z</time></trkpt><trkpt lat="45.0615083" lon="5.7645517"><ele>292.0</ele><time>2026-05-01T13:21:32.251Z</time></trkpt><trkpt lat="45.0616983" lon="5.764325"><ele>292.5</ele><time>2026-05-01T13:21:33.251Z</time></trkpt><trkpt lat="45.0618917" lon="5.76411"><ele>293.0</ele><time>2026-05-01T13:21:34.251Z</time></trkpt><trkpt lat="45.0620833" lon="5.763895"><ele>293.0</ele><time>2026-05-01T13:21:35.251Z</time></trkpt><trkpt lat="45.0622817" lon="5.7636683"><ele>293.0</ele><time>2026-05-01T13:21:36.251Z</time></trkpt><trkpt lat="45.0624917" lon="5.7634883"><ele>295.0</ele><time>2026-05-01T13:21:37.25Z</time></trkpt><trkpt lat="45.062715" lon="5.7633283"><ele>297.0</ele><time>2026-05-01T13:21:38.251Z</time></trkpt><trkpt lat="45.0629467" lon="5.763155"><ele>297.0</ele><time>2026-05-01T13:21:39.251Z</time></trkpt><trkpt lat="45.0631833" lon="5.76302"><ele>297.0</ele><time>2026-05-01T13:21:40.251Z</time></trkpt><trkpt lat="45.0634283" lon="5.7628933"><ele>296.5</ele><time>2026-05-01T13:21:41.251Z</time></trkpt><trkpt lat="45.0636717" lon="5.76276"><ele>296.0</ele><time>2026-05-01T13:21:42.251Z</time></trkpt><trkpt lat="45.06391" lon="5.76265"><ele>294.0</ele><time>2026-05-01T13:21:43.251Z</time></trkpt><trkpt lat="45.0641583" lon="5.7625483"><ele>292.0</ele><time>2026-05-01T13:21:44.251Z</time></trkpt><trkpt lat="45.06441" lon="5.7624567"><ele>292.0</ele><time>2026-05-01T13:21:45.251Z</time></trkpt><trkpt lat="45.0646617" lon="5.762375"><ele>292.0</ele><time>2026-05-01T13:21:46.251Z</time></trkpt><trkpt lat="45.0652033" lon="5.762245"><ele>291.5</ele><time>2026-05-01T13:21:48.251Z</time></trkpt><trkpt lat="45.0654967" lon="5.76218"><ele>291.0</ele><time>2026-05-01T13:21:49.25Z</time></trkpt><trkpt lat="45.0657883" lon="5.7621583"><ele>290.5</ele><time>2026-05-01T13:21:50.251Z</time></trkpt><trkpt lat="45.0660933" lon="5.762155"><ele>290.0</ele><time>2026-05-01T13:21:51.25Z</time></trkpt><trkpt lat="45.0664133" lon="5.7621383"><ele>288.5</ele><time>2026-05-01T13:21:52.251Z</time></trkpt><trkpt lat="45.06674" lon="5.76214"><ele>287.0</ele><time>2026-05-01T13:21:53.251Z</time></trkpt><trkpt lat="45.0670667" lon="5.7621233"><ele>287.0</ele><time>2026-05-01T13:21:54.251Z</time></trkpt><trkpt lat="45.0673933" lon="5.7621533"><ele>287.0</ele><time>2026-05-01T13:21:55.251Z</time></trkpt><trkpt lat="45.06773" lon="5.76219"><ele>285.5</ele><time>2026-05-01T13:21:56.25Z</time></trkpt><trkpt lat="45.0680483" lon="5.7622217"><ele>284.0</ele><time>2026-05-01T13:21:57.251Z</time></trkpt><trkpt lat="45.068375" lon="5.7622717"><ele>283.5</ele><time>2026-05-01T13:21:58.251Z</time></trkpt><trkpt lat="45.0686933" lon="5.7623467"><ele>283.0</ele><time>2026-05-01T13:21:59.251Z</time></trkpt><trkpt lat="45.069025" lon="5.762425"><ele>283.5</ele><time>2026-05-01T13:22:00.25Z</time></trkpt><trkpt lat="45.0693467" lon="5.76253"><ele>284.0</ele><time>2026-05-01T13:22:01.25Z</time></trkpt><trkpt lat="45.0696667" lon="5.7626717"><ele>285.0</ele><time>2026-05-01T13:22:02.251Z</time></trkpt><trkpt lat="45.0699933" lon="5.7628233"><ele>286.0</ele><time>2026-05-01T13:22:03.251Z</time></trkpt><trkpt lat="45.0703167" lon="5.7629967"><ele>286.0</ele><time>2026-05-01T13:22:04.251Z</time></trkpt><trkpt lat="45.07065" lon="5.7631683"><ele>286.0</ele><time>2026-05-01T13:22:05.25Z</time></trkpt><trkpt lat="45.0709583" lon="5.7633417"><ele>285.0</ele><time>2026-05-01T13:22:06.251Z</time></trkpt><trkpt lat="45.071255" lon="5.763505"><ele>284.0</ele><time>2026-05-01T13:22:07.251Z</time></trkpt><trkpt lat="45.0717767" lon="5.76379"><ele>283.5</ele><time>2026-05-01T13:22:09.251Z</time></trkpt><trkpt lat="45.0720167" lon="5.7639383"><ele>283.0</ele><time>2026-05-01T13:22:10.251Z</time></trkpt><trkpt lat="45.0722467" lon="5.7640817"><ele>282.0</ele><time>2026-05-01T13:22:11.251Z</time></trkpt><trkpt lat="45.0724733" lon="5.7642267"><ele>281.0</ele><time>2026-05-01T13:22:12.251Z</time></trkpt><trkpt lat="45.072715" lon="5.7643733"><ele>281.0</ele><time>2026-05-01T13:22:13.251Z</time></trkpt><trkpt lat="45.07295" lon="5.764515"><ele>281.0</ele><time>2026-05-01T13:22:14.251Z</time></trkpt><trkpt lat="45.07315" lon="5.7646683"><ele>282.5</ele><time>2026-05-01T13:22:15.251Z</time></trkpt><trkpt lat="45.073365" lon="5.7648283"><ele>284.0</ele><time>2026-05-01T13:22:16.251Z</time></trkpt><trkpt lat="45.0736133" lon="5.7650133"><ele>284.0</ele><time>2026-05-01T13:22:17.251Z</time></trkpt><trkpt lat="45.0738267" lon="5.7651883"><ele>284.0</ele><time>2026-05-01T13:22:18.251Z</time></trkpt><trkpt lat="45.07405" lon="5.7653583"><ele>283.0</ele><time>2026-05-01T13:22:19.251Z</time></trkpt><trkpt lat="45.07428" lon="5.7655233"><ele>282.0</ele><time>2026-05-01T13:22:20.25Z</time></trkpt><trkpt lat="45.0745" lon="5.7656883"><ele>282.0</ele><time>2026-05-01T13:22:21.251Z</time></trkpt><trkpt lat="45.0747317" lon="5.7658583"><ele>282.0</ele><time>2026-05-01T13:22:22.251Z</time></trkpt><trkpt lat="45.0749383" lon="5.765945"><ele>282.5</ele><time>2026-05-01T13:22:23.251Z</time></trkpt><trkpt lat="45.0751567" lon="5.7661"><ele>283.0</ele><time>2026-05-01T13:22:24.25Z</time></trkpt><trkpt lat="45.0753883" lon="5.7662333"><ele>283.0</ele><time>2026-05-01T13:22:25.251Z</time></trkpt><trkpt lat="45.07561" lon="5.7663983"><ele>283.0</ele><time>2026-05-01T13:22:26.251Z</time></trkpt><trkpt lat="45.07585" lon="5.766535"><ele>282.5</ele><time>2026-05-01T13:22:27.251Z</time></trkpt><trkpt lat="45.0760817" lon="5.76666"><ele>282.0</ele><time>2026-05-01T13:22:28.25Z</time></trkpt><trkpt lat="45.0765717" lon="5.76683"><ele>281.5</ele><time>2026-05-01T13:22:30.251Z</time></trkpt><trkpt lat="45.0768117" lon="5.7668633"><ele>281.0</ele><time>2026-05-01T13:22:31.25Z</time></trkpt><trkpt lat="45.07707" lon="5.7668633"><ele>281.0</ele><time>2026-05-01T13:22:32.25Z</time></trkpt><trkpt lat="45.0773367" lon="5.766875"><ele>281.0</ele><time>2026-05-01T13:22:33.25Z</time></trkpt><trkpt lat="45.0776033" lon="5.7668533"><ele>281.5</ele><time>2026-05-01T13:22:34.251Z</time></trkpt><trkpt lat="45.0778633" lon="5.7668433"><ele>282.0</ele><time>2026-05-01T13:22:35.251Z</time></trkpt><trkpt lat="45.0781183" lon="5.76685"><ele>281.0</ele><time>2026-05-01T13:22:36.251Z</time></trkpt><trkpt lat="45.0783967" lon="5.7668583"><ele>280.0</ele><time>2026-05-01T13:22:37.25Z</time></trkpt><trkpt lat="45.07867" lon="5.76685"><ele>280.0</ele><time>2026-05-01T13:22:38.251Z</time></trkpt><trkpt lat="45.07895" lon="5.7668367"><ele>280.0</ele><time>2026-05-01T13:22:39.25Z</time></trkpt><trkpt lat="45.079235" lon="5.766815"><ele>279.0</ele><time>2026-05-01T13:22:40.251Z</time></trkpt><trkpt lat="45.0795333" lon="5.766785"><ele>278.0</ele><time>2026-05-01T13:22:41.251Z</time></trkpt><trkpt lat="45.07984" lon="5.7667317"><ele>277.5</ele><time>2026-05-01T13:22:42.25Z</time></trkpt><trkpt lat="45.080145" lon="5.7666333"><ele>277.0</ele><time>2026-05-01T13:22:43.25Z</time></trkpt><trkpt lat="45.0804083" lon="5.766525"><ele>277.0</ele><time>2026-05-01T13:22:44.25Z</time></trkpt><trkpt lat="45.0806783" lon="5.7664083"><ele>277.0</ele><time>2026-05-01T13:22:45.251Z</time></trkpt><trkpt lat="45.0809333" lon="5.7663117"><ele>277.0</ele><time>2026-05-01T13:22:46.251Z</time></trkpt><trkpt lat="45.08117" lon="5.7662217"><ele>277.0</ele><time>2026-05-01T13:22:47.251Z</time></trkpt><trkpt lat="45.0813983" lon="5.7661367"><ele>277.0</ele><time>2026-05-01T13:22:48.251Z</time></trkpt><trkpt lat="45.0815833" lon="5.76607"><ele>277.0</ele><time>2026-05-01T13:22:49.25Z</time></trkpt><trkpt lat="45.081885" lon="5.7659683"><ele>277.6</ele><time>2026-05-01T13:22:51.25Z</time></trkpt><trkpt lat="45.0820067" lon="5.7659467"><ele>278.2</ele><time>2026-05-01T13:22:52.25Z</time></trkpt><trkpt lat="45.0821133" lon="5.7659183"><ele>278.8</ele><time>2026-05-01T13:22:53.25Z</time></trkpt><trkpt lat="45.0822033" lon="5.7659033"><ele>279.4</ele><time>2026-05-01T13:22:54.251Z</time></trkpt><trkpt lat="45.0822733" lon="5.7658883"><ele>280.0</ele><time>2026-05-01T13:22:55.251Z</time></trkpt><trkpt lat="45.0823533" lon="5.7658933"><ele>279.6</ele><time>2026-05-01T13:22:57.251Z</time></trkpt><trkpt lat="45.082435" lon="5.7659417"><ele>279.2</ele><time>2026-05-01T13:23:01.251Z</time></trkpt><trkpt lat="45.0825133" lon="5.7660233"><ele>278.8</ele><time>2026-05-01T13:23:03.25Z</time></trkpt><trkpt lat="45.0826017" lon="5.7660533"><ele>278.4</ele><time>2026-05-01T13:23:05.251Z</time></trkpt><trkpt lat="45.0826783" lon="5.766005"><ele>278.0</ele><time>2026-05-01T13:23:07.251Z</time></trkpt><trkpt lat="45.08272" lon="5.7658533"><ele>278.0</ele><time>2026-05-01T13:23:09.251Z</time></trkpt><trkpt lat="45.0827167" lon="5.765705"><ele>278.0</ele><time>2026-05-01T13:23:10.251Z</time></trkpt><trkpt lat="45.082755" lon="5.7654433"><ele>278.0</ele><time>2026-05-01T13:23:12.251Z</time></trkpt><trkpt lat="45.0827833" lon="5.7653083"><ele>278.0</ele><time>2026-05-01T13:23:13.25Z</time></trkpt><trkpt lat="45.0828167" lon="5.76518"><ele>278.0</ele><time>2026-05-01T13:23:14.251Z</time></trkpt><trkpt lat="45.0828567" lon="5.7650233"><ele>278.0</ele><time>2026-05-01T13:23:15.251Z</time></trkpt><trkpt lat="45.0828967" lon="5.7648433"><ele>278.0</ele><time>2026-05-01T13:23:16.251Z</time></trkpt><trkpt lat="45.08296" lon="5.7646117"><ele>278.0</ele><time>2026-05-01T13:23:17.25Z</time></trkpt><trkpt lat="45.0830117" lon="5.76438"><ele>278.0</ele><time>2026-05-01T13:23:18.251Z</time></trkpt><trkpt lat="45.0830767" lon="5.764145"><ele>278.0</ele><time>2026-05-01T13:23:19.25Z</time></trkpt><trkpt lat="45.0831517" lon="5.7638833"><ele>278.0</ele><time>2026-05-01T13:23:20.251Z</time></trkpt><trkpt lat="45.08321" lon="5.7636167"><ele>277.33333333333337</ele><time>2026-05-01T13:23:21.251Z</time></trkpt><trkpt lat="45.083285" lon="5.7633367"><ele>276.6666666666667</ele><time>2026-05-01T13:23:22.251Z</time></trkpt><trkpt lat="45.0833767" lon="5.7630567"><ele>276.0</ele><time>2026-05-01T13:23:23.251Z</time></trkpt><trkpt lat="45.0834517" lon="5.7627833"><ele>277.0</ele><time>2026-05-01T13:23:24.25Z</time></trkpt><trkpt lat="45.083535" lon="5.7625017"><ele>278.0</ele><time>2026-05-01T13:23:25.25Z</time></trkpt><trkpt lat="45.0836083" lon="5.7622117"><ele>279.0</ele><time>2026-05-01T13:23:26.251Z</time></trkpt><trkpt lat="45.083685" lon="5.7619283"><ele>278.6666666666667</ele><time>2026-05-01T13:23:27.251Z</time></trkpt><trkpt lat="45.08376" lon="5.76165"><ele>278.33333333333337</ele><time>2026-05-01T13:23:28.251Z</time></trkpt><trkpt lat="45.0838217" lon="5.7613717"><ele>278.0</ele><time>2026-05-01T13:23:29.25Z</time></trkpt><trkpt lat="45.0838767" lon="5.761075"><ele>277.5</ele><time>2026-05-01T13:23:30.251Z</time></trkpt><trkpt lat="45.0839417" lon="5.7607783"><ele>277.0</ele><time>2026-05-01T13:23:31.251Z</time></trkpt><trkpt lat="45.0841117" lon="5.760205"><ele>277.0</ele><time>2026-05-01T13:23:33.25Z</time></trkpt><trkpt lat="45.084185" lon="5.7599233"><ele>277.0</ele><time>2026-05-01T13:23:34.251Z</time></trkpt><trkpt lat="45.0842667" lon="5.7596233"><ele>277.0</ele><time>2026-05-01T13:23:35.251Z</time></trkpt><trkpt lat="45.084335" lon="5.75933"><ele>277.0</ele><time>2026-05-01T13:23:36.25Z</time></trkpt><trkpt lat="45.0844033" lon="5.7590233"><ele>277.0</ele><time>2026-05-01T13:23:37.251Z</time></trkpt><trkpt lat="45.08447" lon="5.7587233"><ele>277.0</ele><time>2026-05-01T13:23:38.25Z</time></trkpt><trkpt lat="45.0845383" lon="5.7584367"><ele>276.3333333333333</ele><time>2026-05-01T13:23:39.251Z</time></trkpt><trkpt lat="45.084605" lon="5.7581583"><ele>275.6666666666667</ele><time>2026-05-01T13:23:40.25Z</time></trkpt><trkpt lat="45.08467" lon="5.7578833"><ele>275.0</ele><time>2026-05-01T13:23:41.25Z</time></trkpt><trkpt lat="45.0847167" lon="5.7576333"><ele>274.0</ele><time>2026-05-01T13:23:42.251Z</time></trkpt><trkpt lat="45.0847867" lon="5.757395"><ele>273.0</ele><time>2026-05-01T13:23:43.25Z</time></trkpt><trkpt lat="45.084895" lon="5.757185"><ele>272.0</ele><time>2026-05-01T13:23:44.251Z</time></trkpt><trkpt lat="45.0850067" lon="5.7569817"><ele>274.6666666666667</ele><time>2026-05-01T13:23:45.25Z</time></trkpt><trkpt lat="45.08512" lon="5.7567617"><ele>277.3333333333333</ele><time>2026-05-01T13:23:46.251Z</time></trkpt><trkpt lat="45.0852083" lon="5.7565333"><ele>280.0</ele><time>2026-05-01T13:23:47.251Z</time></trkpt><trkpt lat="45.0852783" lon="5.756275"><ele>279.66666666666663</ele><time>2026-05-01T13:23:48.251Z</time></trkpt><trkpt lat="45.0853217" lon="5.756015"><ele>279.3333333333333</ele><time>2026-05-01T13:23:49.251Z</time></trkpt><trkpt lat="45.0853333" lon="5.7557383"><ele>279.0</ele><time>2026-05-01T13:23:50.25Z</time></trkpt><trkpt lat="45.085295" lon="5.7554333"><ele>278.5</ele><time>2026-05-01T13:23:51.251Z</time></trkpt><trkpt lat="45.0852633" lon="5.7551433"><ele>278.0</ele><time>2026-05-01T13:23:52.251Z</time></trkpt><trkpt lat="45.0851433" lon="5.7545617"><ele>279.33333333333337</ele><time>2026-05-01T13:23:54.251Z</time></trkpt><trkpt lat="45.0850883" lon="5.75427"><ele>280.6666666666667</ele><time>2026-05-01T13:23:55.251Z</time></trkpt><trkpt lat="45.0850367" lon="5.7539667"><ele>282.0</ele><time>2026-05-01T13:23:56.25Z</time></trkpt><trkpt lat="45.0849867" lon="5.753675"><ele>281.0</ele><time>2026-05-01T13:23:57.251Z</time></trkpt><trkpt lat="45.0849267" lon="5.753385"><ele>280.0</ele><time>2026-05-01T13:23:58.25Z</time></trkpt><trkpt lat="45.0848717" lon="5.753125"><ele>279.0</ele><time>2026-05-01T13:23:59.25Z</time></trkpt><trkpt lat="45.0847983" lon="5.75288"><ele>278.0</ele><time>2026-05-01T13:24:00.251Z</time></trkpt><trkpt lat="45.0847567" lon="5.752645"><ele>277.0</ele><time>2026-05-01T13:24:01.251Z</time></trkpt><trkpt lat="45.084715" lon="5.7524217"><ele>276.0</ele><time>2026-05-01T13:24:02.25Z</time></trkpt><trkpt lat="45.08467" lon="5.7521817"><ele>276.0</ele><time>2026-05-01T13:24:03.251Z</time></trkpt><trkpt lat="45.084625" lon="5.7519417"><ele>276.0</ele><time>2026-05-01T13:24:04.25Z</time></trkpt><trkpt lat="45.0845867" lon="5.7517083"><ele>276.0</ele><time>2026-05-01T13:24:05.251Z</time></trkpt><trkpt lat="45.0845433" lon="5.7514583"><ele>276.0</ele><time>2026-05-01T13:24:06.251Z</time></trkpt><trkpt lat="45.0845" lon="5.7512117"><ele>276.0</ele><time>2026-05-01T13:24:07.251Z</time></trkpt><trkpt lat="45.084445" lon="5.7509717"><ele>276.0</ele><time>2026-05-01T13:24:08.251Z</time></trkpt><trkpt lat="45.0843833" lon="5.75071"><ele>277.0</ele><time>2026-05-01T13:24:09.251Z</time></trkpt><trkpt lat="45.0843183" lon="5.7504533"><ele>278.0</ele><time>2026-05-01T13:24:10.25Z</time></trkpt><trkpt lat="45.08424" lon="5.7501967"><ele>279.0</ele><time>2026-05-01T13:24:11.251Z</time></trkpt><trkpt lat="45.084165" lon="5.749945"><ele>281.5</ele><time>2026-05-01T13:24:12.25Z</time></trkpt><trkpt lat="45.0840983" lon="5.74973"><ele>284.0</ele><time>2026-05-01T13:24:13.251Z</time></trkpt><trkpt lat="45.0839817" lon="5.749275"><ele>287.33333333333337</ele><time>2026-05-01T13:24:15.25Z</time></trkpt><trkpt lat="45.08393" lon="5.7490367"><ele>290.6666666666667</ele><time>2026-05-01T13:24:16.251Z</time></trkpt><trkpt lat="45.0838783" lon="5.748815"><ele>294.0</ele><time>2026-05-01T13:24:17.251Z</time></trkpt><trkpt lat="45.0838333" lon="5.7485983"><ele>289.6666666666667</ele><time>2026-05-01T13:24:18.25Z</time></trkpt><trkpt lat="45.083785" lon="5.7483767"><ele>285.33333333333337</ele><time>2026-05-01T13:24:19.251Z</time></trkpt><trkpt lat="45.0837433" lon="5.748155"><ele>281.0</ele><time>2026-05-01T13:24:20.251Z</time></trkpt><trkpt lat="45.083705" lon="5.7479267"><ele>280.0</ele><time>2026-05-01T13:24:21.251Z</time></trkpt><trkpt lat="45.0836583" lon="5.747705"><ele>279.0</ele><time>2026-05-01T13:24:22.251Z</time></trkpt><trkpt lat="45.0836267" lon="5.7474783"><ele>278.0</ele><time>2026-05-01T13:24:23.251Z</time></trkpt><trkpt lat="45.083595" lon="5.7472633"><ele>278.0</ele><time>2026-05-01T13:24:24.251Z</time></trkpt><trkpt lat="45.0835383" lon="5.7470583"><ele>278.0</ele><time>2026-05-01T13:24:25.25Z</time></trkpt><trkpt lat="45.0834917" lon="5.74687"><ele>278.0</ele><time>2026-05-01T13:24:26.251Z</time></trkpt><trkpt lat="45.0834517" lon="5.7466933"><ele>278.0</ele><time>2026-05-01T13:24:27.251Z</time></trkpt><trkpt lat="45.0834" lon="5.74649"><ele>279.0</ele><time>2026-05-01T13:24:28.25Z</time></trkpt><trkpt lat="45.0833217" lon="5.7462933"><ele>280.0</ele><time>2026-05-01T13:24:29.251Z</time></trkpt><trkpt lat="45.0832567" lon="5.7460967"><ele>281.0</ele><time>2026-05-01T13:24:30.25Z</time></trkpt><trkpt lat="45.0832017" lon="5.7458967"><ele>285.6666666666667</ele><time>2026-05-01T13:24:31.251Z</time></trkpt><trkpt lat="45.0831283" lon="5.7456983"><ele>290.3333333333333</ele><time>2026-05-01T13:24:32.251Z</time></trkpt><trkpt lat="45.0830417" lon="5.7455083"><ele>295.0</ele><time>2026-05-01T13:24:33.251Z</time></trkpt><trkpt lat="45.0829533" lon="5.7453117"><ele>291.0</ele><time>2026-05-01T13:24:34.251Z</time></trkpt><trkpt lat="45.0827617" lon="5.7449367"><ele>287.0</ele><time>2026-05-01T13:24:36.251Z</time></trkpt><trkpt lat="45.0826733" lon="5.7447433"><ele>287.0</ele><time>2026-05-01T13:24:37.251Z</time></trkpt><trkpt lat="45.0826117" lon="5.7445583"><ele>287.0</ele><time>2026-05-01T13:24:38.251Z</time></trkpt><trkpt lat="45.0825333" lon="5.7443533"><ele>287.0</ele><time>2026-05-01T13:24:39.251Z</time></trkpt><trkpt lat="45.0824617" lon="5.74414"><ele>293.33333333333337</ele><time>2026-05-01T13:24:40.251Z</time></trkpt><trkpt lat="45.0824017" lon="5.7439217"><ele>299.6666666666667</ele><time>2026-05-01T13:24:41.251Z</time></trkpt><trkpt lat="45.0823367" lon="5.74368"><ele>306.0</ele><time>2026-05-01T13:24:42.251Z</time></trkpt><trkpt lat="45.082265" lon="5.743415"><ele>306.0</ele><time>2026-05-01T13:24:43.25Z</time></trkpt><trkpt lat="45.0822117" lon="5.7431717"><ele>306.0</ele><time>2026-05-01T13:24:44.251Z</time></trkpt><trkpt lat="45.0821883" lon="5.7429217"><ele>306.0</ele><time>2026-05-01T13:24:45.251Z</time></trkpt><trkpt lat="45.0821667" lon="5.742685"><ele>301.0</ele><time>2026-05-01T13:24:46.251Z</time></trkpt><trkpt lat="45.0821567" lon="5.7424667"><ele>296.0</ele><time>2026-05-01T13:24:47.251Z</time></trkpt><trkpt lat="45.0821617" lon="5.742225"><ele>291.0</ele><time>2026-05-01T13:24:48.251Z</time></trkpt><trkpt lat="45.08217" lon="5.7419717"><ele>288.3333333333333</ele><time>2026-05-01T13:24:49.25Z</time></trkpt><trkpt lat="45.082195" lon="5.7417233"><ele>285.66666666666663</ele><time>2026-05-01T13:24:50.251Z</time></trkpt><trkpt lat="45.082235" lon="5.7414783"><ele>283.0</ele><time>2026-05-01T13:24:51.25Z</time></trkpt><trkpt lat="45.0822867" lon="5.7412333"><ele>280.66666666666663</ele><time>2026-05-01T13:24:52.25Z</time></trkpt><trkpt lat="45.0823617" lon="5.741"><ele>278.3333333333333</ele><time>2026-05-01T13:24:53.25Z</time></trkpt><trkpt lat="45.0824467" lon="5.74078"><ele>276.0</ele><time>2026-05-01T13:24:54.25Z</time></trkpt><trkpt lat="45.082545" lon="5.740575"><ele>273.0</ele><time>2026-05-01T13:24:55.251Z</time></trkpt><trkpt lat="45.082785" lon="5.7401483"><ele>270.0</ele><time>2026-05-01T13:24:57.251Z</time></trkpt><trkpt lat="45.082915" lon="5.739965"><ele>270.0</ele><time>2026-05-01T13:24:58.251Z</time></trkpt><trkpt lat="45.08307" lon="5.73978"><ele>270.0</ele><time>2026-05-01T13:24:59.251Z</time></trkpt><trkpt lat="45.0832267" lon="5.7396167"><ele>270.0</ele><time>2026-05-01T13:25:00.251Z</time></trkpt><trkpt lat="45.0833967" lon="5.73946"><ele>269.6666666666667</ele><time>2026-05-01T13:25:01.251Z</time></trkpt><trkpt lat="45.083575" lon="5.7393167"><ele>269.33333333333337</ele><time>2026-05-01T13:25:02.251Z</time></trkpt><trkpt lat="45.083755" lon="5.73919"><ele>269.0</ele><time>2026-05-01T13:25:03.251Z</time></trkpt><trkpt lat="45.0839233" lon="5.7390783"><ele>269.0</ele><time>2026-05-01T13:25:04.251Z</time></trkpt><trkpt lat="45.0840933" lon="5.7389683"><ele>269.0</ele><time>2026-05-01T13:25:05.251Z</time></trkpt><trkpt lat="45.0842583" lon="5.7388533"><ele>269.0</ele><time>2026-05-01T13:25:06.251Z</time></trkpt><trkpt lat="45.084415" lon="5.738725"><ele>269.0</ele><time>2026-05-01T13:25:07.251Z</time></trkpt><trkpt lat="45.0845567" lon="5.7386367"><ele>269.0</ele><time>2026-05-01T13:25:08.25Z</time></trkpt><trkpt lat="45.0847033" lon="5.7385433"><ele>269.0</ele><time>2026-05-01T13:25:09.251Z</time></trkpt><trkpt lat="45.0848433" lon="5.73844"><ele>268.33333333333337</ele><time>2026-05-01T13:25:10.25Z</time></trkpt><trkpt lat="45.0850017" lon="5.738275"><ele>267.6666666666667</ele><time>2026-05-01T13:25:11.251Z</time></trkpt><trkpt lat="45.085165" lon="5.7380933"><ele>267.0</ele><time>2026-05-01T13:25:12.251Z</time></trkpt><trkpt lat="45.0853333" lon="5.7378933"><ele>267.0</ele><time>2026-05-01T13:25:13.25Z</time></trkpt><trkpt lat="45.0855" lon="5.73766"><ele>267.0</ele><time>2026-05-01T13:25:14.25Z</time></trkpt><trkpt lat="45.0856633" lon="5.7373917"><ele>267.5</ele><time>2026-05-01T13:25:15.25Z</time></trkpt><trkpt lat="45.085805" lon="5.737165"><ele>268.0</ele><time>2026-05-01T13:25:16.251Z</time></trkpt><trkpt lat="45.08604" lon="5.7367"><ele>267.66666666666663</ele><time>2026-05-01T13:25:18.251Z</time></trkpt><trkpt lat="45.0861567" lon="5.736435"><ele>267.3333333333333</ele><time>2026-05-01T13:25:19.251Z</time></trkpt><trkpt lat="45.0862683" lon="5.7361633"><ele>267.0</ele><time>2026-05-01T13:25:20.251Z</time></trkpt><trkpt lat="45.08638" lon="5.735915"><ele>267.0</ele><time>2026-05-01T13:25:21.25Z</time></trkpt><trkpt lat="45.086495" lon="5.735665"><ele>267.0</ele><time>2026-05-01T13:25:22.25Z</time></trkpt><trkpt lat="45.08661" lon="5.73539"><ele>267.0</ele><time>2026-05-01T13:25:23.25Z</time></trkpt><trkpt lat="45.0867167" lon="5.7351017"><ele>266.6666666666667</ele><time>2026-05-01T13:25:24.251Z</time></trkpt><trkpt lat="45.0868217" lon="5.7348267"><ele>266.33333333333337</ele><time>2026-05-01T13:25:25.25Z</time></trkpt><trkpt lat="45.0869383" lon="5.7345617"><ele>266.0</ele><time>2026-05-01T13:25:26.251Z</time></trkpt><trkpt lat="45.0870417" lon="5.73429"><ele>265.33333333333337</ele><time>2026-05-01T13:25:27.251Z</time></trkpt><trkpt lat="45.0871433" lon="5.7340067"><ele>264.6666666666667</ele><time>2026-05-01T13:25:28.251Z</time></trkpt><trkpt lat="45.08724" lon="5.7337433"><ele>264.0</ele><time>2026-05-01T13:25:29.251Z</time></trkpt><trkpt lat="45.0873517" lon="5.7334733"><ele>264.5</ele><time>2026-05-01T13:25:30.251Z</time></trkpt><trkpt lat="45.0874617" lon="5.73317"><ele>265.0</ele><time>2026-05-01T13:25:31.251Z</time></trkpt><trkpt lat="45.08758" lon="5.73284"><ele>264.5</ele><time>2026-05-01T13:25:32.25Z</time></trkpt><trkpt lat="45.0877133" lon="5.732505"><ele>264.0</ele><time>2026-05-01T13:25:33.25Z</time></trkpt><trkpt lat="45.0878717" lon="5.732175"><ele>265.0</ele><time>2026-05-01T13:25:34.251Z</time></trkpt><trkpt lat="45.088025" lon="5.73186"><ele>266.0</ele><time>2026-05-01T13:25:35.25Z</time></trkpt><trkpt lat="45.0881633" lon="5.7315533"><ele>264.0</ele><time>2026-05-01T13:25:36.251Z</time></trkpt><trkpt lat="45.0883017" lon="5.7312383"><ele>262.0</ele><time>2026-05-01T13:25:37.251Z</time></trkpt><trkpt lat="45.0885617" lon="5.730555"><ele>262.0</ele><time>2026-05-01T13:25:39.25Z</time></trkpt><trkpt lat="45.0886767" lon="5.730225"><ele>262.0</ele><time>2026-05-01T13:25:40.251Z</time></trkpt><trkpt lat="45.0887983" lon="5.729895"><ele>262.5</ele><time>2026-05-01T13:25:41.25Z</time></trkpt><trkpt lat="45.0889267" lon="5.7295467"><ele>263.0</ele><time>2026-05-01T13:25:42.25Z</time></trkpt><trkpt lat="45.0890567" lon="5.7292083"><ele>261.5</ele><time>2026-05-01T13:25:43.251Z</time></trkpt><trkpt lat="45.089205" lon="5.7288817"><ele>260.0</ele><time>2026-05-01T13:25:44.251Z</time></trkpt><trkpt lat="45.0893683" lon="5.728565"><ele>260.5</ele><time>2026-05-01T13:25:45.251Z</time></trkpt><trkpt lat="45.0895133" lon="5.7282233"><ele>261.0</ele><time>2026-05-01T13:25:46.251Z</time></trkpt><trkpt lat="45.0896533" lon="5.72788"><ele>262.5</ele><time>2026-05-01T13:25:47.251Z</time></trkpt><trkpt lat="45.0898" lon="5.7275617"><ele>264.0</ele><time>2026-05-01T13:25:48.251Z</time></trkpt><trkpt lat="45.0899233" lon="5.7272433"><ele>264.5</ele><time>2026-05-01T13:25:49.251Z</time></trkpt><trkpt lat="45.0900567" lon="5.7269467"><ele>265.0</ele><time>2026-05-01T13:25:50.251Z</time></trkpt><trkpt lat="45.0901683" lon="5.72665"><ele>265.5</ele><time>2026-05-01T13:25:51.251Z</time></trkpt><trkpt lat="45.0903" lon="5.7263783"><ele>266.0</ele><time>2026-05-01T13:25:52.251Z</time></trkpt><trkpt lat="45.0904383" lon="5.726085"><ele>265.5</ele><time>2026-05-01T13:25:53.25Z</time></trkpt><trkpt lat="45.0905667" lon="5.7257967"><ele>265.0</ele><time>2026-05-01T13:25:54.251Z</time></trkpt><trkpt lat="45.090695" lon="5.7255183"><ele>265.66666666666663</ele><time>2026-05-01T13:25:55.251Z</time></trkpt><trkpt lat="45.09082" lon="5.7252483"><ele>266.3333333333333</ele><time>2026-05-01T13:25:56.251Z</time></trkpt><trkpt lat="45.090945" lon="5.7250033"><ele>267.0</ele><time>2026-05-01T13:25:57.251Z</time></trkpt><trkpt lat="45.0910733" lon="5.7247633"><ele>267.0</ele><time>2026-05-01T13:25:58.251Z</time></trkpt><trkpt lat="45.0913367" lon="5.7242767"><ele>267.0</ele><time>2026-05-01T13:26:00.251Z</time></trkpt><trkpt lat="45.09148" lon="5.7240483"><ele>270.3333333333333</ele><time>2026-05-01T13:26:01.251Z</time></trkpt><trkpt lat="45.091635" lon="5.7238633"><ele>273.66666666666663</ele><time>2026-05-01T13:26:02.251Z</time></trkpt><trkpt lat="45.0918" lon="5.7237083"><ele>277.0</ele><time>2026-05-01T13:26:03.25Z</time></trkpt><trkpt lat="45.0919667" lon="5.7236"><ele>273.66666666666663</ele><time>2026-05-01T13:26:04.251Z</time></trkpt><trkpt lat="45.0921267" lon="5.723455"><ele>270.3333333333333</ele><time>2026-05-01T13:26:05.251Z</time></trkpt><trkpt lat="45.0922867" lon="5.72334"><ele>267.0</ele><time>2026-05-01T13:26:06.25Z</time></trkpt><trkpt lat="45.0924317" lon="5.723195"><ele>267.0</ele><time>2026-05-01T13:26:07.251Z</time></trkpt><trkpt lat="45.0925883" lon="5.72306"><ele>267.0</ele><time>2026-05-01T13:26:08.251Z</time></trkpt><trkpt lat="45.0927617" lon="5.7229683"><ele>267.0</ele><time>2026-05-01T13:26:09.251Z</time></trkpt><trkpt lat="45.0929367" lon="5.7228217"><ele>265.6666666666667</ele><time>2026-05-01T13:26:10.251Z</time></trkpt><trkpt lat="45.09312" lon="5.722675"><ele>264.33333333333337</ele><time>2026-05-01T13:26:11.251Z</time></trkpt><trkpt lat="45.0932933" lon="5.7225133"><ele>263.0</ele><time>2026-05-01T13:26:12.25Z</time></trkpt><trkpt lat="45.0934883" lon="5.7223517"><ele>263.0</ele><time>2026-05-01T13:26:13.251Z</time></trkpt><trkpt lat="45.0936617" lon="5.7221483"><ele>263.0</ele><time>2026-05-01T13:26:14.251Z</time></trkpt><trkpt lat="45.09387" lon="5.7219833"><ele>262.0</ele><time>2026-05-01T13:26:15.251Z</time></trkpt><trkpt lat="45.09408" lon="5.72182"><ele>261.0</ele><time>2026-05-01T13:26:16.251Z</time></trkpt><trkpt lat="45.0942917" lon="5.7216517"><ele>261.0</ele><time>2026-05-01T13:26:17.251Z</time></trkpt><trkpt lat="45.09449" lon="5.7214967"><ele>261.0</ele><time>2026-05-01T13:26:18.251Z</time></trkpt><trkpt lat="45.0946833" lon="5.7213383"><ele>261.0</ele><time>2026-05-01T13:26:19.25Z</time></trkpt><trkpt lat="45.09505" lon="5.721055"><ele>261.0</ele><time>2026-05-01T13:26:21.251Z</time></trkpt><trkpt lat="45.0952283" lon="5.7209083"><ele>261.0</ele><time>2026-05-01T13:26:22.251Z</time></trkpt><trkpt lat="45.0954033" lon="5.72076"><ele>261.0</ele><time>2026-05-01T13:26:23.251Z</time></trkpt><trkpt lat="45.09559" lon="5.720615"><ele>261.0</ele><time>2026-05-01T13:26:24.251Z</time></trkpt><trkpt lat="45.09578" lon="5.72047"><ele>260.3333333333333</ele><time>2026-05-01T13:26:25.251Z</time></trkpt><trkpt lat="45.0959717" lon="5.7203083"><ele>259.66666666666663</ele><time>2026-05-01T13:26:26.251Z</time></trkpt><trkpt lat="45.0961633" lon="5.720145"><ele>259.0</ele><time>2026-05-01T13:26:27.251Z</time></trkpt><trkpt lat="45.0963617" lon="5.7199783"><ele>258.5</ele><time>2026-05-01T13:26:28.251Z</time></trkpt><trkpt lat="45.096555" lon="5.71982"><ele>258.0</ele><time>2026-05-01T13:26:29.251Z</time></trkpt><trkpt lat="45.09675" lon="5.719655"><ele>258.0</ele><time>2026-05-01T13:26:30.251Z</time></trkpt><trkpt lat="45.0969483" lon="5.7194883"><ele>258.0</ele><time>2026-05-01T13:26:31.251Z</time></trkpt><trkpt lat="45.0971467" lon="5.7193317"><ele>258.0</ele><time>2026-05-01T13:26:32.25Z</time></trkpt><trkpt lat="45.0973517" lon="5.7191717"><ele>258.0</ele><time>2026-05-01T13:26:33.25Z</time></trkpt><trkpt lat="45.097545" lon="5.7190183"><ele>258.0</ele><time>2026-05-01T13:26:34.25Z</time></trkpt><trkpt lat="45.0977467" lon="5.7188717"><ele>258.0</ele><time>2026-05-01T13:26:35.25Z</time></trkpt><trkpt lat="45.0979333" lon="5.71872"><ele>258.0</ele><time>2026-05-01T13:26:36.251Z</time></trkpt><trkpt lat="45.09813" lon="5.7185567"><ele>257.5</ele><time>2026-05-01T13:26:37.251Z</time></trkpt><trkpt lat="45.0983333" lon="5.7183983"><ele>257.0</ele><time>2026-05-01T13:26:38.25Z</time></trkpt><trkpt lat="45.0985367" lon="5.71824"><ele>257.0</ele><time>2026-05-01T13:26:39.251Z</time></trkpt><trkpt lat="45.09873" lon="5.7180933"><ele>257.0</ele><time>2026-05-01T13:26:40.251Z</time></trkpt><trkpt lat="45.0990883" lon="5.717805"><ele>256.33333333333337</ele><time>2026-05-01T13:26:42.251Z</time></trkpt><trkpt lat="45.0992633" lon="5.7176583"><ele>255.66666666666669</ele><time>2026-05-01T13:26:43.251Z</time></trkpt><trkpt lat="45.0994533" lon="5.7174867"><ele>255.0</ele><time>2026-05-01T13:26:44.25Z</time></trkpt><trkpt lat="45.09965" lon="5.71732"><ele>255.0</ele><time>2026-05-01T13:26:45.25Z</time></trkpt><trkpt lat="45.0998533" lon="5.717145"><ele>255.0</ele><time>2026-05-01T13:26:46.251Z</time></trkpt><trkpt lat="45.1000617" lon="5.7169633"><ele>255.5</ele><time>2026-05-01T13:26:47.25Z</time></trkpt><trkpt lat="45.10026" lon="5.7167867"><ele>256.0</ele><time>2026-05-01T13:26:48.251Z</time></trkpt><trkpt lat="45.10045" lon="5.7165883"><ele>256.0</ele><time>2026-05-01T13:26:49.251Z</time></trkpt><trkpt lat="45.1006383" lon="5.7164033"><ele>256.0</ele><time>2026-05-01T13:26:50.251Z</time></trkpt><trkpt lat="45.1007983" lon="5.7162117"><ele>256.0</ele><time>2026-05-01T13:26:51.251Z</time></trkpt><trkpt lat="45.1009533" lon="5.7160217"><ele>256.0</ele><time>2026-05-01T13:26:52.251Z</time></trkpt><trkpt lat="45.1010983" lon="5.7158417"><ele>256.0</ele><time>2026-05-01T13:26:53.251Z</time></trkpt><trkpt lat="45.1012567" lon="5.7156917"><ele>256.0</ele><time>2026-05-01T13:26:54.251Z</time></trkpt><trkpt lat="45.1014083" lon="5.7156117"><ele>256.0</ele><time>2026-05-01T13:26:55.25Z</time></trkpt><trkpt lat="45.101575" lon="5.715495"><ele>256.0</ele><time>2026-05-01T13:26:56.251Z</time></trkpt><trkpt lat="45.101735" lon="5.7154033"><ele>256.0</ele><time>2026-05-01T13:26:57.251Z</time></trkpt><trkpt lat="45.1018817" lon="5.715305"><ele>255.75</ele><time>2026-05-01T13:26:58.251Z</time></trkpt><trkpt lat="45.1020117" lon="5.7151817"><ele>255.5</ele><time>2026-05-01T13:26:59.251Z</time></trkpt><trkpt lat="45.1021283" lon="5.7150583"><ele>255.25</ele><time>2026-05-01T13:27:00.251Z</time></trkpt><trkpt lat="45.1022217" lon="5.7149217"><ele>255.0</ele><time>2026-05-01T13:27:01.251Z</time></trkpt><trkpt lat="45.1024067" lon="5.7146483"><ele>255.0</ele><time>2026-05-01T13:27:03.251Z</time></trkpt><trkpt lat="45.1024767" lon="5.714505"><ele>255.0</ele><time>2026-05-01T13:27:04.251Z</time></trkpt><trkpt lat="45.1025417" lon="5.714355"><ele>255.0</ele><time>2026-05-01T13:27:05.251Z</time></trkpt><trkpt lat="45.1025917" lon="5.7142033"><ele>255.0</ele><time>2026-05-01T13:27:06.251Z</time></trkpt><trkpt lat="45.102645" lon="5.7140933"><ele>255.0</ele><time>2026-05-01T13:27:07.251Z</time></trkpt><trkpt lat="45.1027067" lon="5.7140167"><ele>255.0</ele><time>2026-05-01T13:27:08.251Z</time></trkpt><trkpt lat="45.1027683" lon="5.71395"><ele>255.0</ele><time>2026-05-01T13:27:09.251Z</time></trkpt><trkpt lat="45.102835" lon="5.7138817"><ele>255.0</ele><time>2026-05-01T13:27:10.251Z</time></trkpt><trkpt lat="45.1028983" lon="5.7138033"><ele>255.0</ele><time>2026-05-01T13:27:11.25Z</time></trkpt><trkpt lat="45.102945" lon="5.713695"><ele>255.0</ele><time>2026-05-01T13:27:12.251Z</time></trkpt><trkpt lat="45.1029667" lon="5.7135717"><ele>254.75</ele><time>2026-05-01T13:27:13.251Z</time></trkpt><trkpt lat="45.102955" lon="5.71343"><ele>254.5</ele><time>2026-05-01T13:27:14.251Z</time></trkpt><trkpt lat="45.10294" lon="5.7132817"><ele>254.25</ele><time>2026-05-01T13:27:15.25Z</time></trkpt><trkpt lat="45.102905" lon="5.7131033"><ele>254.0</ele><time>2026-05-01T13:27:16.25Z</time></trkpt><trkpt lat="45.10287" lon="5.7128967"><ele>254.33333333333334</ele><time>2026-05-01T13:27:17.251Z</time></trkpt><trkpt lat="45.102855" lon="5.7126833"><ele>254.66666666666669</ele><time>2026-05-01T13:27:18.251Z</time></trkpt><trkpt lat="45.1028833" lon="5.7124483"><ele>255.0</ele><time>2026-05-01T13:27:19.251Z</time></trkpt><trkpt lat="45.1028967" lon="5.712205"><ele>255.0</ele><time>2026-05-01T13:27:20.251Z</time></trkpt><trkpt lat="45.1029333" lon="5.7119533"><ele>255.0</ele><time>2026-05-01T13:27:21.251Z</time></trkpt><trkpt lat="45.102985" lon="5.7116817"><ele>255.0</ele><time>2026-05-01T13:27:22.251Z</time></trkpt><trkpt lat="45.1031183" lon="5.7111183"><ele>254.66666666666669</ele><time>2026-05-01T13:27:24.25Z</time></trkpt><trkpt lat="45.1031767" lon="5.71082"><ele>254.33333333333334</ele><time>2026-05-01T13:27:25.251Z</time></trkpt><trkpt lat="45.1031967" lon="5.7105317"><ele>254.0</ele><time>2026-05-01T13:27:26.25Z</time></trkpt><trkpt lat="45.1032117" lon="5.7102283"><ele>253.66666666666669</ele><time>2026-05-01T13:27:27.251Z</time></trkpt><trkpt lat="45.10321" lon="5.7099433"><ele>253.33333333333331</ele><time>2026-05-01T13:27:28.251Z</time></trkpt><trkpt lat="45.1032117" lon="5.70966"><ele>253.0</ele><time>2026-05-01T13:27:29.251Z</time></trkpt><trkpt lat="45.1032317" lon="5.70939"><ele>253.33333333333331</ele><time>2026-05-01T13:27:30.251Z</time></trkpt><trkpt lat="45.1032383" lon="5.7091167"><ele>253.66666666666669</ele><time>2026-05-01T13:27:31.25Z</time></trkpt><trkpt lat="45.103255" lon="5.7088583"><ele>254.0</ele><time>2026-05-01T13:27:32.251Z</time></trkpt><trkpt lat="45.1033067" lon="5.708585"><ele>253.66666666666669</ele><time>2026-05-01T13:27:33.251Z</time></trkpt><trkpt lat="45.1033617" lon="5.708325"><ele>253.33333333333331</ele><time>2026-05-01T13:27:34.25Z</time></trkpt><trkpt lat="45.1034133" lon="5.70804"><ele>253.0</ele><time>2026-05-01T13:27:35.25Z</time></trkpt><trkpt lat="45.1034883" lon="5.707755"><ele>253.33333333333331</ele><time>2026-05-01T13:27:36.251Z</time></trkpt><trkpt lat="45.1035567" lon="5.7074933"><ele>253.66666666666669</ele><time>2026-05-01T13:27:37.251Z</time></trkpt><trkpt lat="45.10366" lon="5.70722"><ele>254.0</ele><time>2026-05-01T13:27:38.251Z</time></trkpt><trkpt lat="45.1037583" lon="5.7069567"><ele>253.33333333333334</ele><time>2026-05-01T13:27:39.249Z</time></trkpt><trkpt lat="45.103875" lon="5.7067"><ele>252.66666666666669</ele><time>2026-05-01T13:27:40.25Z</time></trkpt><trkpt lat="45.1039983" lon="5.706445"><ele>252.0</ele><time>2026-05-01T13:27:41.25Z</time></trkpt><trkpt lat="45.1041433" lon="5.7061733"><ele>252.5</ele><time>2026-05-01T13:27:42.249Z</time></trkpt><trkpt lat="45.1043017" lon="5.705905"><ele>253.0</ele><time>2026-05-01T13:27:43.25Z</time></trkpt><trkpt lat="45.1046017" lon="5.705465"><ele>253.0</ele><time>2026-05-01T13:27:45.25Z</time></trkpt><trkpt lat="45.104735" lon="5.7052767"><ele>253.0</ele><time>2026-05-01T13:27:46.25Z</time></trkpt><trkpt lat="45.10488" lon="5.7050933"><ele>253.0</ele><time>2026-05-01T13:27:47.249Z</time></trkpt><trkpt lat="45.1050233" lon="5.704885"><ele>253.0</ele><time>2026-05-01T13:27:48.25Z</time></trkpt><trkpt lat="45.1051733" lon="5.704675"><ele>253.0</ele><time>2026-05-01T13:27:49.249Z</time></trkpt><trkpt lat="45.10533" lon="5.70445"><ele>253.0</ele><time>2026-05-01T13:27:50.249Z</time></trkpt><trkpt lat="45.105495" lon="5.7042233"><ele>252.0</ele><time>2026-05-01T13:27:51.25Z</time></trkpt><trkpt lat="45.1056583" lon="5.70398"><ele>251.0</ele><time>2026-05-01T13:27:52.25Z</time></trkpt><trkpt lat="45.1058167" lon="5.703745"><ele>248.5</ele><time>2026-05-01T13:27:53.25Z</time></trkpt><trkpt lat="45.1059833" lon="5.70351"><ele>246.0</ele><time>2026-05-01T13:27:54.25Z</time></trkpt><trkpt lat="45.1061567" lon="5.7032783"><ele>246.0</ele><time>2026-05-01T13:27:55.25Z</time></trkpt><trkpt lat="45.10633" lon="5.7030417"><ele>246.0</ele><time>2026-05-01T13:27:56.25Z</time></trkpt><trkpt lat="45.10651" lon="5.7028083"><ele>248.0</ele><time>2026-05-01T13:27:57.249Z</time></trkpt><trkpt lat="45.1066867" lon="5.7025717"><ele>250.0</ele><time>2026-05-01T13:27:58.249Z</time></trkpt><trkpt lat="45.1068517" lon="5.7023367"><ele>250.0</ele><time>2026-05-01T13:27:59.25Z</time></trkpt><trkpt lat="45.1069883" lon="5.70213"><ele>250.0</ele><time>2026-05-01T13:28:00.249Z</time></trkpt><trkpt lat="45.1071183" lon="5.70194"><ele>250.0</ele><time>2026-05-01T13:28:01.25Z</time></trkpt><trkpt lat="45.1072433" lon="5.7017483"><ele>250.0</ele><time>2026-05-01T13:28:02.249Z</time></trkpt><trkpt lat="45.1073667" lon="5.70155"><ele>250.0</ele><time>2026-05-01T13:28:03.249Z</time></trkpt><trkpt lat="45.1074967" lon="5.7013483"><ele>250.0</ele><time>2026-05-01T13:28:04.25Z</time></trkpt><trkpt lat="45.1077767" lon="5.7009667"><ele>249.33333333333331</ele><time>2026-05-01T13:28:06.25Z</time></trkpt><trkpt lat="45.1079267" lon="5.7007617"><ele>248.66666666666669</ele><time>2026-05-01T13:28:07.25Z</time></trkpt><trkpt lat="45.1080783" lon="5.700545"><ele>248.0</ele><time>2026-05-01T13:28:08.25Z</time></trkpt><trkpt lat="45.1082317" lon="5.700335"><ele>247.5</ele><time>2026-05-01T13:28:09.25Z</time></trkpt><trkpt lat="45.108415" lon="5.7001367"><ele>247.0</ele><time>2026-05-01T13:28:10.249Z</time></trkpt><trkpt lat="45.1086033" lon="5.69995"><ele>247.0</ele><time>2026-05-01T13:28:11.25Z</time></trkpt><trkpt lat="45.108805" lon="5.6997917"><ele>247.0</ele><time>2026-05-01T13:28:12.249Z</time></trkpt><trkpt lat="45.109025" lon="5.6996483"><ele>246.5</ele><time>2026-05-01T13:28:13.25Z</time></trkpt><trkpt lat="45.10925" lon="5.6995283"><ele>246.0</ele><time>2026-05-01T13:28:14.249Z</time></trkpt><trkpt lat="45.1094733" lon="5.6994217"><ele>246.5</ele><time>2026-05-01T13:28:15.25Z</time></trkpt><trkpt lat="45.1097017" lon="5.699345"><ele>247.0</ele><time>2026-05-01T13:28:16.249Z</time></trkpt><trkpt lat="45.109935" lon="5.699275"><ele>247.0</ele><time>2026-05-01T13:28:17.249Z</time></trkpt><trkpt lat="45.1101667" lon="5.6992333"><ele>247.0</ele><time>2026-05-01T13:28:18.25Z</time></trkpt><trkpt lat="45.1104167" lon="5.69919"><ele>247.0</ele><time>2026-05-01T13:28:19.25Z</time></trkpt><trkpt lat="45.1106533" lon="5.69918"><ele>247.0</ele><time>2026-05-01T13:28:20.25Z</time></trkpt><trkpt lat="45.1108867" lon="5.6991883"><ele>246.5</ele><time>2026-05-01T13:28:21.25Z</time></trkpt><trkpt lat="45.1111167" lon="5.69919"><ele>246.0</ele><time>2026-05-01T13:28:22.249Z</time></trkpt><trkpt lat="45.1113433" lon="5.6991733"><ele>246.5</ele><time>2026-05-01T13:28:23.25Z</time></trkpt><trkpt lat="45.11159" lon="5.6991617"><ele>247.0</ele><time>2026-05-01T13:28:24.25Z</time></trkpt><trkpt lat="45.11183" lon="5.699165"><ele>247.0</ele><time>2026-05-01T13:28:25.249Z</time></trkpt><trkpt lat="45.112315" lon="5.6991383"><ele>247.5</ele><time>2026-05-01T13:28:27.25Z</time></trkpt><trkpt lat="45.1125517" lon="5.6991283"><ele>248.0</ele><time>2026-05-01T13:28:28.249Z</time></trkpt><trkpt lat="45.1128" lon="5.6991317"><ele>248.0</ele><time>2026-05-01T13:28:29.25Z</time></trkpt><trkpt lat="45.1130483" lon="5.699135"><ele>248.0</ele><time>2026-05-01T13:28:30.25Z</time></trkpt><trkpt lat="45.1132867" lon="5.6991417"><ele>248.0</ele><time>2026-05-01T13:28:31.25Z</time></trkpt><trkpt lat="45.113505" lon="5.69914"><ele>248.0</ele><time>2026-05-01T13:28:32.25Z</time></trkpt><trkpt lat="45.1137183" lon="5.699135"><ele>248.0</ele><time>2026-05-01T13:28:33.25Z</time></trkpt><trkpt lat="45.1139317" lon="5.6991217"><ele>247.66666666666669</ele><time>2026-05-01T13:28:34.25Z</time></trkpt><trkpt lat="45.1141417" lon="5.6991017"><ele>247.33333333333331</ele><time>2026-05-01T13:28:35.25Z</time></trkpt><trkpt lat="45.1143567" lon="5.6990733"><ele>247.0</ele><time>2026-05-01T13:28:36.25Z</time></trkpt><trkpt lat="45.114575" lon="5.6990483"><ele>247.0</ele><time>2026-05-01T13:28:37.249Z</time></trkpt><trkpt lat="45.114795" lon="5.69903"><ele>247.0</ele><time>2026-05-01T13:28:38.25Z</time></trkpt><trkpt lat="45.1150183" lon="5.6990017"><ele>247.0</ele><time>2026-05-01T13:28:39.249Z</time></trkpt><trkpt lat="45.11524" lon="5.6989683"><ele>247.0</ele><time>2026-05-01T13:28:40.25Z</time></trkpt><trkpt lat="45.115455" lon="5.6989233"><ele>247.0</ele><time>2026-05-01T13:28:41.25Z</time></trkpt><trkpt lat="45.1156683" lon="5.698875"><ele>247.0</ele><time>2026-05-01T13:28:42.249Z</time></trkpt><trkpt lat="45.1158883" lon="5.69882"><ele>245.5</ele><time>2026-05-01T13:28:43.25Z</time></trkpt><trkpt lat="45.116115" lon="5.698755"><ele>244.0</ele><time>2026-05-01T13:28:44.25Z</time></trkpt><trkpt lat="45.1163467" lon="5.6986933"><ele>244.0</ele><time>2026-05-01T13:28:45.249Z</time></trkpt><trkpt lat="45.1165867" lon="5.6986317"><ele>244.0</ele><time>2026-05-01T13:28:46.25Z</time></trkpt><trkpt lat="45.1170717" lon="5.6984717"><ele>244.5</ele><time>2026-05-01T13:28:48.249Z</time></trkpt><trkpt lat="45.1173183" lon="5.6984033"><ele>245.0</ele><time>2026-05-01T13:28:49.25Z</time></trkpt><trkpt lat="45.1175517" lon="5.6983483"><ele>245.0</ele><time>2026-05-01T13:28:50.249Z</time></trkpt><trkpt lat="45.1177717" lon="5.6982917"><ele>245.0</ele><time>2026-05-01T13:28:51.25Z</time></trkpt><trkpt lat="45.117995" lon="5.6982033"><ele>245.0</ele><time>2026-05-01T13:28:52.25Z</time></trkpt><trkpt lat="45.1182183" lon="5.69811"><ele>245.0</ele><time>2026-05-01T13:28:53.25Z</time></trkpt><trkpt lat="45.1184367" lon="5.6980267"><ele>245.66666666666669</ele><time>2026-05-01T13:28:54.25Z</time></trkpt><trkpt lat="45.1186367" lon="5.6979417"><ele>246.33333333333331</ele><time>2026-05-01T13:28:55.25Z</time></trkpt><trkpt lat="45.1188383" lon="5.69788"><ele>247.0</ele><time>2026-05-01T13:28:56.25Z</time></trkpt><trkpt lat="45.1190283" lon="5.6978283"><ele>246.66666666666666</ele><time>2026-05-01T13:28:57.25Z</time></trkpt><trkpt lat="45.1192183" lon="5.6977817"><ele>246.33333333333331</ele><time>2026-05-01T13:28:58.249Z</time></trkpt><trkpt lat="45.11942" lon="5.6977133"><ele>246.0</ele><time>2026-05-01T13:28:59.249Z</time></trkpt><trkpt lat="45.1196333" lon="5.6976483"><ele>246.0</ele><time>2026-05-01T13:29:00.25Z</time></trkpt><trkpt lat="45.1198567" lon="5.6975917"><ele>246.0</ele><time>2026-05-01T13:29:01.25Z</time></trkpt><trkpt lat="45.1200717" lon="5.6975267"><ele>246.0</ele><time>2026-05-01T13:29:02.249Z</time></trkpt><trkpt lat="45.1202783" lon="5.69745"><ele>247.0</ele><time>2026-05-01T13:29:03.25Z</time></trkpt><trkpt lat="45.1204933" lon="5.6973717"><ele>248.0</ele><time>2026-05-01T13:29:04.25Z</time></trkpt><trkpt lat="45.1207033" lon="5.6972783"><ele>249.0</ele><time>2026-05-01T13:29:05.25Z</time></trkpt><trkpt lat="45.12091" lon="5.6971833"><ele>244.0</ele><time>2026-05-01T13:29:06.249Z</time></trkpt><trkpt lat="45.1214033" lon="5.696835"><ele>246.0</ele><time>2026-05-01T13:29:09.257Z</time></trkpt><trkpt lat="45.121755" lon="5.69639"><ele>246.0</ele><time>2026-05-01T13:29:11.257Z</time></trkpt><trkpt lat="45.1219283" lon="5.696195"><ele>246.0</ele><time>2026-05-01T13:29:12.256Z</time></trkpt><trkpt lat="45.1220933" lon="5.696005"><ele>246.0</ele><time>2026-05-01T13:29:13.257Z</time></trkpt><trkpt lat="45.1222667" lon="5.695795"><ele>244.5</ele><time>2026-05-01T13:29:14.257Z</time></trkpt><trkpt lat="45.12245" lon="5.69558"><ele>243.0</ele><time>2026-05-01T13:29:15.257Z</time></trkpt><trkpt lat="45.1226383" lon="5.695355"><ele>242.0</ele><time>2026-05-01T13:29:16.257Z</time></trkpt><trkpt lat="45.1228283" lon="5.69513"><ele>241.0</ele><time>2026-05-01T13:29:17.257Z</time></trkpt><trkpt lat="45.123005" lon="5.6949217"><ele>241.0</ele><time>2026-05-01T13:29:18.257Z</time></trkpt><trkpt lat="45.123195" lon="5.6946917"><ele>241.0</ele><time>2026-05-01T13:29:19.256Z</time></trkpt><trkpt lat="45.12339" lon="5.6944483"><ele>241.5</ele><time>2026-05-01T13:29:20.256Z</time></trkpt><trkpt lat="45.1235733" lon="5.6942167"><ele>242.0</ele><time>2026-05-01T13:29:21.257Z</time></trkpt><trkpt lat="45.1237533" lon="5.6939867"><ele>242.0</ele><time>2026-05-01T13:29:22.257Z</time></trkpt><trkpt lat="45.123935" lon="5.69374"><ele>242.0</ele><time>2026-05-01T13:29:23.257Z</time></trkpt><trkpt lat="45.1241167" lon="5.69351"><ele>240.5</ele><time>2026-05-01T13:29:24.257Z</time></trkpt><trkpt lat="45.1243" lon="5.693275"><ele>239.0</ele><time>2026-05-01T13:29:25.256Z</time></trkpt><trkpt lat="45.1244783" lon="5.69303"><ele>239.0</ele><time>2026-05-01T13:29:26.256Z</time></trkpt><trkpt lat="45.1246533" lon="5.6928183"><ele>239.0</ele><time>2026-05-01T13:29:27.257Z</time></trkpt><trkpt lat="45.1248217" lon="5.6926217"><ele>239.0</ele><time>2026-05-01T13:29:28.257Z</time></trkpt><trkpt lat="45.124995" lon="5.69245"><ele>240.0</ele><time>2026-05-01T13:29:29.256Z</time></trkpt><trkpt lat="45.125165" lon="5.6922733"><ele>241.0</ele><time>2026-05-01T13:29:30.257Z</time></trkpt><trkpt lat="45.1254933" lon="5.69194"><ele>241.66666666666666</ele><time>2026-05-01T13:29:32.257Z</time></trkpt><trkpt lat="45.1256767" lon="5.6917867"><ele>242.33333333333331</ele><time>2026-05-01T13:29:33.257Z</time></trkpt><trkpt lat="45.1258417" lon="5.6916667"><ele>243.0</ele><time>2026-05-01T13:29:34.256Z</time></trkpt><trkpt lat="45.1260167" lon="5.691535"><ele>243.0</ele><time>2026-05-01T13:29:35.256Z</time></trkpt><trkpt lat="45.1261933" lon="5.69144"><ele>243.0</ele><time>2026-05-01T13:29:36.257Z</time></trkpt><trkpt lat="45.126395" lon="5.6914033"><ele>243.0</ele><time>2026-05-01T13:29:37.256Z</time></trkpt><trkpt lat="45.126605" lon="5.6913383"><ele>242.66666666666669</ele><time>2026-05-01T13:29:38.257Z</time></trkpt><trkpt lat="45.1268167" lon="5.6912933"><ele>242.33333333333334</ele><time>2026-05-01T13:29:39.257Z</time></trkpt><trkpt lat="45.127035" lon="5.69128"><ele>242.0</ele><time>2026-05-01T13:29:40.257Z</time></trkpt><trkpt lat="45.1272533" lon="5.6912667"><ele>243.0</ele><time>2026-05-01T13:29:41.257Z</time></trkpt><trkpt lat="45.12748" lon="5.69126"><ele>244.0</ele><time>2026-05-01T13:29:42.256Z</time></trkpt><trkpt lat="45.1277267" lon="5.6912283"><ele>244.0</ele><time>2026-05-01T13:29:43.257Z</time></trkpt><trkpt lat="45.1279783" lon="5.691215"><ele>244.0</ele><time>2026-05-01T13:29:44.257Z</time></trkpt><trkpt lat="45.1282283" lon="5.6911883"><ele>243.0</ele><time>2026-05-01T13:29:45.256Z</time></trkpt><trkpt lat="45.12848" lon="5.691165"><ele>242.0</ele><time>2026-05-01T13:29:46.256Z</time></trkpt><trkpt lat="45.12872" lon="5.691135"><ele>240.0</ele><time>2026-05-01T13:29:47.257Z</time></trkpt><trkpt lat="45.128975" lon="5.6910833"><ele>238.0</ele><time>2026-05-01T13:29:48.256Z</time></trkpt><trkpt lat="45.129225" lon="5.6910283"><ele>238.0</ele><time>2026-05-01T13:29:49.256Z</time></trkpt><trkpt lat="45.129475" lon="5.6909633"><ele>238.0</ele><time>2026-05-01T13:29:50.256Z</time></trkpt><trkpt lat="45.1297267" lon="5.6909067"><ele>241.0</ele><time>2026-05-01T13:29:51.257Z</time></trkpt><trkpt lat="45.1302167" lon="5.6907567"><ele>241.0</ele><time>2026-05-01T13:29:53.257Z</time></trkpt><trkpt lat="45.1304517" lon="5.6906883"><ele>241.0</ele><time>2026-05-01T13:29:54.257Z</time></trkpt><trkpt lat="45.130675" lon="5.6906183"><ele>240.0</ele><time>2026-05-01T13:29:55.257Z</time></trkpt><trkpt lat="45.1308883" lon="5.69056"><ele>239.0</ele><time>2026-05-01T13:29:56.257Z</time></trkpt><trkpt lat="45.1311067" lon="5.6905183"><ele>238.0</ele><time>2026-05-01T13:29:57.257Z</time></trkpt><trkpt lat="45.1313183" lon="5.690475"><ele>238.0</ele><time>2026-05-01T13:29:58.257Z</time></trkpt><trkpt lat="45.1315333" lon="5.6904383"><ele>238.0</ele><time>2026-05-01T13:29:59.256Z</time></trkpt><trkpt lat="45.13174" lon="5.69041"><ele>238.0</ele><time>2026-05-01T13:30:00.257Z</time></trkpt><trkpt lat="45.131945" lon="5.6903683"><ele>238.33333333333331</ele><time>2026-05-01T13:30:01.257Z</time></trkpt><trkpt lat="45.13214" lon="5.6903417"><ele>238.66666666666669</ele><time>2026-05-01T13:30:02.256Z</time></trkpt><trkpt lat="45.1323333" lon="5.6903233"><ele>239.0</ele><time>2026-05-01T13:30:03.257Z</time></trkpt><trkpt lat="45.132535" lon="5.6903033"><ele>239.66666666666669</ele><time>2026-05-01T13:30:04.257Z</time></trkpt><trkpt lat="45.1327217" lon="5.6903033"><ele>240.33333333333331</ele><time>2026-05-01T13:30:05.257Z</time></trkpt><trkpt lat="45.1329033" lon="5.69033"><ele>241.0</ele><time>2026-05-01T13:30:06.257Z</time></trkpt><trkpt lat="45.1330817" lon="5.6903717"><ele>239.33333333333331</ele><time>2026-05-01T13:30:07.256Z</time></trkpt><trkpt lat="45.1332567" lon="5.69044"><ele>237.66666666666669</ele><time>2026-05-01T13:30:08.257Z</time></trkpt><trkpt lat="45.1334417" lon="5.6905167"><ele>236.0</ele><time>2026-05-01T13:30:09.257Z</time></trkpt><trkpt lat="45.1336283" lon="5.690605"><ele>236.0</ele><time>2026-05-01T13:30:10.257Z</time></trkpt><trkpt lat="45.1338033" lon="5.6907183"><ele>236.0</ele><time>2026-05-01T13:30:11.257Z</time></trkpt><trkpt lat="45.13398" lon="5.6908383"><ele>236.0</ele><time>2026-05-01T13:30:12.257Z</time></trkpt><trkpt lat="45.1343217" lon="5.69111"><ele>236.66666666666669</ele><time>2026-05-01T13:30:14.257Z</time></trkpt><trkpt lat="45.134485" lon="5.6912533"><ele>237.33333333333331</ele><time>2026-05-01T13:30:15.256Z</time></trkpt><trkpt lat="45.13465" lon="5.691385"><ele>238.0</ele><time>2026-05-01T13:30:16.256Z</time></trkpt><trkpt lat="45.1348017" lon="5.69152"><ele>238.0</ele><time>2026-05-01T13:30:17.257Z</time></trkpt><trkpt lat="45.1349483" lon="5.6916317"><ele>238.0</ele><time>2026-05-01T13:30:18.256Z</time></trkpt><trkpt lat="45.1350733" lon="5.691725"><ele>238.0</ele><time>2026-05-01T13:30:19.256Z</time></trkpt><trkpt lat="45.135185" lon="5.6917983"><ele>238.0</ele><time>2026-05-01T13:30:20.257Z</time></trkpt><trkpt lat="45.1352617" lon="5.6918467"><ele>238.0</ele><time>2026-05-01T13:30:21.257Z</time></trkpt><trkpt lat="45.1353367" lon="5.6918933"><ele>238.0</ele><time>2026-05-01T13:30:23.257Z</time></trkpt><trkpt lat="45.1353683" lon="5.6919817"><ele>238.0</ele><time>2026-05-01T13:30:29.256Z</time></trkpt><trkpt lat="45.1354267" lon="5.6921517"><ele>238.0</ele><time>2026-05-01T13:30:31.257Z</time></trkpt><trkpt lat="45.1354317" lon="5.6922917"><ele>238.0</ele><time>2026-05-01T13:30:32.257Z</time></trkpt><trkpt lat="45.1354183" lon="5.6924533"><ele>238.0</ele><time>2026-05-01T13:30:33.257Z</time></trkpt><trkpt lat="45.1353267" lon="5.6928917"><ele>238.0</ele><time>2026-05-01T13:30:35.256Z</time></trkpt><trkpt lat="45.135275" lon="5.6931333"><ele>238.0</ele><time>2026-05-01T13:30:36.257Z</time></trkpt><trkpt lat="45.1352383" lon="5.69335"><ele>238.0</ele><time>2026-05-01T13:30:37.257Z</time></trkpt><trkpt lat="45.1352033" lon="5.6935867"><ele>238.0</ele><time>2026-05-01T13:30:38.257Z</time></trkpt><trkpt lat="45.13516" lon="5.6938183"><ele>238.33333333333331</ele><time>2026-05-01T13:30:39.257Z</time></trkpt><trkpt lat="45.1351117" lon="5.6940667"><ele>238.66666666666669</ele><time>2026-05-01T13:30:40.256Z</time></trkpt><trkpt lat="45.1350783" lon="5.6943183"><ele>239.0</ele><time>2026-05-01T13:30:41.257Z</time></trkpt><trkpt lat="45.1350417" lon="5.6945633"><ele>239.33333333333334</ele><time>2026-05-01T13:30:42.257Z</time></trkpt><trkpt lat="45.135005" lon="5.6948167"><ele>239.66666666666669</ele><time>2026-05-01T13:30:43.257Z</time></trkpt><trkpt lat="45.13497" lon="5.6950683"><ele>240.0</ele><time>2026-05-01T13:30:44.256Z</time></trkpt><trkpt lat="45.134935" lon="5.6953083"><ele>240.0</ele><time>2026-05-01T13:30:45.256Z</time></trkpt><trkpt lat="45.1349017" lon="5.695585"><ele>240.0</ele><time>2026-05-01T13:30:46.256Z</time></trkpt><trkpt lat="45.134865" lon="5.6958717"><ele>240.0</ele><time>2026-05-01T13:30:47.257Z</time></trkpt><trkpt lat="45.1348267" lon="5.6961517"><ele>240.0</ele><time>2026-05-01T13:30:48.257Z</time></trkpt><trkpt lat="45.1347983" lon="5.6964183"><ele>240.0</ele><time>2026-05-01T13:30:49.257Z</time></trkpt><trkpt lat="45.1347683" lon="5.69665"><ele>240.0</ele><time>2026-05-01T13:30:50.256Z</time></trkpt><trkpt lat="45.134735" lon="5.6968783"><ele>240.75</ele><time>2026-05-01T13:30:51.257Z</time></trkpt><trkpt lat="45.1347017" lon="5.697095"><ele>241.5</ele><time>2026-05-01T13:30:52.256Z</time></trkpt><trkpt lat="45.13466" lon="5.6972933"><ele>242.25</ele><time>2026-05-01T13:30:53.257Z</time></trkpt><trkpt lat="45.1346233" lon="5.697475"><ele>243.0</ele><time>2026-05-01T13:30:54.257Z</time></trkpt><trkpt lat="45.1345517" lon="5.6978733"><ele>243.25</ele><time>2026-05-01T13:30:56.257Z</time></trkpt><trkpt lat="45.1345083" lon="5.6980667"><ele>243.5</ele><time>2026-05-01T13:30:57.257Z</time></trkpt><trkpt lat="45.1344783" lon="5.698265"><ele>243.75</ele><time>2026-05-01T13:30:58.257Z</time></trkpt><trkpt lat="45.1344433" lon="5.6984683"><ele>244.0</ele><time>2026-05-01T13:30:59.257Z</time></trkpt><trkpt lat="45.13442" lon="5.69865"><ele>243.5</ele><time>2026-05-01T13:31:00.257Z</time></trkpt><trkpt lat="45.1343933" lon="5.6988183"><ele>243.0</ele><time>2026-05-01T13:31:01.257Z</time></trkpt><trkpt lat="45.1343633" lon="5.6989683"><ele>242.5</ele><time>2026-05-01T13:31:02.257Z</time></trkpt><trkpt lat="45.13433" lon="5.699145"><ele>242.0</ele><time>2026-05-01T13:31:03.257Z</time></trkpt><trkpt lat="45.13432" lon="5.6993317"><ele>241.75</ele><time>2026-05-01T13:31:04.257Z</time></trkpt><trkpt lat="45.1342933" lon="5.699525"><ele>241.5</ele><time>2026-05-01T13:31:05.257Z</time></trkpt><trkpt lat="45.1342617" lon="5.6997033"><ele>241.25</ele><time>2026-05-01T13:31:06.257Z</time></trkpt><trkpt lat="45.1342283" lon="5.69989"><ele>241.0</ele><time>2026-05-01T13:31:07.257Z</time></trkpt><trkpt lat="45.1341967" lon="5.700045"><ele>241.0</ele><time>2026-05-01T13:31:08.257Z</time></trkpt><trkpt lat="45.13417" lon="5.70017"><ele>241.00000000000003</ele><time>2026-05-01T13:31:09.257Z</time></trkpt><trkpt lat="45.1341467" lon="5.7002767"><ele>241.00000000000003</ele><time>2026-05-01T13:31:10.257Z</time></trkpt><trkpt lat="45.1341333" lon="5.7004"><ele>241.0</ele><time>2026-05-01T13:31:12.257Z</time></trkpt><trkpt lat="45.1341367" lon="5.7005267"><ele>241.0</ele><time>2026-05-01T13:31:15.256Z</time></trkpt><trkpt lat="45.1341133" lon="5.7008133"><ele>241.20000000000002</ele><time>2026-05-01T13:31:20.256Z</time></trkpt><trkpt lat="45.1341033" lon="5.7009783"><ele>241.40000000000003</ele><time>2026-05-01T13:31:22.257Z</time></trkpt><trkpt lat="45.1341533" lon="5.70107"><ele>241.6</ele><time>2026-05-01T13:31:24.257Z</time></trkpt><trkpt lat="45.13421" lon="5.70111"><ele>241.8</ele><time>2026-05-01T13:31:25.257Z</time></trkpt><trkpt lat="45.134305" lon="5.7011417"><ele>242.0</ele><time>2026-05-01T13:31:26.257Z</time></trkpt><trkpt lat="45.1344367" lon="5.7011617"><ele>242.0</ele><time>2026-05-01T13:31:27.256Z</time></trkpt><trkpt lat="45.1345833" lon="5.70118"><ele>242.0</ele><time>2026-05-01T13:31:28.257Z</time></trkpt><trkpt lat="45.1347533" lon="5.70121"><ele>242.0</ele><time>2026-05-01T13:31:29.257Z</time></trkpt><trkpt lat="45.1349383" lon="5.701245"><ele>240.33333333333334</ele><time>2026-05-01T13:31:30.257Z</time></trkpt><trkpt lat="45.1351017" lon="5.7012917"><ele>238.66666666666669</ele><time>2026-05-01T13:31:31.257Z</time></trkpt><trkpt lat="45.13526" lon="5.7013617"><ele>237.0</ele><time>2026-05-01T13:31:32.257Z</time></trkpt><trkpt lat="45.13541" lon="5.70142"><ele>237.0</ele><time>2026-05-01T13:31:33.257Z</time></trkpt><trkpt lat="45.1355667" lon="5.701475"><ele>237.0</ele><time>2026-05-01T13:31:34.256Z</time></trkpt><trkpt lat="45.135715" lon="5.7015233"><ele>237.0</ele><time>2026-05-01T13:31:35.257Z</time></trkpt><trkpt lat="45.1358583" lon="5.7015733"><ele>237.0</ele><time>2026-05-01T13:31:36.257Z</time></trkpt><trkpt lat="45.1361533" lon="5.701665"><ele>237.0</ele><time>2026-05-01T13:31:38.257Z</time></trkpt><trkpt lat="45.136285" lon="5.7017133"><ele>237.0</ele><time>2026-05-01T13:31:39.257Z</time></trkpt><trkpt lat="45.136445" lon="5.7017567"><ele>237.0</ele><time>2026-05-01T13:31:40.257Z</time></trkpt><trkpt lat="45.1366117" lon="5.7018183"><ele>237.0</ele><time>2026-05-01T13:31:41.257Z</time></trkpt><trkpt lat="45.13677" lon="5.70186"><ele>237.0</ele><time>2026-05-01T13:31:42.256Z</time></trkpt><trkpt lat="45.1369333" lon="5.7019333"><ele>237.0</ele><time>2026-05-01T13:31:43.257Z</time></trkpt><trkpt lat="45.1370667" lon="5.7019717"><ele>237.0</ele><time>2026-05-01T13:31:44.257Z</time></trkpt><trkpt lat="45.1372083" lon="5.7020117"><ele>237.0</ele><time>2026-05-01T13:31:45.257Z</time></trkpt><trkpt lat="45.13735" lon="5.7020617"><ele>237.0</ele><time>2026-05-01T13:31:46.257Z</time></trkpt><trkpt lat="45.13749" lon="5.702095"><ele>236.6</ele><time>2026-05-01T13:31:47.257Z</time></trkpt><trkpt lat="45.1376183" lon="5.702135"><ele>236.2</ele><time>2026-05-01T13:31:48.256Z</time></trkpt><trkpt lat="45.1377333" lon="5.7021767"><ele>235.8</ele><time>2026-05-01T13:31:49.257Z</time></trkpt><trkpt lat="45.1378267" lon="5.702195"><ele>235.4</ele><time>2026-05-01T13:31:50.257Z</time></trkpt><trkpt lat="45.13791" lon="5.7022217"><ele>235.0</ele><time>2026-05-01T13:31:51.257Z</time></trkpt><trkpt lat="45.1379783" lon="5.7022383"><ele>235.0</ele><time>2026-05-01T13:31:52.257Z</time></trkpt><trkpt lat="45.13804" lon="5.7022633"><ele>235.0</ele><time>2026-05-01T13:31:54.257Z</time></trkpt><trkpt lat="45.13813" lon="5.7022733"><ele>235.0</ele><time>2026-05-01T13:32:25.257Z</time></trkpt><trkpt lat="45.1383217" lon="5.7023483"><ele>235.0</ele><time>2026-05-01T13:32:27.257Z</time></trkpt><trkpt lat="45.1384467" lon="5.7023883"><ele>235.0</ele><time>2026-05-01T13:32:28.256Z</time></trkpt><trkpt lat="45.1385783" lon="5.7024217"><ele>235.0</ele><time>2026-05-01T13:32:29.256Z</time></trkpt><trkpt lat="45.138715" lon="5.70246"><ele>235.0</ele><time>2026-05-01T13:32:30.257Z</time></trkpt><trkpt lat="45.13886" lon="5.702495"><ele>235.0</ele><time>2026-05-01T13:32:31.257Z</time></trkpt><trkpt lat="45.1390117" lon="5.7025283"><ele>235.33333333333331</ele><time>2026-05-01T13:32:32.257Z</time></trkpt><trkpt lat="45.1391767" lon="5.7026017"><ele>235.66666666666669</ele><time>2026-05-01T13:32:33.257Z</time></trkpt><trkpt lat="45.13933" lon="5.7026817"><ele>236.0</ele><time>2026-05-01T13:32:34.257Z</time></trkpt><trkpt lat="45.1395017" lon="5.7027333"><ele>236.0</ele><time>2026-05-01T13:32:35.256Z</time></trkpt><trkpt lat="45.1396783" lon="5.70278"><ele>236.0</ele><time>2026-05-01T13:32:36.256Z</time></trkpt><trkpt lat="45.1398583" lon="5.702825"><ele>236.0</ele><time>2026-05-01T13:32:37.256Z</time></trkpt><trkpt lat="45.1400317" lon="5.7028817"><ele>236.0</ele><time>2026-05-01T13:32:38.256Z</time></trkpt><trkpt lat="45.1402033" lon="5.7029483"><ele>236.0</ele><time>2026-05-01T13:32:39.257Z</time></trkpt><trkpt lat="45.14038" lon="5.7029617"><ele>236.0</ele><time>2026-05-01T13:32:40.257Z</time></trkpt><trkpt lat="45.1405517" lon="5.7030233"><ele>235.66666666666669</ele><time>2026-05-01T13:32:41.257Z</time></trkpt><trkpt lat="45.14075" lon="5.7030133"><ele>235.33333333333331</ele><time>2026-05-01T13:32:42.257Z</time></trkpt><trkpt lat="45.1408933" lon="5.7031167"><ele>235.0</ele><time>2026-05-01T13:32:43.257Z</time></trkpt><trkpt lat="45.1410367" lon="5.7032067"><ele>235.0</ele><time>2026-05-01T13:32:44.257Z</time></trkpt><trkpt lat="45.1411883" lon="5.7032833"><ele>235.0</ele><time>2026-05-01T13:32:45.256Z</time></trkpt><trkpt lat="45.141345" lon="5.703335"><ele>235.0</ele><time>2026-05-01T13:32:46.257Z</time></trkpt><trkpt lat="45.1416683" lon="5.7034183"><ele>235.0</ele><time>2026-05-01T13:32:48.257Z</time></trkpt><trkpt lat="45.14184" lon="5.7034767"><ele>235.0</ele><time>2026-05-01T13:32:49.257Z</time></trkpt><trkpt lat="45.1420183" lon="5.7035467"><ele>235.0</ele><time>2026-05-01T13:32:50.257Z</time></trkpt><trkpt lat="45.1422" lon="5.7036383"><ele>235.0</ele><time>2026-05-01T13:32:51.256Z</time></trkpt><trkpt lat="45.1423867" lon="5.7037133"><ele>235.0</ele><time>2026-05-01T13:32:52.256Z</time></trkpt><trkpt lat="45.142575" lon="5.70376"><ele>235.0</ele><time>2026-05-01T13:32:53.257Z</time></trkpt><trkpt lat="45.1427533" lon="5.7038467"><ele>235.0</ele><time>2026-05-01T13:32:54.257Z</time></trkpt><trkpt lat="45.1429283" lon="5.703905"><ele>235.0</ele><time>2026-05-01T13:32:55.257Z</time></trkpt><trkpt lat="45.1430983" lon="5.703955"><ele>235.0</ele><time>2026-05-01T13:32:56.257Z</time></trkpt><trkpt lat="45.1432517" lon="5.7040067"><ele>234.75</ele><time>2026-05-01T13:32:57.257Z</time></trkpt><trkpt lat="45.1433917" lon="5.7040417"><ele>234.5</ele><time>2026-05-01T13:32:58.257Z</time></trkpt><trkpt lat="45.1435317" lon="5.70408"><ele>234.25</ele><time>2026-05-01T13:32:59.257Z</time></trkpt><trkpt lat="45.1436667" lon="5.7041233"><ele>234.0</ele><time>2026-05-01T13:33:00.257Z</time></trkpt><trkpt lat="45.1438067" lon="5.704165"><ele>234.0</ele><time>2026-05-01T13:33:01.256Z</time></trkpt><trkpt lat="45.1439567" lon="5.7042017"><ele>234.0</ele><time>2026-05-01T13:33:02.256Z</time></trkpt><trkpt lat="45.1441017" lon="5.7042683"><ele>234.0</ele><time>2026-05-01T13:33:03.257Z</time></trkpt><trkpt lat="45.14423" lon="5.7043267"><ele>234.0</ele><time>2026-05-01T13:33:04.256Z</time></trkpt><trkpt lat="45.1443667" lon="5.7043817"><ele>233.33333333333331</ele><time>2026-05-01T13:33:05.257Z</time></trkpt><trkpt lat="45.1444967" lon="5.7044233"><ele>232.66666666666666</ele><time>2026-05-01T13:33:06.257Z</time></trkpt><trkpt lat="45.1446183" lon="5.70447"><ele>232.0</ele><time>2026-05-01T13:33:07.257Z</time></trkpt><trkpt lat="45.1448567" lon="5.704555"><ele>232.39999999999998</ele><time>2026-05-01T13:33:09.257Z</time></trkpt><trkpt lat="45.144965" lon="5.7045917"><ele>232.79999999999998</ele><time>2026-05-01T13:33:10.257Z</time></trkpt><trkpt lat="45.1450683" lon="5.7046267"><ele>233.2</ele><time>2026-05-01T13:33:11.256Z</time></trkpt><trkpt lat="45.1451683" lon="5.7046667"><ele>233.6</ele><time>2026-05-01T13:33:12.256Z</time></trkpt><trkpt lat="45.14527" lon="5.7047"><ele>234.0</ele><time>2026-05-01T13:33:13.256Z</time></trkpt><trkpt lat="45.1453667" lon="5.7047383"><ele>234.0</ele><time>2026-05-01T13:33:14.256Z</time></trkpt><trkpt lat="45.1454683" lon="5.70478"><ele>233.99999999999997</ele><time>2026-05-01T13:33:15.256Z</time></trkpt><trkpt lat="45.1455683" lon="5.704825"><ele>233.99999999999997</ele><time>2026-05-01T13:33:16.257Z</time></trkpt><trkpt lat="45.1456583" lon="5.7048483"><ele>234.0</ele><time>2026-05-01T13:33:17.256Z</time></trkpt><trkpt lat="45.1457433" lon="5.7048733"><ele>234.0</ele><time>2026-05-01T13:33:18.257Z</time></trkpt><trkpt lat="45.1458333" lon="5.7049"><ele>233.83333333333334</ele><time>2026-05-01T13:33:19.257Z</time></trkpt><trkpt lat="45.1459217" lon="5.704925"><ele>233.66666666666669</ele><time>2026-05-01T13:33:20.257Z</time></trkpt><trkpt lat="45.1460033" lon="5.7049517"><ele>233.5</ele><time>2026-05-01T13:33:21.257Z</time></trkpt><trkpt lat="45.146085" lon="5.704975"><ele>233.33333333333334</ele><time>2026-05-01T13:33:22.257Z</time></trkpt><trkpt lat="45.1461717" lon="5.7049933"><ele>233.16666666666669</ele><time>2026-05-01T13:33:23.256Z</time></trkpt><trkpt lat="45.1462683" lon="5.70502"><ele>233.0</ele><time>2026-05-01T13:33:24.257Z</time></trkpt><trkpt lat="45.146375" lon="5.705045"><ele>233.0</ele><time>2026-05-01T13:33:25.257Z</time></trkpt><trkpt lat="45.1465017" lon="5.705075"><ele>233.0</ele><time>2026-05-01T13:33:26.256Z</time></trkpt><trkpt lat="45.1466517" lon="5.70513"><ele>233.0</ele><time>2026-05-01T13:33:27.257Z</time></trkpt><trkpt lat="45.1468033" lon="5.7051983"><ele>233.0</ele><time>2026-05-01T13:33:28.257Z</time></trkpt><trkpt lat="45.1471417" lon="5.705315"><ele>233.0</ele><time>2026-05-01T13:33:30.257Z</time></trkpt><trkpt lat="45.1472983" lon="5.705375"><ele>233.0</ele><time>2026-05-01T13:33:31.257Z</time></trkpt><trkpt lat="45.14743" lon="5.705425"><ele>233.0</ele><time>2026-05-01T13:33:32.257Z</time></trkpt><trkpt lat="45.14756" lon="5.70546"><ele>233.0</ele><time>2026-05-01T13:33:33.256Z</time></trkpt><trkpt lat="45.1476917" lon="5.70551"><ele>233.25</ele><time>2026-05-01T13:33:34.256Z</time></trkpt><trkpt lat="45.14781" lon="5.7055633"><ele>233.5</ele><time>2026-05-01T13:33:35.257Z</time></trkpt><trkpt lat="45.1479233" lon="5.705615"><ele>233.75</ele><time>2026-05-01T13:33:36.257Z</time></trkpt><trkpt lat="45.1480283" lon="5.7056483"><ele>234.0</ele><time>2026-05-01T13:33:37.257Z</time></trkpt><trkpt lat="45.1481367" lon="5.7056917"><ele>233.2</ele><time>2026-05-01T13:33:38.257Z</time></trkpt><trkpt lat="45.1482367" lon="5.705725"><ele>232.39999999999998</ele><time>2026-05-01T13:33:39.257Z</time></trkpt><trkpt lat="45.1483333" lon="5.70576"><ele>231.6</ele><time>2026-05-01T13:33:40.256Z</time></trkpt><trkpt lat="45.1484267" lon="5.7058"><ele>230.8</ele><time>2026-05-01T13:33:41.257Z</time></trkpt><trkpt lat="45.1485217" lon="5.7058367"><ele>230.0</ele><time>2026-05-01T13:33:42.257Z</time></trkpt><trkpt lat="45.14863" lon="5.7058633"><ele>230.0</ele><time>2026-05-01T13:33:43.257Z</time></trkpt><trkpt lat="45.148745" lon="5.70589"><ele>230.0</ele><time>2026-05-01T13:33:44.256Z</time></trkpt><trkpt lat="45.1488683" lon="5.7059217"><ele>230.0</ele><time>2026-05-01T13:33:45.256Z</time></trkpt><trkpt lat="45.149" lon="5.70596"><ele>230.0</ele><time>2026-05-01T13:33:46.256Z</time></trkpt><trkpt lat="45.1491367" lon="5.706025"><ele>229.66666666666669</ele><time>2026-05-01T13:33:47.257Z</time></trkpt><trkpt lat="45.1492867" lon="5.7061"><ele>229.33333333333331</ele><time>2026-05-01T13:33:48.257Z</time></trkpt><trkpt lat="45.1494417" lon="5.7061633"><ele>229.0</ele><time>2026-05-01T13:33:49.257Z</time></trkpt><trkpt lat="45.1498067" lon="5.70628"><ele>228.66666666666666</ele><time>2026-05-01T13:33:51.257Z</time></trkpt><trkpt lat="45.1499933" lon="5.706345"><ele>228.33333333333331</ele><time>2026-05-01T13:33:52.257Z</time></trkpt><trkpt lat="45.150175" lon="5.7064117"><ele>228.0</ele><time>2026-05-01T13:33:53.257Z</time></trkpt><trkpt lat="45.1503417" lon="5.706505"><ele>228.0</ele><time>2026-05-01T13:33:54.257Z</time></trkpt><trkpt lat="45.150485" lon="5.7065783"><ele>228.0</ele><time>2026-05-01T13:33:55.257Z</time></trkpt><trkpt lat="45.1506183" lon="5.7066283"><ele>228.0</ele><time>2026-05-01T13:33:56.257Z</time></trkpt><trkpt lat="45.150735" lon="5.706685"><ele>228.0</ele><time>2026-05-01T13:33:57.257Z</time></trkpt><trkpt lat="45.150855" lon="5.7067133"><ele>228.5</ele><time>2026-05-01T13:33:58.257Z</time></trkpt><trkpt lat="45.150975" lon="5.7067183"><ele>229.0</ele><time>2026-05-01T13:33:59.257Z</time></trkpt><trkpt lat="45.1510933" lon="5.7067533"><ele>229.5</ele><time>2026-05-01T13:34:00.256Z</time></trkpt><trkpt lat="45.1512267" lon="5.70678"><ele>230.0</ele><time>2026-05-01T13:34:01.257Z</time></trkpt><trkpt lat="45.151355" lon="5.7068067"><ele>230.0</ele><time>2026-05-01T13:34:02.257Z</time></trkpt><trkpt lat="45.1514867" lon="5.7068367"><ele>230.0</ele><time>2026-05-01T13:34:03.256Z</time></trkpt><trkpt lat="45.1516167" lon="5.7068767"><ele>230.0</ele><time>2026-05-01T13:34:04.257Z</time></trkpt><trkpt lat="45.1517217" lon="5.7069117"><ele>230.0</ele><time>2026-05-01T13:34:05.257Z</time></trkpt><trkpt lat="45.1518067" lon="5.7069317"><ele>229.4</ele><time>2026-05-01T13:34:06.257Z</time></trkpt><trkpt lat="45.151885" lon="5.706945"><ele>228.8</ele><time>2026-05-01T13:34:08.257Z</time></trkpt><trkpt lat="45.1519283" lon="5.7069783"><ele>228.2</ele><time>2026-05-01T13:34:44.256Z</time></trkpt><trkpt lat="45.1520067" lon="5.7069967"><ele>227.6</ele><time>2026-05-01T13:34:45.255Z</time></trkpt><trkpt lat="45.15213" lon="5.7070233"><ele>227.0</ele><time>2026-05-01T13:34:46.256Z</time></trkpt><trkpt lat="45.152255" lon="5.70706"><ele>228.0</ele><time>2026-05-01T13:34:47.256Z</time></trkpt><trkpt lat="45.1523917" lon="5.7071133"><ele>229.0</ele><time>2026-05-01T13:34:48.256Z</time></trkpt><trkpt lat="45.1527567" lon="5.70727"><ele>229.0</ele><time>2026-05-01T13:34:50.256Z</time></trkpt><trkpt lat="45.1529317" lon="5.7073367"><ele>229.0</ele><time>2026-05-01T13:34:51.256Z</time></trkpt><trkpt lat="45.1531167" lon="5.7074033"><ele>229.0</ele><time>2026-05-01T13:34:52.256Z</time></trkpt><trkpt lat="45.15331" lon="5.70747"><ele>227.5</ele><time>2026-05-01T13:34:53.256Z</time></trkpt><trkpt lat="45.15353" lon="5.7075317"><ele>226.0</ele><time>2026-05-01T13:34:54.255Z</time></trkpt><trkpt lat="45.1537567" lon="5.7076083"><ele>226.0</ele><time>2026-05-01T13:34:55.256Z</time></trkpt><trkpt lat="45.1539967" lon="5.7077083"><ele>226.0</ele><time>2026-05-01T13:34:56.255Z</time></trkpt><trkpt lat="45.154235" lon="5.7077933"><ele>226.5</ele><time>2026-05-01T13:34:57.256Z</time></trkpt><trkpt lat="45.1544817" lon="5.7078817"><ele>227.0</ele><time>2026-05-01T13:34:58.255Z</time></trkpt><trkpt lat="45.1547317" lon="5.70796"><ele>227.5</ele><time>2026-05-01T13:34:59.256Z</time></trkpt><trkpt lat="45.154975" lon="5.7080383"><ele>228.0</ele><time>2026-05-01T13:35:00.256Z</time></trkpt><trkpt lat="45.1552267" lon="5.7081183"><ele>228.0</ele><time>2026-05-01T13:35:01.256Z</time></trkpt><trkpt lat="45.1554617" lon="5.7081883"><ele>228.0</ele><time>2026-05-01T13:35:02.256Z</time></trkpt><trkpt lat="45.155695" lon="5.7082633"><ele>226.5</ele><time>2026-05-01T13:35:03.255Z</time></trkpt><trkpt lat="45.1559217" lon="5.7083317"><ele>225.0</ele><time>2026-05-01T13:35:04.256Z</time></trkpt><trkpt lat="45.15614" lon="5.708415"><ele>225.0</ele><time>2026-05-01T13:35:05.256Z</time></trkpt><trkpt lat="45.156365" lon="5.70848"><ele>225.0</ele><time>2026-05-01T13:35:06.256Z</time></trkpt><trkpt lat="45.1565617" lon="5.7085433"><ele>225.0</ele><time>2026-05-01T13:35:07.256Z</time></trkpt><trkpt lat="45.15676" lon="5.7086117"><ele>226.5</ele><time>2026-05-01T13:35:08.256Z</time></trkpt><trkpt lat="45.156975" lon="5.7086817"><ele>228.0</ele><time>2026-05-01T13:35:09.255Z</time></trkpt><trkpt lat="45.1573633" lon="5.7088067"><ele>227.0</ele><time>2026-05-01T13:35:11.255Z</time></trkpt><trkpt lat="45.157545" lon="5.7088567"><ele>226.0</ele><time>2026-05-01T13:35:12.256Z</time></trkpt><trkpt lat="45.1577083" lon="5.7089133"><ele>225.0</ele><time>2026-05-01T13:35:13.255Z</time></trkpt><trkpt lat="45.157855" lon="5.7089667"><ele>225.0</ele><time>2026-05-01T13:35:14.256Z</time></trkpt><trkpt lat="45.1579767" lon="5.7090017"><ele>225.0</ele><time>2026-05-01T13:35:15.256Z</time></trkpt><trkpt lat="45.1580717" lon="5.709015"><ele>225.0</ele><time>2026-05-01T13:35:16.256Z</time></trkpt><trkpt lat="45.1581533" lon="5.7090383"><ele>225.0</ele><time>2026-05-01T13:35:17.255Z</time></trkpt><trkpt lat="45.158255" lon="5.709065"><ele>225.0</ele><time>2026-05-01T13:35:19.256Z</time></trkpt><trkpt lat="45.1583167" lon="5.709085"><ele>224.5</ele><time>2026-05-01T13:35:52.255Z</time></trkpt><trkpt lat="45.1584933" lon="5.70914"><ele>224.0</ele><time>2026-05-01T13:35:54.256Z</time></trkpt><trkpt lat="45.1585883" lon="5.7091667"><ele>223.5</ele><time>2026-05-01T13:35:55.256Z</time></trkpt><trkpt lat="45.1586883" lon="5.7091983"><ele>223.0</ele><time>2026-05-01T13:35:56.256Z</time></trkpt><trkpt lat="45.1587983" lon="5.70924"><ele>223.0</ele><time>2026-05-01T13:35:57.256Z</time></trkpt><trkpt lat="45.1589233" lon="5.709285"><ele>223.0</ele><time>2026-05-01T13:35:58.256Z</time></trkpt><trkpt lat="45.1590433" lon="5.7093317"><ele>223.0</ele><time>2026-05-01T13:35:59.256Z</time></trkpt><trkpt lat="45.15917" lon="5.709385"><ele>223.0</ele><time>2026-05-01T13:36:00.255Z</time></trkpt><trkpt lat="45.1593067" lon="5.7094367"><ele>223.25</ele><time>2026-05-01T13:36:01.256Z</time></trkpt><trkpt lat="45.1594517" lon="5.709465"><ele>223.5</ele><time>2026-05-01T13:36:02.256Z</time></trkpt><trkpt lat="45.1595867" lon="5.7094967"><ele>223.75</ele><time>2026-05-01T13:36:03.256Z</time></trkpt><trkpt lat="45.159715" lon="5.7095117"><ele>224.0</ele><time>2026-05-01T13:36:04.256Z</time></trkpt><trkpt lat="45.1598267" lon="5.70955"><ele>223.79999999999998</ele><time>2026-05-01T13:36:05.256Z</time></trkpt><trkpt lat="45.159925" lon="5.70959"><ele>223.59999999999997</ele><time>2026-05-01T13:36:06.255Z</time></trkpt><trkpt lat="45.1600283" lon="5.7096283"><ele>223.4</ele><time>2026-05-01T13:36:07.256Z</time></trkpt><trkpt lat="45.1601267" lon="5.7096717"><ele>223.2</ele><time>2026-05-01T13:36:08.255Z</time></trkpt><trkpt lat="45.1602217" lon="5.7097033"><ele>223.0</ele><time>2026-05-01T13:36:09.255Z</time></trkpt><trkpt lat="45.1603083" lon="5.7097267"><ele>223.0</ele><time>2026-05-01T13:36:10.256Z</time></trkpt><trkpt lat="45.160385" lon="5.70975"><ele>223.0</ele><time>2026-05-01T13:36:11.256Z</time></trkpt><trkpt lat="45.16049" lon="5.7097733"><ele>223.0</ele><time>2026-05-01T13:36:13.256Z</time></trkpt><trkpt lat="45.1607167" lon="5.7098783"><ele>223.0</ele><time>2026-05-01T13:36:24.256Z</time></trkpt><trkpt lat="45.160835" lon="5.709925"><ele>223.66666666666666</ele><time>2026-05-01T13:36:25.256Z</time></trkpt><trkpt lat="45.16098" lon="5.709985"><ele>224.33333333333331</ele><time>2026-05-01T13:36:26.256Z</time></trkpt><trkpt lat="45.161155" lon="5.7100467"><ele>225.0</ele><time>2026-05-01T13:36:27.256Z</time></trkpt><trkpt lat="45.1613217" lon="5.7101083"><ele>225.0</ele><time>2026-05-01T13:36:28.256Z</time></trkpt><trkpt lat="45.161495" lon="5.7101767"><ele>225.0</ele><time>2026-05-01T13:36:29.256Z</time></trkpt><trkpt lat="45.161655" lon="5.710245"><ele>225.0</ele><time>2026-05-01T13:36:30.256Z</time></trkpt><trkpt lat="45.1618267" lon="5.7102933"><ele>225.0</ele><time>2026-05-01T13:36:31.256Z</time></trkpt><trkpt lat="45.1620167" lon="5.71036"><ele>225.0</ele><time>2026-05-01T13:36:32.255Z</time></trkpt><trkpt lat="45.1622083" lon="5.7103967"><ele>225.0</ele><time>2026-05-01T13:36:33.256Z</time></trkpt><trkpt lat="45.162405" lon="5.7104867"><ele>225.0</ele><time>2026-05-01T13:36:34.256Z</time></trkpt><trkpt lat="45.1627433" lon="5.7106183"><ele>225.0</ele><time>2026-05-01T13:36:36.256Z</time></trkpt><trkpt lat="45.162915" lon="5.7106767"><ele>225.0</ele><time>2026-05-01T13:36:37.256Z</time></trkpt><trkpt lat="45.1630767" lon="5.710725"><ele>225.0</ele><time>2026-05-01T13:36:38.256Z</time></trkpt><trkpt lat="45.1632233" lon="5.710775"><ele>225.0</ele><time>2026-05-01T13:36:39.255Z</time></trkpt><trkpt lat="45.1633467" lon="5.7108233"><ele>225.0</ele><time>2026-05-01T13:36:40.256Z</time></trkpt><trkpt lat="45.16345" lon="5.7108467"><ele>225.4</ele><time>2026-05-01T13:36:41.256Z</time></trkpt><trkpt lat="45.1635433" lon="5.7108717"><ele>225.8</ele><time>2026-05-01T13:36:42.256Z</time></trkpt><trkpt lat="45.1636383" lon="5.7108967"><ele>226.2</ele><time>2026-05-01T13:36:43.256Z</time></trkpt><trkpt lat="45.1637267" lon="5.7109167"><ele>226.6</ele><time>2026-05-01T13:36:44.256Z</time></trkpt><trkpt lat="45.1638133" lon="5.71095"><ele>227.0</ele><time>2026-05-01T13:36:45.256Z</time></trkpt><trkpt lat="45.16389" lon="5.7109817"><ele>227.0</ele><time>2026-05-01T13:36:46.256Z</time></trkpt><trkpt lat="45.1639833" lon="5.7110183"><ele>227.0</ele><time>2026-05-01T13:36:48.256Z</time></trkpt><trkpt lat="45.164085" lon="5.7110783"><ele>227.0</ele><time>2026-05-01T13:37:09.256Z</time></trkpt><trkpt lat="45.1643" lon="5.7111433"><ele>227.0</ele><time>2026-05-01T13:37:12.256Z</time></trkpt><trkpt lat="45.1643683" lon="5.7111717"><ele>226.2</ele><time>2026-05-01T13:37:13.256Z</time></trkpt><trkpt lat="45.1644317" lon="5.7111917"><ele>225.39999999999998</ele><time>2026-05-01T13:37:14.255Z</time></trkpt><trkpt lat="45.1644867" lon="5.7111167"><ele>224.60000000000002</ele><time>2026-05-01T13:37:17.256Z</time></trkpt><trkpt lat="45.164565" lon="5.7109633"><ele>223.8</ele><time>2026-05-01T13:37:19.256Z</time></trkpt><trkpt lat="45.164615" lon="5.710845"><ele>223.0</ele><time>2026-05-01T13:37:20.256Z</time></trkpt><trkpt lat="45.1646717" lon="5.710695"><ele>223.0</ele><time>2026-05-01T13:37:21.256Z</time></trkpt><trkpt lat="45.1647483" lon="5.7105433"><ele>223.0</ele><time>2026-05-01T13:37:22.256Z</time></trkpt><trkpt lat="45.1648467" lon="5.7103483"><ele>223.0</ele><time>2026-05-01T13:37:23.256Z</time></trkpt><trkpt lat="45.1649383" lon="5.7101617"><ele>222.33333333333331</ele><time>2026-05-01T13:37:24.255Z</time></trkpt><trkpt lat="45.1650233" lon="5.70998"><ele>221.66666666666669</ele><time>2026-05-01T13:37:25.255Z</time></trkpt><trkpt lat="45.1651183" lon="5.7097933"><ele>221.0</ele><time>2026-05-01T13:37:26.256Z</time></trkpt><trkpt lat="45.1652033" lon="5.7096117"><ele>221.0</ele><time>2026-05-01T13:37:27.256Z</time></trkpt><trkpt lat="45.1652967" lon="5.709425"><ele>221.0</ele><time>2026-05-01T13:37:28.256Z</time></trkpt><trkpt lat="45.165395" lon="5.7092317"><ele>221.0</ele><time>2026-05-01T13:37:29.255Z</time></trkpt><trkpt lat="45.1654983" lon="5.7090383"><ele>222.0</ele><time>2026-05-01T13:37:30.256Z</time></trkpt><trkpt lat="45.1657117" lon="5.7086617"><ele>223.0</ele><time>2026-05-01T13:37:32.255Z</time></trkpt><trkpt lat="45.1658117" lon="5.7084633"><ele>223.0</ele><time>2026-05-01T13:37:33.255Z</time></trkpt><trkpt lat="45.165925" lon="5.7082967"><ele>223.0</ele><time>2026-05-01T13:37:34.256Z</time></trkpt><trkpt lat="45.1660117" lon="5.70808"><ele>223.0</ele><time>2026-05-01T13:37:35.256Z</time></trkpt><trkpt lat="45.1661083" lon="5.7078583"><ele>222.0</ele><time>2026-05-01T13:37:36.256Z</time></trkpt><trkpt lat="45.1662117" lon="5.707625"><ele>221.0</ele><time>2026-05-01T13:37:37.256Z</time></trkpt><trkpt lat="45.1663117" lon="5.707405"><ele>220.0</ele><time>2026-05-01T13:37:38.255Z</time></trkpt><trkpt lat="45.1664133" lon="5.7072"><ele>220.0</ele><time>2026-05-01T13:37:39.256Z</time></trkpt><trkpt lat="45.166515" lon="5.706995"><ele>220.0</ele><time>2026-05-01T13:37:40.256Z</time></trkpt><trkpt lat="45.1666083" lon="5.7068083"><ele>220.0</ele><time>2026-05-01T13:37:41.256Z</time></trkpt><trkpt lat="45.1666983" lon="5.70663"><ele>220.66666666666666</ele><time>2026-05-01T13:37:42.255Z</time></trkpt><trkpt lat="45.1667917" lon="5.7064517"><ele>221.33333333333331</ele><time>2026-05-01T13:37:43.256Z</time></trkpt><trkpt lat="45.1668667" lon="5.70628"><ele>222.0</ele><time>2026-05-01T13:37:44.256Z</time></trkpt><trkpt lat="45.1669567" lon="5.7060883"><ele>222.5</ele><time>2026-05-01T13:37:45.255Z</time></trkpt><trkpt lat="45.1670433" lon="5.7059067"><ele>223.0</ele><time>2026-05-01T13:37:46.256Z</time></trkpt><trkpt lat="45.1671167" lon="5.70576"><ele>223.5</ele><time>2026-05-01T13:37:47.256Z</time></trkpt><trkpt lat="45.1671817" lon="5.7056317"><ele>224.0</ele><time>2026-05-01T13:37:48.256Z</time></trkpt><trkpt lat="45.1672383" lon="5.7055233"><ele>224.0</ele><time>2026-05-01T13:37:49.256Z</time></trkpt><trkpt lat="45.1672883" lon="5.7054317"><ele>223.99999999999997</ele><time>2026-05-01T13:37:50.256Z</time></trkpt><trkpt lat="45.1673367" lon="5.70535"><ele>223.99999999999997</ele><time>2026-05-01T13:37:51.256Z</time></trkpt><trkpt lat="45.16742" lon="5.705205"><ele>224.0</ele><time>2026-05-01T13:37:53.255Z</time></trkpt><trkpt lat="45.1674967" lon="5.7050933"><ele>224.0</ele><time>2026-05-01T13:37:55.255Z</time></trkpt><trkpt lat="45.1675567" lon="5.7049917"><ele>223.5</ele><time>2026-05-01T13:37:57.256Z</time></trkpt><trkpt lat="45.1676017" lon="5.7049217"><ele>223.0</ele><time>2026-05-01T13:37:59.256Z</time></trkpt><trkpt lat="45.1676383" lon="5.7048433"><ele>222.5</ele><time>2026-05-01T13:38:30.255Z</time></trkpt><trkpt lat="45.1677917" lon="5.7046867"><ele>222.0</ele><time>2026-05-01T13:38:34.256Z</time></trkpt><trkpt lat="45.16793" lon="5.70475"><ele>222.0</ele><time>2026-05-01T13:38:36.256Z</time></trkpt><trkpt lat="45.1680083" lon="5.704795"><ele>222.0</ele><time>2026-05-01T13:38:37.256Z</time></trkpt><trkpt lat="45.1680933" lon="5.70482"><ele>222.0</ele><time>2026-05-01T13:38:38.256Z</time></trkpt><trkpt lat="45.1681867" lon="5.7048167"><ele>222.0</ele><time>2026-05-01T13:38:39.255Z</time></trkpt><trkpt lat="45.1682967" lon="5.7048217"><ele>222.0</ele><time>2026-05-01T13:38:40.255Z</time></trkpt><trkpt lat="45.1684267" lon="5.704825"><ele>222.75</ele><time>2026-05-01T13:38:41.256Z</time></trkpt><trkpt lat="45.1685617" lon="5.7048383"><ele>223.5</ele><time>2026-05-01T13:38:42.256Z</time></trkpt><trkpt lat="45.1686817" lon="5.70484"><ele>224.25</ele><time>2026-05-01T13:38:43.256Z</time></trkpt><trkpt lat="45.1688117" lon="5.7048917"><ele>225.0</ele><time>2026-05-01T13:38:44.255Z</time></trkpt><trkpt lat="45.1689367" lon="5.7049083"><ele>224.75</ele><time>2026-05-01T13:38:45.256Z</time></trkpt><trkpt lat="45.1690517" lon="5.7049067"><ele>224.5</ele><time>2026-05-01T13:38:46.256Z</time></trkpt><trkpt lat="45.1691817" lon="5.7048983"><ele>224.25</ele><time>2026-05-01T13:38:47.256Z</time></trkpt><trkpt lat="45.1693233" lon="5.7048933"><ele>224.0</ele><time>2026-05-01T13:38:48.256Z</time></trkpt><trkpt lat="45.1694733" lon="5.7048967"><ele>224.0</ele><time>2026-05-01T13:38:49.255Z</time></trkpt><trkpt lat="45.1696417" lon="5.7049017"><ele>224.0</ele><time>2026-05-01T13:38:50.255Z</time></trkpt><trkpt lat="45.1697967" lon="5.7048883"><ele>224.0</ele><time>2026-05-01T13:38:51.256Z</time></trkpt><trkpt lat="45.1701033" lon="5.7048967"><ele>224.75</ele><time>2026-05-01T13:38:53.256Z</time></trkpt><trkpt lat="45.170245" lon="5.7048983"><ele>225.5</ele><time>2026-05-01T13:38:54.256Z</time></trkpt><trkpt lat="45.170385" lon="5.7048933"><ele>226.25</ele><time>2026-05-01T13:38:55.256Z</time></trkpt><trkpt lat="45.1704867" lon="5.70489"><ele>227.0</ele><time>2026-05-01T13:38:56.256Z</time></trkpt><trkpt lat="45.1705833" lon="5.7049"><ele>227.0</ele><time>2026-05-01T13:38:57.256Z</time></trkpt><trkpt lat="45.17068" lon="5.704915"><ele>227.0</ele><time>2026-05-01T13:38:58.256Z</time></trkpt><trkpt lat="45.170785" lon="5.70492"><ele>227.0</ele><time>2026-05-01T13:38:59.256Z</time></trkpt><trkpt lat="45.1709017" lon="5.704945"><ele>227.0</ele><time>2026-05-01T13:39:00.256Z</time></trkpt><trkpt lat="45.1710183" lon="5.7049517"><ele>227.0</ele><time>2026-05-01T13:39:01.256Z</time></trkpt><trkpt lat="45.17112" lon="5.7049783"><ele>227.2</ele><time>2026-05-01T13:39:02.256Z</time></trkpt><trkpt lat="45.1712083" lon="5.7049983"><ele>227.39999999999998</ele><time>2026-05-01T13:39:03.256Z</time></trkpt><trkpt lat="45.171305" lon="5.7050083"><ele>227.60000000000002</ele><time>2026-05-01T13:39:04.255Z</time></trkpt><trkpt lat="45.1714017" lon="5.70503"><ele>227.8</ele><time>2026-05-01T13:39:05.256Z</time></trkpt><trkpt lat="45.1715183" lon="5.7050517"><ele>228.0</ele><time>2026-05-01T13:39:06.256Z</time></trkpt><trkpt lat="45.1716467" lon="5.7050533"><ele>227.25</ele><time>2026-05-01T13:39:07.256Z</time></trkpt><trkpt lat="45.17176" lon="5.7050717"><ele>226.5</ele><time>2026-05-01T13:39:08.256Z</time></trkpt><trkpt lat="45.1718817" lon="5.7051017"><ele>225.75</ele><time>2026-05-01T13:39:09.256Z</time></trkpt><trkpt lat="45.1720017" lon="5.7051133"><ele>225.0</ele><time>2026-05-01T13:39:10.255Z</time></trkpt><trkpt lat="45.1721083" lon="5.705125"><ele>225.0</ele><time>2026-05-01T13:39:11.256Z</time></trkpt><trkpt lat="45.1721917" lon="5.705115"><ele>225.0</ele><time>2026-05-01T13:39:12.255Z</time></trkpt><trkpt lat="45.1723533" lon="5.70511"><ele>225.0</ele><time>2026-05-01T13:39:15.256Z</time></trkpt><trkpt lat="45.1724183" lon="5.7050683"><ele>225.0</ele><time>2026-05-01T13:39:41.255Z</time></trkpt><trkpt lat="45.172675" lon="5.70503"><ele>223.5</ele><time>2026-05-01T13:39:44.255Z</time></trkpt><trkpt lat="45.1730083" lon="5.7050517"><ele>222.0</ele><time>2026-05-01T13:39:46.254Z</time></trkpt><trkpt lat="45.1731617" lon="5.705045"><ele>221.5</ele><time>2026-05-01T13:39:47.255Z</time></trkpt><trkpt lat="45.1733067" lon="5.7050483"><ele>221.0</ele><time>2026-05-01T13:39:48.255Z</time></trkpt><trkpt lat="45.17343" lon="5.70508"><ele>220.5</ele><time>2026-05-01T13:39:49.255Z</time></trkpt><trkpt lat="45.1735383" lon="5.705095"><ele>220.0</ele><time>2026-05-01T13:39:50.255Z</time></trkpt><trkpt lat="45.1736333" lon="5.7051117"><ele>219.99999999999997</ele><time>2026-05-01T13:39:51.254Z</time></trkpt><trkpt lat="45.17371" lon="5.7051167"><ele>220.0</ele><time>2026-05-01T13:39:52.255Z</time></trkpt><trkpt lat="45.17378" lon="5.70512"><ele>220.0</ele><time>2026-05-01T13:39:53.255Z</time></trkpt><trkpt lat="45.1738433" lon="5.7051217"><ele>220.0</ele><time>2026-05-01T13:39:54.255Z</time></trkpt><trkpt lat="45.1739317" lon="5.7051183"><ele>219.99999999999997</ele><time>2026-05-01T13:39:56.254Z</time></trkpt><trkpt lat="45.1740017" lon="5.7051217"><ele>220.0</ele><time>2026-05-01T13:39:58.254Z</time></trkpt><trkpt lat="45.1741083" lon="5.7051383"><ele>220.2</ele><time>2026-05-01T13:40:00.255Z</time></trkpt><trkpt lat="45.1741867" lon="5.7051417"><ele>220.4</ele><time>2026-05-01T13:40:01.254Z</time></trkpt><trkpt lat="45.1742767" lon="5.7051383"><ele>220.60000000000002</ele><time>2026-05-01T13:40:02.255Z</time></trkpt><trkpt lat="45.174385" lon="5.7051383"><ele>220.8</ele><time>2026-05-01T13:40:03.254Z</time></trkpt><trkpt lat="45.1745" lon="5.705145"><ele>221.0</ele><time>2026-05-01T13:40:04.255Z</time></trkpt><trkpt lat="45.174615" lon="5.7051583"><ele>221.0</ele><time>2026-05-01T13:40:05.255Z</time></trkpt><trkpt lat="45.1750183" lon="5.7051767"><ele>221.0</ele><time>2026-05-01T13:40:08.255Z</time></trkpt><trkpt lat="45.1751767" lon="5.705215"><ele>220.75</ele><time>2026-05-01T13:40:09.254Z</time></trkpt><trkpt lat="45.1753333" lon="5.7052583"><ele>220.5</ele><time>2026-05-01T13:40:10.255Z</time></trkpt><trkpt lat="45.1754733" lon="5.7052533"><ele>220.25</ele><time>2026-05-01T13:40:11.255Z</time></trkpt><trkpt lat="45.1756083" lon="5.7052617"><ele>220.0</ele><time>2026-05-01T13:40:12.254Z</time></trkpt><trkpt lat="45.17574" lon="5.705295"><ele>219.5</ele><time>2026-05-01T13:40:13.255Z</time></trkpt><trkpt lat="45.17588" lon="5.7053183"><ele>219.0</ele><time>2026-05-01T13:40:14.255Z</time></trkpt><trkpt lat="45.1760267" lon="5.7053333"><ele>218.5</ele><time>2026-05-01T13:40:15.255Z</time></trkpt><trkpt lat="45.1761583" lon="5.7053767"><ele>218.0</ele><time>2026-05-01T13:40:16.255Z</time></trkpt><trkpt lat="45.1763083" lon="5.7053833"><ele>218.0</ele><time>2026-05-01T13:40:17.255Z</time></trkpt><trkpt lat="45.17647" lon="5.7053517"><ele>218.0</ele><time>2026-05-01T13:40:18.255Z</time></trkpt><trkpt lat="45.1766483" lon="5.7053367"><ele>218.0</ele><time>2026-05-01T13:40:19.255Z</time></trkpt><trkpt lat="45.1768067" lon="5.7053317"><ele>219.33333333333334</ele><time>2026-05-01T13:40:20.255Z</time></trkpt><trkpt lat="45.1769733" lon="5.7053383"><ele>220.66666666666669</ele><time>2026-05-01T13:40:21.255Z</time></trkpt><trkpt lat="45.177125" lon="5.70533"><ele>222.0</ele><time>2026-05-01T13:40:22.255Z</time></trkpt><trkpt lat="45.1772667" lon="5.7053467"><ele>221.25</ele><time>2026-05-01T13:40:23.255Z</time></trkpt><trkpt lat="45.1773917" lon="5.7053517"><ele>220.5</ele><time>2026-05-01T13:40:24.254Z</time></trkpt><trkpt lat="45.1775317" lon="5.70536"><ele>219.75</ele><time>2026-05-01T13:40:25.254Z</time></trkpt><trkpt lat="45.1776733" lon="5.70537"><ele>219.0</ele><time>2026-05-01T13:40:26.255Z</time></trkpt><trkpt lat="45.1778117" lon="5.705375"><ele>220.0</ele><time>2026-05-01T13:40:27.255Z</time></trkpt><trkpt lat="45.1782417" lon="5.705425"><ele>221.0</ele><time>2026-05-01T13:40:30.255Z</time></trkpt><trkpt lat="45.1783867" lon="5.705435"><ele>221.0</ele><time>2026-05-01T13:40:31.255Z</time></trkpt><trkpt lat="45.1785467" lon="5.7054267"><ele>221.0</ele><time>2026-05-01T13:40:32.255Z</time></trkpt><trkpt lat="45.1786933" lon="5.7054333"><ele>221.0</ele><time>2026-05-01T13:40:33.255Z</time></trkpt><trkpt lat="45.178835" lon="5.7054367"><ele>221.0</ele><time>2026-05-01T13:40:34.254Z</time></trkpt><trkpt lat="45.1789717" lon="5.70544"><ele>221.0</ele><time>2026-05-01T13:40:35.254Z</time></trkpt><trkpt lat="45.17912" lon="5.7054767"><ele>221.0</ele><time>2026-05-01T13:40:36.254Z</time></trkpt><trkpt lat="45.17926" lon="5.7054933"><ele>221.0</ele><time>2026-05-01T13:40:37.255Z</time></trkpt><trkpt lat="45.1793983" lon="5.7054983"><ele>221.0</ele><time>2026-05-01T13:40:38.255Z</time></trkpt><trkpt lat="45.1795133" lon="5.7054883"><ele>221.0</ele><time>2026-05-01T13:40:39.255Z</time></trkpt><trkpt lat="45.1796133" lon="5.7054933"><ele>221.00000000000003</ele><time>2026-05-01T13:40:40.255Z</time></trkpt><trkpt lat="45.1796817" lon="5.70547"><ele>221.00000000000003</ele><time>2026-05-01T13:40:41.255Z</time></trkpt><trkpt lat="45.1797467" lon="5.7054783"><ele>221.0</ele><time>2026-05-01T13:40:42.254Z</time></trkpt><trkpt lat="45.1798467" lon="5.70549"><ele>221.0</ele><time>2026-05-01T13:40:44.255Z</time></trkpt><trkpt lat="45.1799633" lon="5.7055333"><ele>220.8</ele><time>2026-05-01T13:42:19.255Z</time></trkpt><trkpt lat="45.1800617" lon="5.7055433"><ele>220.60000000000002</ele><time>2026-05-01T13:42:21.254Z</time></trkpt><trkpt lat="45.1802017" lon="5.705485"><ele>220.4</ele><time>2026-05-01T13:42:25.255Z</time></trkpt><trkpt lat="45.1801767" lon="5.705385"><ele>220.2</ele><time>2026-05-01T13:42:41.255Z</time></trkpt><trkpt lat="45.1801683" lon="5.70523"><ele>220.0</ele><time>2026-05-01T13:42:43.255Z</time></trkpt><trkpt lat="45.1801717" lon="5.7051017"><ele>220.0</ele><time>2026-05-01T13:42:44.254Z</time></trkpt><trkpt lat="45.1801783" lon="5.7047883"><ele>220.0</ele><time>2026-05-01T13:42:46.255Z</time></trkpt><trkpt lat="45.18017" lon="5.70464"><ele>220.0</ele><time>2026-05-01T13:42:47.255Z</time></trkpt><trkpt lat="45.180165" lon="5.7045033"><ele>220.0</ele><time>2026-05-01T13:42:48.255Z</time></trkpt><trkpt lat="45.1801583" lon="5.7043867"><ele>220.2</ele><time>2026-05-01T13:42:49.254Z</time></trkpt><trkpt lat="45.18015" lon="5.7042667"><ele>220.4</ele><time>2026-05-01T13:42:50.255Z</time></trkpt><trkpt lat="45.18014" lon="5.7041617"><ele>220.60000000000002</ele><time>2026-05-01T13:42:51.254Z</time></trkpt><trkpt lat="45.1801317" lon="5.7040533"><ele>220.8</ele><time>2026-05-01T13:42:52.255Z</time></trkpt><trkpt lat="45.1801233" lon="5.7038367"><ele>221.0</ele><time>2026-05-01T13:42:54.255Z</time></trkpt><trkpt lat="45.1801233" lon="5.70371"><ele>220.0</ele><time>2026-05-01T13:42:55.254Z</time></trkpt><trkpt lat="45.18012" lon="5.7035633"><ele>219.0</ele><time>2026-05-01T13:42:56.254Z</time></trkpt><trkpt lat="45.1801133" lon="5.7032117"><ele>218.0</ele><time>2026-05-01T13:42:58.255Z</time></trkpt><trkpt lat="45.1801167" lon="5.7030367"><ele>218.0</ele><time>2026-05-01T13:42:59.254Z</time></trkpt><trkpt lat="45.18012" lon="5.7028367"><ele>218.0</ele><time>2026-05-01T13:43:00.254Z</time></trkpt><trkpt lat="45.180165" lon="5.7024033"><ele>218.33333333333334</ele><time>2026-05-01T13:43:02.254Z</time></trkpt><trkpt lat="45.18017" lon="5.70217"><ele>218.66666666666669</ele><time>2026-05-01T13:43:03.254Z</time></trkpt><trkpt lat="45.1801683" lon="5.70196"><ele>219.0</ele><time>2026-05-01T13:43:04.255Z</time></trkpt><trkpt lat="45.1801683" lon="5.70175"><ele>219.0</ele><time>2026-05-01T13:43:05.255Z</time></trkpt><trkpt lat="45.1801717" lon="5.7015333"><ele>219.0</ele><time>2026-05-01T13:43:06.255Z</time></trkpt><trkpt lat="45.1801783" lon="5.7012983"><ele>219.0</ele><time>2026-05-01T13:43:07.254Z</time></trkpt></trkseg><trkseg><trkpt lat="45.1937567" lon="5.6782017"><ele>208.0</ele><time>2026-05-01T13:47:59.934Z</time></trkpt><trkpt lat="45.1938283" lon="5.6779833"><ele>208.0</ele><time>2026-05-01T13:48:00.934Z</time></trkpt><trkpt lat="45.1938517" lon="5.6773667"><ele>208.33333333333331</ele><time>2026-05-01T13:48:03.257Z</time></trkpt><trkpt lat="45.193965" lon="5.677115"><ele>208.66666666666669</ele><time>2026-05-01T13:48:04.257Z</time></trkpt><trkpt lat="45.1940633" lon="5.6769383"><ele>209.0</ele><time>2026-05-01T13:48:05.257Z</time></trkpt><trkpt lat="45.1941533" lon="5.67668"><ele>208.33333333333334</ele><time>2026-05-01T13:48:06.256Z</time></trkpt><trkpt lat="45.1942467" lon="5.676485"><ele>207.66666666666669</ele><time>2026-05-01T13:48:07.256Z</time></trkpt><trkpt lat="45.1943217" lon="5.6762683"><ele>207.0</ele><time>2026-05-01T13:48:08.257Z</time></trkpt><trkpt lat="45.1944217" lon="5.6760783"><ele>208.33333333333331</ele><time>2026-05-01T13:48:09.257Z</time></trkpt><trkpt lat="45.19452" lon="5.6758717"><ele>209.66666666666666</ele><time>2026-05-01T13:48:10.257Z</time></trkpt><trkpt lat="45.1946283" lon="5.6756817"><ele>211.0</ele><time>2026-05-01T13:48:11.257Z</time></trkpt><trkpt lat="45.1947483" lon="5.67554"><ele>211.25</ele><time>2026-05-01T13:48:12.256Z</time></trkpt><trkpt lat="45.194875" lon="5.6754133"><ele>211.5</ele><time>2026-05-01T13:48:13.257Z</time></trkpt><trkpt lat="45.1949933" lon="5.6752867"><ele>211.75</ele><time>2026-05-01T13:48:14.257Z</time></trkpt><trkpt lat="45.1951133" lon="5.675175"><ele>212.0</ele><time>2026-05-01T13:48:15.257Z</time></trkpt><trkpt lat="45.1952283" lon="5.6750667"><ele>212.0</ele><time>2026-05-01T13:48:16.257Z</time></trkpt><trkpt lat="45.1953467" lon="5.6749517"><ele>212.0</ele><time>2026-05-01T13:48:17.256Z</time></trkpt><trkpt lat="45.1954667" lon="5.674855"><ele>212.0</ele><time>2026-05-01T13:48:18.257Z</time></trkpt><trkpt lat="45.1955733" lon="5.674765"><ele>212.0</ele><time>2026-05-01T13:48:19.256Z</time></trkpt><trkpt lat="45.1956633" lon="5.6746917"><ele>211.6</ele><time>2026-05-01T13:48:20.257Z</time></trkpt><trkpt lat="45.1957433" lon="5.67462"><ele>211.2</ele><time>2026-05-01T13:48:21.256Z</time></trkpt><trkpt lat="45.1958217" lon="5.674545"><ele>210.8</ele><time>2026-05-01T13:48:22.257Z</time></trkpt><trkpt lat="45.1958933" lon="5.6744583"><ele>210.4</ele><time>2026-05-01T13:48:23.257Z</time></trkpt><trkpt lat="45.1959567" lon="5.674365"><ele>210.0</ele><time>2026-05-01T13:48:24.257Z</time></trkpt><trkpt lat="45.1960183" lon="5.674245"><ele>210.0</ele><time>2026-05-01T13:48:25.257Z</time></trkpt><trkpt lat="45.1960833" lon="5.674095"><ele>210.0</ele><time>2026-05-01T13:48:26.256Z</time></trkpt><trkpt lat="45.1961533" lon="5.6739417"><ele>210.0</ele><time>2026-05-01T13:48:27.257Z</time></trkpt><trkpt lat="45.1962267" lon="5.6738017"><ele>210.0</ele><time>2026-05-01T13:48:28.256Z</time></trkpt><trkpt lat="45.1963017" lon="5.6736817"><ele>209.5</ele><time>2026-05-01T13:48:29.257Z</time></trkpt><trkpt lat="45.1963817" lon="5.6735583"><ele>209.0</ele><time>2026-05-01T13:48:30.256Z</time></trkpt><trkpt lat="45.1964617" lon="5.6734217"><ele>208.5</ele><time>2026-05-01T13:48:31.257Z</time></trkpt><trkpt lat="45.1965367" lon="5.673275"><ele>208.0</ele><time>2026-05-01T13:48:32.256Z</time></trkpt><trkpt lat="45.19662" lon="5.6731283"><ele>208.0</ele><time>2026-05-01T13:48:33.257Z</time></trkpt><trkpt lat="45.1967133" lon="5.6729883"><ele>208.0</ele><time>2026-05-01T13:48:34.257Z</time></trkpt><trkpt lat="45.1968133" lon="5.672845"><ele>208.0</ele><time>2026-05-01T13:48:35.257Z</time></trkpt><trkpt lat="45.196925" lon="5.6726983"><ele>208.0</ele><time>2026-05-01T13:48:36.257Z</time></trkpt><trkpt lat="45.1970467" lon="5.6725417"><ele>208.0</ele><time>2026-05-01T13:48:37.256Z</time></trkpt><trkpt lat="45.197165" lon="5.6723983"><ele>208.0</ele><time>2026-05-01T13:48:38.257Z</time></trkpt><trkpt lat="45.197275" lon="5.6722683"><ele>208.0</ele><time>2026-05-01T13:48:39.256Z</time></trkpt><trkpt lat="45.1973783" lon="5.672145"><ele>208.0</ele><time>2026-05-01T13:48:40.257Z</time></trkpt><trkpt lat="45.1974783" lon="5.67202"><ele>208.0</ele><time>2026-05-01T13:48:41.257Z</time></trkpt><trkpt lat="45.197575" lon="5.67191"><ele>208.0</ele><time>2026-05-01T13:48:42.257Z</time></trkpt><trkpt lat="45.1976767" lon="5.6718"><ele>208.0</ele><time>2026-05-01T13:48:43.257Z</time></trkpt><trkpt lat="45.1977833" lon="5.671695"><ele>208.0</ele><time>2026-05-01T13:48:44.257Z</time></trkpt><trkpt lat="45.1978967" lon="5.6715967"><ele>208.0</ele><time>2026-05-01T13:48:45.256Z</time></trkpt><trkpt lat="45.1980033" lon="5.6714983"><ele>208.0</ele><time>2026-05-01T13:48:46.256Z</time></trkpt><trkpt lat="45.198095" lon="5.67141"><ele>208.0</ele><time>2026-05-01T13:48:47.257Z</time></trkpt><trkpt lat="45.19818" lon="5.6713283"><ele>208.0</ele><time>2026-05-01T13:48:48.257Z</time></trkpt><trkpt lat="45.1982567" lon="5.6712467"><ele>208.0</ele><time>2026-05-01T13:48:49.257Z</time></trkpt><trkpt lat="45.1983283" lon="5.6711767"><ele>207.83333333333331</ele><time>2026-05-01T13:48:50.257Z</time></trkpt><trkpt lat="45.19839" lon="5.671115"><ele>207.66666666666666</ele><time>2026-05-01T13:48:51.256Z</time></trkpt><trkpt lat="45.1984433" lon="5.6710583"><ele>207.5</ele><time>2026-05-01T13:48:52.257Z</time></trkpt><trkpt lat="45.1985" lon="5.67101"><ele>207.33333333333331</ele><time>2026-05-01T13:48:53.257Z</time></trkpt><trkpt lat="45.1985517" lon="5.6709417"><ele>207.16666666666666</ele><time>2026-05-01T13:48:54.256Z</time></trkpt><trkpt lat="45.1986067" lon="5.6708667"><ele>207.0</ele><time>2026-05-01T13:48:55.257Z</time></trkpt><trkpt lat="45.1987033" lon="5.6707833"><ele>207.0</ele><time>2026-05-01T13:48:57.256Z</time></trkpt><trkpt lat="45.19878" lon="5.6707233"><ele>207.0</ele><time>2026-05-01T13:49:13.257Z</time></trkpt><trkpt lat="45.1988717" lon="5.6706233"><ele>207.0</ele><time>2026-05-01T13:49:15.256Z</time></trkpt><trkpt lat="45.19894" lon="5.6705533"><ele>207.0</ele><time>2026-05-01T13:49:16.257Z</time></trkpt><trkpt lat="45.1990217" lon="5.67046"><ele>207.0</ele><time>2026-05-01T13:49:17.257Z</time></trkpt><trkpt lat="45.1991067" lon="5.6703617"><ele>207.25</ele><time>2026-05-01T13:49:18.257Z</time></trkpt><trkpt lat="45.1992017" lon="5.670255"><ele>207.5</ele><time>2026-05-01T13:49:19.256Z</time></trkpt><trkpt lat="45.1993" lon="5.6701417"><ele>207.75</ele><time>2026-05-01T13:49:20.257Z</time></trkpt><trkpt lat="45.19939" lon="5.6700383"><ele>208.0</ele><time>2026-05-01T13:49:21.257Z</time></trkpt><trkpt lat="45.19948" lon="5.6699433"><ele>208.0</ele><time>2026-05-01T13:49:22.256Z</time></trkpt><trkpt lat="45.1995717" lon="5.6698433"><ele>208.0</ele><time>2026-05-01T13:49:23.256Z</time></trkpt><trkpt lat="45.1996633" lon="5.669765"><ele>208.0</ele><time>2026-05-01T13:49:24.257Z</time></trkpt><trkpt lat="45.19977" lon="5.6696717"><ele>208.0</ele><time>2026-05-01T13:49:25.256Z</time></trkpt><trkpt lat="45.19988" lon="5.6695633"><ele>207.5</ele><time>2026-05-01T13:49:26.257Z</time></trkpt><trkpt lat="45.2000033" lon="5.669425"><ele>207.0</ele><time>2026-05-01T13:49:27.257Z</time></trkpt><trkpt lat="45.2001117" lon="5.66931"><ele>206.5</ele><time>2026-05-01T13:49:28.256Z</time></trkpt><trkpt lat="45.200215" lon="5.6692033"><ele>206.0</ele><time>2026-05-01T13:49:29.257Z</time></trkpt><trkpt lat="45.2003117" lon="5.6691"><ele>206.0</ele><time>2026-05-01T13:49:30.257Z</time></trkpt><trkpt lat="45.2004217" lon="5.669015"><ele>206.0</ele><time>2026-05-01T13:49:31.256Z</time></trkpt><trkpt lat="45.20053" lon="5.66892"><ele>206.0</ele><time>2026-05-01T13:49:32.257Z</time></trkpt><trkpt lat="45.2006367" lon="5.668815"><ele>206.0</ele><time>2026-05-01T13:49:33.257Z</time></trkpt><trkpt lat="45.200735" lon="5.6687167"><ele>206.20000000000002</ele><time>2026-05-01T13:49:34.257Z</time></trkpt><trkpt lat="45.2008283" lon="5.668625"><ele>206.4</ele><time>2026-05-01T13:49:35.257Z</time></trkpt><trkpt lat="45.200915" lon="5.66853"><ele>206.6</ele><time>2026-05-01T13:49:36.257Z</time></trkpt><trkpt lat="45.201" lon="5.66843"><ele>206.8</ele><time>2026-05-01T13:49:37.257Z</time></trkpt><trkpt lat="45.2010783" lon="5.6683167"><ele>207.0</ele><time>2026-05-01T13:49:38.256Z</time></trkpt><trkpt lat="45.201155" lon="5.6682283"><ele>206.75</ele><time>2026-05-01T13:49:39.257Z</time></trkpt><trkpt lat="45.2012383" lon="5.6681417"><ele>206.5</ele><time>2026-05-01T13:49:40.257Z</time></trkpt><trkpt lat="45.20133" lon="5.6680633"><ele>206.25</ele><time>2026-05-01T13:49:41.256Z</time></trkpt><trkpt lat="45.2014283" lon="5.6679567"><ele>206.0</ele><time>2026-05-01T13:49:42.257Z</time></trkpt><trkpt lat="45.2015333" lon="5.6678567"><ele>206.0</ele><time>2026-05-01T13:49:43.256Z</time></trkpt><trkpt lat="45.2016433" lon="5.6677333"><ele>206.0</ele><time>2026-05-01T13:49:44.257Z</time></trkpt><trkpt lat="45.2017617" lon="5.6675933"><ele>206.0</ele><time>2026-05-01T13:49:45.257Z</time></trkpt><trkpt lat="45.20188" lon="5.6674583"><ele>206.0</ele><time>2026-05-01T13:49:46.257Z</time></trkpt><trkpt lat="45.202005" lon="5.6673333"><ele>206.0</ele><time>2026-05-01T13:49:47.256Z</time></trkpt><trkpt lat="45.202135" lon="5.66722"><ele>206.0</ele><time>2026-05-01T13:49:48.257Z</time></trkpt><trkpt lat="45.2022683" lon="5.6671167"><ele>206.0</ele><time>2026-05-01T13:49:49.257Z</time></trkpt><trkpt lat="45.20239" lon="5.6669983"><ele>206.66666666666669</ele><time>2026-05-01T13:49:50.257Z</time></trkpt><trkpt lat="45.2025117" lon="5.6668983"><ele>207.33333333333331</ele><time>2026-05-01T13:49:51.257Z</time></trkpt><trkpt lat="45.20265" lon="5.6667817"><ele>208.0</ele><time>2026-05-01T13:49:52.257Z</time></trkpt><trkpt lat="45.2027983" lon="5.6666467"><ele>208.0</ele><time>2026-05-01T13:49:53.257Z</time></trkpt><trkpt lat="45.2029483" lon="5.6665083"><ele>208.0</ele><time>2026-05-01T13:49:54.257Z</time></trkpt><trkpt lat="45.2030933" lon="5.66637"><ele>208.0</ele><time>2026-05-01T13:49:55.256Z</time></trkpt><trkpt lat="45.2032417" lon="5.6662467"><ele>209.33333333333331</ele><time>2026-05-01T13:49:56.257Z</time></trkpt><trkpt lat="45.2033783" lon="5.6661067"><ele>210.66666666666669</ele><time>2026-05-01T13:49:57.257Z</time></trkpt><trkpt lat="45.2035267" lon="5.66594"><ele>212.0</ele><time>2026-05-01T13:49:58.257Z</time></trkpt><trkpt lat="45.20368" lon="5.6658083"><ele>212.0</ele><time>2026-05-01T13:49:59.257Z</time></trkpt><trkpt lat="45.203835" lon="5.6656583"><ele>212.0</ele><time>2026-05-01T13:50:00.257Z</time></trkpt><trkpt lat="45.2039767" lon="5.6655"><ele>212.0</ele><time>2026-05-01T13:50:01.257Z</time></trkpt><trkpt lat="45.2041217" lon="5.6653333"><ele>211.0</ele><time>2026-05-01T13:50:02.257Z</time></trkpt><trkpt lat="45.2042633" lon="5.66517"><ele>210.0</ele><time>2026-05-01T13:50:03.257Z</time></trkpt><trkpt lat="45.2044067" lon="5.6650233"><ele>209.0</ele><time>2026-05-01T13:50:04.256Z</time></trkpt><trkpt lat="45.204545" lon="5.6648783"><ele>209.0</ele><time>2026-05-01T13:50:05.257Z</time></trkpt><trkpt lat="45.2046783" lon="5.6647533"><ele>209.0</ele><time>2026-05-01T13:50:06.257Z</time></trkpt><trkpt lat="45.204815" lon="5.6646167"><ele>209.0</ele><time>2026-05-01T13:50:07.256Z</time></trkpt><trkpt lat="45.2049467" lon="5.664475"><ele>209.0</ele><time>2026-05-01T13:50:08.257Z</time></trkpt><trkpt lat="45.2050817" lon="5.6643383"><ele>209.0</ele><time>2026-05-01T13:50:09.256Z</time></trkpt><trkpt lat="45.2052217" lon="5.66421"><ele>209.0</ele><time>2026-05-01T13:50:10.257Z</time></trkpt><trkpt lat="45.2053633" lon="5.6640817"><ele>209.0</ele><time>2026-05-01T13:50:11.257Z</time></trkpt><trkpt lat="45.2055117" lon="5.6639283"><ele>209.0</ele><time>2026-05-01T13:50:12.257Z</time></trkpt><trkpt lat="45.205645" lon="5.663785"><ele>209.0</ele><time>2026-05-01T13:50:13.256Z</time></trkpt><trkpt lat="45.20578" lon="5.66365"><ele>209.25</ele><time>2026-05-01T13:50:14.257Z</time></trkpt><trkpt lat="45.2059" lon="5.6635267"><ele>209.5</ele><time>2026-05-01T13:50:15.256Z</time></trkpt><trkpt lat="45.20602" lon="5.6634067"><ele>209.75</ele><time>2026-05-01T13:50:16.257Z</time></trkpt><trkpt lat="45.206135" lon="5.6632817"><ele>210.0</ele><time>2026-05-01T13:50:17.257Z</time></trkpt><trkpt lat="45.206245" lon="5.6631583"><ele>210.0</ele><time>2026-05-01T13:50:18.256Z</time></trkpt><trkpt lat="45.2063467" lon="5.6630133"><ele>210.0</ele><time>2026-05-01T13:50:19.257Z</time></trkpt><trkpt lat="45.2064667" lon="5.6629167"><ele>210.0</ele><time>2026-05-01T13:50:20.257Z</time></trkpt><trkpt lat="45.206605" lon="5.6628417"><ele>210.0</ele><time>2026-05-01T13:50:21.256Z</time></trkpt><trkpt lat="45.2067467" lon="5.6628017"><ele>210.0</ele><time>2026-05-01T13:50:22.256Z</time></trkpt><trkpt lat="45.20689" lon="5.662795"><ele>210.0</ele><time>2026-05-01T13:50:23.256Z</time></trkpt><trkpt lat="45.2070467" lon="5.6627733"><ele>210.0</ele><time>2026-05-01T13:50:24.257Z</time></trkpt><trkpt lat="45.2071833" lon="5.6627383"><ele>210.0</ele><time>2026-05-01T13:50:25.256Z</time></trkpt><trkpt lat="45.2073117" lon="5.6627017"><ele>210.2</ele><time>2026-05-01T13:50:26.257Z</time></trkpt><trkpt lat="45.2074233" lon="5.6626733"><ele>210.4</ele><time>2026-05-01T13:50:27.257Z</time></trkpt><trkpt lat="45.2075233" lon="5.662665"><ele>210.60000000000002</ele><time>2026-05-01T13:50:28.257Z</time></trkpt><trkpt lat="45.2076167" lon="5.6626583"><ele>210.8</ele><time>2026-05-01T13:50:29.257Z</time></trkpt><trkpt lat="45.2076983" lon="5.6626367"><ele>211.0</ele><time>2026-05-01T13:50:30.257Z</time></trkpt><trkpt lat="45.2077817" lon="5.6625967"><ele>210.99999999999997</ele><time>2026-05-01T13:50:31.256Z</time></trkpt><trkpt lat="45.2078817" lon="5.66257"><ele>211.0</ele><time>2026-05-01T13:50:32.257Z</time></trkpt><trkpt lat="45.207985" lon="5.662535"><ele>211.0</ele><time>2026-05-01T13:50:33.257Z</time></trkpt><trkpt lat="45.208075" lon="5.6625167"><ele>211.0</ele><time>2026-05-01T13:50:34.257Z</time></trkpt><trkpt lat="45.2081517" lon="5.662515"><ele>210.99999999999997</ele><time>2026-05-01T13:50:35.256Z</time></trkpt><trkpt lat="45.2082167" lon="5.66252"><ele>211.0</ele><time>2026-05-01T13:50:36.256Z</time></trkpt><trkpt lat="45.2082983" lon="5.6625133"><ele>211.20000000000002</ele><time>2026-05-01T13:50:38.256Z</time></trkpt><trkpt lat="45.2084083" lon="5.6625183"><ele>211.4</ele><time>2026-05-01T13:50:53.257Z</time></trkpt><trkpt lat="45.208485" lon="5.6625"><ele>211.6</ele><time>2026-05-01T13:50:54.257Z</time></trkpt><trkpt lat="45.2085817" lon="5.6624817"><ele>211.8</ele><time>2026-05-01T13:50:55.257Z</time></trkpt><trkpt lat="45.2086817" lon="5.6624633"><ele>212.0</ele><time>2026-05-01T13:50:56.257Z</time></trkpt><trkpt lat="45.2088033" lon="5.6624417"><ele>212.0</ele><time>2026-05-01T13:50:57.257Z</time></trkpt><trkpt lat="45.20893" lon="5.662415"><ele>212.0</ele><time>2026-05-01T13:50:58.257Z</time></trkpt><trkpt lat="45.2090533" lon="5.6623867"><ele>212.0</ele><time>2026-05-01T13:50:59.256Z</time></trkpt><trkpt lat="45.2091733" lon="5.6623567"><ele>212.0</ele><time>2026-05-01T13:51:00.257Z</time></trkpt><trkpt lat="45.2092983" lon="5.6623033"><ele>211.8</ele><time>2026-05-01T13:51:01.257Z</time></trkpt><trkpt lat="45.2094067" lon="5.6622767"><ele>211.6</ele><time>2026-05-01T13:51:02.257Z</time></trkpt><trkpt lat="45.2095033" lon="5.6622433"><ele>211.4</ele><time>2026-05-01T13:51:03.257Z</time></trkpt><trkpt lat="45.2095967" lon="5.662215"><ele>211.20000000000002</ele><time>2026-05-01T13:51:04.257Z</time></trkpt><trkpt lat="45.20969" lon="5.6621933"><ele>211.0</ele><time>2026-05-01T13:51:05.256Z</time></trkpt><trkpt lat="45.2097783" lon="5.6621717"><ele>210.0</ele><time>2026-05-01T13:51:06.257Z</time></trkpt><trkpt lat="45.20988" lon="5.6621533"><ele>209.0</ele><time>2026-05-01T13:51:07.257Z</time></trkpt><trkpt lat="45.21" lon="5.662135"><ele>208.0</ele><time>2026-05-01T13:51:08.257Z</time></trkpt><trkpt lat="45.2101383" lon="5.6621167"><ele>207.0</ele><time>2026-05-01T13:51:09.257Z</time></trkpt><trkpt lat="45.2102983" lon="5.6620983"><ele>207.0</ele><time>2026-05-01T13:51:10.256Z</time></trkpt><trkpt lat="45.2104417" lon="5.6620683"><ele>207.0</ele><time>2026-05-01T13:51:11.256Z</time></trkpt><trkpt lat="45.2105817" lon="5.6620467"><ele>207.0</ele><time>2026-05-01T13:51:12.257Z</time></trkpt><trkpt lat="45.2106967" lon="5.662025"><ele>207.0</ele><time>2026-05-01T13:51:13.257Z</time></trkpt><trkpt lat="45.21081" lon="5.6620083"><ele>207.0</ele><time>2026-05-01T13:51:14.257Z</time></trkpt><trkpt lat="45.210905" lon="5.6619867"><ele>207.0</ele><time>2026-05-01T13:51:15.256Z</time></trkpt><trkpt lat="45.2110083" lon="5.6619633"><ele>207.0</ele><time>2026-05-01T13:51:16.257Z</time></trkpt><trkpt lat="45.2110917" lon="5.6619483"><ele>207.0</ele><time>2026-05-01T13:51:17.256Z</time></trkpt><trkpt lat="45.21116" lon="5.6619283"><ele>207.0</ele><time>2026-05-01T13:51:18.257Z</time></trkpt><trkpt lat="45.21126" lon="5.6619133"><ele>206.8</ele><time>2026-05-01T13:51:20.257Z</time></trkpt><trkpt lat="45.2113533" lon="5.6619167"><ele>206.6</ele><time>2026-05-01T13:51:34.257Z</time></trkpt><trkpt lat="45.2114317" lon="5.661905"><ele>206.4</ele><time>2026-05-01T13:51:35.257Z</time></trkpt><trkpt lat="45.211535" lon="5.661895"><ele>206.20000000000002</ele><time>2026-05-01T13:51:36.257Z</time></trkpt><trkpt lat="45.2116367" lon="5.66188"><ele>206.0</ele><time>2026-05-01T13:51:37.256Z</time></trkpt><trkpt lat="45.2117583" lon="5.6618683"><ele>206.0</ele><time>2026-05-01T13:51:38.256Z</time></trkpt><trkpt lat="45.2119" lon="5.6618417"><ele>206.0</ele><time>2026-05-01T13:51:39.257Z</time></trkpt><trkpt lat="45.21205" lon="5.6618083"><ele>206.0</ele><time>2026-05-01T13:51:40.256Z</time></trkpt><trkpt lat="45.2121967" lon="5.661785"><ele>206.0</ele><time>2026-05-01T13:51:41.257Z</time></trkpt><trkpt lat="45.2123483" lon="5.661745"><ele>205.5</ele><time>2026-05-01T13:51:42.257Z</time></trkpt><trkpt lat="45.2124917" lon="5.6617217"><ele>205.0</ele><time>2026-05-01T13:51:43.256Z</time></trkpt><trkpt lat="45.21263" lon="5.661695"><ele>204.5</ele><time>2026-05-01T13:51:44.257Z</time></trkpt><trkpt lat="45.2127567" lon="5.6616517"><ele>204.0</ele><time>2026-05-01T13:51:45.257Z</time></trkpt><trkpt lat="45.2128633" lon="5.66162"><ele>204.0</ele><time>2026-05-01T13:51:46.257Z</time></trkpt><trkpt lat="45.2129633" lon="5.6615817"><ele>204.0</ele><time>2026-05-01T13:51:47.257Z</time></trkpt><trkpt lat="45.213055" lon="5.6615417"><ele>204.0</ele><time>2026-05-01T13:51:48.256Z</time></trkpt><trkpt lat="45.213145" lon="5.66154"><ele>204.0</ele><time>2026-05-01T13:51:49.256Z</time></trkpt><trkpt lat="45.213245" lon="5.661545"><ele>204.0</ele><time>2026-05-01T13:51:50.256Z</time></trkpt><trkpt lat="45.2133517" lon="5.6615233"><ele>203.75</ele><time>2026-05-01T13:51:51.257Z</time></trkpt><trkpt lat="45.2134767" lon="5.6614767"><ele>203.5</ele><time>2026-05-01T13:51:52.257Z</time></trkpt><trkpt lat="45.2136217" lon="5.6614317"><ele>203.25</ele><time>2026-05-01T13:51:53.257Z</time></trkpt><trkpt lat="45.2137683" lon="5.6614183"><ele>203.0</ele><time>2026-05-01T13:51:54.256Z</time></trkpt><trkpt lat="45.2139383" lon="5.6614083"><ele>203.66666666666669</ele><time>2026-05-01T13:51:55.257Z</time></trkpt><trkpt lat="45.2141017" lon="5.6613783"><ele>204.33333333333331</ele><time>2026-05-01T13:51:56.257Z</time></trkpt><trkpt lat="45.214265" lon="5.66134"><ele>205.0</ele><time>2026-05-01T13:51:57.257Z</time></trkpt><trkpt lat="45.2144217" lon="5.6613"><ele>205.0</ele><time>2026-05-01T13:51:58.257Z</time></trkpt><trkpt lat="45.2145833" lon="5.66128"><ele>205.0</ele><time>2026-05-01T13:51:59.256Z</time></trkpt><trkpt lat="45.2147467" lon="5.6612433"><ele>205.0</ele><time>2026-05-01T13:52:00.257Z</time></trkpt><trkpt lat="45.2149133" lon="5.661215"><ele>204.0</ele><time>2026-05-01T13:52:01.257Z</time></trkpt><trkpt lat="45.2150833" lon="5.661175"><ele>203.0</ele><time>2026-05-01T13:52:02.256Z</time></trkpt><trkpt lat="45.21526" lon="5.66114"><ele>202.0</ele><time>2026-05-01T13:52:03.256Z</time></trkpt><trkpt lat="45.2154483" lon="5.6610967"><ele>201.66666666666666</ele><time>2026-05-01T13:52:04.257Z</time></trkpt><trkpt lat="45.2156433" lon="5.6610717"><ele>201.33333333333331</ele><time>2026-05-01T13:52:05.256Z</time></trkpt><trkpt lat="45.2158367" lon="5.6610333"><ele>201.0</ele><time>2026-05-01T13:52:06.257Z</time></trkpt><trkpt lat="45.2160333" lon="5.6609967"><ele>201.33333333333331</ele><time>2026-05-01T13:52:07.257Z</time></trkpt><trkpt lat="45.2162283" lon="5.6609383"><ele>201.66666666666666</ele><time>2026-05-01T13:52:08.256Z</time></trkpt><trkpt lat="45.2164183" lon="5.6609"><ele>202.0</ele><time>2026-05-01T13:52:09.257Z</time></trkpt><trkpt lat="45.216605" lon="5.6608583"><ele>202.0</ele><time>2026-05-01T13:52:10.256Z</time></trkpt><trkpt lat="45.21678" lon="5.66081"><ele>202.0</ele><time>2026-05-01T13:52:11.257Z</time></trkpt><trkpt lat="45.2169583" lon="5.6607817"><ele>202.0</ele><time>2026-05-01T13:52:12.257Z</time></trkpt><trkpt lat="45.2171317" lon="5.6607517"><ele>202.0</ele><time>2026-05-01T13:52:13.257Z</time></trkpt><trkpt lat="45.2172933" lon="5.6607417"><ele>202.0</ele><time>2026-05-01T13:52:14.256Z</time></trkpt><trkpt lat="45.2174417" lon="5.66072"><ele>202.0</ele><time>2026-05-01T13:52:15.257Z</time></trkpt><trkpt lat="45.217575" lon="5.66068"><ele>202.0</ele><time>2026-05-01T13:52:16.257Z</time></trkpt><trkpt lat="45.2176967" lon="5.6606467"><ele>202.25</ele><time>2026-05-01T13:52:17.257Z</time></trkpt><trkpt lat="45.2178367" lon="5.6606133"><ele>202.5</ele><time>2026-05-01T13:52:18.256Z</time></trkpt><trkpt lat="45.2179717" lon="5.6605917"><ele>202.75</ele><time>2026-05-01T13:52:19.257Z</time></trkpt><trkpt lat="45.2181267" lon="5.6605817"><ele>203.0</ele><time>2026-05-01T13:52:20.257Z</time></trkpt><trkpt lat="45.2182617" lon="5.6605567"><ele>203.5</ele><time>2026-05-01T13:52:21.257Z</time></trkpt><trkpt lat="45.2184" lon="5.6605367"><ele>204.0</ele><time>2026-05-01T13:52:22.257Z</time></trkpt><trkpt lat="45.2185433" lon="5.6605167"><ele>204.5</ele><time>2026-05-01T13:52:23.257Z</time></trkpt><trkpt lat="45.2186917" lon="5.66051"><ele>205.0</ele><time>2026-05-01T13:52:24.257Z</time></trkpt><trkpt lat="45.2188517" lon="5.66047"><ele>204.5</ele><time>2026-05-01T13:52:25.257Z</time></trkpt><trkpt lat="45.2189867" lon="5.66043"><ele>204.0</ele><time>2026-05-01T13:52:26.257Z</time></trkpt><trkpt lat="45.2191217" lon="5.6604017"><ele>203.5</ele><time>2026-05-01T13:52:27.257Z</time></trkpt><trkpt lat="45.2192517" lon="5.6603717"><ele>203.0</ele><time>2026-05-01T13:52:28.257Z</time></trkpt><trkpt lat="45.2193817" lon="5.66036"><ele>203.0</ele><time>2026-05-01T13:52:29.257Z</time></trkpt><trkpt lat="45.2195183" lon="5.66034"><ele>203.0</ele><time>2026-05-01T13:52:30.257Z</time></trkpt><trkpt lat="45.2196667" lon="5.66032"><ele>203.0</ele><time>2026-05-01T13:52:31.256Z</time></trkpt><trkpt lat="45.219835" lon="5.6602983"><ele>202.33333333333334</ele><time>2026-05-01T13:52:32.255Z</time></trkpt><trkpt lat="45.220015" lon="5.6602533"><ele>201.66666666666669</ele><time>2026-05-01T13:52:33.256Z</time></trkpt><trkpt lat="45.2202017" lon="5.6601967"><ele>201.0</ele><time>2026-05-01T13:52:34.256Z</time></trkpt><trkpt lat="45.2204017" lon="5.66014"><ele>201.0</ele><time>2026-05-01T13:52:35.255Z</time></trkpt><trkpt lat="45.22061" lon="5.6601083"><ele>201.0</ele><time>2026-05-01T13:52:36.256Z</time></trkpt><trkpt lat="45.2208183" lon="5.6600833"><ele>201.0</ele><time>2026-05-01T13:52:37.256Z</time></trkpt><trkpt lat="45.2210017" lon="5.6600583"><ele>202.0</ele><time>2026-05-01T13:52:38.256Z</time></trkpt><trkpt lat="45.221175" lon="5.6600117"><ele>203.0</ele><time>2026-05-01T13:52:39.256Z</time></trkpt><trkpt lat="45.2213267" lon="5.6599617"><ele>204.0</ele><time>2026-05-01T13:52:40.255Z</time></trkpt><trkpt lat="45.2214633" lon="5.6599317"><ele>202.33333333333331</ele><time>2026-05-01T13:52:41.256Z</time></trkpt><trkpt lat="45.2216067" lon="5.659915"><ele>200.66666666666666</ele><time>2026-05-01T13:52:42.255Z</time></trkpt><trkpt lat="45.22176" lon="5.659885"><ele>199.0</ele><time>2026-05-01T13:52:43.256Z</time></trkpt><trkpt lat="45.2219267" lon="5.6598417"><ele>199.0</ele><time>2026-05-01T13:52:44.256Z</time></trkpt><trkpt lat="45.2221183" lon="5.65978"><ele>199.0</ele><time>2026-05-01T13:52:45.256Z</time></trkpt><trkpt lat="45.2223083" lon="5.6597233"><ele>199.0</ele><time>2026-05-01T13:52:46.256Z</time></trkpt><trkpt lat="45.2224983" lon="5.6596567"><ele>199.5</ele><time>2026-05-01T13:52:47.256Z</time></trkpt><trkpt lat="45.2227167" lon="5.65952"><ele>200.0</ele><time>2026-05-01T13:52:48.256Z</time></trkpt><trkpt lat="45.2229233" lon="5.659425"><ele>200.0</ele><time>2026-05-01T13:52:49.256Z</time></trkpt><trkpt lat="45.223115" lon="5.6592933"><ele>200.0</ele><time>2026-05-01T13:52:50.256Z</time></trkpt><trkpt lat="45.2232883" lon="5.659185"><ele>200.0</ele><time>2026-05-01T13:52:51.255Z</time></trkpt><trkpt lat="45.223465" lon="5.6589933"><ele>200.33333333333334</ele><time>2026-05-01T13:52:52.256Z</time></trkpt><trkpt lat="45.22364" lon="5.6588033"><ele>200.66666666666669</ele><time>2026-05-01T13:52:53.256Z</time></trkpt><trkpt lat="45.2237967" lon="5.6585883"><ele>201.0</ele><time>2026-05-01T13:52:54.256Z</time></trkpt><trkpt lat="45.2239767" lon="5.6583333"><ele>200.66666666666669</ele><time>2026-05-01T13:52:55.256Z</time></trkpt><trkpt lat="45.224115" lon="5.6581033"><ele>200.33333333333334</ele><time>2026-05-01T13:52:56.255Z</time></trkpt><trkpt lat="45.224265" lon="5.6578483"><ele>200.0</ele><time>2026-05-01T13:52:57.256Z</time></trkpt><trkpt lat="45.22443" lon="5.6576283"><ele>200.0</ele><time>2026-05-01T13:52:58.255Z</time></trkpt><trkpt lat="45.224585" lon="5.657385"><ele>200.0</ele><time>2026-05-01T13:52:59.256Z</time></trkpt><trkpt lat="45.2247333" lon="5.6571183"><ele>200.0</ele><time>2026-05-01T13:53:00.255Z</time></trkpt><trkpt lat="45.2248767" lon="5.6568383"><ele>200.0</ele><time>2026-05-01T13:53:01.256Z</time></trkpt><trkpt lat="45.2250317" lon="5.6565617"><ele>200.0</ele><time>2026-05-01T13:53:02.256Z</time></trkpt><trkpt lat="45.22518" lon="5.6563117"><ele>200.0</ele><time>2026-05-01T13:53:03.256Z</time></trkpt><trkpt lat="45.2253217" lon="5.6560817"><ele>200.0</ele><time>2026-05-01T13:53:04.256Z</time></trkpt><trkpt lat="45.2254467" lon="5.655865"><ele>200.0</ele><time>2026-05-01T13:53:05.255Z</time></trkpt><trkpt lat="45.225565" lon="5.6556933"><ele>200.0</ele><time>2026-05-01T13:53:06.256Z</time></trkpt><trkpt lat="45.2256783" lon="5.6555217"><ele>200.0</ele><time>2026-05-01T13:53:07.256Z</time></trkpt><trkpt lat="45.2257833" lon="5.6553733"><ele>200.33333333333334</ele><time>2026-05-01T13:53:08.255Z</time></trkpt><trkpt lat="45.22589" lon="5.65523"><ele>200.66666666666669</ele><time>2026-05-01T13:53:09.256Z</time></trkpt><trkpt lat="45.22599" lon="5.6550683"><ele>201.0</ele><time>2026-05-01T13:53:10.255Z</time></trkpt><trkpt lat="45.22609" lon="5.6549033"><ele>201.0</ele><time>2026-05-01T13:53:11.255Z</time></trkpt><trkpt lat="45.2262017" lon="5.6547267"><ele>201.0</ele><time>2026-05-01T13:53:12.255Z</time></trkpt><trkpt lat="45.2263083" lon="5.6545533"><ele>201.0</ele><time>2026-05-01T13:53:13.255Z</time></trkpt><trkpt lat="45.2264217" lon="5.654385"><ele>200.66666666666669</ele><time>2026-05-01T13:53:14.256Z</time></trkpt><trkpt lat="45.2265267" lon="5.6542217"><ele>200.33333333333334</ele><time>2026-05-01T13:53:15.255Z</time></trkpt><trkpt lat="45.2266417" lon="5.6540383"><ele>200.0</ele><time>2026-05-01T13:53:16.256Z</time></trkpt><trkpt lat="45.2267533" lon="5.653845"><ele>200.0</ele><time>2026-05-01T13:53:17.256Z</time></trkpt><trkpt lat="45.2268767" lon="5.65365"><ele>200.0</ele><time>2026-05-01T13:53:18.256Z</time></trkpt><trkpt lat="45.227" lon="5.653445"><ele>200.0</ele><time>2026-05-01T13:53:19.256Z</time></trkpt><trkpt lat="45.2271217" lon="5.65324"><ele>200.33333333333334</ele><time>2026-05-01T13:53:20.256Z</time></trkpt><trkpt lat="45.22725" lon="5.6530383"><ele>200.66666666666669</ele><time>2026-05-01T13:53:21.256Z</time></trkpt><trkpt lat="45.2273817" lon="5.652825"><ele>201.0</ele><time>2026-05-01T13:53:22.256Z</time></trkpt><trkpt lat="45.2275083" lon="5.6526033"><ele>201.0</ele><time>2026-05-01T13:53:23.255Z</time></trkpt><trkpt lat="45.2276467" lon="5.6524133"><ele>201.0</ele><time>2026-05-01T13:53:24.255Z</time></trkpt><trkpt lat="45.2277883" lon="5.6522033"><ele>201.0</ele><time>2026-05-01T13:53:25.256Z</time></trkpt><trkpt lat="45.2279367" lon="5.6519933"><ele>201.33333333333331</ele><time>2026-05-01T13:53:26.256Z</time></trkpt><trkpt lat="45.2280733" lon="5.6517783"><ele>201.66666666666666</ele><time>2026-05-01T13:53:27.256Z</time></trkpt><trkpt lat="45.228215" lon="5.6515367"><ele>202.0</ele><time>2026-05-01T13:53:28.256Z</time></trkpt><trkpt lat="45.2283483" lon="5.6512883"><ele>200.5</ele><time>2026-05-01T13:53:29.255Z</time></trkpt><trkpt lat="45.22849" lon="5.6510433"><ele>199.0</ele><time>2026-05-01T13:53:30.256Z</time></trkpt><trkpt lat="45.2286417" lon="5.6507983"><ele>199.0</ele><time>2026-05-01T13:53:31.256Z</time></trkpt><trkpt lat="45.2287933" lon="5.6505683"><ele>199.0</ele><time>2026-05-01T13:53:32.256Z</time></trkpt><trkpt lat="45.228925" lon="5.6503417"><ele>199.0</ele><time>2026-05-01T13:53:33.256Z</time></trkpt><trkpt lat="45.2290583" lon="5.6501333"><ele>199.33333333333331</ele><time>2026-05-01T13:53:34.256Z</time></trkpt><trkpt lat="45.2291883" lon="5.64991"><ele>199.66666666666669</ele><time>2026-05-01T13:53:35.255Z</time></trkpt><trkpt lat="45.229325" lon="5.6496883"><ele>200.0</ele><time>2026-05-01T13:53:36.255Z</time></trkpt><trkpt lat="45.2294667" lon="5.6494667"><ele>200.33333333333334</ele><time>2026-05-01T13:53:37.256Z</time></trkpt><trkpt lat="45.2296033" lon="5.6492433"><ele>200.66666666666669</ele><time>2026-05-01T13:53:38.256Z</time></trkpt><trkpt lat="45.229735" lon="5.6490167"><ele>201.0</ele><time>2026-05-01T13:53:39.255Z</time></trkpt><trkpt lat="45.2298633" lon="5.6487867"><ele>200.33333333333331</ele><time>2026-05-01T13:53:40.256Z</time></trkpt><trkpt lat="45.2299817" lon="5.6485983"><ele>199.66666666666666</ele><time>2026-05-01T13:53:41.255Z</time></trkpt><trkpt lat="45.230105" lon="5.6483967"><ele>199.0</ele><time>2026-05-01T13:53:42.256Z</time></trkpt><trkpt lat="45.230215" lon="5.648215"><ele>199.0</ele><time>2026-05-01T13:53:43.256Z</time></trkpt><trkpt lat="45.2303283" lon="5.648075"><ele>199.0</ele><time>2026-05-01T13:53:44.255Z</time></trkpt><trkpt lat="45.2304333" lon="5.6478967"><ele>199.0</ele><time>2026-05-01T13:53:45.255Z</time></trkpt><trkpt lat="45.2305417" lon="5.6477717"><ele>198.75</ele><time>2026-05-01T13:53:46.255Z</time></trkpt><trkpt lat="45.2306667" lon="5.6476817"><ele>198.5</ele><time>2026-05-01T13:53:47.256Z</time></trkpt><trkpt lat="45.230775" lon="5.64761"><ele>198.25</ele><time>2026-05-01T13:53:48.256Z</time></trkpt><trkpt lat="45.2308817" lon="5.64754"><ele>198.0</ele><time>2026-05-01T13:53:49.256Z</time></trkpt><trkpt lat="45.2309983" lon="5.6475"><ele>198.0</ele><time>2026-05-01T13:53:50.256Z</time></trkpt><trkpt lat="45.2311083" lon="5.64748"><ele>198.0</ele><time>2026-05-01T13:53:51.256Z</time></trkpt><trkpt lat="45.2312083" lon="5.6474583"><ele>198.0</ele><time>2026-05-01T13:53:52.255Z</time></trkpt><trkpt lat="45.2313033" lon="5.6474133"><ele>198.0</ele><time>2026-05-01T13:53:53.255Z</time></trkpt><trkpt lat="45.2313783" lon="5.6473383"><ele>198.0</ele><time>2026-05-01T13:53:54.256Z</time></trkpt><trkpt lat="45.2314133" lon="5.6472217"><ele>198.0</ele><time>2026-05-01T13:53:55.256Z</time></trkpt><trkpt lat="45.2314283" lon="5.647125"><ele>198.0</ele><time>2026-05-01T13:53:56.255Z</time></trkpt><trkpt lat="45.2314233" lon="5.6470233"><ele>198.0</ele><time>2026-05-01T13:53:57.255Z</time></trkpt><trkpt lat="45.23141" lon="5.6469133"><ele>198.0</ele><time>2026-05-01T13:53:58.256Z</time></trkpt><trkpt lat="45.23139" lon="5.64677"><ele>198.0</ele><time>2026-05-01T13:53:59.256Z</time></trkpt><trkpt lat="45.2314133" lon="5.6466233"><ele>198.0</ele><time>2026-05-01T13:54:00.255Z</time></trkpt><trkpt lat="45.2314617" lon="5.646465"><ele>198.33333333333331</ele><time>2026-05-01T13:54:01.256Z</time></trkpt><trkpt lat="45.2315433" lon="5.6462667"><ele>198.66666666666666</ele><time>2026-05-01T13:54:02.256Z</time></trkpt><trkpt lat="45.23165" lon="5.6460233"><ele>199.0</ele><time>2026-05-01T13:54:03.256Z</time></trkpt><trkpt lat="45.2317517" lon="5.6457983"><ele>199.33333333333331</ele><time>2026-05-01T13:54:04.256Z</time></trkpt><trkpt lat="45.2318617" lon="5.6456033"><ele>199.66666666666669</ele><time>2026-05-01T13:54:05.256Z</time></trkpt><trkpt lat="45.2319683" lon="5.64542"><ele>200.0</ele><time>2026-05-01T13:54:06.256Z</time></trkpt><trkpt lat="45.2320767" lon="5.6452433"><ele>200.0</ele><time>2026-05-01T13:54:07.256Z</time></trkpt><trkpt lat="45.2321817" lon="5.645065"><ele>200.0</ele><time>2026-05-01T13:54:08.256Z</time></trkpt><trkpt lat="45.2322933" lon="5.6449"><ele>200.0</ele><time>2026-05-01T13:54:09.256Z</time></trkpt><trkpt lat="45.2323983" lon="5.6447183"><ele>200.0</ele><time>2026-05-01T13:54:10.256Z</time></trkpt><trkpt lat="45.2325117" lon="5.64454"><ele>200.0</ele><time>2026-05-01T13:54:11.256Z</time></trkpt><trkpt lat="45.2326417" lon="5.6443583"><ele>200.0</ele><time>2026-05-01T13:54:12.256Z</time></trkpt><trkpt lat="45.2327483" lon="5.6441633"><ele>199.66666666666669</ele><time>2026-05-01T13:54:13.255Z</time></trkpt><trkpt lat="45.2328667" lon="5.643975"><ele>199.33333333333331</ele><time>2026-05-01T13:54:14.255Z</time></trkpt><trkpt lat="45.2329817" lon="5.6437617"><ele>199.0</ele><time>2026-05-01T13:54:15.256Z</time></trkpt><trkpt lat="45.2331117" lon="5.6435533"><ele>199.0</ele><time>2026-05-01T13:54:16.256Z</time></trkpt><trkpt lat="45.233235" lon="5.6433633"><ele>199.0</ele><time>2026-05-01T13:54:17.256Z</time></trkpt><trkpt lat="45.2333467" lon="5.6431833"><ele>199.0</ele><time>2026-05-01T13:54:18.256Z</time></trkpt><trkpt lat="45.233455" lon="5.643015"><ele>199.0</ele><time>2026-05-01T13:54:19.255Z</time></trkpt><trkpt lat="45.2335567" lon="5.6428717"><ele>199.0</ele><time>2026-05-01T13:54:20.255Z</time></trkpt><trkpt lat="45.233655" lon="5.642705"><ele>199.0</ele><time>2026-05-01T13:54:21.256Z</time></trkpt><trkpt lat="45.2337633" lon="5.6425217"><ele>199.33333333333331</ele><time>2026-05-01T13:54:22.256Z</time></trkpt><trkpt lat="45.23388" lon="5.6423233"><ele>199.66666666666669</ele><time>2026-05-01T13:54:23.255Z</time></trkpt><trkpt lat="45.2340033" lon="5.6421283"><ele>200.0</ele><time>2026-05-01T13:54:24.256Z</time></trkpt><trkpt lat="45.2341367" lon="5.641935"><ele>199.0</ele><time>2026-05-01T13:54:25.256Z</time></trkpt><trkpt lat="45.2342917" lon="5.64171"><ele>198.0</ele><time>2026-05-01T13:54:26.256Z</time></trkpt><trkpt lat="45.2344367" lon="5.6414783"><ele>197.0</ele><time>2026-05-01T13:54:27.256Z</time></trkpt><trkpt lat="45.2345783" lon="5.64124"><ele>197.5</ele><time>2026-05-01T13:54:28.256Z</time></trkpt><trkpt lat="45.23473" lon="5.6409967"><ele>198.0</ele><time>2026-05-01T13:54:29.256Z</time></trkpt><trkpt lat="45.2348817" lon="5.640765"><ele>198.0</ele><time>2026-05-01T13:54:30.256Z</time></trkpt><trkpt lat="45.2350217" lon="5.6405483"><ele>198.0</ele><time>2026-05-01T13:54:31.256Z</time></trkpt><trkpt lat="45.2351483" lon="5.6403367"><ele>198.0</ele><time>2026-05-01T13:54:32.256Z</time></trkpt><trkpt lat="45.2352633" lon="5.6401567"><ele>197.75</ele><time>2026-05-01T13:54:33.255Z</time></trkpt><trkpt lat="45.235355" lon="5.6399883"><ele>197.5</ele><time>2026-05-01T13:54:34.256Z</time></trkpt><trkpt lat="45.235445" lon="5.6398283"><ele>197.25</ele><time>2026-05-01T13:54:35.256Z</time></trkpt><trkpt lat="45.235525" lon="5.6396833"><ele>197.0</ele><time>2026-05-01T13:54:36.256Z</time></trkpt><trkpt lat="45.2356017" lon="5.6395433"><ele>197.2</ele><time>2026-05-01T13:54:37.255Z</time></trkpt><trkpt lat="45.2356783" lon="5.63942"><ele>197.39999999999998</ele><time>2026-05-01T13:54:38.256Z</time></trkpt><trkpt lat="45.235745" lon="5.639315"><ele>197.60000000000002</ele><time>2026-05-01T13:54:39.256Z</time></trkpt><trkpt lat="45.2358217" lon="5.63919"><ele>197.8</ele><time>2026-05-01T13:54:40.256Z</time></trkpt><trkpt lat="45.2358983" lon="5.6390717"><ele>198.0</ele><time>2026-05-01T13:54:41.256Z</time></trkpt><trkpt lat="45.235975" lon="5.63895"><ele>198.0</ele><time>2026-05-01T13:54:42.256Z</time></trkpt><trkpt lat="45.23605" lon="5.6388233"><ele>198.0</ele><time>2026-05-01T13:54:43.256Z</time></trkpt><trkpt lat="45.2361233" lon="5.6387017"><ele>198.0</ele><time>2026-05-01T13:54:44.256Z</time></trkpt><trkpt lat="45.2362" lon="5.6385583"><ele>198.0</ele><time>2026-05-01T13:54:45.256Z</time></trkpt><trkpt lat="45.2362783" lon="5.6384133"><ele>197.75</ele><time>2026-05-01T13:54:46.256Z</time></trkpt><trkpt lat="45.2363617" lon="5.6382917"><ele>197.5</ele><time>2026-05-01T13:54:47.255Z</time></trkpt><trkpt lat="45.2364417" lon="5.6381583"><ele>197.25</ele><time>2026-05-01T13:54:48.256Z</time></trkpt><trkpt lat="45.2365283" lon="5.63802"><ele>197.0</ele><time>2026-05-01T13:54:49.256Z</time></trkpt><trkpt lat="45.23662" lon="5.6378633"><ele>197.33333333333334</ele><time>2026-05-01T13:54:50.256Z</time></trkpt><trkpt lat="45.2367183" lon="5.6377"><ele>197.66666666666669</ele><time>2026-05-01T13:54:51.255Z</time></trkpt><trkpt lat="45.2368267" lon="5.6375467"><ele>198.0</ele><time>2026-05-01T13:54:52.256Z</time></trkpt><trkpt lat="45.236935" lon="5.637395"><ele>198.0</ele><time>2026-05-01T13:54:53.255Z</time></trkpt><trkpt lat="45.237045" lon="5.637225"><ele>198.0</ele><time>2026-05-01T13:54:54.256Z</time></trkpt><trkpt lat="45.2371517" lon="5.6370367"><ele>198.0</ele><time>2026-05-01T13:54:55.256Z</time></trkpt><trkpt lat="45.23725" lon="5.6368683"><ele>198.0</ele><time>2026-05-01T13:54:56.256Z</time></trkpt><trkpt lat="45.2373483" lon="5.63671"><ele>198.0</ele><time>2026-05-01T13:54:57.256Z</time></trkpt><trkpt lat="45.237455" lon="5.636565"><ele>198.0</ele><time>2026-05-01T13:54:58.256Z</time></trkpt><trkpt lat="45.2375633" lon="5.6364017"><ele>198.0</ele><time>2026-05-01T13:54:59.255Z</time></trkpt><trkpt lat="45.2376783" lon="5.63624"><ele>198.0</ele><time>2026-05-01T13:55:00.256Z</time></trkpt><trkpt lat="45.2377717" lon="5.6360817"><ele>198.0</ele><time>2026-05-01T13:55:01.256Z</time></trkpt><trkpt lat="45.23786" lon="5.635935"><ele>198.0</ele><time>2026-05-01T13:55:02.255Z</time></trkpt><trkpt lat="45.2379633" lon="5.6357817"><ele>198.5</ele><time>2026-05-01T13:55:03.256Z</time></trkpt><trkpt lat="45.2380633" lon="5.635665"><ele>199.0</ele><time>2026-05-01T13:55:04.255Z</time></trkpt><trkpt lat="45.2381533" lon="5.63553"><ele>199.5</ele><time>2026-05-01T13:55:05.256Z</time></trkpt><trkpt lat="45.2382383" lon="5.6353867"><ele>200.0</ele><time>2026-05-01T13:55:06.255Z</time></trkpt><trkpt lat="45.238305" lon="5.6352567"><ele>200.5</ele><time>2026-05-01T13:55:07.256Z</time></trkpt><trkpt lat="45.2383767" lon="5.6351367"><ele>201.0</ele><time>2026-05-01T13:55:08.256Z</time></trkpt><trkpt lat="45.2384467" lon="5.6349967"><ele>201.5</ele><time>2026-05-01T13:55:09.256Z</time></trkpt><trkpt lat="45.2385167" lon="5.634865"><ele>202.0</ele><time>2026-05-01T13:55:10.256Z</time></trkpt><trkpt lat="45.2385967" lon="5.63473"><ele>202.0</ele><time>2026-05-01T13:55:11.256Z</time></trkpt><trkpt lat="45.23868" lon="5.6346083"><ele>202.0</ele><time>2026-05-01T13:55:12.256Z</time></trkpt><trkpt lat="45.2387483" lon="5.6345067"><ele>202.0</ele><time>2026-05-01T13:55:13.256Z</time></trkpt><trkpt lat="45.2388183" lon="5.6343917"><ele>202.0</ele><time>2026-05-01T13:55:14.256Z</time></trkpt><trkpt lat="45.2388917" lon="5.6342767"><ele>202.0</ele><time>2026-05-01T13:55:15.256Z</time></trkpt><trkpt lat="45.2389667" lon="5.6341533"><ele>202.0</ele><time>2026-05-01T13:55:16.256Z</time></trkpt><trkpt lat="45.2390417" lon="5.634015"><ele>202.0</ele><time>2026-05-01T13:55:17.255Z</time></trkpt><trkpt lat="45.2391317" lon="5.6338783"><ele>202.0</ele><time>2026-05-01T13:55:18.256Z</time></trkpt><trkpt lat="45.2392317" lon="5.6337333"><ele>202.0</ele><time>2026-05-01T13:55:19.255Z</time></trkpt><trkpt lat="45.239335" lon="5.6335867"><ele>202.5</ele><time>2026-05-01T13:55:20.256Z</time></trkpt><trkpt lat="45.23944" lon="5.6334517"><ele>203.0</ele><time>2026-05-01T13:55:21.256Z</time></trkpt><trkpt lat="45.2395417" lon="5.6333333"><ele>203.5</ele><time>2026-05-01T13:55:22.256Z</time></trkpt><trkpt lat="45.2396517" lon="5.6332"><ele>204.0</ele><time>2026-05-01T13:55:23.255Z</time></trkpt><trkpt lat="45.2397633" lon="5.633085"><ele>204.5</ele><time>2026-05-01T13:55:24.255Z</time></trkpt><trkpt lat="45.2398817" lon="5.6329833"><ele>205.0</ele><time>2026-05-01T13:55:25.255Z</time></trkpt><trkpt lat="45.239985" lon="5.6328933"><ele>205.5</ele><time>2026-05-01T13:55:26.256Z</time></trkpt><trkpt lat="45.2400983" lon="5.6327933"><ele>206.0</ele><time>2026-05-01T13:55:27.256Z</time></trkpt><trkpt lat="45.2402167" lon="5.632745"><ele>206.0</ele><time>2026-05-01T13:55:28.256Z</time></trkpt><trkpt lat="45.2403583" lon="5.63267"><ele>206.0</ele><time>2026-05-01T13:55:29.256Z</time></trkpt><trkpt lat="45.2405" lon="5.6326017"><ele>206.0</ele><time>2026-05-01T13:55:30.255Z</time></trkpt><trkpt lat="45.2406433" lon="5.63254"><ele>205.0</ele><time>2026-05-01T13:55:31.255Z</time></trkpt><trkpt lat="45.240775" lon="5.6324583"><ele>204.0</ele><time>2026-05-01T13:55:32.256Z</time></trkpt><trkpt lat="45.2409117" lon="5.632375"><ele>203.0</ele><time>2026-05-01T13:55:33.256Z</time></trkpt><trkpt lat="45.24105" lon="5.6322933"><ele>202.0</ele><time>2026-05-01T13:55:34.256Z</time></trkpt><trkpt lat="45.2412" lon="5.6322067"><ele>202.0</ele><time>2026-05-01T13:55:35.256Z</time></trkpt><trkpt lat="45.2413517" lon="5.6321467"><ele>202.0</ele><time>2026-05-01T13:55:36.256Z</time></trkpt><trkpt lat="45.2414883" lon="5.632095"><ele>202.0</ele><time>2026-05-01T13:55:37.256Z</time></trkpt><trkpt lat="45.2416417" lon="5.6320433"><ele>201.5</ele><time>2026-05-01T13:55:38.255Z</time></trkpt><trkpt lat="45.2417933" lon="5.6320167"><ele>201.0</ele><time>2026-05-01T13:55:39.255Z</time></trkpt><trkpt lat="45.24192" lon="5.6320367"><ele>200.5</ele><time>2026-05-01T13:55:40.255Z</time></trkpt><trkpt lat="45.24207" lon="5.6320567"><ele>200.0</ele><time>2026-05-01T13:55:41.256Z</time></trkpt><trkpt lat="45.2422017" lon="5.6320933"><ele>200.25</ele><time>2026-05-01T13:55:42.256Z</time></trkpt><trkpt lat="45.2423283" lon="5.6321283"><ele>200.5</ele><time>2026-05-01T13:55:43.255Z</time></trkpt><trkpt lat="45.242455" lon="5.63215"><ele>200.75</ele><time>2026-05-01T13:55:44.255Z</time></trkpt><trkpt lat="45.242565" lon="5.632165"><ele>201.0</ele><time>2026-05-01T13:55:45.255Z</time></trkpt><trkpt lat="45.2426633" lon="5.6321717"><ele>201.0</ele><time>2026-05-01T13:55:46.255Z</time></trkpt><trkpt lat="45.242755" lon="5.632175"><ele>201.0</ele><time>2026-05-01T13:55:47.256Z</time></trkpt><trkpt lat="45.242845" lon="5.6321783"><ele>201.0</ele><time>2026-05-01T13:55:48.256Z</time></trkpt><trkpt lat="45.2429367" lon="5.6321767"><ele>201.0</ele><time>2026-05-01T13:55:49.255Z</time></trkpt><trkpt lat="45.2430417" lon="5.6321783"><ele>201.0</ele><time>2026-05-01T13:55:50.256Z</time></trkpt><trkpt lat="45.2431517" lon="5.6321867"><ele>200.25</ele><time>2026-05-01T13:55:51.255Z</time></trkpt><trkpt lat="45.243265" lon="5.6322217"><ele>199.5</ele><time>2026-05-01T13:55:52.255Z</time></trkpt><trkpt lat="45.2433817" lon="5.6322583"><ele>198.75</ele><time>2026-05-01T13:55:53.256Z</time></trkpt><trkpt lat="45.2435033" lon="5.6322933"><ele>198.0</ele><time>2026-05-01T13:55:54.255Z</time></trkpt><trkpt lat="45.2436167" lon="5.63231"><ele>198.0</ele><time>2026-05-01T13:55:55.256Z</time></trkpt><trkpt lat="45.243725" lon="5.6323233"><ele>198.0</ele><time>2026-05-01T13:55:56.256Z</time></trkpt><trkpt lat="45.2438417" lon="5.632355"><ele>198.0</ele><time>2026-05-01T13:55:57.256Z</time></trkpt><trkpt lat="45.2439783" lon="5.6323517"><ele>198.0</ele><time>2026-05-01T13:55:58.255Z</time></trkpt><trkpt lat="45.24412" lon="5.6323933"><ele>198.33333333333331</ele><time>2026-05-01T13:55:59.255Z</time></trkpt><trkpt lat="45.2442783" lon="5.632435"><ele>198.66666666666666</ele><time>2026-05-01T13:56:00.256Z</time></trkpt><trkpt lat="45.244455" lon="5.6324733"><ele>199.0</ele><time>2026-05-01T13:56:01.255Z</time></trkpt><trkpt lat="45.2446467" lon="5.632505"><ele>198.66666666666666</ele><time>2026-05-01T13:56:02.256Z</time></trkpt><trkpt lat="45.2448383" lon="5.6325533"><ele>198.33333333333331</ele><time>2026-05-01T13:56:03.256Z</time></trkpt><trkpt lat="45.2450367" lon="5.6326117"><ele>198.0</ele><time>2026-05-01T13:56:04.256Z</time></trkpt><trkpt lat="45.2452017" lon="5.6326467"><ele>198.0</ele><time>2026-05-01T13:56:05.255Z</time></trkpt><trkpt lat="45.245405" lon="5.6326783"><ele>198.0</ele><time>2026-05-01T13:56:06.256Z</time></trkpt><trkpt lat="45.2455783" lon="5.6327217"><ele>198.0</ele><time>2026-05-01T13:56:07.255Z</time></trkpt><trkpt lat="45.2457633" lon="5.6327667"><ele>197.33333333333331</ele><time>2026-05-01T13:56:08.255Z</time></trkpt><trkpt lat="45.2459567" lon="5.63281"><ele>196.66666666666666</ele><time>2026-05-01T13:56:09.256Z</time></trkpt><trkpt lat="45.2461517" lon="5.632875"><ele>196.0</ele><time>2026-05-01T13:56:10.255Z</time></trkpt><trkpt lat="45.2463583" lon="5.6329267"><ele>195.66666666666666</ele><time>2026-05-01T13:56:11.256Z</time></trkpt><trkpt lat="45.246555" lon="5.63295"><ele>195.33333333333331</ele><time>2026-05-01T13:56:12.256Z</time></trkpt><trkpt lat="45.2467583" lon="5.6329817"><ele>195.0</ele><time>2026-05-01T13:56:13.256Z</time></trkpt><trkpt lat="45.2469417" lon="5.6330033"><ele>195.0</ele><time>2026-05-01T13:56:14.256Z</time></trkpt><trkpt lat="45.2471083" lon="5.6330133"><ele>195.0</ele><time>2026-05-01T13:56:15.256Z</time></trkpt><trkpt lat="45.2472717" lon="5.6330017"><ele>195.0</ele><time>2026-05-01T13:56:16.256Z</time></trkpt><trkpt lat="45.2474433" lon="5.63293"><ele>195.0</ele><time>2026-05-01T13:56:17.256Z</time></trkpt><trkpt lat="45.2476317" lon="5.632845"><ele>195.0</ele><time>2026-05-01T13:56:18.255Z</time></trkpt><trkpt lat="45.2478117" lon="5.6327417"><ele>195.0</ele><time>2026-05-01T13:56:19.256Z</time></trkpt><trkpt lat="45.2480033" lon="5.6326317"><ele>195.33333333333331</ele><time>2026-05-01T13:56:20.256Z</time></trkpt><trkpt lat="45.2481917" lon="5.632515"><ele>195.66666666666666</ele><time>2026-05-01T13:56:21.256Z</time></trkpt><trkpt lat="45.2483983" lon="5.6324133"><ele>196.0</ele><time>2026-05-01T13:56:22.256Z</time></trkpt><trkpt lat="45.2486017" lon="5.6323167"><ele>196.0</ele><time>2026-05-01T13:56:23.256Z</time></trkpt><trkpt lat="45.2488033" lon="5.6322033"><ele>196.0</ele><time>2026-05-01T13:56:24.256Z</time></trkpt><trkpt lat="45.24899" lon="5.6320967"><ele>196.0</ele><time>2026-05-01T13:56:25.256Z</time></trkpt><trkpt lat="45.249155" lon="5.6320117"><ele>195.66666666666666</ele><time>2026-05-01T13:56:26.256Z</time></trkpt><trkpt lat="45.2493217" lon="5.6319233"><ele>195.33333333333331</ele><time>2026-05-01T13:56:27.256Z</time></trkpt><trkpt lat="45.2494933" lon="5.6318433"><ele>195.0</ele><time>2026-05-01T13:56:28.256Z</time></trkpt><trkpt lat="45.2496617" lon="5.6317383"><ele>195.66666666666669</ele><time>2026-05-01T13:56:29.256Z</time></trkpt><trkpt lat="45.2498367" lon="5.6316467"><ele>196.33333333333334</ele><time>2026-05-01T13:56:30.256Z</time></trkpt><trkpt lat="45.2500067" lon="5.63156"><ele>197.0</ele><time>2026-05-01T13:56:31.256Z</time></trkpt><trkpt lat="45.2501733" lon="5.6314733"><ele>197.0</ele><time>2026-05-01T13:56:32.256Z</time></trkpt><trkpt lat="45.2503267" lon="5.631385"><ele>197.0</ele><time>2026-05-01T13:56:33.256Z</time></trkpt><trkpt lat="45.2504733" lon="5.6312917"><ele>197.0</ele><time>2026-05-01T13:56:34.256Z</time></trkpt><trkpt lat="45.2506217" lon="5.6311967"><ele>197.33333333333334</ele><time>2026-05-01T13:56:35.256Z</time></trkpt><trkpt lat="45.2507717" lon="5.6311083"><ele>197.66666666666669</ele><time>2026-05-01T13:56:36.255Z</time></trkpt><trkpt lat="45.2509217" lon="5.63101"><ele>198.0</ele><time>2026-05-01T13:56:37.256Z</time></trkpt><trkpt lat="45.2510883" lon="5.63092"><ele>198.0</ele><time>2026-05-01T13:56:38.256Z</time></trkpt><trkpt lat="45.25126" lon="5.6308317"><ele>198.0</ele><time>2026-05-01T13:56:39.255Z</time></trkpt><trkpt lat="45.2514467" lon="5.6307433"><ele>198.0</ele><time>2026-05-01T13:56:40.255Z</time></trkpt><trkpt lat="45.2516417" lon="5.630645"><ele>197.66666666666669</ele><time>2026-05-01T13:56:41.256Z</time></trkpt><trkpt lat="45.2518233" lon="5.6305567"><ele>197.33333333333334</ele><time>2026-05-01T13:56:42.256Z</time></trkpt><trkpt lat="45.252015" lon="5.6304283"><ele>197.0</ele><time>2026-05-01T13:56:43.255Z</time></trkpt><trkpt lat="45.2522083" lon="5.630315"><ele>196.33333333333334</ele><time>2026-05-01T13:56:44.255Z</time></trkpt><trkpt lat="45.2524067" lon="5.6302117"><ele>195.66666666666669</ele><time>2026-05-01T13:56:45.255Z</time></trkpt><trkpt lat="45.2526033" lon="5.6301067"><ele>195.0</ele><time>2026-05-01T13:56:46.256Z</time></trkpt><trkpt lat="45.2528017" lon="5.6299983"><ele>195.0</ele><time>2026-05-01T13:56:47.256Z</time></trkpt><trkpt lat="45.253005" lon="5.629895"><ele>195.0</ele><time>2026-05-01T13:56:48.256Z</time></trkpt><trkpt lat="45.25319" lon="5.6297833"><ele>195.0</ele><time>2026-05-01T13:56:49.256Z</time></trkpt><trkpt lat="45.2533933" lon="5.6296517"><ele>195.0</ele><time>2026-05-01T13:56:50.256Z</time></trkpt><trkpt lat="45.25361" lon="5.62954"><ele>195.0</ele><time>2026-05-01T13:56:51.256Z</time></trkpt><trkpt lat="45.25382" lon="5.6294233"><ele>194.66666666666669</ele><time>2026-05-01T13:56:52.256Z</time></trkpt><trkpt lat="45.2540167" lon="5.6292967"><ele>194.33333333333334</ele><time>2026-05-01T13:56:53.256Z</time></trkpt><trkpt lat="45.2542167" lon="5.6291667"><ele>194.0</ele><time>2026-05-01T13:56:54.256Z</time></trkpt><trkpt lat="45.25442" lon="5.629045"><ele>194.0</ele><time>2026-05-01T13:56:55.256Z</time></trkpt><trkpt lat="45.2546283" lon="5.628945"><ele>194.0</ele><time>2026-05-01T13:56:56.256Z</time></trkpt><trkpt lat="45.2548283" lon="5.6288483"><ele>194.0</ele><time>2026-05-01T13:56:57.255Z</time></trkpt><trkpt lat="45.2550417" lon="5.6287283"><ele>195.5</ele><time>2026-05-01T13:56:58.256Z</time></trkpt><trkpt lat="45.2552517" lon="5.628605"><ele>197.0</ele><time>2026-05-01T13:56:59.256Z</time></trkpt><trkpt lat="45.2554583" lon="5.6284167"><ele>197.5</ele><time>2026-05-01T13:57:00.255Z</time></trkpt><trkpt lat="45.2556683" lon="5.6283"><ele>198.0</ele><time>2026-05-01T13:57:01.255Z</time></trkpt><trkpt lat="45.2558933" lon="5.62819"><ele>198.0</ele><time>2026-05-01T13:57:02.255Z</time></trkpt><trkpt lat="45.2561233" lon="5.6280733"><ele>198.0</ele><time>2026-05-01T13:57:03.256Z</time></trkpt><trkpt lat="45.25636" lon="5.6279633"><ele>197.5</ele><time>2026-05-01T13:57:04.256Z</time></trkpt><trkpt lat="45.2565867" lon="5.6278367"><ele>197.0</ele><time>2026-05-01T13:57:05.256Z</time></trkpt><trkpt lat="45.2568033" lon="5.6277067"><ele>196.5</ele><time>2026-05-01T13:57:06.255Z</time></trkpt><trkpt lat="45.2570233" lon="5.6275633"><ele>196.0</ele><time>2026-05-01T13:57:07.256Z</time></trkpt><trkpt lat="45.257265" lon="5.6274367"><ele>196.5</ele><time>2026-05-01T13:57:08.256Z</time></trkpt><trkpt lat="45.2575" lon="5.627315"><ele>197.0</ele><time>2026-05-01T13:57:09.256Z</time></trkpt><trkpt lat="45.2577317" lon="5.6271767"><ele>197.0</ele><time>2026-05-01T13:57:10.256Z</time></trkpt><trkpt lat="45.2579667" lon="5.6270367"><ele>197.0</ele><time>2026-05-01T13:57:11.255Z</time></trkpt><trkpt lat="45.2582083" lon="5.6268817"><ele>197.66666666666669</ele><time>2026-05-01T13:57:12.255Z</time></trkpt><trkpt lat="45.2584267" lon="5.6267517"><ele>198.33333333333331</ele><time>2026-05-01T13:57:13.256Z</time></trkpt><trkpt lat="45.258615" lon="5.6266583"><ele>199.0</ele><time>2026-05-01T13:57:14.256Z</time></trkpt><trkpt lat="45.2587867" lon="5.6265733"><ele>198.66666666666666</ele><time>2026-05-01T13:57:15.256Z</time></trkpt><trkpt lat="45.2589583" lon="5.62649"><ele>198.33333333333331</ele><time>2026-05-01T13:57:16.256Z</time></trkpt><trkpt lat="45.2591283" lon="5.62642"><ele>198.0</ele><time>2026-05-01T13:57:17.256Z</time></trkpt><trkpt lat="45.2592783" lon="5.626335"><ele>198.0</ele><time>2026-05-01T13:57:18.255Z</time></trkpt><trkpt lat="45.2594317" lon="5.6262517"><ele>198.0</ele><time>2026-05-01T13:57:19.256Z</time></trkpt><trkpt lat="45.2595883" lon="5.6261767"><ele>198.0</ele><time>2026-05-01T13:57:20.256Z</time></trkpt><trkpt lat="45.259725" lon="5.6261033"><ele>198.5</ele><time>2026-05-01T13:57:21.256Z</time></trkpt><trkpt lat="45.2598633" lon="5.6260267"><ele>199.0</ele><time>2026-05-01T13:57:22.256Z</time></trkpt><trkpt lat="45.2599833" lon="5.62595"><ele>199.5</ele><time>2026-05-01T13:57:23.256Z</time></trkpt><trkpt lat="45.260125" lon="5.625845"><ele>200.0</ele><time>2026-05-01T13:57:24.256Z</time></trkpt><trkpt lat="45.2602767" lon="5.62574"><ele>200.0</ele><time>2026-05-01T13:57:25.255Z</time></trkpt><trkpt lat="45.26045" lon="5.625635"><ele>200.0</ele><time>2026-05-01T13:57:26.255Z</time></trkpt><trkpt lat="45.260625" lon="5.62553"><ele>200.0</ele><time>2026-05-01T13:57:27.255Z</time></trkpt><trkpt lat="45.2607983" lon="5.6254283"><ele>200.0</ele><time>2026-05-01T13:57:28.256Z</time></trkpt><trkpt lat="45.2609683" lon="5.62533"><ele>200.0</ele><time>2026-05-01T13:57:29.256Z</time></trkpt><trkpt lat="45.26115" lon="5.6252433"><ele>200.0</ele><time>2026-05-01T13:57:30.256Z</time></trkpt><trkpt lat="45.261345" lon="5.6251533"><ele>199.33333333333334</ele><time>2026-05-01T13:57:31.256Z</time></trkpt><trkpt lat="45.2615333" lon="5.6250617"><ele>198.66666666666669</ele><time>2026-05-01T13:57:32.256Z</time></trkpt><trkpt lat="45.2617233" lon="5.624965"><ele>198.0</ele><time>2026-05-01T13:57:33.256Z</time></trkpt><trkpt lat="45.2619017" lon="5.6248533"><ele>198.0</ele><time>2026-05-01T13:57:34.255Z</time></trkpt><trkpt lat="45.2620783" lon="5.6247383"><ele>198.0</ele><time>2026-05-01T13:57:35.255Z</time></trkpt><trkpt lat="45.2622683" lon="5.6246083"><ele>198.0</ele><time>2026-05-01T13:57:36.256Z</time></trkpt><trkpt lat="45.2624467" lon="5.6245"><ele>198.0</ele><time>2026-05-01T13:57:37.256Z</time></trkpt><trkpt lat="45.262625" lon="5.62438"><ele>198.0</ele><time>2026-05-01T13:57:38.256Z</time></trkpt><trkpt lat="45.262775" lon="5.62429"><ele>198.0</ele><time>2026-05-01T13:57:39.256Z</time></trkpt><trkpt lat="45.262935" lon="5.6242083"><ele>198.0</ele><time>2026-05-01T13:57:40.255Z</time></trkpt><trkpt lat="45.2630817" lon="5.62412"><ele>198.0</ele><time>2026-05-01T13:57:41.256Z</time></trkpt><trkpt lat="45.2631967" lon="5.62405"><ele>198.0</ele><time>2026-05-01T13:57:42.256Z</time></trkpt><trkpt lat="45.263315" lon="5.6239917"><ele>198.0</ele><time>2026-05-01T13:57:43.255Z</time></trkpt><trkpt lat="45.2634033" lon="5.6239633"><ele>197.60000000000002</ele><time>2026-05-01T13:57:44.255Z</time></trkpt><trkpt lat="45.2634917" lon="5.6239367"><ele>197.20000000000002</ele><time>2026-05-01T13:57:45.256Z</time></trkpt><trkpt lat="45.2635833" lon="5.6239017"><ele>196.8</ele><time>2026-05-01T13:57:46.256Z</time></trkpt><trkpt lat="45.2636767" lon="5.623855"><ele>196.4</ele><time>2026-05-01T13:57:47.255Z</time></trkpt><trkpt lat="45.2637767" lon="5.623795"><ele>196.0</ele><time>2026-05-01T13:57:48.256Z</time></trkpt><trkpt lat="45.2638917" lon="5.6237233"><ele>196.0</ele><time>2026-05-01T13:57:49.256Z</time></trkpt><trkpt lat="45.2640333" lon="5.62364"><ele>196.0</ele><time>2026-05-01T13:57:50.255Z</time></trkpt><trkpt lat="45.2641933" lon="5.6235367"><ele>196.0</ele><time>2026-05-01T13:57:51.255Z</time></trkpt><trkpt lat="45.2643617" lon="5.6234317"><ele>196.0</ele><time>2026-05-01T13:57:52.255Z</time></trkpt><trkpt lat="45.26454" lon="5.6233417"><ele>196.0</ele><time>2026-05-01T13:57:53.254Z</time></trkpt><trkpt lat="45.2647267" lon="5.623245"><ele>196.0</ele><time>2026-05-01T13:57:54.254Z</time></trkpt><trkpt lat="45.2649217" lon="5.6231317"><ele>196.0</ele><time>2026-05-01T13:57:55.255Z</time></trkpt><trkpt lat="45.265105" lon="5.6230283"><ele>196.0</ele><time>2026-05-01T13:57:56.255Z</time></trkpt><trkpt lat="45.26531" lon="5.6229033"><ele>196.0</ele><time>2026-05-01T13:57:57.255Z</time></trkpt><trkpt lat="45.2655067" lon="5.6227867"><ele>195.66666666666666</ele><time>2026-05-01T13:57:58.255Z</time></trkpt><trkpt lat="45.2657067" lon="5.6226683"><ele>195.33333333333331</ele><time>2026-05-01T13:57:59.254Z</time></trkpt><trkpt lat="45.2659117" lon="5.6225333"><ele>195.0</ele><time>2026-05-01T13:58:00.255Z</time></trkpt><trkpt lat="45.2661083" lon="5.62242"><ele>195.0</ele><time>2026-05-01T13:58:01.254Z</time></trkpt><trkpt lat="45.26632" lon="5.6223067"><ele>195.0</ele><time>2026-05-01T13:58:02.254Z</time></trkpt><trkpt lat="45.26652" lon="5.62218"><ele>195.0</ele><time>2026-05-01T13:58:03.255Z</time></trkpt><trkpt lat="45.2667183" lon="5.6220717"><ele>195.33333333333331</ele><time>2026-05-01T13:58:04.255Z</time></trkpt><trkpt lat="45.2669267" lon="5.6220067"><ele>195.66666666666666</ele><time>2026-05-01T13:58:05.254Z</time></trkpt><trkpt lat="45.2671083" lon="5.6219333"><ele>196.0</ele><time>2026-05-01T13:58:06.255Z</time></trkpt><trkpt lat="45.26728" lon="5.6218283"><ele>196.0</ele><time>2026-05-01T13:58:07.255Z</time></trkpt><trkpt lat="45.2674367" lon="5.62171"><ele>196.0</ele><time>2026-05-01T13:58:08.254Z</time></trkpt><trkpt lat="45.2675683" lon="5.6215833"><ele>196.0</ele><time>2026-05-01T13:58:09.255Z</time></trkpt><trkpt lat="45.2677033" lon="5.6214717"><ele>196.0</ele><time>2026-05-01T13:58:10.254Z</time></trkpt><trkpt lat="45.2677867" lon="5.6213617"><ele>196.0</ele><time>2026-05-01T13:58:11.255Z</time></trkpt><trkpt lat="45.267865" lon="5.6212433"><ele>196.0</ele><time>2026-05-01T13:58:12.255Z</time></trkpt><trkpt lat="45.2679517" lon="5.621125"><ele>196.0</ele><time>2026-05-01T13:58:13.255Z</time></trkpt><trkpt lat="45.2680133" lon="5.6210033"><ele>195.85714285714286</ele><time>2026-05-01T13:58:14.254Z</time></trkpt><trkpt lat="45.268065" lon="5.6209033"><ele>195.71428571428572</ele><time>2026-05-01T13:58:15.254Z</time></trkpt><trkpt lat="45.2681117" lon="5.6208117"><ele>195.57142857142856</ele><time>2026-05-01T13:58:16.255Z</time></trkpt><trkpt lat="45.268145" lon="5.6207333"><ele>195.42857142857144</ele><time>2026-05-01T13:58:17.254Z</time></trkpt><trkpt lat="45.26818" lon="5.6206383"><ele>195.28571428571428</ele><time>2026-05-01T13:58:19.255Z</time></trkpt><trkpt lat="45.2681717" lon="5.6205483"><ele>195.14285714285714</ele><time>2026-05-01T13:58:33.255Z</time></trkpt><trkpt lat="45.2682133" lon="5.6204583"><ele>195.0</ele><time>2026-05-01T13:58:34.254Z</time></trkpt><trkpt lat="45.2682633" lon="5.620355"><ele>195.75</ele><time>2026-05-01T13:58:35.254Z</time></trkpt><trkpt lat="45.2683117" lon="5.6202267"><ele>196.5</ele><time>2026-05-01T13:58:36.254Z</time></trkpt><trkpt lat="45.268365" lon="5.620095"><ele>197.25</ele><time>2026-05-01T13:58:37.255Z</time></trkpt><trkpt lat="45.26843" lon="5.619945"><ele>198.0</ele><time>2026-05-01T13:58:38.254Z</time></trkpt><trkpt lat="45.2684983" lon="5.6197733"><ele>198.0</ele><time>2026-05-01T13:58:39.255Z</time></trkpt><trkpt lat="45.2685867" lon="5.6196267"><ele>198.0</ele><time>2026-05-01T13:58:40.255Z</time></trkpt><trkpt lat="45.2686933" lon="5.61949"><ele>198.0</ele><time>2026-05-01T13:58:41.254Z</time></trkpt><trkpt lat="45.2688183" lon="5.61936"><ele>198.0</ele><time>2026-05-01T13:58:42.254Z</time></trkpt><trkpt lat="45.2689717" lon="5.6192717"><ele>197.0</ele><time>2026-05-01T13:58:43.255Z</time></trkpt><trkpt lat="45.26914" lon="5.6192"><ele>196.0</ele><time>2026-05-01T13:58:44.255Z</time></trkpt><trkpt lat="45.2693033" lon="5.619155"><ele>195.0</ele><time>2026-05-01T13:58:45.255Z</time></trkpt><trkpt lat="45.2694733" lon="5.619135"><ele>195.0</ele><time>2026-05-01T13:58:46.254Z</time></trkpt><trkpt lat="45.2696767" lon="5.6191583"><ele>195.0</ele><time>2026-05-01T13:58:47.255Z</time></trkpt><trkpt lat="45.2698483" lon="5.6192"><ele>195.0</ele><time>2026-05-01T13:58:48.254Z</time></trkpt><trkpt lat="45.2700483" lon="5.6193267"><ele>195.66666666666669</ele><time>2026-05-01T13:58:49.255Z</time></trkpt><trkpt lat="45.2702" lon="5.619445"><ele>196.33333333333334</ele><time>2026-05-01T13:58:50.255Z</time></trkpt><trkpt lat="45.2703183" lon="5.61959"><ele>197.0</ele><time>2026-05-01T13:58:51.255Z</time></trkpt><trkpt lat="45.270425" lon="5.6197433"><ele>197.0</ele><time>2026-05-01T13:58:52.255Z</time></trkpt><trkpt lat="45.2705217" lon="5.6199133"><ele>197.0</ele><time>2026-05-01T13:58:53.255Z</time></trkpt><trkpt lat="45.2706217" lon="5.620125"><ele>197.0</ele><time>2026-05-01T13:58:54.255Z</time></trkpt><trkpt lat="45.2706983" lon="5.6203367"><ele>196.33333333333334</ele><time>2026-05-01T13:58:55.254Z</time></trkpt><trkpt lat="45.2707733" lon="5.6205633"><ele>195.66666666666669</ele><time>2026-05-01T13:58:56.254Z</time></trkpt><trkpt lat="45.2708417" lon="5.6207933"><ele>195.0</ele><time>2026-05-01T13:58:57.254Z</time></trkpt><trkpt lat="45.2709033" lon="5.6210417"><ele>195.0</ele><time>2026-05-01T13:58:58.254Z</time></trkpt><trkpt lat="45.27098" lon="5.6212683"><ele>195.0</ele><time>2026-05-01T13:58:59.255Z</time></trkpt><trkpt lat="45.2710567" lon="5.62149"><ele>195.0</ele><time>2026-05-01T13:59:00.255Z</time></trkpt><trkpt lat="45.2711317" lon="5.62172"><ele>195.0</ele><time>2026-05-01T13:59:01.255Z</time></trkpt><trkpt lat="45.271205" lon="5.6219317"><ele>195.0</ele><time>2026-05-01T13:59:02.255Z</time></trkpt><trkpt lat="45.2712733" lon="5.622145"><ele>195.0</ele><time>2026-05-01T13:59:03.254Z</time></trkpt><trkpt lat="45.2713267" lon="5.6223417"><ele>195.5</ele><time>2026-05-01T13:59:04.255Z</time></trkpt><trkpt lat="45.271375" lon="5.6225183"><ele>196.0</ele><time>2026-05-01T13:59:05.255Z</time></trkpt><trkpt lat="45.2714233" lon="5.62268"><ele>196.5</ele><time>2026-05-01T13:59:06.255Z</time></trkpt><trkpt lat="45.2714983" lon="5.6228317"><ele>197.0</ele><time>2026-05-01T13:59:07.254Z</time></trkpt><trkpt lat="45.271575" lon="5.62298"><ele>197.25</ele><time>2026-05-01T13:59:08.255Z</time></trkpt><trkpt lat="45.2716317" lon="5.6231567"><ele>197.5</ele><time>2026-05-01T13:59:09.254Z</time></trkpt><trkpt lat="45.2716867" lon="5.62333"><ele>197.75</ele><time>2026-05-01T13:59:10.255Z</time></trkpt><trkpt lat="45.2717433" lon="5.6235"><ele>198.0</ele><time>2026-05-01T13:59:11.255Z</time></trkpt><trkpt lat="45.2718033" lon="5.62365"><ele>198.25</ele><time>2026-05-01T13:59:12.255Z</time></trkpt><trkpt lat="45.2718667" lon="5.6237983"><ele>198.5</ele><time>2026-05-01T13:59:13.255Z</time></trkpt><trkpt lat="45.2719117" lon="5.6239383"><ele>198.75</ele><time>2026-05-01T13:59:14.255Z</time></trkpt><trkpt lat="45.271965" lon="5.6240817"><ele>199.0</ele><time>2026-05-01T13:59:15.255Z</time></trkpt><trkpt lat="45.27202" lon="5.62424"><ele>199.0</ele><time>2026-05-01T13:59:16.255Z</time></trkpt><trkpt lat="45.2720933" lon="5.6243933"><ele>199.0</ele><time>2026-05-01T13:59:17.255Z</time></trkpt><trkpt lat="45.272175" lon="5.62455"><ele>199.0</ele><time>2026-05-01T13:59:18.254Z</time></trkpt><trkpt lat="45.27224" lon="5.62473"><ele>199.0</ele><time>2026-05-01T13:59:19.255Z</time></trkpt><trkpt lat="45.2722883" lon="5.6249233"><ele>198.66666666666666</ele><time>2026-05-01T13:59:20.255Z</time></trkpt><trkpt lat="45.272335" lon="5.625135"><ele>198.33333333333331</ele><time>2026-05-01T13:59:21.254Z</time></trkpt><trkpt lat="45.2723817" lon="5.6253617"><ele>198.0</ele><time>2026-05-01T13:59:22.255Z</time></trkpt><trkpt lat="45.2724183" lon="5.625615"><ele>198.0</ele><time>2026-05-01T13:59:23.255Z</time></trkpt><trkpt lat="45.2724733" lon="5.6258383"><ele>198.0</ele><time>2026-05-01T13:59:24.255Z</time></trkpt><trkpt lat="45.2725317" lon="5.6260433"><ele>198.0</ele><time>2026-05-01T13:59:25.255Z</time></trkpt><trkpt lat="45.27259" lon="5.6262183"><ele>198.4</ele><time>2026-05-01T13:59:26.255Z</time></trkpt><trkpt lat="45.2726317" lon="5.6264067"><ele>198.8</ele><time>2026-05-01T13:59:27.254Z</time></trkpt><trkpt lat="45.2726733" lon="5.6265617"><ele>199.2</ele><time>2026-05-01T13:59:28.255Z</time></trkpt><trkpt lat="45.2727183" lon="5.62669"><ele>199.6</ele><time>2026-05-01T13:59:29.255Z</time></trkpt><trkpt lat="45.272755" lon="5.6268"><ele>200.0</ele><time>2026-05-01T13:59:30.255Z</time></trkpt><trkpt lat="45.27278" lon="5.6269133"><ele>200.33333333333334</ele><time>2026-05-01T13:59:31.254Z</time></trkpt><trkpt lat="45.2728033" lon="5.627025"><ele>200.66666666666669</ele><time>2026-05-01T13:59:32.255Z</time></trkpt><trkpt lat="45.2728367" lon="5.62712"><ele>201.0</ele><time>2026-05-01T13:59:33.254Z</time></trkpt><trkpt lat="45.272895" lon="5.627195"><ele>201.33333333333331</ele><time>2026-05-01T13:59:34.254Z</time></trkpt><trkpt lat="45.2729667" lon="5.6272367"><ele>201.66666666666666</ele><time>2026-05-01T13:59:35.254Z</time></trkpt><trkpt lat="45.2730567" lon="5.62725"><ele>202.0</ele><time>2026-05-01T13:59:36.254Z</time></trkpt><trkpt lat="45.2731533" lon="5.6272183"><ele>201.0</ele><time>2026-05-01T13:59:37.255Z</time></trkpt><trkpt lat="45.2732583" lon="5.6271567"><ele>200.0</ele><time>2026-05-01T13:59:38.255Z</time></trkpt><trkpt lat="45.2733783" lon="5.62706"><ele>199.0</ele><time>2026-05-01T13:59:39.255Z</time></trkpt><trkpt lat="45.2735167" lon="5.62696"><ele>198.0</ele><time>2026-05-01T13:59:40.255Z</time></trkpt><trkpt lat="45.2736583" lon="5.6268783"><ele>198.0</ele><time>2026-05-01T13:59:41.255Z</time></trkpt><trkpt lat="45.2738267" lon="5.6267833"><ele>198.0</ele><time>2026-05-01T13:59:42.254Z</time></trkpt><trkpt lat="45.2740067" lon="5.6266867"><ele>198.0</ele><time>2026-05-01T13:59:43.255Z</time></trkpt><trkpt lat="45.2742017" lon="5.626595"><ele>197.33333333333331</ele><time>2026-05-01T13:59:44.255Z</time></trkpt><trkpt lat="45.2744033" lon="5.6264917"><ele>196.66666666666666</ele><time>2026-05-01T13:59:45.254Z</time></trkpt><trkpt lat="45.2746133" lon="5.62639"><ele>196.0</ele><time>2026-05-01T13:59:46.255Z</time></trkpt><trkpt lat="45.274835" lon="5.6262917"><ele>196.0</ele><time>2026-05-01T13:59:47.254Z</time></trkpt><trkpt lat="45.27508" lon="5.62621"><ele>196.0</ele><time>2026-05-01T13:59:48.254Z</time></trkpt><trkpt lat="45.2753367" lon="5.6261217"><ele>196.0</ele><time>2026-05-01T13:59:49.255Z</time></trkpt><trkpt lat="45.2755933" lon="5.6260183"><ele>196.0</ele><time>2026-05-01T13:59:50.255Z</time></trkpt><trkpt lat="45.2758533" lon="5.6259317"><ele>195.5</ele><time>2026-05-01T13:59:51.255Z</time></trkpt><trkpt lat="45.276115" lon="5.62584"><ele>195.0</ele><time>2026-05-01T13:59:52.255Z</time></trkpt><trkpt lat="45.2763733" lon="5.6257633"><ele>193.5</ele><time>2026-05-01T13:59:53.254Z</time></trkpt><trkpt lat="45.2766217" lon="5.6256517"><ele>192.0</ele><time>2026-05-01T13:59:54.255Z</time></trkpt><trkpt lat="45.27688" lon="5.6255667"><ele>192.0</ele><time>2026-05-01T13:59:55.255Z</time></trkpt><trkpt lat="45.2771333" lon="5.62548"><ele>192.0</ele><time>2026-05-01T13:59:56.255Z</time></trkpt><trkpt lat="45.27738" lon="5.6253917"><ele>192.0</ele><time>2026-05-01T13:59:57.255Z</time></trkpt><trkpt lat="45.2776067" lon="5.6253167"><ele>192.0</ele><time>2026-05-01T13:59:58.255Z</time></trkpt><trkpt lat="45.2778167" lon="5.6252183"><ele>192.66666666666669</ele><time>2026-05-01T13:59:59.255Z</time></trkpt><trkpt lat="45.278015" lon="5.62515"><ele>193.33333333333334</ele><time>2026-05-01T14:00:00.255Z</time></trkpt><trkpt lat="45.278205" lon="5.6250833"><ele>194.0</ele><time>2026-05-01T14:00:01.254Z</time></trkpt><trkpt lat="45.2783933" lon="5.625025"><ele>194.0</ele><time>2026-05-01T14:00:02.254Z</time></trkpt><trkpt lat="45.2785883" lon="5.6249483"><ele>194.0</ele><time>2026-05-01T14:00:03.254Z</time></trkpt><trkpt lat="45.2787733" lon="5.6248783"><ele>194.0</ele><time>2026-05-01T14:00:04.255Z</time></trkpt><trkpt lat="45.2789533" lon="5.6248067"><ele>193.66666666666669</ele><time>2026-05-01T14:00:05.255Z</time></trkpt><trkpt lat="45.2791267" lon="5.6247417"><ele>193.33333333333331</ele><time>2026-05-01T14:00:06.254Z</time></trkpt><trkpt lat="45.27929" lon="5.6246817"><ele>193.0</ele><time>2026-05-01T14:00:07.255Z</time></trkpt><trkpt lat="45.279445" lon="5.624635"><ele>193.0</ele><time>2026-05-01T14:00:08.255Z</time></trkpt><trkpt lat="45.2795733" lon="5.6245933"><ele>193.0</ele><time>2026-05-01T14:00:09.255Z</time></trkpt><trkpt lat="45.2796883" lon="5.6245733"><ele>193.0</ele><time>2026-05-01T14:00:10.254Z</time></trkpt><trkpt lat="45.2797867" lon="5.624585"><ele>193.0</ele><time>2026-05-01T14:00:11.255Z</time></trkpt><trkpt lat="45.2798567" lon="5.62462"><ele>193.0</ele><time>2026-05-01T14:00:12.255Z</time></trkpt><trkpt lat="45.2799733" lon="5.6246383"><ele>192.8</ele><time>2026-05-01T14:00:14.255Z</time></trkpt><trkpt lat="45.2800917" lon="5.6245633"><ele>192.60000000000002</ele><time>2026-05-01T14:00:16.254Z</time></trkpt><trkpt lat="45.2801483" lon="5.6244817"><ele>192.39999999999998</ele><time>2026-05-01T14:00:17.255Z</time></trkpt><trkpt lat="45.2802333" lon="5.62439"><ele>192.2</ele><time>2026-05-01T14:00:18.255Z</time></trkpt><trkpt lat="45.2803483" lon="5.6243033"><ele>192.0</ele><time>2026-05-01T14:00:19.255Z</time></trkpt><trkpt lat="45.2805" lon="5.624245"><ele>192.0</ele><time>2026-05-01T14:00:20.255Z</time></trkpt><trkpt lat="45.2806667" lon="5.6241983"><ele>192.0</ele><time>2026-05-01T14:00:21.255Z</time></trkpt><trkpt lat="45.2808867" lon="5.6241517"><ele>192.0</ele><time>2026-05-01T14:00:22.255Z</time></trkpt><trkpt lat="45.2811033" lon="5.62411"><ele>192.0</ele><time>2026-05-01T14:00:23.255Z</time></trkpt><trkpt lat="45.2813567" lon="5.624055"><ele>192.0</ele><time>2026-05-01T14:00:24.255Z</time></trkpt><trkpt lat="45.2815733" lon="5.6240167"><ele>192.33333333333331</ele><time>2026-05-01T14:00:25.255Z</time></trkpt><trkpt lat="45.2817883" lon="5.623995"><ele>192.66666666666666</ele><time>2026-05-01T14:00:26.255Z</time></trkpt><trkpt lat="45.2820133" lon="5.623985"><ele>193.0</ele><time>2026-05-01T14:00:27.255Z</time></trkpt><trkpt lat="45.28224" lon="5.6239833"><ele>193.5</ele><time>2026-05-01T14:00:28.255Z</time></trkpt><trkpt lat="45.282475" lon="5.6239783"><ele>194.0</ele><time>2026-05-01T14:00:29.255Z</time></trkpt><trkpt lat="45.2827167" lon="5.6239567"><ele>194.0</ele><time>2026-05-01T14:00:30.255Z</time></trkpt><trkpt lat="45.2829683" lon="5.623965"><ele>194.0</ele><time>2026-05-01T14:00:31.255Z</time></trkpt><trkpt lat="45.2832133" lon="5.62398"><ele>194.5</ele><time>2026-05-01T14:00:32.254Z</time></trkpt><trkpt lat="45.2834417" lon="5.6239783"><ele>195.0</ele><time>2026-05-01T14:00:33.254Z</time></trkpt><trkpt lat="45.283675" lon="5.6239967"><ele>195.0</ele><time>2026-05-01T14:00:34.255Z</time></trkpt><trkpt lat="45.2839133" lon="5.6240033"><ele>195.0</ele><time>2026-05-01T14:00:35.255Z</time></trkpt><trkpt lat="45.2841533" lon="5.6240083"><ele>195.0</ele><time>2026-05-01T14:00:36.255Z</time></trkpt><trkpt lat="45.2844017" lon="5.6239867"><ele>195.0</ele><time>2026-05-01T14:00:37.254Z</time></trkpt><trkpt lat="45.284655" lon="5.6239733"><ele>196.0</ele><time>2026-05-01T14:00:38.255Z</time></trkpt><trkpt lat="45.2849017" lon="5.6239733"><ele>197.0</ele><time>2026-05-01T14:00:39.255Z</time></trkpt><trkpt lat="45.2851483" lon="5.6239733"><ele>197.0</ele><time>2026-05-01T14:00:40.255Z</time></trkpt><trkpt lat="45.285395" lon="5.6239783"><ele>197.0</ele><time>2026-05-01T14:00:41.255Z</time></trkpt><trkpt lat="45.2856417" lon="5.6239933"><ele>197.0</ele><time>2026-05-01T14:00:42.255Z</time></trkpt><trkpt lat="45.2858817" lon="5.62403"><ele>197.0</ele><time>2026-05-01T14:00:43.255Z</time></trkpt><trkpt lat="45.2861033" lon="5.62405"><ele>197.0</ele><time>2026-05-01T14:00:44.255Z</time></trkpt><trkpt lat="45.2863183" lon="5.624045"><ele>197.0</ele><time>2026-05-01T14:00:45.255Z</time></trkpt><trkpt lat="45.2865417" lon="5.6240483"><ele>197.0</ele><time>2026-05-01T14:00:46.254Z</time></trkpt><trkpt lat="45.286765" lon="5.6240483"><ele>195.33333333333334</ele><time>2026-05-01T14:00:47.255Z</time></trkpt><trkpt lat="45.2869917" lon="5.6240433"><ele>193.66666666666669</ele><time>2026-05-01T14:00:48.255Z</time></trkpt><trkpt lat="45.2872133" lon="5.6240383"><ele>192.0</ele><time>2026-05-01T14:00:49.255Z</time></trkpt><trkpt lat="45.28742" lon="5.62404"><ele>192.0</ele><time>2026-05-01T14:00:50.254Z</time></trkpt><trkpt lat="45.287635" lon="5.6240483"><ele>192.0</ele><time>2026-05-01T14:00:51.254Z</time></trkpt><trkpt lat="45.2878333" lon="5.624035"><ele>192.0</ele><time>2026-05-01T14:00:52.255Z</time></trkpt><trkpt lat="45.288015" lon="5.6240233"><ele>191.66666666666666</ele><time>2026-05-01T14:00:53.255Z</time></trkpt><trkpt lat="45.2881833" lon="5.6240267"><ele>191.33333333333331</ele><time>2026-05-01T14:00:54.255Z</time></trkpt><trkpt lat="45.2883533" lon="5.6240217"><ele>191.0</ele><time>2026-05-01T14:00:55.255Z</time></trkpt><trkpt lat="45.2885217" lon="5.6240117"><ele>191.0</ele><time>2026-05-01T14:00:56.255Z</time></trkpt><trkpt lat="45.2886733" lon="5.6240167"><ele>191.0</ele><time>2026-05-01T14:00:57.254Z</time></trkpt><trkpt lat="45.2888133" lon="5.62402"><ele>191.0</ele><time>2026-05-01T14:00:58.255Z</time></trkpt><trkpt lat="45.2889267" lon="5.6240317"><ele>191.0</ele><time>2026-05-01T14:00:59.255Z</time></trkpt><trkpt lat="45.2890333" lon="5.6240433"><ele>191.33333333333331</ele><time>2026-05-01T14:01:00.255Z</time></trkpt><trkpt lat="45.2891133" lon="5.6240667"><ele>191.66666666666666</ele><time>2026-05-01T14:01:01.254Z</time></trkpt><trkpt lat="45.289195" lon="5.6240817"><ele>192.0</ele><time>2026-05-01T14:01:02.255Z</time></trkpt><trkpt lat="45.2892733" lon="5.624105"><ele>192.33333333333331</ele><time>2026-05-01T14:01:03.255Z</time></trkpt><trkpt lat="45.2893417" lon="5.6241417"><ele>192.66666666666666</ele><time>2026-05-01T14:01:04.255Z</time></trkpt><trkpt lat="45.289405" lon="5.6242067"><ele>193.0</ele><time>2026-05-01T14:01:05.254Z</time></trkpt><trkpt lat="45.2894517" lon="5.6242883"><ele>192.99999999999997</ele><time>2026-05-01T14:01:06.255Z</time></trkpt><trkpt lat="45.2895033" lon="5.624365"><ele>193.0</ele><time>2026-05-01T14:01:07.255Z</time></trkpt><trkpt lat="45.2895667" lon="5.6244217"><ele>193.0</ele><time>2026-05-01T14:01:08.255Z</time></trkpt><trkpt lat="45.289635" lon="5.62447"><ele>193.0</ele><time>2026-05-01T14:01:09.255Z</time></trkpt><trkpt lat="45.2897033" lon="5.624495"><ele>192.99999999999997</ele><time>2026-05-01T14:01:10.255Z</time></trkpt><trkpt lat="45.2897817" lon="5.6244667"><ele>193.0</ele><time>2026-05-01T14:01:11.254Z</time></trkpt><trkpt lat="45.2898883" lon="5.6244317"><ele>193.33333333333331</ele><time>2026-05-01T14:01:12.255Z</time></trkpt><trkpt lat="45.2900267" lon="5.62441"><ele>193.66666666666669</ele><time>2026-05-01T14:01:13.255Z</time></trkpt><trkpt lat="45.29017" lon="5.6244367"><ele>194.0</ele><time>2026-05-01T14:01:14.254Z</time></trkpt><trkpt lat="45.29035" lon="5.6244883"><ele>194.0</ele><time>2026-05-01T14:01:15.255Z</time></trkpt><trkpt lat="45.290555" lon="5.6245667"><ele>194.0</ele><time>2026-05-01T14:01:16.255Z</time></trkpt><trkpt lat="45.2907667" lon="5.624655"><ele>194.0</ele><time>2026-05-01T14:01:17.255Z</time></trkpt><trkpt lat="45.2909883" lon="5.6247517"><ele>194.5</ele><time>2026-05-01T14:01:18.255Z</time></trkpt><trkpt lat="45.2912183" lon="5.624845"><ele>195.0</ele><time>2026-05-01T14:01:19.255Z</time></trkpt><trkpt lat="45.2914567" lon="5.6249533"><ele>195.0</ele><time>2026-05-01T14:01:20.254Z</time></trkpt><trkpt lat="45.2916833" lon="5.6250717"><ele>195.0</ele><time>2026-05-01T14:01:21.255Z</time></trkpt><trkpt lat="45.2918983" lon="5.625195"><ele>195.0</ele><time>2026-05-01T14:01:22.255Z</time></trkpt><trkpt lat="45.2921083" lon="5.6253083"><ele>195.0</ele><time>2026-05-01T14:01:23.254Z</time></trkpt><trkpt lat="45.2923133" lon="5.6254117"><ele>195.0</ele><time>2026-05-01T14:01:24.255Z</time></trkpt><trkpt lat="45.2925167" lon="5.625525"><ele>196.66666666666669</ele><time>2026-05-01T14:01:25.254Z</time></trkpt><trkpt lat="45.2927033" lon="5.62563"><ele>198.33333333333334</ele><time>2026-05-01T14:01:26.254Z</time></trkpt><trkpt lat="45.29289" lon="5.625705"><ele>200.0</ele><time>2026-05-01T14:01:27.255Z</time></trkpt><trkpt lat="45.2930867" lon="5.6258033"><ele>201.66666666666669</ele><time>2026-05-01T14:01:28.255Z</time></trkpt><trkpt lat="45.2932833" lon="5.6259"><ele>203.33333333333331</ele><time>2026-05-01T14:01:29.255Z</time></trkpt><trkpt lat="45.2934733" lon="5.6260417"><ele>205.0</ele><time>2026-05-01T14:01:30.255Z</time></trkpt><trkpt lat="45.2936667" lon="5.62619"><ele>205.33333333333331</ele><time>2026-05-01T14:01:31.255Z</time></trkpt><trkpt lat="45.293855" lon="5.626345"><ele>205.66666666666669</ele><time>2026-05-01T14:01:32.255Z</time></trkpt><trkpt lat="45.2940383" lon="5.62652"><ele>206.0</ele><time>2026-05-01T14:01:33.255Z</time></trkpt><trkpt lat="45.2942067" lon="5.6266933"><ele>206.66666666666669</ele><time>2026-05-01T14:01:34.254Z</time></trkpt><trkpt lat="45.294385" lon="5.6268733"><ele>207.33333333333331</ele><time>2026-05-01T14:01:35.255Z</time></trkpt><trkpt lat="45.2945567" lon="5.6270483"><ele>208.0</ele><time>2026-05-01T14:01:36.255Z</time></trkpt><trkpt lat="45.2947033" lon="5.6272367"><ele>209.33333333333331</ele><time>2026-05-01T14:01:37.255Z</time></trkpt><trkpt lat="45.2948033" lon="5.627415"><ele>210.66666666666669</ele><time>2026-05-01T14:01:38.255Z</time></trkpt><trkpt lat="45.294895" lon="5.6275883"><ele>212.0</ele><time>2026-05-01T14:01:39.255Z</time></trkpt><trkpt lat="45.294975" lon="5.6277767"><ele>212.5</ele><time>2026-05-01T14:01:40.255Z</time></trkpt><trkpt lat="45.2950433" lon="5.6279617"><ele>213.0</ele><time>2026-05-01T14:01:41.255Z</time></trkpt><trkpt lat="45.2950967" lon="5.628125"><ele>213.5</ele><time>2026-05-01T14:01:42.255Z</time></trkpt><trkpt lat="45.2951383" lon="5.6282767"><ele>214.0</ele><time>2026-05-01T14:01:43.254Z</time></trkpt><trkpt lat="45.2951733" lon="5.6284267"><ele>213.99999999999997</ele><time>2026-05-01T14:01:44.254Z</time></trkpt><trkpt lat="45.2951983" lon="5.628555"><ele>214.0</ele><time>2026-05-01T14:01:45.255Z</time></trkpt><trkpt lat="45.2952133" lon="5.6286833"><ele>214.0</ele><time>2026-05-01T14:01:46.255Z</time></trkpt><trkpt lat="45.2952367" lon="5.6288017"><ele>214.0</ele><time>2026-05-01T14:01:47.255Z</time></trkpt><trkpt lat="45.295275" lon="5.6289033"><ele>213.99999999999997</ele><time>2026-05-01T14:01:48.255Z</time></trkpt><trkpt lat="45.295335" lon="5.628985"><ele>214.0</ele><time>2026-05-01T14:01:49.255Z</time></trkpt><trkpt lat="45.2954" lon="5.6290367"><ele>214.2</ele><time>2026-05-01T14:01:50.255Z</time></trkpt><trkpt lat="45.2954733" lon="5.6290583"><ele>214.39999999999998</ele><time>2026-05-01T14:01:51.255Z</time></trkpt><trkpt lat="45.2955633" lon="5.6290567"><ele>214.6</ele><time>2026-05-01T14:01:52.254Z</time></trkpt><trkpt lat="45.2956733" lon="5.629015"><ele>214.8</ele><time>2026-05-01T14:01:53.255Z</time></trkpt><trkpt lat="45.29581" lon="5.6289717"><ele>215.0</ele><time>2026-05-01T14:01:54.254Z</time></trkpt><trkpt lat="45.2959567" lon="5.628975"><ele>215.33333333333334</ele><time>2026-05-01T14:01:55.255Z</time></trkpt><trkpt lat="45.2961217" lon="5.628975"><ele>215.66666666666669</ele><time>2026-05-01T14:01:56.255Z</time></trkpt><trkpt lat="45.2963033" lon="5.6289633"><ele>216.0</ele><time>2026-05-01T14:01:57.255Z</time></trkpt><trkpt lat="45.29651" lon="5.62891"><ele>216.0</ele><time>2026-05-01T14:01:58.255Z</time></trkpt><trkpt lat="45.29672" lon="5.6288533"><ele>216.0</ele><time>2026-05-01T14:01:59.255Z</time></trkpt><trkpt lat="45.296915" lon="5.6288"><ele>216.0</ele><time>2026-05-01T14:02:00.255Z</time></trkpt><trkpt lat="45.2971183" lon="5.628735"><ele>215.66666666666669</ele><time>2026-05-01T14:02:01.255Z</time></trkpt><trkpt lat="45.2973117" lon="5.6286683"><ele>215.33333333333334</ele><time>2026-05-01T14:02:02.255Z</time></trkpt><trkpt lat="45.2975117" lon="5.6286033"><ele>215.0</ele><time>2026-05-01T14:02:03.254Z</time></trkpt><trkpt lat="45.297705" lon="5.6285567"><ele>214.33333333333334</ele><time>2026-05-01T14:02:04.255Z</time></trkpt><trkpt lat="45.2978967" lon="5.62851"><ele>213.66666666666669</ele><time>2026-05-01T14:02:05.254Z</time></trkpt><trkpt lat="45.2980817" lon="5.6284633"><ele>213.0</ele><time>2026-05-01T14:02:06.255Z</time></trkpt><trkpt lat="45.2982683" lon="5.6284033"><ele>212.66666666666669</ele><time>2026-05-01T14:02:07.255Z</time></trkpt><trkpt lat="45.2984717" lon="5.6283367"><ele>212.33333333333334</ele><time>2026-05-01T14:02:08.254Z</time></trkpt><trkpt lat="45.298685" lon="5.62829"><ele>212.0</ele><time>2026-05-01T14:02:09.254Z</time></trkpt><trkpt lat="45.2988833" lon="5.6282417"><ele>211.33333333333334</ele><time>2026-05-01T14:02:10.255Z</time></trkpt><trkpt lat="45.299075" lon="5.6282117"><ele>210.66666666666669</ele><time>2026-05-01T14:02:11.255Z</time></trkpt><trkpt lat="45.2992833" lon="5.6281733"><ele>210.0</ele><time>2026-05-01T14:02:12.255Z</time></trkpt><trkpt lat="45.2994967" lon="5.6281333"><ele>210.0</ele><time>2026-05-01T14:02:13.255Z</time></trkpt><trkpt lat="45.299695" lon="5.6280817"><ele>210.0</ele><time>2026-05-01T14:02:14.255Z</time></trkpt><trkpt lat="45.2998933" lon="5.6279967"><ele>210.0</ele><time>2026-05-01T14:02:15.254Z</time></trkpt><trkpt lat="45.3000983" lon="5.6279017"><ele>208.0</ele><time>2026-05-01T14:02:16.255Z</time></trkpt><trkpt lat="45.3003233" lon="5.6277933"><ele>206.0</ele><time>2026-05-01T14:02:17.255Z</time></trkpt><trkpt lat="45.30056" lon="5.6276733"><ele>205.0</ele><time>2026-05-01T14:02:18.254Z</time></trkpt><trkpt lat="45.3008033" lon="5.627535"><ele>204.0</ele><time>2026-05-01T14:02:19.255Z</time></trkpt><trkpt lat="45.30104" lon="5.6274133"><ele>204.0</ele><time>2026-05-01T14:02:20.255Z</time></trkpt><trkpt lat="45.3012733" lon="5.627295"><ele>204.0</ele><time>2026-05-01T14:02:21.254Z</time></trkpt><trkpt lat="45.3015017" lon="5.6271817"><ele>204.5</ele><time>2026-05-01T14:02:22.255Z</time></trkpt><trkpt lat="45.3017183" lon="5.6270683"><ele>205.0</ele><time>2026-05-01T14:02:23.254Z</time></trkpt><trkpt lat="45.3019417" lon="5.626945"><ele>203.5</ele><time>2026-05-01T14:02:24.255Z</time></trkpt><trkpt lat="45.3021683" lon="5.6268183"><ele>202.0</ele><time>2026-05-01T14:02:25.255Z</time></trkpt><trkpt lat="45.302385" lon="5.6266867"><ele>201.33333333333331</ele><time>2026-05-01T14:02:26.254Z</time></trkpt><trkpt lat="45.3025683" lon="5.626585"><ele>200.66666666666669</ele><time>2026-05-01T14:02:27.255Z</time></trkpt><trkpt lat="45.30273" lon="5.6264967"><ele>200.0</ele><time>2026-05-01T14:02:28.255Z</time></trkpt><trkpt lat="45.302905" lon="5.6264"><ele>200.0</ele><time>2026-05-01T14:02:29.255Z</time></trkpt><trkpt lat="45.3030767" lon="5.6263083"><ele>200.0</ele><time>2026-05-01T14:02:30.255Z</time></trkpt><trkpt lat="45.303235" lon="5.6262183"><ele>200.0</ele><time>2026-05-01T14:02:31.255Z</time></trkpt><trkpt lat="45.3033983" lon="5.626125"><ele>199.33333333333334</ele><time>2026-05-01T14:02:32.254Z</time></trkpt><trkpt lat="45.303565" lon="5.62603"><ele>198.66666666666669</ele><time>2026-05-01T14:02:33.255Z</time></trkpt><trkpt lat="45.3037483" lon="5.6259067"><ele>198.0</ele><time>2026-05-01T14:02:34.254Z</time></trkpt><trkpt lat="45.3039133" lon="5.6258367"><ele>197.33333333333331</ele><time>2026-05-01T14:02:35.255Z</time></trkpt><trkpt lat="45.3040833" lon="5.6257267"><ele>196.66666666666666</ele><time>2026-05-01T14:02:36.254Z</time></trkpt><trkpt lat="45.3042583" lon="5.625595"><ele>196.0</ele><time>2026-05-01T14:02:37.255Z</time></trkpt><trkpt lat="45.3044417" lon="5.62545"><ele>195.66666666666666</ele><time>2026-05-01T14:02:38.254Z</time></trkpt><trkpt lat="45.3046267" lon="5.625295"><ele>195.33333333333331</ele><time>2026-05-01T14:02:39.254Z</time></trkpt><trkpt lat="45.3048117" lon="5.62512"><ele>195.0</ele><time>2026-05-01T14:02:40.255Z</time></trkpt><trkpt lat="45.3049983" lon="5.6249583"><ele>194.66666666666669</ele><time>2026-05-01T14:02:41.255Z</time></trkpt><trkpt lat="45.3051867" lon="5.6247933"><ele>194.33333333333334</ele><time>2026-05-01T14:02:42.254Z</time></trkpt><trkpt lat="45.3053717" lon="5.6246467"><ele>194.0</ele><time>2026-05-01T14:02:43.255Z</time></trkpt><trkpt lat="45.3055633" lon="5.62449"><ele>193.66666666666669</ele><time>2026-05-01T14:02:44.255Z</time></trkpt><trkpt lat="45.3057667" lon="5.624345"><ele>193.33333333333331</ele><time>2026-05-01T14:02:45.255Z</time></trkpt><trkpt lat="45.3059583" lon="5.6242"><ele>193.0</ele><time>2026-05-01T14:02:46.255Z</time></trkpt><trkpt lat="45.3061433" lon="5.62404"><ele>193.0</ele><time>2026-05-01T14:02:47.255Z</time></trkpt><trkpt lat="45.3063317" lon="5.6238767"><ele>193.0</ele><time>2026-05-01T14:02:48.255Z</time></trkpt><trkpt lat="45.3065117" lon="5.62373"><ele>193.0</ele><time>2026-05-01T14:02:49.255Z</time></trkpt><trkpt lat="45.30669" lon="5.6235967"><ele>192.66666666666666</ele><time>2026-05-01T14:02:50.254Z</time></trkpt><trkpt lat="45.3068417" lon="5.62349"><ele>192.33333333333331</ele><time>2026-05-01T14:02:51.255Z</time></trkpt><trkpt lat="45.307005" lon="5.6233833"><ele>192.0</ele><time>2026-05-01T14:02:52.254Z</time></trkpt><trkpt lat="45.307175" lon="5.6232967"><ele>191.5</ele><time>2026-05-01T14:02:53.255Z</time></trkpt><trkpt lat="45.3073217" lon="5.623195"><ele>191.0</ele><time>2026-05-01T14:02:54.255Z</time></trkpt><trkpt lat="45.307455" lon="5.6231167"><ele>190.5</ele><time>2026-05-01T14:02:55.254Z</time></trkpt><trkpt lat="45.3075733" lon="5.62304"><ele>190.0</ele><time>2026-05-01T14:02:56.254Z</time></trkpt><trkpt lat="45.3076633" lon="5.6230083"><ele>190.0</ele><time>2026-05-01T14:02:57.255Z</time></trkpt><trkpt lat="45.3077367" lon="5.6229967"><ele>190.0</ele><time>2026-05-01T14:02:58.255Z</time></trkpt><trkpt lat="45.30785" lon="5.62304"><ele>190.0</ele><time>2026-05-01T14:03:00.255Z</time></trkpt><trkpt lat="45.3079067" lon="5.6230867"><ele>190.0</ele><time>2026-05-01T14:03:01.254Z</time></trkpt><trkpt lat="45.3079683" lon="5.623135"><ele>190.0</ele><time>2026-05-01T14:03:02.255Z</time></trkpt><trkpt lat="45.3080433" lon="5.6231667"><ele>190.0</ele><time>2026-05-01T14:03:03.255Z</time></trkpt><trkpt lat="45.30813" lon="5.6231567"><ele>190.0</ele><time>2026-05-01T14:03:04.255Z</time></trkpt><trkpt lat="45.308215" lon="5.6231117"><ele>190.0</ele><time>2026-05-01T14:03:05.255Z</time></trkpt><trkpt lat="45.30829" lon="5.6230333"><ele>190.0</ele><time>2026-05-01T14:03:06.255Z</time></trkpt><trkpt lat="45.3083367" lon="5.6229267"><ele>190.0</ele><time>2026-05-01T14:03:07.255Z</time></trkpt><trkpt lat="45.3083517" lon="5.6228067"><ele>190.0</ele><time>2026-05-01T14:03:08.255Z</time></trkpt><trkpt lat="45.308345" lon="5.6226833"><ele>190.0</ele><time>2026-05-01T14:03:09.255Z</time></trkpt><trkpt lat="45.30832" lon="5.6225583"><ele>190.2</ele><time>2026-05-01T14:03:10.255Z</time></trkpt><trkpt lat="45.3082833" lon="5.6224417"><ele>190.4</ele><time>2026-05-01T14:03:11.254Z</time></trkpt><trkpt lat="45.3082583" lon="5.622315"><ele>190.60000000000002</ele><time>2026-05-01T14:03:12.255Z</time></trkpt><trkpt lat="45.308245" lon="5.6221583"><ele>190.8</ele><time>2026-05-01T14:03:13.255Z</time></trkpt><trkpt lat="45.3082533" lon="5.621985"><ele>191.0</ele><time>2026-05-01T14:03:14.255Z</time></trkpt><trkpt lat="45.308295" lon="5.621815"><ele>191.33333333333331</ele><time>2026-05-01T14:03:15.254Z</time></trkpt><trkpt lat="45.3083533" lon="5.621635"><ele>191.66666666666666</ele><time>2026-05-01T14:03:16.255Z</time></trkpt><trkpt lat="45.3084483" lon="5.621455"><ele>192.0</ele><time>2026-05-01T14:03:17.255Z</time></trkpt><trkpt lat="45.3085733" lon="5.6212633"><ele>191.33333333333334</ele><time>2026-05-01T14:03:18.255Z</time></trkpt><trkpt lat="45.3086783" lon="5.6210583"><ele>190.66666666666669</ele><time>2026-05-01T14:03:19.255Z</time></trkpt><trkpt lat="45.3087817" lon="5.6208383"><ele>190.0</ele><time>2026-05-01T14:03:20.255Z</time></trkpt><trkpt lat="45.3088767" lon="5.6206017"><ele>190.0</ele><time>2026-05-01T14:03:21.255Z</time></trkpt><trkpt lat="45.308975" lon="5.620335"><ele>190.0</ele><time>2026-05-01T14:03:22.255Z</time></trkpt><trkpt lat="45.3090633" lon="5.6200633"><ele>190.0</ele><time>2026-05-01T14:03:23.254Z</time></trkpt><trkpt lat="45.3091483" lon="5.619785"><ele>191.0</ele><time>2026-05-01T14:03:24.254Z</time></trkpt><trkpt lat="45.3092233" lon="5.6194733"><ele>192.0</ele><time>2026-05-01T14:03:25.253Z</time></trkpt><trkpt lat="45.3092967" lon="5.619175"><ele>192.0</ele><time>2026-05-01T14:03:26.254Z</time></trkpt><trkpt lat="45.3093783" lon="5.6188767"><ele>192.0</ele><time>2026-05-01T14:03:27.254Z</time></trkpt><trkpt lat="45.3094567" lon="5.6185833"><ele>192.0</ele><time>2026-05-01T14:03:28.253Z</time></trkpt><trkpt lat="45.309545" lon="5.6182867"><ele>192.0</ele><time>2026-05-01T14:03:29.254Z</time></trkpt><trkpt lat="45.30963" lon="5.6180167"><ele>192.0</ele><time>2026-05-01T14:03:30.253Z</time></trkpt><trkpt lat="45.309765" lon="5.6177067"><ele>192.0</ele><time>2026-05-01T14:03:31.254Z</time></trkpt><trkpt lat="45.30985" lon="5.617395"><ele>192.0</ele><time>2026-05-01T14:03:32.253Z</time></trkpt><trkpt lat="45.30993" lon="5.6170833"><ele>191.5</ele><time>2026-05-01T14:03:33.254Z</time></trkpt><trkpt lat="45.3100033" lon="5.6167783"><ele>191.0</ele><time>2026-05-01T14:03:34.253Z</time></trkpt><trkpt lat="45.310085" lon="5.6164733"><ele>191.0</ele><time>2026-05-01T14:03:35.253Z</time></trkpt><trkpt lat="45.3101867" lon="5.6161683"><ele>191.0</ele><time>2026-05-01T14:03:36.254Z</time></trkpt><trkpt lat="45.310305" lon="5.61588"><ele>191.5</ele><time>2026-05-01T14:03:37.254Z</time></trkpt><trkpt lat="45.3103917" lon="5.61553"><ele>192.0</ele><time>2026-05-01T14:03:38.253Z</time></trkpt><trkpt lat="45.3104833" lon="5.615185"><ele>191.5</ele><time>2026-05-01T14:03:39.254Z</time></trkpt><trkpt lat="45.3105817" lon="5.6148267"><ele>191.0</ele><time>2026-05-01T14:03:40.254Z</time></trkpt><trkpt lat="45.3106817" lon="5.6144717"><ele>191.0</ele><time>2026-05-01T14:03:41.253Z</time></trkpt><trkpt lat="45.31079" lon="5.6141183"><ele>191.0</ele><time>2026-05-01T14:03:42.254Z</time></trkpt><trkpt lat="45.310905" lon="5.613765"><ele>191.0</ele><time>2026-05-01T14:03:43.254Z</time></trkpt><trkpt lat="45.3110183" lon="5.6134367"><ele>191.0</ele><time>2026-05-01T14:03:44.254Z</time></trkpt><trkpt lat="45.3111417" lon="5.61311"><ele>191.0</ele><time>2026-05-01T14:03:45.253Z</time></trkpt><trkpt lat="45.3112583" lon="5.6127933"><ele>191.0</ele><time>2026-05-01T14:03:46.254Z</time></trkpt><trkpt lat="45.3113883" lon="5.6124867"><ele>190.5</ele><time>2026-05-01T14:03:47.254Z</time></trkpt><trkpt lat="45.31152" lon="5.6122033"><ele>190.0</ele><time>2026-05-01T14:03:48.254Z</time></trkpt><trkpt lat="45.3116633" lon="5.6119167"><ele>190.0</ele><time>2026-05-01T14:03:49.254Z</time></trkpt><trkpt lat="45.3118017" lon="5.6116467"><ele>190.0</ele><time>2026-05-01T14:03:50.254Z</time></trkpt><trkpt lat="45.31194" lon="5.61138"><ele>190.0</ele><time>2026-05-01T14:03:51.253Z</time></trkpt><trkpt lat="45.31209" lon="5.61109"><ele>190.0</ele><time>2026-05-01T14:03:52.254Z</time></trkpt><trkpt lat="45.31224" lon="5.61082"><ele>189.5</ele><time>2026-05-01T14:03:53.254Z</time></trkpt><trkpt lat="45.3123833" lon="5.6105633"><ele>189.0</ele><time>2026-05-01T14:03:54.254Z</time></trkpt><trkpt lat="45.3125367" lon="5.6102867"><ele>189.0</ele><time>2026-05-01T14:03:55.253Z</time></trkpt><trkpt lat="45.3126883" lon="5.6099933"><ele>189.0</ele><time>2026-05-01T14:03:56.253Z</time></trkpt><trkpt lat="45.3128433" lon="5.6097067"><ele>189.0</ele><time>2026-05-01T14:03:57.253Z</time></trkpt><trkpt lat="45.3129833" lon="5.6094183"><ele>189.0</ele><time>2026-05-01T14:03:58.254Z</time></trkpt><trkpt lat="45.3131333" lon="5.60915"><ele>189.0</ele><time>2026-05-01T14:03:59.254Z</time></trkpt><trkpt lat="45.31328" lon="5.60888"><ele>189.0</ele><time>2026-05-01T14:04:00.254Z</time></trkpt><trkpt lat="45.31341" lon="5.608585"><ele>189.0</ele><time>2026-05-01T14:04:01.254Z</time></trkpt><trkpt lat="45.31355" lon="5.6083267"><ele>189.0</ele><time>2026-05-01T14:04:02.253Z</time></trkpt><trkpt lat="45.3136717" lon="5.6080583"><ele>189.33333333333334</ele><time>2026-05-01T14:04:03.253Z</time></trkpt><trkpt lat="45.313805" lon="5.6077883"><ele>189.66666666666669</ele><time>2026-05-01T14:04:04.254Z</time></trkpt><trkpt lat="45.3139267" lon="5.607545"><ele>190.0</ele><time>2026-05-01T14:04:05.253Z</time></trkpt><trkpt lat="45.3140483" lon="5.6073133"><ele>190.0</ele><time>2026-05-01T14:04:06.254Z</time></trkpt><trkpt lat="45.3141533" lon="5.607085"><ele>190.0</ele><time>2026-05-01T14:04:07.254Z</time></trkpt><trkpt lat="45.3142517" lon="5.60689"><ele>190.0</ele><time>2026-05-01T14:04:08.253Z</time></trkpt><trkpt lat="45.3143533" lon="5.6067"><ele>190.0</ele><time>2026-05-01T14:04:09.254Z</time></trkpt><trkpt lat="45.3144517" lon="5.6065283"><ele>190.0</ele><time>2026-05-01T14:04:10.254Z</time></trkpt><trkpt lat="45.3145467" lon="5.6063683"><ele>190.0</ele><time>2026-05-01T14:04:11.253Z</time></trkpt><trkpt lat="45.3146317" lon="5.60623"><ele>190.0</ele><time>2026-05-01T14:04:12.254Z</time></trkpt><trkpt lat="45.3147067" lon="5.60612"><ele>189.66666666666669</ele><time>2026-05-01T14:04:13.253Z</time></trkpt><trkpt lat="45.31479" lon="5.6060433"><ele>189.33333333333334</ele><time>2026-05-01T14:04:14.254Z</time></trkpt><trkpt lat="45.3148717" lon="5.6059983"><ele>189.0</ele><time>2026-05-01T14:04:15.254Z</time></trkpt><trkpt lat="45.314945" lon="5.6059533"><ele>188.66666666666666</ele><time>2026-05-01T14:04:16.254Z</time></trkpt><trkpt lat="45.3150083" lon="5.6059183"><ele>188.33333333333331</ele><time>2026-05-01T14:04:17.253Z</time></trkpt><trkpt lat="45.3150633" lon="5.6058417"><ele>188.0</ele><time>2026-05-01T14:04:18.254Z</time></trkpt><trkpt lat="45.3151083" lon="5.6057517"><ele>188.0</ele><time>2026-05-01T14:04:19.253Z</time></trkpt><trkpt lat="45.31514" lon="5.60564"><ele>188.0</ele><time>2026-05-01T14:04:20.253Z</time></trkpt><trkpt lat="45.3151667" lon="5.6055083"><ele>188.0</ele><time>2026-05-01T14:04:21.254Z</time></trkpt><trkpt lat="45.3151733" lon="5.6053533"><ele>188.0</ele><time>2026-05-01T14:04:22.253Z</time></trkpt><trkpt lat="45.3151933" lon="5.6052"><ele>188.0</ele><time>2026-05-01T14:04:23.254Z</time></trkpt><trkpt lat="45.3152433" lon="5.6050267"><ele>188.0</ele><time>2026-05-01T14:04:24.254Z</time></trkpt><trkpt lat="45.3153417" lon="5.6047983"><ele>188.0</ele><time>2026-05-01T14:04:25.253Z</time></trkpt><trkpt lat="45.3154517" lon="5.604585"><ele>188.0</ele><time>2026-05-01T14:04:26.254Z</time></trkpt><trkpt lat="45.3156" lon="5.60436"><ele>189.0</ele><time>2026-05-01T14:04:27.254Z</time></trkpt><trkpt lat="45.3157767" lon="5.6041283"><ele>190.0</ele><time>2026-05-01T14:04:28.254Z</time></trkpt><trkpt lat="45.3159517" lon="5.6039267"><ele>190.0</ele><time>2026-05-01T14:04:29.254Z</time></trkpt><trkpt lat="45.3161133" lon="5.6037217"><ele>190.0</ele><time>2026-05-01T14:04:30.253Z</time></trkpt><trkpt lat="45.31632" lon="5.6035317"><ele>189.5</ele><time>2026-05-01T14:04:31.253Z</time></trkpt><trkpt lat="45.316485" lon="5.6032967"><ele>189.0</ele><time>2026-05-01T14:04:32.254Z</time></trkpt><trkpt lat="45.3166467" lon="5.603055"><ele>189.0</ele><time>2026-05-01T14:04:33.253Z</time></trkpt><trkpt lat="45.3168017" lon="5.6028433"><ele>189.0</ele><time>2026-05-01T14:04:34.254Z</time></trkpt><trkpt lat="45.31696" lon="5.602625"><ele>189.0</ele><time>2026-05-01T14:04:35.253Z</time></trkpt><trkpt lat="45.3171333" lon="5.602395"><ele>189.5</ele><time>2026-05-01T14:04:36.253Z</time></trkpt><trkpt lat="45.3173033" lon="5.6021567"><ele>190.0</ele><time>2026-05-01T14:04:37.254Z</time></trkpt><trkpt lat="45.3174783" lon="5.60193"><ele>190.0</ele><time>2026-05-01T14:04:38.254Z</time></trkpt><trkpt lat="45.31766" lon="5.6016867"><ele>190.0</ele><time>2026-05-01T14:04:39.254Z</time></trkpt><trkpt lat="45.31783" lon="5.6014483"><ele>190.0</ele><time>2026-05-01T14:04:40.254Z</time></trkpt><trkpt lat="45.3180083" lon="5.6012117"><ele>190.0</ele><time>2026-05-01T14:04:41.254Z</time></trkpt><trkpt lat="45.3181767" lon="5.600985"><ele>190.0</ele><time>2026-05-01T14:04:42.254Z</time></trkpt><trkpt lat="45.31835" lon="5.60076"><ele>190.0</ele><time>2026-05-01T14:04:43.254Z</time></trkpt><trkpt lat="45.3185267" lon="5.6005167"><ele>190.0</ele><time>2026-05-01T14:04:44.254Z</time></trkpt><trkpt lat="45.318715" lon="5.6002733"><ele>190.0</ele><time>2026-05-01T14:04:45.254Z</time></trkpt><trkpt lat="45.3188967" lon="5.6000283"><ele>190.5</ele><time>2026-05-01T14:04:46.253Z</time></trkpt><trkpt lat="45.319095" lon="5.5997633"><ele>191.0</ele><time>2026-05-01T14:04:47.254Z</time></trkpt><trkpt lat="45.31928" lon="5.599515"><ele>191.0</ele><time>2026-05-01T14:04:48.254Z</time></trkpt><trkpt lat="45.3194717" lon="5.59925"><ele>191.0</ele><time>2026-05-01T14:04:49.254Z</time></trkpt><trkpt lat="45.3196567" lon="5.5990017"><ele>191.0</ele><time>2026-05-01T14:04:50.254Z</time></trkpt><trkpt lat="45.3198417" lon="5.5987517"><ele>191.0</ele><time>2026-05-01T14:04:51.254Z</time></trkpt><trkpt lat="45.3200333" lon="5.59849"><ele>191.5</ele><time>2026-05-01T14:04:52.253Z</time></trkpt><trkpt lat="45.320225" lon="5.5982283"><ele>192.0</ele><time>2026-05-01T14:04:53.254Z</time></trkpt><trkpt lat="45.3204133" lon="5.5979633"><ele>191.0</ele><time>2026-05-01T14:04:54.254Z</time></trkpt><trkpt lat="45.3206133" lon="5.597705"><ele>190.0</ele><time>2026-05-01T14:04:55.253Z</time></trkpt><trkpt lat="45.32079" lon="5.59747"><ele>190.0</ele><time>2026-05-01T14:04:56.254Z</time></trkpt><trkpt lat="45.3209867" lon="5.5972083"><ele>190.0</ele><time>2026-05-01T14:04:57.254Z</time></trkpt><trkpt lat="45.3211833" lon="5.5969583"><ele>190.0</ele><time>2026-05-01T14:04:58.254Z</time></trkpt><trkpt lat="45.3213783" lon="5.5966883"><ele>190.0</ele><time>2026-05-01T14:04:59.254Z</time></trkpt><trkpt lat="45.321575" lon="5.59643"><ele>190.0</ele><time>2026-05-01T14:05:00.253Z</time></trkpt><trkpt lat="45.3217617" lon="5.5961717"><ele>190.0</ele><time>2026-05-01T14:05:01.254Z</time></trkpt><trkpt lat="45.3219433" lon="5.59591"><ele>189.5</ele><time>2026-05-01T14:05:02.254Z</time></trkpt><trkpt lat="45.3221283" lon="5.5956483"><ele>189.0</ele><time>2026-05-01T14:05:03.254Z</time></trkpt><trkpt lat="45.3223083" lon="5.59541"><ele>189.5</ele><time>2026-05-01T14:05:04.253Z</time></trkpt><trkpt lat="45.3224833" lon="5.5951617"><ele>190.0</ele><time>2026-05-01T14:05:05.254Z</time></trkpt><trkpt lat="45.3226633" lon="5.5949233"><ele>190.0</ele><time>2026-05-01T14:05:06.254Z</time></trkpt><trkpt lat="45.322835" lon="5.5946783"><ele>190.0</ele><time>2026-05-01T14:05:07.254Z</time></trkpt><trkpt lat="45.322995" lon="5.5944333"><ele>190.0</ele><time>2026-05-01T14:05:08.254Z</time></trkpt><trkpt lat="45.3231517" lon="5.5941667"><ele>190.0</ele><time>2026-05-01T14:05:09.254Z</time></trkpt><trkpt lat="45.3233033" lon="5.593885"><ele>190.0</ele><time>2026-05-01T14:05:10.254Z</time></trkpt><trkpt lat="45.3234417" lon="5.59359"><ele>190.0</ele><time>2026-05-01T14:05:11.254Z</time></trkpt><trkpt lat="45.3235683" lon="5.59328"><ele>190.0</ele><time>2026-05-01T14:05:12.253Z</time></trkpt><trkpt lat="45.3236767" lon="5.5929533"><ele>190.0</ele><time>2026-05-01T14:05:13.253Z</time></trkpt><trkpt lat="45.32378" lon="5.5926067"><ele>190.5</ele><time>2026-05-01T14:05:14.254Z</time></trkpt><trkpt lat="45.3238817" lon="5.5922317"><ele>191.0</ele><time>2026-05-01T14:05:15.253Z</time></trkpt><trkpt lat="45.3239867" lon="5.5918783"><ele>191.5</ele><time>2026-05-01T14:05:16.254Z</time></trkpt><trkpt lat="45.324085" lon="5.59153"><ele>192.0</ele><time>2026-05-01T14:05:17.254Z</time></trkpt><trkpt lat="45.3242017" lon="5.591185"><ele>192.5</ele><time>2026-05-01T14:05:18.254Z</time></trkpt><trkpt lat="45.3242983" lon="5.5908433"><ele>193.0</ele><time>2026-05-01T14:05:19.254Z</time></trkpt><trkpt lat="45.324405" lon="5.5905217"><ele>194.0</ele><time>2026-05-01T14:05:20.254Z</time></trkpt><trkpt lat="45.324495" lon="5.590215"><ele>195.0</ele><time>2026-05-01T14:05:21.253Z</time></trkpt><trkpt lat="45.3245933" lon="5.5899083"><ele>195.0</ele><time>2026-05-01T14:05:22.253Z</time></trkpt><trkpt lat="45.3246967" lon="5.5896033"><ele>195.0</ele><time>2026-05-01T14:05:23.254Z</time></trkpt><trkpt lat="45.3247983" lon="5.5893033"><ele>195.0</ele><time>2026-05-01T14:05:24.253Z</time></trkpt><trkpt lat="45.3248967" lon="5.589015"><ele>195.0</ele><time>2026-05-01T14:05:25.254Z</time></trkpt><trkpt lat="45.32498" lon="5.5887317"><ele>195.0</ele><time>2026-05-01T14:05:26.254Z</time></trkpt><trkpt lat="45.3250767" lon="5.5884683"><ele>195.0</ele><time>2026-05-01T14:05:27.254Z</time></trkpt><trkpt lat="45.3251633" lon="5.5881967"><ele>195.0</ele><time>2026-05-01T14:05:28.254Z</time></trkpt><trkpt lat="45.32524" lon="5.587935"><ele>195.0</ele><time>2026-05-01T14:05:29.254Z</time></trkpt><trkpt lat="45.3253117" lon="5.5876767"><ele>195.0</ele><time>2026-05-01T14:05:30.254Z</time></trkpt><trkpt lat="45.3253867" lon="5.5874233"><ele>195.0</ele><time>2026-05-01T14:05:31.254Z</time></trkpt><trkpt lat="45.3254583" lon="5.587185"><ele>195.0</ele><time>2026-05-01T14:05:32.253Z</time></trkpt><trkpt lat="45.32553" lon="5.5869683"><ele>195.33333333333331</ele><time>2026-05-01T14:05:33.254Z</time></trkpt><trkpt lat="45.3255983" lon="5.586745"><ele>195.66666666666666</ele><time>2026-05-01T14:05:34.254Z</time></trkpt><trkpt lat="45.32566" lon="5.58652"><ele>196.0</ele><time>2026-05-01T14:05:35.254Z</time></trkpt><trkpt lat="45.32571" lon="5.586285"><ele>195.66666666666666</ele><time>2026-05-01T14:05:36.254Z</time></trkpt><trkpt lat="45.32577" lon="5.5860233"><ele>195.33333333333331</ele><time>2026-05-01T14:05:37.254Z</time></trkpt><trkpt lat="45.3258217" lon="5.5857517"><ele>195.0</ele><time>2026-05-01T14:05:38.253Z</time></trkpt><trkpt lat="45.3258717" lon="5.5854583"><ele>195.0</ele><time>2026-05-01T14:05:39.254Z</time></trkpt><trkpt lat="45.3258967" lon="5.5851533"><ele>195.0</ele><time>2026-05-01T14:05:40.253Z</time></trkpt><trkpt lat="45.32592" lon="5.584855"><ele>195.0</ele><time>2026-05-01T14:05:41.253Z</time></trkpt><trkpt lat="45.3259483" lon="5.5845433"><ele>195.0</ele><time>2026-05-01T14:05:42.254Z</time></trkpt><trkpt lat="45.3259933" lon="5.58423"><ele>195.0</ele><time>2026-05-01T14:05:43.254Z</time></trkpt><trkpt lat="45.3260333" lon="5.5839283"><ele>195.0</ele><time>2026-05-01T14:05:44.254Z</time></trkpt><trkpt lat="45.32605" lon="5.5836117"><ele>194.5</ele><time>2026-05-01T14:05:45.253Z</time></trkpt><trkpt lat="45.326055" lon="5.5832983"><ele>194.0</ele><time>2026-05-01T14:05:46.253Z</time></trkpt><trkpt lat="45.3260683" lon="5.5829683"><ele>193.0</ele><time>2026-05-01T14:05:47.254Z</time></trkpt><trkpt lat="45.3261117" lon="5.582645"><ele>192.0</ele><time>2026-05-01T14:05:48.254Z</time></trkpt><trkpt lat="45.32615" lon="5.5823333"><ele>192.0</ele><time>2026-05-01T14:05:49.254Z</time></trkpt><trkpt lat="45.326175" lon="5.5820483"><ele>192.0</ele><time>2026-05-01T14:05:50.253Z</time></trkpt><trkpt lat="45.3262033" lon="5.581765"><ele>192.0</ele><time>2026-05-01T14:05:51.254Z</time></trkpt><trkpt lat="45.3262183" lon="5.5814883"><ele>191.66666666666666</ele><time>2026-05-01T14:05:52.254Z</time></trkpt><trkpt lat="45.3262467" lon="5.58123"><ele>191.33333333333331</ele><time>2026-05-01T14:05:53.254Z</time></trkpt><trkpt lat="45.3262617" lon="5.5809883"><ele>191.0</ele><time>2026-05-01T14:05:54.254Z</time></trkpt><trkpt lat="45.3262717" lon="5.580755"><ele>191.0</ele><time>2026-05-01T14:05:55.254Z</time></trkpt><trkpt lat="45.3263" lon="5.5805333"><ele>191.0</ele><time>2026-05-01T14:05:56.254Z</time></trkpt><trkpt lat="45.3263567" lon="5.5802883"><ele>191.0</ele><time>2026-05-01T14:05:57.254Z</time></trkpt><trkpt lat="45.3263883" lon="5.5800333"><ele>191.33333333333331</ele><time>2026-05-01T14:05:58.253Z</time></trkpt><trkpt lat="45.32642" lon="5.5797683"><ele>191.66666666666666</ele><time>2026-05-01T14:05:59.254Z</time></trkpt><trkpt lat="45.32645" lon="5.5795017"><ele>192.0</ele><time>2026-05-01T14:06:00.254Z</time></trkpt><trkpt lat="45.326485" lon="5.5792367"><ele>192.0</ele><time>2026-05-01T14:06:01.254Z</time></trkpt><trkpt lat="45.326515" lon="5.578975"><ele>192.0</ele><time>2026-05-01T14:06:02.254Z</time></trkpt><trkpt lat="45.32654" lon="5.5787283"><ele>192.0</ele><time>2026-05-01T14:06:03.254Z</time></trkpt><trkpt lat="45.3265483" lon="5.5784917"><ele>192.33333333333331</ele><time>2026-05-01T14:06:04.254Z</time></trkpt><trkpt lat="45.326565" lon="5.5782583"><ele>192.66666666666666</ele><time>2026-05-01T14:06:05.253Z</time></trkpt><trkpt lat="45.3265817" lon="5.5780283"><ele>193.0</ele><time>2026-05-01T14:06:06.254Z</time></trkpt><trkpt lat="45.3266267" lon="5.5778033"><ele>192.5</ele><time>2026-05-01T14:06:07.253Z</time></trkpt><trkpt lat="45.3266517" lon="5.57758"><ele>192.0</ele><time>2026-05-01T14:06:08.254Z</time></trkpt><trkpt lat="45.326675" lon="5.57737"><ele>191.5</ele><time>2026-05-01T14:06:09.254Z</time></trkpt><trkpt lat="45.3266983" lon="5.57718"><ele>191.0</ele><time>2026-05-01T14:06:10.254Z</time></trkpt><trkpt lat="45.326705" lon="5.577"><ele>191.0</ele><time>2026-05-01T14:06:11.254Z</time></trkpt><trkpt lat="45.326705" lon="5.5768267"><ele>191.0</ele><time>2026-05-01T14:06:12.254Z</time></trkpt><trkpt lat="45.3267133" lon="5.576665"><ele>191.0</ele><time>2026-05-01T14:06:13.254Z</time></trkpt><trkpt lat="45.3267267" lon="5.5765067"><ele>191.0</ele><time>2026-05-01T14:06:14.253Z</time></trkpt><trkpt lat="45.32674" lon="5.5763417"><ele>191.25</ele><time>2026-05-01T14:06:15.254Z</time></trkpt><trkpt lat="45.32675" lon="5.5761733"><ele>191.5</ele><time>2026-05-01T14:06:16.254Z</time></trkpt><trkpt lat="45.326765" lon="5.5759967"><ele>191.75</ele><time>2026-05-01T14:06:17.254Z</time></trkpt><trkpt lat="45.3267833" lon="5.5758317"><ele>192.0</ele><time>2026-05-01T14:06:18.253Z</time></trkpt><trkpt lat="45.3267917" lon="5.5756217"><ele>192.0</ele><time>2026-05-01T14:06:19.254Z</time></trkpt><trkpt lat="45.32681" lon="5.5754367"><ele>192.0</ele><time>2026-05-01T14:06:20.254Z</time></trkpt><trkpt lat="45.3268383" lon="5.5752167"><ele>192.0</ele><time>2026-05-01T14:06:21.253Z</time></trkpt><trkpt lat="45.3268617" lon="5.57498"><ele>192.33333333333331</ele><time>2026-05-01T14:06:22.254Z</time></trkpt><trkpt lat="45.3268933" lon="5.5747367"><ele>192.66666666666666</ele><time>2026-05-01T14:06:23.253Z</time></trkpt><trkpt lat="45.3269083" lon="5.5744883"><ele>193.0</ele><time>2026-05-01T14:06:24.254Z</time></trkpt><trkpt lat="45.326935" lon="5.5742517"><ele>193.33333333333331</ele><time>2026-05-01T14:06:25.254Z</time></trkpt><trkpt lat="45.3269567" lon="5.5740283"><ele>193.66666666666669</ele><time>2026-05-01T14:06:26.253Z</time></trkpt><trkpt lat="45.326995" lon="5.5738033"><ele>194.0</ele><time>2026-05-01T14:06:27.253Z</time></trkpt><trkpt lat="45.3270667" lon="5.5736017"><ele>194.0</ele><time>2026-05-01T14:06:28.254Z</time></trkpt><trkpt lat="45.3271367" lon="5.5733967"><ele>194.0</ele><time>2026-05-01T14:06:29.253Z</time></trkpt><trkpt lat="45.3271883" lon="5.5731833"><ele>194.0</ele><time>2026-05-01T14:06:30.254Z</time></trkpt><trkpt lat="45.3272617" lon="5.57296"><ele>193.66666666666669</ele><time>2026-05-01T14:06:31.254Z</time></trkpt><trkpt lat="45.32733" lon="5.572725"><ele>193.33333333333331</ele><time>2026-05-01T14:06:32.253Z</time></trkpt><trkpt lat="45.327415" lon="5.5724817"><ele>193.0</ele><time>2026-05-01T14:06:33.254Z</time></trkpt><trkpt lat="45.3275133" lon="5.5722233"><ele>194.33333333333331</ele><time>2026-05-01T14:06:34.254Z</time></trkpt><trkpt lat="45.3276183" lon="5.57195"><ele>195.66666666666669</ele><time>2026-05-01T14:06:35.254Z</time></trkpt><trkpt lat="45.3277267" lon="5.5716817"><ele>197.0</ele><time>2026-05-01T14:06:36.253Z</time></trkpt><trkpt lat="45.32785" lon="5.5714283"><ele>197.33333333333334</ele><time>2026-05-01T14:06:37.254Z</time></trkpt><trkpt lat="45.3279717" lon="5.5711633"><ele>197.66666666666669</ele><time>2026-05-01T14:06:38.254Z</time></trkpt><trkpt lat="45.328105" lon="5.570905"><ele>198.0</ele><time>2026-05-01T14:06:39.254Z</time></trkpt><trkpt lat="45.3282683" lon="5.5706217"><ele>198.5</ele><time>2026-05-01T14:06:40.254Z</time></trkpt><trkpt lat="45.32842" lon="5.5703767"><ele>199.0</ele><time>2026-05-01T14:06:41.254Z</time></trkpt><trkpt lat="45.3285817" lon="5.5701383"><ele>199.0</ele><time>2026-05-01T14:06:42.254Z</time></trkpt><trkpt lat="45.328745" lon="5.569965"><ele>199.0</ele><time>2026-05-01T14:06:43.254Z</time></trkpt><trkpt lat="45.3288967" lon="5.569785"><ele>199.0</ele><time>2026-05-01T14:06:44.254Z</time></trkpt><trkpt lat="45.3290433" lon="5.5696133"><ele>199.33333333333331</ele><time>2026-05-01T14:06:45.253Z</time></trkpt><trkpt lat="45.3292017" lon="5.569455"><ele>199.66666666666669</ele><time>2026-05-01T14:06:46.253Z</time></trkpt><trkpt lat="45.3293583" lon="5.5693183"><ele>200.0</ele><time>2026-05-01T14:06:47.254Z</time></trkpt><trkpt lat="45.32953" lon="5.569175"><ele>200.0</ele><time>2026-05-01T14:06:48.254Z</time></trkpt><trkpt lat="45.3297" lon="5.56902"><ele>200.0</ele><time>2026-05-01T14:06:49.254Z</time></trkpt><trkpt lat="45.329865" lon="5.568865"><ele>200.0</ele><time>2026-05-01T14:06:50.254Z</time></trkpt><trkpt lat="45.3300417" lon="5.5686983"><ele>200.66666666666669</ele><time>2026-05-01T14:06:51.253Z</time></trkpt><trkpt lat="45.3302233" lon="5.5685233"><ele>201.33333333333331</ele><time>2026-05-01T14:06:52.254Z</time></trkpt><trkpt lat="45.3304067" lon="5.5683317"><ele>202.0</ele><time>2026-05-01T14:06:53.253Z</time></trkpt><trkpt lat="45.3305983" lon="5.56813"><ele>202.5</ele><time>2026-05-01T14:06:54.254Z</time></trkpt><trkpt lat="45.3307933" lon="5.5679417"><ele>203.0</ele><time>2026-05-01T14:06:55.253Z</time></trkpt><trkpt lat="45.330995" lon="5.5677433"><ele>203.5</ele><time>2026-05-01T14:06:56.253Z</time></trkpt><trkpt lat="45.3311933" lon="5.5675383"><ele>204.0</ele><time>2026-05-01T14:06:57.253Z</time></trkpt><trkpt lat="45.331405" lon="5.56733"><ele>207.5</ele><time>2026-05-01T14:06:58.254Z</time></trkpt><trkpt lat="45.33162" lon="5.567125"><ele>211.0</ele><time>2026-05-01T14:06:59.253Z</time></trkpt><trkpt lat="45.3318317" lon="5.5669183"><ele>213.5</ele><time>2026-05-01T14:07:00.254Z</time></trkpt><trkpt lat="45.3320283" lon="5.5667167"><ele>216.0</ele><time>2026-05-01T14:07:01.253Z</time></trkpt><trkpt lat="45.3322333" lon="5.5665133"><ele>218.0</ele><time>2026-05-01T14:07:02.253Z</time></trkpt><trkpt lat="45.3324367" lon="5.5663183"><ele>220.0</ele><time>2026-05-01T14:07:03.253Z</time></trkpt><trkpt lat="45.33263" lon="5.5661317"><ele>220.0</ele><time>2026-05-01T14:07:04.253Z</time></trkpt><trkpt lat="45.332815" lon="5.5659317"><ele>220.0</ele><time>2026-05-01T14:07:05.253Z</time></trkpt><trkpt lat="45.3329867" lon="5.5657317"><ele>221.0</ele><time>2026-05-01T14:07:06.254Z</time></trkpt><trkpt lat="45.3331517" lon="5.5655333"><ele>222.0</ele><time>2026-05-01T14:07:07.254Z</time></trkpt><trkpt lat="45.3333233" lon="5.5653017"><ele>222.0</ele><time>2026-05-01T14:07:08.254Z</time></trkpt><trkpt lat="45.3334733" lon="5.5650817"><ele>222.0</ele><time>2026-05-01T14:07:09.253Z</time></trkpt><trkpt lat="45.3336233" lon="5.5648317"><ele>222.0</ele><time>2026-05-01T14:07:10.254Z</time></trkpt><trkpt lat="45.333765" lon="5.564585"><ele>224.0</ele><time>2026-05-01T14:07:11.254Z</time></trkpt><trkpt lat="45.3339067" lon="5.5643217"><ele>226.0</ele><time>2026-05-01T14:07:12.254Z</time></trkpt><trkpt lat="45.3340417" lon="5.5640633"><ele>226.0</ele><time>2026-05-01T14:07:13.254Z</time></trkpt><trkpt lat="45.3341717" lon="5.563805"><ele>226.0</ele><time>2026-05-01T14:07:14.253Z</time></trkpt><trkpt lat="45.3342883" lon="5.5635533"><ele>226.0</ele><time>2026-05-01T14:07:15.254Z</time></trkpt><trkpt lat="45.3344" lon="5.5633017"><ele>226.0</ele><time>2026-05-01T14:07:16.254Z</time></trkpt><trkpt lat="45.3345033" lon="5.5630217"><ele>226.0</ele><time>2026-05-01T14:07:17.254Z</time></trkpt><trkpt lat="45.33459" lon="5.5627367"><ele>226.0</ele><time>2026-05-01T14:07:18.254Z</time></trkpt><trkpt lat="45.33468" lon="5.562455"><ele>226.33333333333331</ele><time>2026-05-01T14:07:19.254Z</time></trkpt><trkpt lat="45.33477" lon="5.5621717"><ele>226.66666666666669</ele><time>2026-05-01T14:07:20.254Z</time></trkpt><trkpt lat="45.3348467" lon="5.561865"><ele>227.0</ele><time>2026-05-01T14:07:21.253Z</time></trkpt><trkpt lat="45.3349117" lon="5.5615467"><ele>226.0</ele><time>2026-05-01T14:07:22.254Z</time></trkpt><trkpt lat="45.3349817" lon="5.56122"><ele>225.0</ele><time>2026-05-01T14:07:23.253Z</time></trkpt><trkpt lat="45.3350517" lon="5.5608733"><ele>223.5</ele><time>2026-05-01T14:07:24.254Z</time></trkpt><trkpt lat="45.33512" lon="5.5605233"><ele>222.0</ele><time>2026-05-01T14:07:25.254Z</time></trkpt><trkpt lat="45.3351717" lon="5.560155"><ele>222.0</ele><time>2026-05-01T14:07:26.253Z</time></trkpt><trkpt lat="45.3352117" lon="5.559785"><ele>222.0</ele><time>2026-05-01T14:07:27.254Z</time></trkpt><trkpt lat="45.33525" lon="5.5594167"><ele>225.0</ele><time>2026-05-01T14:07:28.254Z</time></trkpt><trkpt lat="45.33529" lon="5.5590567"><ele>228.0</ele><time>2026-05-01T14:07:29.254Z</time></trkpt><trkpt lat="45.3353283" lon="5.5587083"><ele>230.0</ele><time>2026-05-01T14:07:30.254Z</time></trkpt><trkpt lat="45.33537" lon="5.5583633"><ele>232.0</ele><time>2026-05-01T14:07:31.254Z</time></trkpt><trkpt lat="45.3354167" lon="5.558025"><ele>237.0</ele><time>2026-05-01T14:07:32.254Z</time></trkpt><trkpt lat="45.3354617" lon="5.5576983"><ele>242.0</ele><time>2026-05-01T14:07:33.254Z</time></trkpt><trkpt lat="45.3355117" lon="5.5573583"><ele>248.0</ele><time>2026-05-01T14:07:34.253Z</time></trkpt><trkpt lat="45.33556" lon="5.557035"><ele>254.0</ele><time>2026-05-01T14:07:35.253Z</time></trkpt><trkpt lat="45.3356117" lon="5.5567083"><ele>254.0</ele><time>2026-05-01T14:07:36.254Z</time></trkpt><trkpt lat="45.3356633" lon="5.5563667"><ele>254.0</ele><time>2026-05-01T14:07:37.254Z</time></trkpt><trkpt lat="45.3357083" lon="5.5560133"><ele>257.0</ele><time>2026-05-01T14:07:38.254Z</time></trkpt><trkpt lat="45.33575" lon="5.555665"><ele>260.0</ele><time>2026-05-01T14:07:39.253Z</time></trkpt><trkpt lat="45.33578" lon="5.5552933"><ele>261.0</ele><time>2026-05-01T14:07:40.254Z</time></trkpt><trkpt lat="45.3358217" lon="5.5549367"><ele>262.0</ele><time>2026-05-01T14:07:41.254Z</time></trkpt><trkpt lat="45.33586" lon="5.5545817"><ele>262.5</ele><time>2026-05-01T14:07:42.254Z</time></trkpt><trkpt lat="45.3359" lon="5.554225"><ele>263.0</ele><time>2026-05-01T14:07:43.253Z</time></trkpt><trkpt lat="45.3359433" lon="5.5538767"><ele>263.0</ele><time>2026-05-01T14:07:44.254Z</time></trkpt><trkpt lat="45.335985" lon="5.553505"><ele>263.0</ele><time>2026-05-01T14:07:45.254Z</time></trkpt><trkpt lat="45.336035" lon="5.5531417"><ele>264.5</ele><time>2026-05-01T14:07:46.254Z</time></trkpt><trkpt lat="45.3360817" lon="5.55279"><ele>266.0</ele><time>2026-05-01T14:07:47.254Z</time></trkpt><trkpt lat="45.3361183" lon="5.5524483"><ele>266.0</ele><time>2026-05-01T14:07:48.254Z</time></trkpt><trkpt lat="45.3361667" lon="5.5521083"><ele>266.0</ele><time>2026-05-01T14:07:49.254Z</time></trkpt><trkpt lat="45.3362217" lon="5.551765"><ele>266.0</ele><time>2026-05-01T14:07:50.254Z</time></trkpt><trkpt lat="45.3362483" lon="5.551425"><ele>266.0</ele><time>2026-05-01T14:07:51.253Z</time></trkpt><trkpt lat="45.3362983" lon="5.5510917"><ele>266.0</ele><time>2026-05-01T14:07:52.254Z</time></trkpt><trkpt lat="45.33634" lon="5.5507533"><ele>266.0</ele><time>2026-05-01T14:07:53.253Z</time></trkpt><trkpt lat="45.33638" lon="5.5504167"><ele>267.0</ele><time>2026-05-01T14:07:54.254Z</time></trkpt><trkpt lat="45.3364167" lon="5.5500767"><ele>268.0</ele><time>2026-05-01T14:07:55.254Z</time></trkpt><trkpt lat="45.3364667" lon="5.54976"><ele>268.0</ele><time>2026-05-01T14:07:56.254Z</time></trkpt><trkpt lat="45.3365083" lon="5.549435"><ele>268.0</ele><time>2026-05-01T14:07:57.253Z</time></trkpt><trkpt lat="45.336555" lon="5.54912"><ele>268.0</ele><time>2026-05-01T14:07:58.253Z</time></trkpt><trkpt lat="45.3366" lon="5.5487983"><ele>268.0</ele><time>2026-05-01T14:07:59.254Z</time></trkpt><trkpt lat="45.3366433" lon="5.5484733"><ele>269.5</ele><time>2026-05-01T14:08:00.254Z</time></trkpt><trkpt lat="45.336685" lon="5.548125"><ele>271.0</ele><time>2026-05-01T14:08:01.254Z</time></trkpt><trkpt lat="45.3367317" lon="5.5477717"><ele>272.5</ele><time>2026-05-01T14:08:02.254Z</time></trkpt><trkpt lat="45.33677" lon="5.547415"><ele>274.0</ele><time>2026-05-01T14:08:03.253Z</time></trkpt><trkpt lat="45.3368167" lon="5.54707"><ele>277.5</ele><time>2026-05-01T14:08:04.254Z</time></trkpt><trkpt lat="45.336865" lon="5.546725"><ele>281.0</ele><time>2026-05-01T14:08:05.253Z</time></trkpt><trkpt lat="45.3369233" lon="5.5463767"><ele>283.5</ele><time>2026-05-01T14:08:06.253Z</time></trkpt><trkpt lat="45.336985" lon="5.54602"><ele>286.0</ele><time>2026-05-01T14:08:07.254Z</time></trkpt><trkpt lat="45.3370517" lon="5.5456667"><ele>290.0</ele><time>2026-05-01T14:08:08.254Z</time></trkpt><trkpt lat="45.3371217" lon="5.5453033"><ele>294.0</ele><time>2026-05-01T14:08:09.254Z</time></trkpt><trkpt lat="45.33722" lon="5.5449883"><ele>300.5</ele><time>2026-05-01T14:08:10.254Z</time></trkpt><trkpt lat="45.33732" lon="5.5446917"><ele>307.0</ele><time>2026-05-01T14:08:11.253Z</time></trkpt><trkpt lat="45.337425" lon="5.5443917"><ele>307.0</ele><time>2026-05-01T14:08:12.254Z</time></trkpt><trkpt lat="45.3375317" lon="5.5440817"><ele>307.0</ele><time>2026-05-01T14:08:13.254Z</time></trkpt><trkpt lat="45.3376483" lon="5.5437717"><ele>309.5</ele><time>2026-05-01T14:08:14.254Z</time></trkpt><trkpt lat="45.3377767" lon="5.5434733"><ele>312.0</ele><time>2026-05-01T14:08:15.254Z</time></trkpt><trkpt lat="45.3379183" lon="5.5431983"><ele>313.5</ele><time>2026-05-01T14:08:16.254Z</time></trkpt><trkpt lat="45.3380733" lon="5.5429267"><ele>315.0</ele><time>2026-05-01T14:08:17.254Z</time></trkpt><trkpt lat="45.338245" lon="5.54267"><ele>315.5</ele><time>2026-05-01T14:08:18.254Z</time></trkpt><trkpt lat="45.3384133" lon="5.5424183"><ele>316.0</ele><time>2026-05-01T14:08:19.254Z</time></trkpt><trkpt lat="45.33858" lon="5.54219"><ele>315.5</ele><time>2026-05-01T14:08:20.254Z</time></trkpt><trkpt lat="45.3387567" lon="5.5419383"><ele>315.0</ele><time>2026-05-01T14:08:21.253Z</time></trkpt><trkpt lat="45.3389317" lon="5.5416833"><ele>315.0</ele><time>2026-05-01T14:08:22.254Z</time></trkpt><trkpt lat="45.33911" lon="5.5414017"><ele>315.0</ele><time>2026-05-01T14:08:23.253Z</time></trkpt><trkpt lat="45.33928" lon="5.5411383"><ele>313.0</ele><time>2026-05-01T14:08:24.254Z</time></trkpt><trkpt lat="45.33946" lon="5.5408567"><ele>311.0</ele><time>2026-05-01T14:08:25.254Z</time></trkpt><trkpt lat="45.3396333" lon="5.5405783"><ele>317.5</ele><time>2026-05-01T14:08:26.253Z</time></trkpt><trkpt lat="45.3398033" lon="5.5402983"><ele>324.0</ele><time>2026-05-01T14:08:27.254Z</time></trkpt><trkpt lat="45.339955" lon="5.5400067"><ele>324.0</ele><time>2026-05-01T14:08:28.253Z</time></trkpt><trkpt lat="45.3401033" lon="5.5397083"><ele>324.0</ele><time>2026-05-01T14:08:29.254Z</time></trkpt><trkpt lat="45.34025" lon="5.5393883"><ele>324.5</ele><time>2026-05-01T14:08:30.254Z</time></trkpt><trkpt lat="45.3403883" lon="5.5390733"><ele>325.0</ele><time>2026-05-01T14:08:31.254Z</time></trkpt><trkpt lat="45.3405117" lon="5.53876"><ele>331.5</ele><time>2026-05-01T14:08:32.254Z</time></trkpt><trkpt lat="45.3406233" lon="5.538435"><ele>338.0</ele><time>2026-05-01T14:08:33.254Z</time></trkpt><trkpt lat="45.34073" lon="5.5381"><ele>338.0</ele><time>2026-05-01T14:08:34.254Z</time></trkpt><trkpt lat="45.3408233" lon="5.5377783"><ele>338.0</ele><time>2026-05-01T14:08:35.254Z</time></trkpt><trkpt lat="45.3409067" lon="5.5374183"><ele>338.0</ele><time>2026-05-01T14:08:36.253Z</time></trkpt><trkpt lat="45.3409733" lon="5.5370567"><ele>338.0</ele><time>2026-05-01T14:08:37.253Z</time></trkpt><trkpt lat="45.3410383" lon="5.5366867"><ele>340.5</ele><time>2026-05-01T14:08:38.254Z</time></trkpt><trkpt lat="45.3410967" lon="5.5363233"><ele>343.0</ele><time>2026-05-01T14:08:39.254Z</time></trkpt><trkpt lat="45.3411167" lon="5.53595"><ele>346.0</ele><time>2026-05-01T14:08:40.254Z</time></trkpt><trkpt lat="45.341155" lon="5.5355767"><ele>349.0</ele><time>2026-05-01T14:08:41.254Z</time></trkpt><trkpt lat="45.3411883" lon="5.535175"><ele>349.5</ele><time>2026-05-01T14:08:42.253Z</time></trkpt><trkpt lat="45.3412067" lon="5.5348017"><ele>350.0</ele><time>2026-05-01T14:08:43.254Z</time></trkpt><trkpt lat="45.3412233" lon="5.5344483"><ele>351.0</ele><time>2026-05-01T14:08:44.254Z</time></trkpt><trkpt lat="45.3412517" lon="5.5340917"><ele>352.0</ele><time>2026-05-01T14:08:45.254Z</time></trkpt><trkpt lat="45.3412767" lon="5.5337467"><ele>354.0</ele><time>2026-05-01T14:08:46.254Z</time></trkpt><trkpt lat="45.3413067" lon="5.53342"><ele>356.0</ele><time>2026-05-01T14:08:47.253Z</time></trkpt><trkpt lat="45.341325" lon="5.5330733"><ele>357.5</ele><time>2026-05-01T14:08:48.253Z</time></trkpt><trkpt lat="45.341335" lon="5.5327233"><ele>359.0</ele><time>2026-05-01T14:08:49.254Z</time></trkpt><trkpt lat="45.3413467" lon="5.5324"><ele>359.0</ele><time>2026-05-01T14:08:50.253Z</time></trkpt><trkpt lat="45.3413683" lon="5.5320583"><ele>359.0</ele><time>2026-05-01T14:08:51.254Z</time></trkpt><trkpt lat="45.3413967" lon="5.5317217"><ele>362.0</ele><time>2026-05-01T14:08:52.254Z</time></trkpt><trkpt lat="45.3414217" lon="5.5313817"><ele>365.0</ele><time>2026-05-01T14:08:53.254Z</time></trkpt><trkpt lat="45.341425" lon="5.5310433"><ele>367.0</ele><time>2026-05-01T14:08:54.254Z</time></trkpt><trkpt lat="45.3414483" lon="5.5306983"><ele>369.0</ele><time>2026-05-01T14:08:55.253Z</time></trkpt><trkpt lat="45.3414783" lon="5.5303517"><ele>370.0</ele><time>2026-05-01T14:08:56.254Z</time></trkpt><trkpt lat="45.3414933" lon="5.5300067"><ele>371.0</ele><time>2026-05-01T14:08:57.253Z</time></trkpt><trkpt lat="45.3415267" lon="5.5296483"><ele>370.5</ele><time>2026-05-01T14:08:58.254Z</time></trkpt><trkpt lat="45.3415517" lon="5.52928"><ele>370.0</ele><time>2026-05-01T14:08:59.253Z</time></trkpt><trkpt lat="45.341585" lon="5.528915"><ele>372.0</ele><time>2026-05-01T14:09:00.254Z</time></trkpt><trkpt lat="45.3416383" lon="5.5285583"><ele>374.0</ele><time>2026-05-01T14:09:01.253Z</time></trkpt><trkpt lat="45.341685" lon="5.5282283"><ele>374.0</ele><time>2026-05-01T14:09:02.254Z</time></trkpt><trkpt lat="45.3417367" lon="5.5278983"><ele>374.0</ele><time>2026-05-01T14:09:03.253Z</time></trkpt><trkpt lat="45.3418" lon="5.52754"><ele>376.5</ele><time>2026-05-01T14:09:04.254Z</time></trkpt><trkpt lat="45.3418717" lon="5.5272083"><ele>379.0</ele><time>2026-05-01T14:09:05.253Z</time></trkpt><trkpt lat="45.34195" lon="5.52688"><ele>380.0</ele><time>2026-05-01T14:09:06.254Z</time></trkpt><trkpt lat="45.342035" lon="5.5265317"><ele>381.0</ele><time>2026-05-01T14:09:07.253Z</time></trkpt><trkpt lat="45.3421183" lon="5.5261667"><ele>381.5</ele><time>2026-05-01T14:09:08.253Z</time></trkpt><trkpt lat="45.342215" lon="5.5258083"><ele>382.0</ele><time>2026-05-01T14:09:09.254Z</time></trkpt><trkpt lat="45.34232" lon="5.5254433"><ele>381.0</ele><time>2026-05-01T14:09:10.254Z</time></trkpt><trkpt lat="45.3424367" lon="5.525085"><ele>380.0</ele><time>2026-05-01T14:09:11.253Z</time></trkpt><trkpt lat="45.342555" lon="5.52473"><ele>381.5</ele><time>2026-05-01T14:09:12.253Z</time></trkpt><trkpt lat="45.3426683" lon="5.52439"><ele>383.0</ele><time>2026-05-01T14:09:13.253Z</time></trkpt><trkpt lat="45.3427917" lon="5.52406"><ele>386.0</ele><time>2026-05-01T14:09:14.252Z</time></trkpt><trkpt lat="45.3429233" lon="5.52372"><ele>389.0</ele><time>2026-05-01T14:09:15.253Z</time></trkpt><trkpt lat="45.3430633" lon="5.5233817"><ele>389.0</ele><time>2026-05-01T14:09:16.253Z</time></trkpt><trkpt lat="45.343205" lon="5.5230583"><ele>389.0</ele><time>2026-05-01T14:09:17.253Z</time></trkpt><trkpt lat="45.34334" lon="5.522765"><ele>389.0</ele><time>2026-05-01T14:09:18.253Z</time></trkpt><trkpt lat="45.343475" lon="5.5224733"><ele>389.0</ele><time>2026-05-01T14:09:19.253Z</time></trkpt><trkpt lat="45.3435983" lon="5.522195"><ele>388.0</ele><time>2026-05-01T14:09:20.253Z</time></trkpt><trkpt lat="45.3437117" lon="5.521935"><ele>387.0</ele><time>2026-05-01T14:09:21.253Z</time></trkpt><trkpt lat="45.3438433" lon="5.5216983"><ele>386.0</ele><time>2026-05-01T14:09:22.253Z</time></trkpt><trkpt lat="45.3439483" lon="5.5214633"><ele>385.66666666666663</ele><time>2026-05-01T14:09:23.253Z</time></trkpt><trkpt lat="45.3440433" lon="5.5212533"><ele>385.33333333333337</ele><time>2026-05-01T14:09:24.253Z</time></trkpt><trkpt lat="45.34412" lon="5.521065"><ele>385.0</ele><time>2026-05-01T14:09:25.253Z</time></trkpt><trkpt lat="45.3441817" lon="5.52091"><ele>384.8</ele><time>2026-05-01T14:09:26.253Z</time></trkpt><trkpt lat="45.3442433" lon="5.520795"><ele>384.6</ele><time>2026-05-01T14:09:27.253Z</time></trkpt><trkpt lat="45.3442967" lon="5.520675"><ele>384.4</ele><time>2026-05-01T14:09:28.253Z</time></trkpt><trkpt lat="45.3443517" lon="5.52055"><ele>384.2</ele><time>2026-05-01T14:09:29.253Z</time></trkpt><trkpt lat="45.3444083" lon="5.5204233"><ele>384.0</ele><time>2026-05-01T14:09:30.253Z</time></trkpt><trkpt lat="45.34447" lon="5.520315"><ele>384.0</ele><time>2026-05-01T14:09:31.253Z</time></trkpt><trkpt lat="45.344525" lon="5.5202083"><ele>384.0</ele><time>2026-05-01T14:09:32.253Z</time></trkpt><trkpt lat="45.34458" lon="5.52009"><ele>384.0</ele><time>2026-05-01T14:09:33.253Z</time></trkpt><trkpt lat="45.3446433" lon="5.5199733"><ele>384.0</ele><time>2026-05-01T14:09:34.253Z</time></trkpt><trkpt lat="45.3447083" lon="5.519865"><ele>384.0</ele><time>2026-05-01T14:09:35.253Z</time></trkpt><trkpt lat="45.3447683" lon="5.51976"><ele>384.0</ele><time>2026-05-01T14:09:36.252Z</time></trkpt><trkpt lat="45.3448267" lon="5.519655"><ele>384.0</ele><time>2026-05-01T14:09:37.252Z</time></trkpt><trkpt lat="45.3448833" lon="5.5195433"><ele>384.0</ele><time>2026-05-01T14:09:38.252Z</time></trkpt><trkpt lat="45.3449417" lon="5.5194217"><ele>384.0</ele><time>2026-05-01T14:09:39.252Z</time></trkpt><trkpt lat="45.3449967" lon="5.5193067"><ele>384.0</ele><time>2026-05-01T14:09:40.253Z</time></trkpt><trkpt lat="45.3450383" lon="5.5192217"><ele>383.5</ele><time>2026-05-01T14:09:41.253Z</time></trkpt><trkpt lat="45.34509" lon="5.519115"><ele>383.0</ele><time>2026-05-01T14:09:42.253Z</time></trkpt><trkpt lat="45.345135" lon="5.5190083"><ele>382.5</ele><time>2026-05-01T14:09:43.252Z</time></trkpt><trkpt lat="45.3451883" lon="5.518915"><ele>382.0</ele><time>2026-05-01T14:09:44.253Z</time></trkpt><trkpt lat="45.3452467" lon="5.5188417"><ele>381.5</ele><time>2026-05-01T14:09:45.252Z</time></trkpt><trkpt lat="45.345305" lon="5.5187967"><ele>381.0</ele><time>2026-05-01T14:09:46.252Z</time></trkpt><trkpt lat="45.3453817" lon="5.5187267"><ele>381.0</ele><time>2026-05-01T14:09:48.253Z</time></trkpt><trkpt lat="45.3454367" lon="5.5185767"><ele>381.0</ele><time>2026-05-01T14:09:50.252Z</time></trkpt><trkpt lat="45.34546" lon="5.518465"><ele>381.0</ele><time>2026-05-01T14:09:51.253Z</time></trkpt><trkpt lat="45.3454883" lon="5.5183233"><ele>381.0</ele><time>2026-05-01T14:09:52.252Z</time></trkpt><trkpt lat="45.345535" lon="5.518165"><ele>381.0</ele><time>2026-05-01T14:09:53.253Z</time></trkpt><trkpt lat="45.345595" lon="5.51801"><ele>380.75</ele><time>2026-05-01T14:09:54.252Z</time></trkpt><trkpt lat="45.3456733" lon="5.5178367"><ele>380.5</ele><time>2026-05-01T14:09:55.253Z</time></trkpt><trkpt lat="45.3457533" lon="5.517665"><ele>380.25</ele><time>2026-05-01T14:09:56.253Z</time></trkpt><trkpt lat="45.3458367" lon="5.517475"><ele>380.0</ele><time>2026-05-01T14:09:57.253Z</time></trkpt><trkpt lat="45.34593" lon="5.5172633"><ele>380.6666666666667</ele><time>2026-05-01T14:09:58.253Z</time></trkpt><trkpt lat="45.34603" lon="5.517035"><ele>381.3333333333333</ele><time>2026-05-01T14:09:59.253Z</time></trkpt><trkpt lat="45.346145" lon="5.5168017"><ele>382.0</ele><time>2026-05-01T14:10:00.253Z</time></trkpt><trkpt lat="45.346265" lon="5.516545"><ele>378.66666666666663</ele><time>2026-05-01T14:10:01.252Z</time></trkpt><trkpt lat="45.3463867" lon="5.5162917"><ele>375.3333333333333</ele><time>2026-05-01T14:10:02.253Z</time></trkpt><trkpt lat="45.3465117" lon="5.5160317"><ele>372.0</ele><time>2026-05-01T14:10:03.253Z</time></trkpt><trkpt lat="45.34664" lon="5.5157417"><ele>372.0</ele><time>2026-05-01T14:10:04.252Z</time></trkpt><trkpt lat="45.3467417" lon="5.515465"><ele>372.0</ele><time>2026-05-01T14:10:05.253Z</time></trkpt><trkpt lat="45.3468367" lon="5.5151667"><ele>372.5</ele><time>2026-05-01T14:10:06.252Z</time></trkpt><trkpt lat="45.3469467" lon="5.5148517"><ele>373.0</ele><time>2026-05-01T14:10:07.253Z</time></trkpt><trkpt lat="45.3470383" lon="5.5145483"><ele>374.0</ele><time>2026-05-01T14:10:08.252Z</time></trkpt><trkpt lat="45.3471183" lon="5.5142417"><ele>375.0</ele><time>2026-05-01T14:10:09.252Z</time></trkpt><trkpt lat="45.3471783" lon="5.513925"><ele>371.6666666666667</ele><time>2026-05-01T14:10:10.252Z</time></trkpt><trkpt lat="45.3472167" lon="5.5136183"><ele>368.33333333333337</ele><time>2026-05-01T14:10:11.253Z</time></trkpt><trkpt lat="45.3472483" lon="5.51332"><ele>365.0</ele><time>2026-05-01T14:10:12.252Z</time></trkpt><trkpt lat="45.3472717" lon="5.5130033"><ele>363.5</ele><time>2026-05-01T14:10:13.253Z</time></trkpt><trkpt lat="45.3472833" lon="5.5126717"><ele>362.0</ele><time>2026-05-01T14:10:14.253Z</time></trkpt><trkpt lat="45.3472933" lon="5.51233"><ele>360.5</ele><time>2026-05-01T14:10:15.253Z</time></trkpt><trkpt lat="45.3472867" lon="5.5119967"><ele>359.0</ele><time>2026-05-01T14:10:16.253Z</time></trkpt><trkpt lat="45.3472617" lon="5.5116567"><ele>359.0</ele><time>2026-05-01T14:10:17.253Z</time></trkpt><trkpt lat="45.34723" lon="5.5113133"><ele>359.0</ele><time>2026-05-01T14:10:18.252Z</time></trkpt><trkpt lat="45.347165" lon="5.5109583"><ele>360.0</ele><time>2026-05-01T14:10:19.253Z</time></trkpt><trkpt lat="45.3471" lon="5.5106233"><ele>361.0</ele><time>2026-05-01T14:10:20.253Z</time></trkpt><trkpt lat="45.3470267" lon="5.510285"><ele>359.0</ele><time>2026-05-01T14:10:21.253Z</time></trkpt><trkpt lat="45.3469417" lon="5.50996"><ele>357.0</ele><time>2026-05-01T14:10:22.253Z</time></trkpt><trkpt lat="45.34683" lon="5.5096417"><ele>355.0</ele><time>2026-05-01T14:10:23.253Z</time></trkpt><trkpt lat="45.3467467" lon="5.5093367"><ele>353.0</ele><time>2026-05-01T14:10:24.252Z</time></trkpt><trkpt lat="45.3466533" lon="5.509015"><ele>351.5</ele><time>2026-05-01T14:10:25.253Z</time></trkpt><trkpt lat="45.3465483" lon="5.5087"><ele>350.0</ele><time>2026-05-01T14:10:26.253Z</time></trkpt><trkpt lat="45.3464433" lon="5.5083567"><ele>353.0</ele><time>2026-05-01T14:10:27.252Z</time></trkpt><trkpt lat="45.3463317" lon="5.508005"><ele>356.0</ele><time>2026-05-01T14:10:28.253Z</time></trkpt><trkpt lat="45.3462283" lon="5.50765"><ele>356.0</ele><time>2026-05-01T14:10:29.253Z</time></trkpt><trkpt lat="45.3461267" lon="5.5072967"><ele>356.0</ele><time>2026-05-01T14:10:30.252Z</time></trkpt><trkpt lat="45.3460383" lon="5.5069533"><ele>355.0</ele><time>2026-05-01T14:10:31.253Z</time></trkpt><trkpt lat="45.3459533" lon="5.5065983"><ele>354.0</ele><time>2026-05-01T14:10:32.253Z</time></trkpt><trkpt lat="45.345885" lon="5.506225"><ele>351.5</ele><time>2026-05-01T14:10:33.252Z</time></trkpt><trkpt lat="45.3458167" lon="5.5058667"><ele>349.0</ele><time>2026-05-01T14:10:34.252Z</time></trkpt><trkpt lat="45.3457333" lon="5.5055467"><ele>341.0</ele><time>2026-05-01T14:10:35.252Z</time></trkpt><trkpt lat="45.3456583" lon="5.5052233"><ele>333.0</ele><time>2026-05-01T14:10:36.253Z</time></trkpt><trkpt lat="45.3455717" lon="5.5049017"><ele>334.0</ele><time>2026-05-01T14:10:37.253Z</time></trkpt><trkpt lat="45.3455083" lon="5.5045567"><ele>335.0</ele><time>2026-05-01T14:10:38.252Z</time></trkpt><trkpt lat="45.345455" lon="5.5042033"><ele>335.0</ele><time>2026-05-01T14:10:39.252Z</time></trkpt><trkpt lat="45.3454383" lon="5.5038417"><ele>335.0</ele><time>2026-05-01T14:10:40.253Z</time></trkpt><trkpt lat="45.3454183" lon="5.5034783"><ele>331.0</ele><time>2026-05-01T14:10:41.252Z</time></trkpt><trkpt lat="45.3454133" lon="5.50312"><ele>327.0</ele><time>2026-05-01T14:10:42.253Z</time></trkpt><trkpt lat="45.3454167" lon="5.502765"><ele>327.0</ele><time>2026-05-01T14:10:43.253Z</time></trkpt><trkpt lat="45.3454017" lon="5.5024267"><ele>327.0</ele><time>2026-05-01T14:10:44.253Z</time></trkpt><trkpt lat="45.3453833" lon="5.5020917"><ele>328.0</ele><time>2026-05-01T14:10:45.253Z</time></trkpt><trkpt lat="45.3453533" lon="5.5017417"><ele>329.0</ele><time>2026-05-01T14:10:46.253Z</time></trkpt><trkpt lat="45.3453317" lon="5.5013933"><ele>333.5</ele><time>2026-05-01T14:10:47.253Z</time></trkpt><trkpt lat="45.34533" lon="5.50104"><ele>338.0</ele><time>2026-05-01T14:10:48.252Z</time></trkpt><trkpt lat="45.345315" lon="5.5007083"><ele>341.0</ele><time>2026-05-01T14:10:49.252Z</time></trkpt><trkpt lat="45.3453167" lon="5.50037"><ele>344.0</ele><time>2026-05-01T14:10:50.253Z</time></trkpt><trkpt lat="45.34534" lon="5.5000267"><ele>344.0</ele><time>2026-05-01T14:10:51.253Z</time></trkpt><trkpt lat="45.3453817" lon="5.49968"><ele>344.0</ele><time>2026-05-01T14:10:52.253Z</time></trkpt><trkpt lat="45.3454483" lon="5.4993417"><ele>343.5</ele><time>2026-05-01T14:10:53.253Z</time></trkpt><trkpt lat="45.34551" lon="5.4990067"><ele>343.0</ele><time>2026-05-01T14:10:54.253Z</time></trkpt><trkpt lat="45.34557" lon="5.498705"><ele>344.3333333333333</ele><time>2026-05-01T14:10:55.253Z</time></trkpt><trkpt lat="45.3456417" lon="5.498405"><ele>345.6666666666667</ele><time>2026-05-01T14:10:56.253Z</time></trkpt><trkpt lat="45.345715" lon="5.4981383"><ele>347.0</ele><time>2026-05-01T14:10:57.253Z</time></trkpt><trkpt lat="45.3458167" lon="5.49787"><ele>347.0</ele><time>2026-05-01T14:10:58.253Z</time></trkpt><trkpt lat="45.3459317" lon="5.4975567"><ele>347.0</ele><time>2026-05-01T14:10:59.252Z</time></trkpt><trkpt lat="45.346045" lon="5.4972483"><ele>347.0</ele><time>2026-05-01T14:11:00.253Z</time></trkpt><trkpt lat="45.3461383" lon="5.4969533"><ele>347.0</ele><time>2026-05-01T14:11:01.253Z</time></trkpt><trkpt lat="45.3462383" lon="5.49666"><ele>347.0</ele><time>2026-05-01T14:11:02.252Z</time></trkpt><trkpt lat="45.34632" lon="5.4963433"><ele>347.0</ele><time>2026-05-01T14:11:03.252Z</time></trkpt><trkpt lat="45.3463917" lon="5.4960183"><ele>350.0</ele><time>2026-05-01T14:11:04.252Z</time></trkpt><trkpt lat="45.3464717" lon="5.4956967"><ele>353.0</ele><time>2026-05-01T14:11:05.253Z</time></trkpt><trkpt lat="45.34653" lon="5.4953783"><ele>357.0</ele><time>2026-05-01T14:11:06.252Z</time></trkpt><trkpt lat="45.3465617" lon="5.4950467"><ele>361.0</ele><time>2026-05-01T14:11:07.253Z</time></trkpt><trkpt lat="45.3465933" lon="5.4947117"><ele>363.0</ele><time>2026-05-01T14:11:08.252Z</time></trkpt><trkpt lat="45.34662" lon="5.4943783"><ele>365.0</ele><time>2026-05-01T14:11:09.252Z</time></trkpt><trkpt lat="45.346635" lon="5.4940467"><ele>365.0</ele><time>2026-05-01T14:11:10.252Z</time></trkpt><trkpt lat="45.3466583" lon="5.493695"><ele>365.0</ele><time>2026-05-01T14:11:11.252Z</time></trkpt><trkpt lat="45.346695" lon="5.4933617"><ele>365.0</ele><time>2026-05-01T14:11:12.253Z</time></trkpt><trkpt lat="45.3467183" lon="5.4930167"><ele>365.0</ele><time>2026-05-01T14:11:13.253Z</time></trkpt><trkpt lat="45.346725" lon="5.4926683"><ele>366.0</ele><time>2026-05-01T14:11:14.252Z</time></trkpt><trkpt lat="45.3467117" lon="5.492315"><ele>367.0</ele><time>2026-05-01T14:11:15.253Z</time></trkpt><trkpt lat="45.3467067" lon="5.4919717"><ele>370.5</ele><time>2026-05-01T14:11:16.253Z</time></trkpt><trkpt lat="45.346685" lon="5.491625"><ele>374.0</ele><time>2026-05-01T14:11:17.253Z</time></trkpt><trkpt lat="45.3466483" lon="5.4912717"><ele>376.0</ele><time>2026-05-01T14:11:18.252Z</time></trkpt><trkpt lat="45.3466067" lon="5.49092"><ele>378.0</ele><time>2026-05-01T14:11:19.253Z</time></trkpt><trkpt lat="45.3465567" lon="5.490555"><ele>381.5</ele><time>2026-05-01T14:11:20.252Z</time></trkpt><trkpt lat="45.3464917" lon="5.4902233"><ele>385.0</ele><time>2026-05-01T14:11:21.253Z</time></trkpt><trkpt lat="45.3464033" lon="5.4898817"><ele>382.0</ele><time>2026-05-01T14:11:22.253Z</time></trkpt><trkpt lat="45.3463033" lon="5.4895383"><ele>379.0</ele><time>2026-05-01T14:11:23.253Z</time></trkpt><trkpt lat="45.34619" lon="5.4892167"><ele>379.0</ele><time>2026-05-01T14:11:24.252Z</time></trkpt><trkpt lat="45.3460667" lon="5.4889133"><ele>379.0</ele><time>2026-05-01T14:11:25.253Z</time></trkpt><trkpt lat="45.34591" lon="5.4886233"><ele>386.0</ele><time>2026-05-01T14:11:26.253Z</time></trkpt><trkpt lat="45.345745" lon="5.4883267"><ele>393.0</ele><time>2026-05-01T14:11:27.253Z</time></trkpt><trkpt lat="45.345575" lon="5.4880267"><ele>395.0</ele><time>2026-05-01T14:11:28.252Z</time></trkpt><trkpt lat="45.3454117" lon="5.487745"><ele>397.0</ele><time>2026-05-01T14:11:29.252Z</time></trkpt><trkpt lat="45.345235" lon="5.4874767"><ele>397.0</ele><time>2026-05-01T14:11:30.253Z</time></trkpt><trkpt lat="45.34507" lon="5.4872283"><ele>397.0</ele><time>2026-05-01T14:11:31.253Z</time></trkpt><trkpt lat="45.3449133" lon="5.486975"><ele>397.5</ele><time>2026-05-01T14:11:32.253Z</time></trkpt><trkpt lat="45.344755" lon="5.4867183"><ele>398.0</ele><time>2026-05-01T14:11:33.253Z</time></trkpt><trkpt lat="45.3446" lon="5.4864733"><ele>402.66666666666663</ele><time>2026-05-01T14:11:34.253Z</time></trkpt><trkpt lat="45.3444633" lon="5.4862433"><ele>407.33333333333337</ele><time>2026-05-01T14:11:35.253Z</time></trkpt><trkpt lat="45.344335" lon="5.4859883"><ele>412.0</ele><time>2026-05-01T14:11:36.253Z</time></trkpt><trkpt lat="45.344225" lon="5.4857333"><ele>412.0</ele><time>2026-05-01T14:11:37.252Z</time></trkpt><trkpt lat="45.3441333" lon="5.4854517"><ele>412.0</ele><time>2026-05-01T14:11:38.253Z</time></trkpt><trkpt lat="45.34408" lon="5.4851267"><ele>414.0</ele><time>2026-05-01T14:11:39.253Z</time></trkpt><trkpt lat="45.3440133" lon="5.4848183"><ele>416.0</ele><time>2026-05-01T14:11:40.253Z</time></trkpt><trkpt lat="45.3440033" lon="5.4844867"><ele>417.3333333333333</ele><time>2026-05-01T14:11:41.253Z</time></trkpt><trkpt lat="45.343995" lon="5.4842033"><ele>418.66666666666663</ele><time>2026-05-01T14:11:42.253Z</time></trkpt><trkpt lat="45.3439933" lon="5.4839833"><ele>420.0</ele><time>2026-05-01T14:11:43.253Z</time></trkpt><trkpt lat="45.344" lon="5.4837967"><ele>420.6666666666667</ele><time>2026-05-01T14:11:44.252Z</time></trkpt><trkpt lat="45.3440267" lon="5.4836333"><ele>421.33333333333337</ele><time>2026-05-01T14:11:45.252Z</time></trkpt><trkpt lat="45.344065" lon="5.4835217"><ele>422.0</ele><time>2026-05-01T14:11:46.253Z</time></trkpt><trkpt lat="45.3441033" lon="5.48342"><ele>422.6666666666667</ele><time>2026-05-01T14:11:47.253Z</time></trkpt><trkpt lat="45.34414" lon="5.48332"><ele>423.33333333333337</ele><time>2026-05-01T14:11:48.253Z</time></trkpt><trkpt lat="45.344165" lon="5.4832217"><ele>424.0</ele><time>2026-05-01T14:11:49.252Z</time></trkpt><trkpt lat="45.3441683" lon="5.4830983"><ele>424.0</ele><time>2026-05-01T14:11:50.253Z</time></trkpt><trkpt lat="45.3441617" lon="5.48296"><ele>424.0</ele><time>2026-05-01T14:11:51.253Z</time></trkpt><trkpt lat="45.3441233" lon="5.4827967"><ele>424.0</ele><time>2026-05-01T14:11:52.252Z</time></trkpt><trkpt lat="45.344105" lon="5.4825983"><ele>424.0</ele><time>2026-05-01T14:11:53.253Z</time></trkpt><trkpt lat="45.3441117" lon="5.4823633"><ele>425.6666666666667</ele><time>2026-05-01T14:11:54.253Z</time></trkpt><trkpt lat="45.344135" lon="5.4821267"><ele>427.33333333333337</ele><time>2026-05-01T14:11:55.253Z</time></trkpt><trkpt lat="45.3441817" lon="5.4818883"><ele>429.0</ele><time>2026-05-01T14:11:56.253Z</time></trkpt><trkpt lat="45.3442517" lon="5.4816417"><ele>429.33333333333337</ele><time>2026-05-01T14:11:57.253Z</time></trkpt><trkpt lat="45.34433" lon="5.481425"><ele>429.6666666666667</ele><time>2026-05-01T14:11:58.253Z</time></trkpt><trkpt lat="45.3444283" lon="5.48123"><ele>430.0</ele><time>2026-05-01T14:11:59.253Z</time></trkpt><trkpt lat="45.3445383" lon="5.481035"><ele>430.0</ele><time>2026-05-01T14:12:00.253Z</time></trkpt><trkpt lat="45.34465" lon="5.4808067"><ele>430.0</ele><time>2026-05-01T14:12:01.252Z</time></trkpt><trkpt lat="45.3447617" lon="5.48057"><ele>430.0</ele><time>2026-05-01T14:12:02.253Z</time></trkpt><trkpt lat="45.3448867" lon="5.4803217"><ele>430.6666666666667</ele><time>2026-05-01T14:12:03.253Z</time></trkpt><trkpt lat="45.3450233" lon="5.4800783"><ele>431.33333333333337</ele><time>2026-05-01T14:12:04.253Z</time></trkpt><trkpt lat="45.34516" lon="5.4798367"><ele>432.0</ele><time>2026-05-01T14:12:05.252Z</time></trkpt><trkpt lat="45.3452917" lon="5.4796017"><ele>432.33333333333337</ele><time>2026-05-01T14:12:06.253Z</time></trkpt><trkpt lat="45.3454183" lon="5.4793883"><ele>432.6666666666667</ele><time>2026-05-01T14:12:07.252Z</time></trkpt><trkpt lat="45.3455417" lon="5.479185"><ele>433.0</ele><time>2026-05-01T14:12:08.252Z</time></trkpt><trkpt lat="45.3456517" lon="5.4789767"><ele>433.0</ele><time>2026-05-01T14:12:09.252Z</time></trkpt><trkpt lat="45.3457667" lon="5.47877"><ele>433.0</ele><time>2026-05-01T14:12:10.253Z</time></trkpt><trkpt lat="45.34587" lon="5.4785533"><ele>433.0</ele><time>2026-05-01T14:12:11.252Z</time></trkpt><trkpt lat="45.3459767" lon="5.4783017"><ele>432.6666666666667</ele><time>2026-05-01T14:12:12.253Z</time></trkpt><trkpt lat="45.3460733" lon="5.478015"><ele>432.33333333333337</ele><time>2026-05-01T14:12:13.253Z</time></trkpt><trkpt lat="45.3461633" lon="5.477725"><ele>432.0</ele><time>2026-05-01T14:12:14.253Z</time></trkpt><trkpt lat="45.3462467" lon="5.4774183"><ele>432.5</ele><time>2026-05-01T14:12:15.253Z</time></trkpt><trkpt lat="45.346325" lon="5.4770967"><ele>433.0</ele><time>2026-05-01T14:12:16.253Z</time></trkpt><trkpt lat="45.346365" lon="5.4767183"><ele>431.5</ele><time>2026-05-01T14:12:17.252Z</time></trkpt><trkpt lat="45.34642" lon="5.4763883"><ele>430.0</ele><time>2026-05-01T14:12:18.253Z</time></trkpt><trkpt lat="45.346465" lon="5.476045"><ele>430.0</ele><time>2026-05-01T14:12:19.253Z</time></trkpt><trkpt lat="45.346445" lon="5.4756683"><ele>430.0</ele><time>2026-05-01T14:12:20.253Z</time></trkpt><trkpt lat="45.34647" lon="5.475325"><ele>430.0</ele><time>2026-05-01T14:12:21.253Z</time></trkpt><trkpt lat="45.3465" lon="5.4749733"><ele>430.0</ele><time>2026-05-01T14:12:22.252Z</time></trkpt><trkpt lat="45.3465383" lon="5.474645"><ele>430.6666666666667</ele><time>2026-05-01T14:12:23.253Z</time></trkpt><trkpt lat="45.34657" lon="5.4743217"><ele>431.33333333333337</ele><time>2026-05-01T14:12:24.253Z</time></trkpt><trkpt lat="45.3466017" lon="5.474015"><ele>432.0</ele><time>2026-05-01T14:12:25.253Z</time></trkpt><trkpt lat="45.34662" lon="5.4737283"><ele>432.66666666666663</ele><time>2026-05-01T14:12:26.252Z</time></trkpt><trkpt lat="45.346655" lon="5.47343"><ele>433.3333333333333</ele><time>2026-05-01T14:12:27.253Z</time></trkpt><trkpt lat="45.3467183" lon="5.4731283"><ele>434.0</ele><time>2026-05-01T14:12:28.252Z</time></trkpt><trkpt lat="45.34677" lon="5.472845"><ele>434.66666666666663</ele><time>2026-05-01T14:12:29.253Z</time></trkpt><trkpt lat="45.346825" lon="5.4725833"><ele>435.33333333333337</ele><time>2026-05-01T14:12:30.253Z</time></trkpt><trkpt lat="45.34688" lon="5.4723117"><ele>436.0</ele><time>2026-05-01T14:12:31.253Z</time></trkpt><trkpt lat="45.34696" lon="5.47205"><ele>436.6666666666667</ele><time>2026-05-01T14:12:32.253Z</time></trkpt><trkpt lat="45.34704" lon="5.471785"><ele>437.33333333333337</ele><time>2026-05-01T14:12:33.252Z</time></trkpt><trkpt lat="45.3471167" lon="5.47154"><ele>438.0</ele><time>2026-05-01T14:12:34.253Z</time></trkpt><trkpt lat="45.3471967" lon="5.4712917"><ele>438.0</ele><time>2026-05-01T14:12:35.253Z</time></trkpt><trkpt lat="45.3472733" lon="5.47105"><ele>438.0</ele><time>2026-05-01T14:12:36.252Z</time></trkpt><trkpt lat="45.3473433" lon="5.4708233"><ele>438.0</ele><time>2026-05-01T14:12:37.253Z</time></trkpt><trkpt lat="45.3474317" lon="5.4706117"><ele>437.5</ele><time>2026-05-01T14:12:38.252Z</time></trkpt><trkpt lat="45.3474967" lon="5.4704183"><ele>437.0</ele><time>2026-05-01T14:12:39.253Z</time></trkpt><trkpt lat="45.3475767" lon="5.470255"><ele>436.5</ele><time>2026-05-01T14:12:40.253Z</time></trkpt><trkpt lat="45.3476633" lon="5.470095"><ele>436.0</ele><time>2026-05-01T14:12:41.252Z</time></trkpt><trkpt lat="45.3477367" lon="5.4699383"><ele>436.0</ele><time>2026-05-01T14:12:42.253Z</time></trkpt><trkpt lat="45.3478" lon="5.4697817"><ele>436.0</ele><time>2026-05-01T14:12:43.253Z</time></trkpt><trkpt lat="45.3478517" lon="5.46961"><ele>436.0</ele><time>2026-05-01T14:12:44.253Z</time></trkpt><trkpt lat="45.3479" lon="5.46945"><ele>436.0</ele><time>2026-05-01T14:12:45.252Z</time></trkpt><trkpt lat="45.3479533" lon="5.4693267"><ele>436.0</ele><time>2026-05-01T14:12:46.252Z</time></trkpt><trkpt lat="45.3480217" lon="5.469235"><ele>436.0</ele><time>2026-05-01T14:12:47.253Z</time></trkpt><trkpt lat="45.348115" lon="5.4691683"><ele>436.0</ele><time>2026-05-01T14:12:48.253Z</time></trkpt><trkpt lat="45.3482067" lon="5.4691083"><ele>436.0</ele><time>2026-05-01T14:12:49.252Z</time></trkpt><trkpt lat="45.3482917" lon="5.4690083"><ele>436.0</ele><time>2026-05-01T14:12:50.252Z</time></trkpt><trkpt lat="45.3483583" lon="5.4688967"><ele>436.75</ele><time>2026-05-01T14:12:51.252Z</time></trkpt><trkpt lat="45.3483933" lon="5.46876"><ele>437.5</ele><time>2026-05-01T14:12:52.253Z</time></trkpt><trkpt lat="45.3484017" lon="5.4686067"><ele>438.25</ele><time>2026-05-01T14:12:53.252Z</time></trkpt><trkpt lat="45.3484033" lon="5.4684317"><ele>439.0</ele><time>2026-05-01T14:12:54.253Z</time></trkpt><trkpt lat="45.3483967" lon="5.4682483"><ele>439.0</ele><time>2026-05-01T14:12:55.253Z</time></trkpt><trkpt lat="45.3484383" lon="5.4680683"><ele>439.0</ele><time>2026-05-01T14:12:56.253Z</time></trkpt><trkpt lat="45.3484933" lon="5.46787"><ele>439.0</ele><time>2026-05-01T14:12:57.253Z</time></trkpt><trkpt lat="45.34856" lon="5.4676467"><ele>438.6666666666667</ele><time>2026-05-01T14:12:58.253Z</time></trkpt><trkpt lat="45.3486383" lon="5.4674067"><ele>438.33333333333337</ele><time>2026-05-01T14:12:59.253Z</time></trkpt><trkpt lat="45.3487133" lon="5.46716"><ele>438.0</ele><time>2026-05-01T14:13:00.253Z</time></trkpt><trkpt lat="45.3487983" lon="5.4668783"><ele>437.66666666666663</ele><time>2026-05-01T14:13:01.252Z</time></trkpt><trkpt lat="45.34888" lon="5.4666067"><ele>437.3333333333333</ele><time>2026-05-01T14:13:02.253Z</time></trkpt><trkpt lat="45.3489683" lon="5.466335"><ele>437.0</ele><time>2026-05-01T14:13:03.253Z</time></trkpt><trkpt lat="45.3490867" lon="5.4660367"><ele>437.0</ele><time>2026-05-01T14:13:04.253Z</time></trkpt><trkpt lat="45.3491783" lon="5.4657517"><ele>437.0</ele><time>2026-05-01T14:13:05.253Z</time></trkpt><trkpt lat="45.3492633" lon="5.465455"><ele>437.0</ele><time>2026-05-01T14:13:06.253Z</time></trkpt><trkpt lat="45.3493517" lon="5.4651583"><ele>437.5</ele><time>2026-05-01T14:13:07.253Z</time></trkpt><trkpt lat="45.3494567" lon="5.4648517"><ele>438.0</ele><time>2026-05-01T14:13:08.252Z</time></trkpt><trkpt lat="45.34957" lon="5.4645433"><ele>438.0</ele><time>2026-05-01T14:13:09.252Z</time></trkpt><trkpt lat="45.3496933" lon="5.4642267"><ele>438.0</ele><time>2026-05-01T14:13:10.253Z</time></trkpt><trkpt lat="45.3498167" lon="5.463905"><ele>438.5</ele><time>2026-05-01T14:13:11.253Z</time></trkpt><trkpt lat="45.34994" lon="5.463585"><ele>439.0</ele><time>2026-05-01T14:13:12.253Z</time></trkpt><trkpt lat="45.3500567" lon="5.4632517"><ele>438.5</ele><time>2026-05-01T14:13:13.253Z</time></trkpt><trkpt lat="45.3501767" lon="5.462915"><ele>438.0</ele><time>2026-05-01T14:13:14.253Z</time></trkpt><trkpt lat="45.3502983" lon="5.4625767"><ele>438.0</ele><time>2026-05-01T14:13:15.252Z</time></trkpt><trkpt lat="45.3504167" lon="5.462225"><ele>438.0</ele><time>2026-05-01T14:13:16.253Z</time></trkpt><trkpt lat="45.3505367" lon="5.4618633"><ele>438.0</ele><time>2026-05-01T14:13:17.252Z</time></trkpt><trkpt lat="45.3506567" lon="5.4615183"><ele>438.0</ele><time>2026-05-01T14:13:18.253Z</time></trkpt><trkpt lat="45.3507867" lon="5.46116"><ele>438.0</ele><time>2026-05-01T14:13:19.252Z</time></trkpt><trkpt lat="45.3509183" lon="5.4607983"><ele>438.0</ele><time>2026-05-01T14:13:20.252Z</time></trkpt><trkpt lat="45.3510417" lon="5.4604433"><ele>439.0</ele><time>2026-05-01T14:13:21.253Z</time></trkpt><trkpt lat="45.3511717" lon="5.460075"><ele>440.0</ele><time>2026-05-01T14:13:22.253Z</time></trkpt><trkpt lat="45.351295" lon="5.4596933"><ele>439.0</ele><time>2026-05-01T14:13:23.253Z</time></trkpt><trkpt lat="45.3514283" lon="5.4593217"><ele>438.0</ele><time>2026-05-01T14:13:24.252Z</time></trkpt><trkpt lat="45.3515633" lon="5.4589467"><ele>438.0</ele><time>2026-05-01T14:13:25.252Z</time></trkpt><trkpt lat="45.3516883" lon="5.4585717"><ele>438.0</ele><time>2026-05-01T14:13:26.253Z</time></trkpt><trkpt lat="45.3518317" lon="5.458195"><ele>439.0</ele><time>2026-05-01T14:13:27.253Z</time></trkpt><trkpt lat="45.3519733" lon="5.4578133"><ele>440.0</ele><time>2026-05-01T14:13:28.253Z</time></trkpt><trkpt lat="45.35211" lon="5.4574533"><ele>439.5</ele><time>2026-05-01T14:13:29.253Z</time></trkpt><trkpt lat="45.352245" lon="5.457095"><ele>439.0</ele><time>2026-05-01T14:13:30.253Z</time></trkpt><trkpt lat="45.3523867" lon="5.4567217"><ele>439.0</ele><time>2026-05-01T14:13:31.253Z</time></trkpt><trkpt lat="45.352525" lon="5.45637"><ele>439.0</ele><time>2026-05-01T14:13:32.253Z</time></trkpt><trkpt lat="45.3526667" lon="5.456"><ele>438.5</ele><time>2026-05-01T14:13:33.252Z</time></trkpt><trkpt lat="45.3527933" lon="5.455635"><ele>438.0</ele><time>2026-05-01T14:13:34.252Z</time></trkpt><trkpt lat="45.3529183" lon="5.4552717"><ele>439.0</ele><time>2026-05-01T14:13:35.253Z</time></trkpt><trkpt lat="45.35305" lon="5.4549033"><ele>440.0</ele><time>2026-05-01T14:13:36.253Z</time></trkpt><trkpt lat="45.3531917" lon="5.454535"><ele>440.0</ele><time>2026-05-01T14:13:37.253Z</time></trkpt><trkpt lat="45.3533233" lon="5.4541467"><ele>440.0</ele><time>2026-05-01T14:13:38.253Z</time></trkpt><trkpt lat="45.35347" lon="5.4537533"><ele>440.0</ele><time>2026-05-01T14:13:39.252Z</time></trkpt><trkpt lat="45.3536" lon="5.4533483"><ele>440.0</ele><time>2026-05-01T14:13:40.253Z</time></trkpt><trkpt lat="45.3537433" lon="5.452945"><ele>439.0</ele><time>2026-05-01T14:13:41.252Z</time></trkpt><trkpt lat="45.35389" lon="5.4525417"><ele>438.0</ele><time>2026-05-01T14:13:42.252Z</time></trkpt><trkpt lat="45.3540317" lon="5.4521467"><ele>438.0</ele><time>2026-05-01T14:13:43.253Z</time></trkpt><trkpt lat="45.35418" lon="5.4517267"><ele>438.0</ele><time>2026-05-01T14:13:44.252Z</time></trkpt><trkpt lat="45.35433" lon="5.4513233"><ele>438.5</ele><time>2026-05-01T14:13:45.253Z</time></trkpt><trkpt lat="45.3544667" lon="5.4509517"><ele>439.0</ele><time>2026-05-01T14:13:46.253Z</time></trkpt><trkpt lat="45.3546133" lon="5.4505733"><ele>439.0</ele><time>2026-05-01T14:13:47.253Z</time></trkpt><trkpt lat="45.35476" lon="5.450205"><ele>439.0</ele><time>2026-05-01T14:13:48.253Z</time></trkpt><trkpt lat="45.354895" lon="5.4498217"><ele>439.0</ele><time>2026-05-01T14:13:49.253Z</time></trkpt><trkpt lat="45.3550233" lon="5.44946"><ele>439.0</ele><time>2026-05-01T14:13:50.253Z</time></trkpt><trkpt lat="45.35514" lon="5.449105"><ele>438.5</ele><time>2026-05-01T14:13:51.252Z</time></trkpt><trkpt lat="45.355245" lon="5.448765"><ele>438.0</ele><time>2026-05-01T14:13:52.252Z</time></trkpt><trkpt lat="45.3553583" lon="5.4484367"><ele>438.0</ele><time>2026-05-01T14:13:53.253Z</time></trkpt><trkpt lat="45.35547" lon="5.4481217"><ele>438.0</ele><time>2026-05-01T14:13:54.252Z</time></trkpt><trkpt lat="45.3555717" lon="5.4478"><ele>438.0</ele><time>2026-05-01T14:13:55.253Z</time></trkpt><trkpt lat="45.35567" lon="5.447475"><ele>438.0</ele><time>2026-05-01T14:13:56.253Z</time></trkpt><trkpt lat="45.3557717" lon="5.4471617"><ele>438.0</ele><time>2026-05-01T14:13:57.253Z</time></trkpt><trkpt lat="45.3558817" lon="5.44686"><ele>438.0</ele><time>2026-05-01T14:13:58.253Z</time></trkpt><trkpt lat="45.3559967" lon="5.4465333"><ele>437.5</ele><time>2026-05-01T14:13:59.253Z</time></trkpt><trkpt lat="45.35612" lon="5.4462017"><ele>437.0</ele><time>2026-05-01T14:14:00.252Z</time></trkpt><trkpt lat="45.3562417" lon="5.4458733"><ele>437.0</ele><time>2026-05-01T14:14:01.252Z</time></trkpt><trkpt lat="45.3563667" lon="5.4455267"><ele>437.0</ele><time>2026-05-01T14:14:02.252Z</time></trkpt><trkpt lat="45.3564917" lon="5.4451833"><ele>437.5</ele><time>2026-05-01T14:14:03.253Z</time></trkpt><trkpt lat="45.3566033" lon="5.4448467"><ele>438.0</ele><time>2026-05-01T14:14:04.253Z</time></trkpt><trkpt lat="45.3567183" lon="5.444515"><ele>438.5</ele><time>2026-05-01T14:14:05.253Z</time></trkpt><trkpt lat="45.35683" lon="5.4441867"><ele>439.0</ele><time>2026-05-01T14:14:06.252Z</time></trkpt><trkpt lat="45.3569467" lon="5.4438667"><ele>439.5</ele><time>2026-05-01T14:14:07.252Z</time></trkpt><trkpt lat="45.3570683" lon="5.44354"><ele>440.0</ele><time>2026-05-01T14:14:08.253Z</time></trkpt><trkpt lat="45.3571867" lon="5.4432083"><ele>439.5</ele><time>2026-05-01T14:14:09.253Z</time></trkpt><trkpt lat="45.3572983" lon="5.4428683"><ele>439.0</ele><time>2026-05-01T14:14:10.253Z</time></trkpt><trkpt lat="45.357415" lon="5.4425233"><ele>439.0</ele><time>2026-05-01T14:14:11.253Z</time></trkpt><trkpt lat="45.3575317" lon="5.44219"><ele>439.0</ele><time>2026-05-01T14:14:12.252Z</time></trkpt><trkpt lat="45.3576433" lon="5.4418667"><ele>438.5</ele><time>2026-05-01T14:14:13.252Z</time></trkpt><trkpt lat="45.35776" lon="5.4415817"><ele>438.0</ele><time>2026-05-01T14:14:14.253Z</time></trkpt><trkpt lat="45.357855" lon="5.4412967"><ele>437.66666666666663</ele><time>2026-05-01T14:14:15.253Z</time></trkpt><trkpt lat="45.3579517" lon="5.4410267"><ele>437.3333333333333</ele><time>2026-05-01T14:14:16.253Z</time></trkpt><trkpt lat="45.3580567" lon="5.4407467"><ele>437.0</ele><time>2026-05-01T14:14:17.253Z</time></trkpt><trkpt lat="45.35815" lon="5.440475"><ele>437.0</ele><time>2026-05-01T14:14:18.253Z</time></trkpt><trkpt lat="45.35825" lon="5.4402083"><ele>437.0</ele><time>2026-05-01T14:14:19.253Z</time></trkpt><trkpt lat="45.3583467" lon="5.4399017"><ele>437.0</ele><time>2026-05-01T14:14:20.252Z</time></trkpt><trkpt lat="45.3584517" lon="5.4396067"><ele>437.0</ele><time>2026-05-01T14:14:21.253Z</time></trkpt><trkpt lat="45.3585683" lon="5.4392983"><ele>437.0</ele><time>2026-05-01T14:14:22.253Z</time></trkpt><trkpt lat="45.3586767" lon="5.439015"><ele>436.66666666666663</ele><time>2026-05-01T14:14:23.253Z</time></trkpt><trkpt lat="45.3587817" lon="5.43874"><ele>436.33333333333337</ele><time>2026-05-01T14:14:24.253Z</time></trkpt><trkpt lat="45.358875" lon="5.4384867"><ele>436.0</ele><time>2026-05-01T14:14:25.253Z</time></trkpt><trkpt lat="45.35896" lon="5.438215"><ele>436.6666666666667</ele><time>2026-05-01T14:14:26.253Z</time></trkpt><trkpt lat="45.359055" lon="5.4379483"><ele>437.33333333333337</ele><time>2026-05-01T14:14:27.252Z</time></trkpt><trkpt lat="45.3591467" lon="5.437685"><ele>438.0</ele><time>2026-05-01T14:14:28.253Z</time></trkpt><trkpt lat="45.3592317" lon="5.43743"><ele>438.0</ele><time>2026-05-01T14:14:29.252Z</time></trkpt><trkpt lat="45.3593217" lon="5.43718"><ele>438.0</ele><time>2026-05-01T14:14:30.253Z</time></trkpt><trkpt lat="45.3594017" lon="5.4369533"><ele>438.0</ele><time>2026-05-01T14:14:31.253Z</time></trkpt><trkpt lat="45.3594833" lon="5.436755"><ele>439.0</ele><time>2026-05-01T14:14:32.253Z</time></trkpt><trkpt lat="45.3595617" lon="5.4365467"><ele>440.0</ele><time>2026-05-01T14:14:33.252Z</time></trkpt><trkpt lat="45.35964" lon="5.4363483"><ele>441.0</ele><time>2026-05-01T14:14:34.253Z</time></trkpt><trkpt lat="45.3597167" lon="5.4361517"><ele>442.66666666666663</ele><time>2026-05-01T14:14:35.253Z</time></trkpt><trkpt lat="45.3597933" lon="5.4359517"><ele>444.3333333333333</ele><time>2026-05-01T14:14:36.253Z</time></trkpt><trkpt lat="45.3598617" lon="5.43573"><ele>446.0</ele><time>2026-05-01T14:14:37.253Z</time></trkpt><trkpt lat="45.3599383" lon="5.4354833"><ele>445.3333333333333</ele><time>2026-05-01T14:14:38.253Z</time></trkpt><trkpt lat="45.3600117" lon="5.4352317"><ele>444.66666666666663</ele><time>2026-05-01T14:14:39.253Z</time></trkpt><trkpt lat="45.3601083" lon="5.4349967"><ele>444.0</ele><time>2026-05-01T14:14:40.252Z</time></trkpt><trkpt lat="45.36019" lon="5.4347483"><ele>443.33333333333337</ele><time>2026-05-01T14:14:41.252Z</time></trkpt><trkpt lat="45.3602767" lon="5.4344933"><ele>442.6666666666667</ele><time>2026-05-01T14:14:42.253Z</time></trkpt><trkpt lat="45.3603717" lon="5.4342317"><ele>442.0</ele><time>2026-05-01T14:14:43.253Z</time></trkpt><trkpt lat="45.36047" lon="5.4339533"><ele>442.5</ele><time>2026-05-01T14:14:44.253Z</time></trkpt><trkpt lat="45.360565" lon="5.4336633"><ele>443.0</ele><time>2026-05-01T14:14:45.252Z</time></trkpt><trkpt lat="45.3606667" lon="5.4333617"><ele>443.0</ele><time>2026-05-01T14:14:46.253Z</time></trkpt><trkpt lat="45.36077" lon="5.4330617"><ele>443.0</ele><time>2026-05-01T14:14:47.253Z</time></trkpt><trkpt lat="45.3608783" lon="5.4327717"><ele>442.0</ele><time>2026-05-01T14:14:48.253Z</time></trkpt><trkpt lat="45.361005" lon="5.4324467"><ele>441.0</ele><time>2026-05-01T14:14:49.253Z</time></trkpt><trkpt lat="45.361105" lon="5.432135"><ele>441.0</ele><time>2026-05-01T14:14:50.253Z</time></trkpt><trkpt lat="45.3612117" lon="5.431795"><ele>441.0</ele><time>2026-05-01T14:14:51.253Z</time></trkpt><trkpt lat="45.3613267" lon="5.4314617"><ele>442.0</ele><time>2026-05-01T14:14:52.252Z</time></trkpt><trkpt lat="45.361435" lon="5.4311483"><ele>443.0</ele><time>2026-05-01T14:14:53.253Z</time></trkpt><trkpt lat="45.3615517" lon="5.430825"><ele>443.0</ele><time>2026-05-01T14:14:54.252Z</time></trkpt><trkpt lat="45.3616617" lon="5.43048"><ele>443.0</ele><time>2026-05-01T14:14:55.253Z</time></trkpt><trkpt lat="45.361785" lon="5.4301117"><ele>442.0</ele><time>2026-05-01T14:14:56.253Z</time></trkpt><trkpt lat="45.361905" lon="5.4297433"><ele>441.0</ele><time>2026-05-01T14:14:57.253Z</time></trkpt><trkpt lat="45.3620417" lon="5.4293517"><ele>441.0</ele><time>2026-05-01T14:14:58.252Z</time></trkpt><trkpt lat="45.3621867" lon="5.42895"><ele>441.0</ele><time>2026-05-01T14:14:59.253Z</time></trkpt><trkpt lat="45.3623233" lon="5.4285633"><ele>441.5</ele><time>2026-05-01T14:15:00.253Z</time></trkpt><trkpt lat="45.3624717" lon="5.42817"><ele>442.0</ele><time>2026-05-01T14:15:01.253Z</time></trkpt><trkpt lat="45.3626133" lon="5.427775"><ele>442.0</ele><time>2026-05-01T14:15:02.252Z</time></trkpt><trkpt lat="45.362755" lon="5.4273817"><ele>442.0</ele><time>2026-05-01T14:15:03.252Z</time></trkpt><trkpt lat="45.362905" lon="5.42699"><ele>442.0</ele><time>2026-05-01T14:15:04.253Z</time></trkpt><trkpt lat="45.3630417" lon="5.42662"><ele>442.0</ele><time>2026-05-01T14:15:05.253Z</time></trkpt><trkpt lat="45.3631633" lon="5.4262717"><ele>441.0</ele><time>2026-05-01T14:15:06.253Z</time></trkpt><trkpt lat="45.3632867" lon="5.425955"><ele>440.0</ele><time>2026-05-01T14:15:07.253Z</time></trkpt><trkpt lat="45.3633917" lon="5.4256517"><ele>440.0</ele><time>2026-05-01T14:15:08.253Z</time></trkpt><trkpt lat="45.36349" lon="5.42536"><ele>440.0</ele><time>2026-05-01T14:15:09.253Z</time></trkpt><trkpt lat="45.3635867" lon="5.4250817"><ele>440.0</ele><time>2026-05-01T14:15:10.252Z</time></trkpt><trkpt lat="45.36369" lon="5.4247883"><ele>440.0</ele><time>2026-05-01T14:15:11.253Z</time></trkpt><trkpt lat="45.3637867" lon="5.4245267"><ele>440.0</ele><time>2026-05-01T14:15:12.252Z</time></trkpt><trkpt lat="45.36389" lon="5.4242717"><ele>440.0</ele><time>2026-05-01T14:15:13.253Z</time></trkpt><trkpt lat="45.36398" lon="5.4240333"><ele>440.3333333333333</ele><time>2026-05-01T14:15:14.253Z</time></trkpt><trkpt lat="45.3640683" lon="5.4237667"><ele>440.66666666666663</ele><time>2026-05-01T14:15:15.253Z</time></trkpt><trkpt lat="45.3641617" lon="5.4234867"><ele>441.0</ele><time>2026-05-01T14:15:16.252Z</time></trkpt><trkpt lat="45.3642367" lon="5.4232233"><ele>440.66666666666663</ele><time>2026-05-01T14:15:17.253Z</time></trkpt><trkpt lat="45.3642867" lon="5.42295"><ele>440.3333333333333</ele><time>2026-05-01T14:15:18.253Z</time></trkpt><trkpt lat="45.3643317" lon="5.42267"><ele>440.0</ele><time>2026-05-01T14:15:19.252Z</time></trkpt><trkpt lat="45.36435" lon="5.4223717"><ele>440.0</ele><time>2026-05-01T14:15:20.252Z</time></trkpt><trkpt lat="45.3643817" lon="5.4221083"><ele>440.0</ele><time>2026-05-01T14:15:21.253Z</time></trkpt><trkpt lat="45.3644033" lon="5.4218633"><ele>440.0</ele><time>2026-05-01T14:15:22.253Z</time></trkpt><trkpt lat="45.3644017" lon="5.4216617"><ele>440.0</ele><time>2026-05-01T14:15:23.252Z</time></trkpt><trkpt lat="45.364395" lon="5.42147"><ele>440.0</ele><time>2026-05-01T14:15:24.253Z</time></trkpt><trkpt lat="45.3644117" lon="5.4213083"><ele>440.0</ele><time>2026-05-01T14:15:25.253Z</time></trkpt><trkpt lat="45.36444" lon="5.4211683"><ele>440.0</ele><time>2026-05-01T14:15:26.252Z</time></trkpt><trkpt lat="45.3644883" lon="5.421065"><ele>440.0</ele><time>2026-05-01T14:15:27.253Z</time></trkpt><trkpt lat="45.364545" lon="5.421"><ele>440.0</ele><time>2026-05-01T14:15:28.253Z</time></trkpt><trkpt lat="45.36461" lon="5.4209833"><ele>440.0</ele><time>2026-05-01T14:15:29.253Z</time></trkpt><trkpt lat="45.3646817" lon="5.4210017"><ele>440.0</ele><time>2026-05-01T14:15:30.252Z</time></trkpt><trkpt lat="45.3647817" lon="5.4210717"><ele>440.0</ele><time>2026-05-01T14:15:31.252Z</time></trkpt><trkpt lat="45.3648883" lon="5.421125"><ele>440.0</ele><time>2026-05-01T14:15:32.252Z</time></trkpt><trkpt lat="45.3649967" lon="5.42115"><ele>440.0</ele><time>2026-05-01T14:15:33.251Z</time></trkpt><trkpt lat="45.36512" lon="5.4211383"><ele>440.0</ele><time>2026-05-01T14:15:34.252Z</time></trkpt><trkpt lat="45.3652317" lon="5.4210867"><ele>440.0</ele><time>2026-05-01T14:15:35.252Z</time></trkpt><trkpt lat="45.36532" lon="5.42099"><ele>440.0</ele><time>2026-05-01T14:15:36.252Z</time></trkpt><trkpt lat="45.3653933" lon="5.4208683"><ele>440.0</ele><time>2026-05-01T14:15:37.251Z</time></trkpt><trkpt lat="45.3654467" lon="5.420715"><ele>440.0</ele><time>2026-05-01T14:15:38.252Z</time></trkpt><trkpt lat="45.365495" lon="5.4205567"><ele>440.0</ele><time>2026-05-01T14:15:39.251Z</time></trkpt><trkpt lat="45.36555" lon="5.4203917"><ele>440.0</ele><time>2026-05-01T14:15:40.251Z</time></trkpt><trkpt lat="45.3656283" lon="5.42021"><ele>439.66666666666663</ele><time>2026-05-01T14:15:41.252Z</time></trkpt><trkpt lat="45.3657083" lon="5.42002"><ele>439.33333333333337</ele><time>2026-05-01T14:15:42.252Z</time></trkpt><trkpt lat="45.3657667" lon="5.4198133"><ele>439.0</ele><time>2026-05-01T14:15:43.252Z</time></trkpt><trkpt lat="45.36581" lon="5.4195717"><ele>439.0</ele><time>2026-05-01T14:15:44.251Z</time></trkpt><trkpt lat="45.36585" lon="5.4193"><ele>439.0</ele><time>2026-05-01T14:15:45.251Z</time></trkpt><trkpt lat="45.3658683" lon="5.4190117"><ele>439.0</ele><time>2026-05-01T14:15:46.252Z</time></trkpt><trkpt lat="45.3659067" lon="5.41867"><ele>438.5</ele><time>2026-05-01T14:15:47.251Z</time></trkpt><trkpt lat="45.365985" lon="5.4183717"><ele>438.0</ele><time>2026-05-01T14:15:48.251Z</time></trkpt><trkpt lat="45.366075" lon="5.418055"><ele>437.5</ele><time>2026-05-01T14:15:49.252Z</time></trkpt><trkpt lat="45.3661767" lon="5.4177367"><ele>437.0</ele><time>2026-05-01T14:15:50.252Z</time></trkpt><trkpt lat="45.3662883" lon="5.4174233"><ele>436.5</ele><time>2026-05-01T14:15:51.252Z</time></trkpt><trkpt lat="45.3664017" lon="5.4171033"><ele>436.0</ele><time>2026-05-01T14:15:52.251Z</time></trkpt><trkpt lat="45.366525" lon="5.41676"><ele>436.0</ele><time>2026-05-01T14:15:53.252Z</time></trkpt><trkpt lat="45.3666533" lon="5.4164167"><ele>436.0</ele><time>2026-05-01T14:15:54.252Z</time></trkpt><trkpt lat="45.3667867" lon="5.4160567"><ele>436.0</ele><time>2026-05-01T14:15:55.252Z</time></trkpt><trkpt lat="45.3669083" lon="5.4157133"><ele>436.0</ele><time>2026-05-01T14:15:56.252Z</time></trkpt><trkpt lat="45.36704" lon="5.4153917"><ele>436.0</ele><time>2026-05-01T14:15:57.251Z</time></trkpt><trkpt lat="45.3671583" lon="5.4150767"><ele>436.0</ele><time>2026-05-01T14:15:58.252Z</time></trkpt><trkpt lat="45.36726" lon="5.4147617"><ele>436.5</ele><time>2026-05-01T14:15:59.251Z</time></trkpt><trkpt lat="45.3673683" lon="5.41445"><ele>437.0</ele><time>2026-05-01T14:16:00.252Z</time></trkpt><trkpt lat="45.3674883" lon="5.4141017"><ele>436.5</ele><time>2026-05-01T14:16:01.252Z</time></trkpt><trkpt lat="45.3676083" lon="5.4137667"><ele>436.0</ele><time>2026-05-01T14:16:02.252Z</time></trkpt><trkpt lat="45.3677367" lon="5.4134233"><ele>436.0</ele><time>2026-05-01T14:16:03.252Z</time></trkpt><trkpt lat="45.3678583" lon="5.4130733"><ele>436.0</ele><time>2026-05-01T14:16:04.251Z</time></trkpt><trkpt lat="45.36798" lon="5.4127283"><ele>436.0</ele><time>2026-05-01T14:16:05.252Z</time></trkpt><trkpt lat="45.3681" lon="5.4123883"><ele>436.0</ele><time>2026-05-01T14:16:06.252Z</time></trkpt><trkpt lat="45.3682183" lon="5.4120583"><ele>436.0</ele><time>2026-05-01T14:16:07.252Z</time></trkpt><trkpt lat="45.3683417" lon="5.411735"><ele>436.0</ele><time>2026-05-01T14:16:08.252Z</time></trkpt><trkpt lat="45.368445" lon="5.411405"><ele>436.5</ele><time>2026-05-01T14:16:09.252Z</time></trkpt><trkpt lat="45.36856" lon="5.4110767"><ele>437.0</ele><time>2026-05-01T14:16:10.252Z</time></trkpt><trkpt lat="45.36868" lon="5.4107483"><ele>436.5</ele><time>2026-05-01T14:16:11.252Z</time></trkpt><trkpt lat="45.3688" lon="5.4104183"><ele>436.0</ele><time>2026-05-01T14:16:12.252Z</time></trkpt><trkpt lat="45.3689167" lon="5.4100917"><ele>436.0</ele><time>2026-05-01T14:16:13.252Z</time></trkpt><trkpt lat="45.3690333" lon="5.409765"><ele>436.0</ele><time>2026-05-01T14:16:14.252Z</time></trkpt><trkpt lat="45.36916" lon="5.4094333"><ele>436.0</ele><time>2026-05-01T14:16:15.252Z</time></trkpt><trkpt lat="45.36927" lon="5.4091033"><ele>436.0</ele><time>2026-05-01T14:16:16.252Z</time></trkpt><trkpt lat="45.3693817" lon="5.408765"><ele>436.0</ele><time>2026-05-01T14:16:17.252Z</time></trkpt><trkpt lat="45.3695" lon="5.4084233"><ele>436.0</ele><time>2026-05-01T14:16:18.251Z</time></trkpt><trkpt lat="45.369615" lon="5.4080883"><ele>437.0</ele><time>2026-05-01T14:16:19.252Z</time></trkpt><trkpt lat="45.3697283" lon="5.407745"><ele>438.0</ele><time>2026-05-01T14:16:20.252Z</time></trkpt><trkpt lat="45.36984" lon="5.40742"><ele>438.0</ele><time>2026-05-01T14:16:21.252Z</time></trkpt><trkpt lat="45.3699617" lon="5.40709"><ele>438.0</ele><time>2026-05-01T14:16:22.252Z</time></trkpt><trkpt lat="45.3700833" lon="5.406765"><ele>438.0</ele><time>2026-05-01T14:16:23.251Z</time></trkpt><trkpt lat="45.3702183" lon="5.406445"><ele>438.0</ele><time>2026-05-01T14:16:24.252Z</time></trkpt><trkpt lat="45.3703383" lon="5.4061217"><ele>438.0</ele><time>2026-05-01T14:16:25.252Z</time></trkpt><trkpt lat="45.37044" lon="5.4058233"><ele>438.0</ele><time>2026-05-01T14:16:26.252Z</time></trkpt><trkpt lat="45.370545" lon="5.4055217"><ele>438.5</ele><time>2026-05-01T14:16:27.252Z</time></trkpt><trkpt lat="45.3706467" lon="5.4052217"><ele>439.0</ele><time>2026-05-01T14:16:28.251Z</time></trkpt><trkpt lat="45.3707567" lon="5.4049217"><ele>438.5</ele><time>2026-05-01T14:16:29.252Z</time></trkpt><trkpt lat="45.37087" lon="5.4046133"><ele>438.0</ele><time>2026-05-01T14:16:30.251Z</time></trkpt><trkpt lat="45.370975" lon="5.4042867"><ele>438.0</ele><time>2026-05-01T14:16:31.252Z</time></trkpt><trkpt lat="45.3710917" lon="5.4039567"><ele>438.0</ele><time>2026-05-01T14:16:32.252Z</time></trkpt><trkpt lat="45.3712083" lon="5.4036183"><ele>438.0</ele><time>2026-05-01T14:16:33.252Z</time></trkpt><trkpt lat="45.3713267" lon="5.4032817"><ele>438.0</ele><time>2026-05-01T14:16:34.252Z</time></trkpt><trkpt lat="45.3714517" lon="5.4029433"><ele>438.5</ele><time>2026-05-01T14:16:35.251Z</time></trkpt><trkpt lat="45.37157" lon="5.4026083"><ele>439.0</ele><time>2026-05-01T14:16:36.252Z</time></trkpt><trkpt lat="45.3716867" lon="5.4022783"><ele>438.0</ele><time>2026-05-01T14:16:37.252Z</time></trkpt><trkpt lat="45.3718083" lon="5.401945"><ele>437.0</ele><time>2026-05-01T14:16:38.251Z</time></trkpt><trkpt lat="45.3719367" lon="5.4016067"><ele>437.5</ele><time>2026-05-01T14:16:39.252Z</time></trkpt><trkpt lat="45.3720583" lon="5.401265"><ele>438.0</ele><time>2026-05-01T14:16:40.251Z</time></trkpt><trkpt lat="45.37218" lon="5.4009133"><ele>438.0</ele><time>2026-05-01T14:16:41.252Z</time></trkpt><trkpt lat="45.3723117" lon="5.4005533"><ele>438.0</ele><time>2026-05-01T14:16:42.251Z</time></trkpt><trkpt lat="45.3724417" lon="5.4001917"><ele>438.5</ele><time>2026-05-01T14:16:43.251Z</time></trkpt><trkpt lat="45.3725733" lon="5.3998383"><ele>439.0</ele><time>2026-05-01T14:16:44.252Z</time></trkpt><trkpt lat="45.372705" lon="5.3994617"><ele>439.0</ele><time>2026-05-01T14:16:45.252Z</time></trkpt><trkpt lat="45.3728333" lon="5.3990717"><ele>439.0</ele><time>2026-05-01T14:16:46.252Z</time></trkpt><trkpt lat="45.3729567" lon="5.3986717"><ele>439.5</ele><time>2026-05-01T14:16:47.252Z</time></trkpt><trkpt lat="45.3730867" lon="5.398265"><ele>440.0</ele><time>2026-05-01T14:16:48.252Z</time></trkpt><trkpt lat="45.3732217" lon="5.3978683"><ele>439.0</ele><time>2026-05-01T14:16:49.252Z</time></trkpt><trkpt lat="45.373355" lon="5.3974833"><ele>438.0</ele><time>2026-05-01T14:16:50.252Z</time></trkpt><trkpt lat="45.3734883" lon="5.3971083"><ele>438.0</ele><time>2026-05-01T14:16:51.252Z</time></trkpt><trkpt lat="45.3736267" lon="5.3967483"><ele>438.0</ele><time>2026-05-01T14:16:52.252Z</time></trkpt><trkpt lat="45.3737633" lon="5.396385"><ele>438.5</ele><time>2026-05-01T14:16:53.252Z</time></trkpt><trkpt lat="45.3738883" lon="5.3960067"><ele>439.0</ele><time>2026-05-01T14:16:54.252Z</time></trkpt><trkpt lat="45.3740267" lon="5.395605"><ele>438.5</ele><time>2026-05-01T14:16:55.251Z</time></trkpt><trkpt lat="45.37416" lon="5.3952267"><ele>438.0</ele><time>2026-05-01T14:16:56.252Z</time></trkpt><trkpt lat="45.3743" lon="5.3948767"><ele>437.5</ele><time>2026-05-01T14:16:57.251Z</time></trkpt><trkpt lat="45.37443" lon="5.3945233"><ele>437.0</ele><time>2026-05-01T14:16:58.251Z</time></trkpt><trkpt lat="45.3745567" lon="5.39419"><ele>437.0</ele><time>2026-05-01T14:16:59.252Z</time></trkpt><trkpt lat="45.3746683" lon="5.3938583"><ele>437.0</ele><time>2026-05-01T14:17:00.251Z</time></trkpt><trkpt lat="45.37479" lon="5.3935283"><ele>437.0</ele><time>2026-05-01T14:17:01.252Z</time></trkpt><trkpt lat="45.3749183" lon="5.393185"><ele>437.0</ele><time>2026-05-01T14:17:02.252Z</time></trkpt><trkpt lat="45.3750567" lon="5.3928483"><ele>437.0</ele><time>2026-05-01T14:17:03.252Z</time></trkpt><trkpt lat="45.37521" lon="5.3925283"><ele>437.0</ele><time>2026-05-01T14:17:04.252Z</time></trkpt><trkpt lat="45.3753667" lon="5.3922067"><ele>437.0</ele><time>2026-05-01T14:17:05.252Z</time></trkpt><trkpt lat="45.3755183" lon="5.3918767"><ele>437.0</ele><time>2026-05-01T14:17:06.251Z</time></trkpt><trkpt lat="45.3756817" lon="5.391535"><ele>437.5</ele><time>2026-05-01T14:17:07.252Z</time></trkpt><trkpt lat="45.3758567" lon="5.3912033"><ele>438.0</ele><time>2026-05-01T14:17:08.252Z</time></trkpt><trkpt lat="45.37603" lon="5.3908867"><ele>438.0</ele><time>2026-05-01T14:17:09.252Z</time></trkpt><trkpt lat="45.3761867" lon="5.39059"><ele>438.0</ele><time>2026-05-01T14:17:10.252Z</time></trkpt><trkpt lat="45.3763467" lon="5.3902733"><ele>437.5</ele><time>2026-05-01T14:17:11.251Z</time></trkpt><trkpt lat="45.376505" lon="5.3899483"><ele>437.0</ele><time>2026-05-01T14:17:12.251Z</time></trkpt><trkpt lat="45.376665" lon="5.389615"><ele>437.0</ele><time>2026-05-01T14:17:13.251Z</time></trkpt><trkpt lat="45.376825" lon="5.3892783"><ele>437.0</ele><time>2026-05-01T14:17:14.251Z</time></trkpt><trkpt lat="45.3769683" lon="5.388975"><ele>437.0</ele><time>2026-05-01T14:17:15.252Z</time></trkpt><trkpt lat="45.3771167" lon="5.3886767"><ele>437.0</ele><time>2026-05-01T14:17:16.252Z</time></trkpt><trkpt lat="45.37726" lon="5.3883817"><ele>437.5</ele><time>2026-05-01T14:17:17.252Z</time></trkpt><trkpt lat="45.3774017" lon="5.3880883"><ele>438.0</ele><time>2026-05-01T14:17:18.252Z</time></trkpt><trkpt lat="45.37754" lon="5.3878067"><ele>438.0</ele><time>2026-05-01T14:17:19.251Z</time></trkpt><trkpt lat="45.3776717" lon="5.3875333"><ele>438.0</ele><time>2026-05-01T14:17:20.252Z</time></trkpt><trkpt lat="45.3778083" lon="5.387255"><ele>437.5</ele><time>2026-05-01T14:17:21.252Z</time></trkpt><trkpt lat="45.3779383" lon="5.3869683"><ele>437.0</ele><time>2026-05-01T14:17:22.252Z</time></trkpt><trkpt lat="45.37807" lon="5.3867117"><ele>437.0</ele><time>2026-05-01T14:17:23.252Z</time></trkpt><trkpt lat="45.3782017" lon="5.3864467"><ele>437.0</ele><time>2026-05-01T14:17:24.251Z</time></trkpt><trkpt lat="45.378325" lon="5.3861717"><ele>437.0</ele><time>2026-05-01T14:17:25.252Z</time></trkpt><trkpt lat="45.37846" lon="5.3859183"><ele>437.0</ele><time>2026-05-01T14:17:26.252Z</time></trkpt><trkpt lat="45.37859" lon="5.38566"><ele>437.0</ele><time>2026-05-01T14:17:27.252Z</time></trkpt><trkpt lat="45.3787267" lon="5.385405"><ele>436.0</ele><time>2026-05-01T14:17:28.251Z</time></trkpt><trkpt lat="45.378855" lon="5.38516"><ele>435.0</ele><time>2026-05-01T14:17:29.251Z</time></trkpt><trkpt lat="45.378985" lon="5.38489"><ele>434.0</ele><time>2026-05-01T14:17:30.252Z</time></trkpt><trkpt lat="45.3791267" lon="5.3846033"><ele>434.0</ele><time>2026-05-01T14:17:31.252Z</time></trkpt><trkpt lat="45.3792733" lon="5.384315"><ele>434.0</ele><time>2026-05-01T14:17:32.252Z</time></trkpt><trkpt lat="45.3794217" lon="5.38403"><ele>434.5</ele><time>2026-05-01T14:17:33.252Z</time></trkpt><trkpt lat="45.379565" lon="5.38375"><ele>435.0</ele><time>2026-05-01T14:17:34.252Z</time></trkpt><trkpt lat="45.3797133" lon="5.3834767"><ele>435.0</ele><time>2026-05-01T14:17:35.252Z</time></trkpt><trkpt lat="45.3798617" lon="5.3832017"><ele>435.0</ele><time>2026-05-01T14:17:36.251Z</time></trkpt><trkpt lat="45.3800083" lon="5.3829083"><ele>435.0</ele><time>2026-05-01T14:17:37.252Z</time></trkpt><trkpt lat="45.380155" lon="5.3826"><ele>435.0</ele><time>2026-05-01T14:17:38.252Z</time></trkpt><trkpt lat="45.3803" lon="5.38229"><ele>435.0</ele><time>2026-05-01T14:17:39.252Z</time></trkpt><trkpt lat="45.3804517" lon="5.3819917"><ele>435.0</ele><time>2026-05-01T14:17:40.252Z</time></trkpt><trkpt lat="45.38058" lon="5.3816967"><ele>435.0</ele><time>2026-05-01T14:17:41.252Z</time></trkpt><trkpt lat="45.3807267" lon="5.3813867"><ele>435.0</ele><time>2026-05-01T14:17:42.251Z</time></trkpt><trkpt lat="45.380875" lon="5.3810667"><ele>435.0</ele><time>2026-05-01T14:17:43.252Z</time></trkpt><trkpt lat="45.381025" lon="5.3807533"><ele>435.0</ele><time>2026-05-01T14:17:44.252Z</time></trkpt><trkpt lat="45.3811867" lon="5.3804367"><ele>432.0</ele><time>2026-05-01T14:17:45.252Z</time></trkpt><trkpt lat="45.38135" lon="5.3801533"><ele>429.0</ele><time>2026-05-01T14:17:46.252Z</time></trkpt><trkpt lat="45.3815133" lon="5.3798417"><ele>427.5</ele><time>2026-05-01T14:17:47.251Z</time></trkpt><trkpt lat="45.3816817" lon="5.3795383"><ele>426.0</ele><time>2026-05-01T14:17:48.252Z</time></trkpt><trkpt lat="45.3818467" lon="5.3792017"><ele>426.0</ele><time>2026-05-01T14:17:49.252Z</time></trkpt><trkpt lat="45.3820183" lon="5.3788583"><ele>426.0</ele><time>2026-05-01T14:17:50.251Z</time></trkpt><trkpt lat="45.3821933" lon="5.3785"><ele>426.0</ele><time>2026-05-01T14:17:51.252Z</time></trkpt><trkpt lat="45.3823733" lon="5.3781483"><ele>426.0</ele><time>2026-05-01T14:17:52.252Z</time></trkpt><trkpt lat="45.3825483" lon="5.3777933"><ele>426.0</ele><time>2026-05-01T14:17:53.252Z</time></trkpt><trkpt lat="45.3827217" lon="5.3774367"><ele>426.0</ele><time>2026-05-01T14:17:54.252Z</time></trkpt><trkpt lat="45.3828917" lon="5.377075"><ele>425.5</ele><time>2026-05-01T14:17:55.252Z</time></trkpt><trkpt lat="45.3830617" lon="5.37672"><ele>425.0</ele><time>2026-05-01T14:17:56.251Z</time></trkpt><trkpt lat="45.383235" lon="5.37638"><ele>425.0</ele><time>2026-05-01T14:17:57.252Z</time></trkpt><trkpt lat="45.3834083" lon="5.376045"><ele>425.0</ele><time>2026-05-01T14:17:58.252Z</time></trkpt><trkpt lat="45.3835767" lon="5.37572"><ele>425.0</ele><time>2026-05-01T14:17:59.251Z</time></trkpt><trkpt lat="45.38374" lon="5.3753967"><ele>425.0</ele><time>2026-05-01T14:18:00.251Z</time></trkpt><trkpt lat="45.3838967" lon="5.3750683"><ele>425.5</ele><time>2026-05-01T14:18:01.252Z</time></trkpt><trkpt lat="45.3840583" lon="5.3747433"><ele>426.0</ele><time>2026-05-01T14:18:02.252Z</time></trkpt><trkpt lat="45.3842283" lon="5.3744167"><ele>426.0</ele><time>2026-05-01T14:18:03.251Z</time></trkpt><trkpt lat="45.3843917" lon="5.3740967"><ele>426.0</ele><time>2026-05-01T14:18:04.252Z</time></trkpt><trkpt lat="45.3845667" lon="5.3737783"><ele>427.0</ele><time>2026-05-01T14:18:05.252Z</time></trkpt><trkpt lat="45.3847267" lon="5.373455"><ele>428.0</ele><time>2026-05-01T14:18:06.252Z</time></trkpt><trkpt lat="45.3848783" lon="5.3731367"><ele>428.5</ele><time>2026-05-01T14:18:07.252Z</time></trkpt><trkpt lat="45.3850133" lon="5.3728517"><ele>429.0</ele><time>2026-05-01T14:18:08.252Z</time></trkpt><trkpt lat="45.3851483" lon="5.3725833"><ele>429.0</ele><time>2026-05-01T14:18:09.252Z</time></trkpt><trkpt lat="45.3852817" lon="5.3723167"><ele>429.0</ele><time>2026-05-01T14:18:10.252Z</time></trkpt><trkpt lat="45.385415" lon="5.3720533"><ele>429.66666666666663</ele><time>2026-05-01T14:18:11.251Z</time></trkpt><trkpt lat="45.3855383" lon="5.37181"><ele>430.3333333333333</ele><time>2026-05-01T14:18:12.252Z</time></trkpt><trkpt lat="45.3856567" lon="5.371575"><ele>431.0</ele><time>2026-05-01T14:18:13.252Z</time></trkpt><trkpt lat="45.385775" lon="5.3713483"><ele>431.0</ele><time>2026-05-01T14:18:14.251Z</time></trkpt><trkpt lat="45.3859" lon="5.37111"><ele>431.0</ele><time>2026-05-01T14:18:15.252Z</time></trkpt><trkpt lat="45.3860267" lon="5.3708517"><ele>431.0</ele><time>2026-05-01T14:18:16.252Z</time></trkpt><trkpt lat="45.3861483" lon="5.3706033"><ele>431.0</ele><time>2026-05-01T14:18:17.252Z</time></trkpt><trkpt lat="45.38627" lon="5.37036"><ele>431.0</ele><time>2026-05-01T14:18:18.251Z</time></trkpt><trkpt lat="45.3863883" lon="5.37012"><ele>431.0</ele><time>2026-05-01T14:18:19.252Z</time></trkpt><trkpt lat="45.3865167" lon="5.36989"><ele>431.3333333333333</ele><time>2026-05-01T14:18:20.252Z</time></trkpt><trkpt lat="45.38663" lon="5.3696483"><ele>431.66666666666663</ele><time>2026-05-01T14:18:21.252Z</time></trkpt><trkpt lat="45.3867417" lon="5.3694117"><ele>432.0</ele><time>2026-05-01T14:18:22.251Z</time></trkpt><trkpt lat="45.386855" lon="5.369185"><ele>432.0</ele><time>2026-05-01T14:18:23.251Z</time></trkpt><trkpt lat="45.3869733" lon="5.368965"><ele>432.0</ele><time>2026-05-01T14:18:24.251Z</time></trkpt><trkpt lat="45.3870883" lon="5.3687267"><ele>432.0</ele><time>2026-05-01T14:18:25.251Z</time></trkpt><trkpt lat="45.3872033" lon="5.3685133"><ele>432.0</ele><time>2026-05-01T14:18:26.252Z</time></trkpt><trkpt lat="45.3873133" lon="5.368275"><ele>432.0</ele><time>2026-05-01T14:18:27.252Z</time></trkpt><trkpt lat="45.3874267" lon="5.3680333"><ele>432.0</ele><time>2026-05-01T14:18:28.252Z</time></trkpt><trkpt lat="45.3875483" lon="5.3678"><ele>431.66666666666663</ele><time>2026-05-01T14:18:29.251Z</time></trkpt><trkpt lat="45.3876683" lon="5.3675683"><ele>431.3333333333333</ele><time>2026-05-01T14:18:30.251Z</time></trkpt><trkpt lat="45.387775" lon="5.367335"><ele>431.0</ele><time>2026-05-01T14:18:31.252Z</time></trkpt><trkpt lat="45.3878867" lon="5.3671"><ele>430.0</ele><time>2026-05-01T14:18:32.252Z</time></trkpt><trkpt lat="45.387995" lon="5.36686"><ele>429.0</ele><time>2026-05-01T14:18:33.251Z</time></trkpt><trkpt lat="45.38811" lon="5.3666117"><ele>428.0</ele><time>2026-05-01T14:18:34.251Z</time></trkpt><trkpt lat="45.388215" lon="5.3663617"><ele>428.0</ele><time>2026-05-01T14:18:35.251Z</time></trkpt><trkpt lat="45.3883233" lon="5.366105"><ele>428.0</ele><time>2026-05-01T14:18:36.251Z</time></trkpt><trkpt lat="45.388435" lon="5.365875"><ele>428.0</ele><time>2026-05-01T14:18:37.251Z</time></trkpt><trkpt lat="45.38855" lon="5.3656483"><ele>428.0</ele><time>2026-05-01T14:18:38.252Z</time></trkpt><trkpt lat="45.3886633" lon="5.3654317"><ele>428.0</ele><time>2026-05-01T14:18:39.252Z</time></trkpt><trkpt lat="45.388775" lon="5.36521"><ele>428.0</ele><time>2026-05-01T14:18:40.251Z</time></trkpt><trkpt lat="45.3888817" lon="5.3649967"><ele>428.3333333333333</ele><time>2026-05-01T14:18:41.252Z</time></trkpt><trkpt lat="45.3889833" lon="5.3647917"><ele>428.66666666666663</ele><time>2026-05-01T14:18:42.252Z</time></trkpt><trkpt lat="45.3890883" lon="5.3645967"><ele>429.0</ele><time>2026-05-01T14:18:43.252Z</time></trkpt><trkpt lat="45.3891917" lon="5.3644183"><ele>428.33333333333337</ele><time>2026-05-01T14:18:44.252Z</time></trkpt><trkpt lat="45.3892783" lon="5.3642317"><ele>427.6666666666667</ele><time>2026-05-01T14:18:45.251Z</time></trkpt><trkpt lat="45.389375" lon="5.3640567"><ele>427.0</ele><time>2026-05-01T14:18:46.252Z</time></trkpt><trkpt lat="45.3894667" lon="5.363895"><ele>426.75</ele><time>2026-05-01T14:18:47.252Z</time></trkpt><trkpt lat="45.3895483" lon="5.3637367"><ele>426.5</ele><time>2026-05-01T14:18:48.252Z</time></trkpt><trkpt lat="45.38963" lon="5.3635933"><ele>426.25</ele><time>2026-05-01T14:18:49.251Z</time></trkpt><trkpt lat="45.3897083" lon="5.3634633"><ele>426.0</ele><time>2026-05-01T14:18:50.252Z</time></trkpt><trkpt lat="45.389775" lon="5.3633367"><ele>426.25</ele><time>2026-05-01T14:18:51.251Z</time></trkpt><trkpt lat="45.38984" lon="5.36318"><ele>426.5</ele><time>2026-05-01T14:18:52.252Z</time></trkpt><trkpt lat="45.3899017" lon="5.3630267"><ele>426.75</ele><time>2026-05-01T14:18:53.251Z</time></trkpt><trkpt lat="45.3899567" lon="5.362875"><ele>427.0</ele><time>2026-05-01T14:18:54.252Z</time></trkpt><trkpt lat="45.3900233" lon="5.3627383"><ele>427.0</ele><time>2026-05-01T14:18:55.252Z</time></trkpt><trkpt lat="45.3900817" lon="5.362605"><ele>427.00000000000006</ele><time>2026-05-01T14:18:56.251Z</time></trkpt><trkpt lat="45.3901367" lon="5.36248"><ele>427.00000000000006</ele><time>2026-05-01T14:18:57.252Z</time></trkpt><trkpt lat="45.3901917" lon="5.3623917"><ele>427.0</ele><time>2026-05-01T14:18:58.252Z</time></trkpt><trkpt lat="45.39025" lon="5.3623217"><ele>427.0</ele><time>2026-05-01T14:18:59.251Z</time></trkpt><trkpt lat="45.390325" lon="5.3622733"><ele>427.0</ele><time>2026-05-01T14:19:00.251Z</time></trkpt><trkpt lat="45.39041" lon="5.362235"><ele>427.00000000000006</ele><time>2026-05-01T14:19:01.252Z</time></trkpt><trkpt lat="45.3904967" lon="5.3621983"><ele>427.00000000000006</ele><time>2026-05-01T14:19:02.252Z</time></trkpt><trkpt lat="45.3906" lon="5.3621933"><ele>427.0</ele><time>2026-05-01T14:19:03.251Z</time></trkpt><trkpt lat="45.3906967" lon="5.3621517"><ele>427.0</ele><time>2026-05-01T14:19:04.252Z</time></trkpt><trkpt lat="45.3908017" lon="5.3621033"><ele>427.25</ele><time>2026-05-01T14:19:05.252Z</time></trkpt><trkpt lat="45.3909067" lon="5.3620433"><ele>427.5</ele><time>2026-05-01T14:19:06.252Z</time></trkpt><trkpt lat="45.39103" lon="5.3619917"><ele>427.75</ele><time>2026-05-01T14:19:07.251Z</time></trkpt><trkpt lat="45.39116" lon="5.3619283"><ele>428.0</ele><time>2026-05-01T14:19:08.251Z</time></trkpt><trkpt lat="45.391305" lon="5.361865"><ele>428.66666666666663</ele><time>2026-05-01T14:19:09.252Z</time></trkpt><trkpt lat="45.3914517" lon="5.3617983"><ele>429.33333333333337</ele><time>2026-05-01T14:19:10.251Z</time></trkpt><trkpt lat="45.3916" lon="5.3617267"><ele>430.0</ele><time>2026-05-01T14:19:11.251Z</time></trkpt><trkpt lat="45.391745" lon="5.3616567"><ele>430.0</ele><time>2026-05-01T14:19:12.252Z</time></trkpt><trkpt lat="45.3918983" lon="5.3615917"><ele>430.0</ele><time>2026-05-01T14:19:13.252Z</time></trkpt><trkpt lat="45.3920683" lon="5.3615233"><ele>430.0</ele><time>2026-05-01T14:19:14.252Z</time></trkpt><trkpt lat="45.3922483" lon="5.3614633"><ele>429.0</ele><time>2026-05-01T14:19:15.251Z</time></trkpt><trkpt lat="45.3924283" lon="5.3613017"><ele>428.0</ele><time>2026-05-01T14:19:16.252Z</time></trkpt><trkpt lat="45.392615" lon="5.3611817"><ele>427.0</ele><time>2026-05-01T14:19:17.252Z</time></trkpt><trkpt lat="45.3927917" lon="5.3610733"><ele>427.0</ele><time>2026-05-01T14:19:18.252Z</time></trkpt><trkpt lat="45.392975" lon="5.3609817"><ele>427.0</ele><time>2026-05-01T14:19:19.252Z</time></trkpt><trkpt lat="45.3931767" lon="5.3608867"><ele>427.0</ele><time>2026-05-01T14:19:20.252Z</time></trkpt><trkpt lat="45.39339" lon="5.36076"><ele>428.0</ele><time>2026-05-01T14:19:21.252Z</time></trkpt><trkpt lat="45.39358" lon="5.36067"><ele>429.0</ele><time>2026-05-01T14:19:22.251Z</time></trkpt><trkpt lat="45.3937883" lon="5.360555"><ele>430.0</ele><time>2026-05-01T14:19:23.251Z</time></trkpt><trkpt lat="45.3939833" lon="5.3604433"><ele>434.0</ele><time>2026-05-01T14:19:24.251Z</time></trkpt><trkpt lat="45.39418" lon="5.360315"><ele>438.0</ele><time>2026-05-01T14:19:25.252Z</time></trkpt><trkpt lat="45.3943867" lon="5.36018"><ele>442.0</ele><time>2026-05-01T14:19:26.252Z</time></trkpt><trkpt lat="45.3945817" lon="5.3600367"><ele>442.6666666666667</ele><time>2026-05-01T14:19:27.252Z</time></trkpt><trkpt lat="45.394765" lon="5.359905"><ele>443.33333333333337</ele><time>2026-05-01T14:19:28.251Z</time></trkpt><trkpt lat="45.39495" lon="5.3597683"><ele>444.0</ele><time>2026-05-01T14:19:29.252Z</time></trkpt><trkpt lat="45.39514" lon="5.35962"><ele>445.0</ele><time>2026-05-01T14:19:30.252Z</time></trkpt><trkpt lat="45.3953333" lon="5.3594683"><ele>446.0</ele><time>2026-05-01T14:19:31.251Z</time></trkpt><trkpt lat="45.39552" lon="5.35932"><ele>447.0</ele><time>2026-05-01T14:19:32.252Z</time></trkpt><trkpt lat="45.395725" lon="5.359175"><ele>447.0</ele><time>2026-05-01T14:19:33.252Z</time></trkpt><trkpt lat="45.395945" lon="5.3590017"><ele>447.0</ele><time>2026-05-01T14:19:34.252Z</time></trkpt><trkpt lat="45.3961683" lon="5.3588433"><ele>449.0</ele><time>2026-05-01T14:19:35.252Z</time></trkpt><trkpt lat="45.3964" lon="5.3586833"><ele>451.0</ele><time>2026-05-01T14:19:36.251Z</time></trkpt><trkpt lat="45.3966517" lon="5.3585233"><ele>451.0</ele><time>2026-05-01T14:19:37.252Z</time></trkpt><trkpt lat="45.396885" lon="5.3583883"><ele>451.0</ele><time>2026-05-01T14:19:38.252Z</time></trkpt><trkpt lat="45.3971267" lon="5.358245"><ele>454.0</ele><time>2026-05-01T14:19:39.251Z</time></trkpt><trkpt lat="45.39737" lon="5.3581033"><ele>457.0</ele><time>2026-05-01T14:19:40.252Z</time></trkpt><trkpt lat="45.397595" lon="5.357965"><ele>457.0</ele><time>2026-05-01T14:19:41.252Z</time></trkpt><trkpt lat="45.3978283" lon="5.35783"><ele>457.0</ele><time>2026-05-01T14:19:42.251Z</time></trkpt><trkpt lat="45.39805" lon="5.3576967"><ele>462.0</ele><time>2026-05-01T14:19:43.252Z</time></trkpt><trkpt lat="45.3982617" lon="5.3575667"><ele>467.0</ele><time>2026-05-01T14:19:44.252Z</time></trkpt><trkpt lat="45.3984767" lon="5.35747"><ele>467.0</ele><time>2026-05-01T14:19:45.251Z</time></trkpt><trkpt lat="45.3986717" lon="5.3573767"><ele>467.0</ele><time>2026-05-01T14:19:46.252Z</time></trkpt><trkpt lat="45.398855" lon="5.35727"><ele>467.0</ele><time>2026-05-01T14:19:47.252Z</time></trkpt><trkpt lat="45.399035" lon="5.35714"><ele>468.3333333333333</ele><time>2026-05-01T14:19:48.252Z</time></trkpt><trkpt lat="45.39922" lon="5.3569733"><ele>469.66666666666663</ele><time>2026-05-01T14:19:49.252Z</time></trkpt><trkpt lat="45.3993683" lon="5.356805"><ele>471.0</ele><time>2026-05-01T14:19:50.252Z</time></trkpt><trkpt lat="45.3995117" lon="5.3566217"><ele>471.0</ele><time>2026-05-01T14:19:51.251Z</time></trkpt><trkpt lat="45.3996233" lon="5.3564267"><ele>471.0</ele><time>2026-05-01T14:19:52.251Z</time></trkpt><trkpt lat="45.3997217" lon="5.3561933"><ele>471.0</ele><time>2026-05-01T14:19:53.252Z</time></trkpt><trkpt lat="45.3998067" lon="5.3559517"><ele>477.33333333333337</ele><time>2026-05-01T14:19:54.251Z</time></trkpt><trkpt lat="45.3998533" lon="5.3556667"><ele>483.6666666666667</ele><time>2026-05-01T14:19:55.252Z</time></trkpt><trkpt lat="45.3998967" lon="5.35534"><ele>490.0</ele><time>2026-05-01T14:19:56.251Z</time></trkpt><trkpt lat="45.3999217" lon="5.3550683"><ele>491.6666666666667</ele><time>2026-05-01T14:19:57.252Z</time></trkpt><trkpt lat="45.399945" lon="5.3548067"><ele>493.33333333333337</ele><time>2026-05-01T14:19:58.252Z</time></trkpt><trkpt lat="45.39996" lon="5.3545517"><ele>495.0</ele><time>2026-05-01T14:19:59.251Z</time></trkpt><trkpt lat="45.3999733" lon="5.3542833"><ele>495.66666666666663</ele><time>2026-05-01T14:20:00.252Z</time></trkpt><trkpt lat="45.3999617" lon="5.354005"><ele>496.3333333333333</ele><time>2026-05-01T14:20:01.252Z</time></trkpt><trkpt lat="45.3999133" lon="5.3536717"><ele>497.0</ele><time>2026-05-01T14:20:02.252Z</time></trkpt><trkpt lat="45.3998483" lon="5.3533217"><ele>503.0</ele><time>2026-05-01T14:20:03.251Z</time></trkpt><trkpt lat="45.3997933" lon="5.3529967"><ele>509.0</ele><time>2026-05-01T14:20:04.252Z</time></trkpt><trkpt lat="45.3997317" lon="5.3526717"><ele>509.0</ele><time>2026-05-01T14:20:05.251Z</time></trkpt><trkpt lat="45.39967" lon="5.3523683"><ele>509.0</ele><time>2026-05-01T14:20:06.252Z</time></trkpt><trkpt lat="45.399615" lon="5.3520433"><ele>505.0</ele><time>2026-05-01T14:20:07.252Z</time></trkpt><trkpt lat="45.39957" lon="5.35172"><ele>501.0</ele><time>2026-05-01T14:20:08.251Z</time></trkpt><trkpt lat="45.3995017" lon="5.351435"><ele>497.0</ele><time>2026-05-01T14:20:09.252Z</time></trkpt><trkpt lat="45.3994833" lon="5.3511117"><ele>497.0</ele><time>2026-05-01T14:20:10.252Z</time></trkpt><trkpt lat="45.39952" lon="5.3507867"><ele>497.0</ele><time>2026-05-01T14:20:11.251Z</time></trkpt><trkpt lat="45.3995583" lon="5.3504683"><ele>498.0</ele><time>2026-05-01T14:20:12.252Z</time></trkpt><trkpt lat="45.399635" lon="5.3501367"><ele>499.0</ele><time>2026-05-01T14:20:13.252Z</time></trkpt><trkpt lat="45.3997433" lon="5.3498267"><ele>509.0</ele><time>2026-05-01T14:20:14.252Z</time></trkpt><trkpt lat="45.3998633" lon="5.3495267"><ele>519.0</ele><time>2026-05-01T14:20:15.251Z</time></trkpt><trkpt lat="45.4000167" lon="5.3492533"><ele>519.0</ele><time>2026-05-01T14:20:16.252Z</time></trkpt><trkpt lat="45.4001867" lon="5.3489933"><ele>519.0</ele><time>2026-05-01T14:20:17.251Z</time></trkpt><trkpt lat="45.40037" lon="5.34875"><ele>523.5</ele><time>2026-05-01T14:20:18.251Z</time></trkpt><trkpt lat="45.4005567" lon="5.3485467"><ele>528.0</ele><time>2026-05-01T14:20:19.252Z</time></trkpt><trkpt lat="45.4007783" lon="5.3483917"><ele>528.0</ele><time>2026-05-01T14:20:20.251Z</time></trkpt><trkpt lat="45.401015" lon="5.3482483"><ele>528.0</ele><time>2026-05-01T14:20:21.251Z</time></trkpt><trkpt lat="45.4012683" lon="5.3481767"><ele>524.5</ele><time>2026-05-01T14:20:22.252Z</time></trkpt><trkpt lat="45.4015117" lon="5.34812"><ele>521.0</ele><time>2026-05-01T14:20:23.252Z</time></trkpt><trkpt lat="45.401755" lon="5.3480333"><ele>521.0</ele><time>2026-05-01T14:20:24.252Z</time></trkpt><trkpt lat="45.4020017" lon="5.34798"><ele>521.0</ele><time>2026-05-01T14:20:25.252Z</time></trkpt><trkpt lat="45.4022483" lon="5.3479367"><ele>526.0</ele><time>2026-05-01T14:20:26.252Z</time></trkpt><trkpt lat="45.40249" lon="5.34787"><ele>531.0</ele><time>2026-05-01T14:20:27.251Z</time></trkpt><trkpt lat="45.4027417" lon="5.3478067"><ele>531.0</ele><time>2026-05-01T14:20:28.252Z</time></trkpt><trkpt lat="45.4029833" lon="5.34774"><ele>531.0</ele><time>2026-05-01T14:20:29.251Z</time></trkpt><trkpt lat="45.4032267" lon="5.347665"><ele>537.0</ele><time>2026-05-01T14:20:30.252Z</time></trkpt><trkpt lat="45.4034733" lon="5.3475867"><ele>543.0</ele><time>2026-05-01T14:20:31.252Z</time></trkpt><trkpt lat="45.40373" lon="5.3475117"><ele>547.0</ele><time>2026-05-01T14:20:32.252Z</time></trkpt><trkpt lat="45.4039717" lon="5.3474333"><ele>551.0</ele><time>2026-05-01T14:20:33.252Z</time></trkpt><trkpt lat="45.4042183" lon="5.3473733"><ele>551.0</ele><time>2026-05-01T14:20:34.252Z</time></trkpt><trkpt lat="45.4044683" lon="5.34733"><ele>551.0</ele><time>2026-05-01T14:20:35.252Z</time></trkpt><trkpt lat="45.4047167" lon="5.3472817"><ele>546.5</ele><time>2026-05-01T14:20:36.252Z</time></trkpt><trkpt lat="45.4049583" lon="5.3472083"><ele>542.0</ele><time>2026-05-01T14:20:37.252Z</time></trkpt><trkpt lat="45.40519" lon="5.3471083"><ele>542.0</ele><time>2026-05-01T14:20:38.252Z</time></trkpt><trkpt lat="45.405395" lon="5.3469617"><ele>542.0</ele><time>2026-05-01T14:20:39.251Z</time></trkpt><trkpt lat="45.4056167" lon="5.34685"><ele>548.0</ele><time>2026-05-01T14:20:40.252Z</time></trkpt><trkpt lat="45.405835" lon="5.34669"><ele>554.0</ele><time>2026-05-01T14:20:41.251Z</time></trkpt><trkpt lat="45.40606" lon="5.3465233"><ele>552.0</ele><time>2026-05-01T14:20:42.251Z</time></trkpt><trkpt lat="45.406275" lon="5.3463367"><ele>550.0</ele><time>2026-05-01T14:20:43.252Z</time></trkpt><trkpt lat="45.4064883" lon="5.3461167"><ele>550.0</ele><time>2026-05-01T14:20:44.252Z</time></trkpt><trkpt lat="45.4067" lon="5.345885"><ele>550.0</ele><time>2026-05-01T14:20:45.251Z</time></trkpt><trkpt lat="45.4068983" lon="5.3456917"><ele>548.0</ele><time>2026-05-01T14:20:46.252Z</time></trkpt><trkpt lat="45.4070867" lon="5.3454817"><ele>546.0</ele><time>2026-05-01T14:20:47.252Z</time></trkpt><trkpt lat="45.4072617" lon="5.3452467"><ele>550.0</ele><time>2026-05-01T14:20:48.252Z</time></trkpt><trkpt lat="45.4074283" lon="5.3450017"><ele>554.0</ele><time>2026-05-01T14:20:49.251Z</time></trkpt><trkpt lat="45.4075767" lon="5.34474"><ele>555.0</ele><time>2026-05-01T14:20:50.252Z</time></trkpt><trkpt lat="45.4077117" lon="5.344465"><ele>556.0</ele><time>2026-05-01T14:20:51.252Z</time></trkpt><trkpt lat="45.407855" lon="5.3441817"><ele>556.0</ele><time>2026-05-01T14:20:52.251Z</time></trkpt><trkpt lat="45.40799" lon="5.343905"><ele>556.0</ele><time>2026-05-01T14:20:53.251Z</time></trkpt><trkpt lat="45.4080933" lon="5.3435717"><ele>556.0</ele><time>2026-05-01T14:20:54.252Z</time></trkpt><trkpt lat="45.4082033" lon="5.3432417"><ele>556.0</ele><time>2026-05-01T14:20:55.252Z</time></trkpt><trkpt lat="45.4082867" lon="5.3428867"><ele>554.0</ele><time>2026-05-01T14:20:56.252Z</time></trkpt><trkpt lat="45.4083667" lon="5.3425083"><ele>552.0</ele><time>2026-05-01T14:20:57.251Z</time></trkpt><trkpt lat="45.4084633" lon="5.342145"><ele>551.0</ele><time>2026-05-01T14:20:58.252Z</time></trkpt><trkpt lat="45.408555" lon="5.34178"><ele>550.0</ele><time>2026-05-01T14:20:59.252Z</time></trkpt><trkpt lat="45.4086567" lon="5.34141"><ele>548.0</ele><time>2026-05-01T14:21:00.252Z</time></trkpt><trkpt lat="45.4087517" lon="5.34105"><ele>546.0</ele><time>2026-05-01T14:21:01.252Z</time></trkpt><trkpt lat="45.4088883" lon="5.3407017"><ele>536.0</ele><time>2026-05-01T14:21:02.251Z</time></trkpt><trkpt lat="45.40906" lon="5.3403583"><ele>526.0</ele><time>2026-05-01T14:21:03.251Z</time></trkpt><trkpt lat="45.4092283" lon="5.34002"><ele>530.0</ele><time>2026-05-01T14:21:04.251Z</time></trkpt><trkpt lat="45.40942" lon="5.3396967"><ele>534.0</ele><time>2026-05-01T14:21:05.251Z</time></trkpt><trkpt lat="45.4096383" lon="5.3393967"><ele>529.0</ele><time>2026-05-01T14:21:06.252Z</time></trkpt><trkpt lat="45.40986" lon="5.3391067"><ele>524.0</ele><time>2026-05-01T14:21:07.251Z</time></trkpt><trkpt lat="45.4100967" lon="5.3388583"><ele>524.0</ele><time>2026-05-01T14:21:08.252Z</time></trkpt><trkpt lat="45.4103333" lon="5.338625"><ele>524.0</ele><time>2026-05-01T14:21:09.251Z</time></trkpt><trkpt lat="45.410585" lon="5.3384"><ele>520.5</ele><time>2026-05-01T14:21:10.252Z</time></trkpt><trkpt lat="45.410855" lon="5.3381767"><ele>517.0</ele><time>2026-05-01T14:21:11.251Z</time></trkpt><trkpt lat="45.4111217" lon="5.3379867"><ele>510.5</ele><time>2026-05-01T14:21:12.251Z</time></trkpt><trkpt lat="45.4113767" lon="5.3377917"><ele>504.0</ele><time>2026-05-01T14:21:13.252Z</time></trkpt><trkpt lat="45.41163" lon="5.33761"><ele>504.0</ele><time>2026-05-01T14:21:14.252Z</time></trkpt><trkpt lat="45.4118733" lon="5.3374417"><ele>504.0</ele><time>2026-05-01T14:21:15.252Z</time></trkpt><trkpt lat="45.412095" lon="5.33729"><ele>505.5</ele><time>2026-05-01T14:21:16.252Z</time></trkpt><trkpt lat="45.41232" lon="5.337145"><ele>507.0</ele><time>2026-05-01T14:21:17.252Z</time></trkpt><trkpt lat="45.41253" lon="5.3370067"><ele>507.0</ele><time>2026-05-01T14:21:18.251Z</time></trkpt><trkpt lat="45.412735" lon="5.3368433"><ele>507.0</ele><time>2026-05-01T14:21:19.251Z</time></trkpt><trkpt lat="45.412935" lon="5.3366917"><ele>506.0</ele><time>2026-05-01T14:21:20.252Z</time></trkpt><trkpt lat="45.4131367" lon="5.3365467"><ele>505.0</ele><time>2026-05-01T14:21:21.252Z</time></trkpt><trkpt lat="45.41333" lon="5.3363967"><ele>504.0</ele><time>2026-05-01T14:21:22.251Z</time></trkpt><trkpt lat="45.413535" lon="5.3362483"><ele>504.0</ele><time>2026-05-01T14:21:23.252Z</time></trkpt><trkpt lat="45.4137383" lon="5.3360967"><ele>504.0</ele><time>2026-05-01T14:21:24.252Z</time></trkpt><trkpt lat="45.4139367" lon="5.3359533"><ele>500.0</ele><time>2026-05-01T14:21:25.251Z</time></trkpt><trkpt lat="45.4141367" lon="5.3358167"><ele>496.0</ele><time>2026-05-01T14:21:26.251Z</time></trkpt><trkpt lat="45.4143433" lon="5.3356467"><ele>495.0</ele><time>2026-05-01T14:21:27.252Z</time></trkpt><trkpt lat="45.41455" lon="5.3354467"><ele>494.0</ele><time>2026-05-01T14:21:28.252Z</time></trkpt><trkpt lat="45.4147317" lon="5.335265"><ele>494.0</ele><time>2026-05-01T14:21:29.252Z</time></trkpt><trkpt lat="45.414925" lon="5.3350667"><ele>494.0</ele><time>2026-05-01T14:21:30.252Z</time></trkpt><trkpt lat="45.4150917" lon="5.3348583"><ele>499.0</ele><time>2026-05-01T14:21:31.252Z</time></trkpt><trkpt lat="45.41526" lon="5.3346283"><ele>504.0</ele><time>2026-05-01T14:21:32.252Z</time></trkpt><trkpt lat="45.4154167" lon="5.3343867"><ele>497.0</ele><time>2026-05-01T14:21:33.252Z</time></trkpt><trkpt lat="45.4155717" lon="5.33414"><ele>490.0</ele><time>2026-05-01T14:21:34.251Z</time></trkpt><trkpt lat="45.4157283" lon="5.3338733"><ele>490.0</ele><time>2026-05-01T14:21:35.252Z</time></trkpt><trkpt lat="45.4158817" lon="5.3336267"><ele>490.0</ele><time>2026-05-01T14:21:36.252Z</time></trkpt><trkpt lat="45.41602" lon="5.3333767"><ele>490.0</ele><time>2026-05-01T14:21:37.252Z</time></trkpt><trkpt lat="45.4161567" lon="5.3331483"><ele>490.0</ele><time>2026-05-01T14:21:38.251Z</time></trkpt><trkpt lat="45.4162667" lon="5.3329433"><ele>490.0</ele><time>2026-05-01T14:21:39.252Z</time></trkpt><trkpt lat="45.4163867" lon="5.33274"><ele>489.6666666666667</ele><time>2026-05-01T14:21:40.252Z</time></trkpt><trkpt lat="45.41651" lon="5.3325317"><ele>489.33333333333337</ele><time>2026-05-01T14:21:41.251Z</time></trkpt><trkpt lat="45.41664" lon="5.3322983"><ele>489.0</ele><time>2026-05-01T14:21:42.252Z</time></trkpt><trkpt lat="45.4167617" lon="5.3320783"><ele>489.0</ele><time>2026-05-01T14:21:43.252Z</time></trkpt><trkpt lat="45.4168867" lon="5.3318583"><ele>489.0</ele><time>2026-05-01T14:21:44.252Z</time></trkpt><trkpt lat="45.4170167" lon="5.3316317"><ele>489.0</ele><time>2026-05-01T14:21:45.251Z</time></trkpt><trkpt lat="45.4171633" lon="5.3314"><ele>488.33333333333337</ele><time>2026-05-01T14:21:46.252Z</time></trkpt><trkpt lat="45.4172983" lon="5.331155"><ele>487.6666666666667</ele><time>2026-05-01T14:21:47.252Z</time></trkpt><trkpt lat="45.4174367" lon="5.3309"><ele>487.0</ele><time>2026-05-01T14:21:48.252Z</time></trkpt><trkpt lat="45.4175867" lon="5.3306383"><ele>486.5</ele><time>2026-05-01T14:21:49.252Z</time></trkpt><trkpt lat="45.4177483" lon="5.3303933"><ele>486.0</ele><time>2026-05-01T14:21:50.252Z</time></trkpt><trkpt lat="45.4179167" lon="5.33013"><ele>486.0</ele><time>2026-05-01T14:21:51.252Z</time></trkpt><trkpt lat="45.418075" lon="5.329865"><ele>486.0</ele><time>2026-05-01T14:21:52.252Z</time></trkpt><trkpt lat="45.4182433" lon="5.3295917"><ele>486.0</ele><time>2026-05-01T14:21:53.252Z</time></trkpt><trkpt lat="45.4184133" lon="5.3293117"><ele>486.0</ele><time>2026-05-01T14:21:54.252Z</time></trkpt><trkpt lat="45.4185733" lon="5.3290267"><ele>485.5</ele><time>2026-05-01T14:21:55.252Z</time></trkpt><trkpt lat="45.418745" lon="5.3287433"><ele>485.0</ele><time>2026-05-01T14:21:56.252Z</time></trkpt><trkpt lat="45.4189233" lon="5.32845"><ele>484.5</ele><time>2026-05-01T14:21:57.252Z</time></trkpt><trkpt lat="45.4191033" lon="5.3281517"><ele>484.0</ele><time>2026-05-01T14:21:58.252Z</time></trkpt><trkpt lat="45.4192733" lon="5.3278567"><ele>483.0</ele><time>2026-05-01T14:21:59.252Z</time></trkpt><trkpt lat="45.41945" lon="5.327555"><ele>482.0</ele><time>2026-05-01T14:22:00.251Z</time></trkpt><trkpt lat="45.4196283" lon="5.3272467"><ele>482.0</ele><time>2026-05-01T14:22:01.252Z</time></trkpt><trkpt lat="45.4198133" lon="5.326935"><ele>482.0</ele><time>2026-05-01T14:22:02.252Z</time></trkpt><trkpt lat="45.419995" lon="5.3266283"><ele>482.0</ele><time>2026-05-01T14:22:03.251Z</time></trkpt><trkpt lat="45.4201783" lon="5.326325"><ele>482.0</ele><time>2026-05-01T14:22:04.252Z</time></trkpt><trkpt lat="45.420355" lon="5.3260233"><ele>482.5</ele><time>2026-05-01T14:22:05.251Z</time></trkpt><trkpt lat="45.4205367" lon="5.32572"><ele>483.0</ele><time>2026-05-01T14:22:06.252Z</time></trkpt><trkpt lat="45.4207167" lon="5.3254167"><ele>483.5</ele><time>2026-05-01T14:22:07.252Z</time></trkpt><trkpt lat="45.420895" lon="5.3251167"><ele>484.0</ele><time>2026-05-01T14:22:08.252Z</time></trkpt><trkpt lat="45.42108" lon="5.32481"><ele>483.5</ele><time>2026-05-01T14:22:09.252Z</time></trkpt><trkpt lat="45.4212433" lon="5.3244817"><ele>483.0</ele><time>2026-05-01T14:22:10.252Z</time></trkpt><trkpt lat="45.4214183" lon="5.3241817"><ele>483.0</ele><time>2026-05-01T14:22:11.251Z</time></trkpt><trkpt lat="45.4215917" lon="5.3239"><ele>483.0</ele><time>2026-05-01T14:22:12.251Z</time></trkpt><trkpt lat="45.4217567" lon="5.323635"><ele>483.0</ele><time>2026-05-01T14:22:13.252Z</time></trkpt><trkpt lat="45.4219017" lon="5.32335"><ele>483.0</ele><time>2026-05-01T14:22:14.252Z</time></trkpt><trkpt lat="45.42205" lon="5.3230917"><ele>483.5</ele><time>2026-05-01T14:22:15.251Z</time></trkpt><trkpt lat="45.42221" lon="5.3228333"><ele>484.0</ele><time>2026-05-01T14:22:16.252Z</time></trkpt><trkpt lat="45.4223683" lon="5.3225833"><ele>484.0</ele><time>2026-05-01T14:22:17.252Z</time></trkpt><trkpt lat="45.42252" lon="5.3223167"><ele>484.0</ele><time>2026-05-01T14:22:18.252Z</time></trkpt><trkpt lat="45.4226783" lon="5.32204"><ele>484.5</ele><time>2026-05-01T14:22:19.251Z</time></trkpt><trkpt lat="45.42286" lon="5.321745"><ele>485.0</ele><time>2026-05-01T14:22:20.252Z</time></trkpt><trkpt lat="45.4230533" lon="5.321435"><ele>484.5</ele><time>2026-05-01T14:22:21.252Z</time></trkpt><trkpt lat="45.4232383" lon="5.32113"><ele>484.0</ele><time>2026-05-01T14:22:22.252Z</time></trkpt><trkpt lat="45.4234283" lon="5.3208183"><ele>483.5</ele><time>2026-05-01T14:22:23.251Z</time></trkpt><trkpt lat="45.42362" lon="5.3204883"><ele>483.0</ele><time>2026-05-01T14:22:24.251Z</time></trkpt><trkpt lat="45.4238083" lon="5.3201433"><ele>484.0</ele><time>2026-05-01T14:22:25.252Z</time></trkpt><trkpt lat="45.4240083" lon="5.3198183"><ele>485.0</ele><time>2026-05-01T14:22:26.252Z</time></trkpt><trkpt lat="45.4242033" lon="5.3194883"><ele>485.5</ele><time>2026-05-01T14:22:27.251Z</time></trkpt><trkpt lat="45.4244" lon="5.3191633"><ele>486.0</ele><time>2026-05-01T14:22:28.251Z</time></trkpt><trkpt lat="45.4246017" lon="5.318835"><ele>484.5</ele><time>2026-05-01T14:22:29.251Z</time></trkpt><trkpt lat="45.424785" lon="5.3185083"><ele>483.0</ele><time>2026-05-01T14:22:30.252Z</time></trkpt><trkpt lat="45.4249817" lon="5.318165"><ele>481.5</ele><time>2026-05-01T14:22:31.252Z</time></trkpt><trkpt lat="45.42517" lon="5.3178233"><ele>480.0</ele><time>2026-05-01T14:22:32.252Z</time></trkpt><trkpt lat="45.4253617" lon="5.3175"><ele>480.0</ele><time>2026-05-01T14:22:33.252Z</time></trkpt><trkpt lat="45.4255617" lon="5.3171617"><ele>480.0</ele><time>2026-05-01T14:22:34.252Z</time></trkpt><trkpt lat="45.4257583" lon="5.3168283"><ele>480.0</ele><time>2026-05-01T14:22:35.252Z</time></trkpt><trkpt lat="45.425955" lon="5.3164983"><ele>480.0</ele><time>2026-05-01T14:22:36.252Z</time></trkpt><trkpt lat="45.4261533" lon="5.3161767"><ele>480.0</ele><time>2026-05-01T14:22:37.251Z</time></trkpt><trkpt lat="45.4263483" lon="5.315845"><ele>480.0</ele><time>2026-05-01T14:22:38.252Z</time></trkpt><trkpt lat="45.4265333" lon="5.3155083"><ele>480.0</ele><time>2026-05-01T14:22:39.252Z</time></trkpt><trkpt lat="45.426725" lon="5.3151933"><ele>480.0</ele><time>2026-05-01T14:22:40.252Z</time></trkpt><trkpt lat="45.426915" lon="5.3148583"><ele>480.5</ele><time>2026-05-01T14:22:41.251Z</time></trkpt><trkpt lat="45.42711" lon="5.3145283"><ele>481.0</ele><time>2026-05-01T14:22:42.251Z</time></trkpt><trkpt lat="45.4273033" lon="5.31421"><ele>480.5</ele><time>2026-05-01T14:22:43.251Z</time></trkpt><trkpt lat="45.4275" lon="5.3138883"><ele>480.0</ele><time>2026-05-01T14:22:44.251Z</time></trkpt><trkpt lat="45.4276833" lon="5.3135617"><ele>480.0</ele><time>2026-05-01T14:22:45.25Z</time></trkpt><trkpt lat="45.4278667" lon="5.3132533"><ele>480.0</ele><time>2026-05-01T14:22:46.251Z</time></trkpt><trkpt lat="45.4280483" lon="5.3129483"><ele>481.0</ele><time>2026-05-01T14:22:47.25Z</time></trkpt><trkpt lat="45.4282383" lon="5.312655"><ele>482.0</ele><time>2026-05-01T14:22:48.25Z</time></trkpt><trkpt lat="45.4284267" lon="5.3123517"><ele>482.5</ele><time>2026-05-01T14:22:49.25Z</time></trkpt><trkpt lat="45.4286183" lon="5.312035"><ele>483.0</ele><time>2026-05-01T14:22:50.251Z</time></trkpt><trkpt lat="45.4288017" lon="5.31171"><ele>483.5</ele><time>2026-05-01T14:22:51.251Z</time></trkpt><trkpt lat="45.428995" lon="5.3113817"><ele>484.0</ele><time>2026-05-01T14:22:52.25Z</time></trkpt><trkpt lat="45.4292" lon="5.3110517"><ele>484.0</ele><time>2026-05-01T14:22:53.251Z</time></trkpt><trkpt lat="45.4293967" lon="5.310715"><ele>484.0</ele><time>2026-05-01T14:22:54.251Z</time></trkpt><trkpt lat="45.4295883" lon="5.3103917"><ele>483.0</ele><time>2026-05-01T14:22:55.251Z</time></trkpt><trkpt lat="45.429785" lon="5.3100683"><ele>482.0</ele><time>2026-05-01T14:22:56.25Z</time></trkpt><trkpt lat="45.4299817" lon="5.3097283"><ele>481.5</ele><time>2026-05-01T14:22:57.251Z</time></trkpt><trkpt lat="45.4301817" lon="5.3093767"><ele>481.0</ele><time>2026-05-01T14:22:58.251Z</time></trkpt><trkpt lat="45.43039" lon="5.309025"><ele>482.0</ele><time>2026-05-01T14:22:59.25Z</time></trkpt><trkpt lat="45.43059" lon="5.308695"><ele>483.0</ele><time>2026-05-01T14:23:00.251Z</time></trkpt><trkpt lat="45.430795" lon="5.308355"><ele>483.0</ele><time>2026-05-01T14:23:01.251Z</time></trkpt><trkpt lat="45.430995" lon="5.3080217"><ele>483.0</ele><time>2026-05-01T14:23:02.25Z</time></trkpt><trkpt lat="45.43119" lon="5.3076967"><ele>482.5</ele><time>2026-05-01T14:23:03.251Z</time></trkpt><trkpt lat="45.4313833" lon="5.3073667"><ele>482.0</ele><time>2026-05-01T14:23:04.251Z</time></trkpt><trkpt lat="45.4315683" lon="5.3070517"><ele>481.0</ele><time>2026-05-01T14:23:05.251Z</time></trkpt><trkpt lat="45.431755" lon="5.30674"><ele>480.0</ele><time>2026-05-01T14:23:06.251Z</time></trkpt><trkpt lat="45.4319317" lon="5.3064417"><ele>479.5</ele><time>2026-05-01T14:23:07.25Z</time></trkpt><trkpt lat="45.4321083" lon="5.3061367"><ele>479.0</ele><time>2026-05-01T14:23:08.251Z</time></trkpt><trkpt lat="45.4322883" lon="5.3058383"><ele>479.5</ele><time>2026-05-01T14:23:09.251Z</time></trkpt><trkpt lat="45.4324683" lon="5.3055467"><ele>480.0</ele><time>2026-05-01T14:23:10.251Z</time></trkpt><trkpt lat="45.4326533" lon="5.3052417"><ele>480.0</ele><time>2026-05-01T14:23:11.251Z</time></trkpt><trkpt lat="45.432835" lon="5.3049367"><ele>480.0</ele><time>2026-05-01T14:23:12.25Z</time></trkpt><trkpt lat="45.4330183" lon="5.3046267"><ele>480.0</ele><time>2026-05-01T14:23:13.25Z</time></trkpt><trkpt lat="45.4332017" lon="5.3043067"><ele>480.0</ele><time>2026-05-01T14:23:14.251Z</time></trkpt><trkpt lat="45.4333983" lon="5.303965"><ele>479.5</ele><time>2026-05-01T14:23:15.251Z</time></trkpt><trkpt lat="45.433595" lon="5.3036267"><ele>479.0</ele><time>2026-05-01T14:23:16.251Z</time></trkpt><trkpt lat="45.4337983" lon="5.3032817"><ele>478.5</ele><time>2026-05-01T14:23:17.25Z</time></trkpt><trkpt lat="45.4339933" lon="5.3029417"><ele>478.0</ele><time>2026-05-01T14:23:18.251Z</time></trkpt><trkpt lat="45.4341833" lon="5.3026283"><ele>478.0</ele><time>2026-05-01T14:23:19.25Z</time></trkpt><trkpt lat="45.434375" lon="5.3023083"><ele>478.0</ele><time>2026-05-01T14:23:20.251Z</time></trkpt><trkpt lat="45.43456" lon="5.30199"><ele>476.0</ele><time>2026-05-01T14:23:21.25Z</time></trkpt><trkpt lat="45.4347517" lon="5.3016767"><ele>474.0</ele><time>2026-05-01T14:23:22.251Z</time></trkpt><trkpt lat="45.434935" lon="5.3013683"><ele>474.0</ele><time>2026-05-01T14:23:23.251Z</time></trkpt><trkpt lat="45.43512" lon="5.30107"><ele>474.0</ele><time>2026-05-01T14:23:24.251Z</time></trkpt><trkpt lat="45.4353083" lon="5.3007767"><ele>474.5</ele><time>2026-05-01T14:23:25.25Z</time></trkpt><trkpt lat="45.4354967" lon="5.3004933"><ele>475.0</ele><time>2026-05-01T14:23:26.251Z</time></trkpt><trkpt lat="45.4356867" lon="5.3002167"><ele>475.0</ele><time>2026-05-01T14:23:27.251Z</time></trkpt><trkpt lat="45.435865" lon="5.2999517"><ele>475.0</ele><time>2026-05-01T14:23:28.251Z</time></trkpt><trkpt lat="45.4360383" lon="5.2996733"><ele>474.5</ele><time>2026-05-01T14:23:29.25Z</time></trkpt><trkpt lat="45.4362117" lon="5.299385"><ele>474.0</ele><time>2026-05-01T14:23:30.251Z</time></trkpt><trkpt lat="45.4363683" lon="5.2990867"><ele>475.5</ele><time>2026-05-01T14:23:31.25Z</time></trkpt><trkpt lat="45.4365383" lon="5.298795"><ele>477.0</ele><time>2026-05-01T14:23:32.25Z</time></trkpt><trkpt lat="45.4367133" lon="5.2985083"><ele>477.0</ele><time>2026-05-01T14:23:33.251Z</time></trkpt><trkpt lat="45.4368683" lon="5.2982383"><ele>477.0</ele><time>2026-05-01T14:23:34.251Z</time></trkpt><trkpt lat="45.4370317" lon="5.2979683"><ele>480.0</ele><time>2026-05-01T14:23:35.25Z</time></trkpt><trkpt lat="45.437195" lon="5.297725"><ele>483.0</ele><time>2026-05-01T14:23:36.25Z</time></trkpt><trkpt lat="45.43736" lon="5.297495"><ele>483.0</ele><time>2026-05-01T14:23:37.251Z</time></trkpt><trkpt lat="45.4375317" lon="5.29729"><ele>483.0</ele><time>2026-05-01T14:23:38.251Z</time></trkpt><trkpt lat="45.4376983" lon="5.297125"><ele>483.0</ele><time>2026-05-01T14:23:39.251Z</time></trkpt><trkpt lat="45.4378717" lon="5.2969783"><ele>481.66666666666663</ele><time>2026-05-01T14:23:40.251Z</time></trkpt><trkpt lat="45.438055" lon="5.2968483"><ele>480.3333333333333</ele><time>2026-05-01T14:23:41.251Z</time></trkpt><trkpt lat="45.4382517" lon="5.2966767"><ele>479.0</ele><time>2026-05-01T14:23:42.25Z</time></trkpt><trkpt lat="45.438465" lon="5.2965117"><ele>477.5</ele><time>2026-05-01T14:23:43.25Z</time></trkpt><trkpt lat="45.43869" lon="5.2963217"><ele>476.0</ele><time>2026-05-01T14:23:44.251Z</time></trkpt><trkpt lat="45.4389083" lon="5.2961467"><ele>476.0</ele><time>2026-05-01T14:23:45.25Z</time></trkpt><trkpt lat="45.4391283" lon="5.2959667"><ele>476.0</ele><time>2026-05-01T14:23:46.251Z</time></trkpt><trkpt lat="45.43935" lon="5.2957667"><ele>476.0</ele><time>2026-05-01T14:23:47.251Z</time></trkpt><trkpt lat="45.439565" lon="5.2955717"><ele>476.0</ele><time>2026-05-01T14:23:48.251Z</time></trkpt><trkpt lat="45.439795" lon="5.29537"><ele>476.5</ele><time>2026-05-01T14:23:49.251Z</time></trkpt><trkpt lat="45.44003" lon="5.2951717"><ele>477.0</ele><time>2026-05-01T14:23:50.251Z</time></trkpt><trkpt lat="45.44027" lon="5.2949817"><ele>477.5</ele><time>2026-05-01T14:23:51.251Z</time></trkpt><trkpt lat="45.4405133" lon="5.2947933"><ele>478.0</ele><time>2026-05-01T14:23:52.251Z</time></trkpt><trkpt lat="45.4407583" lon="5.294595"><ele>478.0</ele><time>2026-05-01T14:23:53.251Z</time></trkpt><trkpt lat="45.4409983" lon="5.2943933"><ele>478.0</ele><time>2026-05-01T14:23:54.251Z</time></trkpt><trkpt lat="45.4412467" lon="5.29418"><ele>478.5</ele><time>2026-05-01T14:23:55.25Z</time></trkpt><trkpt lat="45.4414883" lon="5.2939783"><ele>479.0</ele><time>2026-05-01T14:23:56.251Z</time></trkpt><trkpt lat="45.4417183" lon="5.2937717"><ele>479.0</ele><time>2026-05-01T14:23:57.251Z</time></trkpt><trkpt lat="45.441945" lon="5.2935817"><ele>479.0</ele><time>2026-05-01T14:23:58.251Z</time></trkpt><trkpt lat="45.4421717" lon="5.2934017"><ele>481.0</ele><time>2026-05-01T14:23:59.25Z</time></trkpt><trkpt lat="45.4423933" lon="5.2932217"><ele>483.0</ele><time>2026-05-01T14:24:00.251Z</time></trkpt><trkpt lat="45.4426117" lon="5.2930433"><ele>483.5</ele><time>2026-05-01T14:24:01.25Z</time></trkpt><trkpt lat="45.4428217" lon="5.2928667"><ele>484.0</ele><time>2026-05-01T14:24:02.25Z</time></trkpt><trkpt lat="45.4430167" lon="5.2927"><ele>485.0</ele><time>2026-05-01T14:24:03.251Z</time></trkpt><trkpt lat="45.4431917" lon="5.292545"><ele>486.0</ele><time>2026-05-01T14:24:04.251Z</time></trkpt><trkpt lat="45.4433567" lon="5.292405"><ele>487.0</ele><time>2026-05-01T14:24:05.251Z</time></trkpt><trkpt lat="45.4434983" lon="5.2922967"><ele>486.75</ele><time>2026-05-01T14:24:06.251Z</time></trkpt><trkpt lat="45.44364" lon="5.2922"><ele>486.5</ele><time>2026-05-01T14:24:07.251Z</time></trkpt><trkpt lat="45.4437717" lon="5.292095"><ele>486.25</ele><time>2026-05-01T14:24:08.251Z</time></trkpt><trkpt lat="45.4438883" lon="5.2920133"><ele>486.0</ele><time>2026-05-01T14:24:09.25Z</time></trkpt><trkpt lat="45.4440017" lon="5.2919167"><ele>486.0</ele><time>2026-05-01T14:24:10.251Z</time></trkpt><trkpt lat="45.44411" lon="5.2918083"><ele>486.0</ele><time>2026-05-01T14:24:11.251Z</time></trkpt><trkpt lat="45.4442233" lon="5.291715"><ele>486.0</ele><time>2026-05-01T14:24:12.25Z</time></trkpt><trkpt lat="45.444355" lon="5.2915917"><ele>486.0</ele><time>2026-05-01T14:24:13.251Z</time></trkpt><trkpt lat="45.4444983" lon="5.291455"><ele>486.66666666666663</ele><time>2026-05-01T14:24:14.251Z</time></trkpt><trkpt lat="45.4446517" lon="5.2913233"><ele>487.3333333333333</ele><time>2026-05-01T14:24:15.251Z</time></trkpt><trkpt lat="45.4448117" lon="5.2911867"><ele>488.0</ele><time>2026-05-01T14:24:16.25Z</time></trkpt><trkpt lat="45.4449667" lon="5.29105"><ele>488.0</ele><time>2026-05-01T14:24:17.251Z</time></trkpt><trkpt lat="45.4451167" lon="5.2909267"><ele>488.0</ele><time>2026-05-01T14:24:18.251Z</time></trkpt><trkpt lat="45.4452667" lon="5.29081"><ele>488.0</ele><time>2026-05-01T14:24:19.251Z</time></trkpt><trkpt lat="45.445415" lon="5.2907033"><ele>488.5</ele><time>2026-05-01T14:24:20.25Z</time></trkpt><trkpt lat="45.4455333" lon="5.2906033"><ele>489.0</ele><time>2026-05-01T14:24:21.25Z</time></trkpt><trkpt lat="45.44564" lon="5.290505"><ele>489.5</ele><time>2026-05-01T14:24:22.251Z</time></trkpt><trkpt lat="45.4457333" lon="5.2904167"><ele>490.0</ele><time>2026-05-01T14:24:23.251Z</time></trkpt><trkpt lat="45.4458283" lon="5.2903417"><ele>490.0</ele><time>2026-05-01T14:24:24.251Z</time></trkpt><trkpt lat="45.445925" lon="5.2902767"><ele>490.0</ele><time>2026-05-01T14:24:25.251Z</time></trkpt><trkpt lat="45.44602" lon="5.2901917"><ele>490.0</ele><time>2026-05-01T14:24:26.251Z</time></trkpt><trkpt lat="45.4461183" lon="5.290145"><ele>490.0</ele><time>2026-05-01T14:24:27.25Z</time></trkpt><trkpt lat="45.4462133" lon="5.2901117"><ele>490.0</ele><time>2026-05-01T14:24:28.251Z</time></trkpt><trkpt lat="45.4463083" lon="5.29007"><ele>490.25</ele><time>2026-05-01T14:24:29.251Z</time></trkpt><trkpt lat="45.4464083" lon="5.2900217"><ele>490.5</ele><time>2026-05-01T14:24:30.251Z</time></trkpt><trkpt lat="45.44653" lon="5.2899633"><ele>490.75</ele><time>2026-05-01T14:24:31.251Z</time></trkpt><trkpt lat="45.4466467" lon="5.28991"><ele>491.0</ele><time>2026-05-01T14:24:32.251Z</time></trkpt><trkpt lat="45.446775" lon="5.2898483"><ele>491.0</ele><time>2026-05-01T14:24:33.251Z</time></trkpt><trkpt lat="45.4469083" lon="5.2897883"><ele>491.0</ele><time>2026-05-01T14:24:34.25Z</time></trkpt><trkpt lat="45.44704" lon="5.2897317"><ele>491.0</ele><time>2026-05-01T14:24:35.251Z</time></trkpt><trkpt lat="45.4471683" lon="5.2897033"><ele>491.0</ele><time>2026-05-01T14:24:36.25Z</time></trkpt><trkpt lat="45.447305" lon="5.2896733"><ele>492.0</ele><time>2026-05-01T14:24:37.251Z</time></trkpt><trkpt lat="45.4474483" lon="5.28968"><ele>493.0</ele><time>2026-05-01T14:24:38.25Z</time></trkpt><trkpt lat="45.447595" lon="5.2896683"><ele>494.0</ele><time>2026-05-01T14:24:39.251Z</time></trkpt><trkpt lat="45.4477567" lon="5.2896783"><ele>494.0</ele><time>2026-05-01T14:24:40.251Z</time></trkpt><trkpt lat="45.4479183" lon="5.289685"><ele>494.0</ele><time>2026-05-01T14:24:41.251Z</time></trkpt><trkpt lat="45.4480617" lon="5.2896917"><ele>494.0</ele><time>2026-05-01T14:24:42.25Z</time></trkpt><trkpt lat="45.448195" lon="5.289695"><ele>494.0</ele><time>2026-05-01T14:24:43.25Z</time></trkpt><trkpt lat="45.4483283" lon="5.2897167"><ele>494.5</ele><time>2026-05-01T14:24:44.25Z</time></trkpt><trkpt lat="45.4484583" lon="5.2897283"><ele>495.0</ele><time>2026-05-01T14:24:45.25Z</time></trkpt><trkpt lat="45.4485933" lon="5.28976"><ele>495.5</ele><time>2026-05-01T14:24:46.251Z</time></trkpt><trkpt lat="45.4487367" lon="5.289775"><ele>496.0</ele><time>2026-05-01T14:24:47.251Z</time></trkpt><trkpt lat="45.4488833" lon="5.2897967"><ele>496.0</ele><time>2026-05-01T14:24:48.251Z</time></trkpt><trkpt lat="45.4490183" lon="5.2898217"><ele>496.0</ele><time>2026-05-01T14:24:49.251Z</time></trkpt><trkpt lat="45.449165" lon="5.2898467"><ele>496.0</ele><time>2026-05-01T14:24:50.251Z</time></trkpt><trkpt lat="45.4493167" lon="5.28988"><ele>496.0</ele><time>2026-05-01T14:24:51.251Z</time></trkpt><trkpt lat="45.44945" lon="5.2899333"><ele>496.0</ele><time>2026-05-01T14:24:52.251Z</time></trkpt><trkpt lat="45.4495917" lon="5.289965"><ele>496.0</ele><time>2026-05-01T14:24:53.25Z</time></trkpt><trkpt lat="45.4497483" lon="5.2899917"><ele>496.0</ele><time>2026-05-01T14:24:54.251Z</time></trkpt><trkpt lat="45.449895" lon="5.2900183"><ele>496.0</ele><time>2026-05-01T14:24:55.251Z</time></trkpt><trkpt lat="45.45005" lon="5.2900267"><ele>496.25</ele><time>2026-05-01T14:24:56.251Z</time></trkpt><trkpt lat="45.4501917" lon="5.2900367"><ele>496.5</ele><time>2026-05-01T14:24:57.25Z</time></trkpt><trkpt lat="45.4503317" lon="5.29006"><ele>496.75</ele><time>2026-05-01T14:24:58.251Z</time></trkpt><trkpt lat="45.4504717" lon="5.2901017"><ele>497.0</ele><time>2026-05-01T14:24:59.251Z</time></trkpt><trkpt lat="45.45062" lon="5.290135"><ele>497.5</ele><time>2026-05-01T14:25:00.251Z</time></trkpt><trkpt lat="45.450765" lon="5.2901633"><ele>498.0</ele><time>2026-05-01T14:25:01.25Z</time></trkpt><trkpt lat="45.4509083" lon="5.2901967"><ele>498.5</ele><time>2026-05-01T14:25:02.25Z</time></trkpt><trkpt lat="45.4510417" lon="5.29023"><ele>499.0</ele><time>2026-05-01T14:25:03.25Z</time></trkpt><trkpt lat="45.4511767" lon="5.2902533"><ele>499.5</ele><time>2026-05-01T14:25:04.25Z</time></trkpt><trkpt lat="45.4513017" lon="5.2902833"><ele>500.0</ele><time>2026-05-01T14:25:05.25Z</time></trkpt><trkpt lat="45.4514283" lon="5.2903067"><ele>500.5</ele><time>2026-05-01T14:25:06.251Z</time></trkpt><trkpt lat="45.4515467" lon="5.290325"><ele>501.0</ele><time>2026-05-01T14:25:07.25Z</time></trkpt><trkpt lat="45.4516717" lon="5.2903383"><ele>501.0</ele><time>2026-05-01T14:25:08.251Z</time></trkpt><trkpt lat="45.4518133" lon="5.2903617"><ele>501.0</ele><time>2026-05-01T14:25:09.251Z</time></trkpt><trkpt lat="45.4519483" lon="5.2903817"><ele>501.0</ele><time>2026-05-01T14:25:10.251Z</time></trkpt><trkpt lat="45.4520817" lon="5.2903967"><ele>501.0</ele><time>2026-05-01T14:25:11.251Z</time></trkpt><trkpt lat="45.4522033" lon="5.29042"><ele>501.5</ele><time>2026-05-01T14:25:12.251Z</time></trkpt><trkpt lat="45.4523" lon="5.2905017"><ele>502.0</ele><time>2026-05-01T14:25:13.251Z</time></trkpt><trkpt lat="45.452415" lon="5.2905417"><ele>502.5</ele><time>2026-05-01T14:25:14.251Z</time></trkpt><trkpt lat="45.4525433" lon="5.2905517"><ele>503.0</ele><time>2026-05-01T14:25:15.25Z</time></trkpt><trkpt lat="45.4526667" lon="5.290575"><ele>503.5</ele><time>2026-05-01T14:25:16.251Z</time></trkpt><trkpt lat="45.4527667" lon="5.290615"><ele>504.0</ele><time>2026-05-01T14:25:17.25Z</time></trkpt><trkpt lat="45.4528883" lon="5.29064"><ele>504.5</ele><time>2026-05-01T14:25:18.251Z</time></trkpt><trkpt lat="45.4530067" lon="5.2906717"><ele>505.0</ele><time>2026-05-01T14:25:19.251Z</time></trkpt><trkpt lat="45.4531317" lon="5.2906817"><ele>505.0</ele><time>2026-05-01T14:25:20.251Z</time></trkpt><trkpt lat="45.45326" lon="5.2906983"><ele>505.0</ele><time>2026-05-01T14:25:21.25Z</time></trkpt><trkpt lat="45.45339" lon="5.2907217"><ele>505.0</ele><time>2026-05-01T14:25:22.251Z</time></trkpt><trkpt lat="45.4535267" lon="5.2907567"><ele>505.0</ele><time>2026-05-01T14:25:23.251Z</time></trkpt><trkpt lat="45.4536717" lon="5.290785"><ele>505.6666666666667</ele><time>2026-05-01T14:25:24.251Z</time></trkpt><trkpt lat="45.4538217" lon="5.2908183"><ele>506.33333333333337</ele><time>2026-05-01T14:25:25.251Z</time></trkpt><trkpt lat="45.4539833" lon="5.29084"><ele>507.0</ele><time>2026-05-01T14:25:26.251Z</time></trkpt><trkpt lat="45.45415" lon="5.2908583"><ele>507.0</ele><time>2026-05-01T14:25:27.251Z</time></trkpt><trkpt lat="45.454315" lon="5.2908867"><ele>507.0</ele><time>2026-05-01T14:25:28.251Z</time></trkpt><trkpt lat="45.454465" lon="5.29095"><ele>507.0</ele><time>2026-05-01T14:25:29.251Z</time></trkpt><trkpt lat="45.45461" lon="5.2909917"><ele>507.0</ele><time>2026-05-01T14:25:30.25Z</time></trkpt><trkpt lat="45.4547633" lon="5.2910117"><ele>507.0</ele><time>2026-05-01T14:25:31.251Z</time></trkpt><trkpt lat="45.4548933" lon="5.291035"><ele>507.0</ele><time>2026-05-01T14:25:32.251Z</time></trkpt><trkpt lat="45.4550067" lon="5.2910483"><ele>507.0</ele><time>2026-05-01T14:25:33.25Z</time></trkpt><trkpt lat="45.4551233" lon="5.2910717"><ele>507.0</ele><time>2026-05-01T14:25:34.251Z</time></trkpt><trkpt lat="45.45524" lon="5.2911067"><ele>507.00000000000006</ele><time>2026-05-01T14:25:35.251Z</time></trkpt><trkpt lat="45.455355" lon="5.2911367"><ele>507.00000000000006</ele><time>2026-05-01T14:25:36.251Z</time></trkpt><trkpt lat="45.45546" lon="5.2911717"><ele>507.0</ele><time>2026-05-01T14:25:37.25Z</time></trkpt><trkpt lat="45.45555" lon="5.2912133"><ele>507.0</ele><time>2026-05-01T14:25:38.251Z</time></trkpt><trkpt lat="45.4556283" lon="5.291265"><ele>506.8</ele><time>2026-05-01T14:25:39.25Z</time></trkpt><trkpt lat="45.4556983" lon="5.2913033"><ele>506.6</ele><time>2026-05-01T14:25:40.251Z</time></trkpt><trkpt lat="45.4557733" lon="5.2913283"><ele>506.40000000000003</ele><time>2026-05-01T14:25:41.251Z</time></trkpt><trkpt lat="45.455885" lon="5.2913183"><ele>506.20000000000005</ele><time>2026-05-01T14:25:42.251Z</time></trkpt><trkpt lat="45.456005" lon="5.2913167"><ele>506.0</ele><time>2026-05-01T14:25:43.251Z</time></trkpt><trkpt lat="45.4561317" lon="5.2913283"><ele>506.0</ele><time>2026-05-01T14:25:44.251Z</time></trkpt><trkpt lat="45.4562567" lon="5.2913233"><ele>506.0</ele><time>2026-05-01T14:25:45.251Z</time></trkpt><trkpt lat="45.4564067" lon="5.29137"><ele>506.0</ele><time>2026-05-01T14:25:46.251Z</time></trkpt><trkpt lat="45.45657" lon="5.291415"><ele>506.0</ele><time>2026-05-01T14:25:47.251Z</time></trkpt><trkpt lat="45.4567467" lon="5.2914383"><ele>507.0</ele><time>2026-05-01T14:25:48.25Z</time></trkpt><trkpt lat="45.4569033" lon="5.2914817"><ele>508.0</ele><time>2026-05-01T14:25:49.251Z</time></trkpt><trkpt lat="45.4570633" lon="5.2915317"><ele>509.0</ele><time>2026-05-01T14:25:50.251Z</time></trkpt><trkpt lat="45.4572233" lon="5.2915767"><ele>509.0</ele><time>2026-05-01T14:25:51.251Z</time></trkpt><trkpt lat="45.457395" lon="5.2916133"><ele>509.0</ele><time>2026-05-01T14:25:52.251Z</time></trkpt><trkpt lat="45.45755" lon="5.2916467"><ele>509.0</ele><time>2026-05-01T14:25:53.251Z</time></trkpt><trkpt lat="45.4577067" lon="5.291685"><ele>509.0</ele><time>2026-05-01T14:25:54.251Z</time></trkpt><trkpt lat="45.4578667" lon="5.2917217"><ele>509.0</ele><time>2026-05-01T14:25:55.25Z</time></trkpt><trkpt lat="45.4580233" lon="5.2917717"><ele>509.0</ele><time>2026-05-01T14:25:56.25Z</time></trkpt><trkpt lat="45.458165" lon="5.29181"><ele>509.66666666666663</ele><time>2026-05-01T14:25:57.251Z</time></trkpt><trkpt lat="45.4583383" lon="5.2918383"><ele>510.33333333333337</ele><time>2026-05-01T14:25:58.251Z</time></trkpt><trkpt lat="45.4585167" lon="5.2918833"><ele>511.0</ele><time>2026-05-01T14:25:59.251Z</time></trkpt><trkpt lat="45.4586833" lon="5.2919217"><ele>512.0</ele><time>2026-05-01T14:26:00.251Z</time></trkpt><trkpt lat="45.4588767" lon="5.2919633"><ele>513.0</ele><time>2026-05-01T14:26:01.251Z</time></trkpt><trkpt lat="45.45907" lon="5.292"><ele>514.0</ele><time>2026-05-01T14:26:02.25Z</time></trkpt><trkpt lat="45.459255" lon="5.292075"><ele>514.0</ele><time>2026-05-01T14:26:03.25Z</time></trkpt><trkpt lat="45.4594533" lon="5.2921217"><ele>514.0</ele><time>2026-05-01T14:26:04.251Z</time></trkpt><trkpt lat="45.45966" lon="5.2921733"><ele>514.0</ele><time>2026-05-01T14:26:05.251Z</time></trkpt><trkpt lat="45.4598733" lon="5.2922283"><ele>514.0</ele><time>2026-05-01T14:26:06.25Z</time></trkpt><trkpt lat="45.4600867" lon="5.2922933"><ele>514.0</ele><time>2026-05-01T14:26:07.251Z</time></trkpt><trkpt lat="45.4603083" lon="5.2923633"><ele>514.0</ele><time>2026-05-01T14:26:08.251Z</time></trkpt><trkpt lat="45.4605483" lon="5.2924067"><ele>516.5</ele><time>2026-05-01T14:26:09.251Z</time></trkpt><trkpt lat="45.46078" lon="5.2924683"><ele>519.0</ele><time>2026-05-01T14:26:10.25Z</time></trkpt><trkpt lat="45.4610483" lon="5.29253"><ele>519.0</ele><time>2026-05-01T14:26:11.25Z</time></trkpt><trkpt lat="45.4612983" lon="5.2926133"><ele>519.0</ele><time>2026-05-01T14:26:12.251Z</time></trkpt><trkpt lat="45.46159" lon="5.292685"><ele>519.0</ele><time>2026-05-01T14:26:13.251Z</time></trkpt><trkpt lat="45.4618867" lon="5.2927467"><ele>519.0</ele><time>2026-05-01T14:26:14.251Z</time></trkpt><trkpt lat="45.4621783" lon="5.2928267"><ele>520.5</ele><time>2026-05-01T14:26:15.25Z</time></trkpt><trkpt lat="45.46247" lon="5.2929083"><ele>522.0</ele><time>2026-05-01T14:26:16.251Z</time></trkpt><trkpt lat="45.4627367" lon="5.2930183"><ele>522.0</ele><time>2026-05-01T14:26:17.25Z</time></trkpt><trkpt lat="45.4630183" lon="5.2931233"><ele>522.0</ele><time>2026-05-01T14:26:18.251Z</time></trkpt><trkpt lat="45.4633" lon="5.2932017"><ele>522.0</ele><time>2026-05-01T14:26:19.251Z</time></trkpt><trkpt lat="45.4635683" lon="5.293275"><ele>522.0</ele><time>2026-05-01T14:26:20.251Z</time></trkpt><trkpt lat="45.4638383" lon="5.2933167"><ele>524.0</ele><time>2026-05-01T14:26:21.25Z</time></trkpt><trkpt lat="45.46411" lon="5.2933467"><ele>526.0</ele><time>2026-05-01T14:26:22.251Z</time></trkpt><trkpt lat="45.4643833" lon="5.293375"><ele>528.0</ele><time>2026-05-01T14:26:23.25Z</time></trkpt><trkpt lat="45.4646633" lon="5.2933917"><ele>530.0</ele><time>2026-05-01T14:26:24.251Z</time></trkpt><trkpt lat="45.4649583" lon="5.2933667"><ele>530.0</ele><time>2026-05-01T14:26:25.251Z</time></trkpt><trkpt lat="45.4652633" lon="5.2933433"><ele>530.0</ele><time>2026-05-01T14:26:26.251Z</time></trkpt><trkpt lat="45.4655583" lon="5.2933133"><ele>528.0</ele><time>2026-05-01T14:26:27.25Z</time></trkpt><trkpt lat="45.465855" lon="5.2933133"><ele>526.0</ele><time>2026-05-01T14:26:28.251Z</time></trkpt><trkpt lat="45.466155" lon="5.2932883"><ele>526.5</ele><time>2026-05-01T14:26:29.251Z</time></trkpt><trkpt lat="45.4664533" lon="5.293275"><ele>527.0</ele><time>2026-05-01T14:26:30.25Z</time></trkpt><trkpt lat="45.4667467" lon="5.2932667"><ele>527.0</ele><time>2026-05-01T14:26:31.251Z</time></trkpt><trkpt lat="45.4670367" lon="5.2932717"><ele>527.0</ele><time>2026-05-01T14:26:32.251Z</time></trkpt><trkpt lat="45.4673167" lon="5.2932533"><ele>528.0</ele><time>2026-05-01T14:26:33.251Z</time></trkpt><trkpt lat="45.4676083" lon="5.2932367"><ele>529.0</ele><time>2026-05-01T14:26:34.251Z</time></trkpt><trkpt lat="45.4679083" lon="5.2931817"><ele>529.5</ele><time>2026-05-01T14:26:35.251Z</time></trkpt><trkpt lat="45.4682117" lon="5.2931117"><ele>530.0</ele><time>2026-05-01T14:26:36.25Z</time></trkpt><trkpt lat="45.4685033" lon="5.293115"><ele>530.5</ele><time>2026-05-01T14:26:37.251Z</time></trkpt><trkpt lat="45.4687967" lon="5.2931"><ele>531.0</ele><time>2026-05-01T14:26:38.251Z</time></trkpt><trkpt lat="45.4690867" lon="5.2930983"><ele>532.0</ele><time>2026-05-01T14:26:39.251Z</time></trkpt><trkpt lat="45.4693767" lon="5.29308"><ele>533.0</ele><time>2026-05-01T14:26:40.25Z</time></trkpt><trkpt lat="45.4696667" lon="5.293065"><ele>534.0</ele><time>2026-05-01T14:26:41.251Z</time></trkpt><trkpt lat="45.4699517" lon="5.2930583"><ele>535.0</ele><time>2026-05-01T14:26:42.251Z</time></trkpt><trkpt lat="45.4702367" lon="5.2930417"><ele>534.5</ele><time>2026-05-01T14:26:43.25Z</time></trkpt><trkpt lat="45.4705167" lon="5.2930233"><ele>534.0</ele><time>2026-05-01T14:26:44.25Z</time></trkpt><trkpt lat="45.4707933" lon="5.2930017"><ele>534.0</ele><time>2026-05-01T14:26:45.25Z</time></trkpt><trkpt lat="45.47107" lon="5.29298"><ele>534.0</ele><time>2026-05-01T14:26:46.251Z</time></trkpt><trkpt lat="45.4713533" lon="5.292975"><ele>535.5</ele><time>2026-05-01T14:26:47.251Z</time></trkpt><trkpt lat="45.4716367" lon="5.2929717"><ele>537.0</ele><time>2026-05-01T14:26:48.251Z</time></trkpt><trkpt lat="45.471915" lon="5.29295"><ele>537.5</ele><time>2026-05-01T14:26:49.251Z</time></trkpt><trkpt lat="45.47219" lon="5.2929333"><ele>538.0</ele><time>2026-05-01T14:26:50.25Z</time></trkpt><trkpt lat="45.4724617" lon="5.2929017"><ele>538.0</ele><time>2026-05-01T14:26:51.251Z</time></trkpt><trkpt lat="45.47275" lon="5.292885"><ele>538.0</ele><time>2026-05-01T14:26:52.251Z</time></trkpt><trkpt lat="45.4730417" lon="5.2928733"><ele>538.5</ele><time>2026-05-01T14:26:53.251Z</time></trkpt><trkpt lat="45.47333" lon="5.2928533"><ele>539.0</ele><time>2026-05-01T14:26:54.251Z</time></trkpt><trkpt lat="45.4736117" lon="5.2928367"><ele>540.5</ele><time>2026-05-01T14:26:55.251Z</time></trkpt><trkpt lat="45.4738883" lon="5.2928133"><ele>542.0</ele><time>2026-05-01T14:26:56.251Z</time></trkpt><trkpt lat="45.4741583" lon="5.2928017"><ele>542.0</ele><time>2026-05-01T14:26:57.251Z</time></trkpt><trkpt lat="45.474425" lon="5.29279"><ele>542.0</ele><time>2026-05-01T14:26:58.251Z</time></trkpt><trkpt lat="45.4746933" lon="5.29277"><ele>543.0</ele><time>2026-05-01T14:26:59.25Z</time></trkpt><trkpt lat="45.4749717" lon="5.2927583"><ele>544.0</ele><time>2026-05-01T14:27:00.251Z</time></trkpt><trkpt lat="45.475255" lon="5.2927433"><ele>543.5</ele><time>2026-05-01T14:27:01.251Z</time></trkpt><trkpt lat="45.475545" lon="5.2927317"><ele>543.0</ele><time>2026-05-01T14:27:02.251Z</time></trkpt><trkpt lat="45.4758433" lon="5.292725"><ele>543.0</ele><time>2026-05-01T14:27:03.251Z</time></trkpt><trkpt lat="45.4761433" lon="5.2927017"><ele>543.0</ele><time>2026-05-01T14:27:04.251Z</time></trkpt><trkpt lat="45.4764467" lon="5.2926733"><ele>544.5</ele><time>2026-05-01T14:27:05.251Z</time></trkpt><trkpt lat="45.4767517" lon="5.2926533"><ele>546.0</ele><time>2026-05-01T14:27:06.251Z</time></trkpt><trkpt lat="45.477055" lon="5.2926483"><ele>548.5</ele><time>2026-05-01T14:27:07.251Z</time></trkpt><trkpt lat="45.4773483" lon="5.2926367"><ele>551.0</ele><time>2026-05-01T14:27:08.25Z</time></trkpt><trkpt lat="45.47764" lon="5.2926267"><ele>551.0</ele><time>2026-05-01T14:27:09.251Z</time></trkpt><trkpt lat="45.4779267" lon="5.292615"><ele>551.0</ele><time>2026-05-01T14:27:10.251Z</time></trkpt><trkpt lat="45.4782233" lon="5.2925867"><ele>552.0</ele><time>2026-05-01T14:27:11.251Z</time></trkpt><trkpt lat="45.478525" lon="5.292565"><ele>553.0</ele><time>2026-05-01T14:27:12.251Z</time></trkpt><trkpt lat="45.4788167" lon="5.2925383"><ele>555.5</ele><time>2026-05-01T14:27:13.251Z</time></trkpt><trkpt lat="45.4791067" lon="5.2925033"><ele>558.0</ele><time>2026-05-01T14:27:14.25Z</time></trkpt><trkpt lat="45.4793867" lon="5.29245"><ele>560.5</ele><time>2026-05-01T14:27:15.251Z</time></trkpt><trkpt lat="45.4796767" lon="5.2923883"><ele>563.0</ele><time>2026-05-01T14:27:16.251Z</time></trkpt><trkpt lat="45.4799567" lon="5.2923367"><ele>563.0</ele><time>2026-05-01T14:27:17.251Z</time></trkpt><trkpt lat="45.480215" lon="5.29227"><ele>563.0</ele><time>2026-05-01T14:27:18.25Z</time></trkpt><trkpt lat="45.48048" lon="5.29217"><ele>565.5</ele><time>2026-05-01T14:27:19.251Z</time></trkpt><trkpt lat="45.4807383" lon="5.2920783"><ele>568.0</ele><time>2026-05-01T14:27:20.25Z</time></trkpt><trkpt lat="45.4809817" lon="5.2919733"><ele>568.0</ele><time>2026-05-01T14:27:21.251Z</time></trkpt><trkpt lat="45.4812217" lon="5.291895"><ele>568.0</ele><time>2026-05-01T14:27:22.25Z</time></trkpt><trkpt lat="45.4814533" lon="5.2918167"><ele>567.0</ele><time>2026-05-01T14:27:23.251Z</time></trkpt><trkpt lat="45.481685" lon="5.29176"><ele>566.0</ele><time>2026-05-01T14:27:24.25Z</time></trkpt><trkpt lat="45.48192" lon="5.291785"><ele>566.5</ele><time>2026-05-01T14:27:25.251Z</time></trkpt><trkpt lat="45.4821417" lon="5.29187"><ele>567.0</ele><time>2026-05-01T14:27:26.251Z</time></trkpt><trkpt lat="45.482365" lon="5.2919533"><ele>567.0</ele><time>2026-05-01T14:27:27.251Z</time></trkpt><trkpt lat="45.48259" lon="5.2920367"><ele>567.0</ele><time>2026-05-01T14:27:28.25Z</time></trkpt><trkpt lat="45.482785" lon="5.2921567"><ele>567.0</ele><time>2026-05-01T14:27:29.251Z</time></trkpt><trkpt lat="45.482975" lon="5.2922883"><ele>566.3333333333334</ele><time>2026-05-01T14:27:30.251Z</time></trkpt><trkpt lat="45.4831783" lon="5.29241"><ele>565.6666666666667</ele><time>2026-05-01T14:27:31.251Z</time></trkpt><trkpt lat="45.483385" lon="5.2925183"><ele>565.0</ele><time>2026-05-01T14:27:32.251Z</time></trkpt><trkpt lat="45.4836" lon="5.2926033"><ele>565.5</ele><time>2026-05-01T14:27:33.25Z</time></trkpt><trkpt lat="45.4838333" lon="5.29269"><ele>566.0</ele><time>2026-05-01T14:27:34.251Z</time></trkpt><trkpt lat="45.4840717" lon="5.2927817"><ele>566.0</ele><time>2026-05-01T14:27:35.251Z</time></trkpt><trkpt lat="45.48434" lon="5.2928967"><ele>566.0</ele><time>2026-05-01T14:27:36.25Z</time></trkpt><trkpt lat="45.4845933" lon="5.2930467"><ele>561.0</ele><time>2026-05-01T14:27:37.25Z</time></trkpt><trkpt lat="45.48486" lon="5.29318"><ele>556.0</ele><time>2026-05-01T14:27:38.25Z</time></trkpt><trkpt lat="45.48512" lon="5.2933167"><ele>556.0</ele><time>2026-05-01T14:27:39.251Z</time></trkpt><trkpt lat="45.4853733" lon="5.293445"><ele>556.0</ele><time>2026-05-01T14:27:40.251Z</time></trkpt><trkpt lat="45.485615" lon="5.293565"><ele>555.0</ele><time>2026-05-01T14:27:41.25Z</time></trkpt><trkpt lat="45.4858517" lon="5.2936767"><ele>554.0</ele><time>2026-05-01T14:27:42.25Z</time></trkpt><trkpt lat="45.486095" lon="5.2937467"><ele>555.0</ele><time>2026-05-01T14:27:43.251Z</time></trkpt><trkpt lat="45.4863233" lon="5.293845"><ele>556.0</ele><time>2026-05-01T14:27:44.251Z</time></trkpt><trkpt lat="45.4865567" lon="5.2939533"><ele>552.5</ele><time>2026-05-01T14:27:45.251Z</time></trkpt><trkpt lat="45.4867833" lon="5.2940533"><ele>549.0</ele><time>2026-05-01T14:27:46.25Z</time></trkpt><trkpt lat="45.4870167" lon="5.294155"><ele>549.0</ele><time>2026-05-01T14:27:47.251Z</time></trkpt><trkpt lat="45.4872467" lon="5.29427"><ele>549.0</ele><time>2026-05-01T14:27:48.251Z</time></trkpt><trkpt lat="45.4874833" lon="5.2943917"><ele>549.0</ele><time>2026-05-01T14:27:49.25Z</time></trkpt><trkpt lat="45.48772" lon="5.2944933"><ele>549.0</ele><time>2026-05-01T14:27:50.251Z</time></trkpt><trkpt lat="45.4879667" lon="5.2946"><ele>550.5</ele><time>2026-05-01T14:27:51.251Z</time></trkpt><trkpt lat="45.4882183" lon="5.294705"><ele>552.0</ele><time>2026-05-01T14:27:52.251Z</time></trkpt><trkpt lat="45.488495" lon="5.2948267"><ele>548.0</ele><time>2026-05-01T14:27:53.251Z</time></trkpt><trkpt lat="45.48877" lon="5.29495"><ele>544.0</ele><time>2026-05-01T14:27:54.25Z</time></trkpt><trkpt lat="45.4890433" lon="5.29508"><ele>544.0</ele><time>2026-05-01T14:27:55.251Z</time></trkpt><trkpt lat="45.48931" lon="5.2952133"><ele>544.0</ele><time>2026-05-01T14:27:56.251Z</time></trkpt><trkpt lat="45.4895833" lon="5.2953367"><ele>543.5</ele><time>2026-05-01T14:27:57.251Z</time></trkpt><trkpt lat="45.4898583" lon="5.2954533"><ele>543.0</ele><time>2026-05-01T14:27:58.251Z</time></trkpt><trkpt lat="45.4901267" lon="5.2955617"><ele>542.5</ele><time>2026-05-01T14:27:59.251Z</time></trkpt><trkpt lat="45.4903867" lon="5.295675"><ele>542.0</ele><time>2026-05-01T14:28:00.251Z</time></trkpt><trkpt lat="45.4906433" lon="5.2957917"><ele>543.5</ele><time>2026-05-01T14:28:01.25Z</time></trkpt><trkpt lat="45.4909033" lon="5.2958983"><ele>545.0</ele><time>2026-05-01T14:28:02.251Z</time></trkpt><trkpt lat="45.4911517" lon="5.2959967"><ele>545.5</ele><time>2026-05-01T14:28:03.251Z</time></trkpt><trkpt lat="45.4913933" lon="5.29612"><ele>546.0</ele><time>2026-05-01T14:28:04.251Z</time></trkpt><trkpt lat="45.4916217" lon="5.296265"><ele>546.0</ele><time>2026-05-01T14:28:05.251Z</time></trkpt><trkpt lat="45.49184" lon="5.2964467"><ele>546.0</ele><time>2026-05-01T14:28:06.25Z</time></trkpt><trkpt lat="45.49206" lon="5.29665"><ele>545.5</ele><time>2026-05-01T14:28:07.251Z</time></trkpt><trkpt lat="45.4922933" lon="5.2968633"><ele>545.0</ele><time>2026-05-01T14:28:08.251Z</time></trkpt><trkpt lat="45.4925233" lon="5.297085"><ele>543.0</ele><time>2026-05-01T14:28:09.251Z</time></trkpt><trkpt lat="45.4927433" lon="5.2973383"><ele>541.0</ele><time>2026-05-01T14:28:10.251Z</time></trkpt><trkpt lat="45.4929517" lon="5.2975667"><ele>538.5</ele><time>2026-05-01T14:28:11.251Z</time></trkpt><trkpt lat="45.4931467" lon="5.2978067"><ele>536.0</ele><time>2026-05-01T14:28:12.251Z</time></trkpt><trkpt lat="45.4933417" lon="5.2980367"><ele>534.5</ele><time>2026-05-01T14:28:13.251Z</time></trkpt><trkpt lat="45.49353" lon="5.2982533"><ele>533.0</ele><time>2026-05-01T14:28:14.251Z</time></trkpt><trkpt lat="45.4937067" lon="5.2984567"><ele>532.5</ele><time>2026-05-01T14:28:15.251Z</time></trkpt><trkpt lat="45.4938817" lon="5.2986733"><ele>532.0</ele><time>2026-05-01T14:28:16.251Z</time></trkpt><trkpt lat="45.4940783" lon="5.2988717"><ele>531.0</ele><time>2026-05-01T14:28:17.251Z</time></trkpt><trkpt lat="45.494285" lon="5.299065"><ele>530.0</ele><time>2026-05-01T14:28:18.251Z</time></trkpt><trkpt lat="45.49452" lon="5.2992533"><ele>525.0</ele><time>2026-05-01T14:28:19.251Z</time></trkpt><trkpt lat="45.49476" lon="5.2994233"><ele>520.0</ele><time>2026-05-01T14:28:20.251Z</time></trkpt><trkpt lat="45.4949933" lon="5.29956"><ele>520.0</ele><time>2026-05-01T14:28:21.251Z</time></trkpt><trkpt lat="45.495235" lon="5.2996683"><ele>520.0</ele><time>2026-05-01T14:28:22.251Z</time></trkpt><trkpt lat="45.4954567" lon="5.2997883"><ele>518.3333333333334</ele><time>2026-05-01T14:28:23.25Z</time></trkpt><trkpt lat="45.4956833" lon="5.2998767"><ele>516.6666666666666</ele><time>2026-05-01T14:28:24.251Z</time></trkpt><trkpt lat="45.4958917" lon="5.2999417"><ele>515.0</ele><time>2026-05-01T14:28:25.251Z</time></trkpt><trkpt lat="45.4961017" lon="5.3000183"><ele>515.0</ele><time>2026-05-01T14:28:26.251Z</time></trkpt><trkpt lat="45.49629" lon="5.3000983"><ele>515.0</ele><time>2026-05-01T14:28:27.25Z</time></trkpt><trkpt lat="45.4964817" lon="5.3001783"><ele>515.0</ele><time>2026-05-01T14:28:28.251Z</time></trkpt><trkpt lat="45.49666" lon="5.300235"><ele>515.0</ele><time>2026-05-01T14:28:29.251Z</time></trkpt><trkpt lat="45.4968383" lon="5.3002967"><ele>515.0</ele><time>2026-05-01T14:28:30.25Z</time></trkpt><trkpt lat="45.4969983" lon="5.30036"><ele>515.0</ele><time>2026-05-01T14:28:31.25Z</time></trkpt><trkpt lat="45.4971467" lon="5.3004233"><ele>515.5</ele><time>2026-05-01T14:28:32.251Z</time></trkpt><trkpt lat="45.4972767" lon="5.3004767"><ele>516.0</ele><time>2026-05-01T14:28:33.251Z</time></trkpt><trkpt lat="45.4974067" lon="5.30052"><ele>516.5</ele><time>2026-05-01T14:28:34.251Z</time></trkpt><trkpt lat="45.4975483" lon="5.3005483"><ele>517.0</ele><time>2026-05-01T14:28:35.251Z</time></trkpt><trkpt lat="45.497675" lon="5.3005833"><ele>517.4</ele><time>2026-05-01T14:28:36.25Z</time></trkpt><trkpt lat="45.4978033" lon="5.3006083"><ele>517.8000000000001</ele><time>2026-05-01T14:28:37.25Z</time></trkpt><trkpt lat="45.497915" lon="5.3006467"><ele>518.2</ele><time>2026-05-01T14:28:38.251Z</time></trkpt><trkpt lat="45.4980183" lon="5.3006767"><ele>518.6</ele><time>2026-05-01T14:28:39.251Z</time></trkpt><trkpt lat="45.4981067" lon="5.300725"><ele>519.0</ele><time>2026-05-01T14:28:40.25Z</time></trkpt><trkpt lat="45.49819" lon="5.30078"><ele>519.0</ele><time>2026-05-01T14:28:41.25Z</time></trkpt><trkpt lat="45.49825" lon="5.3008333"><ele>519.0</ele><time>2026-05-01T14:28:42.25Z</time></trkpt><trkpt lat="45.4983117" lon="5.30086"><ele>519.0</ele><time>2026-05-01T14:28:43.251Z</time></trkpt><trkpt lat="45.4984033" lon="5.3009"><ele>519.0</ele><time>2026-05-01T14:28:45.25Z</time></trkpt><trkpt lat="45.4984683" lon="5.3009467"><ele>519.0</ele><time>2026-05-01T14:28:48.25Z</time></trkpt><trkpt lat="45.49858" lon="5.3010117"><ele>519.0</ele><time>2026-05-01T14:29:27.251Z</time></trkpt><trkpt lat="45.49867" lon="5.3010517"><ele>517.75</ele><time>2026-05-01T14:29:28.251Z</time></trkpt><trkpt lat="45.4987717" lon="5.30109"><ele>516.5</ele><time>2026-05-01T14:29:29.251Z</time></trkpt><trkpt lat="45.4988983" lon="5.30113"><ele>515.25</ele><time>2026-05-01T14:29:30.251Z</time></trkpt><trkpt lat="45.4990283" lon="5.3011783"><ele>514.0</ele><time>2026-05-01T14:29:31.25Z</time></trkpt><trkpt lat="45.499175" lon="5.30124"><ele>514.0</ele><time>2026-05-01T14:29:32.251Z</time></trkpt><trkpt lat="45.499345" lon="5.3012783"><ele>514.0</ele><time>2026-05-01T14:29:33.251Z</time></trkpt><trkpt lat="45.4995" lon="5.30134"><ele>514.0</ele><time>2026-05-01T14:29:34.251Z</time></trkpt><trkpt lat="45.499665" lon="5.301385"><ele>513.6666666666667</ele><time>2026-05-01T14:29:35.251Z</time></trkpt><trkpt lat="45.4998367" lon="5.30143"><ele>513.3333333333334</ele><time>2026-05-01T14:29:36.25Z</time></trkpt><trkpt lat="45.5000067" lon="5.30149"><ele>513.0</ele><time>2026-05-01T14:29:37.25Z</time></trkpt><trkpt lat="45.5001683" lon="5.30155"><ele>513.0</ele><time>2026-05-01T14:29:38.251Z</time></trkpt><trkpt lat="45.5003333" lon="5.3016217"><ele>513.0</ele><time>2026-05-01T14:29:39.251Z</time></trkpt><trkpt lat="45.5005" lon="5.30171"><ele>513.0</ele><time>2026-05-01T14:29:40.251Z</time></trkpt><trkpt lat="45.50065" lon="5.30177"><ele>514.0</ele><time>2026-05-01T14:29:41.25Z</time></trkpt><trkpt lat="45.5008033" lon="5.3018067"><ele>515.0</ele><time>2026-05-01T14:29:42.251Z</time></trkpt><trkpt lat="45.5009283" lon="5.3018733"><ele>516.0</ele><time>2026-05-01T14:29:43.25Z</time></trkpt><trkpt lat="45.5010533" lon="5.3019267"><ele>517.0</ele><time>2026-05-01T14:29:44.251Z</time></trkpt><trkpt lat="45.5011683" lon="5.301985"><ele>518.5</ele><time>2026-05-01T14:29:45.251Z</time></trkpt><trkpt lat="45.501295" lon="5.30204"><ele>520.0</ele><time>2026-05-01T14:29:46.251Z</time></trkpt><trkpt lat="45.5014233" lon="5.30209"><ele>521.5</ele><time>2026-05-01T14:29:47.251Z</time></trkpt><trkpt lat="45.5015417" lon="5.3021533"><ele>523.0</ele><time>2026-05-01T14:29:48.251Z</time></trkpt><trkpt lat="45.5016517" lon="5.3022317"><ele>523.75</ele><time>2026-05-01T14:29:49.25Z</time></trkpt><trkpt lat="45.5017367" lon="5.3023"><ele>524.5</ele><time>2026-05-01T14:29:50.251Z</time></trkpt><trkpt lat="45.5018533" lon="5.30232"><ele>525.25</ele><time>2026-05-01T14:29:51.251Z</time></trkpt><trkpt lat="45.501965" lon="5.3023567"><ele>526.0</ele><time>2026-05-01T14:29:52.25Z</time></trkpt><trkpt lat="45.5020867" lon="5.3024017"><ele>526.0</ele><time>2026-05-01T14:29:53.251Z</time></trkpt><trkpt lat="45.5022233" lon="5.302445"><ele>526.0</ele><time>2026-05-01T14:29:54.251Z</time></trkpt><trkpt lat="45.5023717" lon="5.3024867"><ele>526.0</ele><time>2026-05-01T14:29:55.251Z</time></trkpt><trkpt lat="45.5025233" lon="5.302505"><ele>526.0</ele><time>2026-05-01T14:29:56.251Z</time></trkpt><trkpt lat="45.5026783" lon="5.3025267"><ele>526.0</ele><time>2026-05-01T14:29:57.251Z</time></trkpt><trkpt lat="45.50284" lon="5.30254"><ele>526.0</ele><time>2026-05-01T14:29:58.25Z</time></trkpt><trkpt lat="45.5030067" lon="5.30252"><ele>526.0</ele><time>2026-05-01T14:29:59.251Z</time></trkpt><trkpt lat="45.5031933" lon="5.302495"><ele>527.3333333333334</ele><time>2026-05-01T14:30:00.251Z</time></trkpt><trkpt lat="45.50335" lon="5.3025217"><ele>528.6666666666666</ele><time>2026-05-01T14:30:01.25Z</time></trkpt><trkpt lat="45.5035083" lon="5.3025467"><ele>530.0</ele><time>2026-05-01T14:30:02.251Z</time></trkpt><trkpt lat="45.5036667" lon="5.302575"><ele>531.0</ele><time>2026-05-01T14:30:03.251Z</time></trkpt><trkpt lat="45.503815" lon="5.302605"><ele>532.0</ele><time>2026-05-01T14:30:04.251Z</time></trkpt><trkpt lat="45.5039517" lon="5.3026167"><ele>533.0</ele><time>2026-05-01T14:30:05.25Z</time></trkpt><trkpt lat="45.50408" lon="5.3026283"><ele>534.0</ele><time>2026-05-01T14:30:06.25Z</time></trkpt><trkpt lat="45.5041917" lon="5.30264"><ele>534.0</ele><time>2026-05-01T14:30:07.25Z</time></trkpt><trkpt lat="45.5042983" lon="5.3026217"><ele>534.0</ele><time>2026-05-01T14:30:08.251Z</time></trkpt><trkpt lat="45.504415" lon="5.3026017"><ele>534.0</ele><time>2026-05-01T14:30:09.251Z</time></trkpt><trkpt lat="45.5045167" lon="5.3026233"><ele>534.0</ele><time>2026-05-01T14:30:10.25Z</time></trkpt><trkpt lat="45.504625" lon="5.302655"><ele>534.0</ele><time>2026-05-01T14:30:11.251Z</time></trkpt><trkpt lat="45.5047483" lon="5.3026967"><ele>535.0</ele><time>2026-05-01T14:30:12.25Z</time></trkpt><trkpt lat="45.5049017" lon="5.3027317"><ele>536.0</ele><time>2026-05-01T14:30:13.251Z</time></trkpt><trkpt lat="45.5050733" lon="5.302755"><ele>537.0</ele><time>2026-05-01T14:30:14.25Z</time></trkpt><trkpt lat="45.5052717" lon="5.3027467"><ele>537.6666666666666</ele><time>2026-05-01T14:30:15.251Z</time></trkpt><trkpt lat="45.505465" lon="5.30278"><ele>538.3333333333333</ele><time>2026-05-01T14:30:16.251Z</time></trkpt><trkpt lat="45.5056767" lon="5.3028017"><ele>539.0</ele><time>2026-05-01T14:30:17.251Z</time></trkpt><trkpt lat="45.5058833" lon="5.3028183"><ele>539.0</ele><time>2026-05-01T14:30:18.25Z</time></trkpt><trkpt lat="45.5060867" lon="5.3028333"><ele>539.0</ele><time>2026-05-01T14:30:19.25Z</time></trkpt><trkpt lat="45.506295" lon="5.3028533"><ele>539.0</ele><time>2026-05-01T14:30:20.251Z</time></trkpt><trkpt lat="45.5065017" lon="5.30287"><ele>538.6666666666666</ele><time>2026-05-01T14:30:21.25Z</time></trkpt><trkpt lat="45.506705" lon="5.3029117"><ele>538.3333333333334</ele><time>2026-05-01T14:30:22.251Z</time></trkpt><trkpt lat="45.50692" lon="5.302945"><ele>538.0</ele><time>2026-05-01T14:30:23.25Z</time></trkpt><trkpt lat="45.5071283" lon="5.3029783"><ele>538.0</ele><time>2026-05-01T14:30:24.251Z</time></trkpt><trkpt lat="45.50734" lon="5.3030183"><ele>538.0</ele><time>2026-05-01T14:30:25.251Z</time></trkpt><trkpt lat="45.5075417" lon="5.3030317"><ele>538.0</ele><time>2026-05-01T14:30:26.251Z</time></trkpt><trkpt lat="45.5077283" lon="5.3030633"><ele>537.6666666666667</ele><time>2026-05-01T14:30:27.251Z</time></trkpt><trkpt lat="45.507915" lon="5.3030867"><ele>537.3333333333334</ele><time>2026-05-01T14:30:28.251Z</time></trkpt><trkpt lat="45.5080767" lon="5.3031133"><ele>537.0</ele><time>2026-05-01T14:30:29.25Z</time></trkpt><trkpt lat="45.508225" lon="5.30314"><ele>537.0</ele><time>2026-05-01T14:30:30.251Z</time></trkpt><trkpt lat="45.5083767" lon="5.3031517"><ele>537.0</ele><time>2026-05-01T14:30:31.25Z</time></trkpt><trkpt lat="45.5085233" lon="5.3031817"><ele>537.0</ele><time>2026-05-01T14:30:32.25Z</time></trkpt><trkpt lat="45.5086483" lon="5.3032417"><ele>537.0</ele><time>2026-05-01T14:30:33.251Z</time></trkpt><trkpt lat="45.5087833" lon="5.30327"><ele>536.0</ele><time>2026-05-01T14:30:34.25Z</time></trkpt><trkpt lat="45.5089433" lon="5.303265"><ele>535.0</ele><time>2026-05-01T14:30:35.251Z</time></trkpt><trkpt lat="45.5091233" lon="5.3032383"><ele>534.0</ele><time>2026-05-01T14:30:36.251Z</time></trkpt><trkpt lat="45.50931" lon="5.30322"><ele>534.0</ele><time>2026-05-01T14:30:37.251Z</time></trkpt><trkpt lat="45.5094917" lon="5.3032233"><ele>534.0</ele><time>2026-05-01T14:30:38.251Z</time></trkpt><trkpt lat="45.5096733" lon="5.303255"><ele>534.0</ele><time>2026-05-01T14:30:39.251Z</time></trkpt><trkpt lat="45.5098683" lon="5.303285"><ele>533.0</ele><time>2026-05-01T14:30:40.251Z</time></trkpt><trkpt lat="45.5100617" lon="5.303335"><ele>532.0</ele><time>2026-05-01T14:30:41.251Z</time></trkpt><trkpt lat="45.5102617" lon="5.3033483"><ele>531.0</ele><time>2026-05-01T14:30:42.251Z</time></trkpt><trkpt lat="45.5104717" lon="5.3033567"><ele>530.6666666666666</ele><time>2026-05-01T14:30:43.251Z</time></trkpt><trkpt lat="45.51068" lon="5.3033833"><ele>530.3333333333333</ele><time>2026-05-01T14:30:44.251Z</time></trkpt><trkpt lat="45.5108983" lon="5.3034133"><ele>530.0</ele><time>2026-05-01T14:30:45.25Z</time></trkpt><trkpt lat="45.511125" lon="5.3034233"><ele>528.0</ele><time>2026-05-01T14:30:46.25Z</time></trkpt><trkpt lat="45.511355" lon="5.3034367"><ele>526.0</ele><time>2026-05-01T14:30:47.25Z</time></trkpt><trkpt lat="45.5115883" lon="5.303465"><ele>526.0</ele><time>2026-05-01T14:30:48.25Z</time></trkpt><trkpt lat="45.51182" lon="5.3034917"><ele>526.0</ele><time>2026-05-01T14:30:49.249Z</time></trkpt><trkpt lat="45.5120617" lon="5.30352"><ele>522.5</ele><time>2026-05-01T14:30:50.25Z</time></trkpt><trkpt lat="45.5122917" lon="5.303545"><ele>519.0</ele><time>2026-05-01T14:30:51.249Z</time></trkpt><trkpt lat="45.512525" lon="5.3035667"><ele>519.0</ele><time>2026-05-01T14:30:52.25Z</time></trkpt><trkpt lat="45.5127617" lon="5.30359"><ele>519.0</ele><time>2026-05-01T14:30:53.25Z</time></trkpt><trkpt lat="45.513" lon="5.3036367"><ele>517.0</ele><time>2026-05-01T14:30:54.25Z</time></trkpt><trkpt lat="45.5132283" lon="5.3037083"><ele>515.0</ele><time>2026-05-01T14:30:55.25Z</time></trkpt><trkpt lat="45.5134733" lon="5.3037917"><ele>515.0</ele><time>2026-05-01T14:30:56.249Z</time></trkpt><trkpt lat="45.513725" lon="5.3039017"><ele>515.0</ele><time>2026-05-01T14:30:57.25Z</time></trkpt><trkpt lat="45.5139833" lon="5.3040067"><ele>516.0</ele><time>2026-05-01T14:30:58.25Z</time></trkpt><trkpt lat="45.514245" lon="5.3041217"><ele>517.0</ele><time>2026-05-01T14:30:59.25Z</time></trkpt><trkpt lat="45.514495" lon="5.3042733"><ele>511.5</ele><time>2026-05-01T14:31:00.249Z</time></trkpt><trkpt lat="45.5147367" lon="5.304445"><ele>506.0</ele><time>2026-05-01T14:31:01.25Z</time></trkpt><trkpt lat="45.5149583" lon="5.304635"><ele>508.5</ele><time>2026-05-01T14:31:02.249Z</time></trkpt><trkpt lat="45.515185" lon="5.304815"><ele>511.0</ele><time>2026-05-01T14:31:03.249Z</time></trkpt><trkpt lat="45.5154017" lon="5.3050133"><ele>504.5</ele><time>2026-05-01T14:31:04.249Z</time></trkpt><trkpt lat="45.5156133" lon="5.3052033"><ele>498.0</ele><time>2026-05-01T14:31:05.25Z</time></trkpt><trkpt lat="45.5158217" lon="5.30537"><ele>498.0</ele><time>2026-05-01T14:31:06.249Z</time></trkpt><trkpt lat="45.5160383" lon="5.3055167"><ele>498.0</ele><time>2026-05-01T14:31:07.25Z</time></trkpt><trkpt lat="45.5162567" lon="5.305635"><ele>496.0</ele><time>2026-05-01T14:31:08.25Z</time></trkpt><trkpt lat="45.5164733" lon="5.3057167"><ele>494.0</ele><time>2026-05-01T14:31:09.25Z</time></trkpt><trkpt lat="45.5166967" lon="5.30577"><ele>494.0</ele><time>2026-05-01T14:31:10.25Z</time></trkpt><trkpt lat="45.5169217" lon="5.3058"><ele>494.0</ele><time>2026-05-01T14:31:11.25Z</time></trkpt><trkpt lat="45.51717" lon="5.30579"><ele>491.0</ele><time>2026-05-01T14:31:12.25Z</time></trkpt><trkpt lat="45.5174383" lon="5.3057517"><ele>488.0</ele><time>2026-05-01T14:31:13.249Z</time></trkpt><trkpt lat="45.5176733" lon="5.3057033"><ele>486.0</ele><time>2026-05-01T14:31:14.25Z</time></trkpt><trkpt lat="45.5179117" lon="5.3055933"><ele>484.0</ele><time>2026-05-01T14:31:15.25Z</time></trkpt><trkpt lat="45.5181383" lon="5.3054967"><ele>481.0</ele><time>2026-05-01T14:31:16.25Z</time></trkpt><trkpt lat="45.5183567" lon="5.305375"><ele>478.0</ele><time>2026-05-01T14:31:17.25Z</time></trkpt><trkpt lat="45.518575" lon="5.3051967"><ele>475.0</ele><time>2026-05-01T14:31:18.25Z</time></trkpt><trkpt lat="45.5188067" lon="5.305005"><ele>472.0</ele><time>2026-05-01T14:31:19.25Z</time></trkpt><trkpt lat="45.5190433" lon="5.3048"><ele>471.0</ele><time>2026-05-01T14:31:20.25Z</time></trkpt><trkpt lat="45.51927" lon="5.304585"><ele>470.0</ele><time>2026-05-01T14:31:21.25Z</time></trkpt><trkpt lat="45.51948" lon="5.3043617"><ele>468.5</ele><time>2026-05-01T14:31:22.25Z</time></trkpt><trkpt lat="45.5196767" lon="5.3041667"><ele>467.0</ele><time>2026-05-01T14:31:23.249Z</time></trkpt><trkpt lat="45.5198733" lon="5.3039817"><ele>467.3333333333333</ele><time>2026-05-01T14:31:24.249Z</time></trkpt><trkpt lat="45.520075" lon="5.30384"><ele>467.66666666666663</ele><time>2026-05-01T14:31:25.25Z</time></trkpt><trkpt lat="45.5202733" lon="5.30373"><ele>468.0</ele><time>2026-05-01T14:31:26.25Z</time></trkpt><trkpt lat="45.5205017" lon="5.3036383"><ele>466.0</ele><time>2026-05-01T14:31:27.25Z</time></trkpt><trkpt lat="45.5207483" lon="5.3035833"><ele>464.0</ele><time>2026-05-01T14:31:28.25Z</time></trkpt><trkpt lat="45.5210033" lon="5.3035433"><ele>461.0</ele><time>2026-05-01T14:31:29.25Z</time></trkpt><trkpt lat="45.5212467" lon="5.303535"><ele>458.0</ele><time>2026-05-01T14:31:30.249Z</time></trkpt><trkpt lat="45.52149" lon="5.30352"><ele>458.0</ele><time>2026-05-01T14:31:31.25Z</time></trkpt><trkpt lat="45.521745" lon="5.3035517"><ele>458.0</ele><time>2026-05-01T14:31:32.25Z</time></trkpt><trkpt lat="45.5219967" lon="5.3035867"><ele>457.5</ele><time>2026-05-01T14:31:33.25Z</time></trkpt><trkpt lat="45.5222617" lon="5.3036333"><ele>457.0</ele><time>2026-05-01T14:31:34.25Z</time></trkpt><trkpt lat="45.5225217" lon="5.303695"><ele>457.0</ele><time>2026-05-01T14:31:35.25Z</time></trkpt><trkpt lat="45.5227817" lon="5.3037717"><ele>457.0</ele><time>2026-05-01T14:31:36.25Z</time></trkpt><trkpt lat="45.5230517" lon="5.3038783"><ele>449.0</ele><time>2026-05-01T14:31:37.25Z</time></trkpt><trkpt lat="45.52334" lon="5.303995"><ele>441.0</ele><time>2026-05-01T14:31:38.249Z</time></trkpt><trkpt lat="45.523615" lon="5.3041467"><ele>446.5</ele><time>2026-05-01T14:31:39.25Z</time></trkpt><trkpt lat="45.523865" lon="5.3043317"><ele>452.0</ele><time>2026-05-01T14:31:40.25Z</time></trkpt><trkpt lat="45.5241133" lon="5.3045217"><ele>452.0</ele><time>2026-05-01T14:31:41.25Z</time></trkpt><trkpt lat="45.5243417" lon="5.30474"><ele>452.0</ele><time>2026-05-01T14:31:42.249Z</time></trkpt><trkpt lat="45.5245783" lon="5.304915"><ele>442.0</ele><time>2026-05-01T14:31:43.25Z</time></trkpt><trkpt lat="45.5248133" lon="5.3050733"><ele>432.0</ele><time>2026-05-01T14:31:44.25Z</time></trkpt><trkpt lat="45.52503" lon="5.305255"><ele>432.0</ele><time>2026-05-01T14:31:45.25Z</time></trkpt><trkpt lat="45.5252267" lon="5.305475"><ele>432.0</ele><time>2026-05-01T14:31:46.249Z</time></trkpt><trkpt lat="45.52543" lon="5.3056717"><ele>428.0</ele><time>2026-05-01T14:31:47.25Z</time></trkpt><trkpt lat="45.5256317" lon="5.305875"><ele>424.0</ele><time>2026-05-01T14:31:48.249Z</time></trkpt><trkpt lat="45.525845" lon="5.3060733"><ele>424.0</ele><time>2026-05-01T14:31:49.25Z</time></trkpt><trkpt lat="45.5260633" lon="5.3062733"><ele>424.0</ele><time>2026-05-01T14:31:50.25Z</time></trkpt><trkpt lat="45.5262917" lon="5.30646"><ele>418.5</ele><time>2026-05-01T14:31:51.25Z</time></trkpt><trkpt lat="45.5265267" lon="5.30662"><ele>413.0</ele><time>2026-05-01T14:31:52.25Z</time></trkpt><trkpt lat="45.5267717" lon="5.3067517"><ele>413.0</ele><time>2026-05-01T14:31:53.249Z</time></trkpt><trkpt lat="45.5270283" lon="5.30682"><ele>413.0</ele><time>2026-05-01T14:31:54.25Z</time></trkpt><trkpt lat="45.5272883" lon="5.306865"><ele>414.0</ele><time>2026-05-01T14:31:55.249Z</time></trkpt><trkpt lat="45.5275433" lon="5.306905"><ele>415.0</ele><time>2026-05-01T14:31:56.25Z</time></trkpt><trkpt lat="45.5277967" lon="5.3069117"><ele>409.0</ele><time>2026-05-01T14:31:57.25Z</time></trkpt><trkpt lat="45.5280483" lon="5.306945"><ele>403.0</ele><time>2026-05-01T14:31:58.25Z</time></trkpt><trkpt lat="45.5282867" lon="5.3069767"><ele>403.0</ele><time>2026-05-01T14:31:59.25Z</time></trkpt><trkpt lat="45.52851" lon="5.3070383"><ele>403.0</ele><time>2026-05-01T14:32:00.25Z</time></trkpt><trkpt lat="45.52873" lon="5.3070667"><ele>403.0</ele><time>2026-05-01T14:32:01.25Z</time></trkpt><trkpt lat="45.5289383" lon="5.3070983"><ele>398.33333333333337</ele><time>2026-05-01T14:32:02.25Z</time></trkpt><trkpt lat="45.5291417" lon="5.3071383"><ele>393.66666666666663</ele><time>2026-05-01T14:32:03.249Z</time></trkpt><trkpt lat="45.5293417" lon="5.3071733"><ele>389.0</ele><time>2026-05-01T14:32:04.25Z</time></trkpt><trkpt lat="45.5295333" lon="5.30721"><ele>386.0</ele><time>2026-05-01T14:32:05.25Z</time></trkpt><trkpt lat="45.5297067" lon="5.3072367"><ele>383.0</ele><time>2026-05-01T14:32:06.249Z</time></trkpt><trkpt lat="45.5298867" lon="5.3072617"><ele>380.0</ele><time>2026-05-01T14:32:07.25Z</time></trkpt><trkpt lat="45.5300683" lon="5.3073017"><ele>377.6666666666667</ele><time>2026-05-01T14:32:08.25Z</time></trkpt><trkpt lat="45.5302533" lon="5.3073583"><ele>375.3333333333333</ele><time>2026-05-01T14:32:09.25Z</time></trkpt><trkpt lat="45.530445" lon="5.3074317"><ele>373.0</ele><time>2026-05-01T14:32:10.25Z</time></trkpt><trkpt lat="45.5306217" lon="5.3075267"><ele>372.3333333333333</ele><time>2026-05-01T14:32:11.25Z</time></trkpt><trkpt lat="45.5307933" lon="5.3076183"><ele>371.6666666666667</ele><time>2026-05-01T14:32:12.25Z</time></trkpt><trkpt lat="45.5309533" lon="5.3077083"><ele>371.0</ele><time>2026-05-01T14:32:13.25Z</time></trkpt><trkpt lat="45.53112" lon="5.3077817"><ele>370.33333333333337</ele><time>2026-05-01T14:32:14.249Z</time></trkpt><trkpt lat="45.5312833" lon="5.307845"><ele>369.6666666666667</ele><time>2026-05-01T14:32:15.25Z</time></trkpt><trkpt lat="45.5314383" lon="5.30791"><ele>369.0</ele><time>2026-05-01T14:32:16.249Z</time></trkpt><trkpt lat="45.5315883" lon="5.3079617"><ele>369.0</ele><time>2026-05-01T14:32:17.25Z</time></trkpt><trkpt lat="45.5317133" lon="5.3080167"><ele>369.0</ele><time>2026-05-01T14:32:18.25Z</time></trkpt><trkpt lat="45.5318267" lon="5.3080867"><ele>369.0</ele><time>2026-05-01T14:32:19.25Z</time></trkpt><trkpt lat="45.5319433" lon="5.3081467"><ele>369.0</ele><time>2026-05-01T14:32:20.25Z</time></trkpt><trkpt lat="45.532055" lon="5.3082033"><ele>369.6</ele><time>2026-05-01T14:32:21.25Z</time></trkpt><trkpt lat="45.53216" lon="5.308245"><ele>370.2</ele><time>2026-05-01T14:32:22.249Z</time></trkpt><trkpt lat="45.5322533" lon="5.3082767"><ele>370.8</ele><time>2026-05-01T14:32:23.25Z</time></trkpt><trkpt lat="45.5323367" lon="5.30831"><ele>371.40000000000003</ele><time>2026-05-01T14:32:24.249Z</time></trkpt><trkpt lat="45.532405" lon="5.3083383"><ele>372.0</ele><time>2026-05-01T14:32:25.25Z</time></trkpt><trkpt lat="45.5324983" lon="5.308405"><ele>372.0</ele><time>2026-05-01T14:32:27.25Z</time></trkpt><trkpt lat="45.5325633" lon="5.3084383"><ele>372.0</ele><time>2026-05-01T14:32:29.249Z</time></trkpt><trkpt lat="45.5326467" lon="5.308535"><ele>372.0</ele><time>2026-05-01T14:32:39.25Z</time></trkpt><trkpt lat="45.5327117" lon="5.3086083"><ele>372.0</ele><time>2026-05-01T14:32:40.25Z</time></trkpt><trkpt lat="45.5327833" lon="5.308685"><ele>372.0</ele><time>2026-05-01T14:32:41.25Z</time></trkpt><trkpt lat="45.5328733" lon="5.3087583"><ele>372.25</ele><time>2026-05-01T14:32:42.249Z</time></trkpt><trkpt lat="45.532965" lon="5.3088383"><ele>372.5</ele><time>2026-05-01T14:32:43.25Z</time></trkpt><trkpt lat="45.5330617" lon="5.30894"><ele>372.75</ele><time>2026-05-01T14:32:44.25Z</time></trkpt><trkpt lat="45.53317" lon="5.309035"><ele>373.0</ele><time>2026-05-01T14:32:45.25Z</time></trkpt><trkpt lat="45.53329" lon="5.3091317"><ele>373.0</ele><time>2026-05-01T14:32:46.25Z</time></trkpt><trkpt lat="45.5334083" lon="5.3092267"><ele>373.0</ele><time>2026-05-01T14:32:47.25Z</time></trkpt><trkpt lat="45.53353" lon="5.3093317"><ele>373.0</ele><time>2026-05-01T14:32:48.25Z</time></trkpt><trkpt lat="45.5336633" lon="5.3094483"><ele>373.0</ele><time>2026-05-01T14:32:49.249Z</time></trkpt><trkpt lat="45.5338083" lon="5.3095583"><ele>371.66666666666663</ele><time>2026-05-01T14:32:50.249Z</time></trkpt><trkpt lat="45.5339617" lon="5.3096683"><ele>370.3333333333333</ele><time>2026-05-01T14:32:51.25Z</time></trkpt><trkpt lat="45.534095" lon="5.3097783"><ele>369.0</ele><time>2026-05-01T14:32:52.25Z</time></trkpt><trkpt lat="45.5342383" lon="5.3098717"><ele>369.0</ele><time>2026-05-01T14:32:53.249Z</time></trkpt><trkpt lat="45.5343933" lon="5.3099633"><ele>369.0</ele><time>2026-05-01T14:32:54.25Z</time></trkpt><trkpt lat="45.53455" lon="5.3100483"><ele>369.0</ele><time>2026-05-01T14:32:55.25Z</time></trkpt><trkpt lat="45.5347383" lon="5.310105"><ele>369.6666666666667</ele><time>2026-05-01T14:32:56.25Z</time></trkpt><trkpt lat="45.5349467" lon="5.3101667"><ele>370.33333333333337</ele><time>2026-05-01T14:32:57.249Z</time></trkpt><trkpt lat="45.5351783" lon="5.3102217"><ele>371.0</ele><time>2026-05-01T14:32:58.25Z</time></trkpt><trkpt lat="45.5354117" lon="5.310285"><ele>371.0</ele><time>2026-05-01T14:32:59.25Z</time></trkpt><trkpt lat="45.5356767" lon="5.3102933"><ele>371.0</ele><time>2026-05-01T14:33:00.249Z</time></trkpt><trkpt lat="45.53594" lon="5.31028"><ele>371.0</ele><time>2026-05-01T14:33:01.25Z</time></trkpt><trkpt lat="45.5362117" lon="5.3102483"><ele>371.0</ele><time>2026-05-01T14:33:02.25Z</time></trkpt><trkpt lat="45.5364717" lon="5.31022"><ele>366.0</ele><time>2026-05-01T14:33:03.25Z</time></trkpt><trkpt lat="45.5367283" lon="5.3101783"><ele>361.0</ele><time>2026-05-01T14:33:04.249Z</time></trkpt><trkpt lat="45.5369917" lon="5.3101333"><ele>358.0</ele><time>2026-05-01T14:33:05.249Z</time></trkpt><trkpt lat="45.5372683" lon="5.310095"><ele>355.0</ele><time>2026-05-01T14:33:06.25Z</time></trkpt><trkpt lat="45.5375217" lon="5.31006"><ele>355.0</ele><time>2026-05-01T14:33:07.25Z</time></trkpt><trkpt lat="45.5377833" lon="5.3100333"><ele>355.0</ele><time>2026-05-01T14:33:08.25Z</time></trkpt><trkpt lat="45.5380383" lon="5.3100167"><ele>353.0</ele><time>2026-05-01T14:33:09.25Z</time></trkpt><trkpt lat="45.53828" lon="5.3100533"><ele>351.0</ele><time>2026-05-01T14:33:10.25Z</time></trkpt><trkpt lat="45.5385267" lon="5.3100967"><ele>351.0</ele><time>2026-05-01T14:33:11.25Z</time></trkpt><trkpt lat="45.53876" lon="5.3101367"><ele>351.0</ele><time>2026-05-01T14:33:12.25Z</time></trkpt><trkpt lat="45.538995" lon="5.3101683"><ele>351.0</ele><time>2026-05-01T14:33:13.25Z</time></trkpt><trkpt lat="45.53922" lon="5.310205"><ele>351.0</ele><time>2026-05-01T14:33:14.25Z</time></trkpt><trkpt lat="45.53944" lon="5.31025"><ele>351.0</ele><time>2026-05-01T14:33:15.25Z</time></trkpt><trkpt lat="45.53966" lon="5.3102833"><ele>351.3333333333333</ele><time>2026-05-01T14:33:16.25Z</time></trkpt><trkpt lat="45.53988" lon="5.3103267"><ele>351.66666666666663</ele><time>2026-05-01T14:33:17.25Z</time></trkpt><trkpt lat="45.5401017" lon="5.31036"><ele>352.0</ele><time>2026-05-01T14:33:18.249Z</time></trkpt><trkpt lat="45.54032" lon="5.31039"><ele>354.0</ele><time>2026-05-01T14:33:19.249Z</time></trkpt><trkpt lat="45.5405567" lon="5.31043"><ele>356.0</ele><time>2026-05-01T14:33:20.249Z</time></trkpt><trkpt lat="45.5407883" lon="5.3104733"><ele>356.0</ele><time>2026-05-01T14:33:21.25Z</time></trkpt><trkpt lat="45.5410283" lon="5.31051"><ele>356.0</ele><time>2026-05-01T14:33:22.249Z</time></trkpt><trkpt lat="45.5412517" lon="5.3105667"><ele>350.0</ele><time>2026-05-01T14:33:23.25Z</time></trkpt><trkpt lat="45.5414917" lon="5.3106"><ele>344.0</ele><time>2026-05-01T14:33:24.25Z</time></trkpt><trkpt lat="45.5417133" lon="5.3106533"><ele>344.0</ele><time>2026-05-01T14:33:25.25Z</time></trkpt><trkpt lat="45.5419467" lon="5.3106767"><ele>344.0</ele><time>2026-05-01T14:33:26.25Z</time></trkpt><trkpt lat="45.5421783" lon="5.3107067"><ele>343.5</ele><time>2026-05-01T14:33:27.25Z</time></trkpt><trkpt lat="45.5424017" lon="5.3107367"><ele>343.0</ele><time>2026-05-01T14:33:28.249Z</time></trkpt><trkpt lat="45.54263" lon="5.31075"><ele>343.0</ele><time>2026-05-01T14:33:29.25Z</time></trkpt><trkpt lat="45.5428667" lon="5.3107283"><ele>343.0</ele><time>2026-05-01T14:33:30.249Z</time></trkpt><trkpt lat="45.5430817" lon="5.3107367"><ele>342.3333333333333</ele><time>2026-05-01T14:33:31.25Z</time></trkpt><trkpt lat="45.54329" lon="5.31077"><ele>341.6666666666667</ele><time>2026-05-01T14:33:32.25Z</time></trkpt><trkpt lat="45.543515" lon="5.3107517"><ele>341.0</ele><time>2026-05-01T14:33:33.25Z</time></trkpt><trkpt lat="45.543755" lon="5.3107033"><ele>339.5</ele><time>2026-05-01T14:33:34.25Z</time></trkpt><trkpt lat="45.5439867" lon="5.310665"><ele>338.0</ele><time>2026-05-01T14:33:35.249Z</time></trkpt><trkpt lat="45.5442083" lon="5.3106183"><ele>342.0</ele><time>2026-05-01T14:33:36.25Z</time></trkpt><trkpt lat="45.5444383" lon="5.3105717"><ele>346.0</ele><time>2026-05-01T14:33:37.25Z</time></trkpt><trkpt lat="45.54466" lon="5.3105283"><ele>346.0</ele><time>2026-05-01T14:33:38.25Z</time></trkpt><trkpt lat="45.5448817" lon="5.3104883"><ele>346.0</ele><time>2026-05-01T14:33:39.25Z</time></trkpt><trkpt lat="45.5451017" lon="5.310425"><ele>346.0</ele><time>2026-05-01T14:33:40.25Z</time></trkpt><trkpt lat="45.545325" lon="5.3103667"><ele>346.3333333333333</ele><time>2026-05-01T14:33:41.25Z</time></trkpt><trkpt lat="45.5455383" lon="5.31033"><ele>346.6666666666667</ele><time>2026-05-01T14:33:42.249Z</time></trkpt><trkpt lat="45.54575" lon="5.3103083"><ele>347.0</ele><time>2026-05-01T14:33:43.25Z</time></trkpt><trkpt lat="45.5459467" lon="5.310295"><ele>347.0</ele><time>2026-05-01T14:33:44.249Z</time></trkpt><trkpt lat="45.546145" lon="5.3102667"><ele>347.0</ele><time>2026-05-01T14:33:45.25Z</time></trkpt><trkpt lat="45.5463417" lon="5.3102233"><ele>347.0</ele><time>2026-05-01T14:33:46.25Z</time></trkpt><trkpt lat="45.5465317" lon="5.3101717"><ele>344.33333333333337</ele><time>2026-05-01T14:33:47.25Z</time></trkpt><trkpt lat="45.5467183" lon="5.3101217"><ele>341.6666666666667</ele><time>2026-05-01T14:33:48.25Z</time></trkpt><trkpt lat="45.5469" lon="5.3100733"><ele>339.0</ele><time>2026-05-01T14:33:49.25Z</time></trkpt><trkpt lat="45.54708" lon="5.3100083"><ele>336.3333333333333</ele><time>2026-05-01T14:33:50.25Z</time></trkpt><trkpt lat="45.54725" lon="5.3099267"><ele>333.66666666666663</ele><time>2026-05-01T14:33:51.25Z</time></trkpt><trkpt lat="45.5474267" lon="5.3098417"><ele>331.0</ele><time>2026-05-01T14:33:52.25Z</time></trkpt><trkpt lat="45.5476133" lon="5.3097667"><ele>330.0</ele><time>2026-05-01T14:33:53.25Z</time></trkpt><trkpt lat="45.54783" lon="5.3096767"><ele>329.0</ele><time>2026-05-01T14:33:54.249Z</time></trkpt><trkpt lat="45.5480317" lon="5.309605"><ele>328.0</ele><time>2026-05-01T14:33:55.249Z</time></trkpt><trkpt lat="45.5482367" lon="5.3095417"><ele>328.0</ele><time>2026-05-01T14:33:56.25Z</time></trkpt><trkpt lat="45.548435" lon="5.3094717"><ele>328.0</ele><time>2026-05-01T14:33:57.25Z</time></trkpt><trkpt lat="45.5486333" lon="5.30941"><ele>328.0</ele><time>2026-05-01T14:33:58.25Z</time></trkpt><trkpt lat="45.5488233" lon="5.3093333"><ele>325.3333333333333</ele><time>2026-05-01T14:33:59.25Z</time></trkpt><trkpt lat="45.5489883" lon="5.309305"><ele>322.6666666666667</ele><time>2026-05-01T14:34:00.25Z</time></trkpt><trkpt lat="45.5491617" lon="5.309195"><ele>320.0</ele><time>2026-05-01T14:34:01.25Z</time></trkpt><trkpt lat="45.54932" lon="5.309115"><ele>320.0</ele><time>2026-05-01T14:34:02.25Z</time></trkpt><trkpt lat="45.5494833" lon="5.30905"><ele>320.0</ele><time>2026-05-01T14:34:03.25Z</time></trkpt><trkpt lat="45.5496433" lon="5.30899"><ele>320.0</ele><time>2026-05-01T14:34:04.25Z</time></trkpt><trkpt lat="45.549815" lon="5.3088983"><ele>318.0</ele><time>2026-05-01T14:34:05.25Z</time></trkpt><trkpt lat="45.5499667" lon="5.3088083"><ele>316.0</ele><time>2026-05-01T14:34:06.25Z</time></trkpt><trkpt lat="45.5501383" lon="5.3087067"><ele>314.0</ele><time>2026-05-01T14:34:07.249Z</time></trkpt><trkpt lat="45.5503083" lon="5.3085917"><ele>315.6666666666667</ele><time>2026-05-01T14:34:08.25Z</time></trkpt><trkpt lat="45.5504733" lon="5.3084617"><ele>317.3333333333333</ele><time>2026-05-01T14:34:09.25Z</time></trkpt><trkpt lat="45.5506217" lon="5.30832"><ele>319.0</ele><time>2026-05-01T14:34:10.25Z</time></trkpt><trkpt lat="45.5507683" lon="5.3081783"><ele>317.3333333333333</ele><time>2026-05-01T14:34:11.25Z</time></trkpt><trkpt lat="45.550905" lon="5.308025"><ele>315.6666666666667</ele><time>2026-05-01T14:34:12.25Z</time></trkpt><trkpt lat="45.5510417" lon="5.3078633"><ele>314.0</ele><time>2026-05-01T14:34:13.25Z</time></trkpt><trkpt lat="45.5511683" lon="5.3077483"><ele>316.75</ele><time>2026-05-01T14:34:14.25Z</time></trkpt><trkpt lat="45.5512817" lon="5.3076267"><ele>319.5</ele><time>2026-05-01T14:34:15.25Z</time></trkpt><trkpt lat="45.5514" lon="5.3075017"><ele>322.25</ele><time>2026-05-01T14:34:16.249Z</time></trkpt><trkpt lat="45.5515067" lon="5.307385"><ele>325.0</ele><time>2026-05-01T14:34:17.25Z</time></trkpt><trkpt lat="45.5516017" lon="5.3072717"><ele>322.5</ele><time>2026-05-01T14:34:18.249Z</time></trkpt><trkpt lat="45.5516917" lon="5.3071767"><ele>320.0</ele><time>2026-05-01T14:34:19.25Z</time></trkpt><trkpt lat="45.5517833" lon="5.3070933"><ele>317.5</ele><time>2026-05-01T14:34:20.249Z</time></trkpt><trkpt lat="45.5518817" lon="5.3069883"><ele>315.0</ele><time>2026-05-01T14:34:21.25Z</time></trkpt><trkpt lat="45.5519783" lon="5.3068817"><ele>316.25</ele><time>2026-05-01T14:34:22.25Z</time></trkpt><trkpt lat="45.55208" lon="5.3067883"><ele>317.5</ele><time>2026-05-01T14:34:23.25Z</time></trkpt><trkpt lat="45.5521917" lon="5.3067017"><ele>318.75</ele><time>2026-05-01T14:34:24.249Z</time></trkpt><trkpt lat="45.5523117" lon="5.3066367"><ele>320.0</ele><time>2026-05-01T14:34:25.25Z</time></trkpt><trkpt lat="45.55241" lon="5.3065733"><ele>320.0</ele><time>2026-05-01T14:34:26.25Z</time></trkpt><trkpt lat="45.5525333" lon="5.3064867"><ele>320.0</ele><time>2026-05-01T14:34:27.249Z</time></trkpt><trkpt lat="45.5526783" lon="5.3064233"><ele>320.0</ele><time>2026-05-01T14:34:28.249Z</time></trkpt><trkpt lat="45.5528467" lon="5.3063533"><ele>316.33333333333337</ele><time>2026-05-01T14:34:29.25Z</time></trkpt><trkpt lat="45.5530183" lon="5.3063017"><ele>312.6666666666667</ele><time>2026-05-01T14:34:30.249Z</time></trkpt><trkpt lat="45.5531817" lon="5.3062467"><ele>309.0</ele><time>2026-05-01T14:34:31.25Z</time></trkpt><trkpt lat="45.553345" lon="5.30621"><ele>309.0</ele><time>2026-05-01T14:34:32.25Z</time></trkpt><trkpt lat="45.5534883" lon="5.3061717"><ele>309.0</ele><time>2026-05-01T14:34:33.249Z</time></trkpt><trkpt lat="45.5536233" lon="5.3061483"><ele>309.0</ele><time>2026-05-01T14:34:34.25Z</time></trkpt><trkpt lat="45.5537483" lon="5.3061167"><ele>309.0</ele><time>2026-05-01T14:34:35.25Z</time></trkpt><trkpt lat="45.55387" lon="5.30607"><ele>309.0</ele><time>2026-05-01T14:34:36.25Z</time></trkpt><trkpt lat="45.5539733" lon="5.3060433"><ele>309.0</ele><time>2026-05-01T14:34:37.249Z</time></trkpt><trkpt lat="45.5540767" lon="5.305995"><ele>309.0</ele><time>2026-05-01T14:34:38.25Z</time></trkpt><trkpt lat="45.5541667" lon="5.3059633"><ele>309.0</ele><time>2026-05-01T14:34:39.249Z</time></trkpt><trkpt lat="45.5542417" lon="5.3059317"><ele>309.0</ele><time>2026-05-01T14:34:40.25Z</time></trkpt><trkpt lat="45.5543183" lon="5.305915"><ele>309.0</ele><time>2026-05-01T14:34:41.249Z</time></trkpt><trkpt lat="45.5544167" lon="5.3058967"><ele>309.0</ele><time>2026-05-01T14:34:42.249Z</time></trkpt><trkpt lat="45.5545167" lon="5.3058733"><ele>309.0</ele><time>2026-05-01T14:34:43.25Z</time></trkpt><trkpt lat="45.554625" lon="5.3058317"><ele>309.0</ele><time>2026-05-01T14:34:44.25Z</time></trkpt><trkpt lat="45.5547517" lon="5.3057883"><ele>309.0</ele><time>2026-05-01T14:34:45.249Z</time></trkpt><trkpt lat="45.554875" lon="5.305735"><ele>309.0</ele><time>2026-05-01T14:34:46.25Z</time></trkpt><trkpt lat="45.5549933" lon="5.30566"><ele>309.0</ele><time>2026-05-01T14:34:47.25Z</time></trkpt><trkpt lat="45.555105" lon="5.305625"><ele>309.0</ele><time>2026-05-01T14:34:48.25Z</time></trkpt><trkpt lat="45.5552017" lon="5.3055883"><ele>309.0</ele><time>2026-05-01T14:34:49.249Z</time></trkpt><trkpt lat="45.5553117" lon="5.3055533"><ele>307.75</ele><time>2026-05-01T14:34:50.25Z</time></trkpt><trkpt lat="45.55543" lon="5.3055083"><ele>306.5</ele><time>2026-05-01T14:34:51.249Z</time></trkpt><trkpt lat="45.55555" lon="5.305455"><ele>305.25</ele><time>2026-05-01T14:34:52.25Z</time></trkpt><trkpt lat="45.55567" lon="5.3054083"><ele>304.0</ele><time>2026-05-01T14:34:53.249Z</time></trkpt><trkpt lat="45.5557867" lon="5.3053683"><ele>304.0</ele><time>2026-05-01T14:34:54.249Z</time></trkpt><trkpt lat="45.55589" lon="5.305335"><ele>304.0</ele><time>2026-05-01T14:34:55.25Z</time></trkpt><trkpt lat="45.5559883" lon="5.3053017"><ele>304.0</ele><time>2026-05-01T14:34:56.249Z</time></trkpt><trkpt lat="45.556075" lon="5.30528"><ele>304.0</ele><time>2026-05-01T14:34:57.25Z</time></trkpt><trkpt lat="45.5561467" lon="5.3052517"><ele>304.0</ele><time>2026-05-01T14:34:58.25Z</time></trkpt><trkpt lat="45.5562233" lon="5.3052267"><ele>304.0</ele><time>2026-05-01T14:34:59.249Z</time></trkpt><trkpt lat="45.5563017" lon="5.3052017"><ele>303.66666666666663</ele><time>2026-05-01T14:35:00.25Z</time></trkpt><trkpt lat="45.556375" lon="5.3051883"><ele>303.3333333333333</ele><time>2026-05-01T14:35:01.25Z</time></trkpt><trkpt lat="45.5564417" lon="5.3051717"><ele>303.0</ele><time>2026-05-01T14:35:02.25Z</time></trkpt><trkpt lat="45.556505" lon="5.30516"><ele>302.6666666666667</ele><time>2026-05-01T14:35:03.25Z</time></trkpt><trkpt lat="45.55657" lon="5.305145"><ele>302.33333333333337</ele><time>2026-05-01T14:35:04.249Z</time></trkpt><trkpt lat="45.556655" lon="5.305125"><ele>302.0</ele><time>2026-05-01T14:35:05.249Z</time></trkpt><trkpt lat="45.556745" lon="5.3050867"><ele>302.0</ele><time>2026-05-01T14:35:06.25Z</time></trkpt><trkpt lat="45.55686" lon="5.305055"><ele>302.0</ele><time>2026-05-01T14:35:07.25Z</time></trkpt><trkpt lat="45.5569867" lon="5.3050067"><ele>302.0</ele><time>2026-05-01T14:35:08.25Z</time></trkpt><trkpt lat="45.5571133" lon="5.3049667"><ele>302.0</ele><time>2026-05-01T14:35:09.25Z</time></trkpt><trkpt lat="45.5572333" lon="5.3049283"><ele>301.75</ele><time>2026-05-01T14:35:10.249Z</time></trkpt><trkpt lat="45.55735" lon="5.30489"><ele>301.5</ele><time>2026-05-01T14:35:11.25Z</time></trkpt><trkpt lat="45.5574617" lon="5.3048617"><ele>301.25</ele><time>2026-05-01T14:35:12.249Z</time></trkpt><trkpt lat="45.55757" lon="5.304815"><ele>301.0</ele><time>2026-05-01T14:35:13.249Z</time></trkpt><trkpt lat="45.5576833" lon="5.3047833"><ele>301.0</ele><time>2026-05-01T14:35:14.25Z</time></trkpt><trkpt lat="45.5577717" lon="5.3047533"><ele>301.0</ele><time>2026-05-01T14:35:15.249Z</time></trkpt><trkpt lat="45.5578533" lon="5.30473"><ele>301.0</ele><time>2026-05-01T14:35:16.249Z</time></trkpt><trkpt lat="45.5579367" lon="5.3047183"><ele>301.0</ele><time>2026-05-01T14:35:17.25Z</time></trkpt><trkpt lat="45.558045" lon="5.3047"><ele>301.0</ele><time>2026-05-01T14:35:18.249Z</time></trkpt><trkpt lat="45.5581833" lon="5.3046833"><ele>300.0</ele><time>2026-05-01T14:35:19.25Z</time></trkpt><trkpt lat="45.558355" lon="5.30467"><ele>299.0</ele><time>2026-05-01T14:35:20.249Z</time></trkpt><trkpt lat="45.55853" lon="5.304655"><ele>298.0</ele><time>2026-05-01T14:35:21.25Z</time></trkpt><trkpt lat="45.5587017" lon="5.30463"><ele>297.0</ele><time>2026-05-01T14:35:22.249Z</time></trkpt><trkpt lat="45.5588633" lon="5.30459"><ele>296.0</ele><time>2026-05-01T14:35:23.249Z</time></trkpt><trkpt lat="45.55901" lon="5.3045733"><ele>295.0</ele><time>2026-05-01T14:35:24.249Z</time></trkpt><trkpt lat="45.5591783" lon="5.3045483"><ele>295.0</ele><time>2026-05-01T14:35:25.25Z</time></trkpt><trkpt lat="45.5593467" lon="5.3045"><ele>295.0</ele><time>2026-05-01T14:35:26.25Z</time></trkpt><trkpt lat="45.5595133" lon="5.3044517"><ele>295.0</ele><time>2026-05-01T14:35:27.25Z</time></trkpt><trkpt lat="45.55969" lon="5.304415"><ele>294.3333333333333</ele><time>2026-05-01T14:35:28.249Z</time></trkpt><trkpt lat="45.5598817" lon="5.3043867"><ele>293.6666666666667</ele><time>2026-05-01T14:35:29.249Z</time></trkpt><trkpt lat="45.5600833" lon="5.3043667"><ele>293.0</ele><time>2026-05-01T14:35:30.249Z</time></trkpt><trkpt lat="45.56028" lon="5.3043467"><ele>293.33333333333337</ele><time>2026-05-01T14:35:31.25Z</time></trkpt><trkpt lat="45.5604583" lon="5.3043117"><ele>293.6666666666667</ele><time>2026-05-01T14:35:32.25Z</time></trkpt><trkpt lat="45.56063" lon="5.3042783"><ele>294.0</ele><time>2026-05-01T14:35:33.249Z</time></trkpt><trkpt lat="45.5608067" lon="5.304235"><ele>294.0</ele><time>2026-05-01T14:35:34.25Z</time></trkpt><trkpt lat="45.5609867" lon="5.3042"><ele>294.0</ele><time>2026-05-01T14:35:35.249Z</time></trkpt><trkpt lat="45.5611783" lon="5.3041517"><ele>294.0</ele><time>2026-05-01T14:35:36.25Z</time></trkpt><trkpt lat="45.561355" lon="5.304105"><ele>292.0</ele><time>2026-05-01T14:35:37.25Z</time></trkpt><trkpt lat="45.5615183" lon="5.304065"><ele>290.0</ele><time>2026-05-01T14:35:38.249Z</time></trkpt><trkpt lat="45.561675" lon="5.3040067"><ele>288.0</ele><time>2026-05-01T14:35:39.25Z</time></trkpt><trkpt lat="45.5618283" lon="5.3039583"><ele>288.0</ele><time>2026-05-01T14:35:40.249Z</time></trkpt><trkpt lat="45.5619667" lon="5.30392"><ele>288.0</ele><time>2026-05-01T14:35:41.249Z</time></trkpt><trkpt lat="45.5620733" lon="5.303895"><ele>288.0</ele><time>2026-05-01T14:35:42.25Z</time></trkpt><trkpt lat="45.5621633" lon="5.3038783"><ele>288.0</ele><time>2026-05-01T14:35:43.25Z</time></trkpt><trkpt lat="45.5622533" lon="5.303885"><ele>288.0</ele><time>2026-05-01T14:35:44.249Z</time></trkpt><trkpt lat="45.5623417" lon="5.30392"><ele>287.5</ele><time>2026-05-01T14:35:45.25Z</time></trkpt><trkpt lat="45.562425" lon="5.3039833"><ele>287.0</ele><time>2026-05-01T14:35:46.25Z</time></trkpt><trkpt lat="45.5625" lon="5.3040483"><ele>286.5</ele><time>2026-05-01T14:35:47.25Z</time></trkpt><trkpt lat="45.5625667" lon="5.3040867"><ele>286.0</ele><time>2026-05-01T14:35:48.25Z</time></trkpt><trkpt lat="45.56265" lon="5.3040917"><ele>285.5</ele><time>2026-05-01T14:35:49.25Z</time></trkpt><trkpt lat="45.562745" lon="5.3040567"><ele>285.0</ele><time>2026-05-01T14:35:50.249Z</time></trkpt><trkpt lat="45.56283" lon="5.30397"><ele>285.25</ele><time>2026-05-01T14:35:51.249Z</time></trkpt><trkpt lat="45.5629183" lon="5.303875"><ele>285.5</ele><time>2026-05-01T14:35:52.25Z</time></trkpt><trkpt lat="45.5630233" lon="5.303795"><ele>285.75</ele><time>2026-05-01T14:35:53.25Z</time></trkpt><trkpt lat="45.5631383" lon="5.3037383"><ele>286.0</ele><time>2026-05-01T14:35:54.249Z</time></trkpt><trkpt lat="45.5632867" lon="5.3037133"><ele>286.0</ele><time>2026-05-01T14:35:55.249Z</time></trkpt><trkpt lat="45.5634383" lon="5.3036817"><ele>286.0</ele><time>2026-05-01T14:35:56.25Z</time></trkpt><trkpt lat="45.5636167" lon="5.3036333"><ele>286.0</ele><time>2026-05-01T14:35:57.25Z</time></trkpt><trkpt lat="45.5637967" lon="5.30361"><ele>285.0</ele><time>2026-05-01T14:35:58.249Z</time></trkpt><trkpt lat="45.563965" lon="5.303575"><ele>284.0</ele><time>2026-05-01T14:35:59.25Z</time></trkpt><trkpt lat="45.5641517" lon="5.3035317"><ele>283.0</ele><time>2026-05-01T14:36:00.25Z</time></trkpt><trkpt lat="45.56435" lon="5.3034833"><ele>282.66666666666663</ele><time>2026-05-01T14:36:01.25Z</time></trkpt><trkpt lat="45.5645567" lon="5.3034383"><ele>282.3333333333333</ele><time>2026-05-01T14:36:02.249Z</time></trkpt><trkpt lat="45.56476" lon="5.303395"><ele>282.0</ele><time>2026-05-01T14:36:03.25Z</time></trkpt><trkpt lat="45.5649717" lon="5.3033433"><ele>282.0</ele><time>2026-05-01T14:36:04.249Z</time></trkpt><trkpt lat="45.5651867" lon="5.3032883"><ele>282.0</ele><time>2026-05-01T14:36:05.25Z</time></trkpt><trkpt lat="45.5654133" lon="5.3032233"><ele>281.0</ele><time>2026-05-01T14:36:06.25Z</time></trkpt><trkpt lat="45.5656383" lon="5.3031683"><ele>280.0</ele><time>2026-05-01T14:36:07.25Z</time></trkpt><trkpt lat="45.56586" lon="5.3030983"><ele>281.0</ele><time>2026-05-01T14:36:08.25Z</time></trkpt><trkpt lat="45.5660983" lon="5.3030583"><ele>282.0</ele><time>2026-05-01T14:36:09.25Z</time></trkpt><trkpt lat="45.5663283" lon="5.30301"><ele>282.0</ele><time>2026-05-01T14:36:10.25Z</time></trkpt><trkpt lat="45.566575" lon="5.3029783"><ele>282.0</ele><time>2026-05-01T14:36:11.249Z</time></trkpt><trkpt lat="45.5668067" lon="5.3029617"><ele>282.0</ele><time>2026-05-01T14:36:12.25Z</time></trkpt><trkpt lat="45.5670367" lon="5.3029183"><ele>282.0</ele><time>2026-05-01T14:36:13.25Z</time></trkpt><trkpt lat="45.5672717" lon="5.3028533"><ele>282.0</ele><time>2026-05-01T14:36:14.25Z</time></trkpt><trkpt lat="45.5675067" lon="5.302795"><ele>282.0</ele><time>2026-05-01T14:36:15.25Z</time></trkpt><trkpt lat="45.5677217" lon="5.3027517"><ele>280.5</ele><time>2026-05-01T14:36:16.25Z</time></trkpt><trkpt lat="45.5679383" lon="5.3027033"><ele>279.0</ele><time>2026-05-01T14:36:17.25Z</time></trkpt><trkpt lat="45.5681783" lon="5.30264"><ele>279.0</ele><time>2026-05-01T14:36:18.249Z</time></trkpt><trkpt lat="45.5684067" lon="5.3026033"><ele>279.0</ele><time>2026-05-01T14:36:19.25Z</time></trkpt><trkpt lat="45.5686483" lon="5.302545"><ele>277.5</ele><time>2026-05-01T14:36:20.25Z</time></trkpt><trkpt lat="45.56888" lon="5.30249"><ele>276.0</ele><time>2026-05-01T14:36:21.25Z</time></trkpt><trkpt lat="45.5691117" lon="5.3024383"><ele>276.0</ele><time>2026-05-01T14:36:22.25Z</time></trkpt><trkpt lat="45.5693533" lon="5.3023767"><ele>276.0</ele><time>2026-05-01T14:36:23.25Z</time></trkpt><trkpt lat="45.5695817" lon="5.302335"><ele>275.5</ele><time>2026-05-01T14:36:24.25Z</time></trkpt><trkpt lat="45.5698283" lon="5.302295"><ele>275.0</ele><time>2026-05-01T14:36:25.249Z</time></trkpt><trkpt lat="45.5700717" lon="5.3022333"><ele>275.0</ele><time>2026-05-01T14:36:26.25Z</time></trkpt><trkpt lat="45.5703067" lon="5.30218"><ele>275.0</ele><time>2026-05-01T14:36:27.25Z</time></trkpt><trkpt lat="45.5705417" lon="5.3021367"><ele>274.0</ele><time>2026-05-01T14:36:28.25Z</time></trkpt><trkpt lat="45.5707767" lon="5.3020867"><ele>273.0</ele><time>2026-05-01T14:36:29.249Z</time></trkpt><trkpt lat="45.5710133" lon="5.3020267"><ele>272.0</ele><time>2026-05-01T14:36:30.25Z</time></trkpt><trkpt lat="45.5712633" lon="5.3019917"><ele>271.0</ele><time>2026-05-01T14:36:31.249Z</time></trkpt><trkpt lat="45.5714983" lon="5.3019533"><ele>271.0</ele><time>2026-05-01T14:36:32.249Z</time></trkpt><trkpt lat="45.5717283" lon="5.3019017"><ele>271.0</ele><time>2026-05-01T14:36:33.25Z</time></trkpt><trkpt lat="45.5719517" lon="5.30184"><ele>270.0</ele><time>2026-05-01T14:36:34.25Z</time></trkpt><trkpt lat="45.5721767" lon="5.301795"><ele>269.0</ele><time>2026-05-01T14:36:35.25Z</time></trkpt><trkpt lat="45.5723983" lon="5.30175"><ele>269.0</ele><time>2026-05-01T14:36:36.25Z</time></trkpt><trkpt lat="45.5726033" lon="5.3017067"><ele>269.0</ele><time>2026-05-01T14:36:37.25Z</time></trkpt><trkpt lat="45.5727933" lon="5.3017067"><ele>269.0</ele><time>2026-05-01T14:36:38.25Z</time></trkpt><trkpt lat="45.5729583" lon="5.3017"><ele>268.8</ele><time>2026-05-01T14:36:39.25Z</time></trkpt><trkpt lat="45.5730933" lon="5.3016783"><ele>268.59999999999997</ele><time>2026-05-01T14:36:40.25Z</time></trkpt><trkpt lat="45.5732033" lon="5.301675"><ele>268.4</ele><time>2026-05-01T14:36:41.25Z</time></trkpt><trkpt lat="45.5733017" lon="5.30166"><ele>268.2</ele><time>2026-05-01T14:36:42.25Z</time></trkpt><trkpt lat="45.5733767" lon="5.3016617"><ele>268.0</ele><time>2026-05-01T14:36:43.25Z</time></trkpt><trkpt lat="45.5734433" lon="5.3016633"><ele>268.0</ele><time>2026-05-01T14:36:44.25Z</time></trkpt><trkpt lat="45.5735233" lon="5.301665"><ele>268.0</ele><time>2026-05-01T14:36:46.25Z</time></trkpt><trkpt lat="45.5736133" lon="5.30172"><ele>268.0</ele><time>2026-05-01T14:36:48.25Z</time></trkpt><trkpt lat="45.5736733" lon="5.301755"><ele>268.0</ele><time>2026-05-01T14:36:49.25Z</time></trkpt><trkpt lat="45.5737483" lon="5.3017817"><ele>268.0</ele><time>2026-05-01T14:36:50.25Z</time></trkpt><trkpt lat="45.5738467" lon="5.3017783"><ele>268.0</ele><time>2026-05-01T14:36:51.25Z</time></trkpt><trkpt lat="45.5739617" lon="5.3017633"><ele>267.66666666666663</ele><time>2026-05-01T14:36:52.25Z</time></trkpt><trkpt lat="45.5741133" lon="5.301775"><ele>267.3333333333333</ele><time>2026-05-01T14:36:53.25Z</time></trkpt><trkpt lat="45.5743017" lon="5.3017867"><ele>267.0</ele><time>2026-05-01T14:36:54.25Z</time></trkpt><trkpt lat="45.5744983" lon="5.3018117"><ele>266.6666666666667</ele><time>2026-05-01T14:36:55.25Z</time></trkpt><trkpt lat="45.5747133" lon="5.3018483"><ele>266.33333333333337</ele><time>2026-05-01T14:36:56.249Z</time></trkpt><trkpt lat="45.5749433" lon="5.3018683"><ele>266.0</ele><time>2026-05-01T14:36:57.249Z</time></trkpt><trkpt lat="45.5751717" lon="5.3018867"><ele>266.5</ele><time>2026-05-01T14:36:58.249Z</time></trkpt><trkpt lat="45.5754033" lon="5.3019367"><ele>267.0</ele><time>2026-05-01T14:36:59.249Z</time></trkpt><trkpt lat="45.5756617" lon="5.3019533"><ele>267.0</ele><time>2026-05-01T14:37:00.25Z</time></trkpt><trkpt lat="45.5759283" lon="5.3019733"><ele>267.0</ele><time>2026-05-01T14:37:01.25Z</time></trkpt><trkpt lat="45.5761917" lon="5.302"><ele>265.0</ele><time>2026-05-01T14:37:02.25Z</time></trkpt><trkpt lat="45.5764483" lon="5.30203"><ele>263.0</ele><time>2026-05-01T14:37:03.25Z</time></trkpt><trkpt lat="45.5766917" lon="5.3020433"><ele>263.0</ele><time>2026-05-01T14:37:04.25Z</time></trkpt><trkpt lat="45.57695" lon="5.3020317"><ele>263.0</ele><time>2026-05-01T14:37:05.25Z</time></trkpt><trkpt lat="45.577215" lon="5.302"><ele>261.5</ele><time>2026-05-01T14:37:06.25Z</time></trkpt><trkpt lat="45.5774767" lon="5.3019617"><ele>260.0</ele><time>2026-05-01T14:37:07.25Z</time></trkpt><trkpt lat="45.5777317" lon="5.3018883"><ele>260.5</ele><time>2026-05-01T14:37:08.249Z</time></trkpt><trkpt lat="45.577975" lon="5.3017817"><ele>261.0</ele><time>2026-05-01T14:37:09.25Z</time></trkpt><trkpt lat="45.578195" lon="5.3016683"><ele>261.0</ele><time>2026-05-01T14:37:10.25Z</time></trkpt><trkpt lat="45.5784" lon="5.3015333"><ele>261.0</ele><time>2026-05-01T14:37:11.25Z</time></trkpt><trkpt lat="45.5785767" lon="5.3013867"><ele>261.0</ele><time>2026-05-01T14:37:12.25Z</time></trkpt><trkpt lat="45.57874" lon="5.30123"><ele>259.6666666666667</ele><time>2026-05-01T14:37:13.25Z</time></trkpt><trkpt lat="45.57889" lon="5.3010667"><ele>258.33333333333337</ele><time>2026-05-01T14:37:14.249Z</time></trkpt><trkpt lat="45.5790117" lon="5.300925"><ele>257.0</ele><time>2026-05-01T14:37:15.25Z</time></trkpt><trkpt lat="45.5791183" lon="5.3007933"><ele>257.0</ele><time>2026-05-01T14:37:16.25Z</time></trkpt><trkpt lat="45.5792283" lon="5.3006567"><ele>257.0</ele><time>2026-05-01T14:37:17.25Z</time></trkpt><trkpt lat="45.5793367" lon="5.3005083"><ele>257.0</ele><time>2026-05-01T14:37:18.25Z</time></trkpt><trkpt lat="45.5794583" lon="5.3003333"><ele>257.33333333333337</ele><time>2026-05-01T14:37:19.25Z</time></trkpt><trkpt lat="45.5795883" lon="5.3001533"><ele>257.6666666666667</ele><time>2026-05-01T14:37:20.249Z</time></trkpt><trkpt lat="45.5797383" lon="5.2999667"><ele>258.0</ele><time>2026-05-01T14:37:21.25Z</time></trkpt><trkpt lat="45.5798833" lon="5.299785"><ele>262.3333333333333</ele><time>2026-05-01T14:37:22.25Z</time></trkpt><trkpt lat="45.5800233" lon="5.2996067"><ele>266.66666666666663</ele><time>2026-05-01T14:37:23.25Z</time></trkpt><trkpt lat="45.5801533" lon="5.29943"><ele>271.0</ele><time>2026-05-01T14:37:24.25Z</time></trkpt><trkpt lat="45.580265" lon="5.2992767"><ele>268.8</ele><time>2026-05-01T14:37:25.25Z</time></trkpt><trkpt lat="45.5803567" lon="5.2991517"><ele>266.6</ele><time>2026-05-01T14:37:26.25Z</time></trkpt><trkpt lat="45.5804283" lon="5.299045"><ele>264.4</ele><time>2026-05-01T14:37:27.25Z</time></trkpt><trkpt lat="45.5804833" lon="5.2989567"><ele>262.2</ele><time>2026-05-01T14:37:28.249Z</time></trkpt><trkpt lat="45.5805333" lon="5.298885"><ele>260.0</ele><time>2026-05-01T14:37:29.25Z</time></trkpt><trkpt lat="45.580605" lon="5.298805"><ele>260.0</ele><time>2026-05-01T14:37:31.249Z</time></trkpt><trkpt lat="45.580665" lon="5.2986617"><ele>260.0</ele><time>2026-05-01T14:37:39.25Z</time></trkpt><trkpt lat="45.5807167" lon="5.298575"><ele>260.0</ele><time>2026-05-01T14:37:40.25Z</time></trkpt><trkpt lat="45.580795" lon="5.2984667"><ele>260.0</ele><time>2026-05-01T14:37:41.249Z</time></trkpt><trkpt lat="45.5808833" lon="5.2983383"><ele>260.0</ele><time>2026-05-01T14:37:42.25Z</time></trkpt><trkpt lat="45.5810217" lon="5.2981417"><ele>258.6666666666667</ele><time>2026-05-01T14:37:43.249Z</time></trkpt><trkpt lat="45.5811633" lon="5.29794"><ele>257.3333333333333</ele><time>2026-05-01T14:37:44.249Z</time></trkpt><trkpt lat="45.58131" lon="5.2977367"><ele>256.0</ele><time>2026-05-01T14:37:45.249Z</time></trkpt><trkpt lat="45.5814567" lon="5.297525"><ele>256.0</ele><time>2026-05-01T14:37:46.25Z</time></trkpt><trkpt lat="45.5815983" lon="5.2973"><ele>256.0</ele><time>2026-05-01T14:37:47.25Z</time></trkpt><trkpt lat="45.581745" lon="5.29709"><ele>256.0</ele><time>2026-05-01T14:37:48.25Z</time></trkpt><trkpt lat="45.58189" lon="5.29688"><ele>255.66666666666666</ele><time>2026-05-01T14:37:49.249Z</time></trkpt><trkpt lat="45.5820383" lon="5.2966467"><ele>255.33333333333331</ele><time>2026-05-01T14:37:50.25Z</time></trkpt><trkpt lat="45.582185" lon="5.2964217"><ele>255.0</ele><time>2026-05-01T14:37:51.25Z</time></trkpt><trkpt lat="45.5823267" lon="5.296205"><ele>255.66666666666669</ele><time>2026-05-01T14:37:52.25Z</time></trkpt><trkpt lat="45.5824667" lon="5.29596"><ele>256.33333333333337</ele><time>2026-05-01T14:37:53.25Z</time></trkpt><trkpt lat="45.5825883" lon="5.29574"><ele>257.0</ele><time>2026-05-01T14:37:54.25Z</time></trkpt><trkpt lat="45.58271" lon="5.2954933"><ele>257.0</ele><time>2026-05-01T14:37:55.25Z</time></trkpt><trkpt lat="45.58283" lon="5.29524"><ele>257.0</ele><time>2026-05-01T14:37:56.25Z</time></trkpt><trkpt lat="45.5829233" lon="5.2949833"><ele>257.0</ele><time>2026-05-01T14:37:57.249Z</time></trkpt><trkpt lat="45.5830033" lon="5.2947533"><ele>257.0</ele><time>2026-05-01T14:37:58.25Z</time></trkpt><trkpt lat="45.5830783" lon="5.294555"><ele>257.0</ele><time>2026-05-01T14:37:59.249Z</time></trkpt><trkpt lat="45.5831367" lon="5.29434"><ele>257.0</ele><time>2026-05-01T14:38:00.249Z</time></trkpt><trkpt lat="45.5831883" lon="5.2941117"><ele>257.0</ele><time>2026-05-01T14:38:01.25Z</time></trkpt><trkpt lat="45.58321" lon="5.2938633"><ele>257.0</ele><time>2026-05-01T14:38:02.249Z</time></trkpt><trkpt lat="45.5832467" lon="5.29361"><ele>257.0</ele><time>2026-05-01T14:38:03.249Z</time></trkpt><trkpt lat="45.5832767" lon="5.2933667"><ele>257.0</ele><time>2026-05-01T14:38:04.25Z</time></trkpt><trkpt lat="45.5833183" lon="5.2931233"><ele>257.0</ele><time>2026-05-01T14:38:05.25Z</time></trkpt><trkpt lat="45.5833667" lon="5.2928783"><ele>257.0</ele><time>2026-05-01T14:38:06.25Z</time></trkpt><trkpt lat="45.5834" lon="5.29265"><ele>257.33333333333337</ele><time>2026-05-01T14:38:07.25Z</time></trkpt><trkpt lat="45.583435" lon="5.292425"><ele>257.6666666666667</ele><time>2026-05-01T14:38:08.25Z</time></trkpt><trkpt lat="45.5834783" lon="5.29221"><ele>258.0</ele><time>2026-05-01T14:38:09.249Z</time></trkpt><trkpt lat="45.58351" lon="5.2920117"><ele>258.1666666666667</ele><time>2026-05-01T14:38:10.249Z</time></trkpt><trkpt lat="45.58355" lon="5.2918867"><ele>258.3333333333333</ele><time>2026-05-01T14:38:11.25Z</time></trkpt><trkpt lat="45.5835783" lon="5.29177"><ele>258.5</ele><time>2026-05-01T14:38:12.25Z</time></trkpt><trkpt lat="45.5836117" lon="5.2916467"><ele>258.66666666666663</ele><time>2026-05-01T14:38:13.25Z</time></trkpt><trkpt lat="45.5836567" lon="5.29154"><ele>258.8333333333333</ele><time>2026-05-01T14:38:14.249Z</time></trkpt><trkpt lat="45.583685" lon="5.291445"><ele>259.0</ele><time>2026-05-01T14:38:15.25Z</time></trkpt><trkpt lat="45.583715" lon="5.2913383"><ele>257.0</ele><time>2026-05-01T14:38:17.25Z</time></trkpt><trkpt lat="45.5838183" lon="5.2912733"><ele>254.99999999999997</ele><time>2026-05-01T14:38:51.249Z</time></trkpt><trkpt lat="45.5838733" lon="5.2912033"><ele>252.99999999999997</ele><time>2026-05-01T14:38:52.249Z</time></trkpt><trkpt lat="45.5839183" lon="5.2911183"><ele>251.0</ele><time>2026-05-01T14:38:53.249Z</time></trkpt><trkpt lat="45.5839583" lon="5.2909833"><ele>249.0</ele><time>2026-05-01T14:38:54.249Z</time></trkpt><trkpt lat="45.5839783" lon="5.2908217"><ele>249.0</ele><time>2026-05-01T14:38:55.248Z</time></trkpt><trkpt lat="45.5839933" lon="5.2906167"><ele>249.0</ele><time>2026-05-01T14:38:56.249Z</time></trkpt><trkpt lat="45.5839917" lon="5.2903633"><ele>249.0</ele><time>2026-05-01T14:38:57.249Z</time></trkpt><trkpt lat="45.58399" lon="5.290115"><ele>249.33333333333331</ele><time>2026-05-01T14:38:58.248Z</time></trkpt><trkpt lat="45.584005" lon="5.289875"><ele>249.66666666666666</ele><time>2026-05-01T14:38:59.249Z</time></trkpt><trkpt lat="45.5840217" lon="5.2896483"><ele>250.0</ele><time>2026-05-01T14:39:00.249Z</time></trkpt><trkpt lat="45.5840433" lon="5.289445"><ele>250.5</ele><time>2026-05-01T14:39:01.249Z</time></trkpt><trkpt lat="45.5840717" lon="5.2892483"><ele>251.0</ele><time>2026-05-01T14:39:02.249Z</time></trkpt><trkpt lat="45.5840933" lon="5.2890683"><ele>251.5</ele><time>2026-05-01T14:39:03.249Z</time></trkpt><trkpt lat="45.5841217" lon="5.2888883"><ele>252.0</ele><time>2026-05-01T14:39:04.249Z</time></trkpt><trkpt lat="45.5841417" lon="5.2887067"><ele>252.0</ele><time>2026-05-01T14:39:05.249Z</time></trkpt><trkpt lat="45.5841767" lon="5.288515"><ele>252.0</ele><time>2026-05-01T14:39:06.248Z</time></trkpt><trkpt lat="45.58423" lon="5.2883033"><ele>252.0</ele><time>2026-05-01T14:39:07.249Z</time></trkpt><trkpt lat="45.5842767" lon="5.28807"><ele>252.0</ele><time>2026-05-01T14:39:08.249Z</time></trkpt><trkpt lat="45.58432" lon="5.2878517"><ele>252.0</ele><time>2026-05-01T14:39:09.249Z</time></trkpt><trkpt lat="45.5843567" lon="5.2876233"><ele>252.0</ele><time>2026-05-01T14:39:10.249Z</time></trkpt><trkpt lat="45.5843983" lon="5.2874017"><ele>252.66666666666669</ele><time>2026-05-01T14:39:11.248Z</time></trkpt><trkpt lat="45.584455" lon="5.2871733"><ele>253.33333333333334</ele><time>2026-05-01T14:39:12.249Z</time></trkpt><trkpt lat="45.58449" lon="5.2869383"><ele>254.0</ele><time>2026-05-01T14:39:13.249Z</time></trkpt><trkpt lat="45.584495" lon="5.2866867"><ele>254.0</ele><time>2026-05-01T14:39:14.249Z</time></trkpt><trkpt lat="45.584505" lon="5.286465"><ele>254.0</ele><time>2026-05-01T14:39:15.249Z</time></trkpt><trkpt lat="45.5845133" lon="5.2862833"><ele>254.0</ele><time>2026-05-01T14:39:16.249Z</time></trkpt><trkpt lat="45.5845133" lon="5.2860983"><ele>254.0</ele><time>2026-05-01T14:39:17.249Z</time></trkpt><trkpt lat="45.5845117" lon="5.2859517"><ele>254.16666666666669</ele><time>2026-05-01T14:39:18.249Z</time></trkpt><trkpt lat="45.58451" lon="5.2858517"><ele>254.33333333333334</ele><time>2026-05-01T14:39:19.249Z</time></trkpt><trkpt lat="45.5845" lon="5.2857267"><ele>254.5</ele><time>2026-05-01T14:39:21.249Z</time></trkpt><trkpt lat="45.5844733" lon="5.285605"><ele>254.66666666666669</ele><time>2026-05-01T14:39:52.249Z</time></trkpt><trkpt lat="45.58447" lon="5.2855"><ele>254.83333333333334</ele><time>2026-05-01T14:39:53.249Z</time></trkpt><trkpt lat="45.584465" lon="5.2853633"><ele>255.0</ele><time>2026-05-01T14:39:54.249Z</time></trkpt><trkpt lat="45.584465" lon="5.2852"><ele>255.0</ele><time>2026-05-01T14:39:55.248Z</time></trkpt><trkpt lat="45.5844583" lon="5.28497"><ele>255.0</ele><time>2026-05-01T14:39:56.249Z</time></trkpt><trkpt lat="45.5844583" lon="5.284695"><ele>255.0</ele><time>2026-05-01T14:39:57.249Z</time></trkpt><trkpt lat="45.5844617" lon="5.2844217"><ele>255.66666666666669</ele><time>2026-05-01T14:39:58.249Z</time></trkpt><trkpt lat="45.584465" lon="5.2841267"><ele>256.33333333333337</ele><time>2026-05-01T14:39:59.249Z</time></trkpt><trkpt lat="45.58446" lon="5.283845"><ele>257.0</ele><time>2026-05-01T14:40:00.248Z</time></trkpt><trkpt lat="45.5844567" lon="5.2835483"><ele>257.0</ele><time>2026-05-01T14:40:01.248Z</time></trkpt><trkpt lat="45.5844533" lon="5.2832417"><ele>257.0</ele><time>2026-05-01T14:40:02.249Z</time></trkpt><trkpt lat="45.5844583" lon="5.2829383"><ele>257.0</ele><time>2026-05-01T14:40:03.249Z</time></trkpt><trkpt lat="45.58446" lon="5.2826267"><ele>257.6666666666667</ele><time>2026-05-01T14:40:04.249Z</time></trkpt><trkpt lat="45.5844667" lon="5.2823233"><ele>258.3333333333333</ele><time>2026-05-01T14:40:05.249Z</time></trkpt><trkpt lat="45.584465" lon="5.2820267"><ele>259.0</ele><time>2026-05-01T14:40:06.249Z</time></trkpt><trkpt lat="45.5844783" lon="5.2817483"><ele>259.3333333333333</ele><time>2026-05-01T14:40:07.249Z</time></trkpt><trkpt lat="45.5844867" lon="5.2814717"><ele>259.6666666666667</ele><time>2026-05-01T14:40:08.249Z</time></trkpt><trkpt lat="45.5844817" lon="5.2812083"><ele>260.0</ele><time>2026-05-01T14:40:09.249Z</time></trkpt><trkpt lat="45.58449" lon="5.2809617"><ele>261.33333333333337</ele><time>2026-05-01T14:40:10.248Z</time></trkpt><trkpt lat="45.5844917" lon="5.2807033"><ele>262.6666666666667</ele><time>2026-05-01T14:40:11.249Z</time></trkpt><trkpt lat="45.584485" lon="5.280425"><ele>264.0</ele><time>2026-05-01T14:40:12.248Z</time></trkpt><trkpt lat="45.5844933" lon="5.28016"><ele>265.6666666666667</ele><time>2026-05-01T14:40:13.249Z</time></trkpt><trkpt lat="45.5844983" lon="5.27988"><ele>267.33333333333337</ele><time>2026-05-01T14:40:14.248Z</time></trkpt><trkpt lat="45.5844967" lon="5.27961"><ele>269.0</ele><time>2026-05-01T14:40:15.249Z</time></trkpt><trkpt lat="45.5845033" lon="5.279335"><ele>263.6666666666667</ele><time>2026-05-01T14:40:16.249Z</time></trkpt><trkpt lat="45.5845133" lon="5.2790633"><ele>258.3333333333333</ele><time>2026-05-01T14:40:17.249Z</time></trkpt><trkpt lat="45.5845267" lon="5.2788017"><ele>253.0</ele><time>2026-05-01T14:40:18.249Z</time></trkpt><trkpt lat="45.5845367" lon="5.2785383"><ele>253.0</ele><time>2026-05-01T14:40:19.248Z</time></trkpt><trkpt lat="45.5845383" lon="5.2782767"><ele>253.0</ele><time>2026-05-01T14:40:20.249Z</time></trkpt><trkpt lat="45.5845333" lon="5.2780283"><ele>253.0</ele><time>2026-05-01T14:40:21.248Z</time></trkpt><trkpt lat="45.5845383" lon="5.2777733"><ele>253.66666666666666</ele><time>2026-05-01T14:40:22.249Z</time></trkpt><trkpt lat="45.584535" lon="5.2775467"><ele>254.33333333333331</ele><time>2026-05-01T14:40:23.248Z</time></trkpt><trkpt lat="45.5845617" lon="5.27733"><ele>255.0</ele><time>2026-05-01T14:40:24.249Z</time></trkpt><trkpt lat="45.584605" lon="5.2771217"><ele>255.66666666666669</ele><time>2026-05-01T14:40:25.249Z</time></trkpt><trkpt lat="45.5846267" lon="5.276905"><ele>256.33333333333337</ele><time>2026-05-01T14:40:26.249Z</time></trkpt><trkpt lat="45.5846517" lon="5.2766933"><ele>257.0</ele><time>2026-05-01T14:40:27.249Z</time></trkpt><trkpt lat="45.58468" lon="5.2764767"><ele>256.5</ele><time>2026-05-01T14:40:28.249Z</time></trkpt><trkpt lat="45.5847067" lon="5.2762683"><ele>256.0</ele><time>2026-05-01T14:40:29.249Z</time></trkpt><trkpt lat="45.58473" lon="5.276065"><ele>255.5</ele><time>2026-05-01T14:40:30.249Z</time></trkpt><trkpt lat="45.5847633" lon="5.2758583"><ele>255.0</ele><time>2026-05-01T14:40:31.249Z</time></trkpt><trkpt lat="45.584795" lon="5.2756667"><ele>254.5</ele><time>2026-05-01T14:40:32.248Z</time></trkpt><trkpt lat="45.5848333" lon="5.2754617"><ele>254.0</ele><time>2026-05-01T14:40:33.249Z</time></trkpt><trkpt lat="45.58486" lon="5.275275"><ele>253.5</ele><time>2026-05-01T14:40:34.249Z</time></trkpt><trkpt lat="45.5848933" lon="5.2750983"><ele>253.0</ele><time>2026-05-01T14:40:35.249Z</time></trkpt><trkpt lat="45.5849217" lon="5.2749267"><ele>252.5</ele><time>2026-05-01T14:40:36.249Z</time></trkpt><trkpt lat="45.5849583" lon="5.2747583"><ele>252.0</ele><time>2026-05-01T14:40:37.249Z</time></trkpt><trkpt lat="45.5849817" lon="5.274595"><ele>251.5</ele><time>2026-05-01T14:40:38.248Z</time></trkpt><trkpt lat="45.5849983" lon="5.274435"><ele>251.0</ele><time>2026-05-01T14:40:39.249Z</time></trkpt><trkpt lat="45.5850167" lon="5.274285"><ele>251.00000000000003</ele><time>2026-05-01T14:40:40.249Z</time></trkpt><trkpt lat="45.5850383" lon="5.2741567"><ele>251.0</ele><time>2026-05-01T14:40:41.248Z</time></trkpt><trkpt lat="45.5850467" lon="5.2740233"><ele>251.0</ele><time>2026-05-01T14:40:42.249Z</time></trkpt><trkpt lat="45.5850483" lon="5.2739067"><ele>251.0</ele><time>2026-05-01T14:40:43.249Z</time></trkpt><trkpt lat="45.5850567" lon="5.273815"><ele>251.00000000000003</ele><time>2026-05-01T14:40:44.248Z</time></trkpt><trkpt lat="45.5850883" lon="5.2736633"><ele>251.0</ele><time>2026-05-01T14:40:46.249Z</time></trkpt><trkpt lat="45.5851217" lon="5.2735767"><ele>251.0</ele><time>2026-05-01T14:40:48.248Z</time></trkpt><trkpt lat="45.5851633" lon="5.2735033"><ele>251.00000000000003</ele><time>2026-05-01T14:41:13.248Z</time></trkpt><trkpt lat="45.58517" lon="5.27336"><ele>251.00000000000003</ele><time>2026-05-01T14:41:15.249Z</time></trkpt><trkpt lat="45.5851767" lon="5.2732583"><ele>251.0</ele><time>2026-05-01T14:41:16.248Z</time></trkpt><trkpt lat="45.5851783" lon="5.273115"><ele>251.0</ele><time>2026-05-01T14:41:17.248Z</time></trkpt><trkpt lat="45.585185" lon="5.27293"><ele>251.0</ele><time>2026-05-01T14:41:18.249Z</time></trkpt><trkpt lat="45.585185" lon="5.2727417"><ele>251.0</ele><time>2026-05-01T14:41:19.249Z</time></trkpt><trkpt lat="45.585195" lon="5.2725367"><ele>251.0</ele><time>2026-05-01T14:41:20.248Z</time></trkpt><trkpt lat="45.5851983" lon="5.2723183"><ele>251.0</ele><time>2026-05-01T14:41:21.249Z</time></trkpt><trkpt lat="45.5852133" lon="5.27209"><ele>251.0</ele><time>2026-05-01T14:41:22.249Z</time></trkpt><trkpt lat="45.5851967" lon="5.271845"><ele>251.0</ele><time>2026-05-01T14:41:23.249Z</time></trkpt><trkpt lat="45.5851983" lon="5.2716083"><ele>251.0</ele><time>2026-05-01T14:41:24.249Z</time></trkpt><trkpt lat="45.5852117" lon="5.2713867"><ele>251.0</ele><time>2026-05-01T14:41:25.248Z</time></trkpt><trkpt lat="45.5852383" lon="5.2711767"><ele>251.0</ele><time>2026-05-01T14:41:26.249Z</time></trkpt><trkpt lat="45.585265" lon="5.2709767"><ele>251.0</ele><time>2026-05-01T14:41:27.249Z</time></trkpt><trkpt lat="45.5853017" lon="5.2707917"><ele>251.0</ele><time>2026-05-01T14:41:28.249Z</time></trkpt><trkpt lat="45.5853283" lon="5.2705983"><ele>250.5</ele><time>2026-05-01T14:41:29.249Z</time></trkpt><trkpt lat="45.5853517" lon="5.2704283"><ele>250.0</ele><time>2026-05-01T14:41:30.248Z</time></trkpt><trkpt lat="45.58538" lon="5.2702517"><ele>249.5</ele><time>2026-05-01T14:41:31.249Z</time></trkpt><trkpt lat="45.5853967" lon="5.2700583"><ele>249.0</ele><time>2026-05-01T14:41:32.249Z</time></trkpt><trkpt lat="45.5854217" lon="5.26986"><ele>248.6</ele><time>2026-05-01T14:41:33.249Z</time></trkpt><trkpt lat="45.5854317" lon="5.2696617"><ele>248.2</ele><time>2026-05-01T14:41:34.248Z</time></trkpt><trkpt lat="45.5854483" lon="5.269505"><ele>247.79999999999998</ele><time>2026-05-01T14:41:35.248Z</time></trkpt><trkpt lat="45.5854667" lon="5.2693933"><ele>247.39999999999998</ele><time>2026-05-01T14:41:36.249Z</time></trkpt><trkpt lat="45.5854767" lon="5.269295"><ele>247.0</ele><time>2026-05-01T14:41:37.249Z</time></trkpt><trkpt lat="45.5855183" lon="5.2691717"><ele>247.0</ele><time>2026-05-01T14:41:39.248Z</time></trkpt><trkpt lat="45.585595" lon="5.2690867"><ele>247.0</ele><time>2026-05-01T14:41:41.249Z</time></trkpt><trkpt lat="45.5856367" lon="5.2689817"><ele>247.0</ele><time>2026-05-01T14:41:43.248Z</time></trkpt><trkpt lat="45.5856483" lon="5.268805"><ele>247.0</ele><time>2026-05-01T14:41:45.249Z</time></trkpt><trkpt lat="45.5856667" lon="5.26868"><ele>247.0</ele><time>2026-05-01T14:41:46.249Z</time></trkpt><trkpt lat="45.5856817" lon="5.268535"><ele>247.0</ele><time>2026-05-01T14:41:47.249Z</time></trkpt><trkpt lat="45.5856917" lon="5.26837"><ele>247.0</ele><time>2026-05-01T14:41:48.249Z</time></trkpt><trkpt lat="45.5856883" lon="5.2682067"><ele>247.0</ele><time>2026-05-01T14:41:49.249Z</time></trkpt><trkpt lat="45.5856867" lon="5.2680533"><ele>247.0</ele><time>2026-05-01T14:41:50.248Z</time></trkpt><trkpt lat="45.5856883" lon="5.267895"><ele>247.0</ele><time>2026-05-01T14:41:51.248Z</time></trkpt><trkpt lat="45.58568" lon="5.2677433"><ele>247.0</ele><time>2026-05-01T14:41:52.248Z</time></trkpt><trkpt lat="45.5856717" lon="5.2675783"><ele>247.0</ele><time>2026-05-01T14:41:53.248Z</time></trkpt><trkpt lat="45.585665" lon="5.2674133"><ele>247.0</ele><time>2026-05-01T14:41:54.249Z</time></trkpt><trkpt lat="45.585655" lon="5.2672517"><ele>247.0</ele><time>2026-05-01T14:41:55.248Z</time></trkpt><trkpt lat="45.5856433" lon="5.26707"><ele>246.5</ele><time>2026-05-01T14:41:56.249Z</time></trkpt><trkpt lat="45.58563" lon="5.266885"><ele>246.0</ele><time>2026-05-01T14:41:57.248Z</time></trkpt><trkpt lat="45.585625" lon="5.2667067"><ele>245.5</ele><time>2026-05-01T14:41:58.249Z</time></trkpt><trkpt lat="45.5856217" lon="5.26653"><ele>245.0</ele><time>2026-05-01T14:41:59.248Z</time></trkpt><trkpt lat="45.5856167" lon="5.2663583"><ele>244.75</ele><time>2026-05-01T14:42:00.248Z</time></trkpt><trkpt lat="45.58562" lon="5.2661967"><ele>244.5</ele><time>2026-05-01T14:42:01.248Z</time></trkpt><trkpt lat="45.5856183" lon="5.2660483"><ele>244.25</ele><time>2026-05-01T14:42:02.249Z</time></trkpt><trkpt lat="45.585605" lon="5.2658633"><ele>244.0</ele><time>2026-05-01T14:42:03.249Z</time></trkpt><trkpt lat="45.585595" lon="5.2656733"><ele>243.75</ele><time>2026-05-01T14:42:04.248Z</time></trkpt><trkpt lat="45.5855933" lon="5.2654767"><ele>243.5</ele><time>2026-05-01T14:42:05.249Z</time></trkpt><trkpt lat="45.585585" lon="5.2653033"><ele>243.25</ele><time>2026-05-01T14:42:06.248Z</time></trkpt><trkpt lat="45.58558" lon="5.26512"><ele>243.0</ele><time>2026-05-01T14:42:07.249Z</time></trkpt><trkpt lat="45.5855733" lon="5.264945"><ele>242.75</ele><time>2026-05-01T14:42:08.249Z</time></trkpt><trkpt lat="45.5855683" lon="5.264765"><ele>242.5</ele><time>2026-05-01T14:42:09.249Z</time></trkpt><trkpt lat="45.5855717" lon="5.2645817"><ele>242.25</ele><time>2026-05-01T14:42:10.249Z</time></trkpt><trkpt lat="45.5855667" lon="5.2643967"><ele>242.0</ele><time>2026-05-01T14:42:11.248Z</time></trkpt><trkpt lat="45.5855633" lon="5.2642183"><ele>242.0</ele><time>2026-05-01T14:42:12.248Z</time></trkpt><trkpt lat="45.585565" lon="5.26403"><ele>242.0</ele><time>2026-05-01T14:42:13.248Z</time></trkpt><trkpt lat="45.5855517" lon="5.263835"><ele>242.0</ele><time>2026-05-01T14:42:14.248Z</time></trkpt><trkpt lat="45.58554" lon="5.26364"><ele>242.0</ele><time>2026-05-01T14:42:15.248Z</time></trkpt><trkpt lat="45.585535" lon="5.2634417"><ele>242.0</ele><time>2026-05-01T14:42:16.249Z</time></trkpt><trkpt lat="45.5855317" lon="5.26325"><ele>242.0</ele><time>2026-05-01T14:42:17.248Z</time></trkpt><trkpt lat="45.5855333" lon="5.26305"><ele>242.0</ele><time>2026-05-01T14:42:18.249Z</time></trkpt><trkpt lat="45.5855333" lon="5.2628517"><ele>242.0</ele><time>2026-05-01T14:42:19.249Z</time></trkpt><trkpt lat="45.5855333" lon="5.2626517"><ele>241.75</ele><time>2026-05-01T14:42:20.249Z</time></trkpt><trkpt lat="45.5855317" lon="5.262455"><ele>241.5</ele><time>2026-05-01T14:42:21.249Z</time></trkpt><trkpt lat="45.5855317" lon="5.2622683"><ele>241.25</ele><time>2026-05-01T14:42:22.249Z</time></trkpt><trkpt lat="45.58553" lon="5.2620883"><ele>241.0</ele><time>2026-05-01T14:42:23.249Z</time></trkpt><trkpt lat="45.58551" lon="5.2618867"><ele>240.8</ele><time>2026-05-01T14:42:24.249Z</time></trkpt><trkpt lat="45.5854983" lon="5.2617133"><ele>240.60000000000002</ele><time>2026-05-01T14:42:25.249Z</time></trkpt><trkpt lat="45.5854933" lon="5.2615517"><ele>240.4</ele><time>2026-05-01T14:42:26.249Z</time></trkpt><trkpt lat="45.5854817" lon="5.261395"><ele>240.2</ele><time>2026-05-01T14:42:27.248Z</time></trkpt><trkpt lat="45.5854733" lon="5.2612567"><ele>240.0</ele><time>2026-05-01T14:42:28.249Z</time></trkpt><trkpt lat="45.5854833" lon="5.261125"><ele>240.0</ele><time>2026-05-01T14:42:29.249Z</time></trkpt><trkpt lat="45.5854833" lon="5.261005"><ele>240.0</ele><time>2026-05-01T14:42:30.248Z</time></trkpt><trkpt lat="45.5855" lon="5.26089"><ele>240.0</ele><time>2026-05-01T14:42:31.249Z</time></trkpt><trkpt lat="45.5855233" lon="5.2608"><ele>240.0</ele><time>2026-05-01T14:42:32.248Z</time></trkpt><trkpt lat="45.5855567" lon="5.2607183"><ele>240.0</ele><time>2026-05-01T14:42:33.249Z</time></trkpt><trkpt lat="45.5856817" lon="5.260695"><ele>240.0</ele><time>2026-05-01T14:42:35.249Z</time></trkpt><trkpt lat="45.585775" lon="5.2607033"><ele>240.0</ele><time>2026-05-01T14:42:36.249Z</time></trkpt><trkpt lat="45.5858467" lon="5.26068"><ele>240.0</ele><time>2026-05-01T14:42:37.248Z</time></trkpt><trkpt lat="45.58592" lon="5.2606367"><ele>240.0</ele><time>2026-05-01T14:42:38.249Z</time></trkpt><trkpt lat="45.5859817" lon="5.260575"><ele>240.0</ele><time>2026-05-01T14:42:39.249Z</time></trkpt><trkpt lat="45.58603" lon="5.260485"><ele>240.0</ele><time>2026-05-01T14:42:40.249Z</time></trkpt><trkpt lat="45.586085" lon="5.26039"><ele>240.0</ele><time>2026-05-01T14:42:41.249Z</time></trkpt><trkpt lat="45.586155" lon="5.2602817"><ele>238.0</ele><time>2026-05-01T14:42:42.249Z</time></trkpt><trkpt lat="45.58625" lon="5.2601883"><ele>236.0</ele><time>2026-05-01T14:42:43.248Z</time></trkpt><trkpt lat="45.5863667" lon="5.26011"><ele>234.0</ele><time>2026-05-01T14:42:44.249Z</time></trkpt><trkpt lat="45.5865033" lon="5.260045"><ele>232.0</ele><time>2026-05-01T14:42:45.248Z</time></trkpt><trkpt lat="45.5866583" lon="5.2599883"><ele>232.0</ele><time>2026-05-01T14:42:46.248Z</time></trkpt><trkpt lat="45.58682" lon="5.2599583"><ele>232.0</ele><time>2026-05-01T14:42:47.249Z</time></trkpt><trkpt lat="45.5869683" lon="5.2599317"><ele>232.0</ele><time>2026-05-01T14:42:48.249Z</time></trkpt><trkpt lat="45.5871217" lon="5.25988"><ele>231.66666666666666</ele><time>2026-05-01T14:42:49.249Z</time></trkpt><trkpt lat="45.58727" lon="5.2598183"><ele>231.33333333333331</ele><time>2026-05-01T14:42:50.249Z</time></trkpt><trkpt lat="45.587445" lon="5.2597617"><ele>231.0</ele><time>2026-05-01T14:42:51.249Z</time></trkpt><trkpt lat="45.5876267" lon="5.2597"><ele>230.66666666666669</ele><time>2026-05-01T14:42:52.248Z</time></trkpt><trkpt lat="45.58781" lon="5.2596333"><ele>230.33333333333334</ele><time>2026-05-01T14:42:53.248Z</time></trkpt><trkpt lat="45.5879733" lon="5.25957"><ele>230.0</ele><time>2026-05-01T14:42:54.249Z</time></trkpt><trkpt lat="45.5881283" lon="5.259515"><ele>229.66666666666669</ele><time>2026-05-01T14:42:55.249Z</time></trkpt><trkpt lat="45.588275" lon="5.2594567"><ele>229.33333333333331</ele><time>2026-05-01T14:42:56.249Z</time></trkpt><trkpt lat="45.5884267" lon="5.2593767"><ele>229.0</ele><time>2026-05-01T14:42:57.248Z</time></trkpt><trkpt lat="45.588555" lon="5.2593"><ele>228.75</ele><time>2026-05-01T14:42:58.248Z</time></trkpt><trkpt lat="45.5886783" lon="5.25921"><ele>228.5</ele><time>2026-05-01T14:42:59.249Z</time></trkpt><trkpt lat="45.588795" lon="5.2591283"><ele>228.25</ele><time>2026-05-01T14:43:00.248Z</time></trkpt><trkpt lat="45.5888817" lon="5.2590617"><ele>228.0</ele><time>2026-05-01T14:43:01.249Z</time></trkpt><trkpt lat="45.58897" lon="5.25897"><ele>228.2</ele><time>2026-05-01T14:43:02.248Z</time></trkpt><trkpt lat="45.58905" lon="5.2588817"><ele>228.4</ele><time>2026-05-01T14:43:03.249Z</time></trkpt><trkpt lat="45.589125" lon="5.25879"><ele>228.59999999999997</ele><time>2026-05-01T14:43:04.249Z</time></trkpt><trkpt lat="45.5892033" lon="5.258695"><ele>228.79999999999998</ele><time>2026-05-01T14:43:05.249Z</time></trkpt><trkpt lat="45.5892733" lon="5.2586067"><ele>229.0</ele><time>2026-05-01T14:43:06.249Z</time></trkpt><trkpt lat="45.5893367" lon="5.258525"><ele>228.99999999999997</ele><time>2026-05-01T14:43:07.249Z</time></trkpt><trkpt lat="45.5893967" lon="5.2584267"><ele>229.0</ele><time>2026-05-01T14:43:08.249Z</time></trkpt><trkpt lat="45.589445" lon="5.2583667"><ele>229.0</ele><time>2026-05-01T14:43:09.249Z</time></trkpt><trkpt lat="45.589525" lon="5.2582983"><ele>229.0</ele><time>2026-05-01T14:43:11.249Z</time></trkpt><trkpt lat="45.58959" lon="5.25829"><ele>228.99999999999997</ele><time>2026-05-01T14:43:13.248Z</time></trkpt><trkpt lat="45.5896833" lon="5.25837"><ele>229.0</ele><time>2026-05-01T14:43:15.249Z</time></trkpt><trkpt lat="45.58976" lon="5.2584167"><ele>228.99999999999997</ele><time>2026-05-01T14:43:16.249Z</time></trkpt><trkpt lat="45.589845" lon="5.258445"><ele>229.0</ele><time>2026-05-01T14:43:17.249Z</time></trkpt><trkpt lat="45.5899233" lon="5.2584517"><ele>229.0</ele><time>2026-05-01T14:43:18.249Z</time></trkpt><trkpt lat="45.59001" lon="5.2584133"><ele>229.0</ele><time>2026-05-01T14:43:19.248Z</time></trkpt><trkpt lat="45.5900833" lon="5.258355"><ele>228.99999999999997</ele><time>2026-05-01T14:43:20.249Z</time></trkpt><trkpt lat="45.5901467" lon="5.25825"><ele>229.0</ele><time>2026-05-01T14:43:21.249Z</time></trkpt><trkpt lat="45.5901883" lon="5.2580983"><ele>228.66666666666666</ele><time>2026-05-01T14:43:22.248Z</time></trkpt><trkpt lat="45.5902133" lon="5.2579033"><ele>228.33333333333331</ele><time>2026-05-01T14:43:23.248Z</time></trkpt><trkpt lat="45.5902183" lon="5.2576483"><ele>228.0</ele><time>2026-05-01T14:43:24.249Z</time></trkpt><trkpt lat="45.5902583" lon="5.2574433"><ele>227.66666666666669</ele><time>2026-05-01T14:43:25.249Z</time></trkpt><trkpt lat="45.590305" lon="5.2572267"><ele>227.33333333333334</ele><time>2026-05-01T14:43:26.249Z</time></trkpt><trkpt lat="45.590355" lon="5.2570017"><ele>227.0</ele><time>2026-05-01T14:43:27.248Z</time></trkpt><trkpt lat="45.5904183" lon="5.2567683"><ele>227.0</ele><time>2026-05-01T14:43:28.248Z</time></trkpt><trkpt lat="45.5904867" lon="5.2565467"><ele>227.0</ele><time>2026-05-01T14:43:29.249Z</time></trkpt><trkpt lat="45.590565" lon="5.2563183"><ele>227.0</ele><time>2026-05-01T14:43:30.248Z</time></trkpt><trkpt lat="45.590645" lon="5.2560567"><ele>226.66666666666669</ele><time>2026-05-01T14:43:31.249Z</time></trkpt><trkpt lat="45.5907333" lon="5.25581"><ele>226.33333333333331</ele><time>2026-05-01T14:43:32.249Z</time></trkpt><trkpt lat="45.590825" lon="5.25555"><ele>226.0</ele><time>2026-05-01T14:43:33.249Z</time></trkpt><trkpt lat="45.5908983" lon="5.255245"><ele>226.0</ele><time>2026-05-01T14:43:34.249Z</time></trkpt><trkpt lat="45.5909933" lon="5.25495"><ele>226.0</ele><time>2026-05-01T14:43:35.249Z</time></trkpt><trkpt lat="45.5910917" lon="5.2546417"><ele>226.5</ele><time>2026-05-01T14:43:36.248Z</time></trkpt><trkpt lat="45.591185" lon="5.2543183"><ele>227.0</ele><time>2026-05-01T14:43:37.248Z</time></trkpt><trkpt lat="45.5912733" lon="5.2539917"><ele>226.5</ele><time>2026-05-01T14:43:38.249Z</time></trkpt><trkpt lat="45.59137" lon="5.25366"><ele>226.0</ele><time>2026-05-01T14:43:39.249Z</time></trkpt><trkpt lat="45.5914733" lon="5.2533283"><ele>226.5</ele><time>2026-05-01T14:43:40.249Z</time></trkpt><trkpt lat="45.5915867" lon="5.2529833"><ele>227.0</ele><time>2026-05-01T14:43:41.249Z</time></trkpt><trkpt lat="45.5917033" lon="5.2526283"><ele>226.0</ele><time>2026-05-01T14:43:42.249Z</time></trkpt><trkpt lat="45.5918133" lon="5.252265"><ele>225.0</ele><time>2026-05-01T14:43:43.249Z</time></trkpt><trkpt lat="45.59192" lon="5.2519"><ele>226.5</ele><time>2026-05-01T14:43:44.249Z</time></trkpt><trkpt lat="45.5920317" lon="5.2515217"><ele>228.0</ele><time>2026-05-01T14:43:45.249Z</time></trkpt><trkpt lat="45.5921517" lon="5.2511567"><ele>228.0</ele><time>2026-05-01T14:43:46.249Z</time></trkpt><trkpt lat="45.592265" lon="5.2508117"><ele>228.0</ele><time>2026-05-01T14:43:47.248Z</time></trkpt><trkpt lat="45.5923733" lon="5.2504767"><ele>228.0</ele><time>2026-05-01T14:43:48.249Z</time></trkpt><trkpt lat="45.59247" lon="5.2501583"><ele>228.0</ele><time>2026-05-01T14:43:49.249Z</time></trkpt><trkpt lat="45.5925667" lon="5.249865"><ele>227.33333333333331</ele><time>2026-05-01T14:43:50.249Z</time></trkpt><trkpt lat="45.5926467" lon="5.2496017"><ele>226.66666666666666</ele><time>2026-05-01T14:43:51.249Z</time></trkpt><trkpt lat="45.5927217" lon="5.2493733"><ele>226.0</ele><time>2026-05-01T14:43:52.249Z</time></trkpt><trkpt lat="45.592785" lon="5.2491533"><ele>225.75</ele><time>2026-05-01T14:43:53.248Z</time></trkpt><trkpt lat="45.5928383" lon="5.2489533"><ele>225.5</ele><time>2026-05-01T14:43:54.249Z</time></trkpt><trkpt lat="45.5929" lon="5.2487617"><ele>225.25</ele><time>2026-05-01T14:43:55.249Z</time></trkpt><trkpt lat="45.5929433" lon="5.2485967"><ele>225.0</ele><time>2026-05-01T14:43:56.249Z</time></trkpt><trkpt lat="45.5930017" lon="5.2484467"><ele>225.0</ele><time>2026-05-01T14:43:57.249Z</time></trkpt><trkpt lat="45.593055" lon="5.2482933"><ele>225.0</ele><time>2026-05-01T14:43:58.248Z</time></trkpt><trkpt lat="45.5931033" lon="5.248145"><ele>225.0</ele><time>2026-05-01T14:43:59.249Z</time></trkpt><trkpt lat="45.5931617" lon="5.2480133"><ele>225.0</ele><time>2026-05-01T14:44:00.249Z</time></trkpt><trkpt lat="45.5932367" lon="5.247905"><ele>224.8</ele><time>2026-05-01T14:44:01.249Z</time></trkpt><trkpt lat="45.5933167" lon="5.247815"><ele>224.6</ele><time>2026-05-01T14:44:02.249Z</time></trkpt><trkpt lat="45.5933933" lon="5.24774"><ele>224.39999999999998</ele><time>2026-05-01T14:44:03.248Z</time></trkpt><trkpt lat="45.5934583" lon="5.2476517"><ele>224.2</ele><time>2026-05-01T14:44:04.249Z</time></trkpt><trkpt lat="45.5935167" lon="5.2475217"><ele>224.0</ele><time>2026-05-01T14:44:05.248Z</time></trkpt><trkpt lat="45.5935617" lon="5.2474083"><ele>224.0</ele><time>2026-05-01T14:44:06.249Z</time></trkpt><trkpt lat="45.593575" lon="5.2472667"><ele>223.99999999999997</ele><time>2026-05-01T14:44:07.249Z</time></trkpt><trkpt lat="45.5935533" lon="5.2471067"><ele>223.99999999999997</ele><time>2026-05-01T14:44:08.249Z</time></trkpt><trkpt lat="45.59354" lon="5.2469517"><ele>224.0</ele><time>2026-05-01T14:44:09.248Z</time></trkpt><trkpt lat="45.59355" lon="5.2468"><ele>224.0</ele><time>2026-05-01T14:44:10.249Z</time></trkpt><trkpt lat="45.593585" lon="5.246635"><ele>224.0</ele><time>2026-05-01T14:44:11.249Z</time></trkpt><trkpt lat="45.593645" lon="5.2464783"><ele>224.0</ele><time>2026-05-01T14:44:12.249Z</time></trkpt><trkpt lat="45.5936983" lon="5.2462567"><ele>224.0</ele><time>2026-05-01T14:44:13.249Z</time></trkpt><trkpt lat="45.5937767" lon="5.246035"><ele>224.0</ele><time>2026-05-01T14:44:14.249Z</time></trkpt><trkpt lat="45.5938617" lon="5.24578"><ele>224.0</ele><time>2026-05-01T14:44:15.248Z</time></trkpt><trkpt lat="45.5939567" lon="5.24551"><ele>224.0</ele><time>2026-05-01T14:44:16.249Z</time></trkpt><trkpt lat="45.5940533" lon="5.2452183"><ele>224.0</ele><time>2026-05-01T14:44:17.249Z</time></trkpt><trkpt lat="45.594165" lon="5.244905"><ele>224.0</ele><time>2026-05-01T14:44:18.248Z</time></trkpt><trkpt lat="45.5942867" lon="5.2445933"><ele>224.5</ele><time>2026-05-01T14:44:19.248Z</time></trkpt><trkpt lat="45.5943983" lon="5.2442633"><ele>225.0</ele><time>2026-05-01T14:44:20.249Z</time></trkpt><trkpt lat="45.59452" lon="5.2439767"><ele>224.33333333333331</ele><time>2026-05-01T14:44:21.248Z</time></trkpt><trkpt lat="45.5946417" lon="5.2437"><ele>223.66666666666666</ele><time>2026-05-01T14:44:22.249Z</time></trkpt><trkpt lat="45.5947617" lon="5.2434533"><ele>223.0</ele><time>2026-05-01T14:44:23.248Z</time></trkpt><trkpt lat="45.5948717" lon="5.2432317"><ele>223.33333333333331</ele><time>2026-05-01T14:44:24.249Z</time></trkpt><trkpt lat="45.5949667" lon="5.2430383"><ele>223.66666666666669</ele><time>2026-05-01T14:44:25.249Z</time></trkpt><trkpt lat="45.595075" lon="5.24289"><ele>224.0</ele><time>2026-05-01T14:44:26.249Z</time></trkpt><trkpt lat="45.5951817" lon="5.2427317"><ele>224.0</ele><time>2026-05-01T14:44:27.249Z</time></trkpt><trkpt lat="45.5952833" lon="5.242575"><ele>224.0</ele><time>2026-05-01T14:44:28.249Z</time></trkpt><trkpt lat="45.5953683" lon="5.242425"><ele>224.0</ele><time>2026-05-01T14:44:29.248Z</time></trkpt><trkpt lat="45.59546" lon="5.2423"><ele>224.0</ele><time>2026-05-01T14:44:30.249Z</time></trkpt><trkpt lat="45.5955517" lon="5.24216"><ele>223.75</ele><time>2026-05-01T14:44:31.248Z</time></trkpt><trkpt lat="45.595635" lon="5.24202"><ele>223.5</ele><time>2026-05-01T14:44:32.248Z</time></trkpt><trkpt lat="45.5957317" lon="5.2418817"><ele>223.25</ele><time>2026-05-01T14:44:33.249Z</time></trkpt><trkpt lat="45.595825" lon="5.2417483"><ele>223.0</ele><time>2026-05-01T14:44:34.249Z</time></trkpt><trkpt lat="45.595925" lon="5.2416133"><ele>223.0</ele><time>2026-05-01T14:44:35.249Z</time></trkpt><trkpt lat="45.5960267" lon="5.24148"><ele>223.0</ele><time>2026-05-01T14:44:36.249Z</time></trkpt><trkpt lat="45.59613" lon="5.24137"><ele>223.0</ele><time>2026-05-01T14:44:37.249Z</time></trkpt><trkpt lat="45.596225" lon="5.2412767"><ele>223.0</ele><time>2026-05-01T14:44:38.249Z</time></trkpt><trkpt lat="45.5963233" lon="5.2411817"><ele>222.75</ele><time>2026-05-01T14:44:39.249Z</time></trkpt><trkpt lat="45.596405" lon="5.24109"><ele>222.5</ele><time>2026-05-01T14:44:40.249Z</time></trkpt><trkpt lat="45.5964817" lon="5.24098"><ele>222.25</ele><time>2026-05-01T14:44:41.249Z</time></trkpt><trkpt lat="45.5965633" lon="5.2408567"><ele>222.0</ele><time>2026-05-01T14:44:42.249Z</time></trkpt><trkpt lat="45.5966567" lon="5.2407"><ele>222.0</ele><time>2026-05-01T14:44:43.249Z</time></trkpt><trkpt lat="45.5967667" lon="5.2405533"><ele>222.0</ele><time>2026-05-01T14:44:44.249Z</time></trkpt><trkpt lat="45.5969" lon="5.2404017"><ele>222.0</ele><time>2026-05-01T14:44:45.248Z</time></trkpt><trkpt lat="45.5970517" lon="5.2402417"><ele>222.33333333333331</ele><time>2026-05-01T14:44:46.249Z</time></trkpt><trkpt lat="45.597225" lon="5.2400533"><ele>222.66666666666666</ele><time>2026-05-01T14:44:47.249Z</time></trkpt><trkpt lat="45.597395" lon="5.23987"><ele>223.0</ele><time>2026-05-01T14:44:48.248Z</time></trkpt><trkpt lat="45.5975783" lon="5.2396633"><ele>223.66666666666666</ele><time>2026-05-01T14:44:49.249Z</time></trkpt><trkpt lat="45.597755" lon="5.2394617"><ele>224.33333333333331</ele><time>2026-05-01T14:44:50.249Z</time></trkpt><trkpt lat="45.5979217" lon="5.2392583"><ele>225.0</ele><time>2026-05-01T14:44:51.249Z</time></trkpt><trkpt lat="45.5980983" lon="5.2390517"><ele>223.0</ele><time>2026-05-01T14:44:52.249Z</time></trkpt><trkpt lat="45.598285" lon="5.2388267"><ele>221.0</ele><time>2026-05-01T14:44:53.249Z</time></trkpt><trkpt lat="45.598475" lon="5.2386217"><ele>221.0</ele><time>2026-05-01T14:44:54.249Z</time></trkpt><trkpt lat="45.59867" lon="5.2384017"><ele>221.0</ele><time>2026-05-01T14:44:55.249Z</time></trkpt><trkpt lat="45.5988683" lon="5.2381833"><ele>221.5</ele><time>2026-05-01T14:44:56.249Z</time></trkpt><trkpt lat="45.59907" lon="5.2379583"><ele>222.0</ele><time>2026-05-01T14:44:57.249Z</time></trkpt><trkpt lat="45.5992567" lon="5.237745"><ele>222.0</ele><time>2026-05-01T14:44:58.249Z</time></trkpt><trkpt lat="45.59943" lon="5.2375483"><ele>222.0</ele><time>2026-05-01T14:44:59.248Z</time></trkpt><trkpt lat="45.599605" lon="5.2373667"><ele>222.0</ele><time>2026-05-01T14:45:00.249Z</time></trkpt><trkpt lat="45.5997717" lon="5.237175"><ele>221.66666666666669</ele><time>2026-05-01T14:45:01.249Z</time></trkpt><trkpt lat="45.59993" lon="5.23698"><ele>221.33333333333334</ele><time>2026-05-01T14:45:02.249Z</time></trkpt><trkpt lat="45.6001" lon="5.236775"><ele>221.0</ele><time>2026-05-01T14:45:03.249Z</time></trkpt><trkpt lat="45.6002583" lon="5.2365967"><ele>220.33333333333334</ele><time>2026-05-01T14:45:04.248Z</time></trkpt><trkpt lat="45.6004233" lon="5.2364183"><ele>219.66666666666669</ele><time>2026-05-01T14:45:05.248Z</time></trkpt><trkpt lat="45.6005733" lon="5.2362383"><ele>219.0</ele><time>2026-05-01T14:45:06.249Z</time></trkpt><trkpt lat="45.6007217" lon="5.2360533"><ele>219.0</ele><time>2026-05-01T14:45:07.249Z</time></trkpt><trkpt lat="45.600885" lon="5.2358767"><ele>219.0</ele><time>2026-05-01T14:45:08.249Z</time></trkpt><trkpt lat="45.6010467" lon="5.23571"><ele>219.0</ele><time>2026-05-01T14:45:09.249Z</time></trkpt><trkpt lat="45.60121" lon="5.23554"><ele>219.0</ele><time>2026-05-01T14:45:10.248Z</time></trkpt><trkpt lat="45.60137" lon="5.2353783"><ele>219.0</ele><time>2026-05-01T14:45:11.248Z</time></trkpt><trkpt lat="45.6015233" lon="5.2352267"><ele>219.0</ele><time>2026-05-01T14:45:12.248Z</time></trkpt><trkpt lat="45.6016567" lon="5.2350783"><ele>219.0</ele><time>2026-05-01T14:45:13.247Z</time></trkpt><trkpt lat="45.6017883" lon="5.2349367"><ele>219.0</ele><time>2026-05-01T14:45:14.248Z</time></trkpt><trkpt lat="45.6019233" lon="5.2347883"><ele>219.0</ele><time>2026-05-01T14:45:15.248Z</time></trkpt><trkpt lat="45.60207" lon="5.2346267"><ele>219.33333333333331</ele><time>2026-05-01T14:45:16.248Z</time></trkpt><trkpt lat="45.6022017" lon="5.234475"><ele>219.66666666666666</ele><time>2026-05-01T14:45:17.248Z</time></trkpt><trkpt lat="45.6023183" lon="5.2343417"><ele>220.0</ele><time>2026-05-01T14:45:18.247Z</time></trkpt><trkpt lat="45.6024317" lon="5.2342067"><ele>220.0</ele><time>2026-05-01T14:45:19.248Z</time></trkpt><trkpt lat="45.602535" lon="5.2340983"><ele>220.0</ele><time>2026-05-01T14:45:20.248Z</time></trkpt><trkpt lat="45.60263" lon="5.23401"><ele>220.0</ele><time>2026-05-01T14:45:21.248Z</time></trkpt><trkpt lat="45.6027167" lon="5.2339117"><ele>220.0</ele><time>2026-05-01T14:45:22.248Z</time></trkpt><trkpt lat="45.6028" lon="5.2338183"><ele>219.66666666666666</ele><time>2026-05-01T14:45:23.248Z</time></trkpt><trkpt lat="45.6028767" lon="5.2337267"><ele>219.33333333333331</ele><time>2026-05-01T14:45:24.248Z</time></trkpt><trkpt lat="45.6029517" lon="5.2336467"><ele>219.0</ele><time>2026-05-01T14:45:25.248Z</time></trkpt><trkpt lat="45.6030167" lon="5.233585"><ele>218.66666666666669</ele><time>2026-05-01T14:45:26.248Z</time></trkpt><trkpt lat="45.6030917" lon="5.2335083"><ele>218.33333333333334</ele><time>2026-05-01T14:45:27.248Z</time></trkpt><trkpt lat="45.6031667" lon="5.2334633"><ele>218.0</ele><time>2026-05-01T14:45:28.247Z</time></trkpt><trkpt lat="45.6032483" lon="5.2334267"><ele>218.0</ele><time>2026-05-01T14:45:29.247Z</time></trkpt><trkpt lat="45.6033367" lon="5.2333967"><ele>218.0</ele><time>2026-05-01T14:45:30.248Z</time></trkpt><trkpt lat="45.6034267" lon="5.2333933"><ele>218.0</ele><time>2026-05-01T14:45:31.248Z</time></trkpt><trkpt lat="45.60352" lon="5.2333983"><ele>218.0</ele><time>2026-05-01T14:45:32.248Z</time></trkpt><trkpt lat="45.603615" lon="5.2333867"><ele>218.0</ele><time>2026-05-01T14:45:33.247Z</time></trkpt><trkpt lat="45.6037017" lon="5.23334"><ele>218.2</ele><time>2026-05-01T14:45:34.248Z</time></trkpt><trkpt lat="45.6037733" lon="5.2332683"><ele>218.4</ele><time>2026-05-01T14:45:35.248Z</time></trkpt><trkpt lat="45.60384" lon="5.2331583"><ele>218.59999999999997</ele><time>2026-05-01T14:45:36.247Z</time></trkpt><trkpt lat="45.60388" lon="5.2330217"><ele>218.79999999999998</ele><time>2026-05-01T14:45:37.247Z</time></trkpt><trkpt lat="45.60389" lon="5.23285"><ele>219.0</ele><time>2026-05-01T14:45:38.248Z</time></trkpt><trkpt lat="45.603925" lon="5.2326833"><ele>219.0</ele><time>2026-05-01T14:45:39.248Z</time></trkpt><trkpt lat="45.6039833" lon="5.2325117"><ele>219.0</ele><time>2026-05-01T14:45:40.248Z</time></trkpt><trkpt lat="45.6040917" lon="5.2323767"><ele>219.0</ele><time>2026-05-01T14:45:41.247Z</time></trkpt><trkpt lat="45.604215" lon="5.2322283"><ele>219.0</ele><time>2026-05-01T14:45:42.247Z</time></trkpt><trkpt lat="45.60434" lon="5.2320667"><ele>219.0</ele><time>2026-05-01T14:45:43.248Z</time></trkpt><trkpt lat="45.6044667" lon="5.2319217"><ele>219.0</ele><time>2026-05-01T14:45:44.248Z</time></trkpt><trkpt lat="45.6046017" lon="5.2317783"><ele>219.0</ele><time>2026-05-01T14:45:45.248Z</time></trkpt><trkpt lat="45.60474" lon="5.2316333"><ele>219.0</ele><time>2026-05-01T14:45:46.247Z</time></trkpt><trkpt lat="45.6048867" lon="5.23149"><ele>219.0</ele><time>2026-05-01T14:45:47.247Z</time></trkpt><trkpt lat="45.605055" lon="5.2313167"><ele>219.0</ele><time>2026-05-01T14:45:48.247Z</time></trkpt><trkpt lat="45.605225" lon="5.23114"><ele>218.5</ele><time>2026-05-01T14:45:49.248Z</time></trkpt><trkpt lat="45.605405" lon="5.2309367"><ele>218.0</ele><time>2026-05-01T14:45:50.248Z</time></trkpt><trkpt lat="45.605595" lon="5.230735"><ele>218.0</ele><time>2026-05-01T14:45:51.247Z</time></trkpt><trkpt lat="45.60578" lon="5.2305333"><ele>218.0</ele><time>2026-05-01T14:45:52.248Z</time></trkpt><trkpt lat="45.6059867" lon="5.230295"><ele>219.0</ele><time>2026-05-01T14:45:53.248Z</time></trkpt><trkpt lat="45.606185" lon="5.2300617"><ele>220.0</ele><time>2026-05-01T14:45:54.247Z</time></trkpt><trkpt lat="45.606395" lon="5.2298267"><ele>219.5</ele><time>2026-05-01T14:45:55.248Z</time></trkpt><trkpt lat="45.6066" lon="5.2296"><ele>219.0</ele><time>2026-05-01T14:45:56.248Z</time></trkpt><trkpt lat="45.606795" lon="5.2293883"><ele>219.0</ele><time>2026-05-01T14:45:57.248Z</time></trkpt><trkpt lat="45.6069917" lon="5.22917"><ele>219.0</ele><time>2026-05-01T14:45:58.247Z</time></trkpt><trkpt lat="45.6071867" lon="5.22893"><ele>219.5</ele><time>2026-05-01T14:45:59.248Z</time></trkpt><trkpt lat="45.6073767" lon="5.2286983"><ele>220.0</ele><time>2026-05-01T14:46:00.248Z</time></trkpt><trkpt lat="45.6075783" lon="5.228465"><ele>220.0</ele><time>2026-05-01T14:46:01.248Z</time></trkpt><trkpt lat="45.607785" lon="5.2282367"><ele>220.0</ele><time>2026-05-01T14:46:02.248Z</time></trkpt><trkpt lat="45.6079933" lon="5.228015"><ele>220.5</ele><time>2026-05-01T14:46:03.248Z</time></trkpt><trkpt lat="45.6081917" lon="5.2277867"><ele>221.0</ele><time>2026-05-01T14:46:04.248Z</time></trkpt><trkpt lat="45.6084017" lon="5.2275417"><ele>220.0</ele><time>2026-05-01T14:46:05.247Z</time></trkpt><trkpt lat="45.608605" lon="5.2272867"><ele>219.0</ele><time>2026-05-01T14:46:06.248Z</time></trkpt><trkpt lat="45.6088" lon="5.2270167"><ele>218.0</ele><time>2026-05-01T14:46:07.247Z</time></trkpt><trkpt lat="45.6089617" lon="5.2267517"><ele>217.0</ele><time>2026-05-01T14:46:08.247Z</time></trkpt><trkpt lat="45.6091233" lon="5.226445"><ele>216.5</ele><time>2026-05-01T14:46:09.247Z</time></trkpt><trkpt lat="45.6092817" lon="5.2261183"><ele>216.0</ele><time>2026-05-01T14:46:10.248Z</time></trkpt><trkpt lat="45.6094167" lon="5.2257967"><ele>216.0</ele><time>2026-05-01T14:46:11.248Z</time></trkpt><trkpt lat="45.6095283" lon="5.2254567"><ele>216.0</ele><time>2026-05-01T14:46:12.248Z</time></trkpt><trkpt lat="45.60963" lon="5.22509"><ele>216.0</ele><time>2026-05-01T14:46:13.248Z</time></trkpt><trkpt lat="45.6097317" lon="5.2247167"><ele>216.0</ele><time>2026-05-01T14:46:14.247Z</time></trkpt><trkpt lat="45.6098067" lon="5.22436"><ele>216.0</ele><time>2026-05-01T14:46:15.248Z</time></trkpt><trkpt lat="45.60986" lon="5.2240133"><ele>216.0</ele><time>2026-05-01T14:46:16.248Z</time></trkpt><trkpt lat="45.6099" lon="5.2236667"><ele>216.0</ele><time>2026-05-01T14:46:17.248Z</time></trkpt><trkpt lat="45.609935" lon="5.22332"><ele>216.0</ele><time>2026-05-01T14:46:18.247Z</time></trkpt><trkpt lat="45.6099517" lon="5.222975"><ele>216.0</ele><time>2026-05-01T14:46:19.248Z</time></trkpt><trkpt lat="45.609935" lon="5.2226217"><ele>216.0</ele><time>2026-05-01T14:46:20.248Z</time></trkpt><trkpt lat="45.6099283" lon="5.222275"><ele>216.0</ele><time>2026-05-01T14:46:21.248Z</time></trkpt><trkpt lat="45.6099033" lon="5.2219183"><ele>216.0</ele><time>2026-05-01T14:46:22.247Z</time></trkpt><trkpt lat="45.6098683" lon="5.221555"><ele>217.5</ele><time>2026-05-01T14:46:23.247Z</time></trkpt><trkpt lat="45.6098233" lon="5.2211817"><ele>219.0</ele><time>2026-05-01T14:46:24.248Z</time></trkpt><trkpt lat="45.6097683" lon="5.2208333"><ele>220.0</ele><time>2026-05-01T14:46:25.248Z</time></trkpt><trkpt lat="45.6097017" lon="5.2204767"><ele>221.0</ele><time>2026-05-01T14:46:26.247Z</time></trkpt><trkpt lat="45.609635" lon="5.2201133"><ele>221.0</ele><time>2026-05-01T14:46:27.248Z</time></trkpt><trkpt lat="45.6095533" lon="5.219765"><ele>221.0</ele><time>2026-05-01T14:46:28.248Z</time></trkpt><trkpt lat="45.609485" lon="5.2194133"><ele>219.5</ele><time>2026-05-01T14:46:29.247Z</time></trkpt><trkpt lat="45.6094483" lon="5.2190533"><ele>218.0</ele><time>2026-05-01T14:46:30.248Z</time></trkpt><trkpt lat="45.6093967" lon="5.2187133"><ele>218.0</ele><time>2026-05-01T14:46:31.248Z</time></trkpt><trkpt lat="45.6093467" lon="5.2183767"><ele>218.0</ele><time>2026-05-01T14:46:32.247Z</time></trkpt><trkpt lat="45.6093133" lon="5.2180633"><ele>218.5</ele><time>2026-05-01T14:46:33.248Z</time></trkpt><trkpt lat="45.6093033" lon="5.2177417"><ele>219.0</ele><time>2026-05-01T14:46:34.247Z</time></trkpt><trkpt lat="45.609295" lon="5.2174183"><ele>222.0</ele><time>2026-05-01T14:46:35.248Z</time></trkpt><trkpt lat="45.609325" lon="5.2170983"><ele>225.0</ele><time>2026-05-01T14:46:36.248Z</time></trkpt><trkpt lat="45.6093483" lon="5.2167567"><ele>226.0</ele><time>2026-05-01T14:46:37.248Z</time></trkpt><trkpt lat="45.6093783" lon="5.2164433"><ele>227.0</ele><time>2026-05-01T14:46:38.248Z</time></trkpt><trkpt lat="45.6094267" lon="5.2161233"><ele>226.0</ele><time>2026-05-01T14:46:39.248Z</time></trkpt><trkpt lat="45.6094933" lon="5.21579"><ele>225.0</ele><time>2026-05-01T14:46:40.248Z</time></trkpt><trkpt lat="45.609565" lon="5.2154683"><ele>225.0</ele><time>2026-05-01T14:46:41.248Z</time></trkpt><trkpt lat="45.6096567" lon="5.2151817"><ele>225.0</ele><time>2026-05-01T14:46:42.248Z</time></trkpt><trkpt lat="45.6097467" lon="5.21487"><ele>225.33333333333331</ele><time>2026-05-01T14:46:43.248Z</time></trkpt><trkpt lat="45.6098467" lon="5.2145733"><ele>225.66666666666666</ele><time>2026-05-01T14:46:44.248Z</time></trkpt><trkpt lat="45.6099467" lon="5.2143133"><ele>226.0</ele><time>2026-05-01T14:46:45.248Z</time></trkpt><trkpt lat="45.6100533" lon="5.2141"><ele>227.0</ele><time>2026-05-01T14:46:46.248Z</time></trkpt><trkpt lat="45.6101433" lon="5.21384"><ele>228.0</ele><time>2026-05-01T14:46:47.247Z</time></trkpt><trkpt lat="45.6102367" lon="5.2135683"><ele>229.0</ele><time>2026-05-01T14:46:48.248Z</time></trkpt><trkpt lat="45.6103117" lon="5.21328"><ele>228.0</ele><time>2026-05-01T14:46:49.248Z</time></trkpt><trkpt lat="45.6103667" lon="5.2129583"><ele>227.0</ele><time>2026-05-01T14:46:50.248Z</time></trkpt><trkpt lat="45.6104217" lon="5.2126217"><ele>227.5</ele><time>2026-05-01T14:46:51.248Z</time></trkpt><trkpt lat="45.6104733" lon="5.2122833"><ele>228.0</ele><time>2026-05-01T14:46:52.247Z</time></trkpt><trkpt lat="45.610535" lon="5.21194"><ele>228.0</ele><time>2026-05-01T14:46:53.248Z</time></trkpt><trkpt lat="45.61059" lon="5.2115833"><ele>228.0</ele><time>2026-05-01T14:46:54.247Z</time></trkpt><trkpt lat="45.61065" lon="5.2112517"><ele>228.0</ele><time>2026-05-01T14:46:55.248Z</time></trkpt><trkpt lat="45.6107217" lon="5.2109167"><ele>228.0</ele><time>2026-05-01T14:46:56.247Z</time></trkpt><trkpt lat="45.610765" lon="5.2105933"><ele>226.5</ele><time>2026-05-01T14:46:57.248Z</time></trkpt><trkpt lat="45.610815" lon="5.2102783"><ele>225.0</ele><time>2026-05-01T14:46:58.247Z</time></trkpt><trkpt lat="45.6108717" lon="5.209935"><ele>224.0</ele><time>2026-05-01T14:46:59.248Z</time></trkpt><trkpt lat="45.6109467" lon="5.209585"><ele>223.0</ele><time>2026-05-01T14:47:00.248Z</time></trkpt><trkpt lat="45.6110017" lon="5.20923"><ele>222.0</ele><time>2026-05-01T14:47:01.248Z</time></trkpt><trkpt lat="45.6110517" lon="5.208875"><ele>221.0</ele><time>2026-05-01T14:47:02.248Z</time></trkpt><trkpt lat="45.6111017" lon="5.2085233"><ele>220.0</ele><time>2026-05-01T14:47:03.248Z</time></trkpt><trkpt lat="45.61116" lon="5.2081583"><ele>219.0</ele><time>2026-05-01T14:47:04.248Z</time></trkpt><trkpt lat="45.61121" lon="5.2078117"><ele>219.0</ele><time>2026-05-01T14:47:05.247Z</time></trkpt><trkpt lat="45.6112667" lon="5.207455"><ele>219.0</ele><time>2026-05-01T14:47:06.248Z</time></trkpt><trkpt lat="45.61132" lon="5.2071"><ele>218.5</ele><time>2026-05-01T14:47:07.248Z</time></trkpt><trkpt lat="45.61137" lon="5.2067517"><ele>218.0</ele><time>2026-05-01T14:47:08.248Z</time></trkpt><trkpt lat="45.6114117" lon="5.2064067"><ele>217.5</ele><time>2026-05-01T14:47:09.248Z</time></trkpt><trkpt lat="45.6114483" lon="5.2060567"><ele>217.0</ele><time>2026-05-01T14:47:10.247Z</time></trkpt><trkpt lat="45.611495" lon="5.2057067"><ele>217.0</ele><time>2026-05-01T14:47:11.247Z</time></trkpt><trkpt lat="45.611555" lon="5.2053583"><ele>217.0</ele><time>2026-05-01T14:47:12.248Z</time></trkpt><trkpt lat="45.6116067" lon="5.205015"><ele>216.5</ele><time>2026-05-01T14:47:13.248Z</time></trkpt><trkpt lat="45.6116567" lon="5.20467"><ele>216.0</ele><time>2026-05-01T14:47:14.247Z</time></trkpt><trkpt lat="45.6117117" lon="5.20433"><ele>217.0</ele><time>2026-05-01T14:47:15.248Z</time></trkpt><trkpt lat="45.6117717" lon="5.20398"><ele>218.0</ele><time>2026-05-01T14:47:16.248Z</time></trkpt><trkpt lat="45.6118483" lon="5.203625"><ele>218.0</ele><time>2026-05-01T14:47:17.248Z</time></trkpt><trkpt lat="45.611945" lon="5.203265"><ele>218.0</ele><time>2026-05-01T14:47:18.247Z</time></trkpt><trkpt lat="45.6120417" lon="5.2029033"><ele>217.5</ele><time>2026-05-01T14:47:19.248Z</time></trkpt><trkpt lat="45.6121617" lon="5.20253"><ele>217.0</ele><time>2026-05-01T14:47:20.248Z</time></trkpt><trkpt lat="45.6122917" lon="5.2021917"><ele>217.0</ele><time>2026-05-01T14:47:21.247Z</time></trkpt><trkpt lat="45.6124217" lon="5.20185"><ele>217.0</ele><time>2026-05-01T14:47:22.247Z</time></trkpt><trkpt lat="45.6125467" lon="5.2014867"><ele>217.0</ele><time>2026-05-01T14:47:23.248Z</time></trkpt><trkpt lat="45.6126667" lon="5.2011167"><ele>217.0</ele><time>2026-05-01T14:47:24.247Z</time></trkpt><trkpt lat="45.612795" lon="5.2007433"><ele>217.5</ele><time>2026-05-01T14:47:25.248Z</time></trkpt><trkpt lat="45.6129167" lon="5.2004017"><ele>218.0</ele><time>2026-05-01T14:47:26.248Z</time></trkpt><trkpt lat="45.6130333" lon="5.200065"><ele>217.5</ele><time>2026-05-01T14:47:27.248Z</time></trkpt><trkpt lat="45.613145" lon="5.1997433"><ele>217.0</ele><time>2026-05-01T14:47:28.248Z</time></trkpt><trkpt lat="45.6132367" lon="5.1994517"><ele>217.0</ele><time>2026-05-01T14:47:29.247Z</time></trkpt><trkpt lat="45.613325" lon="5.199185"><ele>217.0</ele><time>2026-05-01T14:47:30.247Z</time></trkpt><trkpt lat="45.613405" lon="5.1989217"><ele>217.0</ele><time>2026-05-01T14:47:31.247Z</time></trkpt><trkpt lat="45.6134867" lon="5.1986867"><ele>217.0</ele><time>2026-05-01T14:47:32.248Z</time></trkpt><trkpt lat="45.613565" lon="5.19847"><ele>217.0</ele><time>2026-05-01T14:47:33.248Z</time></trkpt><trkpt lat="45.6136367" lon="5.198285"><ele>217.0</ele><time>2026-05-01T14:47:34.247Z</time></trkpt><trkpt lat="45.6137017" lon="5.198125"><ele>217.0</ele><time>2026-05-01T14:47:35.248Z</time></trkpt><trkpt lat="45.61377" lon="5.1980117"><ele>217.2</ele><time>2026-05-01T14:47:36.247Z</time></trkpt><trkpt lat="45.6138517" lon="5.19794"><ele>217.39999999999998</ele><time>2026-05-01T14:47:37.248Z</time></trkpt><trkpt lat="45.6139383" lon="5.1978933"><ele>217.60000000000002</ele><time>2026-05-01T14:47:38.247Z</time></trkpt><trkpt lat="45.6140267" lon="5.1978583"><ele>217.8</ele><time>2026-05-01T14:47:39.248Z</time></trkpt><trkpt lat="45.61411" lon="5.1977917"><ele>218.0</ele><time>2026-05-01T14:47:40.248Z</time></trkpt><trkpt lat="45.614175" lon="5.1976483"><ele>218.0</ele><time>2026-05-01T14:47:41.247Z</time></trkpt><trkpt lat="45.6142033" lon="5.19752"><ele>218.0</ele><time>2026-05-01T14:47:42.247Z</time></trkpt><trkpt lat="45.6142083" lon="5.1973717"><ele>218.0</ele><time>2026-05-01T14:47:43.248Z</time></trkpt><trkpt lat="45.61417" lon="5.1972083"><ele>218.0</ele><time>2026-05-01T14:47:44.247Z</time></trkpt><trkpt lat="45.614145" lon="5.1970283"><ele>218.0</ele><time>2026-05-01T14:47:45.247Z</time></trkpt><trkpt lat="45.61415" lon="5.19681"><ele>217.0</ele><time>2026-05-01T14:47:46.247Z</time></trkpt><trkpt lat="45.6141967" lon="5.1965767"><ele>216.0</ele><time>2026-05-01T14:47:47.248Z</time></trkpt><trkpt lat="45.6142633" lon="5.196345"><ele>215.0</ele><time>2026-05-01T14:47:48.247Z</time></trkpt><trkpt lat="45.6143333" lon="5.1960483"><ele>215.0</ele><time>2026-05-01T14:47:49.247Z</time></trkpt><trkpt lat="45.6144133" lon="5.1957567"><ele>215.0</ele><time>2026-05-01T14:47:50.248Z</time></trkpt><trkpt lat="45.614505" lon="5.1954317"><ele>215.0</ele><time>2026-05-01T14:47:51.248Z</time></trkpt><trkpt lat="45.6146" lon="5.195095"><ele>215.0</ele><time>2026-05-01T14:47:52.248Z</time></trkpt><trkpt lat="45.6147033" lon="5.19474"><ele>215.5</ele><time>2026-05-01T14:47:53.247Z</time></trkpt><trkpt lat="45.61482" lon="5.1943617"><ele>216.0</ele><time>2026-05-01T14:47:54.248Z</time></trkpt><trkpt lat="45.6149367" lon="5.1939983"><ele>216.0</ele><time>2026-05-01T14:47:55.248Z</time></trkpt><trkpt lat="45.61506" lon="5.1936233"><ele>216.0</ele><time>2026-05-01T14:47:56.248Z</time></trkpt><trkpt lat="45.6151817" lon="5.1932467"><ele>216.0</ele><time>2026-05-01T14:47:57.247Z</time></trkpt><trkpt lat="45.6153083" lon="5.192855"><ele>216.0</ele><time>2026-05-01T14:47:58.248Z</time></trkpt><trkpt lat="45.6154417" lon="5.1924633"><ele>215.5</ele><time>2026-05-01T14:47:59.248Z</time></trkpt><trkpt lat="45.6155783" lon="5.1920417"><ele>215.0</ele><time>2026-05-01T14:48:00.248Z</time></trkpt><trkpt lat="45.6157117" lon="5.1916233"><ele>215.5</ele><time>2026-05-01T14:48:01.248Z</time></trkpt><trkpt lat="45.6158517" lon="5.1911983"><ele>216.0</ele><time>2026-05-01T14:48:02.248Z</time></trkpt><trkpt lat="45.6159933" lon="5.1907733"><ele>216.0</ele><time>2026-05-01T14:48:03.248Z</time></trkpt><trkpt lat="45.6161333" lon="5.1903467"><ele>216.0</ele><time>2026-05-01T14:48:04.248Z</time></trkpt><trkpt lat="45.6162533" lon="5.1899267"><ele>214.5</ele><time>2026-05-01T14:48:05.248Z</time></trkpt><trkpt lat="45.6163767" lon="5.1895383"><ele>213.0</ele><time>2026-05-01T14:48:06.248Z</time></trkpt><trkpt lat="45.616495" lon="5.18916"><ele>213.5</ele><time>2026-05-01T14:48:07.248Z</time></trkpt><trkpt lat="45.6166083" lon="5.1887883"><ele>214.0</ele><time>2026-05-01T14:48:08.248Z</time></trkpt><trkpt lat="45.6167167" lon="5.188425"><ele>214.0</ele><time>2026-05-01T14:48:09.248Z</time></trkpt><trkpt lat="45.616825" lon="5.188065"><ele>214.0</ele><time>2026-05-01T14:48:10.248Z</time></trkpt><trkpt lat="45.6169333" lon="5.1877017"><ele>213.5</ele><time>2026-05-01T14:48:11.247Z</time></trkpt><trkpt lat="45.6170467" lon="5.18735"><ele>213.0</ele><time>2026-05-01T14:48:12.247Z</time></trkpt><trkpt lat="45.6171617" lon="5.187"><ele>213.0</ele><time>2026-05-01T14:48:13.248Z</time></trkpt><trkpt lat="45.6172683" lon="5.1866733"><ele>213.0</ele><time>2026-05-01T14:48:14.248Z</time></trkpt><trkpt lat="45.61738" lon="5.1863633"><ele>213.33333333333331</ele><time>2026-05-01T14:48:15.248Z</time></trkpt><trkpt lat="45.6174783" lon="5.186085"><ele>213.66666666666666</ele><time>2026-05-01T14:48:16.248Z</time></trkpt><trkpt lat="45.6175867" lon="5.185815"><ele>214.0</ele><time>2026-05-01T14:48:17.247Z</time></trkpt><trkpt lat="45.6176867" lon="5.1855567"><ele>214.0</ele><time>2026-05-01T14:48:18.248Z</time></trkpt><trkpt lat="45.617775" lon="5.18534"><ele>214.0</ele><time>2026-05-01T14:48:19.247Z</time></trkpt><trkpt lat="45.6178483" lon="5.18516"><ele>214.0</ele><time>2026-05-01T14:48:20.248Z</time></trkpt><trkpt lat="45.6179083" lon="5.1850133"><ele>214.0</ele><time>2026-05-01T14:48:21.248Z</time></trkpt><trkpt lat="45.6179583" lon="5.184905"><ele>214.16666666666666</ele><time>2026-05-01T14:48:22.248Z</time></trkpt><trkpt lat="45.618005" lon="5.1848167"><ele>214.33333333333331</ele><time>2026-05-01T14:48:23.248Z</time></trkpt><trkpt lat="45.61805" lon="5.184745"><ele>214.5</ele><time>2026-05-01T14:48:24.247Z</time></trkpt><trkpt lat="45.6181067" lon="5.18469"><ele>214.66666666666669</ele><time>2026-05-01T14:48:25.248Z</time></trkpt><trkpt lat="45.61817" lon="5.1846483"><ele>214.83333333333334</ele><time>2026-05-01T14:48:26.247Z</time></trkpt><trkpt lat="45.61825" lon="5.1846133"><ele>215.0</ele><time>2026-05-01T14:48:27.248Z</time></trkpt><trkpt lat="45.6183283" lon="5.1845467"><ele>215.0</ele><time>2026-05-01T14:48:28.248Z</time></trkpt><trkpt lat="45.6183967" lon="5.1844333"><ele>215.0</ele><time>2026-05-01T14:48:29.247Z</time></trkpt><trkpt lat="45.6184367" lon="5.1843017"><ele>215.0</ele><time>2026-05-01T14:48:30.248Z</time></trkpt><trkpt lat="45.6184417" lon="5.1841417"><ele>215.0</ele><time>2026-05-01T14:48:31.248Z</time></trkpt><trkpt lat="45.6184367" lon="5.18397"><ele>215.0</ele><time>2026-05-01T14:48:32.248Z</time></trkpt><trkpt lat="45.618445" lon="5.1838067"><ele>214.66666666666669</ele><time>2026-05-01T14:48:33.248Z</time></trkpt><trkpt lat="45.61847" lon="5.1836183"><ele>214.33333333333331</ele><time>2026-05-01T14:48:34.248Z</time></trkpt><trkpt lat="45.6185333" lon="5.1834367"><ele>214.0</ele><time>2026-05-01T14:48:35.247Z</time></trkpt><trkpt lat="45.618665" lon="5.1832733"><ele>214.66666666666666</ele><time>2026-05-01T14:48:36.248Z</time></trkpt><trkpt lat="45.6187983" lon="5.18308"><ele>215.33333333333331</ele><time>2026-05-01T14:48:37.248Z</time></trkpt><trkpt lat="45.61894" lon="5.1828417"><ele>216.0</ele><time>2026-05-01T14:48:38.248Z</time></trkpt><trkpt lat="45.6190933" lon="5.1825817"><ele>217.0</ele><time>2026-05-01T14:48:39.248Z</time></trkpt><trkpt lat="45.6192683" lon="5.1823217"><ele>218.0</ele><time>2026-05-01T14:48:40.248Z</time></trkpt><trkpt lat="45.6194383" lon="5.1820533"><ele>217.0</ele><time>2026-05-01T14:48:41.248Z</time></trkpt><trkpt lat="45.6196117" lon="5.1817633"><ele>216.0</ele><time>2026-05-01T14:48:42.248Z</time></trkpt><trkpt lat="45.61978" lon="5.1814767"><ele>216.0</ele><time>2026-05-01T14:48:43.248Z</time></trkpt><trkpt lat="45.6199517" lon="5.1811817"><ele>216.0</ele><time>2026-05-01T14:48:44.247Z</time></trkpt><trkpt lat="45.6201267" lon="5.1808867"><ele>217.0</ele><time>2026-05-01T14:48:45.248Z</time></trkpt><trkpt lat="45.620305" lon="5.1805917"><ele>218.0</ele><time>2026-05-01T14:48:46.247Z</time></trkpt><trkpt lat="45.6204867" lon="5.1803"><ele>218.0</ele><time>2026-05-01T14:48:47.247Z</time></trkpt><trkpt lat="45.6206617" lon="5.1799917"><ele>218.0</ele><time>2026-05-01T14:48:48.248Z</time></trkpt><trkpt lat="45.6208383" lon="5.179685"><ele>218.0</ele><time>2026-05-01T14:48:49.248Z</time></trkpt><trkpt lat="45.6210033" lon="5.1793783"><ele>218.0</ele><time>2026-05-01T14:48:50.248Z</time></trkpt><trkpt lat="45.6211633" lon="5.179085"><ele>218.0</ele><time>2026-05-01T14:48:51.248Z</time></trkpt><trkpt lat="45.62128" lon="5.17885"><ele>218.0</ele><time>2026-05-01T14:48:52.247Z</time></trkpt><trkpt lat="45.621385" lon="5.1786483"><ele>218.0</ele><time>2026-05-01T14:48:53.248Z</time></trkpt><trkpt lat="45.6214767" lon="5.17846"><ele>218.0</ele><time>2026-05-01T14:48:54.247Z</time></trkpt><trkpt lat="45.621565" lon="5.1782633"><ele>218.0</ele><time>2026-05-01T14:48:55.248Z</time></trkpt><trkpt lat="45.621655" lon="5.1780417"><ele>218.0</ele><time>2026-05-01T14:48:56.248Z</time></trkpt><trkpt lat="45.6217267" lon="5.177845"><ele>218.25</ele><time>2026-05-01T14:48:57.247Z</time></trkpt><trkpt lat="45.6217983" lon="5.17765"><ele>218.5</ele><time>2026-05-01T14:48:58.247Z</time></trkpt><trkpt lat="45.6218683" lon="5.1774883"><ele>218.75</ele><time>2026-05-01T14:48:59.248Z</time></trkpt><trkpt lat="45.62192" lon="5.1773283"><ele>219.0</ele><time>2026-05-01T14:49:00.247Z</time></trkpt><trkpt lat="45.6219717" lon="5.1771783"><ele>219.0</ele><time>2026-05-01T14:49:01.248Z</time></trkpt><trkpt lat="45.622025" lon="5.1770417"><ele>218.99999999999997</ele><time>2026-05-01T14:49:02.247Z</time></trkpt><trkpt lat="45.622095" lon="5.1769117"><ele>218.99999999999997</ele><time>2026-05-01T14:49:03.248Z</time></trkpt><trkpt lat="45.6221833" lon="5.1768067"><ele>219.0</ele><time>2026-05-01T14:49:04.248Z</time></trkpt><trkpt lat="45.6222717" lon="5.17672"><ele>219.0</ele><time>2026-05-01T14:49:05.248Z</time></trkpt><trkpt lat="45.6223483" lon="5.1766167"><ele>219.0</ele><time>2026-05-01T14:49:06.248Z</time></trkpt><trkpt lat="45.6224067" lon="5.1764583"><ele>219.0</ele><time>2026-05-01T14:49:07.248Z</time></trkpt><trkpt lat="45.6224433" lon="5.1763"><ele>219.0</ele><time>2026-05-01T14:49:08.248Z</time></trkpt><trkpt lat="45.6224533" lon="5.1761367"><ele>219.0</ele><time>2026-05-01T14:49:09.247Z</time></trkpt><trkpt lat="45.62245" lon="5.175965"><ele>219.0</ele><time>2026-05-01T14:49:10.247Z</time></trkpt><trkpt lat="45.6224583" lon="5.1757933"><ele>219.0</ele><time>2026-05-01T14:49:11.248Z</time></trkpt><trkpt lat="45.6225133" lon="5.1756183"><ele>219.0</ele><time>2026-05-01T14:49:12.248Z</time></trkpt><trkpt lat="45.6225833" lon="5.1754183"><ele>219.0</ele><time>2026-05-01T14:49:13.248Z</time></trkpt><trkpt lat="45.6226717" lon="5.1752"><ele>219.33333333333331</ele><time>2026-05-01T14:49:14.247Z</time></trkpt><trkpt lat="45.6227683" lon="5.1749483"><ele>219.66666666666666</ele><time>2026-05-01T14:49:15.248Z</time></trkpt><trkpt lat="45.6228667" lon="5.1746967"><ele>220.0</ele><time>2026-05-01T14:49:16.247Z</time></trkpt><trkpt lat="45.6229717" lon="5.17441"><ele>219.0</ele><time>2026-05-01T14:49:17.248Z</time></trkpt><trkpt lat="45.623085" lon="5.1740917"><ele>218.0</ele><time>2026-05-01T14:49:18.248Z</time></trkpt><trkpt lat="45.6231983" lon="5.1737667"><ele>218.0</ele><time>2026-05-01T14:49:19.248Z</time></trkpt><trkpt lat="45.62331" lon="5.173425"><ele>218.0</ele><time>2026-05-01T14:49:20.247Z</time></trkpt><trkpt lat="45.62343" lon="5.1731033"><ele>217.5</ele><time>2026-05-01T14:49:21.247Z</time></trkpt><trkpt lat="45.6235433" lon="5.1727617"><ele>217.0</ele><time>2026-05-01T14:49:22.248Z</time></trkpt><trkpt lat="45.62367" lon="5.172415"><ele>218.5</ele><time>2026-05-01T14:49:23.248Z</time></trkpt><trkpt lat="45.6237983" lon="5.17208"><ele>220.0</ele><time>2026-05-01T14:49:24.248Z</time></trkpt><trkpt lat="45.62392" lon="5.1717383"><ele>220.5</ele><time>2026-05-01T14:49:25.247Z</time></trkpt><trkpt lat="45.6240417" lon="5.1714"><ele>221.0</ele><time>2026-05-01T14:49:26.247Z</time></trkpt><trkpt lat="45.6241667" lon="5.1710517"><ele>221.0</ele><time>2026-05-01T14:49:27.248Z</time></trkpt><trkpt lat="45.6242983" lon="5.1707083"><ele>221.0</ele><time>2026-05-01T14:49:28.247Z</time></trkpt><trkpt lat="45.62442" lon="5.17036"><ele>220.5</ele><time>2026-05-01T14:49:29.247Z</time></trkpt><trkpt lat="45.6245367" lon="5.1700267"><ele>220.0</ele><time>2026-05-01T14:49:30.247Z</time></trkpt><trkpt lat="45.62466" lon="5.1697033"><ele>219.5</ele><time>2026-05-01T14:49:31.248Z</time></trkpt><trkpt lat="45.6247883" lon="5.1693667"><ele>219.0</ele><time>2026-05-01T14:49:32.248Z</time></trkpt><trkpt lat="45.6249117" lon="5.169005"><ele>220.5</ele><time>2026-05-01T14:49:33.248Z</time></trkpt><trkpt lat="45.6250317" lon="5.1686533"><ele>222.0</ele><time>2026-05-01T14:49:34.248Z</time></trkpt><trkpt lat="45.6251567" lon="5.16831"><ele>222.5</ele><time>2026-05-01T14:49:35.248Z</time></trkpt><trkpt lat="45.6252833" lon="5.16797"><ele>223.0</ele><time>2026-05-01T14:49:36.247Z</time></trkpt><trkpt lat="45.625405" lon="5.1676717"><ele>221.5</ele><time>2026-05-01T14:49:37.248Z</time></trkpt><trkpt lat="45.6255133" lon="5.1673683"><ele>220.0</ele><time>2026-05-01T14:49:38.248Z</time></trkpt><trkpt lat="45.6256167" lon="5.1670883"><ele>220.0</ele><time>2026-05-01T14:49:39.248Z</time></trkpt><trkpt lat="45.62571" lon="5.1668183"><ele>220.0</ele><time>2026-05-01T14:49:40.248Z</time></trkpt><trkpt lat="45.6257983" lon="5.1665717"><ele>220.0</ele><time>2026-05-01T14:49:41.248Z</time></trkpt><trkpt lat="45.6258717" lon="5.1663417"><ele>220.0</ele><time>2026-05-01T14:49:42.248Z</time></trkpt><trkpt lat="45.6259467" lon="5.1661283"><ele>220.0</ele><time>2026-05-01T14:49:43.247Z</time></trkpt><trkpt lat="45.62602" lon="5.165925"><ele>220.0</ele><time>2026-05-01T14:49:44.248Z</time></trkpt><trkpt lat="45.6260883" lon="5.1657233"><ele>220.25</ele><time>2026-05-01T14:49:45.248Z</time></trkpt><trkpt lat="45.6261333" lon="5.165535"><ele>220.5</ele><time>2026-05-01T14:49:46.248Z</time></trkpt><trkpt lat="45.6261783" lon="5.1653517"><ele>220.75</ele><time>2026-05-01T14:49:47.247Z</time></trkpt><trkpt lat="45.6262233" lon="5.1651817"><ele>221.0</ele><time>2026-05-01T14:49:48.248Z</time></trkpt><trkpt lat="45.6262667" lon="5.1650167"><ele>221.0</ele><time>2026-05-01T14:49:49.247Z</time></trkpt><trkpt lat="45.626325" lon="5.1648867"><ele>221.00000000000003</ele><time>2026-05-01T14:49:50.248Z</time></trkpt><trkpt lat="45.6264033" lon="5.1647833"><ele>221.00000000000003</ele><time>2026-05-01T14:49:51.248Z</time></trkpt><trkpt lat="45.6264983" lon="5.164735"><ele>221.0</ele><time>2026-05-01T14:49:52.247Z</time></trkpt><trkpt lat="45.6265983" lon="5.1647267"><ele>221.0</ele><time>2026-05-01T14:49:53.247Z</time></trkpt><trkpt lat="45.62668" lon="5.16469"><ele>220.60000000000002</ele><time>2026-05-01T14:49:54.247Z</time></trkpt><trkpt lat="45.6267633" lon="5.1646233"><ele>220.20000000000002</ele><time>2026-05-01T14:49:55.248Z</time></trkpt><trkpt lat="45.6268217" lon="5.164525"><ele>219.79999999999998</ele><time>2026-05-01T14:49:56.247Z</time></trkpt><trkpt lat="45.6268483" lon="5.1643867"><ele>219.39999999999998</ele><time>2026-05-01T14:49:57.248Z</time></trkpt><trkpt lat="45.62684" lon="5.1642217"><ele>219.0</ele><time>2026-05-01T14:49:58.247Z</time></trkpt><trkpt lat="45.626815" lon="5.1640433"><ele>219.0</ele><time>2026-05-01T14:49:59.248Z</time></trkpt><trkpt lat="45.6268183" lon="5.1638683"><ele>219.0</ele><time>2026-05-01T14:50:00.247Z</time></trkpt><trkpt lat="45.6268517" lon="5.1636583"><ele>219.0</ele><time>2026-05-01T14:50:01.248Z</time></trkpt><trkpt lat="45.6269333" lon="5.16347"><ele>219.0</ele><time>2026-05-01T14:50:02.248Z</time></trkpt><trkpt lat="45.6270267" lon="5.163245"><ele>219.0</ele><time>2026-05-01T14:50:03.247Z</time></trkpt><trkpt lat="45.627135" lon="5.1629883"><ele>219.0</ele><time>2026-05-01T14:50:04.248Z</time></trkpt><trkpt lat="45.6272217" lon="5.16271"><ele>219.0</ele><time>2026-05-01T14:50:05.247Z</time></trkpt><trkpt lat="45.6273233" lon="5.1624333"><ele>218.66666666666669</ele><time>2026-05-01T14:50:06.247Z</time></trkpt><trkpt lat="45.6274283" lon="5.1621617"><ele>218.33333333333334</ele><time>2026-05-01T14:50:07.248Z</time></trkpt><trkpt lat="45.6275317" lon="5.16189"><ele>218.0</ele><time>2026-05-01T14:50:08.248Z</time></trkpt><trkpt lat="45.6276367" lon="5.1616117"><ele>217.33333333333334</ele><time>2026-05-01T14:50:09.248Z</time></trkpt><trkpt lat="45.6277333" lon="5.161345"><ele>216.66666666666669</ele><time>2026-05-01T14:50:10.248Z</time></trkpt><trkpt lat="45.6278133" lon="5.161085"><ele>216.0</ele><time>2026-05-01T14:50:11.248Z</time></trkpt><trkpt lat="45.6278883" lon="5.160855"><ele>215.66666666666669</ele><time>2026-05-01T14:50:12.248Z</time></trkpt><trkpt lat="45.627965" lon="5.160655"><ele>215.33333333333334</ele><time>2026-05-01T14:50:13.248Z</time></trkpt><trkpt lat="45.6280483" lon="5.1604467"><ele>215.0</ele><time>2026-05-01T14:50:14.248Z</time></trkpt><trkpt lat="45.62813" lon="5.1602317"><ele>215.0</ele><time>2026-05-01T14:50:15.248Z</time></trkpt><trkpt lat="45.6282033" lon="5.1600083"><ele>215.0</ele><time>2026-05-01T14:50:16.248Z</time></trkpt><trkpt lat="45.6282883" lon="5.1597817"><ele>215.0</ele><time>2026-05-01T14:50:17.248Z</time></trkpt><trkpt lat="45.628365" lon="5.159565"><ele>214.66666666666669</ele><time>2026-05-01T14:50:18.248Z</time></trkpt><trkpt lat="45.6284567" lon="5.1593483"><ele>214.33333333333331</ele><time>2026-05-01T14:50:19.248Z</time></trkpt><trkpt lat="45.62853" lon="5.159145"><ele>214.0</ele><time>2026-05-01T14:50:20.248Z</time></trkpt><trkpt lat="45.6285983" lon="5.1589533"><ele>213.5</ele><time>2026-05-01T14:50:21.248Z</time></trkpt><trkpt lat="45.628665" lon="5.1587667"><ele>213.0</ele><time>2026-05-01T14:50:22.248Z</time></trkpt><trkpt lat="45.62874" lon="5.1585883"><ele>212.5</ele><time>2026-05-01T14:50:23.248Z</time></trkpt><trkpt lat="45.62882" lon="5.1584317"><ele>212.0</ele><time>2026-05-01T14:50:24.247Z</time></trkpt><trkpt lat="45.6289017" lon="5.15829"><ele>212.0</ele><time>2026-05-01T14:50:25.248Z</time></trkpt><trkpt lat="45.628995" lon="5.15819"><ele>212.0</ele><time>2026-05-01T14:50:26.248Z</time></trkpt><trkpt lat="45.6290817" lon="5.1581"><ele>212.0</ele><time>2026-05-01T14:50:27.248Z</time></trkpt><trkpt lat="45.629165" lon="5.15803"><ele>212.0</ele><time>2026-05-01T14:50:28.248Z</time></trkpt><trkpt lat="45.6292283" lon="5.1579733"><ele>212.0</ele><time>2026-05-01T14:50:29.247Z</time></trkpt><trkpt lat="45.62932" lon="5.1578983"><ele>212.00000000000003</ele><time>2026-05-01T14:50:31.248Z</time></trkpt><trkpt lat="45.6294167" lon="5.157895"><ele>212.0</ele><time>2026-05-01T14:50:33.248Z</time></trkpt><trkpt lat="45.6294883" lon="5.157895"><ele>212.0</ele><time>2026-05-01T14:50:34.248Z</time></trkpt><trkpt lat="45.6295583" lon="5.15788"><ele>212.0</ele><time>2026-05-01T14:50:35.248Z</time></trkpt><trkpt lat="45.6296267" lon="5.1578533"><ele>212.00000000000003</ele><time>2026-05-01T14:50:36.248Z</time></trkpt><trkpt lat="45.62971" lon="5.15779"><ele>212.0</ele><time>2026-05-01T14:50:37.248Z</time></trkpt><trkpt lat="45.6297833" lon="5.1577083"><ele>212.25</ele><time>2026-05-01T14:50:38.248Z</time></trkpt><trkpt lat="45.6298383" lon="5.157585"><ele>212.5</ele><time>2026-05-01T14:50:39.248Z</time></trkpt><trkpt lat="45.6298833" lon="5.1574483"><ele>212.75</ele><time>2026-05-01T14:50:40.247Z</time></trkpt><trkpt lat="45.6299433" lon="5.1573017"><ele>213.0</ele><time>2026-05-01T14:50:41.248Z</time></trkpt><trkpt lat="45.630025" lon="5.1571633"><ele>213.33333333333331</ele><time>2026-05-01T14:50:42.248Z</time></trkpt><trkpt lat="45.630135" lon="5.15701"><ele>213.66666666666666</ele><time>2026-05-01T14:50:43.248Z</time></trkpt><trkpt lat="45.6302667" lon="5.1568517"><ele>214.0</ele><time>2026-05-01T14:50:44.248Z</time></trkpt><trkpt lat="45.6304267" lon="5.1566933"><ele>213.0</ele><time>2026-05-01T14:50:45.248Z</time></trkpt><trkpt lat="45.63061" lon="5.1565133"><ele>212.0</ele><time>2026-05-01T14:50:46.248Z</time></trkpt><trkpt lat="45.6308183" lon="5.156325"><ele>212.0</ele><time>2026-05-01T14:50:47.248Z</time></trkpt><trkpt lat="45.631005" lon="5.156145"><ele>212.0</ele><time>2026-05-01T14:50:48.248Z</time></trkpt><trkpt lat="45.6311817" lon="5.15598"><ele>212.0</ele><time>2026-05-01T14:50:49.247Z</time></trkpt><trkpt lat="45.6313667" lon="5.155805"><ele>212.33333333333334</ele><time>2026-05-01T14:50:50.248Z</time></trkpt><trkpt lat="45.6315633" lon="5.155625"><ele>212.66666666666669</ele><time>2026-05-01T14:50:51.247Z</time></trkpt><trkpt lat="45.6317533" lon="5.1554783"><ele>213.0</ele><time>2026-05-01T14:50:52.248Z</time></trkpt><trkpt lat="45.63197" lon="5.155385"><ele>211.66666666666669</ele><time>2026-05-01T14:50:53.247Z</time></trkpt><trkpt lat="45.6321733" lon="5.1552867"><ele>210.33333333333334</ele><time>2026-05-01T14:50:54.247Z</time></trkpt><trkpt lat="45.6324" lon="5.1552217"><ele>209.0</ele><time>2026-05-01T14:50:55.248Z</time></trkpt><trkpt lat="45.6326133" lon="5.1551767"><ele>209.0</ele><time>2026-05-01T14:50:56.248Z</time></trkpt><trkpt lat="45.632815" lon="5.155155"><ele>209.0</ele><time>2026-05-01T14:50:57.248Z</time></trkpt><trkpt lat="45.6330233" lon="5.1551633"><ele>209.0</ele><time>2026-05-01T14:50:58.248Z</time></trkpt><trkpt lat="45.63321" lon="5.1552267"><ele>209.0</ele><time>2026-05-01T14:50:59.248Z</time></trkpt><trkpt lat="45.6334017" lon="5.155315"><ele>209.0</ele><time>2026-05-01T14:51:00.248Z</time></trkpt><trkpt lat="45.6335717" lon="5.1554233"><ele>209.0</ele><time>2026-05-01T14:51:01.248Z</time></trkpt><trkpt lat="45.6337467" lon="5.1555417"><ele>209.33333333333334</ele><time>2026-05-01T14:51:02.248Z</time></trkpt><trkpt lat="45.6339133" lon="5.1556717"><ele>209.66666666666669</ele><time>2026-05-01T14:51:03.247Z</time></trkpt><trkpt lat="45.63408" lon="5.1557983"><ele>210.0</ele><time>2026-05-01T14:51:04.248Z</time></trkpt><trkpt lat="45.63424" lon="5.1559317"><ele>210.0</ele><time>2026-05-01T14:51:05.247Z</time></trkpt><trkpt lat="45.63441" lon="5.1560717"><ele>210.0</ele><time>2026-05-01T14:51:06.248Z</time></trkpt><trkpt lat="45.6345733" lon="5.1562033"><ele>210.0</ele><time>2026-05-01T14:51:07.248Z</time></trkpt><trkpt lat="45.6347333" lon="5.1563233"><ele>210.0</ele><time>2026-05-01T14:51:08.248Z</time></trkpt><trkpt lat="45.6348783" lon="5.1564317"><ele>210.0</ele><time>2026-05-01T14:51:09.248Z</time></trkpt><trkpt lat="45.6350167" lon="5.1565333"><ele>210.0</ele><time>2026-05-01T14:51:10.248Z</time></trkpt><trkpt lat="45.6351283" lon="5.1566267"><ele>210.0</ele><time>2026-05-01T14:51:11.247Z</time></trkpt><trkpt lat="45.63524" lon="5.1567117"><ele>210.75</ele><time>2026-05-01T14:51:12.247Z</time></trkpt><trkpt lat="45.6353517" lon="5.156785"><ele>211.5</ele><time>2026-05-01T14:51:13.247Z</time></trkpt><trkpt lat="45.635455" lon="5.156865"><ele>212.25</ele><time>2026-05-01T14:51:14.248Z</time></trkpt><trkpt lat="45.6355633" lon="5.1569567"><ele>213.0</ele><time>2026-05-01T14:51:15.248Z</time></trkpt><trkpt lat="45.635675" lon="5.157045"><ele>213.0</ele><time>2026-05-01T14:51:16.248Z</time></trkpt><trkpt lat="45.635795" lon="5.1571467"><ele>213.0</ele><time>2026-05-01T14:51:17.248Z</time></trkpt><trkpt lat="45.63592" lon="5.1572317"><ele>213.0</ele><time>2026-05-01T14:51:18.247Z</time></trkpt><trkpt lat="45.6360433" lon="5.1573067"><ele>213.0</ele><time>2026-05-01T14:51:19.247Z</time></trkpt><trkpt lat="45.6361567" lon="5.1573883"><ele>212.75</ele><time>2026-05-01T14:51:20.248Z</time></trkpt><trkpt lat="45.636275" lon="5.157465"><ele>212.5</ele><time>2026-05-01T14:51:21.248Z</time></trkpt><trkpt lat="45.636385" lon="5.1575517"><ele>212.25</ele><time>2026-05-01T14:51:22.248Z</time></trkpt><trkpt lat="45.63649" lon="5.1576417"><ele>212.0</ele><time>2026-05-01T14:51:23.248Z</time></trkpt><trkpt lat="45.6365933" lon="5.15771"><ele>212.0</ele><time>2026-05-01T14:51:24.248Z</time></trkpt><trkpt lat="45.6366983" lon="5.1577783"><ele>212.0</ele><time>2026-05-01T14:51:25.248Z</time></trkpt><trkpt lat="45.6368133" lon="5.15784"><ele>212.0</ele><time>2026-05-01T14:51:26.248Z</time></trkpt><trkpt lat="45.63695" lon="5.1578783"><ele>212.0</ele><time>2026-05-01T14:51:27.248Z</time></trkpt><trkpt lat="45.63707" lon="5.1578933"><ele>211.66666666666669</ele><time>2026-05-01T14:51:28.248Z</time></trkpt><trkpt lat="45.6371733" lon="5.1578967"><ele>211.33333333333334</ele><time>2026-05-01T14:51:29.247Z</time></trkpt><trkpt lat="45.6372683" lon="5.1579233"><ele>211.0</ele><time>2026-05-01T14:51:30.247Z</time></trkpt><trkpt lat="45.63735" lon="5.1579517"><ele>210.66666666666669</ele><time>2026-05-01T14:51:31.248Z</time></trkpt><trkpt lat="45.6374217" lon="5.1579617"><ele>210.33333333333334</ele><time>2026-05-01T14:51:32.248Z</time></trkpt><trkpt lat="45.6375067" lon="5.1579917"><ele>210.0</ele><time>2026-05-01T14:51:33.248Z</time></trkpt><trkpt lat="45.63758" lon="5.1579883"><ele>210.0</ele><time>2026-05-01T14:51:34.248Z</time></trkpt><trkpt lat="45.637675" lon="5.1579567"><ele>210.0</ele><time>2026-05-01T14:51:35.247Z</time></trkpt><trkpt lat="45.6377533" lon="5.1579217"><ele>210.0</ele><time>2026-05-01T14:51:36.246Z</time></trkpt><trkpt lat="45.637835" lon="5.1578183"><ele>210.0</ele><time>2026-05-01T14:51:37.247Z</time></trkpt><trkpt lat="45.6379217" lon="5.1576967"><ele>210.0</ele><time>2026-05-01T14:51:38.247Z</time></trkpt><trkpt lat="45.638035" lon="5.1575333"><ele>209.66666666666669</ele><time>2026-05-01T14:51:39.247Z</time></trkpt><trkpt lat="45.63816" lon="5.157335"><ele>209.33333333333334</ele><time>2026-05-01T14:51:40.247Z</time></trkpt><trkpt lat="45.638305" lon="5.157105"><ele>209.0</ele><time>2026-05-01T14:51:41.247Z</time></trkpt><trkpt lat="45.6384483" lon="5.1568617"><ele>209.0</ele><time>2026-05-01T14:51:42.247Z</time></trkpt><trkpt lat="45.6386" lon="5.15659"><ele>209.0</ele><time>2026-05-01T14:51:43.247Z</time></trkpt><trkpt lat="45.638755" lon="5.156315"><ele>210.0</ele><time>2026-05-01T14:51:44.247Z</time></trkpt><trkpt lat="45.6389283" lon="5.156035"><ele>211.0</ele><time>2026-05-01T14:51:45.247Z</time></trkpt><trkpt lat="45.639125" lon="5.1556667"><ele>212.0</ele><time>2026-05-01T14:51:46.247Z</time></trkpt><trkpt lat="45.63932" lon="5.155345"><ele>213.0</ele><time>2026-05-01T14:51:47.247Z</time></trkpt><trkpt lat="45.63949" lon="5.155055"><ele>214.0</ele><time>2026-05-01T14:51:48.246Z</time></trkpt><trkpt lat="45.63966" lon="5.1547633"><ele>215.0</ele><time>2026-05-01T14:51:49.246Z</time></trkpt><trkpt lat="45.6398233" lon="5.15452"><ele>215.0</ele><time>2026-05-01T14:51:50.246Z</time></trkpt><trkpt lat="45.6399933" lon="5.154255"><ele>215.0</ele><time>2026-05-01T14:51:51.247Z</time></trkpt><trkpt lat="45.640165" lon="5.1539983"><ele>212.5</ele><time>2026-05-01T14:51:52.247Z</time></trkpt><trkpt lat="45.6403367" lon="5.1537317"><ele>210.0</ele><time>2026-05-01T14:51:53.247Z</time></trkpt><trkpt lat="45.6405217" lon="5.15345"><ele>208.5</ele><time>2026-05-01T14:51:54.247Z</time></trkpt><trkpt lat="45.640705" lon="5.153185"><ele>207.0</ele><time>2026-05-01T14:51:55.247Z</time></trkpt><trkpt lat="45.6408717" lon="5.152915"><ele>207.0</ele><time>2026-05-01T14:51:56.247Z</time></trkpt><trkpt lat="45.64103" lon="5.1526433"><ele>207.0</ele><time>2026-05-01T14:51:57.246Z</time></trkpt><trkpt lat="45.641195" lon="5.1523917"><ele>206.5</ele><time>2026-05-01T14:51:58.247Z</time></trkpt><trkpt lat="45.64135" lon="5.1521433"><ele>206.0</ele><time>2026-05-01T14:51:59.246Z</time></trkpt><trkpt lat="45.641505" lon="5.1518917"><ele>206.0</ele><time>2026-05-01T14:52:00.247Z</time></trkpt><trkpt lat="45.6416617" lon="5.1516417"><ele>206.0</ele><time>2026-05-01T14:52:01.246Z</time></trkpt><trkpt lat="45.6418267" lon="5.151385"><ele>206.5</ele><time>2026-05-01T14:52:02.247Z</time></trkpt><trkpt lat="45.641985" lon="5.151135"><ele>207.0</ele><time>2026-05-01T14:52:03.247Z</time></trkpt><trkpt lat="45.6421367" lon="5.1508717"><ele>206.5</ele><time>2026-05-01T14:52:04.247Z</time></trkpt><trkpt lat="45.6422917" lon="5.15061"><ele>206.0</ele><time>2026-05-01T14:52:05.246Z</time></trkpt><trkpt lat="45.64245" lon="5.1503533"><ele>206.0</ele><time>2026-05-01T14:52:06.247Z</time></trkpt><trkpt lat="45.6426033" lon="5.1501117"><ele>206.0</ele><time>2026-05-01T14:52:07.247Z</time></trkpt><trkpt lat="45.6427433" lon="5.14988"><ele>206.0</ele><time>2026-05-01T14:52:08.247Z</time></trkpt><trkpt lat="45.64288" lon="5.1496583"><ele>206.33333333333334</ele><time>2026-05-01T14:52:09.246Z</time></trkpt><trkpt lat="45.6430267" lon="5.1494267"><ele>206.66666666666669</ele><time>2026-05-01T14:52:10.247Z</time></trkpt><trkpt lat="45.643175" lon="5.1491867"><ele>207.0</ele><time>2026-05-01T14:52:11.247Z</time></trkpt><trkpt lat="45.643325" lon="5.1489533"><ele>207.5</ele><time>2026-05-01T14:52:12.246Z</time></trkpt><trkpt lat="45.643475" lon="5.1487117"><ele>208.0</ele><time>2026-05-01T14:52:13.247Z</time></trkpt><trkpt lat="45.643625" lon="5.14847"><ele>208.33333333333331</ele><time>2026-05-01T14:52:14.247Z</time></trkpt><trkpt lat="45.643775" lon="5.1482317"><ele>208.66666666666669</ele><time>2026-05-01T14:52:15.247Z</time></trkpt><trkpt lat="45.6439217" lon="5.1479917"><ele>209.0</ele><time>2026-05-01T14:52:16.247Z</time></trkpt><trkpt lat="45.6440733" lon="5.1477433"><ele>209.0</ele><time>2026-05-01T14:52:17.246Z</time></trkpt><trkpt lat="45.6442383" lon="5.1474833"><ele>209.0</ele><time>2026-05-01T14:52:18.247Z</time></trkpt><trkpt lat="45.6444183" lon="5.1472017"><ele>210.5</ele><time>2026-05-01T14:52:19.247Z</time></trkpt><trkpt lat="45.6445933" lon="5.1469083"><ele>212.0</ele><time>2026-05-01T14:52:20.247Z</time></trkpt><trkpt lat="45.6447683" lon="5.146615"><ele>212.5</ele><time>2026-05-01T14:52:21.246Z</time></trkpt><trkpt lat="45.6449483" lon="5.1463233"><ele>213.0</ele><time>2026-05-01T14:52:22.246Z</time></trkpt><trkpt lat="45.645125" lon="5.1460267"><ele>211.5</ele><time>2026-05-01T14:52:23.247Z</time></trkpt><trkpt lat="45.6453067" lon="5.1457117"><ele>210.0</ele><time>2026-05-01T14:52:24.247Z</time></trkpt><trkpt lat="45.6455017" lon="5.145385"><ele>210.0</ele><time>2026-05-01T14:52:25.246Z</time></trkpt><trkpt lat="45.6457033" lon="5.1450617"><ele>210.0</ele><time>2026-05-01T14:52:26.247Z</time></trkpt><trkpt lat="45.6459033" lon="5.14474"><ele>210.0</ele><time>2026-05-01T14:52:27.247Z</time></trkpt><trkpt lat="45.646095" lon="5.1444367"><ele>210.0</ele><time>2026-05-01T14:52:28.246Z</time></trkpt><trkpt lat="45.646275" lon="5.1441483"><ele>210.5</ele><time>2026-05-01T14:52:29.247Z</time></trkpt><trkpt lat="45.6464483" lon="5.14393"><ele>211.0</ele><time>2026-05-01T14:52:30.247Z</time></trkpt><trkpt lat="45.6466133" lon="5.143685"><ele>211.0</ele><time>2026-05-01T14:52:31.246Z</time></trkpt><trkpt lat="45.6467667" lon="5.1434333"><ele>211.0</ele><time>2026-05-01T14:52:32.247Z</time></trkpt><trkpt lat="45.6469083" lon="5.1431933"><ele>211.5</ele><time>2026-05-01T14:52:33.246Z</time></trkpt><trkpt lat="45.6470617" lon="5.14292"><ele>212.0</ele><time>2026-05-01T14:52:34.246Z</time></trkpt><trkpt lat="45.647215" lon="5.1426717"><ele>212.0</ele><time>2026-05-01T14:52:35.246Z</time></trkpt><trkpt lat="45.6473683" lon="5.1424267"><ele>212.0</ele><time>2026-05-01T14:52:36.247Z</time></trkpt><trkpt lat="45.6475233" lon="5.1421867"><ele>211.5</ele><time>2026-05-01T14:52:37.247Z</time></trkpt><trkpt lat="45.6476767" lon="5.1419483"><ele>211.0</ele><time>2026-05-01T14:52:38.247Z</time></trkpt><trkpt lat="45.6478383" lon="5.14171"><ele>209.5</ele><time>2026-05-01T14:52:39.247Z</time></trkpt><trkpt lat="45.6479933" lon="5.141455"><ele>208.0</ele><time>2026-05-01T14:52:40.247Z</time></trkpt><trkpt lat="45.6481433" lon="5.141185"><ele>208.0</ele><time>2026-05-01T14:52:41.246Z</time></trkpt><trkpt lat="45.6482967" lon="5.1409017"><ele>208.0</ele><time>2026-05-01T14:52:42.247Z</time></trkpt><trkpt lat="45.6484283" lon="5.1406"><ele>208.5</ele><time>2026-05-01T14:52:43.247Z</time></trkpt><trkpt lat="45.6485583" lon="5.1402617"><ele>209.0</ele><time>2026-05-01T14:52:44.246Z</time></trkpt><trkpt lat="45.648675" lon="5.1399267"><ele>210.0</ele><time>2026-05-01T14:52:45.247Z</time></trkpt><trkpt lat="45.64877" lon="5.1396017"><ele>211.0</ele><time>2026-05-01T14:52:46.247Z</time></trkpt><trkpt lat="45.6488733" lon="5.1393017"><ele>210.66666666666666</ele><time>2026-05-01T14:52:47.247Z</time></trkpt><trkpt lat="45.6489683" lon="5.1390217"><ele>210.33333333333331</ele><time>2026-05-01T14:52:48.247Z</time></trkpt><trkpt lat="45.64906" lon="5.1387417"><ele>210.0</ele><time>2026-05-01T14:52:49.247Z</time></trkpt><trkpt lat="45.6491467" lon="5.13847"><ele>210.0</ele><time>2026-05-01T14:52:50.247Z</time></trkpt><trkpt lat="45.6492267" lon="5.1382183"><ele>210.0</ele><time>2026-05-01T14:52:51.247Z</time></trkpt><trkpt lat="45.649295" lon="5.1380033"><ele>210.0</ele><time>2026-05-01T14:52:52.247Z</time></trkpt><trkpt lat="45.6493533" lon="5.1378083"><ele>210.0</ele><time>2026-05-01T14:52:53.247Z</time></trkpt><trkpt lat="45.6493967" lon="5.13763"><ele>210.0</ele><time>2026-05-01T14:52:54.247Z</time></trkpt><trkpt lat="45.6494317" lon="5.1374517"><ele>210.0</ele><time>2026-05-01T14:52:55.247Z</time></trkpt><trkpt lat="45.6494633" lon="5.1372917"><ele>210.0</ele><time>2026-05-01T14:52:56.247Z</time></trkpt><trkpt lat="45.6494933" lon="5.1371267"><ele>210.6</ele><time>2026-05-01T14:52:57.247Z</time></trkpt><trkpt lat="45.6495367" lon="5.1369917"><ele>211.2</ele><time>2026-05-01T14:52:58.247Z</time></trkpt><trkpt lat="45.6495783" lon="5.1368517"><ele>211.8</ele><time>2026-05-01T14:52:59.246Z</time></trkpt><trkpt lat="45.649625" lon="5.1367417"><ele>212.4</ele><time>2026-05-01T14:53:00.247Z</time></trkpt><trkpt lat="45.6496583" lon="5.1366383"><ele>213.0</ele><time>2026-05-01T14:53:01.247Z</time></trkpt><trkpt lat="45.64967" lon="5.1365167"><ele>213.0</ele><time>2026-05-01T14:53:02.247Z</time></trkpt><trkpt lat="45.6496467" lon="5.1363783"><ele>213.0</ele><time>2026-05-01T14:53:03.247Z</time></trkpt><trkpt lat="45.6495967" lon="5.136225"><ele>213.0</ele><time>2026-05-01T14:53:04.247Z</time></trkpt><trkpt lat="45.649565" lon="5.1360267"><ele>213.0</ele><time>2026-05-01T14:53:05.247Z</time></trkpt><trkpt lat="45.64953" lon="5.1357483"><ele>213.0</ele><time>2026-05-01T14:53:06.247Z</time></trkpt><trkpt lat="45.649505" lon="5.135485"><ele>213.0</ele><time>2026-05-01T14:53:07.247Z</time></trkpt><trkpt lat="45.64949" lon="5.13521"><ele>213.0</ele><time>2026-05-01T14:53:08.247Z</time></trkpt><trkpt lat="45.6494567" lon="5.1349233"><ele>213.0</ele><time>2026-05-01T14:53:09.246Z</time></trkpt><trkpt lat="45.6494317" lon="5.13463"><ele>213.0</ele><time>2026-05-01T14:53:10.246Z</time></trkpt><trkpt lat="45.6493817" lon="5.1343433"><ele>213.0</ele><time>2026-05-01T14:53:11.247Z</time></trkpt><trkpt lat="45.6493417" lon="5.1340517"><ele>213.0</ele><time>2026-05-01T14:53:12.247Z</time></trkpt><trkpt lat="45.6493117" lon="5.133745"><ele>213.0</ele><time>2026-05-01T14:53:13.246Z</time></trkpt><trkpt lat="45.6492817" lon="5.1334267"><ele>213.0</ele><time>2026-05-01T14:53:14.247Z</time></trkpt><trkpt lat="45.649245" lon="5.1330883"><ele>213.5</ele><time>2026-05-01T14:53:15.247Z</time></trkpt><trkpt lat="45.649215" lon="5.1327517"><ele>214.0</ele><time>2026-05-01T14:53:16.246Z</time></trkpt><trkpt lat="45.649185" lon="5.1324217"><ele>214.5</ele><time>2026-05-01T14:53:17.247Z</time></trkpt><trkpt lat="45.64916" lon="5.132085"><ele>215.0</ele><time>2026-05-01T14:53:18.247Z</time></trkpt><trkpt lat="45.6491383" lon="5.13175"><ele>215.0</ele><time>2026-05-01T14:53:19.247Z</time></trkpt><trkpt lat="45.6491217" lon="5.13141"><ele>215.0</ele><time>2026-05-01T14:53:20.247Z</time></trkpt><trkpt lat="45.6490967" lon="5.1310817"><ele>215.0</ele><time>2026-05-01T14:53:21.247Z</time></trkpt><trkpt lat="45.6490633" lon="5.1307433"><ele>215.0</ele><time>2026-05-01T14:53:22.246Z</time></trkpt><trkpt lat="45.6490333" lon="5.1303833"><ele>215.0</ele><time>2026-05-01T14:53:23.246Z</time></trkpt><trkpt lat="45.6490083" lon="5.1299967"><ele>215.0</ele><time>2026-05-01T14:53:24.246Z</time></trkpt><trkpt lat="45.6489783" lon="5.12962"><ele>215.0</ele><time>2026-05-01T14:53:25.247Z</time></trkpt><trkpt lat="45.6489533" lon="5.129245"><ele>215.0</ele><time>2026-05-01T14:53:26.247Z</time></trkpt><trkpt lat="45.6489117" lon="5.1288783"><ele>215.33333333333334</ele><time>2026-05-01T14:53:27.247Z</time></trkpt><trkpt lat="45.6489" lon="5.12855"><ele>215.66666666666669</ele><time>2026-05-01T14:53:28.247Z</time></trkpt><trkpt lat="45.648885" lon="5.1282417"><ele>216.0</ele><time>2026-05-01T14:53:29.247Z</time></trkpt><trkpt lat="45.6488683" lon="5.1279717"><ele>216.0</ele><time>2026-05-01T14:53:30.247Z</time></trkpt><trkpt lat="45.6488567" lon="5.1277367"><ele>216.0</ele><time>2026-05-01T14:53:31.247Z</time></trkpt><trkpt lat="45.6488417" lon="5.1275283"><ele>216.0</ele><time>2026-05-01T14:53:32.246Z</time></trkpt><trkpt lat="45.648825" lon="5.1273167"><ele>217.0</ele><time>2026-05-01T14:53:33.247Z</time></trkpt><trkpt lat="45.648815" lon="5.1271283"><ele>218.0</ele><time>2026-05-01T14:53:34.247Z</time></trkpt><trkpt lat="45.648815" lon="5.12696"><ele>219.0</ele><time>2026-05-01T14:53:35.247Z</time></trkpt><trkpt lat="45.64883" lon="5.1268067"><ele>220.0</ele><time>2026-05-01T14:53:36.247Z</time></trkpt><trkpt lat="45.64886" lon="5.1266617"><ele>220.2</ele><time>2026-05-01T14:53:37.247Z</time></trkpt><trkpt lat="45.6489083" lon="5.126525"><ele>220.4</ele><time>2026-05-01T14:53:38.247Z</time></trkpt><trkpt lat="45.648955" lon="5.1264033"><ele>220.60000000000002</ele><time>2026-05-01T14:53:39.246Z</time></trkpt><trkpt lat="45.6489833" lon="5.126275"><ele>220.8</ele><time>2026-05-01T14:53:40.247Z</time></trkpt><trkpt lat="45.6489817" lon="5.1261233"><ele>221.0</ele><time>2026-05-01T14:53:41.247Z</time></trkpt><trkpt lat="45.6489567" lon="5.1259617"><ele>221.0</ele><time>2026-05-01T14:53:42.246Z</time></trkpt><trkpt lat="45.648935" lon="5.125785"><ele>221.0</ele><time>2026-05-01T14:53:43.247Z</time></trkpt><trkpt lat="45.6489583" lon="5.1255833"><ele>221.0</ele><time>2026-05-01T14:53:44.247Z</time></trkpt><trkpt lat="45.6490117" lon="5.125395"><ele>221.0</ele><time>2026-05-01T14:53:45.247Z</time></trkpt><trkpt lat="45.6490917" lon="5.1251983"><ele>222.0</ele><time>2026-05-01T14:53:46.246Z</time></trkpt><trkpt lat="45.6491767" lon="5.1249983"><ele>223.0</ele><time>2026-05-01T14:53:47.247Z</time></trkpt><trkpt lat="45.6492717" lon="5.1247983"><ele>224.0</ele><time>2026-05-01T14:53:48.247Z</time></trkpt><trkpt lat="45.64939" lon="5.1246017"><ele>223.33333333333334</ele><time>2026-05-01T14:53:49.246Z</time></trkpt><trkpt lat="45.6494983" lon="5.1244133"><ele>222.66666666666669</ele><time>2026-05-01T14:53:50.247Z</time></trkpt><trkpt lat="45.6496133" lon="5.12419"><ele>222.0</ele><time>2026-05-01T14:53:51.246Z</time></trkpt><trkpt lat="45.6497467" lon="5.1239533"><ele>222.0</ele><time>2026-05-01T14:53:52.247Z</time></trkpt><trkpt lat="45.6498717" lon="5.1237067"><ele>222.0</ele><time>2026-05-01T14:53:53.247Z</time></trkpt><trkpt lat="45.6500067" lon="5.1234467"><ele>222.0</ele><time>2026-05-01T14:53:54.247Z</time></trkpt><trkpt lat="45.6501417" lon="5.1231783"><ele>223.0</ele><time>2026-05-01T14:53:55.247Z</time></trkpt><trkpt lat="45.6502783" lon="5.1229033"><ele>224.0</ele><time>2026-05-01T14:53:56.246Z</time></trkpt><trkpt lat="45.650415" lon="5.1226283"><ele>224.5</ele><time>2026-05-01T14:53:57.247Z</time></trkpt><trkpt lat="45.6505567" lon="5.12237"><ele>225.0</ele><time>2026-05-01T14:53:58.247Z</time></trkpt><trkpt lat="45.6506983" lon="5.12211"><ele>225.0</ele><time>2026-05-01T14:53:59.247Z</time></trkpt><trkpt lat="45.6508317" lon="5.1218483"><ele>225.0</ele><time>2026-05-01T14:54:00.247Z</time></trkpt><trkpt lat="45.6509717" lon="5.1215867"><ele>225.33333333333331</ele><time>2026-05-01T14:54:01.247Z</time></trkpt><trkpt lat="45.6511067" lon="5.1213117"><ele>225.66666666666666</ele><time>2026-05-01T14:54:02.247Z</time></trkpt><trkpt lat="45.6512367" lon="5.1210767"><ele>226.0</ele><time>2026-05-01T14:54:03.247Z</time></trkpt><trkpt lat="45.6513667" lon="5.120845"><ele>225.66666666666666</ele><time>2026-05-01T14:54:04.247Z</time></trkpt><trkpt lat="45.6514833" lon="5.1206133"><ele>225.33333333333331</ele><time>2026-05-01T14:54:05.247Z</time></trkpt><trkpt lat="45.6515933" lon="5.1204133"><ele>225.0</ele><time>2026-05-01T14:54:06.247Z</time></trkpt><trkpt lat="45.6516983" lon="5.1201833"><ele>225.0</ele><time>2026-05-01T14:54:07.247Z</time></trkpt><trkpt lat="45.651785" lon="5.1199717"><ele>225.0</ele><time>2026-05-01T14:54:08.247Z</time></trkpt><trkpt lat="45.651865" lon="5.1197883"><ele>225.0</ele><time>2026-05-01T14:54:09.247Z</time></trkpt><trkpt lat="45.6519333" lon="5.11963"><ele>224.8</ele><time>2026-05-01T14:54:10.247Z</time></trkpt><trkpt lat="45.651995" lon="5.1194883"><ele>224.6</ele><time>2026-05-01T14:54:11.247Z</time></trkpt><trkpt lat="45.652055" lon="5.1193567"><ele>224.39999999999998</ele><time>2026-05-01T14:54:12.247Z</time></trkpt><trkpt lat="45.6521117" lon="5.1192567"><ele>224.2</ele><time>2026-05-01T14:54:13.247Z</time></trkpt><trkpt lat="45.6521533" lon="5.11917"><ele>224.0</ele><time>2026-05-01T14:54:14.247Z</time></trkpt><trkpt lat="45.6522033" lon="5.1190967"><ele>224.66666666666669</ele><time>2026-05-01T14:54:15.246Z</time></trkpt><trkpt lat="45.6522617" lon="5.1190433"><ele>225.33333333333334</ele><time>2026-05-01T14:54:16.247Z</time></trkpt><trkpt lat="45.652335" lon="5.1190267"><ele>226.0</ele><time>2026-05-01T14:54:17.247Z</time></trkpt><trkpt lat="45.6524233" lon="5.1190083"><ele>226.66666666666669</ele><time>2026-05-01T14:54:18.246Z</time></trkpt><trkpt lat="45.6525217" lon="5.1189817"><ele>227.33333333333334</ele><time>2026-05-01T14:54:19.247Z</time></trkpt><trkpt lat="45.65261" lon="5.118915"><ele>228.0</ele><time>2026-05-01T14:54:20.246Z</time></trkpt><trkpt lat="45.65268" lon="5.1188117"><ele>228.0</ele><time>2026-05-01T14:54:21.246Z</time></trkpt><trkpt lat="45.6527283" lon="5.118665"><ele>228.0</ele><time>2026-05-01T14:54:22.247Z</time></trkpt><trkpt lat="45.6527433" lon="5.1184967"><ele>228.0</ele><time>2026-05-01T14:54:23.247Z</time></trkpt><trkpt lat="45.6527467" lon="5.11832"><ele>228.0</ele><time>2026-05-01T14:54:24.246Z</time></trkpt><trkpt lat="45.6527567" lon="5.1181233"><ele>227.33333333333331</ele><time>2026-05-01T14:54:25.247Z</time></trkpt><trkpt lat="45.6527967" lon="5.11792"><ele>226.66666666666666</ele><time>2026-05-01T14:54:26.247Z</time></trkpt><trkpt lat="45.6529" lon="5.1177533"><ele>226.0</ele><time>2026-05-01T14:54:27.247Z</time></trkpt><trkpt lat="45.6530083" lon="5.1175433"><ele>226.66666666666666</ele><time>2026-05-01T14:54:28.247Z</time></trkpt><trkpt lat="45.6531117" lon="5.1173167"><ele>227.33333333333331</ele><time>2026-05-01T14:54:29.247Z</time></trkpt><trkpt lat="45.6532167" lon="5.11709"><ele>228.0</ele><time>2026-05-01T14:54:30.247Z</time></trkpt><trkpt lat="45.6533233" lon="5.1168667"><ele>228.0</ele><time>2026-05-01T14:54:31.247Z</time></trkpt><trkpt lat="45.6534333" lon="5.116635"><ele>228.0</ele><time>2026-05-01T14:54:32.247Z</time></trkpt><trkpt lat="45.6535467" lon="5.1164117"><ele>228.0</ele><time>2026-05-01T14:54:33.247Z</time></trkpt><trkpt lat="45.6536617" lon="5.116185"><ele>226.66666666666669</ele><time>2026-05-01T14:54:34.247Z</time></trkpt><trkpt lat="45.6537717" lon="5.1159483"><ele>225.33333333333334</ele><time>2026-05-01T14:54:35.247Z</time></trkpt><trkpt lat="45.6538983" lon="5.1156983"><ele>224.0</ele><time>2026-05-01T14:54:36.247Z</time></trkpt><trkpt lat="45.6540333" lon="5.1154583"><ele>224.0</ele><time>2026-05-01T14:54:37.247Z</time></trkpt><trkpt lat="45.6541583" lon="5.1152117"><ele>224.0</ele><time>2026-05-01T14:54:38.247Z</time></trkpt><trkpt lat="45.6542983" lon="5.1149467"><ele>224.0</ele><time>2026-05-01T14:54:39.247Z</time></trkpt><trkpt lat="45.6544267" lon="5.1146733"><ele>224.0</ele><time>2026-05-01T14:54:40.247Z</time></trkpt><trkpt lat="45.6545567" lon="5.1143983"><ele>224.0</ele><time>2026-05-01T14:54:41.247Z</time></trkpt><trkpt lat="45.6546867" lon="5.1141367"><ele>224.0</ele><time>2026-05-01T14:54:42.246Z</time></trkpt><trkpt lat="45.65482" lon="5.113865"><ele>224.0</ele><time>2026-05-01T14:54:43.247Z</time></trkpt><trkpt lat="45.6549567" lon="5.1135933"><ele>224.0</ele><time>2026-05-01T14:54:44.247Z</time></trkpt><trkpt lat="45.6550917" lon="5.113325"><ele>224.0</ele><time>2026-05-01T14:54:45.247Z</time></trkpt><trkpt lat="45.6552267" lon="5.1130567"><ele>225.5</ele><time>2026-05-01T14:54:46.247Z</time></trkpt><trkpt lat="45.65537" lon="5.1127883"><ele>227.0</ele><time>2026-05-01T14:54:47.246Z</time></trkpt><trkpt lat="45.6555" lon="5.1125217"><ele>227.66666666666669</ele><time>2026-05-01T14:54:48.246Z</time></trkpt><trkpt lat="45.6556267" lon="5.1122567"><ele>228.33333333333331</ele><time>2026-05-01T14:54:49.247Z</time></trkpt><trkpt lat="45.655755" lon="5.1119933"><ele>229.0</ele><time>2026-05-01T14:54:50.246Z</time></trkpt><trkpt lat="45.655885" lon="5.1117383"><ele>229.0</ele><time>2026-05-01T14:54:51.246Z</time></trkpt><trkpt lat="45.6560133" lon="5.1115"><ele>229.0</ele><time>2026-05-01T14:54:52.247Z</time></trkpt><trkpt lat="45.6561383" lon="5.1112617"><ele>229.0</ele><time>2026-05-01T14:54:53.247Z</time></trkpt><trkpt lat="45.6562633" lon="5.110975"><ele>228.5</ele><time>2026-05-01T14:54:54.246Z</time></trkpt><trkpt lat="45.656395" lon="5.1107033"><ele>228.0</ele><time>2026-05-01T14:54:55.247Z</time></trkpt><trkpt lat="45.656535" lon="5.1104317"><ele>228.0</ele><time>2026-05-01T14:54:56.246Z</time></trkpt><trkpt lat="45.6566767" lon="5.11014"><ele>228.0</ele><time>2026-05-01T14:54:57.247Z</time></trkpt><trkpt lat="45.6568217" lon="5.109845"><ele>226.0</ele><time>2026-05-01T14:54:58.246Z</time></trkpt><trkpt lat="45.656975" lon="5.1095433"><ele>224.0</ele><time>2026-05-01T14:54:59.247Z</time></trkpt><trkpt lat="45.6571183" lon="5.1092367"><ele>225.0</ele><time>2026-05-01T14:55:00.247Z</time></trkpt><trkpt lat="45.657265" lon="5.108935"><ele>226.0</ele><time>2026-05-01T14:55:01.247Z</time></trkpt><trkpt lat="45.6574083" lon="5.108635"><ele>226.0</ele><time>2026-05-01T14:55:02.247Z</time></trkpt><trkpt lat="45.6575517" lon="5.10833"><ele>226.0</ele><time>2026-05-01T14:55:03.246Z</time></trkpt><trkpt lat="45.6577017" lon="5.10804"><ele>226.5</ele><time>2026-05-01T14:55:04.246Z</time></trkpt><trkpt lat="45.6578517" lon="5.1077567"><ele>227.0</ele><time>2026-05-01T14:55:05.247Z</time></trkpt><trkpt lat="45.6579983" lon="5.107485"><ele>226.5</ele><time>2026-05-01T14:55:06.246Z</time></trkpt><trkpt lat="45.658135" lon="5.1072133"><ele>226.0</ele><time>2026-05-01T14:55:07.247Z</time></trkpt><trkpt lat="45.6582667" lon="5.1069433"><ele>226.0</ele><time>2026-05-01T14:55:08.247Z</time></trkpt><trkpt lat="45.65838" lon="5.1066967"><ele>226.0</ele><time>2026-05-01T14:55:09.247Z</time></trkpt><trkpt lat="45.6585133" lon="5.106445"><ele>226.0</ele><time>2026-05-01T14:55:10.247Z</time></trkpt><trkpt lat="45.65864" lon="5.1062167"><ele>225.33333333333331</ele><time>2026-05-01T14:55:11.246Z</time></trkpt><trkpt lat="45.6587633" lon="5.10599"><ele>224.66666666666669</ele><time>2026-05-01T14:55:12.246Z</time></trkpt><trkpt lat="45.6588633" lon="5.105765"><ele>224.0</ele><time>2026-05-01T14:55:13.246Z</time></trkpt><trkpt lat="45.6589633" lon="5.1055417"><ele>224.0</ele><time>2026-05-01T14:55:14.247Z</time></trkpt><trkpt lat="45.65907" lon="5.105315"><ele>224.0</ele><time>2026-05-01T14:55:15.246Z</time></trkpt><trkpt lat="45.6591717" lon="5.1051083"><ele>224.0</ele><time>2026-05-01T14:55:16.246Z</time></trkpt><trkpt lat="45.6592683" lon="5.1049133"><ele>224.0</ele><time>2026-05-01T14:55:17.246Z</time></trkpt><trkpt lat="45.659365" lon="5.1047317"><ele>224.0</ele><time>2026-05-01T14:55:18.246Z</time></trkpt><trkpt lat="45.6594517" lon="5.1045633"><ele>224.0</ele><time>2026-05-01T14:55:19.246Z</time></trkpt><trkpt lat="45.6595417" lon="5.1043917"><ele>224.0</ele><time>2026-05-01T14:55:20.247Z</time></trkpt><trkpt lat="45.6596367" lon="5.104215"><ele>224.0</ele><time>2026-05-01T14:55:21.247Z</time></trkpt><trkpt lat="45.6597283" lon="5.1040233"><ele>224.0</ele><time>2026-05-01T14:55:22.246Z</time></trkpt><trkpt lat="45.6598167" lon="5.103835"><ele>223.79999999999998</ele><time>2026-05-01T14:55:23.246Z</time></trkpt><trkpt lat="45.65989" lon="5.10368"><ele>223.59999999999997</ele><time>2026-05-01T14:55:24.247Z</time></trkpt><trkpt lat="45.6599517" lon="5.10355"><ele>223.4</ele><time>2026-05-01T14:55:25.247Z</time></trkpt><trkpt lat="45.6600067" lon="5.1034433"><ele>223.2</ele><time>2026-05-01T14:55:26.247Z</time></trkpt><trkpt lat="45.6600683" lon="5.1033767"><ele>223.0</ele><time>2026-05-01T14:55:27.247Z</time></trkpt><trkpt lat="45.6601417" lon="5.1033433"><ele>222.99999999999997</ele><time>2026-05-01T14:55:28.247Z</time></trkpt><trkpt lat="45.6602183" lon="5.1033217"><ele>223.0</ele><time>2026-05-01T14:55:29.247Z</time></trkpt><trkpt lat="45.6602983" lon="5.103295"><ele>223.0</ele><time>2026-05-01T14:55:30.247Z</time></trkpt><trkpt lat="45.6603667" lon="5.10325"><ele>223.0</ele><time>2026-05-01T14:55:31.247Z</time></trkpt><trkpt lat="45.6604367" lon="5.1031717"><ele>222.99999999999997</ele><time>2026-05-01T14:55:32.247Z</time></trkpt><trkpt lat="45.6605" lon="5.1030683"><ele>223.0</ele><time>2026-05-01T14:55:33.247Z</time></trkpt><trkpt lat="45.66053" lon="5.1029317"><ele>223.25</ele><time>2026-05-01T14:55:34.246Z</time></trkpt><trkpt lat="45.6605367" lon="5.102765"><ele>223.5</ele><time>2026-05-01T14:55:35.246Z</time></trkpt><trkpt lat="45.6605533" lon="5.1026033"><ele>223.75</ele><time>2026-05-01T14:55:36.247Z</time></trkpt><trkpt lat="45.6605767" lon="5.1024333"><ele>224.0</ele><time>2026-05-01T14:55:37.246Z</time></trkpt><trkpt lat="45.6606283" lon="5.1022317"><ele>225.0</ele><time>2026-05-01T14:55:38.247Z</time></trkpt><trkpt lat="45.6607083" lon="5.1020567"><ele>226.0</ele><time>2026-05-01T14:55:39.247Z</time></trkpt><trkpt lat="45.6607983" lon="5.10186"><ele>227.0</ele><time>2026-05-01T14:55:40.246Z</time></trkpt><trkpt lat="45.6609017" lon="5.1016567"><ele>227.0</ele><time>2026-05-01T14:55:41.246Z</time></trkpt><trkpt lat="45.661015" lon="5.10144"><ele>227.0</ele><time>2026-05-01T14:55:42.246Z</time></trkpt><trkpt lat="45.66113" lon="5.1011983"><ele>227.0</ele><time>2026-05-01T14:55:43.246Z</time></trkpt><trkpt lat="45.66124" lon="5.1009567"><ele>226.0</ele><time>2026-05-01T14:55:44.246Z</time></trkpt><trkpt lat="45.661365" lon="5.1007017"><ele>225.0</ele><time>2026-05-01T14:55:45.247Z</time></trkpt><trkpt lat="45.6614967" lon="5.1004467"><ele>224.0</ele><time>2026-05-01T14:55:46.247Z</time></trkpt><trkpt lat="45.6616367" lon="5.1001983"><ele>224.0</ele><time>2026-05-01T14:55:47.247Z</time></trkpt><trkpt lat="45.6617817" lon="5.0999233"><ele>224.0</ele><time>2026-05-01T14:55:48.247Z</time></trkpt><trkpt lat="45.6619167" lon="5.0996517"><ele>223.5</ele><time>2026-05-01T14:55:49.246Z</time></trkpt><trkpt lat="45.6620467" lon="5.099375"><ele>223.0</ele><time>2026-05-01T14:55:50.247Z</time></trkpt><trkpt lat="45.6621833" lon="5.099115"><ele>222.5</ele><time>2026-05-01T14:55:51.246Z</time></trkpt><trkpt lat="45.6623217" lon="5.098835"><ele>222.0</ele><time>2026-05-01T14:55:52.247Z</time></trkpt><trkpt lat="45.662455" lon="5.0985683"><ele>222.0</ele><time>2026-05-01T14:55:53.246Z</time></trkpt><trkpt lat="45.6625917" lon="5.0982983"><ele>222.0</ele><time>2026-05-01T14:55:54.246Z</time></trkpt><trkpt lat="45.662725" lon="5.0980417"><ele>223.0</ele><time>2026-05-01T14:55:55.247Z</time></trkpt><trkpt lat="45.6628583" lon="5.0977783"><ele>224.0</ele><time>2026-05-01T14:55:56.247Z</time></trkpt><trkpt lat="45.6629883" lon="5.0975083"><ele>223.0</ele><time>2026-05-01T14:55:57.247Z</time></trkpt><trkpt lat="45.6631217" lon="5.0972283"><ele>222.0</ele><time>2026-05-01T14:55:58.247Z</time></trkpt><trkpt lat="45.6632583" lon="5.0969467"><ele>222.0</ele><time>2026-05-01T14:55:59.246Z</time></trkpt><trkpt lat="45.663395" lon="5.0966783"><ele>222.0</ele><time>2026-05-01T14:56:00.247Z</time></trkpt><trkpt lat="45.6635367" lon="5.0963917"><ele>223.0</ele><time>2026-05-01T14:56:01.247Z</time></trkpt><trkpt lat="45.6636767" lon="5.0961133"><ele>224.0</ele><time>2026-05-01T14:56:02.247Z</time></trkpt><trkpt lat="45.66382" lon="5.0958233"><ele>223.0</ele><time>2026-05-01T14:56:03.246Z</time></trkpt><trkpt lat="45.6639633" lon="5.0955367"><ele>222.0</ele><time>2026-05-01T14:56:04.247Z</time></trkpt><trkpt lat="45.6641133" lon="5.0952317"><ele>222.0</ele><time>2026-05-01T14:56:05.246Z</time></trkpt><trkpt lat="45.6642733" lon="5.0949483"><ele>222.0</ele><time>2026-05-01T14:56:06.247Z</time></trkpt><trkpt lat="45.6644233" lon="5.09467"><ele>222.0</ele><time>2026-05-01T14:56:07.246Z</time></trkpt><trkpt lat="45.6645667" lon="5.0943733"><ele>222.0</ele><time>2026-05-01T14:56:08.247Z</time></trkpt><trkpt lat="45.6647033" lon="5.094065"><ele>223.0</ele><time>2026-05-01T14:56:09.247Z</time></trkpt><trkpt lat="45.664845" lon="5.0937833"><ele>224.0</ele><time>2026-05-01T14:56:10.247Z</time></trkpt><trkpt lat="45.665" lon="5.0934933"><ele>224.0</ele><time>2026-05-01T14:56:11.246Z</time></trkpt><trkpt lat="45.6651517" lon="5.0932067"><ele>224.0</ele><time>2026-05-01T14:56:12.247Z</time></trkpt><trkpt lat="45.6653" lon="5.0929267"><ele>223.0</ele><time>2026-05-01T14:56:13.247Z</time></trkpt><trkpt lat="45.6654417" lon="5.0926417"><ele>222.0</ele><time>2026-05-01T14:56:14.247Z</time></trkpt><trkpt lat="45.6655867" lon="5.0923683"><ele>221.5</ele><time>2026-05-01T14:56:15.246Z</time></trkpt><trkpt lat="45.6657283" lon="5.09208"><ele>221.0</ele><time>2026-05-01T14:56:16.247Z</time></trkpt><trkpt lat="45.665865" lon="5.091795"><ele>221.0</ele><time>2026-05-01T14:56:17.247Z</time></trkpt><trkpt lat="45.666" lon="5.0915167"><ele>221.0</ele><time>2026-05-01T14:56:18.247Z</time></trkpt><trkpt lat="45.6661333" lon="5.091255"><ele>223.33333333333334</ele><time>2026-05-01T14:56:19.247Z</time></trkpt><trkpt lat="45.6662667" lon="5.090985"><ele>225.66666666666669</ele><time>2026-05-01T14:56:20.247Z</time></trkpt><trkpt lat="45.66639" lon="5.0907367"><ele>228.0</ele><time>2026-05-01T14:56:21.247Z</time></trkpt><trkpt lat="45.6664967" lon="5.0905117"><ele>229.0</ele><time>2026-05-01T14:56:22.247Z</time></trkpt><trkpt lat="45.666585" lon="5.0903083"><ele>230.0</ele><time>2026-05-01T14:56:23.247Z</time></trkpt><trkpt lat="45.6666567" lon="5.0901333"><ele>231.0</ele><time>2026-05-01T14:56:24.247Z</time></trkpt><trkpt lat="45.6667167" lon="5.0899583"><ele>232.0</ele><time>2026-05-01T14:56:25.247Z</time></trkpt><trkpt lat="45.6667767" lon="5.0897967"><ele>232.25</ele><time>2026-05-01T14:56:26.247Z</time></trkpt><trkpt lat="45.6668283" lon="5.089625"><ele>232.5</ele><time>2026-05-01T14:56:27.247Z</time></trkpt><trkpt lat="45.6668783" lon="5.089445"><ele>232.75</ele><time>2026-05-01T14:56:28.247Z</time></trkpt><trkpt lat="45.6669383" lon="5.0892467"><ele>233.0</ele><time>2026-05-01T14:56:29.246Z</time></trkpt><trkpt lat="45.6669917" lon="5.0890233"><ele>237.66666666666669</ele><time>2026-05-01T14:56:30.247Z</time></trkpt><trkpt lat="45.6670417" lon="5.0887883"><ele>242.33333333333331</ele><time>2026-05-01T14:56:31.246Z</time></trkpt><trkpt lat="45.6670983" lon="5.0885283"><ele>247.0</ele><time>2026-05-01T14:56:32.247Z</time></trkpt><trkpt lat="45.6671467" lon="5.08828"><ele>246.66666666666666</ele><time>2026-05-01T14:56:33.246Z</time></trkpt><trkpt lat="45.6671967" lon="5.08804"><ele>246.33333333333331</ele><time>2026-05-01T14:56:34.246Z</time></trkpt><trkpt lat="45.6672367" lon="5.0878"><ele>246.0</ele><time>2026-05-01T14:56:35.247Z</time></trkpt><trkpt lat="45.6673117" lon="5.08759"><ele>246.0</ele><time>2026-05-01T14:56:36.247Z</time></trkpt><trkpt lat="45.6674" lon="5.08741"><ele>246.0</ele><time>2026-05-01T14:56:37.247Z</time></trkpt><trkpt lat="45.66749" lon="5.0872483"><ele>246.0</ele><time>2026-05-01T14:56:38.247Z</time></trkpt><trkpt lat="45.6675717" lon="5.087085"><ele>246.0</ele><time>2026-05-01T14:56:39.246Z</time></trkpt><trkpt lat="45.6676717" lon="5.0869317"><ele>246.0</ele><time>2026-05-01T14:56:40.247Z</time></trkpt><trkpt lat="45.6677617" lon="5.086775"><ele>246.0</ele><time>2026-05-01T14:56:41.246Z</time></trkpt><trkpt lat="45.6678683" lon="5.0866183"><ele>246.0</ele><time>2026-05-01T14:56:42.246Z</time></trkpt><trkpt lat="45.6679767" lon="5.086455"><ele>246.66666666666669</ele><time>2026-05-01T14:56:43.247Z</time></trkpt><trkpt lat="45.6681017" lon="5.0862983"><ele>247.33333333333334</ele><time>2026-05-01T14:56:44.247Z</time></trkpt><trkpt lat="45.668225" lon="5.086135"><ele>248.0</ele><time>2026-05-01T14:56:45.247Z</time></trkpt><trkpt lat="45.668345" lon="5.0859717"><ele>248.0</ele><time>2026-05-01T14:56:46.247Z</time></trkpt><trkpt lat="45.6684783" lon="5.08582"><ele>248.0</ele><time>2026-05-01T14:56:47.247Z</time></trkpt><trkpt lat="45.6685967" lon="5.08565"><ele>248.0</ele><time>2026-05-01T14:56:48.247Z</time></trkpt><trkpt lat="45.6687383" lon="5.085475"><ele>248.33333333333334</ele><time>2026-05-01T14:56:49.246Z</time></trkpt><trkpt lat="45.668895" lon="5.0852883"><ele>248.66666666666669</ele><time>2026-05-01T14:56:50.247Z</time></trkpt><trkpt lat="45.6690583" lon="5.0850483"><ele>249.0</ele><time>2026-05-01T14:56:51.246Z</time></trkpt><trkpt lat="45.6692183" lon="5.0848083"><ele>249.0</ele><time>2026-05-01T14:56:52.247Z</time></trkpt><trkpt lat="45.6693783" lon="5.0845683"><ele>249.0</ele><time>2026-05-01T14:56:53.247Z</time></trkpt><trkpt lat="45.66954" lon="5.08433"><ele>249.0</ele><time>2026-05-01T14:56:54.247Z</time></trkpt><trkpt lat="45.66969" lon="5.08412"><ele>249.0</ele><time>2026-05-01T14:56:55.247Z</time></trkpt><trkpt lat="45.669855" lon="5.0839033"><ele>249.0</ele><time>2026-05-01T14:56:56.247Z</time></trkpt><trkpt lat="45.6700183" lon="5.0837217"><ele>248.5</ele><time>2026-05-01T14:56:57.247Z</time></trkpt><trkpt lat="45.670185" lon="5.0835017"><ele>248.0</ele><time>2026-05-01T14:56:58.246Z</time></trkpt><trkpt lat="45.6703467" lon="5.0832783"><ele>248.33333333333334</ele><time>2026-05-01T14:56:59.247Z</time></trkpt><trkpt lat="45.6705083" lon="5.0830617"><ele>248.66666666666669</ele><time>2026-05-01T14:57:00.247Z</time></trkpt><trkpt lat="45.6706683" lon="5.082855"><ele>249.0</ele><time>2026-05-01T14:57:01.247Z</time></trkpt><trkpt lat="45.6708267" lon="5.08265"><ele>249.0</ele><time>2026-05-01T14:57:02.246Z</time></trkpt><trkpt lat="45.670985" lon="5.0824383"><ele>249.0</ele><time>2026-05-01T14:57:03.247Z</time></trkpt><trkpt lat="45.6711317" lon="5.0822417"><ele>249.0</ele><time>2026-05-01T14:57:04.247Z</time></trkpt><trkpt lat="45.6712717" lon="5.0820433"><ele>248.66666666666669</ele><time>2026-05-01T14:57:05.247Z</time></trkpt><trkpt lat="45.6713983" lon="5.0818617"><ele>248.33333333333334</ele><time>2026-05-01T14:57:06.246Z</time></trkpt><trkpt lat="45.6715167" lon="5.0817"><ele>248.0</ele><time>2026-05-01T14:57:07.247Z</time></trkpt><trkpt lat="45.6716233" lon="5.0815583"><ele>247.75</ele><time>2026-05-01T14:57:08.246Z</time></trkpt><trkpt lat="45.67172" lon="5.0814383"><ele>247.5</ele><time>2026-05-01T14:57:09.247Z</time></trkpt><trkpt lat="45.6718183" lon="5.0813233"><ele>247.25</ele><time>2026-05-01T14:57:10.247Z</time></trkpt><trkpt lat="45.6719133" lon="5.0812233"><ele>247.0</ele><time>2026-05-01T14:57:11.246Z</time></trkpt><trkpt lat="45.67199" lon="5.0811267"><ele>247.0</ele><time>2026-05-01T14:57:12.247Z</time></trkpt><trkpt lat="45.672065" lon="5.081045"><ele>247.0</ele><time>2026-05-01T14:57:13.247Z</time></trkpt><trkpt lat="45.6721367" lon="5.0809583"><ele>247.0</ele><time>2026-05-01T14:57:14.247Z</time></trkpt><trkpt lat="45.6722183" lon="5.08092"><ele>247.0</ele><time>2026-05-01T14:57:15.247Z</time></trkpt><trkpt lat="45.6723083" lon="5.08091"><ele>247.0</ele><time>2026-05-01T14:57:16.247Z</time></trkpt><trkpt lat="45.672395" lon="5.0808917"><ele>247.0</ele><time>2026-05-01T14:57:17.247Z</time></trkpt><trkpt lat="45.6724667" lon="5.0808517"><ele>247.0</ele><time>2026-05-01T14:57:18.247Z</time></trkpt><trkpt lat="45.6725317" lon="5.080785"><ele>247.0</ele><time>2026-05-01T14:57:19.246Z</time></trkpt><trkpt lat="45.67259" lon="5.0806683"><ele>247.0</ele><time>2026-05-01T14:57:20.247Z</time></trkpt><trkpt lat="45.6726433" lon="5.08052"><ele>247.0</ele><time>2026-05-01T14:57:21.247Z</time></trkpt><trkpt lat="45.6727" lon="5.0803233"><ele>246.66666666666666</ele><time>2026-05-01T14:57:22.247Z</time></trkpt><trkpt lat="45.672795" lon="5.0801283"><ele>246.33333333333331</ele><time>2026-05-01T14:57:23.246Z</time></trkpt><trkpt lat="45.672925" lon="5.0799017"><ele>246.0</ele><time>2026-05-01T14:57:24.247Z</time></trkpt><trkpt lat="45.6730767" lon="5.0797083"><ele>246.0</ele><time>2026-05-01T14:57:25.247Z</time></trkpt><trkpt lat="45.6732317" lon="5.0795033"><ele>246.0</ele><time>2026-05-01T14:57:26.247Z</time></trkpt><trkpt lat="45.673395" lon="5.0792533"><ele>246.0</ele><time>2026-05-01T14:57:27.247Z</time></trkpt><trkpt lat="45.6735683" lon="5.0790033"><ele>246.0</ele><time>2026-05-01T14:57:28.246Z</time></trkpt><trkpt lat="45.6737533" lon="5.0787483"><ele>246.0</ele><time>2026-05-01T14:57:29.247Z</time></trkpt><trkpt lat="45.673935" lon="5.0784917"><ele>246.0</ele><time>2026-05-01T14:57:30.247Z</time></trkpt><trkpt lat="45.6741267" lon="5.078235"><ele>246.5</ele><time>2026-05-01T14:57:31.247Z</time></trkpt><trkpt lat="45.6743183" lon="5.0779767"><ele>247.0</ele><time>2026-05-01T14:57:32.246Z</time></trkpt><trkpt lat="45.6745117" lon="5.07773"><ele>247.0</ele><time>2026-05-01T14:57:33.246Z</time></trkpt><trkpt lat="45.6746983" lon="5.077475"><ele>247.0</ele><time>2026-05-01T14:57:34.247Z</time></trkpt><trkpt lat="45.6748883" lon="5.0772233"><ele>247.0</ele><time>2026-05-01T14:57:35.246Z</time></trkpt><trkpt lat="45.6750733" lon="5.0769783"><ele>247.0</ele><time>2026-05-01T14:57:36.247Z</time></trkpt><trkpt lat="45.6752583" lon="5.0767217"><ele>247.5</ele><time>2026-05-01T14:57:37.246Z</time></trkpt><trkpt lat="45.67544" lon="5.07648"><ele>248.0</ele><time>2026-05-01T14:57:38.247Z</time></trkpt><trkpt lat="45.675625" lon="5.076245"><ele>248.0</ele><time>2026-05-01T14:57:39.247Z</time></trkpt><trkpt lat="45.6758017" lon="5.076005"><ele>248.0</ele><time>2026-05-01T14:57:40.246Z</time></trkpt><trkpt lat="45.6759783" lon="5.07577"><ele>247.5</ele><time>2026-05-01T14:57:41.246Z</time></trkpt><trkpt lat="45.6761483" lon="5.0755333"><ele>247.0</ele><time>2026-05-01T14:57:42.246Z</time></trkpt><trkpt lat="45.6763167" lon="5.0753067"><ele>247.0</ele><time>2026-05-01T14:57:43.246Z</time></trkpt><trkpt lat="45.67649" lon="5.0750583"><ele>247.0</ele><time>2026-05-01T14:57:44.246Z</time></trkpt><trkpt lat="45.67667" lon="5.07483"><ele>247.0</ele><time>2026-05-01T14:57:45.247Z</time></trkpt><trkpt lat="45.6768467" lon="5.0745967"><ele>247.0</ele><time>2026-05-01T14:57:46.247Z</time></trkpt><trkpt lat="45.677035" lon="5.0743567"><ele>246.5</ele><time>2026-05-01T14:57:47.247Z</time></trkpt><trkpt lat="45.6772233" lon="5.0741133"><ele>246.0</ele><time>2026-05-01T14:57:48.247Z</time></trkpt><trkpt lat="45.67741" lon="5.07387"><ele>246.0</ele><time>2026-05-01T14:57:49.246Z</time></trkpt><trkpt lat="45.6776" lon="5.073615"><ele>246.0</ele><time>2026-05-01T14:57:50.246Z</time></trkpt><trkpt lat="45.6777967" lon="5.0733583"><ele>244.5</ele><time>2026-05-01T14:57:51.246Z</time></trkpt><trkpt lat="45.6779917" lon="5.073105"><ele>243.0</ele><time>2026-05-01T14:57:52.246Z</time></trkpt><trkpt lat="45.6781867" lon="5.072855"><ele>243.0</ele><time>2026-05-01T14:57:53.245Z</time></trkpt><trkpt lat="45.6783783" lon="5.0726"><ele>243.0</ele><time>2026-05-01T14:57:54.245Z</time></trkpt><trkpt lat="45.6785733" lon="5.07234"><ele>243.5</ele><time>2026-05-01T14:57:55.245Z</time></trkpt><trkpt lat="45.6787583" lon="5.0720917"><ele>244.0</ele><time>2026-05-01T14:57:56.246Z</time></trkpt><trkpt lat="45.67895" lon="5.0718367"><ele>244.5</ele><time>2026-05-01T14:57:57.246Z</time></trkpt><trkpt lat="45.679145" lon="5.0716"><ele>245.0</ele><time>2026-05-01T14:57:58.246Z</time></trkpt><trkpt lat="45.679345" lon="5.071355"><ele>244.0</ele><time>2026-05-01T14:57:59.246Z</time></trkpt><trkpt lat="45.6795433" lon="5.0711217"><ele>243.0</ele><time>2026-05-01T14:58:00.246Z</time></trkpt><trkpt lat="45.6797383" lon="5.0708767"><ele>243.5</ele><time>2026-05-01T14:58:01.246Z</time></trkpt><trkpt lat="45.6799267" lon="5.0706067"><ele>244.0</ele><time>2026-05-01T14:58:02.245Z</time></trkpt><trkpt lat="45.6801283" lon="5.0703667"><ele>244.0</ele><time>2026-05-01T14:58:03.245Z</time></trkpt><trkpt lat="45.68034" lon="5.0701017"><ele>244.0</ele><time>2026-05-01T14:58:04.246Z</time></trkpt><trkpt lat="45.680545" lon="5.0698233"><ele>244.5</ele><time>2026-05-01T14:58:05.246Z</time></trkpt><trkpt lat="45.6807467" lon="5.0695483"><ele>245.0</ele><time>2026-05-01T14:58:06.246Z</time></trkpt><trkpt lat="45.6809417" lon="5.0692717"><ele>241.5</ele><time>2026-05-01T14:58:07.246Z</time></trkpt><trkpt lat="45.6811317" lon="5.069"><ele>238.0</ele><time>2026-05-01T14:58:08.246Z</time></trkpt><trkpt lat="45.6813067" lon="5.0686983"><ele>238.0</ele><time>2026-05-01T14:58:09.246Z</time></trkpt><trkpt lat="45.6814733" lon="5.068395"><ele>238.0</ele><time>2026-05-01T14:58:10.245Z</time></trkpt><trkpt lat="45.6816317" lon="5.0680917"><ele>240.0</ele><time>2026-05-01T14:58:11.246Z</time></trkpt><trkpt lat="45.6817817" lon="5.0678"><ele>242.0</ele><time>2026-05-01T14:58:12.246Z</time></trkpt><trkpt lat="45.6819317" lon="5.0674733"><ele>241.0</ele><time>2026-05-01T14:58:13.245Z</time></trkpt><trkpt lat="45.6820667" lon="5.067165"><ele>240.0</ele><time>2026-05-01T14:58:14.246Z</time></trkpt><trkpt lat="45.6822017" lon="5.0668483"><ele>239.0</ele><time>2026-05-01T14:58:15.245Z</time></trkpt><trkpt lat="45.682345" lon="5.0665333"><ele>238.0</ele><time>2026-05-01T14:58:16.245Z</time></trkpt><trkpt lat="45.682485" lon="5.0662333"><ele>238.0</ele><time>2026-05-01T14:58:17.245Z</time></trkpt><trkpt lat="45.6826133" lon="5.065925"><ele>238.0</ele><time>2026-05-01T14:58:18.245Z</time></trkpt><trkpt lat="45.682735" lon="5.0656167"><ele>240.0</ele><time>2026-05-01T14:58:19.245Z</time></trkpt><trkpt lat="45.68284" lon="5.0653117"><ele>242.0</ele><time>2026-05-01T14:58:20.245Z</time></trkpt><trkpt lat="45.682945" lon="5.0650433"><ele>241.0</ele><time>2026-05-01T14:58:21.246Z</time></trkpt><trkpt lat="45.683035" lon="5.0647783"><ele>240.0</ele><time>2026-05-01T14:58:22.246Z</time></trkpt><trkpt lat="45.683125" lon="5.0645283"><ele>239.0</ele><time>2026-05-01T14:58:23.246Z</time></trkpt><trkpt lat="45.6832033" lon="5.0642567"><ele>239.0</ele><time>2026-05-01T14:58:24.246Z</time></trkpt><trkpt lat="45.6832717" lon="5.0639683"><ele>239.0</ele><time>2026-05-01T14:58:25.246Z</time></trkpt><trkpt lat="45.68334" lon="5.0636733"><ele>239.0</ele><time>2026-05-01T14:58:26.246Z</time></trkpt><trkpt lat="45.6834" lon="5.0633767"><ele>238.66666666666669</ele><time>2026-05-01T14:58:27.246Z</time></trkpt><trkpt lat="45.683465" lon="5.063095"><ele>238.33333333333331</ele><time>2026-05-01T14:58:28.246Z</time></trkpt><trkpt lat="45.6835283" lon="5.0628267"><ele>238.0</ele><time>2026-05-01T14:58:29.246Z</time></trkpt><trkpt lat="45.683585" lon="5.0625883"><ele>238.25</ele><time>2026-05-01T14:58:30.245Z</time></trkpt><trkpt lat="45.6836433" lon="5.0623783"><ele>238.5</ele><time>2026-05-01T14:58:31.246Z</time></trkpt><trkpt lat="45.6836917" lon="5.0621933"><ele>238.75</ele><time>2026-05-01T14:58:32.246Z</time></trkpt><trkpt lat="45.683735" lon="5.0620283"><ele>239.0</ele><time>2026-05-01T14:58:33.245Z</time></trkpt><trkpt lat="45.6837733" lon="5.061885"><ele>239.00000000000003</ele><time>2026-05-01T14:58:34.246Z</time></trkpt><trkpt lat="45.683815" lon="5.0617833"><ele>239.0</ele><time>2026-05-01T14:58:35.245Z</time></trkpt><trkpt lat="45.6838633" lon="5.0617"><ele>239.0</ele><time>2026-05-01T14:58:36.245Z</time></trkpt><trkpt lat="45.68392" lon="5.06163"><ele>239.0</ele><time>2026-05-01T14:58:37.246Z</time></trkpt><trkpt lat="45.6839917" lon="5.0615683"><ele>239.00000000000003</ele><time>2026-05-01T14:58:38.246Z</time></trkpt><trkpt lat="45.6840633" lon="5.0615067"><ele>239.0</ele><time>2026-05-01T14:58:39.246Z</time></trkpt><trkpt lat="45.6841333" lon="5.0614233"><ele>238.79999999999998</ele><time>2026-05-01T14:58:40.245Z</time></trkpt><trkpt lat="45.6841817" lon="5.0613117"><ele>238.59999999999997</ele><time>2026-05-01T14:58:41.246Z</time></trkpt><trkpt lat="45.6841917" lon="5.06118"><ele>238.4</ele><time>2026-05-01T14:58:42.246Z</time></trkpt><trkpt lat="45.6841917" lon="5.0610083"><ele>238.2</ele><time>2026-05-01T14:58:43.246Z</time></trkpt><trkpt lat="45.6841867" lon="5.0608083"><ele>238.0</ele><time>2026-05-01T14:58:44.245Z</time></trkpt><trkpt lat="45.684165" lon="5.0605733"><ele>238.0</ele><time>2026-05-01T14:58:45.245Z</time></trkpt><trkpt lat="45.68419" lon="5.0603517"><ele>238.0</ele><time>2026-05-01T14:58:46.246Z</time></trkpt><trkpt lat="45.6842383" lon="5.0601183"><ele>238.0</ele><time>2026-05-01T14:58:47.246Z</time></trkpt><trkpt lat="45.6843" lon="5.0598983"><ele>238.0</ele><time>2026-05-01T14:58:48.245Z</time></trkpt><trkpt lat="45.6843617" lon="5.0596767"><ele>238.0</ele><time>2026-05-01T14:58:49.246Z</time></trkpt><trkpt lat="45.68443" lon="5.059415"><ele>238.0</ele><time>2026-05-01T14:58:50.246Z</time></trkpt><trkpt lat="45.684495" lon="5.059175"><ele>238.0</ele><time>2026-05-01T14:58:51.246Z</time></trkpt><trkpt lat="45.6845717" lon="5.0589067"><ele>238.0</ele><time>2026-05-01T14:58:52.245Z</time></trkpt><trkpt lat="45.6846567" lon="5.0586583"><ele>238.0</ele><time>2026-05-01T14:58:53.246Z</time></trkpt><trkpt lat="45.6847567" lon="5.0584133"><ele>238.0</ele><time>2026-05-01T14:58:54.246Z</time></trkpt><trkpt lat="45.6848767" lon="5.0581633"><ele>238.0</ele><time>2026-05-01T14:58:55.246Z</time></trkpt><trkpt lat="45.685" lon="5.0579283"><ele>238.0</ele><time>2026-05-01T14:58:56.246Z</time></trkpt><trkpt lat="45.6851217" lon="5.0576867"><ele>238.0</ele><time>2026-05-01T14:58:57.246Z</time></trkpt><trkpt lat="45.685255" lon="5.057455"><ele>238.0</ele><time>2026-05-01T14:58:58.245Z</time></trkpt><trkpt lat="45.6853817" lon="5.0572483"><ele>238.0</ele><time>2026-05-01T14:58:59.246Z</time></trkpt><trkpt lat="45.685515" lon="5.0570367"><ele>238.0</ele><time>2026-05-01T14:59:00.246Z</time></trkpt><trkpt lat="45.6856483" lon="5.0568517"><ele>238.0</ele><time>2026-05-01T14:59:01.246Z</time></trkpt><trkpt lat="45.685785" lon="5.0566233"><ele>238.0</ele><time>2026-05-01T14:59:02.246Z</time></trkpt><trkpt lat="45.6858967" lon="5.0564"><ele>238.0</ele><time>2026-05-01T14:59:03.245Z</time></trkpt><trkpt lat="45.686025" lon="5.0562117"><ele>238.0</ele><time>2026-05-01T14:59:04.246Z</time></trkpt><trkpt lat="45.68612" lon="5.0560767"><ele>238.0</ele><time>2026-05-01T14:59:05.246Z</time></trkpt><trkpt lat="45.6861967" lon="5.0559633"><ele>238.0</ele><time>2026-05-01T14:59:06.246Z</time></trkpt><trkpt lat="45.6862383" lon="5.0558783"><ele>238.16666666666666</ele><time>2026-05-01T14:59:07.246Z</time></trkpt><trkpt lat="45.6862833" lon="5.05579"><ele>238.33333333333331</ele><time>2026-05-01T14:59:08.246Z</time></trkpt><trkpt lat="45.6863317" lon="5.0557033"><ele>238.5</ele><time>2026-05-01T14:59:09.245Z</time></trkpt><trkpt lat="45.6863683" lon="5.05559"><ele>238.66666666666669</ele><time>2026-05-01T14:59:10.246Z</time></trkpt><trkpt lat="45.6864117" lon="5.0555117"><ele>238.83333333333334</ele><time>2026-05-01T14:59:11.246Z</time></trkpt><trkpt lat="45.686485" lon="5.055475"><ele>239.0</ele><time>2026-05-01T14:59:12.246Z</time></trkpt><trkpt lat="45.6865683" lon="5.0554583"><ele>239.00000000000003</ele><time>2026-05-01T14:59:13.246Z</time></trkpt><trkpt lat="45.6866483" lon="5.0554033"><ele>239.0</ele><time>2026-05-01T14:59:14.246Z</time></trkpt><trkpt lat="45.68671" lon="5.055345"><ele>239.0</ele><time>2026-05-01T14:59:15.245Z</time></trkpt><trkpt lat="45.6867583" lon="5.05528"><ele>239.0</ele><time>2026-05-01T14:59:16.245Z</time></trkpt><trkpt lat="45.6867867" lon="5.0551683"><ele>239.00000000000003</ele><time>2026-05-01T14:59:17.246Z</time></trkpt><trkpt lat="45.6867933" lon="5.0550717"><ele>239.0</ele><time>2026-05-01T14:59:18.246Z</time></trkpt><trkpt lat="45.6867617" lon="5.054955"><ele>239.0</ele><time>2026-05-01T14:59:19.245Z</time></trkpt><trkpt lat="45.68667" lon="5.054795"><ele>239.0</ele><time>2026-05-01T14:59:20.246Z</time></trkpt><trkpt lat="45.6866" lon="5.0546167"><ele>239.0</ele><time>2026-05-01T14:59:21.245Z</time></trkpt><trkpt lat="45.6865633" lon="5.054415"><ele>239.0</ele><time>2026-05-01T14:59:22.246Z</time></trkpt><trkpt lat="45.6865217" lon="5.054185"><ele>239.0</ele><time>2026-05-01T14:59:23.246Z</time></trkpt><trkpt lat="45.6864867" lon="5.0539517"><ele>239.0</ele><time>2026-05-01T14:59:24.246Z</time></trkpt><trkpt lat="45.6864467" lon="5.0537083"><ele>239.0</ele><time>2026-05-01T14:59:25.246Z</time></trkpt><trkpt lat="45.68641" lon="5.0534733"><ele>239.33333333333334</ele><time>2026-05-01T14:59:26.246Z</time></trkpt><trkpt lat="45.6863583" lon="5.05323"><ele>239.66666666666669</ele><time>2026-05-01T14:59:27.245Z</time></trkpt><trkpt lat="45.686325" lon="5.0530017"><ele>240.0</ele><time>2026-05-01T14:59:28.246Z</time></trkpt><trkpt lat="45.6863067" lon="5.052775"><ele>240.0</ele><time>2026-05-01T14:59:29.245Z</time></trkpt><trkpt lat="45.6863" lon="5.0525467"><ele>240.0</ele><time>2026-05-01T14:59:30.246Z</time></trkpt><trkpt lat="45.6863033" lon="5.0523283"><ele>240.0</ele><time>2026-05-01T14:59:31.245Z</time></trkpt><trkpt lat="45.686315" lon="5.052105"><ele>241.25</ele><time>2026-05-01T14:59:32.245Z</time></trkpt><trkpt lat="45.6863367" lon="5.0518883"><ele>242.5</ele><time>2026-05-01T14:59:33.246Z</time></trkpt><trkpt lat="45.6863667" lon="5.0516817"><ele>243.75</ele><time>2026-05-01T14:59:34.245Z</time></trkpt><trkpt lat="45.6864017" lon="5.0514833"><ele>245.0</ele><time>2026-05-01T14:59:35.246Z</time></trkpt><trkpt lat="45.6864483" lon="5.05129"><ele>245.6</ele><time>2026-05-01T14:59:36.245Z</time></trkpt><trkpt lat="45.686505" lon="5.0511517"><ele>246.2</ele><time>2026-05-01T14:59:37.246Z</time></trkpt><trkpt lat="45.68655" lon="5.051"><ele>246.8</ele><time>2026-05-01T14:59:38.245Z</time></trkpt><trkpt lat="45.686585" lon="5.0508683"><ele>247.4</ele><time>2026-05-01T14:59:39.246Z</time></trkpt><trkpt lat="45.6866233" lon="5.0507367"><ele>248.0</ele><time>2026-05-01T14:59:40.246Z</time></trkpt><trkpt lat="45.6866633" lon="5.0506233"><ele>248.16666666666669</ele><time>2026-05-01T14:59:41.245Z</time></trkpt><trkpt lat="45.6866817" lon="5.0504967"><ele>248.33333333333334</ele><time>2026-05-01T14:59:42.246Z</time></trkpt><trkpt lat="45.68673" lon="5.0503917"><ele>248.5</ele><time>2026-05-01T14:59:43.245Z</time></trkpt><trkpt lat="45.6867533" lon="5.0502867"><ele>248.66666666666669</ele><time>2026-05-01T14:59:44.246Z</time></trkpt><trkpt lat="45.6867817" lon="5.050195"><ele>248.83333333333334</ele><time>2026-05-01T14:59:45.246Z</time></trkpt><trkpt lat="45.6868017" lon="5.050105"><ele>249.0</ele><time>2026-05-01T14:59:46.246Z</time></trkpt><trkpt lat="45.6868517" lon="5.04994"><ele>249.28571428571428</ele><time>2026-05-01T14:59:48.246Z</time></trkpt><trkpt lat="45.68688" lon="5.049845"><ele>249.57142857142856</ele><time>2026-05-01T14:59:49.246Z</time></trkpt><trkpt lat="45.6869133" lon="5.0497533"><ele>249.85714285714283</ele><time>2026-05-01T14:59:50.246Z</time></trkpt><trkpt lat="45.686945" lon="5.0496617"><ele>250.1428571428571</ele><time>2026-05-01T14:59:51.246Z</time></trkpt><trkpt lat="45.6869717" lon="5.0495733"><ele>250.42857142857142</ele><time>2026-05-01T14:59:52.246Z</time></trkpt><trkpt lat="45.687005" lon="5.049485"><ele>250.71428571428567</ele><time>2026-05-01T14:59:53.245Z</time></trkpt><trkpt lat="45.6870267" lon="5.0493967"><ele>250.99999999999997</ele><time>2026-05-01T14:59:54.246Z</time></trkpt><trkpt lat="45.6870533" lon="5.0493083"><ele>250.66666666666669</ele><time>2026-05-01T14:59:55.246Z</time></trkpt><trkpt lat="45.6870783" lon="5.0492133"><ele>250.33333333333334</ele><time>2026-05-01T14:59:56.246Z</time></trkpt><trkpt lat="45.68711" lon="5.0491167"><ele>250.0</ele><time>2026-05-01T14:59:57.246Z</time></trkpt><trkpt lat="45.6871367" lon="5.0490217"><ele>249.66666666666669</ele><time>2026-05-01T14:59:58.245Z</time></trkpt><trkpt lat="45.687155" lon="5.0489183"><ele>249.33333333333334</ele><time>2026-05-01T14:59:59.245Z</time></trkpt><trkpt lat="45.6871817" lon="5.04881"><ele>249.0</ele><time>2026-05-01T15:00:00.246Z</time></trkpt><trkpt lat="45.6872083" lon="5.0487017"><ele>249.0</ele><time>2026-05-01T15:00:01.246Z</time></trkpt><trkpt lat="45.6872467" lon="5.0485817"><ele>248.99999999999997</ele><time>2026-05-01T15:00:02.246Z</time></trkpt><trkpt lat="45.6872817" lon="5.04845"><ele>248.99999999999997</ele><time>2026-05-01T15:00:03.246Z</time></trkpt><trkpt lat="45.6873183" lon="5.048315"><ele>249.0</ele><time>2026-05-01T15:00:04.246Z</time></trkpt><trkpt lat="45.6873567" lon="5.04816"><ele>249.0</ele><time>2026-05-01T15:00:05.246Z</time></trkpt><trkpt lat="45.6873983" lon="5.0480133"><ele>249.39999999999998</ele><time>2026-05-01T15:00:06.246Z</time></trkpt><trkpt lat="45.6874367" lon="5.0478717"><ele>249.79999999999998</ele><time>2026-05-01T15:00:07.245Z</time></trkpt><trkpt lat="45.6874767" lon="5.0477417"><ele>250.20000000000002</ele><time>2026-05-01T15:00:08.245Z</time></trkpt><trkpt lat="45.6875083" lon="5.0476333"><ele>250.60000000000002</ele><time>2026-05-01T15:00:09.246Z</time></trkpt><trkpt lat="45.6875467" lon="5.047545"><ele>251.0</ele><time>2026-05-01T15:00:10.246Z</time></trkpt><trkpt lat="45.6875867" lon="5.0474167"><ele>251.0</ele><time>2026-05-01T15:00:12.246Z</time></trkpt><trkpt lat="45.6876267" lon="5.047335"><ele>251.00000000000003</ele><time>2026-05-01T15:00:15.246Z</time></trkpt><trkpt lat="45.6876583" lon="5.0472433"><ele>251.00000000000003</ele><time>2026-05-01T15:00:18.246Z</time></trkpt><trkpt lat="45.6877183" lon="5.047125"><ele>251.0</ele><time>2026-05-01T15:00:20.246Z</time></trkpt><trkpt lat="45.6877867" lon="5.0469517"><ele>251.0</ele><time>2026-05-01T15:00:22.246Z</time></trkpt><trkpt lat="45.687835" lon="5.0468533"><ele>251.0</ele><time>2026-05-01T15:00:23.245Z</time></trkpt><trkpt lat="45.6878867" lon="5.04675"><ele>251.00000000000003</ele><time>2026-05-01T15:00:24.246Z</time></trkpt><trkpt lat="45.687935" lon="5.0466333"><ele>251.00000000000003</ele><time>2026-05-01T15:00:25.246Z</time></trkpt><trkpt lat="45.6879783" lon="5.04649"><ele>251.0</ele><time>2026-05-01T15:00:26.245Z</time></trkpt><trkpt lat="45.6880217" lon="5.0463433"><ele>251.0</ele><time>2026-05-01T15:00:27.246Z</time></trkpt><trkpt lat="45.6880617" lon="5.046205"><ele>251.0</ele><time>2026-05-01T15:00:28.246Z</time></trkpt><trkpt lat="45.688105" lon="5.046065"><ele>251.0</ele><time>2026-05-01T15:00:29.246Z</time></trkpt><trkpt lat="45.688155" lon="5.0459233"><ele>251.0</ele><time>2026-05-01T15:00:30.246Z</time></trkpt><trkpt lat="45.6882" lon="5.0457683"><ele>251.0</ele><time>2026-05-01T15:00:31.245Z</time></trkpt><trkpt lat="45.68825" lon="5.0455967"><ele>251.0</ele><time>2026-05-01T15:00:32.246Z</time></trkpt><trkpt lat="45.6882967" lon="5.0454083"><ele>251.0</ele><time>2026-05-01T15:00:33.245Z</time></trkpt><trkpt lat="45.6883433" lon="5.04519"><ele>251.0</ele><time>2026-05-01T15:00:34.245Z</time></trkpt><trkpt lat="45.6884033" lon="5.0449767"><ele>251.0</ele><time>2026-05-01T15:00:35.246Z</time></trkpt><trkpt lat="45.6884633" lon="5.0447567"><ele>251.0</ele><time>2026-05-01T15:00:36.246Z</time></trkpt><trkpt lat="45.6885333" lon="5.0445267"><ele>251.0</ele><time>2026-05-01T15:00:37.246Z</time></trkpt><trkpt lat="45.6886133" lon="5.0443117"><ele>250.66666666666669</ele><time>2026-05-01T15:00:38.246Z</time></trkpt><trkpt lat="45.6886733" lon="5.0440833"><ele>250.33333333333331</ele><time>2026-05-01T15:00:39.246Z</time></trkpt><trkpt lat="45.6887383" lon="5.0438567"><ele>250.0</ele><time>2026-05-01T15:00:40.245Z</time></trkpt><trkpt lat="45.6888033" lon="5.04362"><ele>250.0</ele><time>2026-05-01T15:00:41.246Z</time></trkpt><trkpt lat="45.6888683" lon="5.04337"><ele>250.0</ele><time>2026-05-01T15:00:42.246Z</time></trkpt><trkpt lat="45.6889383" lon="5.0431283"><ele>250.0</ele><time>2026-05-01T15:00:43.246Z</time></trkpt><trkpt lat="45.6890067" lon="5.0428933"><ele>249.66666666666666</ele><time>2026-05-01T15:00:44.245Z</time></trkpt><trkpt lat="45.6890733" lon="5.04267"><ele>249.33333333333331</ele><time>2026-05-01T15:00:45.246Z</time></trkpt><trkpt lat="45.6891433" lon="5.0424583"><ele>249.0</ele><time>2026-05-01T15:00:46.245Z</time></trkpt><trkpt lat="45.689225" lon="5.0422467"><ele>249.0</ele><time>2026-05-01T15:00:47.246Z</time></trkpt><trkpt lat="45.6892783" lon="5.04204"><ele>249.0</ele><time>2026-05-01T15:00:48.246Z</time></trkpt><trkpt lat="45.6893367" lon="5.04184"><ele>249.0</ele><time>2026-05-01T15:00:49.245Z</time></trkpt><trkpt lat="45.6894" lon="5.0416367"><ele>248.66666666666669</ele><time>2026-05-01T15:00:50.246Z</time></trkpt><trkpt lat="45.6894633" lon="5.0414283"><ele>248.33333333333334</ele><time>2026-05-01T15:00:51.246Z</time></trkpt><trkpt lat="45.6895183" lon="5.041215"><ele>248.0</ele><time>2026-05-01T15:00:52.245Z</time></trkpt><trkpt lat="45.6895817" lon="5.04101"><ele>248.0</ele><time>2026-05-01T15:00:53.245Z</time></trkpt><trkpt lat="45.689635" lon="5.0408267"><ele>248.0</ele><time>2026-05-01T15:00:54.245Z</time></trkpt><trkpt lat="45.6896917" lon="5.040615"><ele>248.0</ele><time>2026-05-01T15:00:55.246Z</time></trkpt><trkpt lat="45.68976" lon="5.040395"><ele>248.33333333333334</ele><time>2026-05-01T15:00:56.245Z</time></trkpt><trkpt lat="45.6898367" lon="5.0401833"><ele>248.66666666666669</ele><time>2026-05-01T15:00:57.245Z</time></trkpt><trkpt lat="45.689905" lon="5.0399483"><ele>249.0</ele><time>2026-05-01T15:00:58.246Z</time></trkpt><trkpt lat="45.6899867" lon="5.0397233"><ele>249.0</ele><time>2026-05-01T15:00:59.246Z</time></trkpt><trkpt lat="45.6900583" lon="5.0394817"><ele>249.0</ele><time>2026-05-01T15:01:00.246Z</time></trkpt><trkpt lat="45.6901083" lon="5.0392267"><ele>249.0</ele><time>2026-05-01T15:01:01.245Z</time></trkpt><trkpt lat="45.69018" lon="5.0389967"><ele>248.66666666666669</ele><time>2026-05-01T15:01:02.245Z</time></trkpt><trkpt lat="45.6902517" lon="5.0387683"><ele>248.33333333333334</ele><time>2026-05-01T15:01:03.245Z</time></trkpt><trkpt lat="45.6903117" lon="5.0385383"><ele>248.0</ele><time>2026-05-01T15:01:04.246Z</time></trkpt><trkpt lat="45.6903867" lon="5.0383033"><ele>247.66666666666669</ele><time>2026-05-01T15:01:05.246Z</time></trkpt><trkpt lat="45.6904267" lon="5.03809"><ele>247.33333333333331</ele><time>2026-05-01T15:01:06.246Z</time></trkpt><trkpt lat="45.6904817" lon="5.037875"><ele>247.0</ele><time>2026-05-01T15:01:07.245Z</time></trkpt><trkpt lat="45.69054" lon="5.0376733"><ele>247.0</ele><time>2026-05-01T15:01:08.245Z</time></trkpt><trkpt lat="45.6906017" lon="5.037475"><ele>247.0</ele><time>2026-05-01T15:01:09.246Z</time></trkpt><trkpt lat="45.690665" lon="5.037285"><ele>247.0</ele><time>2026-05-01T15:01:10.246Z</time></trkpt><trkpt lat="45.69072" lon="5.037095"><ele>247.0</ele><time>2026-05-01T15:01:11.246Z</time></trkpt><trkpt lat="45.690785" lon="5.0369167"><ele>247.0</ele><time>2026-05-01T15:01:12.245Z</time></trkpt><trkpt lat="45.6908267" lon="5.03676"><ele>247.0</ele><time>2026-05-01T15:01:13.245Z</time></trkpt><trkpt lat="45.6908733" lon="5.0366083"><ele>247.0</ele><time>2026-05-01T15:01:14.246Z</time></trkpt><trkpt lat="45.6909183" lon="5.036455"><ele>247.0</ele><time>2026-05-01T15:01:15.246Z</time></trkpt><trkpt lat="45.6909633" lon="5.0362967"><ele>247.25</ele><time>2026-05-01T15:01:16.246Z</time></trkpt><trkpt lat="45.69101" lon="5.0361433"><ele>247.5</ele><time>2026-05-01T15:01:17.246Z</time></trkpt><trkpt lat="45.691055" lon="5.0359817"><ele>247.75</ele><time>2026-05-01T15:01:18.246Z</time></trkpt><trkpt lat="45.691105" lon="5.0358367"><ele>248.0</ele><time>2026-05-01T15:01:19.246Z</time></trkpt><trkpt lat="45.6911683" lon="5.0356633"><ele>247.25</ele><time>2026-05-01T15:01:20.245Z</time></trkpt><trkpt lat="45.6912317" lon="5.0354783"><ele>246.5</ele><time>2026-05-01T15:01:21.246Z</time></trkpt><trkpt lat="45.691305" lon="5.0353083"><ele>245.75</ele><time>2026-05-01T15:01:22.246Z</time></trkpt><trkpt lat="45.69137" lon="5.0351317"><ele>245.0</ele><time>2026-05-01T15:01:23.246Z</time></trkpt><trkpt lat="45.6914183" lon="5.03495"><ele>245.0</ele><time>2026-05-01T15:01:24.246Z</time></trkpt><trkpt lat="45.6914683" lon="5.0347717"><ele>245.0</ele><time>2026-05-01T15:01:25.246Z</time></trkpt><trkpt lat="45.6915217" lon="5.0345933"><ele>245.0</ele><time>2026-05-01T15:01:26.245Z</time></trkpt><trkpt lat="45.6915667" lon="5.0344083"><ele>245.0</ele><time>2026-05-01T15:01:27.246Z</time></trkpt><trkpt lat="45.691625" lon="5.034225"><ele>245.0</ele><time>2026-05-01T15:01:28.246Z</time></trkpt><trkpt lat="45.691685" lon="5.03406"><ele>245.0</ele><time>2026-05-01T15:01:29.245Z</time></trkpt><trkpt lat="45.6917467" lon="5.0339067"><ele>245.0</ele><time>2026-05-01T15:01:30.245Z</time></trkpt><trkpt lat="45.691805" lon="5.0337267"><ele>245.0</ele><time>2026-05-01T15:01:31.246Z</time></trkpt><trkpt lat="45.69184" lon="5.0335633"><ele>245.0</ele><time>2026-05-01T15:01:32.246Z</time></trkpt><trkpt lat="45.6918917" lon="5.0334"><ele>245.0</ele><time>2026-05-01T15:01:33.246Z</time></trkpt><trkpt lat="45.6919467" lon="5.0332383"><ele>245.0</ele><time>2026-05-01T15:01:34.245Z</time></trkpt><trkpt lat="45.6919917" lon="5.0330867"><ele>245.0</ele><time>2026-05-01T15:01:35.245Z</time></trkpt><trkpt lat="45.6920383" lon="5.0329233"><ele>244.75</ele><time>2026-05-01T15:01:36.245Z</time></trkpt><trkpt lat="45.6920883" lon="5.03275"><ele>244.5</ele><time>2026-05-01T15:01:37.246Z</time></trkpt><trkpt lat="45.6921383" lon="5.0325783"><ele>244.25</ele><time>2026-05-01T15:01:38.246Z</time></trkpt><trkpt lat="45.6921967" lon="5.03241"><ele>244.0</ele><time>2026-05-01T15:01:39.246Z</time></trkpt><trkpt lat="45.6922517" lon="5.032245"><ele>244.0</ele><time>2026-05-01T15:01:40.246Z</time></trkpt><trkpt lat="45.6922983" lon="5.03208"><ele>244.0</ele><time>2026-05-01T15:01:41.246Z</time></trkpt><trkpt lat="45.6923367" lon="5.0319133"><ele>244.0</ele><time>2026-05-01T15:01:42.246Z</time></trkpt><trkpt lat="45.69239" lon="5.03175"><ele>244.0</ele><time>2026-05-01T15:01:43.245Z</time></trkpt><trkpt lat="45.6924317" lon="5.0315883"><ele>243.75</ele><time>2026-05-01T15:01:44.245Z</time></trkpt><trkpt lat="45.69248" lon="5.03142"><ele>243.5</ele><time>2026-05-01T15:01:45.245Z</time></trkpt><trkpt lat="45.6925167" lon="5.0312333"><ele>243.25</ele><time>2026-05-01T15:01:46.246Z</time></trkpt><trkpt lat="45.6925533" lon="5.0310767"><ele>243.0</ele><time>2026-05-01T15:01:47.245Z</time></trkpt><trkpt lat="45.6925933" lon="5.0309183"><ele>242.8</ele><time>2026-05-01T15:01:48.245Z</time></trkpt><trkpt lat="45.6926233" lon="5.0307583"><ele>242.60000000000002</ele><time>2026-05-01T15:01:49.245Z</time></trkpt><trkpt lat="45.6926617" lon="5.03061"><ele>242.39999999999998</ele><time>2026-05-01T15:01:50.245Z</time></trkpt><trkpt lat="45.6927017" lon="5.0304783"><ele>242.2</ele><time>2026-05-01T15:01:51.246Z</time></trkpt><trkpt lat="45.6927333" lon="5.03035"><ele>242.0</ele><time>2026-05-01T15:01:52.246Z</time></trkpt><trkpt lat="45.6927817" lon="5.03023"><ele>241.66666666666669</ele><time>2026-05-01T15:01:53.246Z</time></trkpt><trkpt lat="45.6928117" lon="5.0301267"><ele>241.33333333333334</ele><time>2026-05-01T15:01:54.246Z</time></trkpt><trkpt lat="45.69285" lon="5.0300417"><ele>241.0</ele><time>2026-05-01T15:01:55.245Z</time></trkpt><trkpt lat="45.6928983" lon="5.0299483"><ele>240.66666666666669</ele><time>2026-05-01T15:01:57.245Z</time></trkpt><trkpt lat="45.6929367" lon="5.0298733"><ele>240.33333333333334</ele><time>2026-05-01T15:02:23.245Z</time></trkpt><trkpt lat="45.6929917" lon="5.029685"><ele>240.0</ele><time>2026-05-01T15:02:25.245Z</time></trkpt><trkpt lat="45.6930333" lon="5.029545"><ele>240.0</ele><time>2026-05-01T15:02:26.246Z</time></trkpt><trkpt lat="45.6930783" lon="5.02936"><ele>240.0</ele><time>2026-05-01T15:02:27.246Z</time></trkpt><trkpt lat="45.6931333" lon="5.029135"><ele>240.0</ele><time>2026-05-01T15:02:28.246Z</time></trkpt><trkpt lat="45.693195" lon="5.0289167"><ele>240.33333333333331</ele><time>2026-05-01T15:02:29.246Z</time></trkpt><trkpt lat="45.693265" lon="5.0286767"><ele>240.66666666666666</ele><time>2026-05-01T15:02:30.246Z</time></trkpt><trkpt lat="45.6933617" lon="5.0284"><ele>241.0</ele><time>2026-05-01T15:02:31.245Z</time></trkpt><trkpt lat="45.69345" lon="5.028135"><ele>240.66666666666666</ele><time>2026-05-01T15:02:32.246Z</time></trkpt><trkpt lat="45.6935367" lon="5.0278567"><ele>240.33333333333331</ele><time>2026-05-01T15:02:33.246Z</time></trkpt><trkpt lat="45.6936267" lon="5.0275967"><ele>240.0</ele><time>2026-05-01T15:02:34.245Z</time></trkpt><trkpt lat="45.69371" lon="5.0273217"><ele>239.66666666666669</ele><time>2026-05-01T15:02:35.245Z</time></trkpt><trkpt lat="45.6937733" lon="5.0270533"><ele>239.33333333333334</ele><time>2026-05-01T15:02:36.246Z</time></trkpt><trkpt lat="45.6938833" lon="5.0268117"><ele>239.0</ele><time>2026-05-01T15:02:37.246Z</time></trkpt><trkpt lat="45.6939567" lon="5.0265683"><ele>238.66666666666669</ele><time>2026-05-01T15:02:38.246Z</time></trkpt><trkpt lat="45.6940317" lon="5.0263217"><ele>238.33333333333331</ele><time>2026-05-01T15:02:39.246Z</time></trkpt><trkpt lat="45.69411" lon="5.026065"><ele>238.0</ele><time>2026-05-01T15:02:40.246Z</time></trkpt><trkpt lat="45.6941667" lon="5.025815"><ele>238.0</ele><time>2026-05-01T15:02:41.246Z</time></trkpt><trkpt lat="45.6942483" lon="5.0255267"><ele>238.0</ele><time>2026-05-01T15:02:42.246Z</time></trkpt><trkpt lat="45.6943167" lon="5.0252633"><ele>238.0</ele><time>2026-05-01T15:02:43.245Z</time></trkpt><trkpt lat="45.6944" lon="5.0249983"><ele>237.33333333333331</ele><time>2026-05-01T15:02:44.246Z</time></trkpt><trkpt lat="45.6944633" lon="5.0247517"><ele>236.66666666666669</ele><time>2026-05-01T15:02:45.246Z</time></trkpt><trkpt lat="45.6945467" lon="5.0244783"><ele>236.0</ele><time>2026-05-01T15:02:46.246Z</time></trkpt><trkpt lat="45.69463" lon="5.0242217"><ele>235.66666666666669</ele><time>2026-05-01T15:02:47.246Z</time></trkpt><trkpt lat="45.6947033" lon="5.0239817"><ele>235.33333333333331</ele><time>2026-05-01T15:02:48.246Z</time></trkpt><trkpt lat="45.69478" lon="5.0237367"><ele>235.0</ele><time>2026-05-01T15:02:49.246Z</time></trkpt><trkpt lat="45.6948633" lon="5.023495"><ele>235.0</ele><time>2026-05-01T15:02:50.246Z</time></trkpt><trkpt lat="45.69494" lon="5.02327"><ele>235.0</ele><time>2026-05-01T15:02:51.245Z</time></trkpt><trkpt lat="45.69502" lon="5.023055"><ele>235.0</ele><time>2026-05-01T15:02:52.246Z</time></trkpt><trkpt lat="45.6950917" lon="5.0228417"><ele>235.0</ele><time>2026-05-01T15:02:53.246Z</time></trkpt><trkpt lat="45.6951533" lon="5.0225917"><ele>235.0</ele><time>2026-05-01T15:02:54.246Z</time></trkpt><trkpt lat="45.6952333" lon="5.02234"><ele>235.0</ele><time>2026-05-01T15:02:55.246Z</time></trkpt><trkpt lat="45.6953117" lon="5.0220567"><ele>234.66666666666666</ele><time>2026-05-01T15:02:56.245Z</time></trkpt><trkpt lat="45.6953983" lon="5.0217917"><ele>234.33333333333331</ele><time>2026-05-01T15:02:57.246Z</time></trkpt><trkpt lat="45.695495" lon="5.02153"><ele>234.0</ele><time>2026-05-01T15:02:58.246Z</time></trkpt><trkpt lat="45.6955867" lon="5.021265"><ele>234.0</ele><time>2026-05-01T15:02:59.246Z</time></trkpt><trkpt lat="45.69569" lon="5.0210067"><ele>234.0</ele><time>2026-05-01T15:03:00.246Z</time></trkpt><trkpt lat="45.69577" lon="5.0207317"><ele>234.0</ele><time>2026-05-01T15:03:01.245Z</time></trkpt><trkpt lat="45.6958517" lon="5.0204417"><ele>233.66666666666669</ele><time>2026-05-01T15:03:02.246Z</time></trkpt><trkpt lat="45.6959433" lon="5.0201883"><ele>233.33333333333334</ele><time>2026-05-01T15:03:03.245Z</time></trkpt><trkpt lat="45.69603" lon="5.019945"><ele>233.0</ele><time>2026-05-01T15:03:04.246Z</time></trkpt><trkpt lat="45.6961" lon="5.0196983"><ele>232.66666666666669</ele><time>2026-05-01T15:03:05.245Z</time></trkpt><trkpt lat="45.69617" lon="5.0194633"><ele>232.33333333333331</ele><time>2026-05-01T15:03:06.246Z</time></trkpt><trkpt lat="45.69624" lon="5.019255"><ele>232.0</ele><time>2026-05-01T15:03:07.245Z</time></trkpt><trkpt lat="45.6963033" lon="5.01903"><ele>232.0</ele><time>2026-05-01T15:03:08.245Z</time></trkpt><trkpt lat="45.6963583" lon="5.01885"><ele>232.0</ele><time>2026-05-01T15:03:09.245Z</time></trkpt><trkpt lat="45.6964133" lon="5.0186917"><ele>232.0</ele><time>2026-05-01T15:03:10.245Z</time></trkpt><trkpt lat="45.696465" lon="5.01851"><ele>232.0</ele><time>2026-05-01T15:03:11.246Z</time></trkpt><trkpt lat="45.6965067" lon="5.0183367"><ele>232.0</ele><time>2026-05-01T15:03:12.246Z</time></trkpt><trkpt lat="45.6965667" lon="5.018165"><ele>232.0</ele><time>2026-05-01T15:03:13.246Z</time></trkpt><trkpt lat="45.696625" lon="5.018005"><ele>232.0</ele><time>2026-05-01T15:03:14.246Z</time></trkpt><trkpt lat="45.6966917" lon="5.0178117"><ele>232.0</ele><time>2026-05-01T15:03:15.246Z</time></trkpt><trkpt lat="45.6967817" lon="5.0176367"><ele>231.66666666666666</ele><time>2026-05-01T15:03:16.246Z</time></trkpt><trkpt lat="45.69685" lon="5.0174517"><ele>231.33333333333331</ele><time>2026-05-01T15:03:17.246Z</time></trkpt><trkpt lat="45.6969167" lon="5.0172567"><ele>231.0</ele><time>2026-05-01T15:03:18.246Z</time></trkpt><trkpt lat="45.6969867" lon="5.017045"><ele>231.0</ele><time>2026-05-01T15:03:19.245Z</time></trkpt><trkpt lat="45.697065" lon="5.0168333"><ele>231.0</ele><time>2026-05-01T15:03:20.246Z</time></trkpt><trkpt lat="45.6971433" lon="5.0166167"><ele>231.0</ele><time>2026-05-01T15:03:21.246Z</time></trkpt><trkpt lat="45.6972267" lon="5.0163683"><ele>230.66666666666669</ele><time>2026-05-01T15:03:22.246Z</time></trkpt><trkpt lat="45.6972983" lon="5.0161467"><ele>230.33333333333334</ele><time>2026-05-01T15:03:23.246Z</time></trkpt><trkpt lat="45.6973717" lon="5.0159083"><ele>230.0</ele><time>2026-05-01T15:03:24.245Z</time></trkpt><trkpt lat="45.697455" lon="5.0157083"><ele>229.75</ele><time>2026-05-01T15:03:25.245Z</time></trkpt><trkpt lat="45.6975233" lon="5.0155317"><ele>229.5</ele><time>2026-05-01T15:03:26.245Z</time></trkpt><trkpt lat="45.6975917" lon="5.0153717"><ele>229.25</ele><time>2026-05-01T15:03:27.246Z</time></trkpt><trkpt lat="45.697655" lon="5.0152133"><ele>229.0</ele><time>2026-05-01T15:03:28.245Z</time></trkpt><trkpt lat="45.697715" lon="5.0150517"><ele>228.39999999999998</ele><time>2026-05-01T15:03:29.246Z</time></trkpt><trkpt lat="45.69777" lon="5.014885"><ele>227.79999999999998</ele><time>2026-05-01T15:03:30.246Z</time></trkpt><trkpt lat="45.6978083" lon="5.0147483"><ele>227.20000000000002</ele><time>2026-05-01T15:03:31.246Z</time></trkpt><trkpt lat="45.6978483" lon="5.0146233"><ele>226.60000000000002</ele><time>2026-05-01T15:03:32.245Z</time></trkpt><trkpt lat="45.6978867" lon="5.0145133"><ele>226.0</ele><time>2026-05-01T15:03:33.246Z</time></trkpt><trkpt lat="45.6979383" lon="5.0144133"><ele>225.99999999999997</ele><time>2026-05-01T15:03:34.246Z</time></trkpt><trkpt lat="45.6980033" lon="5.0143383"><ele>226.0</ele><time>2026-05-01T15:03:35.246Z</time></trkpt><trkpt lat="45.6980783" lon="5.0142917"><ele>226.0</ele><time>2026-05-01T15:03:36.246Z</time></trkpt><trkpt lat="45.698165" lon="5.0142583"><ele>226.0</ele><time>2026-05-01T15:03:37.245Z</time></trkpt><trkpt lat="45.6982467" lon="5.0142183"><ele>225.99999999999997</ele><time>2026-05-01T15:03:38.246Z</time></trkpt><trkpt lat="45.6983267" lon="5.0141733"><ele>226.0</ele><time>2026-05-01T15:03:39.245Z</time></trkpt><trkpt lat="45.6983883" lon="5.0141083"><ele>226.20000000000002</ele><time>2026-05-01T15:03:40.246Z</time></trkpt><trkpt lat="45.6984267" lon="5.0140333"><ele>226.40000000000003</ele><time>2026-05-01T15:03:41.246Z</time></trkpt><trkpt lat="45.6984533" lon="5.0139167"><ele>226.6</ele><time>2026-05-01T15:03:42.246Z</time></trkpt><trkpt lat="45.698435" lon="5.0137883"><ele>226.8</ele><time>2026-05-01T15:03:43.246Z</time></trkpt><trkpt lat="45.6983967" lon="5.0136533"><ele>227.0</ele><time>2026-05-01T15:03:44.246Z</time></trkpt><trkpt lat="45.6983833" lon="5.0134967"><ele>227.66666666666669</ele><time>2026-05-01T15:03:45.246Z</time></trkpt><trkpt lat="45.698405" lon="5.0133167"><ele>228.33333333333331</ele><time>2026-05-01T15:03:46.245Z</time></trkpt><trkpt lat="45.6984633" lon="5.0131233"><ele>229.0</ele><time>2026-05-01T15:03:47.246Z</time></trkpt><trkpt lat="45.6985217" lon="5.0128867"><ele>228.33333333333331</ele><time>2026-05-01T15:03:48.246Z</time></trkpt><trkpt lat="45.6985933" lon="5.012655"><ele>227.66666666666669</ele><time>2026-05-01T15:03:49.246Z</time></trkpt><trkpt lat="45.698675" lon="5.0124033"><ele>227.0</ele><time>2026-05-01T15:03:50.246Z</time></trkpt><trkpt lat="45.6987483" lon="5.0121417"><ele>227.0</ele><time>2026-05-01T15:03:51.246Z</time></trkpt><trkpt lat="45.698825" lon="5.0118733"><ele>227.0</ele><time>2026-05-01T15:03:52.246Z</time></trkpt><trkpt lat="45.698895" lon="5.0116067"><ele>227.0</ele><time>2026-05-01T15:03:53.246Z</time></trkpt><trkpt lat="45.6989633" lon="5.01134"><ele>227.33333333333334</ele><time>2026-05-01T15:03:54.246Z</time></trkpt><trkpt lat="45.699045" lon="5.0110617"><ele>227.66666666666669</ele><time>2026-05-01T15:03:55.244Z</time></trkpt><trkpt lat="45.6991217" lon="5.0107917"><ele>228.0</ele><time>2026-05-01T15:03:56.245Z</time></trkpt><trkpt lat="45.6991967" lon="5.010525"><ele>228.0</ele><time>2026-05-01T15:03:57.245Z</time></trkpt><trkpt lat="45.69927" lon="5.0102917"><ele>228.0</ele><time>2026-05-01T15:03:58.245Z</time></trkpt><trkpt lat="45.6993533" lon="5.0100633"><ele>228.0</ele><time>2026-05-01T15:03:59.244Z</time></trkpt><trkpt lat="45.6994217" lon="5.0098567"><ele>227.75</ele><time>2026-05-01T15:04:00.245Z</time></trkpt><trkpt lat="45.6994783" lon="5.00968"><ele>227.5</ele><time>2026-05-01T15:04:01.245Z</time></trkpt><trkpt lat="45.6995383" lon="5.0095083"><ele>227.25</ele><time>2026-05-01T15:04:02.245Z</time></trkpt><trkpt lat="45.6995933" lon="5.0093617"><ele>227.0</ele><time>2026-05-01T15:04:03.245Z</time></trkpt><trkpt lat="45.6996617" lon="5.00921"><ele>227.0</ele><time>2026-05-01T15:04:04.244Z</time></trkpt><trkpt lat="45.6997317" lon="5.0090967"><ele>227.0</ele><time>2026-05-01T15:04:05.245Z</time></trkpt><trkpt lat="45.6997917" lon="5.0089817"><ele>227.0</ele><time>2026-05-01T15:04:06.245Z</time></trkpt><trkpt lat="45.6998367" lon="5.0088367"><ele>227.0</ele><time>2026-05-01T15:04:07.245Z</time></trkpt><trkpt lat="45.6998833" lon="5.0086617"><ele>227.0</ele><time>2026-05-01T15:04:08.244Z</time></trkpt><trkpt lat="45.6999467" lon="5.0084617"><ele>227.0</ele><time>2026-05-01T15:04:09.245Z</time></trkpt><trkpt lat="45.70003" lon="5.0082333"><ele>227.0</ele><time>2026-05-01T15:04:10.244Z</time></trkpt><trkpt lat="45.70013" lon="5.0079883"><ele>227.0</ele><time>2026-05-01T15:04:11.244Z</time></trkpt><trkpt lat="45.70023" lon="5.0077217"><ele>226.5</ele><time>2026-05-01T15:04:12.245Z</time></trkpt><trkpt lat="45.700325" lon="5.0074317"><ele>226.0</ele><time>2026-05-01T15:04:13.245Z</time></trkpt><trkpt lat="45.70042" lon="5.0070933"><ele>226.0</ele><time>2026-05-01T15:04:14.244Z</time></trkpt><trkpt lat="45.7005167" lon="5.00678"><ele>226.0</ele><time>2026-05-01T15:04:15.245Z</time></trkpt><trkpt lat="45.7006117" lon="5.0064533"><ele>225.5</ele><time>2026-05-01T15:04:16.244Z</time></trkpt><trkpt lat="45.700725" lon="5.0060917"><ele>225.0</ele><time>2026-05-01T15:04:17.245Z</time></trkpt><trkpt lat="45.7008417" lon="5.005735"><ele>224.5</ele><time>2026-05-01T15:04:18.244Z</time></trkpt><trkpt lat="45.7009617" lon="5.0054083"><ele>224.0</ele><time>2026-05-01T15:04:19.245Z</time></trkpt><trkpt lat="45.7010833" lon="5.00507"><ele>224.0</ele><time>2026-05-01T15:04:20.245Z</time></trkpt><trkpt lat="45.7012183" lon="5.00471"><ele>224.0</ele><time>2026-05-01T15:04:21.245Z</time></trkpt><trkpt lat="45.7013417" lon="5.0043633"><ele>224.5</ele><time>2026-05-01T15:04:22.245Z</time></trkpt><trkpt lat="45.7014567" lon="5.0040117"><ele>225.0</ele><time>2026-05-01T15:04:23.245Z</time></trkpt><trkpt lat="45.7015717" lon="5.0036467"><ele>225.5</ele><time>2026-05-01T15:04:24.245Z</time></trkpt><trkpt lat="45.7016917" lon="5.0032867"><ele>226.0</ele><time>2026-05-01T15:04:25.244Z</time></trkpt><trkpt lat="45.70181" lon="5.002905"><ele>225.0</ele><time>2026-05-01T15:04:26.245Z</time></trkpt><trkpt lat="45.7019333" lon="5.0025133"><ele>224.0</ele><time>2026-05-01T15:04:27.245Z</time></trkpt><trkpt lat="45.702055" lon="5.0021317"><ele>224.0</ele><time>2026-05-01T15:04:28.244Z</time></trkpt><trkpt lat="45.702175" lon="5.0017517"><ele>224.0</ele><time>2026-05-01T15:04:29.245Z</time></trkpt><trkpt lat="45.7022983" lon="5.0013583"><ele>224.0</ele><time>2026-05-01T15:04:30.245Z</time></trkpt><trkpt lat="45.70243" lon="5.0009633"><ele>224.0</ele><time>2026-05-01T15:04:31.245Z</time></trkpt><trkpt lat="45.70256" lon="5.00059"><ele>224.0</ele><time>2026-05-01T15:04:32.244Z</time></trkpt><trkpt lat="45.70268" lon="5.0001867"><ele>224.0</ele><time>2026-05-01T15:04:33.245Z</time></trkpt><trkpt lat="45.70281" lon="4.9997967"><ele>222.5</ele><time>2026-05-01T15:04:34.245Z</time></trkpt><trkpt lat="45.70295" lon="4.99944"><ele>221.0</ele><time>2026-05-01T15:04:35.245Z</time></trkpt><trkpt lat="45.7030833" lon="4.9990833"><ele>221.0</ele><time>2026-05-01T15:04:36.244Z</time></trkpt><trkpt lat="45.7032183" lon="4.9986967"><ele>221.0</ele><time>2026-05-01T15:04:37.244Z</time></trkpt><trkpt lat="45.70335" lon="4.998305"><ele>220.0</ele><time>2026-05-01T15:04:38.245Z</time></trkpt><trkpt lat="45.7034817" lon="4.99794"><ele>219.0</ele><time>2026-05-01T15:04:39.245Z</time></trkpt><trkpt lat="45.7036133" lon="4.99756"><ele>218.5</ele><time>2026-05-01T15:04:40.244Z</time></trkpt><trkpt lat="45.703735" lon="4.9971883"><ele>218.0</ele><time>2026-05-01T15:04:41.245Z</time></trkpt><trkpt lat="45.703855" lon="4.9968367"><ele>218.0</ele><time>2026-05-01T15:04:42.244Z</time></trkpt><trkpt lat="45.7039717" lon="4.996505"><ele>218.0</ele><time>2026-05-01T15:04:43.244Z</time></trkpt><trkpt lat="45.7040867" lon="4.996175"><ele>218.0</ele><time>2026-05-01T15:04:44.244Z</time></trkpt><trkpt lat="45.7042033" lon="4.9958683"><ele>218.0</ele><time>2026-05-01T15:04:45.245Z</time></trkpt><trkpt lat="45.7043017" lon="4.9955583"><ele>218.0</ele><time>2026-05-01T15:04:46.245Z</time></trkpt><trkpt lat="45.7044033" lon="4.99525"><ele>218.0</ele><time>2026-05-01T15:04:47.245Z</time></trkpt><trkpt lat="45.7045067" lon="4.99498"><ele>218.0</ele><time>2026-05-01T15:04:48.244Z</time></trkpt><trkpt lat="45.7046033" lon="4.994695"><ele>218.0</ele><time>2026-05-01T15:04:49.245Z</time></trkpt><trkpt lat="45.7046983" lon="4.994455"><ele>218.0</ele><time>2026-05-01T15:04:50.244Z</time></trkpt><trkpt lat="45.7047883" lon="4.99422"><ele>217.66666666666669</ele><time>2026-05-01T15:04:51.245Z</time></trkpt><trkpt lat="45.704875" lon="4.9939817"><ele>217.33333333333331</ele><time>2026-05-01T15:04:52.244Z</time></trkpt><trkpt lat="45.704965" lon="4.9937633"><ele>217.0</ele><time>2026-05-01T15:04:53.245Z</time></trkpt><trkpt lat="45.7050533" lon="4.9935867"><ele>217.0</ele><time>2026-05-01T15:04:54.245Z</time></trkpt><trkpt lat="45.7051233" lon="4.9933983"><ele>217.0</ele><time>2026-05-01T15:04:55.245Z</time></trkpt><trkpt lat="45.7051867" lon="4.9932"><ele>217.0</ele><time>2026-05-01T15:04:56.245Z</time></trkpt><trkpt lat="45.7052417" lon="4.9930183"><ele>217.0</ele><time>2026-05-01T15:04:57.245Z</time></trkpt><trkpt lat="45.7052967" lon="4.9928517"><ele>217.2</ele><time>2026-05-01T15:04:58.244Z</time></trkpt><trkpt lat="45.7053517" lon="4.99274"><ele>217.39999999999998</ele><time>2026-05-01T15:04:59.244Z</time></trkpt><trkpt lat="45.7054083" lon="4.9926267"><ele>217.60000000000002</ele><time>2026-05-01T15:05:00.245Z</time></trkpt><trkpt lat="45.7054683" lon="4.9925467"><ele>217.8</ele><time>2026-05-01T15:05:01.244Z</time></trkpt><trkpt lat="45.705525" lon="4.9924533"><ele>218.0</ele><time>2026-05-01T15:05:02.245Z</time></trkpt><trkpt lat="45.7055783" lon="4.992325"><ele>218.0</ele><time>2026-05-01T15:05:03.245Z</time></trkpt><trkpt lat="45.7056083" lon="4.992175"><ele>218.0</ele><time>2026-05-01T15:05:04.245Z</time></trkpt><trkpt lat="45.7056267" lon="4.9919817"><ele>218.0</ele><time>2026-05-01T15:05:05.245Z</time></trkpt><trkpt lat="45.7056533" lon="4.991745"><ele>218.0</ele><time>2026-05-01T15:05:06.245Z</time></trkpt><trkpt lat="45.7057083" lon="4.9914983"><ele>218.33333333333334</ele><time>2026-05-01T15:05:07.245Z</time></trkpt><trkpt lat="45.7057933" lon="4.9912717"><ele>218.66666666666669</ele><time>2026-05-01T15:05:08.245Z</time></trkpt><trkpt lat="45.705875" lon="4.9910417"><ele>219.0</ele><time>2026-05-01T15:05:09.244Z</time></trkpt><trkpt lat="45.7059567" lon="4.9908067"><ele>218.33333333333331</ele><time>2026-05-01T15:05:10.245Z</time></trkpt><trkpt lat="45.70604" lon="4.9905567"><ele>217.66666666666666</ele><time>2026-05-01T15:05:11.245Z</time></trkpt><trkpt lat="45.7061183" lon="4.990285"><ele>217.0</ele><time>2026-05-01T15:05:12.245Z</time></trkpt><trkpt lat="45.706215" lon="4.99004"><ele>216.33333333333331</ele><time>2026-05-01T15:05:13.244Z</time></trkpt><trkpt lat="45.7063117" lon="4.9897867"><ele>215.66666666666669</ele><time>2026-05-01T15:05:14.245Z</time></trkpt><trkpt lat="45.7064083" lon="4.9895417"><ele>215.0</ele><time>2026-05-01T15:05:15.244Z</time></trkpt><trkpt lat="45.7064983" lon="4.98927"><ele>214.66666666666669</ele><time>2026-05-01T15:05:16.245Z</time></trkpt><trkpt lat="45.7065867" lon="4.98902"><ele>214.33333333333331</ele><time>2026-05-01T15:05:17.245Z</time></trkpt><trkpt lat="45.7066667" lon="4.9888033"><ele>214.0</ele><time>2026-05-01T15:05:18.245Z</time></trkpt><trkpt lat="45.7067283" lon="4.9885817"><ele>214.0</ele><time>2026-05-01T15:05:19.245Z</time></trkpt><trkpt lat="45.7067933" lon="4.98836"><ele>214.0</ele><time>2026-05-01T15:05:20.245Z</time></trkpt><trkpt lat="45.7068517" lon="4.9881617"><ele>214.0</ele><time>2026-05-01T15:05:21.244Z</time></trkpt><trkpt lat="45.7069117" lon="4.9879633"><ele>214.25</ele><time>2026-05-01T15:05:22.245Z</time></trkpt><trkpt lat="45.7069717" lon="4.9877817"><ele>214.5</ele><time>2026-05-01T15:05:23.245Z</time></trkpt><trkpt lat="45.7070283" lon="4.9876167"><ele>214.75</ele><time>2026-05-01T15:05:24.245Z</time></trkpt><trkpt lat="45.707075" lon="4.987455"><ele>215.0</ele><time>2026-05-01T15:05:25.245Z</time></trkpt><trkpt lat="45.70712" lon="4.98732"><ele>215.00000000000003</ele><time>2026-05-01T15:05:26.244Z</time></trkpt><trkpt lat="45.70716" lon="4.98719"><ele>215.0</ele><time>2026-05-01T15:05:27.244Z</time></trkpt><trkpt lat="45.7072033" lon="4.9870867"><ele>215.0</ele><time>2026-05-01T15:05:28.245Z</time></trkpt><trkpt lat="45.7072483" lon="4.98695"><ele>215.0</ele><time>2026-05-01T15:05:30.245Z</time></trkpt><trkpt lat="45.7072767" lon="4.9868683"><ele>215.00000000000003</ele><time>2026-05-01T15:05:32.245Z</time></trkpt><trkpt lat="45.7073167" lon="4.986775"><ele>215.0</ele><time>2026-05-01T15:05:54.244Z</time></trkpt><trkpt lat="45.70736" lon="4.9866183"><ele>215.33333333333334</ele><time>2026-05-01T15:05:56.245Z</time></trkpt><trkpt lat="45.70741" lon="4.986455"><ele>215.66666666666669</ele><time>2026-05-01T15:05:57.245Z</time></trkpt><trkpt lat="45.707475" lon="4.9862367"><ele>216.0</ele><time>2026-05-01T15:05:58.245Z</time></trkpt><trkpt lat="45.7075517" lon="4.9860067"><ele>215.66666666666669</ele><time>2026-05-01T15:05:59.245Z</time></trkpt><trkpt lat="45.7076333" lon="4.9857783"><ele>215.33333333333334</ele><time>2026-05-01T15:06:00.245Z</time></trkpt><trkpt lat="45.7077133" lon="4.9855417"><ele>215.0</ele><time>2026-05-01T15:06:01.245Z</time></trkpt><trkpt lat="45.7077983" lon="4.985305"><ele>215.0</ele><time>2026-05-01T15:06:02.245Z</time></trkpt><trkpt lat="45.707875" lon="4.985075"><ele>215.0</ele><time>2026-05-01T15:06:03.244Z</time></trkpt><trkpt lat="45.7079467" lon="4.9848433"><ele>215.0</ele><time>2026-05-01T15:06:04.245Z</time></trkpt><trkpt lat="45.7080267" lon="4.9845917"><ele>215.0</ele><time>2026-05-01T15:06:05.245Z</time></trkpt><trkpt lat="45.708115" lon="4.9843333"><ele>215.0</ele><time>2026-05-01T15:06:06.245Z</time></trkpt><trkpt lat="45.708205" lon="4.9840467"><ele>215.0</ele><time>2026-05-01T15:06:07.245Z</time></trkpt><trkpt lat="45.7082967" lon="4.98377"><ele>215.0</ele><time>2026-05-01T15:06:08.245Z</time></trkpt><trkpt lat="45.7083833" lon="4.98349"><ele>215.0</ele><time>2026-05-01T15:06:09.245Z</time></trkpt><trkpt lat="45.7084717" lon="4.9832233"><ele>215.0</ele><time>2026-05-01T15:06:10.245Z</time></trkpt><trkpt lat="45.7085667" lon="4.9829317"><ele>214.66666666666669</ele><time>2026-05-01T15:06:11.245Z</time></trkpt><trkpt lat="45.7086617" lon="4.9826583"><ele>214.33333333333331</ele><time>2026-05-01T15:06:12.245Z</time></trkpt><trkpt lat="45.70875" lon="4.9823917"><ele>214.0</ele><time>2026-05-01T15:06:13.245Z</time></trkpt><trkpt lat="45.70884" lon="4.9821083"><ele>213.66666666666666</ele><time>2026-05-01T15:06:14.245Z</time></trkpt><trkpt lat="45.7089383" lon="4.9818083"><ele>213.33333333333331</ele><time>2026-05-01T15:06:15.245Z</time></trkpt><trkpt lat="45.70904" lon="4.9815333"><ele>213.0</ele><time>2026-05-01T15:06:16.245Z</time></trkpt><trkpt lat="45.7091583" lon="4.9812467"><ele>212.5</ele><time>2026-05-01T15:06:17.245Z</time></trkpt><trkpt lat="45.7092533" lon="4.980955"><ele>212.0</ele><time>2026-05-01T15:06:18.244Z</time></trkpt><trkpt lat="45.709365" lon="4.980635"><ele>211.5</ele><time>2026-05-01T15:06:19.244Z</time></trkpt><trkpt lat="45.70947" lon="4.9803217"><ele>211.0</ele><time>2026-05-01T15:06:20.245Z</time></trkpt><trkpt lat="45.7095683" lon="4.98001"><ele>211.0</ele><time>2026-05-01T15:06:21.245Z</time></trkpt><trkpt lat="45.70966" lon="4.9797417"><ele>211.0</ele><time>2026-05-01T15:06:22.245Z</time></trkpt><trkpt lat="45.70974" lon="4.9794733"><ele>211.0</ele><time>2026-05-01T15:06:23.245Z</time></trkpt><trkpt lat="45.7098217" lon="4.979235"><ele>211.0</ele><time>2026-05-01T15:06:24.244Z</time></trkpt><trkpt lat="45.7099017" lon="4.9790083"><ele>211.0</ele><time>2026-05-01T15:06:25.244Z</time></trkpt><trkpt lat="45.7099717" lon="4.978795"><ele>211.0</ele><time>2026-05-01T15:06:26.245Z</time></trkpt><trkpt lat="45.7100283" lon="4.9786017"><ele>211.0</ele><time>2026-05-01T15:06:27.245Z</time></trkpt><trkpt lat="45.7100817" lon="4.9784267"><ele>211.0</ele><time>2026-05-01T15:06:28.245Z</time></trkpt><trkpt lat="45.7101217" lon="4.97828"><ele>211.0</ele><time>2026-05-01T15:06:29.245Z</time></trkpt><trkpt lat="45.7101533" lon="4.9781733"><ele>211.0</ele><time>2026-05-01T15:06:30.245Z</time></trkpt><trkpt lat="45.71018" lon="4.9780883"><ele>211.0</ele><time>2026-05-01T15:06:31.245Z</time></trkpt><trkpt lat="45.71022" lon="4.97796"><ele>211.4</ele><time>2026-05-01T15:06:33.244Z</time></trkpt><trkpt lat="45.7102283" lon="4.9778583"><ele>211.8</ele><time>2026-05-01T15:06:35.245Z</time></trkpt><trkpt lat="45.7102717" lon="4.9777717"><ele>212.20000000000002</ele><time>2026-05-01T15:06:44.245Z</time></trkpt><trkpt lat="45.71035" lon="4.9775817"><ele>212.60000000000002</ele><time>2026-05-01T15:06:46.245Z</time></trkpt><trkpt lat="45.71041" lon="4.9774267"><ele>213.0</ele><time>2026-05-01T15:06:47.245Z</time></trkpt><trkpt lat="45.7104767" lon="4.9772383"><ele>213.0</ele><time>2026-05-01T15:06:48.245Z</time></trkpt><trkpt lat="45.710545" lon="4.9770417"><ele>213.0</ele><time>2026-05-01T15:06:49.245Z</time></trkpt><trkpt lat="45.7106183" lon="4.9768367"><ele>213.0</ele><time>2026-05-01T15:06:50.245Z</time></trkpt><trkpt lat="45.710705" lon="4.9765933"><ele>213.0</ele><time>2026-05-01T15:06:51.245Z</time></trkpt><trkpt lat="45.7107933" lon="4.97635"><ele>213.0</ele><time>2026-05-01T15:06:52.245Z</time></trkpt><trkpt lat="45.7108833" lon="4.9760933"><ele>213.0</ele><time>2026-05-01T15:06:53.245Z</time></trkpt><trkpt lat="45.7109817" lon="4.97581"><ele>212.0</ele><time>2026-05-01T15:06:54.245Z</time></trkpt><trkpt lat="45.7110767" lon="4.9755217"><ele>211.0</ele><time>2026-05-01T15:06:55.245Z</time></trkpt><trkpt lat="45.7111783" lon="4.9752383"><ele>210.0</ele><time>2026-05-01T15:06:56.244Z</time></trkpt><trkpt lat="45.7112717" lon="4.9749683"><ele>210.0</ele><time>2026-05-01T15:06:57.245Z</time></trkpt><trkpt lat="45.7113567" lon="4.9747333"><ele>210.0</ele><time>2026-05-01T15:06:58.244Z</time></trkpt><trkpt lat="45.71145" lon="4.9744683"><ele>210.0</ele><time>2026-05-01T15:06:59.245Z</time></trkpt><trkpt lat="45.7115467" lon="4.974225"><ele>210.0</ele><time>2026-05-01T15:07:00.245Z</time></trkpt><trkpt lat="45.71162" lon="4.97397"><ele>210.0</ele><time>2026-05-01T15:07:01.244Z</time></trkpt><trkpt lat="45.71169" lon="4.97373"><ele>210.0</ele><time>2026-05-01T15:07:02.245Z</time></trkpt><trkpt lat="45.7117683" lon="4.97351"><ele>210.25</ele><time>2026-05-01T15:07:03.245Z</time></trkpt><trkpt lat="45.71184" lon="4.9733017"><ele>210.5</ele><time>2026-05-01T15:07:04.245Z</time></trkpt><trkpt lat="45.7118967" lon="4.9731283"><ele>210.75</ele><time>2026-05-01T15:07:05.245Z</time></trkpt><trkpt lat="45.711945" lon="4.9729783"><ele>211.0</ele><time>2026-05-01T15:07:06.245Z</time></trkpt><trkpt lat="45.7119833" lon="4.9728483"><ele>211.0</ele><time>2026-05-01T15:07:07.245Z</time></trkpt><trkpt lat="45.7120283" lon="4.9727517"><ele>211.0</ele><time>2026-05-01T15:07:08.245Z</time></trkpt><trkpt lat="45.7120817" lon="4.97269"><ele>211.0</ele><time>2026-05-01T15:07:09.245Z</time></trkpt><trkpt lat="45.7121383" lon="4.9726367"><ele>211.0</ele><time>2026-05-01T15:07:10.245Z</time></trkpt><trkpt lat="45.712195" lon="4.9725617"><ele>211.0</ele><time>2026-05-01T15:07:11.245Z</time></trkpt><trkpt lat="45.7122367" lon="4.9724767"><ele>211.0</ele><time>2026-05-01T15:07:12.245Z</time></trkpt><trkpt lat="45.7122617" lon="4.9723717"><ele>211.0</ele><time>2026-05-01T15:07:13.244Z</time></trkpt><trkpt lat="45.7122783" lon="4.972225"><ele>210.66666666666666</ele><time>2026-05-01T15:07:14.245Z</time></trkpt><trkpt lat="45.7123083" lon="4.97203"><ele>210.33333333333331</ele><time>2026-05-01T15:07:15.245Z</time></trkpt><trkpt lat="45.71237" lon="4.9718067"><ele>210.0</ele><time>2026-05-01T15:07:16.245Z</time></trkpt><trkpt lat="45.712455" lon="4.9715633"><ele>210.0</ele><time>2026-05-01T15:07:17.245Z</time></trkpt><trkpt lat="45.7125533" lon="4.97128"><ele>210.0</ele><time>2026-05-01T15:07:18.244Z</time></trkpt><trkpt lat="45.7126633" lon="4.9710017"><ele>210.0</ele><time>2026-05-01T15:07:19.245Z</time></trkpt><trkpt lat="45.712775" lon="4.9707317"><ele>209.66666666666669</ele><time>2026-05-01T15:07:20.245Z</time></trkpt><trkpt lat="45.7128767" lon="4.9704883"><ele>209.33333333333334</ele><time>2026-05-01T15:07:21.245Z</time></trkpt><trkpt lat="45.71296" lon="4.9702833"><ele>209.0</ele><time>2026-05-01T15:07:22.244Z</time></trkpt><trkpt lat="45.7130433" lon="4.970105"><ele>209.33333333333334</ele><time>2026-05-01T15:07:23.244Z</time></trkpt><trkpt lat="45.7131133" lon="4.9699817"><ele>209.66666666666669</ele><time>2026-05-01T15:07:24.245Z</time></trkpt><trkpt lat="45.7131683" lon="4.969915"><ele>210.0</ele><time>2026-05-01T15:07:25.245Z</time></trkpt><trkpt lat="45.71323" lon="4.969825"><ele>210.33333333333331</ele><time>2026-05-01T15:07:26.245Z</time></trkpt><trkpt lat="45.7132733" lon="4.9697517"><ele>210.66666666666666</ele><time>2026-05-01T15:07:27.245Z</time></trkpt><trkpt lat="45.7133017" lon="4.9696033"><ele>211.0</ele><time>2026-05-01T15:07:29.245Z</time></trkpt><trkpt lat="45.71331" lon="4.9695067"><ele>211.0</ele><time>2026-05-01T15:07:30.244Z</time></trkpt><trkpt lat="45.71332" lon="4.9694033"><ele>211.0</ele><time>2026-05-01T15:07:31.245Z</time></trkpt><trkpt lat="45.7133367" lon="4.969295"><ele>211.0</ele><time>2026-05-01T15:07:32.245Z</time></trkpt><trkpt lat="45.71336" lon="4.9691767"><ele>211.0</ele><time>2026-05-01T15:07:33.245Z</time></trkpt><trkpt lat="45.71338" lon="4.9690283"><ele>211.0</ele><time>2026-05-01T15:07:34.244Z</time></trkpt><trkpt lat="45.7134333" lon="4.9688417"><ele>211.25</ele><time>2026-05-01T15:07:35.245Z</time></trkpt><trkpt lat="45.7135183" lon="4.9686267"><ele>211.5</ele><time>2026-05-01T15:07:36.245Z</time></trkpt><trkpt lat="45.7135817" lon="4.9684633"><ele>211.75</ele><time>2026-05-01T15:07:37.245Z</time></trkpt><trkpt lat="45.7136433" lon="4.96834"><ele>212.0</ele><time>2026-05-01T15:07:38.245Z</time></trkpt><trkpt lat="45.713725" lon="4.96823"><ele>211.50000000000003</ele><time>2026-05-01T15:07:39.245Z</time></trkpt><trkpt lat="45.7138067" lon="4.968135"><ele>211.0</ele><time>2026-05-01T15:07:40.245Z</time></trkpt><trkpt lat="45.71387" lon="4.96804"><ele>210.5</ele><time>2026-05-01T15:07:41.245Z</time></trkpt><trkpt lat="45.7139117" lon="4.96796"><ele>210.0</ele><time>2026-05-01T15:07:42.245Z</time></trkpt><trkpt lat="45.7139367" lon="4.967845"><ele>209.50000000000003</ele><time>2026-05-01T15:07:43.245Z</time></trkpt><trkpt lat="45.713945" lon="4.967755"><ele>209.0</ele><time>2026-05-01T15:07:44.244Z</time></trkpt><trkpt lat="45.713935" lon="4.9676483"><ele>209.0</ele><time>2026-05-01T15:07:45.245Z</time></trkpt><trkpt lat="45.7139217" lon="4.9675483"><ele>209.0</ele><time>2026-05-01T15:07:46.245Z</time></trkpt><trkpt lat="45.7139233" lon="4.96742"><ele>209.0</ele><time>2026-05-01T15:07:47.245Z</time></trkpt><trkpt lat="45.7139383" lon="4.967285"><ele>209.0</ele><time>2026-05-01T15:07:48.245Z</time></trkpt><trkpt lat="45.7139783" lon="4.9671433"><ele>209.0</ele><time>2026-05-01T15:07:49.244Z</time></trkpt><trkpt lat="45.71402" lon="4.9669933"><ele>209.0</ele><time>2026-05-01T15:07:50.245Z</time></trkpt><trkpt lat="45.71406" lon="4.9668283"><ele>209.0</ele><time>2026-05-01T15:07:51.245Z</time></trkpt><trkpt lat="45.7140933" lon="4.966645"><ele>209.0</ele><time>2026-05-01T15:07:52.245Z</time></trkpt><trkpt lat="45.71415" lon="4.9664667"><ele>209.0</ele><time>2026-05-01T15:07:53.244Z</time></trkpt><trkpt lat="45.7142083" lon="4.9662367"><ele>209.0</ele><time>2026-05-01T15:07:54.245Z</time></trkpt><trkpt lat="45.71428" lon="4.9659633"><ele>209.0</ele><time>2026-05-01T15:07:55.244Z</time></trkpt><trkpt lat="45.714375" lon="4.9656683"><ele>209.0</ele><time>2026-05-01T15:07:56.245Z</time></trkpt><trkpt lat="45.7144833" lon="4.96537"><ele>209.33333333333334</ele><time>2026-05-01T15:07:57.245Z</time></trkpt><trkpt lat="45.71458" lon="4.9650867"><ele>209.66666666666669</ele><time>2026-05-01T15:07:58.245Z</time></trkpt><trkpt lat="45.714685" lon="4.9648267"><ele>210.0</ele><time>2026-05-01T15:07:59.245Z</time></trkpt><trkpt lat="45.7147917" lon="4.9645583"><ele>209.33333333333331</ele><time>2026-05-01T15:08:00.244Z</time></trkpt><trkpt lat="45.7148967" lon="4.964265"><ele>208.66666666666666</ele><time>2026-05-01T15:08:01.245Z</time></trkpt><trkpt lat="45.7149917" lon="4.9639883"><ele>208.0</ele><time>2026-05-01T15:08:02.245Z</time></trkpt><trkpt lat="45.7150967" lon="4.9637067"><ele>208.0</ele><time>2026-05-01T15:08:03.245Z</time></trkpt><trkpt lat="45.7151867" lon="4.9634317"><ele>208.0</ele><time>2026-05-01T15:08:04.245Z</time></trkpt><trkpt lat="45.7152733" lon="4.9631583"><ele>208.0</ele><time>2026-05-01T15:08:05.244Z</time></trkpt><trkpt lat="45.7153567" lon="4.9629067"><ele>208.0</ele><time>2026-05-01T15:08:06.244Z</time></trkpt><trkpt lat="45.71544" lon="4.96266"><ele>208.0</ele><time>2026-05-01T15:08:07.244Z</time></trkpt><trkpt lat="45.715535" lon="4.9624033"><ele>208.0</ele><time>2026-05-01T15:08:08.244Z</time></trkpt><trkpt lat="45.715635" lon="4.962135"><ele>208.0</ele><time>2026-05-01T15:08:09.245Z</time></trkpt><trkpt lat="45.7157367" lon="4.96186"><ele>208.0</ele><time>2026-05-01T15:08:10.245Z</time></trkpt><trkpt lat="45.7158317" lon="4.9615833"><ele>208.0</ele><time>2026-05-01T15:08:11.244Z</time></trkpt><trkpt lat="45.7159233" lon="4.9613017"><ele>207.66666666666666</ele><time>2026-05-01T15:08:12.245Z</time></trkpt><trkpt lat="45.7160217" lon="4.9610183"><ele>207.33333333333331</ele><time>2026-05-01T15:08:13.245Z</time></trkpt><trkpt lat="45.7161133" lon="4.9607417"><ele>207.0</ele><time>2026-05-01T15:08:14.245Z</time></trkpt><trkpt lat="45.7162133" lon="4.9604467"><ele>207.0</ele><time>2026-05-01T15:08:15.245Z</time></trkpt><trkpt lat="45.7163117" lon="4.9601483"><ele>207.0</ele><time>2026-05-01T15:08:16.244Z</time></trkpt><trkpt lat="45.7164133" lon="4.9598533"><ele>207.0</ele><time>2026-05-01T15:08:17.245Z</time></trkpt><trkpt lat="45.7165067" lon="4.959565"><ele>207.0</ele><time>2026-05-01T15:08:18.244Z</time></trkpt><trkpt lat="45.7166033" lon="4.959295"><ele>207.0</ele><time>2026-05-01T15:08:19.245Z</time></trkpt><trkpt lat="45.7166833" lon="4.95906"><ele>207.0</ele><time>2026-05-01T15:08:20.244Z</time></trkpt><trkpt lat="45.7167567" lon="4.9588267"><ele>207.0</ele><time>2026-05-01T15:08:21.245Z</time></trkpt><trkpt lat="45.7168267" lon="4.95863"><ele>207.0</ele><time>2026-05-01T15:08:22.244Z</time></trkpt><trkpt lat="45.7169033" lon="4.958475"><ele>206.0</ele><time>2026-05-01T15:08:23.245Z</time></trkpt><trkpt lat="45.716975" lon="4.9583483"><ele>205.0</ele><time>2026-05-01T15:08:24.245Z</time></trkpt><trkpt lat="45.7170417" lon="4.9582517"><ele>204.0</ele><time>2026-05-01T15:08:25.245Z</time></trkpt><trkpt lat="45.7171" lon="4.9581483"><ele>203.0</ele><time>2026-05-01T15:08:26.244Z</time></trkpt><trkpt lat="45.7171367" lon="4.9579933"><ele>202.0</ele><time>2026-05-01T15:08:27.245Z</time></trkpt><trkpt lat="45.717165" lon="4.9578267"><ele>202.0</ele><time>2026-05-01T15:08:28.245Z</time></trkpt><trkpt lat="45.7172267" lon="4.9576033"><ele>202.0</ele><time>2026-05-01T15:08:29.245Z</time></trkpt><trkpt lat="45.7172983" lon="4.9573683"><ele>202.0</ele><time>2026-05-01T15:08:30.245Z</time></trkpt><trkpt lat="45.7173783" lon="4.9571133"><ele>202.0</ele><time>2026-05-01T15:08:31.245Z</time></trkpt><trkpt lat="45.7174667" lon="4.956855"><ele>202.0</ele><time>2026-05-01T15:08:32.245Z</time></trkpt><trkpt lat="45.717555" lon="4.9566117"><ele>202.0</ele><time>2026-05-01T15:08:33.245Z</time></trkpt><trkpt lat="45.7176333" lon="4.956385"><ele>202.0</ele><time>2026-05-01T15:08:34.245Z</time></trkpt><trkpt lat="45.7177083" lon="4.95616"><ele>202.0</ele><time>2026-05-01T15:08:35.244Z</time></trkpt><trkpt lat="45.71778" lon="4.9559533"><ele>202.0</ele><time>2026-05-01T15:08:36.245Z</time></trkpt><trkpt lat="45.7178383" lon="4.9557667"><ele>202.25</ele><time>2026-05-01T15:08:37.245Z</time></trkpt><trkpt lat="45.7179" lon="4.9555783"><ele>202.5</ele><time>2026-05-01T15:08:38.245Z</time></trkpt><trkpt lat="45.717965" lon="4.95539"><ele>202.75</ele><time>2026-05-01T15:08:39.245Z</time></trkpt><trkpt lat="45.7180367" lon="4.9552017"><ele>203.0</ele><time>2026-05-01T15:08:40.244Z</time></trkpt><trkpt lat="45.7181133" lon="4.95502"><ele>203.00000000000003</ele><time>2026-05-01T15:08:41.244Z</time></trkpt><trkpt lat="45.7181833" lon="4.9548817"><ele>203.0</ele><time>2026-05-01T15:08:42.245Z</time></trkpt><trkpt lat="45.718245" lon="4.9547767"><ele>203.0</ele><time>2026-05-01T15:08:43.245Z</time></trkpt><trkpt lat="45.7182867" lon="4.954685"><ele>203.0</ele><time>2026-05-01T15:08:44.244Z</time></trkpt><trkpt lat="45.71831" lon="4.95458"><ele>203.00000000000003</ele><time>2026-05-01T15:08:45.245Z</time></trkpt><trkpt lat="45.7183183" lon="4.954475"><ele>203.0</ele><time>2026-05-01T15:08:46.245Z</time></trkpt><trkpt lat="45.7183067" lon="4.9543017"><ele>203.0</ele><time>2026-05-01T15:08:47.245Z</time></trkpt><trkpt lat="45.71829" lon="4.9540667"><ele>203.0</ele><time>2026-05-01T15:08:48.244Z</time></trkpt><trkpt lat="45.718275" lon="4.953825"><ele>203.0</ele><time>2026-05-01T15:08:49.245Z</time></trkpt><trkpt lat="45.7182683" lon="4.9535933"><ele>203.0</ele><time>2026-05-01T15:08:50.244Z</time></trkpt><trkpt lat="45.71827" lon="4.9533617"><ele>203.0</ele><time>2026-05-01T15:08:51.245Z</time></trkpt><trkpt lat="45.7182783" lon="4.9531267"><ele>203.0</ele><time>2026-05-01T15:08:52.245Z</time></trkpt><trkpt lat="45.7182783" lon="4.9528717"><ele>203.0</ele><time>2026-05-01T15:08:53.245Z</time></trkpt><trkpt lat="45.7182817" lon="4.9526267"><ele>203.0</ele><time>2026-05-01T15:08:54.245Z</time></trkpt><trkpt lat="45.7182767" lon="4.95235"><ele>203.0</ele><time>2026-05-01T15:08:55.244Z</time></trkpt><trkpt lat="45.7182667" lon="4.9520667"><ele>202.66666666666669</ele><time>2026-05-01T15:08:56.244Z</time></trkpt><trkpt lat="45.71825" lon="4.95176"><ele>202.33333333333331</ele><time>2026-05-01T15:08:57.244Z</time></trkpt><trkpt lat="45.7182317" lon="4.95148"><ele>202.0</ele><time>2026-05-01T15:08:58.245Z</time></trkpt><trkpt lat="45.7181983" lon="4.9512133"><ele>202.0</ele><time>2026-05-01T15:08:59.245Z</time></trkpt><trkpt lat="45.7181617" lon="4.95099"><ele>202.0</ele><time>2026-05-01T15:09:00.245Z</time></trkpt><trkpt lat="45.718125" lon="4.950775"><ele>202.0</ele><time>2026-05-01T15:09:01.245Z</time></trkpt><trkpt lat="45.7180833" lon="4.9505767"><ele>201.6</ele><time>2026-05-01T15:09:02.244Z</time></trkpt><trkpt lat="45.7180467" lon="4.95042"><ele>201.2</ele><time>2026-05-01T15:09:03.244Z</time></trkpt><trkpt lat="45.718025" lon="4.9502817"><ele>200.8</ele><time>2026-05-01T15:09:04.245Z</time></trkpt><trkpt lat="45.71801" lon="4.9501583"><ele>200.4</ele><time>2026-05-01T15:09:05.245Z</time></trkpt><trkpt lat="45.7180117" lon="4.95005"><ele>200.0</ele><time>2026-05-01T15:09:06.244Z</time></trkpt><trkpt lat="45.7180283" lon="4.9499483"><ele>200.0</ele><time>2026-05-01T15:09:07.244Z</time></trkpt><trkpt lat="45.7180517" lon="4.9498633"><ele>200.0</ele><time>2026-05-01T15:09:08.245Z</time></trkpt><trkpt lat="45.7180517" lon="4.9496783"><ele>200.0</ele><time>2026-05-01T15:09:10.245Z</time></trkpt><trkpt lat="45.7180133" lon="4.9495633"><ele>200.0</ele><time>2026-05-01T15:09:11.244Z</time></trkpt><trkpt lat="45.71796" lon="4.949445"><ele>200.0</ele><time>2026-05-01T15:09:12.245Z</time></trkpt><trkpt lat="45.71791" lon="4.9493017"><ele>200.33333333333334</ele><time>2026-05-01T15:09:13.244Z</time></trkpt><trkpt lat="45.7178683" lon="4.9491183"><ele>200.66666666666669</ele><time>2026-05-01T15:09:14.245Z</time></trkpt><trkpt lat="45.7178017" lon="4.9489067"><ele>201.0</ele><time>2026-05-01T15:09:15.245Z</time></trkpt><trkpt lat="45.7177533" lon="4.9486783"><ele>200.66666666666669</ele><time>2026-05-01T15:09:16.245Z</time></trkpt><trkpt lat="45.7177067" lon="4.94843"><ele>200.33333333333334</ele><time>2026-05-01T15:09:17.244Z</time></trkpt><trkpt lat="45.71766" lon="4.94815"><ele>200.0</ele><time>2026-05-01T15:09:18.245Z</time></trkpt><trkpt lat="45.7176183" lon="4.94786"><ele>200.0</ele><time>2026-05-01T15:09:19.244Z</time></trkpt><trkpt lat="45.7175883" lon="4.947545"><ele>200.0</ele><time>2026-05-01T15:09:20.245Z</time></trkpt><trkpt lat="45.71758" lon="4.947225"><ele>200.0</ele><time>2026-05-01T15:09:21.244Z</time></trkpt><trkpt lat="45.7175783" lon="4.94689"><ele>199.5</ele><time>2026-05-01T15:09:22.245Z</time></trkpt><trkpt lat="45.7175867" lon="4.9465433"><ele>199.0</ele><time>2026-05-01T15:09:23.245Z</time></trkpt><trkpt lat="45.7176083" lon="4.9461983"><ele>199.0</ele><time>2026-05-01T15:09:24.244Z</time></trkpt><trkpt lat="45.71765" lon="4.9458733"><ele>199.0</ele><time>2026-05-01T15:09:25.245Z</time></trkpt><trkpt lat="45.7177" lon="4.94556"><ele>198.33333333333331</ele><time>2026-05-01T15:09:26.245Z</time></trkpt><trkpt lat="45.7177617" lon="4.9452767"><ele>197.66666666666669</ele><time>2026-05-01T15:09:27.245Z</time></trkpt><trkpt lat="45.71785" lon="4.94501"><ele>197.0</ele><time>2026-05-01T15:09:28.244Z</time></trkpt><trkpt lat="45.7179483" lon="4.944735"><ele>198.66666666666669</ele><time>2026-05-01T15:09:29.244Z</time></trkpt><trkpt lat="45.7180383" lon="4.9444467"><ele>200.33333333333331</ele><time>2026-05-01T15:09:30.245Z</time></trkpt><trkpt lat="45.7181317" lon="4.9441633"><ele>202.0</ele><time>2026-05-01T15:09:31.244Z</time></trkpt><trkpt lat="45.7182217" lon="4.9438733"><ele>202.0</ele><time>2026-05-01T15:09:32.245Z</time></trkpt><trkpt lat="45.7183433" lon="4.943605"><ele>202.0</ele><time>2026-05-01T15:09:33.245Z</time></trkpt><trkpt lat="45.71848" lon="4.9433383"><ele>200.5</ele><time>2026-05-01T15:09:34.245Z</time></trkpt><trkpt lat="45.7186083" lon="4.94308"><ele>199.0</ele><time>2026-05-01T15:09:35.244Z</time></trkpt><trkpt lat="45.7187583" lon="4.94283"><ele>199.0</ele><time>2026-05-01T15:09:36.245Z</time></trkpt><trkpt lat="45.718915" lon="4.9425867"><ele>199.0</ele><time>2026-05-01T15:09:37.245Z</time></trkpt><trkpt lat="45.719085" lon="4.9423567"><ele>199.0</ele><time>2026-05-01T15:09:38.245Z</time></trkpt><trkpt lat="45.719265" lon="4.9421367"><ele>199.0</ele><time>2026-05-01T15:09:39.245Z</time></trkpt><trkpt lat="45.7194617" lon="4.94194"><ele>199.0</ele><time>2026-05-01T15:09:40.245Z</time></trkpt><trkpt lat="45.7196767" lon="4.941745"><ele>199.0</ele><time>2026-05-01T15:09:41.245Z</time></trkpt><trkpt lat="45.7198983" lon="4.9415567"><ele>198.5</ele><time>2026-05-01T15:09:42.245Z</time></trkpt><trkpt lat="45.720135" lon="4.9413833"><ele>198.0</ele><time>2026-05-01T15:09:43.244Z</time></trkpt><trkpt lat="45.72038" lon="4.94122"><ele>200.0</ele><time>2026-05-01T15:09:44.245Z</time></trkpt><trkpt lat="45.7206333" lon="4.9410617"><ele>202.0</ele><time>2026-05-01T15:09:45.245Z</time></trkpt><trkpt lat="45.720885" lon="4.9409083"><ele>200.5</ele><time>2026-05-01T15:09:46.245Z</time></trkpt><trkpt lat="45.7211383" lon="4.9407617"><ele>199.0</ele><time>2026-05-01T15:09:47.245Z</time></trkpt><trkpt lat="45.721395" lon="4.9405883"><ele>199.0</ele><time>2026-05-01T15:09:48.243Z</time></trkpt><trkpt lat="45.72164" lon="4.94046"><ele>199.0</ele><time>2026-05-01T15:09:49.243Z</time></trkpt><trkpt lat="45.7218683" lon="4.940315"><ele>199.0</ele><time>2026-05-01T15:09:50.243Z</time></trkpt><trkpt lat="45.7220917" lon="4.940135"><ele>199.0</ele><time>2026-05-01T15:09:51.243Z</time></trkpt><trkpt lat="45.7223217" lon="4.93994"><ele>199.5</ele><time>2026-05-01T15:09:52.243Z</time></trkpt><trkpt lat="45.7225467" lon="4.939735"><ele>200.0</ele><time>2026-05-01T15:09:53.244Z</time></trkpt><trkpt lat="45.7227617" lon="4.9395117"><ele>200.0</ele><time>2026-05-01T15:09:54.244Z</time></trkpt><trkpt lat="45.7229633" lon="4.9392717"><ele>200.0</ele><time>2026-05-01T15:09:55.244Z</time></trkpt><trkpt lat="45.7231517" lon="4.939005"><ele>200.0</ele><time>2026-05-01T15:09:56.244Z</time></trkpt><trkpt lat="45.7233117" lon="4.9387433"><ele>200.0</ele><time>2026-05-01T15:09:57.243Z</time></trkpt><trkpt lat="45.7234567" lon="4.938485"><ele>200.33333333333334</ele><time>2026-05-01T15:09:58.244Z</time></trkpt><trkpt lat="45.72358" lon="4.93825"><ele>200.66666666666669</ele><time>2026-05-01T15:09:59.244Z</time></trkpt><trkpt lat="45.723695" lon="4.938005"><ele>201.0</ele><time>2026-05-01T15:10:00.244Z</time></trkpt><trkpt lat="45.7237983" lon="4.9377617"><ele>201.33333333333331</ele><time>2026-05-01T15:10:01.244Z</time></trkpt><trkpt lat="45.723895" lon="4.9375167"><ele>201.66666666666666</ele><time>2026-05-01T15:10:02.243Z</time></trkpt><trkpt lat="45.7239933" lon="4.937295"><ele>202.0</ele><time>2026-05-01T15:10:03.243Z</time></trkpt><trkpt lat="45.7240867" lon="4.9370883"><ele>202.0</ele><time>2026-05-01T15:10:04.244Z</time></trkpt><trkpt lat="45.7241667" lon="4.936895"><ele>202.0</ele><time>2026-05-01T15:10:05.244Z</time></trkpt><trkpt lat="45.7242317" lon="4.9367117"><ele>202.0</ele><time>2026-05-01T15:10:06.243Z</time></trkpt><trkpt lat="45.72429" lon="4.93655"><ele>202.0</ele><time>2026-05-01T15:10:07.244Z</time></trkpt><trkpt lat="45.72436" lon="4.936405"><ele>201.25</ele><time>2026-05-01T15:10:08.244Z</time></trkpt><trkpt lat="45.7244233" lon="4.9362583"><ele>200.5</ele><time>2026-05-01T15:10:09.244Z</time></trkpt><trkpt lat="45.7244933" lon="4.9360967"><ele>199.75</ele><time>2026-05-01T15:10:10.244Z</time></trkpt><trkpt lat="45.7245617" lon="4.9359017"><ele>199.0</ele><time>2026-05-01T15:10:11.244Z</time></trkpt><trkpt lat="45.72463" lon="4.9357033"><ele>198.33333333333331</ele><time>2026-05-01T15:10:12.244Z</time></trkpt><trkpt lat="45.7246933" lon="4.9354967"><ele>197.66666666666669</ele><time>2026-05-01T15:10:13.243Z</time></trkpt><trkpt lat="45.72474" lon="4.935295"><ele>197.0</ele><time>2026-05-01T15:10:14.244Z</time></trkpt><trkpt lat="45.724785" lon="4.9350833"><ele>196.66666666666669</ele><time>2026-05-01T15:10:15.244Z</time></trkpt><trkpt lat="45.7248467" lon="4.9348783"><ele>196.33333333333331</ele><time>2026-05-01T15:10:16.244Z</time></trkpt><trkpt lat="45.7249183" lon="4.93464"><ele>196.0</ele><time>2026-05-01T15:10:17.244Z</time></trkpt><trkpt lat="45.725" lon="4.9343867"><ele>197.0</ele><time>2026-05-01T15:10:18.244Z</time></trkpt><trkpt lat="45.725075" lon="4.9341117"><ele>198.0</ele><time>2026-05-01T15:10:19.243Z</time></trkpt><trkpt lat="45.7251617" lon="4.9338483"><ele>199.0</ele><time>2026-05-01T15:10:20.244Z</time></trkpt><trkpt lat="45.7252433" lon="4.933565"><ele>198.33333333333331</ele><time>2026-05-01T15:10:21.244Z</time></trkpt><trkpt lat="45.7253233" lon="4.933305"><ele>197.66666666666669</ele><time>2026-05-01T15:10:22.243Z</time></trkpt><trkpt lat="45.725405" lon="4.933055"><ele>197.0</ele><time>2026-05-01T15:10:23.244Z</time></trkpt><trkpt lat="45.7254783" lon="4.932825"><ele>197.0</ele><time>2026-05-01T15:10:24.243Z</time></trkpt><trkpt lat="45.7255517" lon="4.9326167"><ele>197.0</ele><time>2026-05-01T15:10:25.244Z</time></trkpt><trkpt lat="45.725615" lon="4.932415"><ele>197.0</ele><time>2026-05-01T15:10:26.244Z</time></trkpt><trkpt lat="45.7256717" lon="4.932235"><ele>196.75</ele><time>2026-05-01T15:10:27.244Z</time></trkpt><trkpt lat="45.7257283" lon="4.9320533"><ele>196.5</ele><time>2026-05-01T15:10:28.244Z</time></trkpt><trkpt lat="45.7258" lon="4.9319"><ele>196.25</ele><time>2026-05-01T15:10:29.243Z</time></trkpt><trkpt lat="45.7258583" lon="4.93175"><ele>196.0</ele><time>2026-05-01T15:10:30.244Z</time></trkpt><trkpt lat="45.7259167" lon="4.9315867"><ele>197.0</ele><time>2026-05-01T15:10:31.244Z</time></trkpt><trkpt lat="45.72597" lon="4.931405"><ele>198.0</ele><time>2026-05-01T15:10:32.243Z</time></trkpt><trkpt lat="45.7260283" lon="4.9312083"><ele>199.0</ele><time>2026-05-01T15:10:33.243Z</time></trkpt><trkpt lat="45.7260833" lon="4.9309567"><ele>198.66666666666666</ele><time>2026-05-01T15:10:34.243Z</time></trkpt><trkpt lat="45.72615" lon="4.9307133"><ele>198.33333333333331</ele><time>2026-05-01T15:10:35.244Z</time></trkpt><trkpt lat="45.7262217" lon="4.930485"><ele>198.0</ele><time>2026-05-01T15:10:36.244Z</time></trkpt><trkpt lat="45.7263033" lon="4.9302783"><ele>198.0</ele><time>2026-05-01T15:10:37.244Z</time></trkpt><trkpt lat="45.7263917" lon="4.9300833"><ele>198.0</ele><time>2026-05-01T15:10:38.244Z</time></trkpt><trkpt lat="45.7264767" lon="4.9299133"><ele>198.0</ele><time>2026-05-01T15:10:39.244Z</time></trkpt><trkpt lat="45.7265417" lon="4.92974"><ele>198.0</ele><time>2026-05-01T15:10:40.244Z</time></trkpt><trkpt lat="45.7266033" lon="4.929585"><ele>198.25</ele><time>2026-05-01T15:10:41.243Z</time></trkpt><trkpt lat="45.7266483" lon="4.9294033"><ele>198.5</ele><time>2026-05-01T15:10:42.243Z</time></trkpt><trkpt lat="45.72671" lon="4.9292367"><ele>198.75</ele><time>2026-05-01T15:10:43.243Z</time></trkpt><trkpt lat="45.7267717" lon="4.9290767"><ele>199.0</ele><time>2026-05-01T15:10:44.243Z</time></trkpt><trkpt lat="45.7268317" lon="4.92891"><ele>199.75</ele><time>2026-05-01T15:10:45.244Z</time></trkpt><trkpt lat="45.7269017" lon="4.9287367"><ele>200.5</ele><time>2026-05-01T15:10:46.243Z</time></trkpt><trkpt lat="45.7269667" lon="4.9285533"><ele>201.25</ele><time>2026-05-01T15:10:47.243Z</time></trkpt><trkpt lat="45.7270333" lon="4.9283783"><ele>202.0</ele><time>2026-05-01T15:10:48.244Z</time></trkpt><trkpt lat="45.7270967" lon="4.9281983"><ele>202.0</ele><time>2026-05-01T15:10:49.244Z</time></trkpt><trkpt lat="45.727155" lon="4.9280217"><ele>202.0</ele><time>2026-05-01T15:10:50.244Z</time></trkpt><trkpt lat="45.72723" lon="4.92782"><ele>202.0</ele><time>2026-05-01T15:10:51.243Z</time></trkpt><trkpt lat="45.7273033" lon="4.9276233"><ele>202.33333333333331</ele><time>2026-05-01T15:10:52.244Z</time></trkpt><trkpt lat="45.7273733" lon="4.9274233"><ele>202.66666666666669</ele><time>2026-05-01T15:10:53.244Z</time></trkpt><trkpt lat="45.727435" lon="4.9272183"><ele>203.0</ele><time>2026-05-01T15:10:54.243Z</time></trkpt><trkpt lat="45.7275067" lon="4.9269967"><ele>203.0</ele><time>2026-05-01T15:10:55.244Z</time></trkpt><trkpt lat="45.72759" lon="4.926775"><ele>203.0</ele><time>2026-05-01T15:10:56.244Z</time></trkpt><trkpt lat="45.72766" lon="4.9265267"><ele>203.0</ele><time>2026-05-01T15:10:57.244Z</time></trkpt><trkpt lat="45.7277417" lon="4.9262867"><ele>203.0</ele><time>2026-05-01T15:10:58.244Z</time></trkpt><trkpt lat="45.7278217" lon="4.9260367"><ele>203.0</ele><time>2026-05-01T15:10:59.244Z</time></trkpt><trkpt lat="45.7279" lon="4.9258"><ele>203.0</ele><time>2026-05-01T15:11:00.243Z</time></trkpt><trkpt lat="45.7279817" lon="4.9255617"><ele>204.0</ele><time>2026-05-01T15:11:01.244Z</time></trkpt><trkpt lat="45.7280633" lon="4.9253333"><ele>205.0</ele><time>2026-05-01T15:11:02.244Z</time></trkpt><trkpt lat="45.7281383" lon="4.92511"><ele>206.0</ele><time>2026-05-01T15:11:03.243Z</time></trkpt><trkpt lat="45.72821" lon="4.92489"><ele>206.0</ele><time>2026-05-01T15:11:04.244Z</time></trkpt><trkpt lat="45.728295" lon="4.9246617"><ele>206.0</ele><time>2026-05-01T15:11:05.244Z</time></trkpt><trkpt lat="45.7283767" lon="4.92441"><ele>206.0</ele><time>2026-05-01T15:11:06.244Z</time></trkpt><trkpt lat="45.728465" lon="4.9241783"><ele>206.66666666666669</ele><time>2026-05-01T15:11:07.244Z</time></trkpt><trkpt lat="45.728555" lon="4.9239317"><ele>207.33333333333331</ele><time>2026-05-01T15:11:08.244Z</time></trkpt><trkpt lat="45.7286467" lon="4.923675"><ele>208.0</ele><time>2026-05-01T15:11:09.243Z</time></trkpt><trkpt lat="45.7287383" lon="4.9233983"><ele>209.0</ele><time>2026-05-01T15:11:10.243Z</time></trkpt><trkpt lat="45.7288333" lon="4.9231333"><ele>210.0</ele><time>2026-05-01T15:11:11.244Z</time></trkpt><trkpt lat="45.7289217" lon="4.9228683"><ele>211.0</ele><time>2026-05-01T15:11:12.244Z</time></trkpt><trkpt lat="45.729" lon="4.9225717"><ele>212.33333333333331</ele><time>2026-05-01T15:11:13.244Z</time></trkpt><trkpt lat="45.7290883" lon="4.92228"><ele>213.66666666666669</ele><time>2026-05-01T15:11:14.244Z</time></trkpt><trkpt lat="45.729165" lon="4.922025"><ele>215.0</ele><time>2026-05-01T15:11:15.244Z</time></trkpt><trkpt lat="45.7292317" lon="4.9217967"><ele>215.5</ele><time>2026-05-01T15:11:16.244Z</time></trkpt><trkpt lat="45.72929" lon="4.921575"><ele>216.0</ele><time>2026-05-01T15:11:17.244Z</time></trkpt><trkpt lat="45.7293433" lon="4.9213883"><ele>216.5</ele><time>2026-05-01T15:11:18.244Z</time></trkpt><trkpt lat="45.7294" lon="4.9212183"><ele>217.0</ele><time>2026-05-01T15:11:19.244Z</time></trkpt><trkpt lat="45.7294567" lon="4.9210433"><ele>217.25</ele><time>2026-05-01T15:11:20.243Z</time></trkpt><trkpt lat="45.7295283" lon="4.9208833"><ele>217.5</ele><time>2026-05-01T15:11:21.244Z</time></trkpt><trkpt lat="45.729595" lon="4.9207167"><ele>217.75</ele><time>2026-05-01T15:11:22.244Z</time></trkpt><trkpt lat="45.7296533" lon="4.9205417"><ele>218.0</ele><time>2026-05-01T15:11:23.244Z</time></trkpt><trkpt lat="45.7297167" lon="4.9203683"><ele>218.0</ele><time>2026-05-01T15:11:24.244Z</time></trkpt><trkpt lat="45.729765" lon="4.9202"><ele>218.0</ele><time>2026-05-01T15:11:25.244Z</time></trkpt><trkpt lat="45.7298183" lon="4.9200033"><ele>218.0</ele><time>2026-05-01T15:11:26.244Z</time></trkpt><trkpt lat="45.7298683" lon="4.91981"><ele>218.0</ele><time>2026-05-01T15:11:27.244Z</time></trkpt><trkpt lat="45.7299283" lon="4.9196333"><ele>216.8</ele><time>2026-05-01T15:11:28.244Z</time></trkpt><trkpt lat="45.729975" lon="4.9194567"><ele>215.60000000000002</ele><time>2026-05-01T15:11:29.244Z</time></trkpt><trkpt lat="45.730015" lon="4.91931"><ele>214.39999999999998</ele><time>2026-05-01T15:11:30.244Z</time></trkpt><trkpt lat="45.7300633" lon="4.9191833"><ele>213.2</ele><time>2026-05-01T15:11:31.244Z</time></trkpt><trkpt lat="45.7301117" lon="4.919065"><ele>212.0</ele><time>2026-05-01T15:11:32.244Z</time></trkpt><trkpt lat="45.730155" lon="4.9189317"><ele>211.8</ele><time>2026-05-01T15:11:33.244Z</time></trkpt><trkpt lat="45.7301967" lon="4.9188"><ele>211.6</ele><time>2026-05-01T15:11:34.244Z</time></trkpt><trkpt lat="45.7302417" lon="4.9186717"><ele>211.4</ele><time>2026-05-01T15:11:35.243Z</time></trkpt><trkpt lat="45.7302883" lon="4.91853"><ele>211.20000000000002</ele><time>2026-05-01T15:11:36.244Z</time></trkpt><trkpt lat="45.730345" lon="4.9183817"><ele>211.0</ele><time>2026-05-01T15:11:37.244Z</time></trkpt><trkpt lat="45.7303967" lon="4.9182133"><ele>210.5</ele><time>2026-05-01T15:11:38.244Z</time></trkpt><trkpt lat="45.730455" lon="4.9180417"><ele>210.0</ele><time>2026-05-01T15:11:39.244Z</time></trkpt><trkpt lat="45.73052" lon="4.917875"><ele>209.5</ele><time>2026-05-01T15:11:40.244Z</time></trkpt><trkpt lat="45.7305733" lon="4.9177033"><ele>209.0</ele><time>2026-05-01T15:11:41.244Z</time></trkpt><trkpt lat="45.73063" lon="4.9175383"><ele>208.25</ele><time>2026-05-01T15:11:42.244Z</time></trkpt><trkpt lat="45.7306783" lon="4.917395"><ele>207.5</ele><time>2026-05-01T15:11:43.244Z</time></trkpt><trkpt lat="45.7307467" lon="4.91726"><ele>206.75</ele><time>2026-05-01T15:11:44.243Z</time></trkpt><trkpt lat="45.7308017" lon="4.91712"><ele>206.0</ele><time>2026-05-01T15:11:45.243Z</time></trkpt><trkpt lat="45.7308483" lon="4.9169767"><ele>206.0</ele><time>2026-05-01T15:11:46.244Z</time></trkpt><trkpt lat="45.730895" lon="4.91684"><ele>206.0</ele><time>2026-05-01T15:11:47.244Z</time></trkpt><trkpt lat="45.730935" lon="4.9167133"><ele>206.0</ele><time>2026-05-01T15:11:48.244Z</time></trkpt><trkpt lat="45.730975" lon="4.9165983"><ele>206.0</ele><time>2026-05-01T15:11:49.244Z</time></trkpt><trkpt lat="45.7310067" lon="4.9164933"><ele>206.0</ele><time>2026-05-01T15:11:50.243Z</time></trkpt><trkpt lat="45.7310367" lon="4.91639"><ele>206.16666666666669</ele><time>2026-05-01T15:11:51.244Z</time></trkpt><trkpt lat="45.731065" lon="4.9162883"><ele>206.33333333333334</ele><time>2026-05-01T15:11:52.244Z</time></trkpt><trkpt lat="45.7310967" lon="4.9161817"><ele>206.5</ele><time>2026-05-01T15:11:53.244Z</time></trkpt><trkpt lat="45.7311267" lon="4.9160683"><ele>206.66666666666669</ele><time>2026-05-01T15:11:54.243Z</time></trkpt><trkpt lat="45.7311683" lon="4.9159617"><ele>206.83333333333334</ele><time>2026-05-01T15:11:55.243Z</time></trkpt><trkpt lat="45.7312083" lon="4.915835"><ele>207.0</ele><time>2026-05-01T15:11:56.244Z</time></trkpt><trkpt lat="45.73126" lon="4.9157017"><ele>207.0</ele><time>2026-05-01T15:11:57.244Z</time></trkpt><trkpt lat="45.731315" lon="4.9155533"><ele>207.0</ele><time>2026-05-01T15:11:58.244Z</time></trkpt><trkpt lat="45.7313733" lon="4.9154067"><ele>207.0</ele><time>2026-05-01T15:11:59.243Z</time></trkpt><trkpt lat="45.7314417" lon="4.9152617"><ele>207.0</ele><time>2026-05-01T15:12:00.243Z</time></trkpt><trkpt lat="45.7314983" lon="4.9151233"><ele>206.5</ele><time>2026-05-01T15:12:01.244Z</time></trkpt><trkpt lat="45.7315533" lon="4.9149817"><ele>206.0</ele><time>2026-05-01T15:12:02.244Z</time></trkpt><trkpt lat="45.73161" lon="4.9148483"><ele>205.5</ele><time>2026-05-01T15:12:03.244Z</time></trkpt><trkpt lat="45.7316683" lon="4.914705"><ele>205.0</ele><time>2026-05-01T15:12:04.244Z</time></trkpt><trkpt lat="45.7316967" lon="4.9145417"><ele>205.0</ele><time>2026-05-01T15:12:05.244Z</time></trkpt><trkpt lat="45.7317483" lon="4.914385"><ele>205.0</ele><time>2026-05-01T15:12:06.243Z</time></trkpt><trkpt lat="45.731785" lon="4.9142333"><ele>205.0</ele><time>2026-05-01T15:12:07.244Z</time></trkpt><trkpt lat="45.7318283" lon="4.914085"><ele>205.0</ele><time>2026-05-01T15:12:08.244Z</time></trkpt><trkpt lat="45.73189" lon="4.9139433"><ele>204.4</ele><time>2026-05-01T15:12:09.244Z</time></trkpt><trkpt lat="45.7319367" lon="4.913795"><ele>203.8</ele><time>2026-05-01T15:12:10.244Z</time></trkpt><trkpt lat="45.7319817" lon="4.9136617"><ele>203.2</ele><time>2026-05-01T15:12:11.244Z</time></trkpt><trkpt lat="45.7320183" lon="4.913525"><ele>202.6</ele><time>2026-05-01T15:12:12.244Z</time></trkpt><trkpt lat="45.7320533" lon="4.91341"><ele>202.0</ele><time>2026-05-01T15:12:13.244Z</time></trkpt><trkpt lat="45.7320933" lon="4.9133067"><ele>201.8</ele><time>2026-05-01T15:12:14.244Z</time></trkpt><trkpt lat="45.7321333" lon="4.9132033"><ele>201.6</ele><time>2026-05-01T15:12:15.243Z</time></trkpt><trkpt lat="45.7321767" lon="4.9130967"><ele>201.4</ele><time>2026-05-01T15:12:16.243Z</time></trkpt><trkpt lat="45.7322133" lon="4.91296"><ele>201.20000000000002</ele><time>2026-05-01T15:12:17.244Z</time></trkpt><trkpt lat="45.7322467" lon="4.9128117"><ele>201.0</ele><time>2026-05-01T15:12:18.243Z</time></trkpt><trkpt lat="45.7322883" lon="4.9126617"><ele>201.60000000000002</ele><time>2026-05-01T15:12:19.244Z</time></trkpt><trkpt lat="45.7323283" lon="4.9125083"><ele>202.2</ele><time>2026-05-01T15:12:20.244Z</time></trkpt><trkpt lat="45.7323733" lon="4.912365"><ele>202.8</ele><time>2026-05-01T15:12:21.244Z</time></trkpt><trkpt lat="45.7324167" lon="4.9122417"><ele>203.39999999999998</ele><time>2026-05-01T15:12:22.244Z</time></trkpt><trkpt lat="45.7324567" lon="4.91213"><ele>204.0</ele><time>2026-05-01T15:12:23.244Z</time></trkpt><trkpt lat="45.732495" lon="4.9120083"><ele>204.0</ele><time>2026-05-01T15:12:24.243Z</time></trkpt><trkpt lat="45.7325367" lon="4.911885"><ele>204.0</ele><time>2026-05-01T15:12:25.244Z</time></trkpt><trkpt lat="45.7325817" lon="4.9117517"><ele>204.0</ele><time>2026-05-01T15:12:26.243Z</time></trkpt><trkpt lat="45.7326267" lon="4.9116117"><ele>204.0</ele><time>2026-05-01T15:12:27.243Z</time></trkpt><trkpt lat="45.7326717" lon="4.9114883"><ele>204.0</ele><time>2026-05-01T15:12:28.244Z</time></trkpt><trkpt lat="45.7327117" lon="4.9113683"><ele>204.0</ele><time>2026-05-01T15:12:29.243Z</time></trkpt><trkpt lat="45.73275" lon="4.9112517"><ele>204.0</ele><time>2026-05-01T15:12:30.243Z</time></trkpt><trkpt lat="45.7327983" lon="4.911135"><ele>204.0</ele><time>2026-05-01T15:12:31.244Z</time></trkpt><trkpt lat="45.7328267" lon="4.9110133"><ele>204.0</ele><time>2026-05-01T15:12:32.244Z</time></trkpt><trkpt lat="45.732845" lon="4.9109083"><ele>204.0</ele><time>2026-05-01T15:12:33.243Z</time></trkpt><trkpt lat="45.7328683" lon="4.910785"><ele>204.0</ele><time>2026-05-01T15:12:35.244Z</time></trkpt><trkpt lat="45.732915" lon="4.9106783"><ele>204.16666666666666</ele><time>2026-05-01T15:12:38.243Z</time></trkpt><trkpt lat="45.7329633" lon="4.910545"><ele>204.33333333333331</ele><time>2026-05-01T15:12:40.244Z</time></trkpt><trkpt lat="45.732995" lon="4.9104467"><ele>204.5</ele><time>2026-05-01T15:12:41.244Z</time></trkpt><trkpt lat="45.7330267" lon="4.91036"><ele>204.66666666666666</ele><time>2026-05-01T15:12:42.244Z</time></trkpt><trkpt lat="45.7330567" lon="4.9102717"><ele>204.83333333333331</ele><time>2026-05-01T15:12:43.244Z</time></trkpt><trkpt lat="45.7330867" lon="4.910185"><ele>205.0</ele><time>2026-05-01T15:12:44.244Z</time></trkpt><trkpt lat="45.733115" lon="4.9100967"><ele>205.33333333333331</ele><time>2026-05-01T15:12:45.244Z</time></trkpt><trkpt lat="45.7331367" lon="4.9100033"><ele>205.66666666666666</ele><time>2026-05-01T15:12:46.243Z</time></trkpt><trkpt lat="45.7331667" lon="4.9099017"><ele>206.0</ele><time>2026-05-01T15:12:47.243Z</time></trkpt><trkpt lat="45.733185" lon="4.9097833"><ele>206.33333333333331</ele><time>2026-05-01T15:12:48.244Z</time></trkpt><trkpt lat="45.7332167" lon="4.9096783"><ele>206.66666666666666</ele><time>2026-05-01T15:12:49.244Z</time></trkpt><trkpt lat="45.73324" lon="4.9095767"><ele>207.0</ele><time>2026-05-01T15:12:50.243Z</time></trkpt><trkpt lat="45.7333167" lon="4.9094467"><ele>207.0</ele><time>2026-05-01T15:12:52.244Z</time></trkpt><trkpt lat="45.73338" lon="4.909305"><ele>207.0</ele><time>2026-05-01T15:12:54.244Z</time></trkpt><trkpt lat="45.733455" lon="4.9091567"><ele>207.0</ele><time>2026-05-01T15:12:56.243Z</time></trkpt><trkpt lat="45.7334917" lon="4.9090483"><ele>207.0</ele><time>2026-05-01T15:12:57.244Z</time></trkpt><trkpt lat="45.7335267" lon="4.90893"><ele>207.0</ele><time>2026-05-01T15:12:58.244Z</time></trkpt><trkpt lat="45.7335483" lon="4.90882"><ele>206.83333333333334</ele><time>2026-05-01T15:12:59.244Z</time></trkpt><trkpt lat="45.73359" lon="4.9087083"><ele>206.66666666666669</ele><time>2026-05-01T15:13:00.244Z</time></trkpt><trkpt lat="45.733635" lon="4.9086017"><ele>206.5</ele><time>2026-05-01T15:13:01.244Z</time></trkpt><trkpt lat="45.7336583" lon="4.90849"><ele>206.33333333333334</ele><time>2026-05-01T15:13:02.243Z</time></trkpt><trkpt lat="45.7336833" lon="4.9084067"><ele>206.16666666666669</ele><time>2026-05-01T15:13:03.244Z</time></trkpt><trkpt lat="45.7337233" lon="4.9082933"><ele>206.0</ele><time>2026-05-01T15:13:05.244Z</time></trkpt><trkpt lat="45.733745" lon="4.9081883"><ele>206.00000000000003</ele><time>2026-05-01T15:13:07.243Z</time></trkpt><trkpt lat="45.733775" lon="4.9080867"><ele>206.0</ele><time>2026-05-01T15:13:09.243Z</time></trkpt><trkpt lat="45.733825" lon="4.9079417"><ele>206.0</ele><time>2026-05-01T15:13:11.244Z</time></trkpt><trkpt lat="45.7338583" lon="4.9078467"><ele>206.0</ele><time>2026-05-01T15:13:12.244Z</time></trkpt><trkpt lat="45.7338917" lon="4.9077383"><ele>206.00000000000003</ele><time>2026-05-01T15:13:13.244Z</time></trkpt><trkpt lat="45.7339217" lon="4.9076267"><ele>206.0</ele><time>2026-05-01T15:13:14.244Z</time></trkpt><trkpt lat="45.73397" lon="4.9075183"><ele>205.60000000000002</ele><time>2026-05-01T15:13:15.244Z</time></trkpt><trkpt lat="45.7340167" lon="4.9074017"><ele>205.2</ele><time>2026-05-01T15:13:16.243Z</time></trkpt><trkpt lat="45.7340717" lon="4.9072933"><ele>204.8</ele><time>2026-05-01T15:13:17.243Z</time></trkpt><trkpt lat="45.7341067" lon="4.9071783"><ele>204.39999999999998</ele><time>2026-05-01T15:13:18.244Z</time></trkpt><trkpt lat="45.7341517" lon="4.907045"><ele>204.0</ele><time>2026-05-01T15:13:19.243Z</time></trkpt><trkpt lat="45.7341933" lon="4.906895"><ele>204.0</ele><time>2026-05-01T15:13:20.244Z</time></trkpt><trkpt lat="45.7342467" lon="4.9067467"><ele>204.0</ele><time>2026-05-01T15:13:21.244Z</time></trkpt><trkpt lat="45.7342933" lon="4.9065883"><ele>204.0</ele><time>2026-05-01T15:13:22.244Z</time></trkpt><trkpt lat="45.73434" lon="4.90643"><ele>204.0</ele><time>2026-05-01T15:13:23.244Z</time></trkpt><trkpt lat="45.73438" lon="4.9062817"><ele>203.79999999999998</ele><time>2026-05-01T15:13:24.244Z</time></trkpt><trkpt lat="45.7344333" lon="4.9061467"><ele>203.6</ele><time>2026-05-01T15:13:25.244Z</time></trkpt><trkpt lat="45.7344683" lon="4.9060183"><ele>203.4</ele><time>2026-05-01T15:13:26.244Z</time></trkpt><trkpt lat="45.7345117" lon="4.905905"><ele>203.2</ele><time>2026-05-01T15:13:27.244Z</time></trkpt><trkpt lat="45.7345583" lon="4.905795"><ele>203.0</ele><time>2026-05-01T15:13:28.244Z</time></trkpt><trkpt lat="45.734595" lon="4.9056983"><ele>202.60000000000002</ele><time>2026-05-01T15:13:29.244Z</time></trkpt><trkpt lat="45.7346433" lon="4.9056083"><ele>202.20000000000002</ele><time>2026-05-01T15:13:30.243Z</time></trkpt><trkpt lat="45.7346983" lon="4.90547"><ele>201.8</ele><time>2026-05-01T15:13:32.244Z</time></trkpt><trkpt lat="45.7347633" lon="4.9053517"><ele>201.4</ele><time>2026-05-01T15:13:34.244Z</time></trkpt><trkpt lat="45.734835" lon="4.9052217"><ele>201.0</ele><time>2026-05-01T15:13:36.244Z</time></trkpt><trkpt lat="45.7348833" lon="4.905115"><ele>200.66666666666666</ele><time>2026-05-01T15:13:38.244Z</time></trkpt><trkpt lat="45.7349217" lon="4.9049583"><ele>200.33333333333331</ele><time>2026-05-01T15:13:40.244Z</time></trkpt><trkpt lat="45.7349433" lon="4.90486"><ele>200.0</ele><time>2026-05-01T15:13:41.244Z</time></trkpt><trkpt lat="45.73497" lon="4.90475"><ele>199.66666666666666</ele><time>2026-05-01T15:13:42.244Z</time></trkpt><trkpt lat="45.7350017" lon="4.9046467"><ele>199.33333333333331</ele><time>2026-05-01T15:13:43.244Z</time></trkpt><trkpt lat="45.7350217" lon="4.9045383"><ele>199.0</ele><time>2026-05-01T15:13:44.244Z</time></trkpt><trkpt lat="45.7350467" lon="4.90445"><ele>198.99999999999997</ele><time>2026-05-01T15:13:45.243Z</time></trkpt><trkpt lat="45.7350683" lon="4.90436"><ele>199.0</ele><time>2026-05-01T15:13:46.244Z</time></trkpt><trkpt lat="45.7351217" lon="4.904195"><ele>199.0</ele><time>2026-05-01T15:13:48.243Z</time></trkpt><trkpt lat="45.7351517" lon="4.9041067"><ele>199.0</ele><time>2026-05-01T15:13:49.244Z</time></trkpt><trkpt lat="45.7351833" lon="4.904025"><ele>198.99999999999997</ele><time>2026-05-01T15:13:50.244Z</time></trkpt><trkpt lat="45.7352283" lon="4.903935"><ele>199.0</ele><time>2026-05-01T15:13:51.244Z</time></trkpt><trkpt lat="45.73528" lon="4.9038633"><ele>199.0</ele><time>2026-05-01T15:13:52.244Z</time></trkpt><trkpt lat="45.73534" lon="4.9038033"><ele>199.0</ele><time>2026-05-01T15:13:53.244Z</time></trkpt><trkpt lat="45.7354217" lon="4.9037583"><ele>199.0</ele><time>2026-05-01T15:13:54.244Z</time></trkpt><trkpt lat="45.73551" lon="4.90373"><ele>199.0</ele><time>2026-05-01T15:13:55.244Z</time></trkpt><trkpt lat="45.7356083" lon="4.9037283"><ele>199.0</ele><time>2026-05-01T15:13:56.244Z</time></trkpt><trkpt lat="45.7357133" lon="4.903735"><ele>199.0</ele><time>2026-05-01T15:13:57.243Z</time></trkpt><trkpt lat="45.7358183" lon="4.9037717"><ele>199.0</ele><time>2026-05-01T15:13:58.243Z</time></trkpt><trkpt lat="45.7359433" lon="4.9038667"><ele>199.0</ele><time>2026-05-01T15:13:59.244Z</time></trkpt><trkpt lat="45.7360767" lon="4.9039633"><ele>199.0</ele><time>2026-05-01T15:14:00.244Z</time></trkpt><trkpt lat="45.7362067" lon="4.9040783"><ele>199.79999999999998</ele><time>2026-05-01T15:14:01.243Z</time></trkpt><trkpt lat="45.73632" lon="4.90416"><ele>200.6</ele><time>2026-05-01T15:14:02.244Z</time></trkpt><trkpt lat="45.7364317" lon="4.904195"><ele>201.4</ele><time>2026-05-01T15:14:03.244Z</time></trkpt><trkpt lat="45.73654" lon="4.904195"><ele>202.2</ele><time>2026-05-01T15:14:04.244Z</time></trkpt><trkpt lat="45.73663" lon="4.90417"><ele>203.0</ele><time>2026-05-01T15:14:05.243Z</time></trkpt><trkpt lat="45.7367167" lon="4.9041383"><ele>203.0</ele><time>2026-05-01T15:14:06.244Z</time></trkpt><trkpt lat="45.7368033" lon="4.9040767"><ele>203.0</ele><time>2026-05-01T15:14:07.244Z</time></trkpt><trkpt lat="45.736905" lon="4.9040417"><ele>203.0</ele><time>2026-05-01T15:14:08.244Z</time></trkpt><trkpt lat="45.7370283" lon="4.9040033"><ele>203.0</ele><time>2026-05-01T15:14:09.244Z</time></trkpt><trkpt lat="45.737145" lon="4.90396"><ele>203.0</ele><time>2026-05-01T15:14:10.244Z</time></trkpt><trkpt lat="45.73728" lon="4.9039267"><ele>203.0</ele><time>2026-05-01T15:14:11.243Z</time></trkpt><trkpt lat="45.7374167" lon="4.9038817"><ele>203.0</ele><time>2026-05-01T15:14:12.244Z</time></trkpt><trkpt lat="45.7375517" lon="4.9038717"><ele>203.0</ele><time>2026-05-01T15:14:13.244Z</time></trkpt><trkpt lat="45.7377067" lon="4.90395"><ele>203.0</ele><time>2026-05-01T15:14:14.243Z</time></trkpt><trkpt lat="45.7378617" lon="4.9040383"><ele>204.66666666666669</ele><time>2026-05-01T15:14:15.244Z</time></trkpt><trkpt lat="45.7380183" lon="4.9042117"><ele>206.33333333333331</ele><time>2026-05-01T15:14:16.244Z</time></trkpt><trkpt lat="45.7381867" lon="4.9043483"><ele>208.0</ele><time>2026-05-01T15:14:17.243Z</time></trkpt><trkpt lat="45.7383617" lon="4.9044767"><ele>208.0</ele><time>2026-05-01T15:14:18.244Z</time></trkpt><trkpt lat="45.738535" lon="4.9045867"><ele>208.0</ele><time>2026-05-01T15:14:19.243Z</time></trkpt><trkpt lat="45.7387183" lon="4.90471"><ele>208.0</ele><time>2026-05-01T15:14:20.244Z</time></trkpt><trkpt lat="45.738905" lon="4.90477"><ele>207.66666666666666</ele><time>2026-05-01T15:14:21.244Z</time></trkpt><trkpt lat="45.739095" lon="4.9048383"><ele>207.33333333333331</ele><time>2026-05-01T15:14:22.243Z</time></trkpt><trkpt lat="45.73928" lon="4.9049033"><ele>207.0</ele><time>2026-05-01T15:14:23.244Z</time></trkpt><trkpt lat="45.739495" lon="4.9049567"><ele>206.0</ele><time>2026-05-01T15:14:24.243Z</time></trkpt><trkpt lat="45.7397183" lon="4.90501"><ele>205.0</ele><time>2026-05-01T15:14:25.244Z</time></trkpt><trkpt lat="45.739945" lon="4.9050717"><ele>203.0</ele><time>2026-05-01T15:14:26.244Z</time></trkpt><trkpt lat="45.74018" lon="4.9051333"><ele>201.0</ele><time>2026-05-01T15:14:27.244Z</time></trkpt><trkpt lat="45.7404317" lon="4.905185"><ele>201.0</ele><time>2026-05-01T15:14:28.244Z</time></trkpt><trkpt lat="45.740665" lon="4.90524"><ele>201.0</ele><time>2026-05-01T15:14:29.244Z</time></trkpt><trkpt lat="45.7408983" lon="4.9052933"><ele>201.0</ele><time>2026-05-01T15:14:30.244Z</time></trkpt><trkpt lat="45.741125" lon="4.9053433"><ele>201.0</ele><time>2026-05-01T15:14:31.243Z</time></trkpt><trkpt lat="45.7413483" lon="4.9054067"><ele>201.0</ele><time>2026-05-01T15:14:32.244Z</time></trkpt><trkpt lat="45.7415917" lon="4.9054683"><ele>201.0</ele><time>2026-05-01T15:14:33.244Z</time></trkpt><trkpt lat="45.7418267" lon="4.9055383"><ele>200.0</ele><time>2026-05-01T15:14:34.244Z</time></trkpt><trkpt lat="45.742065" lon="4.9055933"><ele>199.0</ele><time>2026-05-01T15:14:35.244Z</time></trkpt><trkpt lat="45.7422933" lon="4.9056667"><ele>199.0</ele><time>2026-05-01T15:14:36.244Z</time></trkpt><trkpt lat="45.7425433" lon="4.9057017"><ele>199.0</ele><time>2026-05-01T15:14:37.244Z</time></trkpt><trkpt lat="45.74278" lon="4.905775"><ele>200.0</ele><time>2026-05-01T15:14:38.244Z</time></trkpt><trkpt lat="45.7430067" lon="4.9058583"><ele>201.0</ele><time>2026-05-01T15:14:39.243Z</time></trkpt><trkpt lat="45.7432317" lon="4.905935"><ele>202.0</ele><time>2026-05-01T15:14:40.244Z</time></trkpt><trkpt lat="45.7434333" lon="4.905995"><ele>203.0</ele><time>2026-05-01T15:14:41.243Z</time></trkpt><trkpt lat="45.7436083" lon="4.9060467"><ele>204.0</ele><time>2026-05-01T15:14:42.244Z</time></trkpt><trkpt lat="45.74375" lon="4.9061217"><ele>205.0</ele><time>2026-05-01T15:14:43.244Z</time></trkpt><trkpt lat="45.7438983" lon="4.9061783"><ele>206.0</ele><time>2026-05-01T15:14:44.244Z</time></trkpt><trkpt lat="45.7440367" lon="4.9062483"><ele>207.0</ele><time>2026-05-01T15:14:45.244Z</time></trkpt><trkpt lat="45.7442" lon="4.9062933"><ele>207.0</ele><time>2026-05-01T15:14:46.243Z</time></trkpt><trkpt lat="45.744375" lon="4.9063217"><ele>207.0</ele><time>2026-05-01T15:14:47.244Z</time></trkpt><trkpt lat="45.7445567" lon="4.9063717"><ele>207.0</ele><time>2026-05-01T15:14:48.244Z</time></trkpt><trkpt lat="45.744755" lon="4.9064"><ele>206.33333333333331</ele><time>2026-05-01T15:14:49.244Z</time></trkpt><trkpt lat="45.744955" lon="4.9064417"><ele>205.66666666666666</ele><time>2026-05-01T15:14:50.244Z</time></trkpt><trkpt lat="45.7451483" lon="4.9064833"><ele>205.0</ele><time>2026-05-01T15:14:51.244Z</time></trkpt><trkpt lat="45.7453367" lon="4.9065183"><ele>205.0</ele><time>2026-05-01T15:14:52.244Z</time></trkpt><trkpt lat="45.74552" lon="4.9065617"><ele>205.0</ele><time>2026-05-01T15:14:53.244Z</time></trkpt><trkpt lat="45.74571" lon="4.906595"><ele>205.0</ele><time>2026-05-01T15:14:54.243Z</time></trkpt><trkpt lat="45.7459017" lon="4.9066333"><ele>205.0</ele><time>2026-05-01T15:14:55.243Z</time></trkpt><trkpt lat="45.7460983" lon="4.9066767"><ele>205.0</ele><time>2026-05-01T15:14:56.243Z</time></trkpt><trkpt lat="45.74629" lon="4.906725"><ele>205.0</ele><time>2026-05-01T15:14:57.244Z</time></trkpt><trkpt lat="45.7465183" lon="4.9067517"><ele>205.5</ele><time>2026-05-01T15:14:58.244Z</time></trkpt><trkpt lat="45.746745" lon="4.906785"><ele>206.0</ele><time>2026-05-01T15:14:59.244Z</time></trkpt><trkpt lat="45.7469767" lon="4.9068183"><ele>201.5</ele><time>2026-05-01T15:15:00.244Z</time></trkpt><trkpt lat="45.7472167" lon="4.9068567"><ele>197.0</ele><time>2026-05-01T15:15:01.244Z</time></trkpt><trkpt lat="45.7474617" lon="4.9068967"><ele>193.0</ele><time>2026-05-01T15:15:02.243Z</time></trkpt><trkpt lat="45.7477117" lon="4.9069483"><ele>189.0</ele><time>2026-05-01T15:15:03.243Z</time></trkpt><trkpt lat="45.7479383" lon="4.9070067"><ele>189.0</ele><time>2026-05-01T15:15:04.244Z</time></trkpt><trkpt lat="45.7481683" lon="4.9070667"><ele>189.0</ele><time>2026-05-01T15:15:05.243Z</time></trkpt><trkpt lat="45.74841" lon="4.9071117"><ele>189.0</ele><time>2026-05-01T15:15:06.244Z</time></trkpt><trkpt lat="45.7486517" lon="4.907175"><ele>189.0</ele><time>2026-05-01T15:15:07.243Z</time></trkpt><trkpt lat="45.748895" lon="4.9072283"><ele>189.0</ele><time>2026-05-01T15:15:08.244Z</time></trkpt><trkpt lat="45.74918" lon="4.907275"><ele>189.0</ele><time>2026-05-01T15:15:09.244Z</time></trkpt><trkpt lat="45.749435" lon="4.90733"><ele>188.0</ele><time>2026-05-01T15:15:10.244Z</time></trkpt><trkpt lat="45.74969" lon="4.9073783"><ele>187.0</ele><time>2026-05-01T15:15:11.244Z</time></trkpt><trkpt lat="45.74995" lon="4.9074533"><ele>186.0</ele><time>2026-05-01T15:15:12.243Z</time></trkpt><trkpt lat="45.7502233" lon="4.9075067"><ele>185.0</ele><time>2026-05-01T15:15:13.244Z</time></trkpt><trkpt lat="45.7504883" lon="4.907555"><ele>185.5</ele><time>2026-05-01T15:15:14.243Z</time></trkpt><trkpt lat="45.7507433" lon="4.9076133"><ele>186.0</ele><time>2026-05-01T15:15:15.243Z</time></trkpt><trkpt lat="45.751025" lon="4.90765"><ele>185.5</ele><time>2026-05-01T15:15:16.244Z</time></trkpt><trkpt lat="45.7512933" lon="4.9077083"><ele>185.0</ele><time>2026-05-01T15:15:17.243Z</time></trkpt><trkpt lat="45.7515533" lon="4.9077733"><ele>185.0</ele><time>2026-05-01T15:15:18.244Z</time></trkpt><trkpt lat="45.7518183" lon="4.9078417"><ele>185.0</ele><time>2026-05-01T15:15:19.243Z</time></trkpt><trkpt lat="45.7520817" lon="4.9079017"><ele>186.5</ele><time>2026-05-01T15:15:20.244Z</time></trkpt><trkpt lat="45.7523583" lon="4.90795"><ele>188.0</ele><time>2026-05-01T15:15:21.244Z</time></trkpt><trkpt lat="45.7526367" lon="4.90802"><ele>187.0</ele><time>2026-05-01T15:15:22.244Z</time></trkpt><trkpt lat="45.75293" lon="4.90807"><ele>186.0</ele><time>2026-05-01T15:15:23.244Z</time></trkpt><trkpt lat="45.7532133" lon="4.9081283"><ele>186.0</ele><time>2026-05-01T15:15:24.244Z</time></trkpt><trkpt lat="45.7534867" lon="4.9081883"><ele>186.0</ele><time>2026-05-01T15:15:25.243Z</time></trkpt><trkpt lat="45.7537633" lon="4.9082467"><ele>185.5</ele><time>2026-05-01T15:15:26.244Z</time></trkpt><trkpt lat="45.7540367" lon="4.9083117"><ele>185.0</ele><time>2026-05-01T15:15:27.244Z</time></trkpt><trkpt lat="45.754305" lon="4.908375"><ele>184.5</ele><time>2026-05-01T15:15:28.244Z</time></trkpt><trkpt lat="45.754565" lon="4.9084283"><ele>184.0</ele><time>2026-05-01T15:15:29.244Z</time></trkpt><trkpt lat="45.75481" lon="4.9084817"><ele>184.0</ele><time>2026-05-01T15:15:30.244Z</time></trkpt><trkpt lat="45.75504" lon="4.9085317"><ele>184.0</ele><time>2026-05-01T15:15:31.244Z</time></trkpt><trkpt lat="45.7552567" lon="4.908585"><ele>184.33333333333334</ele><time>2026-05-01T15:15:32.244Z</time></trkpt><trkpt lat="45.7554667" lon="4.9086267"><ele>184.66666666666666</ele><time>2026-05-01T15:15:33.244Z</time></trkpt><trkpt lat="45.7556817" lon="4.9086583"><ele>185.0</ele><time>2026-05-01T15:15:34.244Z</time></trkpt><trkpt lat="45.75589" lon="4.9086917"><ele>185.0</ele><time>2026-05-01T15:15:35.244Z</time></trkpt><trkpt lat="45.7561" lon="4.9087317"><ele>185.0</ele><time>2026-05-01T15:15:36.244Z</time></trkpt><trkpt lat="45.756315" lon="4.9087917"><ele>185.0</ele><time>2026-05-01T15:15:37.244Z</time></trkpt><trkpt lat="45.7565317" lon="4.9088467"><ele>185.0</ele><time>2026-05-01T15:15:38.243Z</time></trkpt><trkpt lat="45.75678" lon="4.9088583"><ele>185.0</ele><time>2026-05-01T15:15:39.244Z</time></trkpt><trkpt lat="45.7570183" lon="4.9089133"><ele>184.5</ele><time>2026-05-01T15:15:40.244Z</time></trkpt><trkpt lat="45.75726" lon="4.90897"><ele>184.0</ele><time>2026-05-01T15:15:41.243Z</time></trkpt><trkpt lat="45.7575" lon="4.9090233"><ele>183.0</ele><time>2026-05-01T15:15:42.242Z</time></trkpt><trkpt lat="45.758505" lon="4.90922"><ele>181.5</ele><time>2026-05-01T15:15:46.259Z</time></trkpt><trkpt lat="45.7587517" lon="4.9092817"><ele>180.0</ele><time>2026-05-01T15:15:47.259Z</time></trkpt><trkpt lat="45.7589967" lon="4.9093633"><ele>180.0</ele><time>2026-05-01T15:15:48.259Z</time></trkpt><trkpt lat="45.7592667" lon="4.9093683"><ele>180.0</ele><time>2026-05-01T15:15:49.259Z</time></trkpt><trkpt lat="45.759515" lon="4.9094183"><ele>181.5</ele><time>2026-05-01T15:15:50.259Z</time></trkpt><trkpt lat="45.7597683" lon="4.9094517"><ele>183.0</ele><time>2026-05-01T15:15:51.259Z</time></trkpt><trkpt lat="45.76" lon="4.90952"><ele>183.5</ele><time>2026-05-01T15:15:52.259Z</time></trkpt><trkpt lat="45.7602433" lon="4.9095817"><ele>184.0</ele><time>2026-05-01T15:15:53.259Z</time></trkpt><trkpt lat="45.7604717" lon="4.9096533"><ele>184.0</ele><time>2026-05-01T15:15:54.259Z</time></trkpt><trkpt lat="45.76069" lon="4.9097067"><ele>184.0</ele><time>2026-05-01T15:15:55.259Z</time></trkpt><trkpt lat="45.76091" lon="4.9097367"><ele>184.0</ele><time>2026-05-01T15:15:56.259Z</time></trkpt><trkpt lat="45.76111" lon="4.9097733"><ele>183.5</ele><time>2026-05-01T15:15:57.259Z</time></trkpt><trkpt lat="45.7613317" lon="4.90977"><ele>183.0</ele><time>2026-05-01T15:15:58.259Z</time></trkpt><trkpt lat="45.761575" lon="4.909795"><ele>183.0</ele><time>2026-05-01T15:15:59.259Z</time></trkpt><trkpt lat="45.7618" lon="4.909825"><ele>183.0</ele><time>2026-05-01T15:16:00.258Z</time></trkpt><trkpt lat="45.7620183" lon="4.90982"><ele>183.0</ele><time>2026-05-01T15:16:01.259Z</time></trkpt><trkpt lat="45.7622283" lon="4.9097967"><ele>183.33333333333334</ele><time>2026-05-01T15:16:02.258Z</time></trkpt><trkpt lat="45.762445" lon="4.9097483"><ele>183.66666666666669</ele><time>2026-05-01T15:16:03.259Z</time></trkpt><trkpt lat="45.7626633" lon="4.9096633"><ele>184.0</ele><time>2026-05-01T15:16:04.259Z</time></trkpt><trkpt lat="45.7628433" lon="4.9095667"><ele>184.0</ele><time>2026-05-01T15:16:05.259Z</time></trkpt><trkpt lat="45.7630117" lon="4.9094617"><ele>184.0</ele><time>2026-05-01T15:16:06.259Z</time></trkpt><trkpt lat="45.76319" lon="4.9093367"><ele>184.0</ele><time>2026-05-01T15:16:07.259Z</time></trkpt><trkpt lat="45.763365" lon="4.9091833"><ele>184.0</ele><time>2026-05-01T15:16:08.259Z</time></trkpt><trkpt lat="45.7635167" lon="4.90902"><ele>184.0</ele><time>2026-05-01T15:16:09.259Z</time></trkpt><trkpt lat="45.76367" lon="4.908845"><ele>184.0</ele><time>2026-05-01T15:16:10.258Z</time></trkpt><trkpt lat="45.7638283" lon="4.9086683"><ele>183.0</ele><time>2026-05-01T15:16:11.259Z</time></trkpt><trkpt lat="45.76398" lon="4.9085"><ele>182.0</ele><time>2026-05-01T15:16:12.259Z</time></trkpt><trkpt lat="45.7641383" lon="4.9083217"><ele>181.0</ele><time>2026-05-01T15:16:13.259Z</time></trkpt><trkpt lat="45.7642917" lon="4.9081467"><ele>179.66666666666669</ele><time>2026-05-01T15:16:14.259Z</time></trkpt><trkpt lat="45.76448" lon="4.9079317"><ele>178.33333333333334</ele><time>2026-05-01T15:16:15.259Z</time></trkpt><trkpt lat="45.7646533" lon="4.9077683"><ele>177.0</ele><time>2026-05-01T15:16:16.259Z</time></trkpt><trkpt lat="45.7648083" lon="4.90757"><ele>176.66666666666666</ele><time>2026-05-01T15:16:17.258Z</time></trkpt><trkpt lat="45.7649383" lon="4.907405"><ele>176.33333333333331</ele><time>2026-05-01T15:16:18.258Z</time></trkpt><trkpt lat="45.7650617" lon="4.907225"><ele>176.0</ele><time>2026-05-01T15:16:19.259Z</time></trkpt><trkpt lat="45.7651833" lon="4.90707"><ele>177.33333333333331</ele><time>2026-05-01T15:16:20.258Z</time></trkpt><trkpt lat="45.7653067" lon="4.9069417"><ele>178.66666666666666</ele><time>2026-05-01T15:16:21.258Z</time></trkpt><trkpt lat="45.7654483" lon="4.90679"><ele>180.0</ele><time>2026-05-01T15:16:22.259Z</time></trkpt><trkpt lat="45.7655833" lon="4.9066533"><ele>180.0</ele><time>2026-05-01T15:16:23.258Z</time></trkpt><trkpt lat="45.7657383" lon="4.9065033"><ele>180.0</ele><time>2026-05-01T15:16:24.259Z</time></trkpt><trkpt lat="45.76589" lon="4.9063517"><ele>180.0</ele><time>2026-05-01T15:16:25.259Z</time></trkpt><trkpt lat="45.7660583" lon="4.9062033"><ele>180.66666666666666</ele><time>2026-05-01T15:16:26.259Z</time></trkpt><trkpt lat="45.7662333" lon="4.9060467"><ele>181.33333333333331</ele><time>2026-05-01T15:16:27.259Z</time></trkpt><trkpt lat="45.7664283" lon="4.90591"><ele>182.0</ele><time>2026-05-01T15:16:28.258Z</time></trkpt><trkpt lat="45.7666133" lon="4.9057333"><ele>182.66666666666666</ele><time>2026-05-01T15:16:29.259Z</time></trkpt><trkpt lat="45.7668017" lon="4.9055717"><ele>183.33333333333334</ele><time>2026-05-01T15:16:30.258Z</time></trkpt><trkpt lat="45.7669917" lon="4.9054167"><ele>184.0</ele><time>2026-05-01T15:16:31.258Z</time></trkpt><trkpt lat="45.767215" lon="4.9052233"><ele>180.0</ele><time>2026-05-01T15:16:32.259Z</time></trkpt><trkpt lat="45.7674133" lon="4.905055"><ele>176.0</ele><time>2026-05-01T15:16:33.259Z</time></trkpt><trkpt lat="45.76761" lon="4.9048867"><ele>175.5</ele><time>2026-05-01T15:16:34.259Z</time></trkpt><trkpt lat="45.7678117" lon="4.9047267"><ele>175.0</ele><time>2026-05-01T15:16:35.259Z</time></trkpt><trkpt lat="45.7680267" lon="4.90455"><ele>175.0</ele><time>2026-05-01T15:16:36.259Z</time></trkpt><trkpt lat="45.768215" lon="4.9044"><ele>175.0</ele><time>2026-05-01T15:16:37.259Z</time></trkpt><trkpt lat="45.76842" lon="4.9042383"><ele>175.0</ele><time>2026-05-01T15:16:38.259Z</time></trkpt><trkpt lat="45.7686333" lon="4.904065"><ele>174.5</ele><time>2026-05-01T15:16:39.259Z</time></trkpt><trkpt lat="45.7688417" lon="4.9039017"><ele>174.0</ele><time>2026-05-01T15:16:40.258Z</time></trkpt><trkpt lat="45.76905" lon="4.90374"><ele>174.0</ele><time>2026-05-01T15:16:41.258Z</time></trkpt><trkpt lat="45.7692583" lon="4.9035667"><ele>174.0</ele><time>2026-05-01T15:16:42.258Z</time></trkpt><trkpt lat="45.7694667" lon="4.90338"><ele>174.0</ele><time>2026-05-01T15:16:43.258Z</time></trkpt><trkpt lat="45.76968" lon="4.90319"><ele>174.0</ele><time>2026-05-01T15:16:44.259Z</time></trkpt><trkpt lat="45.7699033" lon="4.90298"><ele>174.0</ele><time>2026-05-01T15:16:45.259Z</time></trkpt><trkpt lat="45.7701283" lon="4.9027883"><ele>174.0</ele><time>2026-05-01T15:16:46.258Z</time></trkpt><trkpt lat="45.770365" lon="4.902595"><ele>173.5</ele><time>2026-05-01T15:16:47.259Z</time></trkpt><trkpt lat="45.7705983" lon="4.9023933"><ele>173.0</ele><time>2026-05-01T15:16:48.259Z</time></trkpt><trkpt lat="45.7708417" lon="4.9021833"><ele>173.5</ele><time>2026-05-01T15:16:49.258Z</time></trkpt><trkpt lat="45.771095" lon="4.9019533"><ele>174.0</ele><time>2026-05-01T15:16:50.259Z</time></trkpt><trkpt lat="45.7713433" lon="4.9017267"><ele>174.0</ele><time>2026-05-01T15:16:51.259Z</time></trkpt><trkpt lat="45.7715817" lon="4.9015283"><ele>174.0</ele><time>2026-05-01T15:16:52.259Z</time></trkpt><trkpt lat="45.7718283" lon="4.9013317"><ele>173.5</ele><time>2026-05-01T15:16:53.259Z</time></trkpt><trkpt lat="45.7720717" lon="4.9011417"><ele>173.0</ele><time>2026-05-01T15:16:54.259Z</time></trkpt><trkpt lat="45.7723133" lon="4.900945"><ele>173.0</ele><time>2026-05-01T15:16:55.259Z</time></trkpt><trkpt lat="45.77255" lon="4.9007267"><ele>173.0</ele><time>2026-05-01T15:16:56.259Z</time></trkpt><trkpt lat="45.7727733" lon="4.9005433"><ele>173.0</ele><time>2026-05-01T15:16:57.258Z</time></trkpt><trkpt lat="45.7729917" lon="4.9003833"><ele>173.0</ele><time>2026-05-01T15:16:58.258Z</time></trkpt><trkpt lat="45.7731817" lon="4.90026"><ele>173.0</ele><time>2026-05-01T15:16:59.259Z</time></trkpt><trkpt lat="45.7733733" lon="4.900125"><ele>173.0</ele><time>2026-05-01T15:17:00.259Z</time></trkpt><trkpt lat="45.7735667" lon="4.8999667"><ele>173.0</ele><time>2026-05-01T15:17:01.258Z</time></trkpt><trkpt lat="45.7737583" lon="4.8997967"><ele>173.5</ele><time>2026-05-01T15:17:02.258Z</time></trkpt><trkpt lat="45.7739517" lon="4.8996333"><ele>174.0</ele><time>2026-05-01T15:17:03.259Z</time></trkpt><trkpt lat="45.7741467" lon="4.89947"><ele>174.0</ele><time>2026-05-01T15:17:04.259Z</time></trkpt><trkpt lat="45.7743533" lon="4.8993083"><ele>174.0</ele><time>2026-05-01T15:17:05.258Z</time></trkpt><trkpt lat="45.7745667" lon="4.8991217"><ele>173.5</ele><time>2026-05-01T15:17:06.259Z</time></trkpt><trkpt lat="45.7747767" lon="4.89893"><ele>173.0</ele><time>2026-05-01T15:17:07.258Z</time></trkpt><trkpt lat="45.77499" lon="4.8987533"><ele>173.0</ele><time>2026-05-01T15:17:08.259Z</time></trkpt><trkpt lat="45.775205" lon="4.8985783"><ele>173.0</ele><time>2026-05-01T15:17:09.259Z</time></trkpt><trkpt lat="45.775425" lon="4.8984033"><ele>173.0</ele><time>2026-05-01T15:17:10.259Z</time></trkpt><trkpt lat="45.77563" lon="4.898235"><ele>173.0</ele><time>2026-05-01T15:17:11.259Z</time></trkpt><trkpt lat="45.775845" lon="4.89809"><ele>173.0</ele><time>2026-05-01T15:17:12.259Z</time></trkpt><trkpt lat="45.7760433" lon="4.8979317"><ele>173.0</ele><time>2026-05-01T15:17:13.259Z</time></trkpt><trkpt lat="45.776265" lon="4.8977567"><ele>173.0</ele><time>2026-05-01T15:17:14.259Z</time></trkpt><trkpt lat="45.776475" lon="4.8975717"><ele>173.0</ele><time>2026-05-01T15:17:15.258Z</time></trkpt><trkpt lat="45.7766933" lon="4.897375"><ele>173.0</ele><time>2026-05-01T15:17:16.259Z</time></trkpt><trkpt lat="45.77691" lon="4.8971983"><ele>173.0</ele><time>2026-05-01T15:17:17.259Z</time></trkpt><trkpt lat="45.777125" lon="4.8970183"><ele>173.0</ele><time>2026-05-01T15:17:18.259Z</time></trkpt><trkpt lat="45.77733" lon="4.89686"><ele>173.0</ele><time>2026-05-01T15:17:19.259Z</time></trkpt><trkpt lat="45.7775283" lon="4.8967183"><ele>172.5</ele><time>2026-05-01T15:17:20.259Z</time></trkpt><trkpt lat="45.7777217" lon="4.8965533"><ele>172.0</ele><time>2026-05-01T15:17:21.258Z</time></trkpt><trkpt lat="45.7779167" lon="4.8963883"><ele>172.0</ele><time>2026-05-01T15:17:22.258Z</time></trkpt><trkpt lat="45.77811" lon="4.8962117"><ele>172.0</ele><time>2026-05-01T15:17:23.259Z</time></trkpt><trkpt lat="45.7783083" lon="4.8960517"><ele>172.0</ele><time>2026-05-01T15:17:24.258Z</time></trkpt><trkpt lat="45.7785067" lon="4.8958917"><ele>172.0</ele><time>2026-05-01T15:17:25.259Z</time></trkpt><trkpt lat="45.7787" lon="4.8957333"><ele>172.0</ele><time>2026-05-01T15:17:26.259Z</time></trkpt><trkpt lat="45.7789033" lon="4.89557"><ele>172.0</ele><time>2026-05-01T15:17:27.259Z</time></trkpt><trkpt lat="45.7791" lon="4.89541"><ele>172.0</ele><time>2026-05-01T15:17:28.259Z</time></trkpt><trkpt lat="45.7792867" lon="4.8952533"><ele>172.0</ele><time>2026-05-01T15:17:29.259Z</time></trkpt><trkpt lat="45.779465" lon="4.89508"><ele>172.0</ele><time>2026-05-01T15:17:30.259Z</time></trkpt><trkpt lat="45.77965" lon="4.8949233"><ele>172.0</ele><time>2026-05-01T15:17:31.258Z</time></trkpt><trkpt lat="45.779825" lon="4.8947767"><ele>172.0</ele><time>2026-05-01T15:17:32.258Z</time></trkpt><trkpt lat="45.7800167" lon="4.89462"><ele>172.0</ele><time>2026-05-01T15:17:33.258Z</time></trkpt><trkpt lat="45.7802017" lon="4.8944783"><ele>172.0</ele><time>2026-05-01T15:17:34.258Z</time></trkpt><trkpt lat="45.78039" lon="4.8943267"><ele>172.0</ele><time>2026-05-01T15:17:35.259Z</time></trkpt><trkpt lat="45.7805867" lon="4.8941783"><ele>172.0</ele><time>2026-05-01T15:17:36.259Z</time></trkpt><trkpt lat="45.7807867" lon="4.8940133"><ele>172.0</ele><time>2026-05-01T15:17:37.259Z</time></trkpt><trkpt lat="45.7809967" lon="4.893865"><ele>172.0</ele><time>2026-05-01T15:17:38.259Z</time></trkpt><trkpt lat="45.7812083" lon="4.893695"><ele>171.5</ele><time>2026-05-01T15:17:39.258Z</time></trkpt><trkpt lat="45.7814317" lon="4.8935217"><ele>171.0</ele><time>2026-05-01T15:17:40.259Z</time></trkpt><trkpt lat="45.7816567" lon="4.8933283"><ele>172.0</ele><time>2026-05-01T15:17:41.259Z</time></trkpt><trkpt lat="45.7818767" lon="4.8931183"><ele>173.0</ele><time>2026-05-01T15:17:42.259Z</time></trkpt><trkpt lat="45.7821233" lon="4.8928983"><ele>173.0</ele><time>2026-05-01T15:17:43.258Z</time></trkpt><trkpt lat="45.78236" lon="4.8927083"><ele>173.0</ele><time>2026-05-01T15:17:44.258Z</time></trkpt><trkpt lat="45.7825917" lon="4.892515"><ele>173.0</ele><time>2026-05-01T15:17:45.259Z</time></trkpt><trkpt lat="45.78282" lon="4.892335"><ele>173.0</ele><time>2026-05-01T15:17:46.258Z</time></trkpt><trkpt lat="45.7830367" lon="4.8921683"><ele>173.0</ele><time>2026-05-01T15:17:47.259Z</time></trkpt><trkpt lat="45.7832567" lon="4.8919917"><ele>173.0</ele><time>2026-05-01T15:17:48.259Z</time></trkpt><trkpt lat="45.7834733" lon="4.8918283"><ele>173.0</ele><time>2026-05-01T15:17:49.259Z</time></trkpt><trkpt lat="45.783685" lon="4.8916717"><ele>173.0</ele><time>2026-05-01T15:17:50.259Z</time></trkpt><trkpt lat="45.7838817" lon="4.8915217"><ele>173.0</ele><time>2026-05-01T15:17:51.258Z</time></trkpt><trkpt lat="45.784075" lon="4.8913933"><ele>173.0</ele><time>2026-05-01T15:17:52.258Z</time></trkpt><trkpt lat="45.7842567" lon="4.8912283"><ele>173.0</ele><time>2026-05-01T15:17:53.258Z</time></trkpt><trkpt lat="45.7844483" lon="4.89105"><ele>173.0</ele><time>2026-05-01T15:17:54.259Z</time></trkpt><trkpt lat="45.7846317" lon="4.8908667"><ele>173.0</ele><time>2026-05-01T15:17:55.258Z</time></trkpt><trkpt lat="45.784825" lon="4.8906667"><ele>173.0</ele><time>2026-05-01T15:17:56.259Z</time></trkpt><trkpt lat="45.7850033" lon="4.89046"><ele>173.0</ele><time>2026-05-01T15:17:57.258Z</time></trkpt><trkpt lat="45.785195" lon="4.8902567"><ele>174.0</ele><time>2026-05-01T15:17:58.259Z</time></trkpt><trkpt lat="45.7853833" lon="4.8900517"><ele>175.0</ele><time>2026-05-01T15:17:59.259Z</time></trkpt><trkpt lat="45.78557" lon="4.8898517"><ele>175.0</ele><time>2026-05-01T15:18:00.258Z</time></trkpt><trkpt lat="45.7857667" lon="4.889635"><ele>175.0</ele><time>2026-05-01T15:18:01.259Z</time></trkpt><trkpt lat="45.785955" lon="4.8894183"><ele>174.0</ele><time>2026-05-01T15:18:02.258Z</time></trkpt><trkpt lat="45.7861333" lon="4.8892167"><ele>173.0</ele><time>2026-05-01T15:18:03.259Z</time></trkpt><trkpt lat="45.7863217" lon="4.888995"><ele>173.0</ele><time>2026-05-01T15:18:04.258Z</time></trkpt><trkpt lat="45.7865133" lon="4.88879"><ele>173.0</ele><time>2026-05-01T15:18:05.259Z</time></trkpt><trkpt lat="45.7866967" lon="4.8885883"><ele>173.66666666666666</ele><time>2026-05-01T15:18:06.259Z</time></trkpt><trkpt lat="45.7868717" lon="4.8883883"><ele>174.33333333333334</ele><time>2026-05-01T15:18:07.259Z</time></trkpt><trkpt lat="45.7870467" lon="4.8882067"><ele>175.0</ele><time>2026-05-01T15:18:08.259Z</time></trkpt><trkpt lat="45.787215" lon="4.888015"><ele>175.0</ele><time>2026-05-01T15:18:09.259Z</time></trkpt><trkpt lat="45.7873917" lon="4.8878233"><ele>175.0</ele><time>2026-05-01T15:18:10.259Z</time></trkpt><trkpt lat="45.78756" lon="4.887625"><ele>175.0</ele><time>2026-05-01T15:18:11.259Z</time></trkpt><trkpt lat="45.7877117" lon="4.887425"><ele>173.33333333333334</ele><time>2026-05-01T15:18:12.259Z</time></trkpt><trkpt lat="45.78785" lon="4.8872783"><ele>171.66666666666666</ele><time>2026-05-01T15:18:13.258Z</time></trkpt><trkpt lat="45.78798" lon="4.8871483"><ele>170.0</ele><time>2026-05-01T15:18:14.258Z</time></trkpt><trkpt lat="45.7881167" lon="4.88701"><ele>170.0</ele><time>2026-05-01T15:18:15.259Z</time></trkpt><trkpt lat="45.7882567" lon="4.8868533"><ele>170.0</ele><time>2026-05-01T15:18:16.259Z</time></trkpt><trkpt lat="45.7884" lon="4.8866833"><ele>170.0</ele><time>2026-05-01T15:18:17.259Z</time></trkpt><trkpt lat="45.7885467" lon="4.886485"><ele>170.0</ele><time>2026-05-01T15:18:18.259Z</time></trkpt><trkpt lat="45.7886983" lon="4.8863083"><ele>170.0</ele><time>2026-05-01T15:18:19.259Z</time></trkpt><trkpt lat="45.7888517" lon="4.8861233"><ele>170.0</ele><time>2026-05-01T15:18:20.259Z</time></trkpt><trkpt lat="45.7890117" lon="4.88594"><ele>170.66666666666666</ele><time>2026-05-01T15:18:21.258Z</time></trkpt><trkpt lat="45.7891767" lon="4.8857533"><ele>171.33333333333334</ele><time>2026-05-01T15:18:22.258Z</time></trkpt><trkpt lat="45.7893383" lon="4.8855667"><ele>172.0</ele><time>2026-05-01T15:18:23.258Z</time></trkpt><trkpt lat="45.7894883" lon="4.8854033"><ele>172.0</ele><time>2026-05-01T15:18:24.259Z</time></trkpt><trkpt lat="45.7896417" lon="4.88523"><ele>172.0</ele><time>2026-05-01T15:18:25.258Z</time></trkpt><trkpt lat="45.7897917" lon="4.8850717"><ele>172.0</ele><time>2026-05-01T15:18:26.259Z</time></trkpt><trkpt lat="45.789935" lon="4.8849083"><ele>172.33333333333334</ele><time>2026-05-01T15:18:27.259Z</time></trkpt><trkpt lat="45.7900833" lon="4.884755"><ele>172.66666666666666</ele><time>2026-05-01T15:18:28.259Z</time></trkpt><trkpt lat="45.790225" lon="4.88462"><ele>173.0</ele><time>2026-05-01T15:18:29.259Z</time></trkpt><trkpt lat="45.7903667" lon="4.8844717"><ele>172.66666666666666</ele><time>2026-05-01T15:18:30.259Z</time></trkpt><trkpt lat="45.7905167" lon="4.8843167"><ele>172.33333333333334</ele><time>2026-05-01T15:18:31.259Z</time></trkpt><trkpt lat="45.7906717" lon="4.8841467"><ele>172.0</ele><time>2026-05-01T15:18:32.259Z</time></trkpt><trkpt lat="45.79084" lon="4.8839533"><ele>172.0</ele><time>2026-05-01T15:18:33.259Z</time></trkpt><trkpt lat="45.7910033" lon="4.883745"><ele>172.0</ele><time>2026-05-01T15:18:34.259Z</time></trkpt><trkpt lat="45.791155" lon="4.8835467"><ele>172.0</ele><time>2026-05-01T15:18:35.258Z</time></trkpt><trkpt lat="45.791325" lon="4.883305"><ele>172.33333333333334</ele><time>2026-05-01T15:18:36.259Z</time></trkpt><trkpt lat="45.79148" lon="4.883095"><ele>172.66666666666666</ele><time>2026-05-01T15:18:37.259Z</time></trkpt><trkpt lat="45.791625" lon="4.8829"><ele>173.0</ele><time>2026-05-01T15:18:38.259Z</time></trkpt><trkpt lat="45.7917667" lon="4.882705"><ele>171.66666666666666</ele><time>2026-05-01T15:18:39.259Z</time></trkpt><trkpt lat="45.7919067" lon="4.8825067"><ele>170.33333333333334</ele><time>2026-05-01T15:18:40.259Z</time></trkpt><trkpt lat="45.792055" lon="4.88229"><ele>169.0</ele><time>2026-05-01T15:18:41.259Z</time></trkpt><trkpt lat="45.7921867" lon="4.8820817"><ele>169.0</ele><time>2026-05-01T15:18:42.259Z</time></trkpt><trkpt lat="45.7923167" lon="4.8818667"><ele>169.0</ele><time>2026-05-01T15:18:43.259Z</time></trkpt><trkpt lat="45.7924417" lon="4.8816533"><ele>169.0</ele><time>2026-05-01T15:18:44.259Z</time></trkpt><trkpt lat="45.7925717" lon="4.881445"><ele>168.66666666666669</ele><time>2026-05-01T15:18:45.259Z</time></trkpt><trkpt lat="45.7927" lon="4.88122"><ele>168.33333333333334</ele><time>2026-05-01T15:18:46.258Z</time></trkpt><trkpt lat="45.7928217" lon="4.8809917"><ele>168.0</ele><time>2026-05-01T15:18:47.259Z</time></trkpt><trkpt lat="45.792945" lon="4.8807767"><ele>167.66666666666666</ele><time>2026-05-01T15:18:48.258Z</time></trkpt><trkpt lat="45.7930583" lon="4.8805517"><ele>167.33333333333331</ele><time>2026-05-01T15:18:49.259Z</time></trkpt><trkpt lat="45.793165" lon="4.8803233"><ele>167.0</ele><time>2026-05-01T15:18:50.258Z</time></trkpt><trkpt lat="45.793255" lon="4.880075"><ele>167.0</ele><time>2026-05-01T15:18:51.259Z</time></trkpt><trkpt lat="45.7933383" lon="4.8798267"><ele>167.0</ele><time>2026-05-01T15:18:52.259Z</time></trkpt><trkpt lat="45.7934167" lon="4.8795783"><ele>167.0</ele><time>2026-05-01T15:18:53.259Z</time></trkpt><trkpt lat="45.7934817" lon="4.879325"><ele>167.0</ele><time>2026-05-01T15:18:54.259Z</time></trkpt><trkpt lat="45.7935417" lon="4.8790733"><ele>167.0</ele><time>2026-05-01T15:18:55.258Z</time></trkpt><trkpt lat="45.7936" lon="4.87883"><ele>167.0</ele><time>2026-05-01T15:18:56.258Z</time></trkpt><trkpt lat="45.793635" lon="4.8785533"><ele>167.0</ele><time>2026-05-01T15:18:57.258Z</time></trkpt><trkpt lat="45.7936717" lon="4.8783017"><ele>167.0</ele><time>2026-05-01T15:18:58.259Z</time></trkpt><trkpt lat="45.7936983" lon="4.8780317"><ele>167.0</ele><time>2026-05-01T15:18:59.259Z</time></trkpt><trkpt lat="45.7937167" lon="4.8777617"><ele>167.0</ele><time>2026-05-01T15:19:00.259Z</time></trkpt><trkpt lat="45.7937267" lon="4.8774967"><ele>167.0</ele><time>2026-05-01T15:19:01.259Z</time></trkpt><trkpt lat="45.7937283" lon="4.8772233"><ele>167.0</ele><time>2026-05-01T15:19:02.259Z</time></trkpt><trkpt lat="45.7937333" lon="4.87698"><ele>167.25</ele><time>2026-05-01T15:19:03.259Z</time></trkpt><trkpt lat="45.79373" lon="4.876765"><ele>167.5</ele><time>2026-05-01T15:19:04.259Z</time></trkpt><trkpt lat="45.7937133" lon="4.8765633"><ele>167.75</ele><time>2026-05-01T15:19:05.259Z</time></trkpt><trkpt lat="45.7936883" lon="4.8763633"><ele>168.0</ele><time>2026-05-01T15:19:06.258Z</time></trkpt><trkpt lat="45.7936583" lon="4.8761583"><ele>168.0</ele><time>2026-05-01T15:19:07.259Z</time></trkpt><trkpt lat="45.7936267" lon="4.875955"><ele>168.0</ele><time>2026-05-01T15:19:08.259Z</time></trkpt><trkpt lat="45.793585" lon="4.8757683"><ele>168.0</ele><time>2026-05-01T15:19:09.259Z</time></trkpt><trkpt lat="45.7935417" lon="4.8755783"><ele>168.0</ele><time>2026-05-01T15:19:10.258Z</time></trkpt><trkpt lat="45.7934917" lon="4.8754033"><ele>168.0</ele><time>2026-05-01T15:19:11.259Z</time></trkpt><trkpt lat="45.793445" lon="4.8752"><ele>168.0</ele><time>2026-05-01T15:19:12.259Z</time></trkpt><trkpt lat="45.793395" lon="4.8749767"><ele>168.0</ele><time>2026-05-01T15:19:13.258Z</time></trkpt><trkpt lat="45.7933433" lon="4.8747317"><ele>169.33333333333334</ele><time>2026-05-01T15:19:14.259Z</time></trkpt><trkpt lat="45.7932683" lon="4.8744983"><ele>170.66666666666669</ele><time>2026-05-01T15:19:15.259Z</time></trkpt><trkpt lat="45.7932117" lon="4.87427"><ele>172.0</ele><time>2026-05-01T15:19:16.259Z</time></trkpt><trkpt lat="45.7931367" lon="4.8740533"><ele>173.0</ele><time>2026-05-01T15:19:17.259Z</time></trkpt><trkpt lat="45.7930833" lon="4.8738567"><ele>174.0</ele><time>2026-05-01T15:19:18.259Z</time></trkpt><trkpt lat="45.7930017" lon="4.87363"><ele>175.0</ele><time>2026-05-01T15:19:19.258Z</time></trkpt><trkpt lat="45.7929117" lon="4.87339"><ele>175.0</ele><time>2026-05-01T15:19:20.258Z</time></trkpt><trkpt lat="45.7928183" lon="4.8731483"><ele>175.0</ele><time>2026-05-01T15:19:21.259Z</time></trkpt><trkpt lat="45.7927433" lon="4.8729183"><ele>175.0</ele><time>2026-05-01T15:19:22.259Z</time></trkpt><trkpt lat="45.79267" lon="4.872685"><ele>176.0</ele><time>2026-05-01T15:19:23.259Z</time></trkpt><trkpt lat="45.7926133" lon="4.8724633"><ele>177.0</ele><time>2026-05-01T15:19:24.258Z</time></trkpt><trkpt lat="45.7925683" lon="4.8722517"><ele>178.0</ele><time>2026-05-01T15:19:25.258Z</time></trkpt><trkpt lat="45.79251" lon="4.8720533"><ele>178.0</ele><time>2026-05-01T15:19:26.258Z</time></trkpt><trkpt lat="45.7924533" lon="4.87185"><ele>178.0</ele><time>2026-05-01T15:19:27.259Z</time></trkpt><trkpt lat="45.7924033" lon="4.87163"><ele>178.0</ele><time>2026-05-01T15:19:28.258Z</time></trkpt><trkpt lat="45.7923283" lon="4.8714317"><ele>177.66666666666669</ele><time>2026-05-01T15:19:29.259Z</time></trkpt><trkpt lat="45.792225" lon="4.871255"><ele>177.33333333333334</ele><time>2026-05-01T15:19:30.259Z</time></trkpt><trkpt lat="45.7921383" lon="4.8710767"><ele>177.0</ele><time>2026-05-01T15:19:31.259Z</time></trkpt><trkpt lat="45.79206" lon="4.8708867"><ele>177.66666666666666</ele><time>2026-05-01T15:19:32.259Z</time></trkpt><trkpt lat="45.791975" lon="4.8707167"><ele>178.33333333333331</ele><time>2026-05-01T15:19:33.259Z</time></trkpt><trkpt lat="45.7918883" lon="4.870535"><ele>179.0</ele><time>2026-05-01T15:19:34.259Z</time></trkpt><trkpt lat="45.7917917" lon="4.870335"><ele>177.66666666666666</ele><time>2026-05-01T15:19:35.259Z</time></trkpt><trkpt lat="45.7917017" lon="4.8701283"><ele>176.33333333333334</ele><time>2026-05-01T15:19:36.259Z</time></trkpt><trkpt lat="45.79162" lon="4.8699233"><ele>175.0</ele><time>2026-05-01T15:19:37.258Z</time></trkpt><trkpt lat="45.7915333" lon="4.8697283"><ele>175.0</ele><time>2026-05-01T15:19:38.258Z</time></trkpt><trkpt lat="45.791495" lon="4.8695483"><ele>175.0</ele><time>2026-05-01T15:19:39.258Z</time></trkpt><trkpt lat="45.79141" lon="4.86936"><ele>175.0</ele><time>2026-05-01T15:19:40.259Z</time></trkpt><trkpt lat="45.7913333" lon="4.8692233"><ele>175.0</ele><time>2026-05-01T15:19:41.259Z</time></trkpt><trkpt lat="45.7912633" lon="4.8690433"><ele>175.25</ele><time>2026-05-01T15:19:42.258Z</time></trkpt><trkpt lat="45.7911817" lon="4.8689067"><ele>175.5</ele><time>2026-05-01T15:19:43.258Z</time></trkpt><trkpt lat="45.7911283" lon="4.86871"><ele>175.75</ele><time>2026-05-01T15:19:44.258Z</time></trkpt><trkpt lat="45.7910733" lon="4.8685167"><ele>176.0</ele><time>2026-05-01T15:19:45.259Z</time></trkpt><trkpt lat="45.7910067" lon="4.86832"><ele>174.66666666666666</ele><time>2026-05-01T15:19:46.258Z</time></trkpt><trkpt lat="45.790885" lon="4.868145"><ele>173.33333333333334</ele><time>2026-05-01T15:19:47.259Z</time></trkpt><trkpt lat="45.790775" lon="4.867955"><ele>172.0</ele><time>2026-05-01T15:19:48.259Z</time></trkpt><trkpt lat="45.790695" lon="4.86774"><ele>172.33333333333334</ele><time>2026-05-01T15:19:49.258Z</time></trkpt><trkpt lat="45.79064" lon="4.86747"><ele>172.66666666666666</ele><time>2026-05-01T15:19:50.259Z</time></trkpt><trkpt lat="45.7905617" lon="4.8672367"><ele>173.0</ele><time>2026-05-01T15:19:51.259Z</time></trkpt><trkpt lat="45.7904633" lon="4.8669917"><ele>173.33333333333331</ele><time>2026-05-01T15:19:52.259Z</time></trkpt><trkpt lat="45.79038" lon="4.8667717"><ele>173.66666666666666</ele><time>2026-05-01T15:19:53.259Z</time></trkpt><trkpt lat="45.7902817" lon="4.8665367"><ele>174.0</ele><time>2026-05-01T15:19:54.259Z</time></trkpt><trkpt lat="45.7902033" lon="4.8663067"><ele>173.0</ele><time>2026-05-01T15:19:55.259Z</time></trkpt><trkpt lat="45.7901267" lon="4.8660783"><ele>172.0</ele><time>2026-05-01T15:19:56.259Z</time></trkpt><trkpt lat="45.7900367" lon="4.8658533"><ele>171.0</ele><time>2026-05-01T15:19:57.259Z</time></trkpt><trkpt lat="45.78997" lon="4.8656517"><ele>171.0</ele><time>2026-05-01T15:19:58.259Z</time></trkpt><trkpt lat="45.7898933" lon="4.8654367"><ele>171.0</ele><time>2026-05-01T15:19:59.259Z</time></trkpt><trkpt lat="45.78982" lon="4.8652033"><ele>171.0</ele><time>2026-05-01T15:20:00.258Z</time></trkpt><trkpt lat="45.78975" lon="4.8649867"><ele>171.25</ele><time>2026-05-01T15:20:01.259Z</time></trkpt><trkpt lat="45.7896617" lon="4.8648"><ele>171.5</ele><time>2026-05-01T15:20:02.259Z</time></trkpt><trkpt lat="45.7896" lon="4.86462"><ele>171.75</ele><time>2026-05-01T15:20:03.259Z</time></trkpt><trkpt lat="45.7895483" lon="4.8644467"><ele>172.0</ele><time>2026-05-01T15:20:04.258Z</time></trkpt><trkpt lat="45.7894883" lon="4.8642567"><ele>172.0</ele><time>2026-05-01T15:20:05.259Z</time></trkpt><trkpt lat="45.7894517" lon="4.8640633"><ele>172.0</ele><time>2026-05-01T15:20:06.259Z</time></trkpt><trkpt lat="45.78941" lon="4.8638683"><ele>172.0</ele><time>2026-05-01T15:20:07.259Z</time></trkpt><trkpt lat="45.789365" lon="4.8636967"><ele>172.0</ele><time>2026-05-01T15:20:08.259Z</time></trkpt><trkpt lat="45.7892883" lon="4.863515"><ele>171.5</ele><time>2026-05-01T15:20:09.259Z</time></trkpt><trkpt lat="45.7892217" lon="4.863325"><ele>171.0</ele><time>2026-05-01T15:20:10.259Z</time></trkpt><trkpt lat="45.789155" lon="4.863135"><ele>170.5</ele><time>2026-05-01T15:20:11.259Z</time></trkpt><trkpt lat="45.7890867" lon="4.862955"><ele>170.0</ele><time>2026-05-01T15:20:12.258Z</time></trkpt><trkpt lat="45.7890217" lon="4.8627617"><ele>170.4</ele><time>2026-05-01T15:20:13.259Z</time></trkpt><trkpt lat="45.7889783" lon="4.8625967"><ele>170.8</ele><time>2026-05-01T15:20:14.259Z</time></trkpt><trkpt lat="45.7889583" lon="4.8624633"><ele>171.2</ele><time>2026-05-01T15:20:15.259Z</time></trkpt><trkpt lat="45.788935" lon="4.8623267"><ele>171.6</ele><time>2026-05-01T15:20:16.258Z</time></trkpt><trkpt lat="45.7889117" lon="4.8622017"><ele>172.0</ele><time>2026-05-01T15:20:17.259Z</time></trkpt><trkpt lat="45.7888917" lon="4.8620667"><ele>172.0</ele><time>2026-05-01T15:20:18.258Z</time></trkpt><trkpt lat="45.78887" lon="4.8619383"><ele>172.0</ele><time>2026-05-01T15:20:19.259Z</time></trkpt><trkpt lat="45.7888533" lon="4.8618017"><ele>172.0</ele><time>2026-05-01T15:20:20.258Z</time></trkpt><trkpt lat="45.7888183" lon="4.8616767"><ele>172.0</ele><time>2026-05-01T15:20:21.259Z</time></trkpt><trkpt lat="45.7887883" lon="4.8615633"><ele>172.0</ele><time>2026-05-01T15:20:22.259Z</time></trkpt><trkpt lat="45.78877" lon="4.8614467"><ele>172.6</ele><time>2026-05-01T15:20:23.258Z</time></trkpt><trkpt lat="45.7887517" lon="4.8613417"><ele>173.2</ele><time>2026-05-01T15:20:24.258Z</time></trkpt><trkpt lat="45.7887333" lon="4.8611683"><ele>173.8</ele><time>2026-05-01T15:20:26.258Z</time></trkpt><trkpt lat="45.7887533" lon="4.86105"><ele>174.4</ele><time>2026-05-01T15:20:28.259Z</time></trkpt><trkpt lat="45.7888067" lon="4.8609383"><ele>175.0</ele><time>2026-05-01T15:20:30.258Z</time></trkpt><trkpt lat="45.7888967" lon="4.860835"><ele>175.8</ele><time>2026-05-01T15:20:32.259Z</time></trkpt><trkpt lat="45.7890267" lon="4.8607933"><ele>176.6</ele><time>2026-05-01T15:20:34.259Z</time></trkpt><trkpt lat="45.7891117" lon="4.86078"><ele>177.39999999999998</ele><time>2026-05-01T15:20:35.259Z</time></trkpt><trkpt lat="45.7892083" lon="4.8607733"><ele>178.2</ele><time>2026-05-01T15:20:36.259Z</time></trkpt><trkpt lat="45.7893133" lon="4.8607567"><ele>179.0</ele><time>2026-05-01T15:20:37.259Z</time></trkpt><trkpt lat="45.7894333" lon="4.8607417"><ele>179.0</ele><time>2026-05-01T15:20:38.258Z</time></trkpt><trkpt lat="45.78956" lon="4.86073"><ele>179.0</ele><time>2026-05-01T15:20:39.258Z</time></trkpt><trkpt lat="45.7896767" lon="4.860725"><ele>179.0</ele><time>2026-05-01T15:20:40.259Z</time></trkpt><trkpt lat="45.7898017" lon="4.860705"><ele>179.0</ele><time>2026-05-01T15:20:41.259Z</time></trkpt><trkpt lat="45.7899233" lon="4.860695"><ele>179.0</ele><time>2026-05-01T15:20:42.259Z</time></trkpt><trkpt lat="45.7900367" lon="4.860695"><ele>179.0</ele><time>2026-05-01T15:20:43.258Z</time></trkpt><trkpt lat="45.79015" lon="4.8606917"><ele>179.0</ele><time>2026-05-01T15:20:44.259Z</time></trkpt><trkpt lat="45.7902517" lon="4.8606933"><ele>179.0</ele><time>2026-05-01T15:20:45.258Z</time></trkpt><trkpt lat="45.7903333" lon="4.8606933"><ele>179.0</ele><time>2026-05-01T15:20:46.259Z</time></trkpt><trkpt lat="45.7904033" lon="4.8606933"><ele>179.33333333333331</ele><time>2026-05-01T15:20:47.259Z</time></trkpt><trkpt lat="45.7905133" lon="4.86072"><ele>179.66666666666666</ele><time>2026-05-01T15:20:49.259Z</time></trkpt><trkpt lat="45.7905767" lon="4.8607233"><ele>180.0</ele><time>2026-05-01T15:20:51.259Z</time></trkpt><trkpt lat="45.79067" lon="4.86073"><ele>180.33333333333334</ele><time>2026-05-01T15:21:21.259Z</time></trkpt><trkpt lat="45.79076" lon="4.8607283"><ele>180.66666666666669</ele><time>2026-05-01T15:21:29.258Z</time></trkpt><trkpt lat="45.7908367" lon="4.8607317"><ele>181.0</ele><time>2026-05-01T15:21:31.259Z</time></trkpt><trkpt lat="45.7909467" lon="4.8607567"><ele>181.66666666666669</ele><time>2026-05-01T15:21:33.258Z</time></trkpt><trkpt lat="45.7910333" lon="4.86077"><ele>182.33333333333334</ele><time>2026-05-01T15:21:35.257Z</time></trkpt><trkpt lat="45.791125" lon="4.8607883"><ele>183.0</ele><time>2026-05-01T15:21:37.258Z</time></trkpt><trkpt lat="45.791205" lon="4.860775"><ele>183.66666666666666</ele><time>2026-05-01T15:21:39.258Z</time></trkpt><trkpt lat="45.7912583" lon="4.8607217"><ele>184.33333333333331</ele><time>2026-05-01T15:21:41.258Z</time></trkpt><trkpt lat="45.7913117" lon="4.8606"><ele>185.0</ele><time>2026-05-01T15:21:43.258Z</time></trkpt><trkpt lat="45.7913383" lon="4.8604917"><ele>185.0</ele><time>2026-05-01T15:21:45.257Z</time></trkpt><trkpt lat="45.7913283" lon="4.8603833"><ele>185.0</ele><time>2026-05-01T15:21:48.258Z</time></trkpt><trkpt lat="45.7913183" lon="4.8602917"><ele>185.0</ele><time>2026-05-01T15:21:59.258Z</time></trkpt><trkpt lat="45.7912667" lon="4.8602183"><ele>185.0</ele><time>2026-05-01T15:22:00.258Z</time></trkpt><trkpt lat="45.7912233" lon="4.86012"><ele>185.0</ele><time>2026-05-01T15:22:07.258Z</time></trkpt><trkpt lat="45.7911917" lon="4.8600167"><ele>185.0</ele><time>2026-05-01T15:22:09.258Z</time></trkpt><trkpt lat="45.791165" lon="4.859885"><ele>185.16666666666666</ele><time>2026-05-01T15:22:12.258Z</time></trkpt><trkpt lat="45.7911583" lon="4.859795"><ele>185.33333333333331</ele><time>2026-05-01T15:22:15.258Z</time></trkpt><trkpt lat="45.7911083" lon="4.859655"><ele>185.5</ele><time>2026-05-01T15:22:36.257Z</time></trkpt><trkpt lat="45.79105" lon="4.8596967"><ele>185.66666666666666</ele><time>2026-05-01T15:23:09.258Z</time></trkpt><trkpt lat="45.791015" lon="4.8598233"><ele>185.83333333333334</ele><time>2026-05-01T15:23:46.258Z</time></trkpt><trkpt lat="45.790955" lon="4.8598667"><ele>186.0</ele><time>2026-05-01T15:24:46.258Z</time></trkpt><trkpt lat="45.7908867" lon="4.85985"><ele>188.0</ele><time>2026-05-01T15:25:20.258Z</time></trkpt><trkpt lat="45.7909017" lon="4.8591217"><ele>188.0</ele><time>2026-05-01T15:39:47.264Z</time></trkpt><trkpt lat="45.7908467" lon="4.8589917"><ele>188.0</ele><time>2026-05-01T15:39:50.265Z</time></trkpt><trkpt lat="45.79078" lon="4.859015"><ele>188.0</ele><time>2026-05-01T15:40:38.264Z</time></trkpt><trkpt lat="45.7908067" lon="4.8589133"><ele>188.0</ele><time>2026-05-01T15:41:16.265Z</time></trkpt><trkpt lat="45.7907433" lon="4.8587867"><ele>188.0</ele><time>2026-05-01T15:41:57.264Z</time></trkpt><trkpt lat="45.7907917" lon="4.8589167"><ele>188.0</ele><time>2026-05-01T15:42:26.265Z</time></trkpt><trkpt lat="45.7907567" lon="4.85881"><ele>188.0</ele><time>2026-05-01T15:43:43.265Z</time></trkpt><trkpt lat="45.7908583" lon="4.8587767"><ele>188.0</ele><time>2026-05-01T15:44:36.264Z</time></trkpt><trkpt lat="45.7908833" lon="4.8589217"><ele>188.0</ele><time>2026-05-01T15:45:06.265Z</time></trkpt><trkpt lat="45.7909" lon="4.859025"><ele>188.0</ele><time>2026-05-01T15:46:00.265Z</time></trkpt><trkpt lat="45.7909733" lon="4.859145"><ele>188.0</ele><time>2026-05-01T15:47:37.265Z</time></trkpt><trkpt lat="45.7909" lon="4.8590933"><ele>188.0</ele><time>2026-05-01T15:48:09.264Z</time></trkpt><trkpt lat="45.7908383" lon="4.8590133"><ele>188.0</ele><time>2026-05-01T15:48:20.265Z</time></trkpt><trkpt lat="45.7909083" lon="4.85906"><ele>188.0</ele><time>2026-05-01T15:49:13.265Z</time></trkpt><trkpt lat="45.790955" lon="4.859145"><ele>188.0</ele><time>2026-05-01T15:49:17.265Z</time></trkpt><trkpt lat="45.7909983" lon="4.8592267"><ele>188.0</ele><time>2026-05-01T15:49:20.265Z</time></trkpt><trkpt lat="45.791035" lon="4.8593083"><ele>187.60000000000002</ele><time>2026-05-01T15:49:22.264Z</time></trkpt><trkpt lat="45.7910883" lon="4.8594033"><ele>187.20000000000002</ele><time>2026-05-01T15:49:24.264Z</time></trkpt><trkpt lat="45.7911517" lon="4.8595283"><ele>186.8</ele><time>2026-05-01T15:49:26.264Z</time></trkpt><trkpt lat="45.791205" lon="4.85964"><ele>186.4</ele><time>2026-05-01T15:49:28.265Z</time></trkpt><trkpt lat="45.79125" lon="4.85975"><ele>186.0</ele><time>2026-05-01T15:49:30.265Z</time></trkpt><trkpt lat="45.7912917" lon="4.859845"><ele>186.0</ele><time>2026-05-01T15:49:32.264Z</time></trkpt><trkpt lat="45.791225" lon="4.8596833"><ele>186.0</ele><time>2026-05-01T15:49:34.265Z</time></trkpt><trkpt lat="45.7911767" lon="4.8595717"><ele>186.0</ele><time>2026-05-01T15:49:35.265Z</time></trkpt><trkpt lat="45.791235" lon="4.85962"><ele>186.0</ele><time>2026-05-01T15:49:36.265Z</time></trkpt><trkpt lat="45.791295" lon="4.8596767"><ele>186.0</ele><time>2026-05-01T15:49:38.265Z</time></trkpt><trkpt lat="45.7912567" lon="4.8595783"><ele>186.0</ele><time>2026-05-01T15:49:40.265Z</time></trkpt><trkpt lat="45.7911833" lon="4.8595767"><ele>186.0</ele><time>2026-05-01T15:49:44.265Z</time></trkpt><trkpt lat="45.7910433" lon="4.8594217"><ele>186.0</ele><time>2026-05-01T15:50:02.265Z</time></trkpt><trkpt lat="45.7909567" lon="4.8593083"><ele>186.0</ele><time>2026-05-01T15:50:05.265Z</time></trkpt><trkpt lat="45.7910317" lon="4.8594817"><ele>186.0</ele><time>2026-05-01T15:50:30.265Z</time></trkpt><trkpt lat="45.79101" lon="4.8592967"><ele>186.0</ele><time>2026-05-01T15:51:04.265Z</time></trkpt><trkpt lat="45.7910167" lon="4.8592017"><ele>186.0</ele><time>2026-05-01T15:52:04.264Z</time></trkpt><trkpt lat="45.791035" lon="4.8594317"><ele>186.0</ele><time>2026-05-01T15:55:15.264Z</time></trkpt><trkpt lat="45.79104" lon="4.85934"><ele>186.0</ele><time>2026-05-01T15:59:35.264Z</time></trkpt><trkpt lat="45.7911483" lon="4.8593883"><ele>186.0</ele><time>2026-05-01T16:08:39.265Z</time></trkpt><trkpt lat="45.7911017" lon="4.8593017"><ele>186.0</ele><time>2026-05-01T16:11:16.265Z</time></trkpt><trkpt lat="45.7910867" lon="4.8591667"><ele>186.0</ele><time>2026-05-01T16:11:47.265Z</time></trkpt><trkpt lat="45.791125" lon="4.859275"><ele>186.0</ele><time>2026-05-01T16:12:05.265Z</time></trkpt><trkpt lat="45.7911617" lon="4.8593733"><ele>186.0</ele><time>2026-05-01T16:12:09.264Z</time></trkpt><trkpt lat="45.791145" lon="4.8595583"><ele>186.0</ele><time>2026-05-01T16:15:08.265Z</time></trkpt><trkpt lat="45.791215" lon="4.85952"><ele>186.0</ele><time>2026-05-01T16:17:49.264Z</time></trkpt><trkpt lat="45.7912783" lon="4.859635"><ele>186.0</ele><time>2026-05-01T16:22:26.265Z</time></trkpt><trkpt lat="45.79122" lon="4.85959"><ele>186.0</ele><time>2026-05-01T16:25:16.265Z</time></trkpt><trkpt lat="45.79115" lon="4.8595033"><ele>186.0</ele><time>2026-05-01T16:29:57.264Z</time></trkpt><trkpt lat="45.7911383" lon="4.8596117"><ele>186.0</ele><time>2026-05-01T16:32:28.264Z</time></trkpt><trkpt lat="45.7911483" lon="4.8597617"><ele>186.0</ele><time>2026-05-01T16:32:34.263Z</time></trkpt><trkpt lat="45.7911583" lon="4.8598667"><ele>186.0</ele><time>2026-05-01T16:32:40.263Z</time></trkpt><trkpt lat="45.79118" lon="4.859715"><ele>186.0</ele><time>2026-05-01T16:37:39.264Z</time></trkpt><trkpt lat="45.7911967" lon="4.8596217"><ele>186.0</ele><time>2026-05-01T16:40:38.264Z</time></trkpt><trkpt lat="45.79112" lon="4.8594883"><ele>186.0</ele><time>2026-05-01T16:44:55.264Z</time></trkpt><trkpt lat="45.7910683" lon="4.859375"><ele>186.0</ele><time>2026-05-01T16:45:17.264Z</time></trkpt><trkpt lat="45.7911067" lon="4.8594717"><ele>186.0</ele><time>2026-05-01T16:45:35.264Z</time></trkpt><trkpt lat="45.791185" lon="4.8595433"><ele>186.0</ele><time>2026-05-01T16:48:10.263Z</time></trkpt><trkpt lat="45.7912433" lon="4.8596767"><ele>186.0</ele><time>2026-05-01T16:48:27.264Z</time></trkpt><trkpt lat="45.7912617" lon="4.85981"><ele>186.0</ele><time>2026-05-01T16:49:55.264Z</time></trkpt><trkpt lat="45.7913117" lon="4.85992"><ele>186.0</ele><time>2026-05-01T16:50:49.263Z</time></trkpt><trkpt lat="45.7913333" lon="4.8600417"><ele>186.0</ele><time>2026-05-01T16:50:53.264Z</time></trkpt><trkpt lat="45.7913083" lon="4.8601433"><ele>186.0</ele><time>2026-05-01T16:51:01.264Z</time></trkpt><trkpt lat="45.7913267" lon="4.8602417"><ele>186.0</ele><time>2026-05-01T16:51:09.264Z</time></trkpt><trkpt lat="45.7912983" lon="4.8603267"><ele>186.0</ele><time>2026-05-01T16:51:32.264Z</time></trkpt><trkpt lat="45.791265" lon="4.86016"><ele>186.0</ele><time>2026-05-01T16:51:58.263Z</time></trkpt><trkpt lat="45.79124" lon="4.86004"><ele>186.0</ele><time>2026-05-01T16:52:19.264Z</time></trkpt><trkpt lat="45.7912267" lon="4.8599033"><ele>186.0</ele><time>2026-05-01T16:52:37.264Z</time></trkpt><trkpt lat="45.7911867" lon="4.8598217"><ele>186.0</ele><time>2026-05-01T16:52:54.263Z</time></trkpt><trkpt lat="45.7911333" lon="4.859745"><ele>186.0</ele><time>2026-05-01T16:54:48.264Z</time></trkpt><trkpt lat="45.7911183" lon="4.8595867"><ele>186.0</ele><time>2026-05-01T16:55:11.263Z</time></trkpt><trkpt lat="45.7911517" lon="4.8594633"><ele>186.0</ele><time>2026-05-01T16:56:23.264Z</time></trkpt><trkpt lat="45.791125" lon="4.8593183"><ele>186.0</ele><time>2026-05-01T16:56:56.264Z</time></trkpt><trkpt lat="45.7910617" lon="4.8592233"><ele>186.0</ele><time>2026-05-01T16:57:09.263Z</time></trkpt><trkpt lat="45.7910617" lon="4.859375"><ele>186.0</ele><time>2026-05-01T16:57:32.264Z</time></trkpt><trkpt lat="45.791155" lon="4.8594867"><ele>186.0</ele><time>2026-05-01T16:57:59.264Z</time></trkpt><trkpt lat="45.7911283" lon="4.8593883"><ele>186.0</ele><time>2026-05-01T16:58:43.264Z</time></trkpt><trkpt lat="45.7911733" lon="4.8595067"><ele>186.0</ele><time>2026-05-01T16:59:13.264Z</time></trkpt><trkpt lat="45.7912133" lon="4.859605"><ele>186.0</ele><time>2026-05-01T16:59:18.264Z</time></trkpt><trkpt lat="45.7911283" lon="4.859575"><ele>186.0</ele><time>2026-05-01T17:07:38.264Z</time></trkpt><trkpt lat="45.7910967" lon="4.859465"><ele>186.0</ele><time>2026-05-01T17:07:51.264Z</time></trkpt><trkpt lat="45.79114" lon="4.859575"><ele>186.0</ele><time>2026-05-01T17:09:05.264Z</time></trkpt><trkpt lat="45.7911833" lon="4.859645"><ele>186.0</ele><time>2026-05-01T17:09:25.264Z</time></trkpt><trkpt lat="45.791285" lon="4.85968"><ele>186.0</ele><time>2026-05-01T17:09:58.263Z</time></trkpt><trkpt lat="45.7912467" lon="4.8595917"><ele>186.0</ele><time>2026-05-01T17:12:28.264Z</time></trkpt><trkpt lat="45.7911533" lon="4.8596417"><ele>186.0</ele><time>2026-05-01T17:14:17.264Z</time></trkpt><trkpt lat="45.7912267" lon="4.8597367"><ele>186.0</ele><time>2026-05-01T17:15:06.264Z</time></trkpt><trkpt lat="45.7911533" lon="4.8597067"><ele>186.0</ele><time>2026-05-01T17:16:27.263Z</time></trkpt><trkpt lat="45.79125" lon="4.85976"><ele>186.0</ele><time>2026-05-01T17:17:59.263Z</time></trkpt><trkpt lat="45.7911883" lon="4.8596333"><ele>186.0</ele><time>2026-05-01T17:18:42.264Z</time></trkpt><trkpt lat="45.7911183" lon="4.859745"><ele>186.0</ele><time>2026-05-01T17:26:15.264Z</time></trkpt><trkpt lat="45.7911283" lon="4.859615"><ele>186.0</ele><time>2026-05-01T17:28:35.264Z</time></trkpt><trkpt lat="45.7912117" lon="4.8597383"><ele>186.0</ele><time>2026-05-01T17:34:09.263Z</time></trkpt><trkpt lat="45.7911667" lon="4.85967"><ele>186.0</ele><time>2026-05-01T17:37:28.264Z</time></trkpt><trkpt lat="45.7911483" lon="4.8598267"><ele>186.0</ele><time>2026-05-01T17:41:53.264Z</time></trkpt><trkpt lat="45.7912067" lon="4.8597367"><ele>186.0</ele><time>2026-05-01T17:43:22.264Z</time></trkpt><trkpt lat="45.7912133" lon="4.8596167"><ele>186.0</ele><time>2026-05-01T17:46:38.264Z</time></trkpt><trkpt lat="45.7911967" lon="4.859765"><ele>186.0</ele><time>2026-05-01T17:50:42.264Z</time></trkpt><trkpt lat="45.7911183" lon="4.8595367"><ele>186.0</ele><time>2026-05-01T18:02:25.263Z</time></trkpt><trkpt lat="45.7910333" lon="4.8594383"><ele>186.0</ele><time>2026-05-01T18:06:10.263Z</time></trkpt><trkpt lat="45.791065" lon="4.8595683"><ele>186.0</ele><time>2026-05-01T18:07:03.263Z</time></trkpt><trkpt lat="45.791155" lon="4.8595083"><ele>186.0</ele><time>2026-05-01T18:09:37.263Z</time></trkpt><trkpt lat="45.79118" lon="4.8596567"><ele>186.0</ele><time>2026-05-01T18:17:23.263Z</time></trkpt><trkpt lat="45.7912633" lon="4.8596917"><ele>186.0</ele><time>2026-05-01T18:19:24.263Z</time></trkpt><trkpt lat="45.7912117" lon="4.85957"><ele>186.0</ele><time>2026-05-01T18:22:10.262Z</time></trkpt><trkpt lat="45.791235" lon="4.8596917"><ele>186.0</ele><time>2026-05-01T18:24:42.263Z</time></trkpt><trkpt lat="45.7912617" lon="4.8597783"><ele>186.0</ele><time>2026-05-01T18:24:49.263Z</time></trkpt><trkpt lat="45.79118" lon="4.8595933"><ele>186.0</ele><time>2026-05-01T18:28:08.263Z</time></trkpt><trkpt lat="45.7911617" lon="4.8596983"><ele>186.0</ele><time>2026-05-01T18:29:29.263Z</time></trkpt><trkpt lat="45.79112" lon="4.8598017"><ele>186.0</ele><time>2026-05-01T18:30:10.263Z</time></trkpt><trkpt lat="45.7910867" lon="4.8597067"><ele>186.0</ele><time>2026-05-01T18:30:35.262Z</time></trkpt><trkpt lat="45.7911517" lon="4.8596967"><ele>186.0</ele><time>2026-05-01T18:30:42.262Z</time></trkpt><trkpt lat="45.79122" lon="4.85972"><ele>186.0</ele><time>2026-05-01T18:32:17.262Z</time></trkpt><trkpt lat="45.7912333" lon="4.8595883"><ele>186.0</ele><time>2026-05-01T18:32:40.262Z</time></trkpt><trkpt lat="45.79129" lon="4.8594183"><ele>186.0</ele><time>2026-05-01T18:33:15.262Z</time></trkpt><trkpt lat="45.7911933" lon="4.8593367"><ele>186.0</ele><time>2026-05-01T18:33:33.263Z</time></trkpt><trkpt lat="45.7911067" lon="4.8592933"><ele>186.0</ele><time>2026-05-01T18:33:41.263Z</time></trkpt><trkpt lat="45.791" lon="4.8592833"><ele>186.0</ele><time>2026-05-01T18:34:17.263Z</time></trkpt><trkpt lat="45.79094" lon="4.8593333"><ele>186.0</ele><time>2026-05-01T18:35:02.263Z</time></trkpt><trkpt lat="45.7910233" lon="4.8593733"><ele>186.0</ele><time>2026-05-01T18:36:22.262Z</time></trkpt><trkpt lat="45.7911033" lon="4.8594667"><ele>186.0</ele><time>2026-05-01T18:36:41.263Z</time></trkpt><trkpt lat="45.791105" lon="4.8595917"><ele>186.0</ele><time>2026-05-01T18:37:38.262Z</time></trkpt><trkpt lat="45.7910217" lon="4.8596667"><ele>186.0</ele><time>2026-05-01T18:38:36.263Z</time></trkpt><trkpt lat="45.7909883" lon="4.85952"><ele>186.0</ele><time>2026-05-01T18:39:37.263Z</time></trkpt><trkpt lat="45.79107" lon="4.8594083"><ele>186.0</ele><time>2026-05-01T18:40:20.263Z</time></trkpt><trkpt lat="45.7911833" lon="4.859455"><ele>186.0</ele><time>2026-05-01T18:40:34.263Z</time></trkpt><trkpt lat="45.7911083" lon="4.8594817"><ele>186.0</ele><time>2026-05-01T18:41:53.262Z</time></trkpt><trkpt lat="45.7910233" lon="4.8594417"><ele>186.0</ele><time>2026-05-01T18:42:35.263Z</time></trkpt><trkpt lat="45.7911" lon="4.85936"><ele>186.0</ele><time>2026-05-01T18:44:56.263Z</time></trkpt><trkpt lat="45.7911233" lon="4.8594917"><ele>186.0</ele><time>2026-05-01T18:45:36.263Z</time></trkpt><trkpt lat="45.7911817" lon="4.8596083"><ele>186.0</ele><time>2026-05-01T18:50:51.263Z</time></trkpt><trkpt lat="45.7911817" lon="4.85948"><ele>186.0</ele><time>2026-05-01T18:55:14.263Z</time></trkpt><trkpt lat="45.79113" lon="4.85954"><ele>186.0</ele><time>2026-05-01T18:58:41.262Z</time></trkpt><trkpt lat="45.7911233" lon="4.8593633"><ele>186.0</ele><time>2026-05-01T19:02:19.263Z</time></trkpt><trkpt lat="45.7911317" lon="4.8594867"><ele>186.0</ele><time>2026-05-01T19:04:45.262Z</time></trkpt><trkpt lat="45.7911333" lon="4.8595783"><ele>186.0</ele><time>2026-05-01T19:05:02.263Z</time></trkpt><trkpt lat="45.7911717" lon="4.8594917"><ele>186.0</ele><time>2026-05-01T19:09:33.262Z</time></trkpt><trkpt lat="45.7912683" lon="4.8594517"><ele>186.0</ele><time>2026-05-01T19:09:48.262Z</time></trkpt><trkpt lat="45.7912117" lon="4.8595567"><ele>186.0</ele><time>2026-05-01T19:11:10.262Z</time></trkpt><trkpt lat="45.7912" lon="4.8597033"><ele>186.0</ele><time>2026-05-01T19:11:55.262Z</time></trkpt><trkpt lat="45.791135" lon="4.8595867"><ele>186.0</ele><time>2026-05-01T19:13:11.262Z</time></trkpt><trkpt lat="45.7911967" lon="4.8595667"><ele>186.0</ele><time>2026-05-01T19:15:48.262Z</time></trkpt><trkpt lat="45.7911933" lon="4.8594333"><ele>186.0</ele><time>2026-05-01T19:19:15.261Z</time></trkpt><trkpt lat="45.7912267" lon="4.8595167"><ele>186.0</ele><time>2026-05-01T19:20:53.262Z</time></trkpt><trkpt lat="45.791175" lon="4.8594383"><ele>186.0</ele><time>2026-05-01T19:23:29.261Z</time></trkpt><trkpt lat="45.7912517" lon="4.8594883"><ele>186.0</ele><time>2026-05-01T19:25:00.262Z</time></trkpt><trkpt lat="45.7912433" lon="4.859655"><ele>186.0</ele><time>2026-05-01T19:52:36.262Z</time></trkpt><trkpt lat="45.79125" lon="4.8597633"><ele>186.0</ele><time>2026-05-01T19:52:44.262Z</time></trkpt><trkpt lat="45.7913017" lon="4.8599633"><ele>186.0</ele><time>2026-05-01T20:06:57.261Z</time></trkpt><trkpt lat="45.79124" lon="4.8598433"><ele>186.0</ele><time>2026-05-01T20:12:55.261Z</time></trkpt><trkpt lat="45.7911767" lon="4.859705"><ele>186.0</ele><time>2026-05-01T20:13:42.261Z</time></trkpt><trkpt lat="45.79124" lon="4.8597883"><ele>186.0</ele><time>2026-05-01T20:18:06.261Z</time></trkpt><trkpt lat="45.7911933" lon="4.8596033"><ele>186.0</ele><time>2026-05-01T20:35:05.261Z</time></trkpt><trkpt lat="45.7912333" lon="4.8596917"><ele>186.0</ele><time>2026-05-01T20:37:22.26Z</time></trkpt><trkpt lat="45.7911117" lon="4.8596"><ele>186.0</ele><time>2026-05-01T20:56:54.26Z</time></trkpt><trkpt lat="45.791055" lon="4.859495"><ele>186.0</ele><time>2026-05-01T20:57:20.261Z</time></trkpt><trkpt lat="45.7911233" lon="4.8595267"><ele>186.0</ele><time>2026-05-01T20:59:11.261Z</time></trkpt><trkpt lat="45.79118" lon="4.8596267"><ele>186.0</ele><time>2026-05-01T21:01:12.26Z</time></trkpt><trkpt lat="45.7912033" lon="4.8597333"><ele>186.0</ele><time>2026-05-01T21:06:13.261Z</time></trkpt><trkpt lat="45.7912083" lon="4.8595917"><ele>186.0</ele><time>2026-05-01T21:07:06.26Z</time></trkpt><trkpt lat="45.7912383" lon="4.8594617"><ele>186.0</ele><time>2026-05-01T21:13:25.261Z</time></trkpt><trkpt lat="45.7912083" lon="4.8593717"><ele>186.0</ele><time>2026-05-01T21:13:31.261Z</time></trkpt><trkpt lat="45.7912283" lon="4.85946"><ele>186.0</ele><time>2026-05-01T21:14:08.261Z</time></trkpt><trkpt lat="45.7911467" lon="4.85941"><ele>186.0</ele><time>2026-05-01T21:15:31.261Z</time></trkpt><trkpt lat="45.7912" lon="4.8595117"><ele>186.0</ele><time>2026-05-01T21:15:46.261Z</time></trkpt><trkpt lat="45.7912833" lon="4.8596083"><ele>186.0</ele><time>2026-05-01T21:17:34.261Z</time></trkpt><trkpt lat="45.791225" lon="4.8595533"><ele>186.0</ele><time>2026-05-01T21:18:54.261Z</time></trkpt></trkseg></trk></gpx>